<?xml version="1.0" encoding="UTF-8"?>
<gpx creator="Wikiloc - http://www.wikiloc.com" version="1.1" xmlns="http://www.topografix.com/GPX/1/1" xmlns:xsi="http://www.w3.org/2001/XMLSchema-instance" xsi:schemaLocation="http://www.topografix.com/GPX/1/1 http://www.topografix.com/GPX/1/1/gpx.xsd">
  <trk>
    <name>Vendrell RodaBerà Bonastre Masarbonés Bonastre Albinyana PuigLleó Vendrell</name>
    <cmt></cmt>
    <desc></desc>
    <trkseg>
      <trkpt lat="41.219788" lon="1.528441">
        <ele>0.0</ele>
        <time>2014-12-07T07:04:34Z</time>
      </trkpt>
      <trkpt lat="41.219749" lon="1.528265">
        <ele>0.0</ele>
        <time>2014-12-07T07:04:37Z</time>
      </trkpt>
      <trkpt lat="41.219723" lon="1.528215">
        <ele>-0.2</ele>
        <time>2014-12-07T07:04:38Z</time>
      </trkpt>
      <trkpt lat="41.219696" lon="1.528174">
        <ele>-0.2</ele>
        <time>2014-12-07T07:04:39Z</time>
      </trkpt>
      <trkpt lat="41.219669" lon="1.528127">
        <ele>-0.2</ele>
        <time>2014-12-07T07:04:40Z</time>
      </trkpt>
      <trkpt lat="41.219551" lon="1.528022">
        <ele>-0.2</ele>
        <time>2014-12-07T07:04:43Z</time>
      </trkpt>
      <trkpt lat="41.219471" lon="1.527967">
        <ele>-0.2</ele>
        <time>2014-12-07T07:04:45Z</time>
      </trkpt>
      <trkpt lat="41.219425" lon="1.527952">
        <ele>-0.2</ele>
        <time>2014-12-07T07:04:46Z</time>
      </trkpt>
      <trkpt lat="41.219128" lon="1.527907">
        <ele>-0.2</ele>
        <time>2014-12-07T07:04:52Z</time>
      </trkpt>
      <trkpt lat="41.218884" lon="1.527910">
        <ele>-0.2</ele>
        <time>2014-12-07T07:04:56Z</time>
      </trkpt>
      <trkpt lat="41.218815" lon="1.527925">
        <ele>-0.2</ele>
        <time>2014-12-07T07:04:57Z</time>
      </trkpt>
      <trkpt lat="41.218494" lon="1.527970">
        <ele>-0.2</ele>
        <time>2014-12-07T07:05:02Z</time>
      </trkpt>
      <trkpt lat="41.218430" lon="1.527960">
        <ele>-0.6</ele>
        <time>2014-12-07T07:05:03Z</time>
      </trkpt>
      <trkpt lat="41.218388" lon="1.527955">
        <ele>-1.0</ele>
        <time>2014-12-07T07:05:04Z</time>
      </trkpt>
      <trkpt lat="41.218365" lon="1.527955">
        <ele>-1.4</ele>
        <time>2014-12-07T07:05:05Z</time>
      </trkpt>
      <trkpt lat="41.218349" lon="1.527954">
        <ele>-1.8</ele>
        <time>2014-12-07T07:05:06Z</time>
      </trkpt>
      <trkpt lat="41.218349" lon="1.527948">
        <ele>-2.2</ele>
        <time>2014-12-07T07:05:07Z</time>
      </trkpt>
      <trkpt lat="41.218349" lon="1.527938">
        <ele>-2.2</ele>
        <time>2014-12-07T07:05:09Z</time>
      </trkpt>
      <trkpt lat="41.218384" lon="1.527960">
        <ele>-2.2</ele>
        <time>2014-12-07T07:06:26Z</time>
      </trkpt>
      <trkpt lat="41.218384" lon="1.528045">
        <ele>-2.2</ele>
        <time>2014-12-07T07:06:29Z</time>
      </trkpt>
      <trkpt lat="41.218414" lon="1.528039">
        <ele>-2.2</ele>
        <time>2014-12-07T07:06:31Z</time>
      </trkpt>
      <trkpt lat="41.218430" lon="1.528023">
        <ele>-2.2</ele>
        <time>2014-12-07T07:06:32Z</time>
      </trkpt>
      <trkpt lat="41.218445" lon="1.528003">
        <ele>-2.2</ele>
        <time>2014-12-07T07:06:33Z</time>
      </trkpt>
      <trkpt lat="41.218422" lon="1.528008">
        <ele>-2.2</ele>
        <time>2014-12-07T07:06:37Z</time>
      </trkpt>
      <trkpt lat="41.218330" lon="1.528077">
        <ele>-2.2</ele>
        <time>2014-12-07T07:06:42Z</time>
      </trkpt>
      <trkpt lat="41.218273" lon="1.528148">
        <ele>-2.2</ele>
        <time>2014-12-07T07:06:45Z</time>
      </trkpt>
      <trkpt lat="41.218071" lon="1.528343">
        <ele>-2.2</ele>
        <time>2014-12-07T07:06:52Z</time>
      </trkpt>
      <trkpt lat="41.217796" lon="1.528399">
        <ele>-2.2</ele>
        <time>2014-12-07T07:06:58Z</time>
      </trkpt>
      <trkpt lat="41.217701" lon="1.528428">
        <ele>-2.6</ele>
        <time>2014-12-07T07:07:00Z</time>
      </trkpt>
      <trkpt lat="41.217655" lon="1.528439">
        <ele>-3.0</ele>
        <time>2014-12-07T07:07:01Z</time>
      </trkpt>
      <trkpt lat="41.217606" lon="1.528449">
        <ele>-3.6</ele>
        <time>2014-12-07T07:07:02Z</time>
      </trkpt>
      <trkpt lat="41.217556" lon="1.528463">
        <ele>-4.4</ele>
        <time>2014-12-07T07:07:03Z</time>
      </trkpt>
      <trkpt lat="41.217407" lon="1.528535">
        <ele>-4.4</ele>
        <time>2014-12-07T07:07:06Z</time>
      </trkpt>
      <trkpt lat="41.217247" lon="1.528602">
        <ele>-4.8</ele>
        <time>2014-12-07T07:07:09Z</time>
      </trkpt>
      <trkpt lat="41.217197" lon="1.528622">
        <ele>-5.2</ele>
        <time>2014-12-07T07:07:10Z</time>
      </trkpt>
      <trkpt lat="41.217140" lon="1.528641">
        <ele>-5.6</ele>
        <time>2014-12-07T07:07:11Z</time>
      </trkpt>
      <trkpt lat="41.217083" lon="1.528658">
        <ele>-6.0</ele>
        <time>2014-12-07T07:07:12Z</time>
      </trkpt>
      <trkpt lat="41.217026" lon="1.528676">
        <ele>-6.4</ele>
        <time>2014-12-07T07:07:13Z</time>
      </trkpt>
      <trkpt lat="41.216686" lon="1.528808">
        <ele>-6.4</ele>
        <time>2014-12-07T07:07:19Z</time>
      </trkpt>
      <trkpt lat="41.216564" lon="1.528859">
        <ele>-6.8</ele>
        <time>2014-12-07T07:07:21Z</time>
      </trkpt>
      <trkpt lat="41.216503" lon="1.528882">
        <ele>-7.2</ele>
        <time>2014-12-07T07:07:22Z</time>
      </trkpt>
      <trkpt lat="41.216446" lon="1.528904">
        <ele>-7.6</ele>
        <time>2014-12-07T07:07:23Z</time>
      </trkpt>
      <trkpt lat="41.216385" lon="1.528926">
        <ele>-8.0</ele>
        <time>2014-12-07T07:07:24Z</time>
      </trkpt>
      <trkpt lat="41.216316" lon="1.528951">
        <ele>-8.4</ele>
        <time>2014-12-07T07:07:25Z</time>
      </trkpt>
      <trkpt lat="41.215820" lon="1.529123">
        <ele>-8.8</ele>
        <time>2014-12-07T07:07:32Z</time>
      </trkpt>
      <trkpt lat="41.215748" lon="1.529158">
        <ele>-9.4</ele>
        <time>2014-12-07T07:07:33Z</time>
      </trkpt>
      <trkpt lat="41.215675" lon="1.529186">
        <ele>-9.8</ele>
        <time>2014-12-07T07:07:34Z</time>
      </trkpt>
      <trkpt lat="41.215595" lon="1.529224">
        <ele>-10.2</ele>
        <time>2014-12-07T07:07:35Z</time>
      </trkpt>
      <trkpt lat="41.215523" lon="1.529261">
        <ele>-10.6</ele>
        <time>2014-12-07T07:07:36Z</time>
      </trkpt>
      <trkpt lat="41.215458" lon="1.529301">
        <ele>-10.6</ele>
        <time>2014-12-07T07:07:37Z</time>
      </trkpt>
      <trkpt lat="41.215256" lon="1.529464">
        <ele>-11.0</ele>
        <time>2014-12-07T07:07:41Z</time>
      </trkpt>
      <trkpt lat="41.215233" lon="1.529490">
        <ele>-11.4</ele>
        <time>2014-12-07T07:07:42Z</time>
      </trkpt>
      <trkpt lat="41.215221" lon="1.529519">
        <ele>-11.8</ele>
        <time>2014-12-07T07:07:43Z</time>
      </trkpt>
      <trkpt lat="41.215210" lon="1.529556">
        <ele>-12.2</ele>
        <time>2014-12-07T07:07:44Z</time>
      </trkpt>
      <trkpt lat="41.215206" lon="1.529597">
        <ele>-12.6</ele>
        <time>2014-12-07T07:07:45Z</time>
      </trkpt>
      <trkpt lat="41.215141" lon="1.529675">
        <ele>-12.6</ele>
        <time>2014-12-07T07:07:48Z</time>
      </trkpt>
      <trkpt lat="41.215019" lon="1.529777">
        <ele>-12.6</ele>
        <time>2014-12-07T07:07:52Z</time>
      </trkpt>
      <trkpt lat="41.214985" lon="1.529807">
        <ele>-12.6</ele>
        <time>2014-12-07T07:07:53Z</time>
      </trkpt>
      <trkpt lat="41.214870" lon="1.529924">
        <ele>-12.6</ele>
        <time>2014-12-07T07:07:56Z</time>
      </trkpt>
      <trkpt lat="41.214794" lon="1.529977">
        <ele>-12.6</ele>
        <time>2014-12-07T07:07:58Z</time>
      </trkpt>
      <trkpt lat="41.214714" lon="1.530040">
        <ele>-12.6</ele>
        <time>2014-12-07T07:08:00Z</time>
      </trkpt>
      <trkpt lat="41.214634" lon="1.530145">
        <ele>-12.6</ele>
        <time>2014-12-07T07:08:03Z</time>
      </trkpt>
      <trkpt lat="41.214542" lon="1.530283">
        <ele>-12.6</ele>
        <time>2014-12-07T07:08:07Z</time>
      </trkpt>
      <trkpt lat="41.214443" lon="1.530284">
        <ele>-12.6</ele>
        <time>2014-12-07T07:08:10Z</time>
      </trkpt>
      <trkpt lat="41.214409" lon="1.530265">
        <ele>-12.6</ele>
        <time>2014-12-07T07:08:11Z</time>
      </trkpt>
      <trkpt lat="41.214367" lon="1.530269">
        <ele>-12.6</ele>
        <time>2014-12-07T07:08:12Z</time>
      </trkpt>
      <trkpt lat="41.214275" lon="1.530294">
        <ele>-12.6</ele>
        <time>2014-12-07T07:08:14Z</time>
      </trkpt>
      <trkpt lat="41.214157" lon="1.530368">
        <ele>-12.6</ele>
        <time>2014-12-07T07:08:17Z</time>
      </trkpt>
      <trkpt lat="41.214115" lon="1.530395">
        <ele>-13.0</ele>
        <time>2014-12-07T07:08:18Z</time>
      </trkpt>
      <trkpt lat="41.214073" lon="1.530421">
        <ele>-13.4</ele>
        <time>2014-12-07T07:08:19Z</time>
      </trkpt>
      <trkpt lat="41.214031" lon="1.530445">
        <ele>-13.8</ele>
        <time>2014-12-07T07:08:20Z</time>
      </trkpt>
      <trkpt lat="41.213993" lon="1.530470">
        <ele>-14.2</ele>
        <time>2014-12-07T07:08:21Z</time>
      </trkpt>
      <trkpt lat="41.213951" lon="1.530498">
        <ele>-14.6</ele>
        <time>2014-12-07T07:08:22Z</time>
      </trkpt>
      <trkpt lat="41.213898" lon="1.530507">
        <ele>-14.6</ele>
        <time>2014-12-07T07:08:23Z</time>
      </trkpt>
      <trkpt lat="41.213799" lon="1.530481">
        <ele>-14.6</ele>
        <time>2014-12-07T07:08:25Z</time>
      </trkpt>
      <trkpt lat="41.213379" lon="1.530354">
        <ele>-14.6</ele>
        <time>2014-12-07T07:08:33Z</time>
      </trkpt>
      <trkpt lat="41.213318" lon="1.530355">
        <ele>-14.6</ele>
        <time>2014-12-07T07:08:34Z</time>
      </trkpt>
      <trkpt lat="41.213253" lon="1.530357">
        <ele>-15.0</ele>
        <time>2014-12-07T07:08:35Z</time>
      </trkpt>
      <trkpt lat="41.213184" lon="1.530353">
        <ele>-15.4</ele>
        <time>2014-12-07T07:08:36Z</time>
      </trkpt>
      <trkpt lat="41.213112" lon="1.530357">
        <ele>-15.8</ele>
        <time>2014-12-07T07:08:37Z</time>
      </trkpt>
      <trkpt lat="41.213047" lon="1.530368">
        <ele>-16.2</ele>
        <time>2014-12-07T07:08:38Z</time>
      </trkpt>
      <trkpt lat="41.212982" lon="1.530376">
        <ele>-16.6</ele>
        <time>2014-12-07T07:08:39Z</time>
      </trkpt>
      <trkpt lat="41.212734" lon="1.530443">
        <ele>-16.6</ele>
        <time>2014-12-07T07:08:43Z</time>
      </trkpt>
      <trkpt lat="41.212551" lon="1.530512">
        <ele>-16.6</ele>
        <time>2014-12-07T07:08:46Z</time>
      </trkpt>
      <trkpt lat="41.212315" lon="1.530668">
        <ele>-17.0</ele>
        <time>2014-12-07T07:08:50Z</time>
      </trkpt>
      <trkpt lat="41.212250" lon="1.530713">
        <ele>-17.4</ele>
        <time>2014-12-07T07:08:51Z</time>
      </trkpt>
      <trkpt lat="41.212189" lon="1.530750">
        <ele>-18.0</ele>
        <time>2014-12-07T07:08:52Z</time>
      </trkpt>
      <trkpt lat="41.212124" lon="1.530743">
        <ele>-18.4</ele>
        <time>2014-12-07T07:08:53Z</time>
      </trkpt>
      <trkpt lat="41.212067" lon="1.530704">
        <ele>-18.8</ele>
        <time>2014-12-07T07:08:54Z</time>
      </trkpt>
      <trkpt lat="41.211922" lon="1.530535">
        <ele>-18.8</ele>
        <time>2014-12-07T07:08:57Z</time>
      </trkpt>
      <trkpt lat="41.211899" lon="1.530477">
        <ele>-18.8</ele>
        <time>2014-12-07T07:08:58Z</time>
      </trkpt>
      <trkpt lat="41.211834" lon="1.530417">
        <ele>-18.8</ele>
        <time>2014-12-07T07:09:00Z</time>
      </trkpt>
      <trkpt lat="41.211716" lon="1.530470">
        <ele>-18.8</ele>
        <time>2014-12-07T07:09:03Z</time>
      </trkpt>
      <trkpt lat="41.211674" lon="1.530504">
        <ele>-18.8</ele>
        <time>2014-12-07T07:09:04Z</time>
      </trkpt>
      <trkpt lat="41.211582" lon="1.530559">
        <ele>-18.8</ele>
        <time>2014-12-07T07:09:06Z</time>
      </trkpt>
      <trkpt lat="41.211510" lon="1.530563">
        <ele>-18.8</ele>
        <time>2014-12-07T07:09:08Z</time>
      </trkpt>
      <trkpt lat="41.211327" lon="1.530554">
        <ele>-18.8</ele>
        <time>2014-12-07T07:09:12Z</time>
      </trkpt>
      <trkpt lat="41.211014" lon="1.530529">
        <ele>-18.8</ele>
        <time>2014-12-07T07:09:17Z</time>
      </trkpt>
      <trkpt lat="41.210888" lon="1.530518">
        <ele>-19.2</ele>
        <time>2014-12-07T07:09:19Z</time>
      </trkpt>
      <trkpt lat="41.210823" lon="1.530516">
        <ele>-19.6</ele>
        <time>2014-12-07T07:09:20Z</time>
      </trkpt>
      <trkpt lat="41.210758" lon="1.530512">
        <ele>-20.0</ele>
        <time>2014-12-07T07:09:21Z</time>
      </trkpt>
      <trkpt lat="41.210690" lon="1.530512">
        <ele>-20.4</ele>
        <time>2014-12-07T07:09:22Z</time>
      </trkpt>
      <trkpt lat="41.210629" lon="1.530512">
        <ele>-20.8</ele>
        <time>2014-12-07T07:09:23Z</time>
      </trkpt>
      <trkpt lat="41.210381" lon="1.530504">
        <ele>-20.8</ele>
        <time>2014-12-07T07:09:27Z</time>
      </trkpt>
      <trkpt lat="41.210251" lon="1.530478">
        <ele>-20.8</ele>
        <time>2014-12-07T07:09:29Z</time>
      </trkpt>
      <trkpt lat="41.209885" lon="1.530423">
        <ele>-20.8</ele>
        <time>2014-12-07T07:09:35Z</time>
      </trkpt>
      <trkpt lat="41.209515" lon="1.530342">
        <ele>-21.2</ele>
        <time>2014-12-07T07:09:41Z</time>
      </trkpt>
      <trkpt lat="41.209454" lon="1.530331">
        <ele>-21.8</ele>
        <time>2014-12-07T07:09:42Z</time>
      </trkpt>
      <trkpt lat="41.209396" lon="1.530318">
        <ele>-22.2</ele>
        <time>2014-12-07T07:09:43Z</time>
      </trkpt>
      <trkpt lat="41.209332" lon="1.530301">
        <ele>-22.6</ele>
        <time>2014-12-07T07:09:44Z</time>
      </trkpt>
      <trkpt lat="41.209270" lon="1.530285">
        <ele>-23.0</ele>
        <time>2014-12-07T07:09:45Z</time>
      </trkpt>
      <trkpt lat="41.208965" lon="1.530220">
        <ele>-23.0</ele>
        <time>2014-12-07T07:09:50Z</time>
      </trkpt>
      <trkpt lat="41.208462" lon="1.530138">
        <ele>-23.0</ele>
        <time>2014-12-07T07:09:58Z</time>
      </trkpt>
      <trkpt lat="41.208267" lon="1.530119">
        <ele>-23.0</ele>
        <time>2014-12-07T07:10:01Z</time>
      </trkpt>
      <trkpt lat="41.208206" lon="1.530097">
        <ele>-23.0</ele>
        <time>2014-12-07T07:10:02Z</time>
      </trkpt>
      <trkpt lat="41.208145" lon="1.530064">
        <ele>-23.0</ele>
        <time>2014-12-07T07:10:03Z</time>
      </trkpt>
      <trkpt lat="41.208031" lon="1.529976">
        <ele>-23.0</ele>
        <time>2014-12-07T07:10:05Z</time>
      </trkpt>
      <trkpt lat="41.207909" lon="1.529911">
        <ele>-23.0</ele>
        <time>2014-12-07T07:10:07Z</time>
      </trkpt>
      <trkpt lat="41.207787" lon="1.529873">
        <ele>-23.4</ele>
        <time>2014-12-07T07:10:09Z</time>
      </trkpt>
      <trkpt lat="41.207726" lon="1.529859">
        <ele>-23.8</ele>
        <time>2014-12-07T07:10:10Z</time>
      </trkpt>
      <trkpt lat="41.207653" lon="1.529843">
        <ele>-24.2</ele>
        <time>2014-12-07T07:10:11Z</time>
      </trkpt>
      <trkpt lat="41.207592" lon="1.529832">
        <ele>-24.6</ele>
        <time>2014-12-07T07:10:12Z</time>
      </trkpt>
      <trkpt lat="41.207527" lon="1.529822">
        <ele>-25.0</ele>
        <time>2014-12-07T07:10:13Z</time>
      </trkpt>
      <trkpt lat="41.206944" lon="1.529720">
        <ele>-25.0</ele>
        <time>2014-12-07T07:10:22Z</time>
      </trkpt>
      <trkpt lat="41.206589" lon="1.529594">
        <ele>-25.0</ele>
        <time>2014-12-07T07:10:28Z</time>
      </trkpt>
      <trkpt lat="41.206142" lon="1.529424">
        <ele>-25.0</ele>
        <time>2014-12-07T07:10:36Z</time>
      </trkpt>
      <trkpt lat="41.205799" lon="1.529278">
        <ele>-25.0</ele>
        <time>2014-12-07T07:10:43Z</time>
      </trkpt>
      <trkpt lat="41.205700" lon="1.529226">
        <ele>-25.4</ele>
        <time>2014-12-07T07:10:45Z</time>
      </trkpt>
      <trkpt lat="41.205650" lon="1.529203">
        <ele>-26.2</ele>
        <time>2014-12-07T07:10:46Z</time>
      </trkpt>
      <trkpt lat="41.205601" lon="1.529179">
        <ele>-26.6</ele>
        <time>2014-12-07T07:10:47Z</time>
      </trkpt>
      <trkpt lat="41.205555" lon="1.529157">
        <ele>-27.0</ele>
        <time>2014-12-07T07:10:48Z</time>
      </trkpt>
      <trkpt lat="41.205414" lon="1.529072">
        <ele>-27.0</ele>
        <time>2014-12-07T07:10:51Z</time>
      </trkpt>
      <trkpt lat="41.205341" lon="1.528926">
        <ele>-27.0</ele>
        <time>2014-12-07T07:10:54Z</time>
      </trkpt>
      <trkpt lat="41.205322" lon="1.528870">
        <ele>-27.0</ele>
        <time>2014-12-07T07:10:55Z</time>
      </trkpt>
      <trkpt lat="41.205254" lon="1.528677">
        <ele>-27.0</ele>
        <time>2014-12-07T07:10:59Z</time>
      </trkpt>
      <trkpt lat="41.205170" lon="1.528384">
        <ele>-27.0</ele>
        <time>2014-12-07T07:11:06Z</time>
      </trkpt>
      <trkpt lat="41.205086" lon="1.528160">
        <ele>-27.0</ele>
        <time>2014-12-07T07:11:11Z</time>
      </trkpt>
      <trkpt lat="41.205070" lon="1.528118">
        <ele>-26.6</ele>
        <time>2014-12-07T07:11:12Z</time>
      </trkpt>
      <trkpt lat="41.205051" lon="1.528073">
        <ele>-26.2</ele>
        <time>2014-12-07T07:11:13Z</time>
      </trkpt>
      <trkpt lat="41.205036" lon="1.528031">
        <ele>-25.8</ele>
        <time>2014-12-07T07:11:14Z</time>
      </trkpt>
      <trkpt lat="41.205009" lon="1.527987">
        <ele>-25.4</ele>
        <time>2014-12-07T07:11:15Z</time>
      </trkpt>
      <trkpt lat="41.204983" lon="1.527951">
        <ele>-25.0</ele>
        <time>2014-12-07T07:11:16Z</time>
      </trkpt>
      <trkpt lat="41.204926" lon="1.527864">
        <ele>-25.0</ele>
        <time>2014-12-07T07:11:18Z</time>
      </trkpt>
      <trkpt lat="41.204815" lon="1.527681">
        <ele>-25.0</ele>
        <time>2014-12-07T07:11:22Z</time>
      </trkpt>
      <trkpt lat="41.204754" lon="1.527604">
        <ele>-25.0</ele>
        <time>2014-12-07T07:11:24Z</time>
      </trkpt>
      <trkpt lat="41.204670" lon="1.527496">
        <ele>-25.0</ele>
        <time>2014-12-07T07:11:27Z</time>
      </trkpt>
      <trkpt lat="41.204517" lon="1.527297">
        <ele>-25.0</ele>
        <time>2014-12-07T07:11:32Z</time>
      </trkpt>
      <trkpt lat="41.204319" lon="1.527060">
        <ele>-25.0</ele>
        <time>2014-12-07T07:11:38Z</time>
      </trkpt>
      <trkpt lat="41.204281" lon="1.527026">
        <ele>-25.0</ele>
        <time>2014-12-07T07:11:39Z</time>
      </trkpt>
      <trkpt lat="41.203972" lon="1.526744">
        <ele>-25.0</ele>
        <time>2014-12-07T07:11:47Z</time>
      </trkpt>
      <trkpt lat="41.203659" lon="1.526443">
        <ele>-25.0</ele>
        <time>2014-12-07T07:11:55Z</time>
      </trkpt>
      <trkpt lat="41.203304" lon="1.526122">
        <ele>-25.0</ele>
        <time>2014-12-07T07:12:04Z</time>
      </trkpt>
      <trkpt lat="41.203270" lon="1.526079">
        <ele>-25.0</ele>
        <time>2014-12-07T07:12:05Z</time>
      </trkpt>
      <trkpt lat="41.203125" lon="1.525851">
        <ele>-25.0</ele>
        <time>2014-12-07T07:12:10Z</time>
      </trkpt>
      <trkpt lat="41.202919" lon="1.525536">
        <ele>-25.0</ele>
        <time>2014-12-07T07:12:17Z</time>
      </trkpt>
      <trkpt lat="41.202801" lon="1.525367">
        <ele>-25.0</ele>
        <time>2014-12-07T07:12:21Z</time>
      </trkpt>
      <trkpt lat="41.202713" lon="1.525298">
        <ele>-25.0</ele>
        <time>2014-12-07T07:12:23Z</time>
      </trkpt>
      <trkpt lat="41.202381" lon="1.525038">
        <ele>-25.0</ele>
        <time>2014-12-07T07:12:31Z</time>
      </trkpt>
      <trkpt lat="41.202175" lon="1.524881">
        <ele>-25.0</ele>
        <time>2014-12-07T07:12:36Z</time>
      </trkpt>
      <trkpt lat="41.202095" lon="1.524827">
        <ele>-25.0</ele>
        <time>2014-12-07T07:12:38Z</time>
      </trkpt>
      <trkpt lat="41.201935" lon="1.524728">
        <ele>-25.0</ele>
        <time>2014-12-07T07:12:42Z</time>
      </trkpt>
      <trkpt lat="41.201889" lon="1.524712">
        <ele>-25.0</ele>
        <time>2014-12-07T07:12:43Z</time>
      </trkpt>
      <trkpt lat="41.201561" lon="1.524551">
        <ele>-25.0</ele>
        <time>2014-12-07T07:12:51Z</time>
      </trkpt>
      <trkpt lat="41.201485" lon="1.524500">
        <ele>-24.6</ele>
        <time>2014-12-07T07:12:53Z</time>
      </trkpt>
      <trkpt lat="41.201447" lon="1.524468">
        <ele>-24.2</ele>
        <time>2014-12-07T07:12:54Z</time>
      </trkpt>
      <trkpt lat="41.201408" lon="1.524434">
        <ele>-23.8</ele>
        <time>2014-12-07T07:12:55Z</time>
      </trkpt>
      <trkpt lat="41.201374" lon="1.524398">
        <ele>-23.4</ele>
        <time>2014-12-07T07:12:56Z</time>
      </trkpt>
      <trkpt lat="41.201336" lon="1.524365">
        <ele>-23.0</ele>
        <time>2014-12-07T07:12:57Z</time>
      </trkpt>
      <trkpt lat="41.200951" lon="1.524039">
        <ele>-23.0</ele>
        <time>2014-12-07T07:13:07Z</time>
      </trkpt>
      <trkpt lat="41.200733" lon="1.523839">
        <ele>-23.0</ele>
        <time>2014-12-07T07:13:13Z</time>
      </trkpt>
      <trkpt lat="41.200703" lon="1.523800">
        <ele>-23.0</ele>
        <time>2014-12-07T07:13:14Z</time>
      </trkpt>
      <trkpt lat="41.200611" lon="1.523689">
        <ele>-23.0</ele>
        <time>2014-12-07T07:13:17Z</time>
      </trkpt>
      <trkpt lat="41.200489" lon="1.523550">
        <ele>-23.0</ele>
        <time>2014-12-07T07:13:21Z</time>
      </trkpt>
      <trkpt lat="41.200462" lon="1.523499">
        <ele>-23.0</ele>
        <time>2014-12-07T07:13:22Z</time>
      </trkpt>
      <trkpt lat="41.200424" lon="1.523329">
        <ele>-23.0</ele>
        <time>2014-12-07T07:13:25Z</time>
      </trkpt>
      <trkpt lat="41.200405" lon="1.523278">
        <ele>-23.0</ele>
        <time>2014-12-07T07:13:26Z</time>
      </trkpt>
      <trkpt lat="41.200344" lon="1.523057">
        <ele>-23.0</ele>
        <time>2014-12-07T07:13:30Z</time>
      </trkpt>
      <trkpt lat="41.200325" lon="1.522950">
        <ele>-23.0</ele>
        <time>2014-12-07T07:13:32Z</time>
      </trkpt>
      <trkpt lat="41.200306" lon="1.522900">
        <ele>-23.0</ele>
        <time>2014-12-07T07:13:33Z</time>
      </trkpt>
      <trkpt lat="41.200291" lon="1.522801">
        <ele>-23.0</ele>
        <time>2014-12-07T07:13:35Z</time>
      </trkpt>
      <trkpt lat="41.200233" lon="1.522642">
        <ele>-22.6</ele>
        <time>2014-12-07T07:13:39Z</time>
      </trkpt>
      <trkpt lat="41.200207" lon="1.522614">
        <ele>-22.0</ele>
        <time>2014-12-07T07:13:40Z</time>
      </trkpt>
      <trkpt lat="41.200180" lon="1.522580">
        <ele>-21.6</ele>
        <time>2014-12-07T07:13:41Z</time>
      </trkpt>
      <trkpt lat="41.200146" lon="1.522545">
        <ele>-21.2</ele>
        <time>2014-12-07T07:13:42Z</time>
      </trkpt>
      <trkpt lat="41.200119" lon="1.522511">
        <ele>-20.8</ele>
        <time>2014-12-07T07:13:43Z</time>
      </trkpt>
      <trkpt lat="41.199993" lon="1.522375">
        <ele>-20.8</ele>
        <time>2014-12-07T07:13:47Z</time>
      </trkpt>
      <trkpt lat="41.199768" lon="1.522098">
        <ele>-20.8</ele>
        <time>2014-12-07T07:13:55Z</time>
      </trkpt>
      <trkpt lat="41.199574" lon="1.521858">
        <ele>-20.8</ele>
        <time>2014-12-07T07:14:02Z</time>
      </trkpt>
      <trkpt lat="41.199322" lon="1.521599">
        <ele>-20.8</ele>
        <time>2014-12-07T07:14:10Z</time>
      </trkpt>
      <trkpt lat="41.199047" lon="1.521353">
        <ele>-20.8</ele>
        <time>2014-12-07T07:14:18Z</time>
      </trkpt>
      <trkpt lat="41.198906" lon="1.521241">
        <ele>-20.4</ele>
        <time>2014-12-07T07:14:22Z</time>
      </trkpt>
      <trkpt lat="41.198872" lon="1.521214">
        <ele>-20.0</ele>
        <time>2014-12-07T07:14:23Z</time>
      </trkpt>
      <trkpt lat="41.198833" lon="1.521185">
        <ele>-19.6</ele>
        <time>2014-12-07T07:14:24Z</time>
      </trkpt>
      <trkpt lat="41.198799" lon="1.521158">
        <ele>-19.2</ele>
        <time>2014-12-07T07:14:25Z</time>
      </trkpt>
      <trkpt lat="41.198769" lon="1.521127">
        <ele>-18.8</ele>
        <time>2014-12-07T07:14:26Z</time>
      </trkpt>
      <trkpt lat="41.198734" lon="1.521097">
        <ele>-18.8</ele>
        <time>2014-12-07T07:14:27Z</time>
      </trkpt>
      <trkpt lat="41.198460" lon="1.520852">
        <ele>-18.8</ele>
        <time>2014-12-07T07:14:35Z</time>
      </trkpt>
      <trkpt lat="41.198330" lon="1.520730">
        <ele>-18.8</ele>
        <time>2014-12-07T07:14:39Z</time>
      </trkpt>
      <trkpt lat="41.198242" lon="1.520775">
        <ele>-18.8</ele>
        <time>2014-12-07T07:14:41Z</time>
      </trkpt>
      <trkpt lat="41.198147" lon="1.520906">
        <ele>-18.8</ele>
        <time>2014-12-07T07:14:44Z</time>
      </trkpt>
      <trkpt lat="41.198120" lon="1.520951">
        <ele>-18.8</ele>
        <time>2014-12-07T07:14:45Z</time>
      </trkpt>
      <trkpt lat="41.197845" lon="1.521320">
        <ele>-18.8</ele>
        <time>2014-12-07T07:14:53Z</time>
      </trkpt>
      <trkpt lat="41.197769" lon="1.521427">
        <ele>-18.8</ele>
        <time>2014-12-07T07:14:55Z</time>
      </trkpt>
      <trkpt lat="41.197670" lon="1.521467">
        <ele>-18.8</ele>
        <time>2014-12-07T07:14:57Z</time>
      </trkpt>
      <trkpt lat="41.197586" lon="1.521392">
        <ele>-18.8</ele>
        <time>2014-12-07T07:14:59Z</time>
      </trkpt>
      <trkpt lat="41.197449" lon="1.521249">
        <ele>-19.2</ele>
        <time>2014-12-07T07:15:03Z</time>
      </trkpt>
      <trkpt lat="41.197411" lon="1.521219">
        <ele>-19.6</ele>
        <time>2014-12-07T07:15:04Z</time>
      </trkpt>
      <trkpt lat="41.197372" lon="1.521190">
        <ele>-20.0</ele>
        <time>2014-12-07T07:15:05Z</time>
      </trkpt>
      <trkpt lat="41.197079" lon="1.520716">
        <ele>-21.0</ele>
        <time>2014-12-07T07:15:17Z</time>
      </trkpt>
      <trkpt lat="41.197071" lon="1.520613">
        <ele>-21.0</ele>
        <time>2014-12-07T07:15:19Z</time>
      </trkpt>
      <trkpt lat="41.197083" lon="1.520455">
        <ele>-21.0</ele>
        <time>2014-12-07T07:15:22Z</time>
      </trkpt>
      <trkpt lat="41.197029" lon="1.520354">
        <ele>-21.0</ele>
        <time>2014-12-07T07:15:25Z</time>
      </trkpt>
      <trkpt lat="41.196861" lon="1.520252">
        <ele>-21.0</ele>
        <time>2014-12-07T07:15:29Z</time>
      </trkpt>
      <trkpt lat="41.196739" lon="1.520189">
        <ele>-21.0</ele>
        <time>2014-12-07T07:15:32Z</time>
      </trkpt>
      <trkpt lat="41.196667" lon="1.520149">
        <ele>-21.0</ele>
        <time>2014-12-07T07:15:34Z</time>
      </trkpt>
      <trkpt lat="41.196629" lon="1.520116">
        <ele>-21.0</ele>
        <time>2014-12-07T07:15:35Z</time>
      </trkpt>
      <trkpt lat="41.196529" lon="1.519993">
        <ele>-21.0</ele>
        <time>2014-12-07T07:15:38Z</time>
      </trkpt>
      <trkpt lat="41.196232" lon="1.519633">
        <ele>-21.0</ele>
        <time>2014-12-07T07:15:47Z</time>
      </trkpt>
      <trkpt lat="41.195961" lon="1.519310">
        <ele>-21.0</ele>
        <time>2014-12-07T07:15:55Z</time>
      </trkpt>
      <trkpt lat="41.195759" lon="1.519072">
        <ele>-20.4</ele>
        <time>2014-12-07T07:16:01Z</time>
      </trkpt>
      <trkpt lat="41.195724" lon="1.519032">
        <ele>-20.0</ele>
        <time>2014-12-07T07:16:02Z</time>
      </trkpt>
      <trkpt lat="41.195690" lon="1.518989">
        <ele>-19.6</ele>
        <time>2014-12-07T07:16:03Z</time>
      </trkpt>
      <trkpt lat="41.195656" lon="1.518953">
        <ele>-19.2</ele>
        <time>2014-12-07T07:16:04Z</time>
      </trkpt>
      <trkpt lat="41.195621" lon="1.518919">
        <ele>-18.8</ele>
        <time>2014-12-07T07:16:05Z</time>
      </trkpt>
      <trkpt lat="41.195591" lon="1.518878">
        <ele>-18.8</ele>
        <time>2014-12-07T07:16:06Z</time>
      </trkpt>
      <trkpt lat="41.195526" lon="1.518804">
        <ele>-18.8</ele>
        <time>2014-12-07T07:16:08Z</time>
      </trkpt>
      <trkpt lat="41.195469" lon="1.518729">
        <ele>-18.4</ele>
        <time>2014-12-07T07:16:10Z</time>
      </trkpt>
      <trkpt lat="41.195438" lon="1.518690">
        <ele>-18.0</ele>
        <time>2014-12-07T07:16:11Z</time>
      </trkpt>
      <trkpt lat="41.195408" lon="1.518655">
        <ele>-17.6</ele>
        <time>2014-12-07T07:16:12Z</time>
      </trkpt>
      <trkpt lat="41.195377" lon="1.518618">
        <ele>-17.2</ele>
        <time>2014-12-07T07:16:13Z</time>
      </trkpt>
      <trkpt lat="41.195351" lon="1.518580">
        <ele>-16.8</ele>
        <time>2014-12-07T07:16:14Z</time>
      </trkpt>
      <trkpt lat="41.195122" lon="1.518309">
        <ele>-16.8</ele>
        <time>2014-12-07T07:16:22Z</time>
      </trkpt>
      <trkpt lat="41.195011" lon="1.518192">
        <ele>-16.8</ele>
        <time>2014-12-07T07:16:27Z</time>
      </trkpt>
      <trkpt lat="41.194996" lon="1.518171">
        <ele>-16.4</ele>
        <time>2014-12-07T07:16:28Z</time>
      </trkpt>
      <trkpt lat="41.194984" lon="1.518148">
        <ele>-16.0</ele>
        <time>2014-12-07T07:16:29Z</time>
      </trkpt>
      <trkpt lat="41.194965" lon="1.518131">
        <ele>-15.6</ele>
        <time>2014-12-07T07:16:30Z</time>
      </trkpt>
      <trkpt lat="41.194939" lon="1.518124">
        <ele>-15.0</ele>
        <time>2014-12-07T07:16:31Z</time>
      </trkpt>
      <trkpt lat="41.194912" lon="1.518112">
        <ele>-14.6</ele>
        <time>2014-12-07T07:16:32Z</time>
      </trkpt>
      <trkpt lat="41.194859" lon="1.518076">
        <ele>-14.2</ele>
        <time>2014-12-07T07:16:34Z</time>
      </trkpt>
      <trkpt lat="41.194828" lon="1.518065">
        <ele>-13.8</ele>
        <time>2014-12-07T07:16:35Z</time>
      </trkpt>
      <trkpt lat="41.194794" lon="1.518052">
        <ele>-13.4</ele>
        <time>2014-12-07T07:16:36Z</time>
      </trkpt>
      <trkpt lat="41.194759" lon="1.518040">
        <ele>-13.0</ele>
        <time>2014-12-07T07:16:37Z</time>
      </trkpt>
      <trkpt lat="41.194725" lon="1.518022">
        <ele>-12.6</ele>
        <time>2014-12-07T07:16:38Z</time>
      </trkpt>
      <trkpt lat="41.194614" lon="1.517960">
        <ele>-12.6</ele>
        <time>2014-12-07T07:16:42Z</time>
      </trkpt>
      <trkpt lat="41.194580" lon="1.517944">
        <ele>-12.2</ele>
        <time>2014-12-07T07:16:43Z</time>
      </trkpt>
      <trkpt lat="41.194550" lon="1.517925">
        <ele>-11.8</ele>
        <time>2014-12-07T07:16:44Z</time>
      </trkpt>
      <trkpt lat="41.194511" lon="1.517915">
        <ele>-11.4</ele>
        <time>2014-12-07T07:16:45Z</time>
      </trkpt>
      <trkpt lat="41.194473" lon="1.517901">
        <ele>-11.0</ele>
        <time>2014-12-07T07:16:46Z</time>
      </trkpt>
      <trkpt lat="41.194439" lon="1.517888">
        <ele>-10.6</ele>
        <time>2014-12-07T07:16:47Z</time>
      </trkpt>
      <trkpt lat="41.194370" lon="1.517861">
        <ele>-10.6</ele>
        <time>2014-12-07T07:16:49Z</time>
      </trkpt>
      <trkpt lat="41.194069" lon="1.517711">
        <ele>-10.6</ele>
        <time>2014-12-07T07:16:58Z</time>
      </trkpt>
      <trkpt lat="41.193901" lon="1.517569">
        <ele>-10.6</ele>
        <time>2014-12-07T07:17:04Z</time>
      </trkpt>
      <trkpt lat="41.193848" lon="1.517491">
        <ele>-10.2</ele>
        <time>2014-12-07T07:17:07Z</time>
      </trkpt>
      <trkpt lat="41.193829" lon="1.517463">
        <ele>-9.8</ele>
        <time>2014-12-07T07:17:08Z</time>
      </trkpt>
      <trkpt lat="41.193810" lon="1.517434">
        <ele>-9.4</ele>
        <time>2014-12-07T07:17:09Z</time>
      </trkpt>
      <trkpt lat="41.193790" lon="1.517400">
        <ele>-8.8</ele>
        <time>2014-12-07T07:17:10Z</time>
      </trkpt>
      <trkpt lat="41.193760" lon="1.517374">
        <ele>-8.4</ele>
        <time>2014-12-07T07:17:11Z</time>
      </trkpt>
      <trkpt lat="41.193687" lon="1.517281">
        <ele>-8.4</ele>
        <time>2014-12-07T07:17:14Z</time>
      </trkpt>
      <trkpt lat="41.193577" lon="1.517141">
        <ele>-8.4</ele>
        <time>2014-12-07T07:17:19Z</time>
      </trkpt>
      <trkpt lat="41.193523" lon="1.517089">
        <ele>-7.6</ele>
        <time>2014-12-07T07:17:21Z</time>
      </trkpt>
      <trkpt lat="41.193508" lon="1.517060">
        <ele>-7.2</ele>
        <time>2014-12-07T07:17:22Z</time>
      </trkpt>
      <trkpt lat="41.193485" lon="1.517030">
        <ele>-6.8</ele>
        <time>2014-12-07T07:17:23Z</time>
      </trkpt>
      <trkpt lat="41.193459" lon="1.517003">
        <ele>-6.4</ele>
        <time>2014-12-07T07:17:24Z</time>
      </trkpt>
      <trkpt lat="41.193306" lon="1.516791">
        <ele>-6.4</ele>
        <time>2014-12-07T07:17:30Z</time>
      </trkpt>
      <trkpt lat="41.193172" lon="1.516572">
        <ele>-6.0</ele>
        <time>2014-12-07T07:17:36Z</time>
      </trkpt>
      <trkpt lat="41.193150" lon="1.516534">
        <ele>-5.6</ele>
        <time>2014-12-07T07:17:37Z</time>
      </trkpt>
      <trkpt lat="41.193130" lon="1.516495">
        <ele>-5.2</ele>
        <time>2014-12-07T07:17:38Z</time>
      </trkpt>
      <trkpt lat="41.193111" lon="1.516458">
        <ele>-4.8</ele>
        <time>2014-12-07T07:17:39Z</time>
      </trkpt>
      <trkpt lat="41.193092" lon="1.516422">
        <ele>-4.4</ele>
        <time>2014-12-07T07:17:40Z</time>
      </trkpt>
      <trkpt lat="41.193024" lon="1.516230">
        <ele>-4.4</ele>
        <time>2014-12-07T07:17:45Z</time>
      </trkpt>
      <trkpt lat="41.192936" lon="1.516014">
        <ele>-4.4</ele>
        <time>2014-12-07T07:17:50Z</time>
      </trkpt>
      <trkpt lat="41.192833" lon="1.515791">
        <ele>-4.4</ele>
        <time>2014-12-07T07:17:56Z</time>
      </trkpt>
      <trkpt lat="41.192818" lon="1.515754">
        <ele>-4.0</ele>
        <time>2014-12-07T07:17:57Z</time>
      </trkpt>
      <trkpt lat="41.192799" lon="1.515720">
        <ele>-3.6</ele>
        <time>2014-12-07T07:17:58Z</time>
      </trkpt>
      <trkpt lat="41.192780" lon="1.515686">
        <ele>-3.2</ele>
        <time>2014-12-07T07:17:59Z</time>
      </trkpt>
      <trkpt lat="41.192760" lon="1.515650">
        <ele>-2.8</ele>
        <time>2014-12-07T07:18:00Z</time>
      </trkpt>
      <trkpt lat="41.192745" lon="1.515617">
        <ele>-2.4</ele>
        <time>2014-12-07T07:18:01Z</time>
      </trkpt>
      <trkpt lat="41.192730" lon="1.515586">
        <ele>-2.4</ele>
        <time>2014-12-07T07:18:02Z</time>
      </trkpt>
      <trkpt lat="41.192669" lon="1.515419">
        <ele>-2.4</ele>
        <time>2014-12-07T07:18:07Z</time>
      </trkpt>
      <trkpt lat="41.192616" lon="1.515315">
        <ele>-2.4</ele>
        <time>2014-12-07T07:18:12Z</time>
      </trkpt>
      <trkpt lat="41.192616" lon="1.515278">
        <ele>-1.8</ele>
        <time>2014-12-07T07:18:14Z</time>
      </trkpt>
      <trkpt lat="41.192616" lon="1.515256">
        <ele>-1.4</ele>
        <time>2014-12-07T07:18:15Z</time>
      </trkpt>
      <trkpt lat="41.192619" lon="1.515237">
        <ele>-1.0</ele>
        <time>2014-12-07T07:18:16Z</time>
      </trkpt>
      <trkpt lat="41.192635" lon="1.515218">
        <ele>-0.6</ele>
        <time>2014-12-07T07:18:17Z</time>
      </trkpt>
      <trkpt lat="41.192650" lon="1.515196">
        <ele>-0.2</ele>
        <time>2014-12-07T07:18:18Z</time>
      </trkpt>
      <trkpt lat="41.192692" lon="1.515174">
        <ele>-0.2</ele>
        <time>2014-12-07T07:18:20Z</time>
      </trkpt>
      <trkpt lat="41.192818" lon="1.515158">
        <ele>-0.2</ele>
        <time>2014-12-07T07:18:25Z</time>
      </trkpt>
      <trkpt lat="41.192841" lon="1.515153">
        <ele>0.2</ele>
        <time>2014-12-07T07:18:26Z</time>
      </trkpt>
      <trkpt lat="41.192860" lon="1.515148">
        <ele>0.8</ele>
        <time>2014-12-07T07:18:27Z</time>
      </trkpt>
      <trkpt lat="41.192879" lon="1.515143">
        <ele>1.2</ele>
        <time>2014-12-07T07:18:28Z</time>
      </trkpt>
      <trkpt lat="41.192905" lon="1.515137">
        <ele>1.6</ele>
        <time>2014-12-07T07:18:29Z</time>
      </trkpt>
      <trkpt lat="41.192925" lon="1.515124">
        <ele>2.0</ele>
        <time>2014-12-07T07:18:30Z</time>
      </trkpt>
      <trkpt lat="41.192963" lon="1.515119">
        <ele>2.0</ele>
        <time>2014-12-07T07:18:32Z</time>
      </trkpt>
      <trkpt lat="41.192986" lon="1.515121">
        <ele>2.4</ele>
        <time>2014-12-07T07:18:33Z</time>
      </trkpt>
      <trkpt lat="41.193005" lon="1.515129">
        <ele>3.0</ele>
        <time>2014-12-07T07:18:34Z</time>
      </trkpt>
      <trkpt lat="41.193020" lon="1.515120">
        <ele>3.4</ele>
        <time>2014-12-07T07:18:35Z</time>
      </trkpt>
      <trkpt lat="41.193043" lon="1.515105">
        <ele>4.2</ele>
        <time>2014-12-07T07:18:36Z</time>
      </trkpt>
      <trkpt lat="41.193058" lon="1.515088">
        <ele>4.2</ele>
        <time>2014-12-07T07:18:37Z</time>
      </trkpt>
      <trkpt lat="41.193073" lon="1.515039">
        <ele>4.6</ele>
        <time>2014-12-07T07:18:39Z</time>
      </trkpt>
      <trkpt lat="41.193073" lon="1.515012">
        <ele>5.0</ele>
        <time>2014-12-07T07:18:40Z</time>
      </trkpt>
      <trkpt lat="41.193089" lon="1.514984">
        <ele>5.4</ele>
        <time>2014-12-07T07:18:41Z</time>
      </trkpt>
      <trkpt lat="41.193096" lon="1.514964">
        <ele>5.8</ele>
        <time>2014-12-07T07:18:42Z</time>
      </trkpt>
      <trkpt lat="41.193104" lon="1.514938">
        <ele>6.2</ele>
        <time>2014-12-07T07:18:43Z</time>
      </trkpt>
      <trkpt lat="41.193165" lon="1.514817">
        <ele>6.2</ele>
        <time>2014-12-07T07:18:48Z</time>
      </trkpt>
      <trkpt lat="41.193184" lon="1.514798">
        <ele>6.6</ele>
        <time>2014-12-07T07:18:49Z</time>
      </trkpt>
      <trkpt lat="41.193199" lon="1.514781">
        <ele>7.2</ele>
        <time>2014-12-07T07:18:50Z</time>
      </trkpt>
      <trkpt lat="41.193214" lon="1.514767">
        <ele>7.6</ele>
        <time>2014-12-07T07:18:51Z</time>
      </trkpt>
      <trkpt lat="41.193233" lon="1.514755">
        <ele>8.0</ele>
        <time>2014-12-07T07:18:52Z</time>
      </trkpt>
      <trkpt lat="41.193253" lon="1.514751">
        <ele>8.4</ele>
        <time>2014-12-07T07:18:53Z</time>
      </trkpt>
      <trkpt lat="41.193306" lon="1.514729">
        <ele>8.8</ele>
        <time>2014-12-07T07:18:56Z</time>
      </trkpt>
      <trkpt lat="41.193321" lon="1.514715">
        <ele>9.2</ele>
        <time>2014-12-07T07:18:57Z</time>
      </trkpt>
      <trkpt lat="41.193336" lon="1.514698">
        <ele>9.8</ele>
        <time>2014-12-07T07:18:58Z</time>
      </trkpt>
      <trkpt lat="41.193352" lon="1.514686">
        <ele>10.2</ele>
        <time>2014-12-07T07:18:59Z</time>
      </trkpt>
      <trkpt lat="41.193367" lon="1.514674">
        <ele>10.6</ele>
        <time>2014-12-07T07:19:00Z</time>
      </trkpt>
      <trkpt lat="41.193386" lon="1.514675">
        <ele>11.2</ele>
        <time>2014-12-07T07:19:01Z</time>
      </trkpt>
      <trkpt lat="41.193398" lon="1.514670">
        <ele>11.6</ele>
        <time>2014-12-07T07:19:02Z</time>
      </trkpt>
      <trkpt lat="41.193413" lon="1.514660">
        <ele>12.0</ele>
        <time>2014-12-07T07:19:03Z</time>
      </trkpt>
      <trkpt lat="41.193424" lon="1.514644">
        <ele>12.4</ele>
        <time>2014-12-07T07:19:04Z</time>
      </trkpt>
      <trkpt lat="41.193439" lon="1.514636">
        <ele>13.0</ele>
        <time>2014-12-07T07:19:05Z</time>
      </trkpt>
      <trkpt lat="41.193451" lon="1.514639">
        <ele>13.4</ele>
        <time>2014-12-07T07:19:06Z</time>
      </trkpt>
      <trkpt lat="41.193466" lon="1.514635">
        <ele>14.0</ele>
        <time>2014-12-07T07:19:07Z</time>
      </trkpt>
      <trkpt lat="41.193485" lon="1.514633">
        <ele>14.4</ele>
        <time>2014-12-07T07:19:08Z</time>
      </trkpt>
      <trkpt lat="41.193504" lon="1.514624">
        <ele>15.0</ele>
        <time>2014-12-07T07:19:09Z</time>
      </trkpt>
      <trkpt lat="41.193512" lon="1.514618">
        <ele>15.4</ele>
        <time>2014-12-07T07:19:10Z</time>
      </trkpt>
      <trkpt lat="41.193531" lon="1.514612">
        <ele>15.8</ele>
        <time>2014-12-07T07:19:11Z</time>
      </trkpt>
      <trkpt lat="41.193546" lon="1.514608">
        <ele>16.2</ele>
        <time>2014-12-07T07:19:12Z</time>
      </trkpt>
      <trkpt lat="41.193562" lon="1.514602">
        <ele>16.6</ele>
        <time>2014-12-07T07:19:13Z</time>
      </trkpt>
      <trkpt lat="41.193577" lon="1.514598">
        <ele>17.0</ele>
        <time>2014-12-07T07:19:14Z</time>
      </trkpt>
      <trkpt lat="41.193661" lon="1.514593">
        <ele>17.4</ele>
        <time>2014-12-07T07:19:18Z</time>
      </trkpt>
      <trkpt lat="41.193684" lon="1.514582">
        <ele>17.8</ele>
        <time>2014-12-07T07:19:19Z</time>
      </trkpt>
      <trkpt lat="41.193703" lon="1.514573">
        <ele>18.2</ele>
        <time>2014-12-07T07:19:20Z</time>
      </trkpt>
      <trkpt lat="41.193722" lon="1.514563">
        <ele>18.8</ele>
        <time>2014-12-07T07:19:21Z</time>
      </trkpt>
      <trkpt lat="41.193737" lon="1.514559">
        <ele>19.2</ele>
        <time>2014-12-07T07:19:22Z</time>
      </trkpt>
      <trkpt lat="41.193798" lon="1.514531">
        <ele>20.0</ele>
        <time>2014-12-07T07:19:25Z</time>
      </trkpt>
      <trkpt lat="41.193821" lon="1.514522">
        <ele>20.4</ele>
        <time>2014-12-07T07:19:26Z</time>
      </trkpt>
      <trkpt lat="41.193844" lon="1.514516">
        <ele>20.8</ele>
        <time>2014-12-07T07:19:27Z</time>
      </trkpt>
      <trkpt lat="41.193867" lon="1.514512">
        <ele>21.2</ele>
        <time>2014-12-07T07:19:28Z</time>
      </trkpt>
      <trkpt lat="41.193939" lon="1.514471">
        <ele>21.2</ele>
        <time>2014-12-07T07:19:32Z</time>
      </trkpt>
      <trkpt lat="41.193954" lon="1.514467">
        <ele>21.6</ele>
        <time>2014-12-07T07:19:33Z</time>
      </trkpt>
      <trkpt lat="41.193970" lon="1.514464">
        <ele>22.0</ele>
        <time>2014-12-07T07:19:34Z</time>
      </trkpt>
      <trkpt lat="41.193981" lon="1.514451">
        <ele>22.6</ele>
        <time>2014-12-07T07:19:35Z</time>
      </trkpt>
      <trkpt lat="41.194000" lon="1.514439">
        <ele>23.0</ele>
        <time>2014-12-07T07:19:36Z</time>
      </trkpt>
      <trkpt lat="41.194023" lon="1.514432">
        <ele>23.4</ele>
        <time>2014-12-07T07:19:37Z</time>
      </trkpt>
      <trkpt lat="41.194119" lon="1.514382">
        <ele>23.8</ele>
        <time>2014-12-07T07:19:41Z</time>
      </trkpt>
      <trkpt lat="41.194145" lon="1.514367">
        <ele>24.2</ele>
        <time>2014-12-07T07:19:42Z</time>
      </trkpt>
      <trkpt lat="41.194172" lon="1.514361">
        <ele>24.6</ele>
        <time>2014-12-07T07:19:43Z</time>
      </trkpt>
      <trkpt lat="41.194199" lon="1.514352">
        <ele>25.2</ele>
        <time>2014-12-07T07:19:44Z</time>
      </trkpt>
      <trkpt lat="41.194225" lon="1.514344">
        <ele>25.6</ele>
        <time>2014-12-07T07:19:45Z</time>
      </trkpt>
      <trkpt lat="41.194382" lon="1.514297">
        <ele>25.6</ele>
        <time>2014-12-07T07:19:52Z</time>
      </trkpt>
      <trkpt lat="41.194527" lon="1.514240">
        <ele>26.0</ele>
        <time>2014-12-07T07:19:59Z</time>
      </trkpt>
      <trkpt lat="41.194542" lon="1.514222">
        <ele>26.4</ele>
        <time>2014-12-07T07:20:00Z</time>
      </trkpt>
      <trkpt lat="41.194557" lon="1.514206">
        <ele>26.8</ele>
        <time>2014-12-07T07:20:01Z</time>
      </trkpt>
      <trkpt lat="41.194569" lon="1.514193">
        <ele>27.2</ele>
        <time>2014-12-07T07:20:02Z</time>
      </trkpt>
      <trkpt lat="41.194588" lon="1.514190">
        <ele>27.6</ele>
        <time>2014-12-07T07:20:03Z</time>
      </trkpt>
      <trkpt lat="41.194607" lon="1.514183">
        <ele>28.2</ele>
        <time>2014-12-07T07:20:04Z</time>
      </trkpt>
      <trkpt lat="41.194622" lon="1.514179">
        <ele>28.6</ele>
        <time>2014-12-07T07:20:05Z</time>
      </trkpt>
      <trkpt lat="41.194633" lon="1.514176">
        <ele>29.0</ele>
        <time>2014-12-07T07:20:06Z</time>
      </trkpt>
      <trkpt lat="41.194641" lon="1.514166">
        <ele>29.4</ele>
        <time>2014-12-07T07:20:07Z</time>
      </trkpt>
      <trkpt lat="41.194668" lon="1.514156">
        <ele>29.8</ele>
        <time>2014-12-07T07:20:08Z</time>
      </trkpt>
      <trkpt lat="41.194683" lon="1.514148">
        <ele>30.4</ele>
        <time>2014-12-07T07:20:09Z</time>
      </trkpt>
      <trkpt lat="41.194698" lon="1.514143">
        <ele>30.8</ele>
        <time>2014-12-07T07:20:10Z</time>
      </trkpt>
      <trkpt lat="41.194717" lon="1.514144">
        <ele>31.2</ele>
        <time>2014-12-07T07:20:11Z</time>
      </trkpt>
      <trkpt lat="41.194733" lon="1.514141">
        <ele>31.8</ele>
        <time>2014-12-07T07:20:12Z</time>
      </trkpt>
      <trkpt lat="41.194748" lon="1.514127">
        <ele>32.2</ele>
        <time>2014-12-07T07:20:13Z</time>
      </trkpt>
      <trkpt lat="41.194778" lon="1.514111">
        <ele>32.6</ele>
        <time>2014-12-07T07:20:15Z</time>
      </trkpt>
      <trkpt lat="41.194794" lon="1.514110">
        <ele>33.2</ele>
        <time>2014-12-07T07:20:16Z</time>
      </trkpt>
      <trkpt lat="41.194809" lon="1.514099">
        <ele>33.6</ele>
        <time>2014-12-07T07:20:17Z</time>
      </trkpt>
      <trkpt lat="41.194824" lon="1.514092">
        <ele>34.0</ele>
        <time>2014-12-07T07:20:18Z</time>
      </trkpt>
      <trkpt lat="41.194839" lon="1.514087">
        <ele>34.6</ele>
        <time>2014-12-07T07:20:19Z</time>
      </trkpt>
      <trkpt lat="41.194904" lon="1.514055">
        <ele>35.0</ele>
        <time>2014-12-07T07:20:23Z</time>
      </trkpt>
      <trkpt lat="41.194923" lon="1.514048">
        <ele>35.4</ele>
        <time>2014-12-07T07:20:24Z</time>
      </trkpt>
      <trkpt lat="41.194942" lon="1.514040">
        <ele>35.8</ele>
        <time>2014-12-07T07:20:25Z</time>
      </trkpt>
      <trkpt lat="41.194962" lon="1.514032">
        <ele>36.2</ele>
        <time>2014-12-07T07:20:26Z</time>
      </trkpt>
      <trkpt lat="41.194984" lon="1.514028">
        <ele>36.6</ele>
        <time>2014-12-07T07:20:27Z</time>
      </trkpt>
      <trkpt lat="41.195061" lon="1.514013">
        <ele>36.6</ele>
        <time>2014-12-07T07:20:31Z</time>
      </trkpt>
      <trkpt lat="41.195103" lon="1.513987">
        <ele>37.0</ele>
        <time>2014-12-07T07:20:33Z</time>
      </trkpt>
      <trkpt lat="41.195129" lon="1.513976">
        <ele>37.4</ele>
        <time>2014-12-07T07:20:34Z</time>
      </trkpt>
      <trkpt lat="41.195156" lon="1.513964">
        <ele>37.8</ele>
        <time>2014-12-07T07:20:35Z</time>
      </trkpt>
      <trkpt lat="41.195175" lon="1.513959">
        <ele>38.2</ele>
        <time>2014-12-07T07:20:36Z</time>
      </trkpt>
      <trkpt lat="41.195198" lon="1.513952">
        <ele>38.6</ele>
        <time>2014-12-07T07:20:37Z</time>
      </trkpt>
      <trkpt lat="41.195366" lon="1.513861">
        <ele>38.6</ele>
        <time>2014-12-07T07:20:44Z</time>
      </trkpt>
      <trkpt lat="41.195538" lon="1.513715">
        <ele>38.6</ele>
        <time>2014-12-07T07:20:51Z</time>
      </trkpt>
      <trkpt lat="41.195599" lon="1.513526">
        <ele>38.6</ele>
        <time>2014-12-07T07:20:55Z</time>
      </trkpt>
      <trkpt lat="41.195698" lon="1.513430">
        <ele>38.6</ele>
        <time>2014-12-07T07:20:58Z</time>
      </trkpt>
      <trkpt lat="41.195724" lon="1.513401">
        <ele>38.6</ele>
        <time>2014-12-07T07:20:59Z</time>
      </trkpt>
      <trkpt lat="41.195816" lon="1.513249">
        <ele>38.6</ele>
        <time>2014-12-07T07:21:04Z</time>
      </trkpt>
      <trkpt lat="41.195843" lon="1.513155">
        <ele>38.6</ele>
        <time>2014-12-07T07:21:08Z</time>
      </trkpt>
      <trkpt lat="41.195866" lon="1.513112">
        <ele>39.0</ele>
        <time>2014-12-07T07:21:11Z</time>
      </trkpt>
      <trkpt lat="41.195869" lon="1.513103">
        <ele>39.6</ele>
        <time>2014-12-07T07:21:12Z</time>
      </trkpt>
      <trkpt lat="41.195869" lon="1.513089">
        <ele>40.0</ele>
        <time>2014-12-07T07:21:13Z</time>
      </trkpt>
      <trkpt lat="41.195873" lon="1.513074">
        <ele>40.4</ele>
        <time>2014-12-07T07:21:14Z</time>
      </trkpt>
      <trkpt lat="41.195869" lon="1.513068">
        <ele>40.8</ele>
        <time>2014-12-07T07:21:15Z</time>
      </trkpt>
      <trkpt lat="41.195869" lon="1.513066">
        <ele>41.2</ele>
        <time>2014-12-07T07:21:16Z</time>
      </trkpt>
      <trkpt lat="41.195869" lon="1.513059">
        <ele>41.6</ele>
        <time>2014-12-07T07:21:17Z</time>
      </trkpt>
      <trkpt lat="41.195869" lon="1.513054">
        <ele>42.0</ele>
        <time>2014-12-07T07:21:18Z</time>
      </trkpt>
      <trkpt lat="41.195873" lon="1.513051">
        <ele>42.4</ele>
        <time>2014-12-07T07:21:19Z</time>
      </trkpt>
      <trkpt lat="41.196018" lon="1.512935">
        <ele>45.0</ele>
        <time>2014-12-07T07:21:37Z</time>
      </trkpt>
      <trkpt lat="41.196033" lon="1.512916">
        <ele>45.0</ele>
        <time>2014-12-07T07:21:38Z</time>
      </trkpt>
      <trkpt lat="41.196041" lon="1.512890">
        <ele>45.4</ele>
        <time>2014-12-07T07:21:39Z</time>
      </trkpt>
      <trkpt lat="41.196053" lon="1.512864">
        <ele>45.8</ele>
        <time>2014-12-07T07:21:40Z</time>
      </trkpt>
      <trkpt lat="41.196053" lon="1.512845">
        <ele>46.2</ele>
        <time>2014-12-07T07:21:41Z</time>
      </trkpt>
      <trkpt lat="41.196060" lon="1.512825">
        <ele>46.6</ele>
        <time>2014-12-07T07:21:42Z</time>
      </trkpt>
      <trkpt lat="41.196072" lon="1.512805">
        <ele>47.0</ele>
        <time>2014-12-07T07:21:43Z</time>
      </trkpt>
      <trkpt lat="41.196087" lon="1.512790">
        <ele>47.0</ele>
        <time>2014-12-07T07:21:44Z</time>
      </trkpt>
      <trkpt lat="41.196102" lon="1.512755">
        <ele>47.4</ele>
        <time>2014-12-07T07:21:46Z</time>
      </trkpt>
      <trkpt lat="41.196106" lon="1.512728">
        <ele>48.0</ele>
        <time>2014-12-07T07:21:47Z</time>
      </trkpt>
      <trkpt lat="41.196117" lon="1.512709">
        <ele>48.4</ele>
        <time>2014-12-07T07:21:48Z</time>
      </trkpt>
      <trkpt lat="41.196129" lon="1.512688">
        <ele>48.8</ele>
        <time>2014-12-07T07:21:49Z</time>
      </trkpt>
      <trkpt lat="41.196136" lon="1.512664">
        <ele>49.4</ele>
        <time>2014-12-07T07:21:50Z</time>
      </trkpt>
      <trkpt lat="41.196178" lon="1.512603">
        <ele>49.8</ele>
        <time>2014-12-07T07:21:53Z</time>
      </trkpt>
      <trkpt lat="41.196186" lon="1.512588">
        <ele>50.4</ele>
        <time>2014-12-07T07:21:54Z</time>
      </trkpt>
      <trkpt lat="41.196198" lon="1.512571">
        <ele>50.8</ele>
        <time>2014-12-07T07:21:55Z</time>
      </trkpt>
      <trkpt lat="41.196205" lon="1.512551">
        <ele>51.2</ele>
        <time>2014-12-07T07:21:56Z</time>
      </trkpt>
      <trkpt lat="41.196217" lon="1.512536">
        <ele>51.8</ele>
        <time>2014-12-07T07:21:57Z</time>
      </trkpt>
      <trkpt lat="41.196224" lon="1.512496">
        <ele>51.8</ele>
        <time>2014-12-07T07:21:59Z</time>
      </trkpt>
      <trkpt lat="41.196243" lon="1.512464">
        <ele>51.8</ele>
        <time>2014-12-07T07:22:02Z</time>
      </trkpt>
      <trkpt lat="41.196251" lon="1.512440">
        <ele>51.8</ele>
        <time>2014-12-07T07:22:04Z</time>
      </trkpt>
      <trkpt lat="41.196259" lon="1.512415">
        <ele>52.2</ele>
        <time>2014-12-07T07:22:07Z</time>
      </trkpt>
      <trkpt lat="41.196278" lon="1.512416">
        <ele>52.6</ele>
        <time>2014-12-07T07:22:08Z</time>
      </trkpt>
      <trkpt lat="41.196289" lon="1.512409">
        <ele>53.0</ele>
        <time>2014-12-07T07:22:09Z</time>
      </trkpt>
      <trkpt lat="41.196297" lon="1.512404">
        <ele>53.4</ele>
        <time>2014-12-07T07:22:10Z</time>
      </trkpt>
      <trkpt lat="41.196304" lon="1.512396">
        <ele>53.8</ele>
        <time>2014-12-07T07:22:11Z</time>
      </trkpt>
      <trkpt lat="41.196358" lon="1.512392">
        <ele>53.8</ele>
        <time>2014-12-07T07:22:15Z</time>
      </trkpt>
      <trkpt lat="41.196457" lon="1.512449">
        <ele>53.8</ele>
        <time>2014-12-07T07:22:19Z</time>
      </trkpt>
      <trkpt lat="41.196598" lon="1.512392">
        <ele>53.8</ele>
        <time>2014-12-07T07:22:23Z</time>
      </trkpt>
      <trkpt lat="41.196693" lon="1.512322">
        <ele>53.8</ele>
        <time>2014-12-07T07:22:26Z</time>
      </trkpt>
      <trkpt lat="41.196732" lon="1.512329">
        <ele>53.8</ele>
        <time>2014-12-07T07:22:27Z</time>
      </trkpt>
      <trkpt lat="41.196823" lon="1.512343">
        <ele>53.4</ele>
        <time>2014-12-07T07:22:29Z</time>
      </trkpt>
      <trkpt lat="41.196880" lon="1.512347">
        <ele>53.0</ele>
        <time>2014-12-07T07:22:30Z</time>
      </trkpt>
      <trkpt lat="41.196930" lon="1.512339">
        <ele>52.6</ele>
        <time>2014-12-07T07:22:31Z</time>
      </trkpt>
      <trkpt lat="41.196991" lon="1.512309">
        <ele>52.0</ele>
        <time>2014-12-07T07:22:32Z</time>
      </trkpt>
      <trkpt lat="41.197044" lon="1.512287">
        <ele>51.6</ele>
        <time>2014-12-07T07:22:33Z</time>
      </trkpt>
      <trkpt lat="41.197098" lon="1.512278">
        <ele>51.6</ele>
        <time>2014-12-07T07:22:34Z</time>
      </trkpt>
      <trkpt lat="41.197147" lon="1.512261">
        <ele>51.2</ele>
        <time>2014-12-07T07:22:35Z</time>
      </trkpt>
      <trkpt lat="41.197201" lon="1.512229">
        <ele>50.8</ele>
        <time>2014-12-07T07:22:36Z</time>
      </trkpt>
      <trkpt lat="41.197254" lon="1.512193">
        <ele>50.4</ele>
        <time>2014-12-07T07:22:37Z</time>
      </trkpt>
      <trkpt lat="41.197308" lon="1.512153">
        <ele>49.8</ele>
        <time>2014-12-07T07:22:38Z</time>
      </trkpt>
      <trkpt lat="41.197357" lon="1.512124">
        <ele>49.4</ele>
        <time>2014-12-07T07:22:39Z</time>
      </trkpt>
      <trkpt lat="41.197411" lon="1.512120">
        <ele>49.0</ele>
        <time>2014-12-07T07:22:40Z</time>
      </trkpt>
      <trkpt lat="41.197460" lon="1.512102">
        <ele>48.4</ele>
        <time>2014-12-07T07:22:41Z</time>
      </trkpt>
      <trkpt lat="41.197495" lon="1.512066">
        <ele>47.6</ele>
        <time>2014-12-07T07:22:42Z</time>
      </trkpt>
      <trkpt lat="41.197533" lon="1.512037">
        <ele>47.0</ele>
        <time>2014-12-07T07:22:43Z</time>
      </trkpt>
      <trkpt lat="41.197578" lon="1.512022">
        <ele>47.0</ele>
        <time>2014-12-07T07:22:44Z</time>
      </trkpt>
      <trkpt lat="41.197659" lon="1.511971">
        <ele>47.0</ele>
        <time>2014-12-07T07:22:46Z</time>
      </trkpt>
      <trkpt lat="41.197704" lon="1.511935">
        <ele>46.6</ele>
        <time>2014-12-07T07:22:47Z</time>
      </trkpt>
      <trkpt lat="41.197746" lon="1.511912">
        <ele>46.2</ele>
        <time>2014-12-07T07:22:48Z</time>
      </trkpt>
      <trkpt lat="41.197784" lon="1.511894">
        <ele>45.8</ele>
        <time>2014-12-07T07:22:49Z</time>
      </trkpt>
      <trkpt lat="41.197815" lon="1.511856">
        <ele>45.4</ele>
        <time>2014-12-07T07:22:50Z</time>
      </trkpt>
      <trkpt lat="41.197868" lon="1.511831">
        <ele>44.8</ele>
        <time>2014-12-07T07:22:51Z</time>
      </trkpt>
      <trkpt lat="41.197960" lon="1.511773">
        <ele>44.8</ele>
        <time>2014-12-07T07:22:53Z</time>
      </trkpt>
      <trkpt lat="41.198002" lon="1.511741">
        <ele>44.4</ele>
        <time>2014-12-07T07:22:54Z</time>
      </trkpt>
      <trkpt lat="41.198029" lon="1.511737">
        <ele>44.0</ele>
        <time>2014-12-07T07:22:55Z</time>
      </trkpt>
      <trkpt lat="41.198067" lon="1.511733">
        <ele>43.6</ele>
        <time>2014-12-07T07:22:56Z</time>
      </trkpt>
      <trkpt lat="41.198105" lon="1.511724">
        <ele>43.2</ele>
        <time>2014-12-07T07:22:57Z</time>
      </trkpt>
      <trkpt lat="41.198147" lon="1.511709">
        <ele>42.6</ele>
        <time>2014-12-07T07:22:58Z</time>
      </trkpt>
      <trkpt lat="41.198208" lon="1.511671">
        <ele>42.6</ele>
        <time>2014-12-07T07:23:00Z</time>
      </trkpt>
      <trkpt lat="41.198410" lon="1.511571">
        <ele>42.6</ele>
        <time>2014-12-07T07:23:05Z</time>
      </trkpt>
      <trkpt lat="41.198586" lon="1.511438">
        <ele>42.6</ele>
        <time>2014-12-07T07:23:10Z</time>
      </trkpt>
      <trkpt lat="41.198616" lon="1.511434">
        <ele>42.2</ele>
        <time>2014-12-07T07:23:11Z</time>
      </trkpt>
      <trkpt lat="41.198658" lon="1.511412">
        <ele>41.8</ele>
        <time>2014-12-07T07:23:12Z</time>
      </trkpt>
      <trkpt lat="41.198696" lon="1.511383">
        <ele>41.4</ele>
        <time>2014-12-07T07:23:13Z</time>
      </trkpt>
      <trkpt lat="41.198730" lon="1.511355">
        <ele>41.0</ele>
        <time>2014-12-07T07:23:14Z</time>
      </trkpt>
      <trkpt lat="41.198772" lon="1.511312">
        <ele>40.6</ele>
        <time>2014-12-07T07:23:15Z</time>
      </trkpt>
      <trkpt lat="41.198898" lon="1.511210">
        <ele>40.6</ele>
        <time>2014-12-07T07:23:18Z</time>
      </trkpt>
      <trkpt lat="41.198944" lon="1.511183">
        <ele>40.6</ele>
        <time>2014-12-07T07:23:19Z</time>
      </trkpt>
      <trkpt lat="41.199139" lon="1.511076">
        <ele>40.2</ele>
        <time>2014-12-07T07:23:23Z</time>
      </trkpt>
      <trkpt lat="41.199192" lon="1.511057">
        <ele>39.8</ele>
        <time>2014-12-07T07:23:24Z</time>
      </trkpt>
      <trkpt lat="41.199253" lon="1.511043">
        <ele>39.4</ele>
        <time>2014-12-07T07:23:25Z</time>
      </trkpt>
      <trkpt lat="41.199310" lon="1.511032">
        <ele>39.0</ele>
        <time>2014-12-07T07:23:26Z</time>
      </trkpt>
      <trkpt lat="41.199368" lon="1.511011">
        <ele>38.6</ele>
        <time>2014-12-07T07:23:27Z</time>
      </trkpt>
      <trkpt lat="41.199490" lon="1.510942">
        <ele>38.6</ele>
        <time>2014-12-07T07:23:29Z</time>
      </trkpt>
      <trkpt lat="41.199554" lon="1.510900">
        <ele>38.2</ele>
        <time>2014-12-07T07:23:30Z</time>
      </trkpt>
      <trkpt lat="41.199615" lon="1.510862">
        <ele>37.4</ele>
        <time>2014-12-07T07:23:31Z</time>
      </trkpt>
      <trkpt lat="41.199677" lon="1.510833">
        <ele>37.0</ele>
        <time>2014-12-07T07:23:32Z</time>
      </trkpt>
      <trkpt lat="41.199730" lon="1.510836">
        <ele>36.6</ele>
        <time>2014-12-07T07:23:33Z</time>
      </trkpt>
      <trkpt lat="41.199776" lon="1.510843">
        <ele>36.0</ele>
        <time>2014-12-07T07:23:34Z</time>
      </trkpt>
      <trkpt lat="41.199818" lon="1.510831">
        <ele>35.2</ele>
        <time>2014-12-07T07:23:35Z</time>
      </trkpt>
      <trkpt lat="41.199852" lon="1.510832">
        <ele>34.6</ele>
        <time>2014-12-07T07:23:36Z</time>
      </trkpt>
      <trkpt lat="41.199886" lon="1.510826">
        <ele>34.0</ele>
        <time>2014-12-07T07:23:37Z</time>
      </trkpt>
      <trkpt lat="41.199928" lon="1.510800">
        <ele>33.4</ele>
        <time>2014-12-07T07:23:38Z</time>
      </trkpt>
      <trkpt lat="41.199966" lon="1.510760">
        <ele>32.8</ele>
        <time>2014-12-07T07:23:39Z</time>
      </trkpt>
      <trkpt lat="41.200001" lon="1.510699">
        <ele>32.2</ele>
        <time>2014-12-07T07:23:40Z</time>
      </trkpt>
      <trkpt lat="41.200035" lon="1.510659">
        <ele>31.6</ele>
        <time>2014-12-07T07:23:41Z</time>
      </trkpt>
      <trkpt lat="41.200069" lon="1.510625">
        <ele>31.2</ele>
        <time>2014-12-07T07:23:42Z</time>
      </trkpt>
      <trkpt lat="41.200104" lon="1.510591">
        <ele>30.6</ele>
        <time>2014-12-07T07:23:43Z</time>
      </trkpt>
      <trkpt lat="41.200127" lon="1.510571">
        <ele>30.0</ele>
        <time>2014-12-07T07:23:44Z</time>
      </trkpt>
      <trkpt lat="41.200153" lon="1.510550">
        <ele>29.4</ele>
        <time>2014-12-07T07:23:45Z</time>
      </trkpt>
      <trkpt lat="41.200172" lon="1.510519">
        <ele>28.8</ele>
        <time>2014-12-07T07:23:46Z</time>
      </trkpt>
      <trkpt lat="41.200211" lon="1.510432">
        <ele>28.4</ele>
        <time>2014-12-07T07:23:48Z</time>
      </trkpt>
      <trkpt lat="41.200233" lon="1.510385">
        <ele>28.0</ele>
        <time>2014-12-07T07:23:49Z</time>
      </trkpt>
      <trkpt lat="41.200253" lon="1.510334">
        <ele>27.6</ele>
        <time>2014-12-07T07:23:50Z</time>
      </trkpt>
      <trkpt lat="41.200275" lon="1.510275">
        <ele>27.2</ele>
        <time>2014-12-07T07:23:51Z</time>
      </trkpt>
      <trkpt lat="41.200298" lon="1.510219">
        <ele>26.6</ele>
        <time>2014-12-07T07:23:52Z</time>
      </trkpt>
      <trkpt lat="41.200325" lon="1.510170">
        <ele>26.6</ele>
        <time>2014-12-07T07:23:53Z</time>
      </trkpt>
      <trkpt lat="41.200390" lon="1.510085">
        <ele>26.2</ele>
        <time>2014-12-07T07:23:55Z</time>
      </trkpt>
      <trkpt lat="41.200401" lon="1.510022">
        <ele>25.4</ele>
        <time>2014-12-07T07:23:56Z</time>
      </trkpt>
      <trkpt lat="41.200413" lon="1.509966">
        <ele>25.0</ele>
        <time>2014-12-07T07:23:57Z</time>
      </trkpt>
      <trkpt lat="41.200417" lon="1.509907">
        <ele>24.6</ele>
        <time>2014-12-07T07:23:58Z</time>
      </trkpt>
      <trkpt lat="41.200428" lon="1.509796">
        <ele>24.6</ele>
        <time>2014-12-07T07:24:00Z</time>
      </trkpt>
      <trkpt lat="41.200451" lon="1.509751">
        <ele>24.6</ele>
        <time>2014-12-07T07:24:01Z</time>
      </trkpt>
      <trkpt lat="41.200562" lon="1.509610">
        <ele>24.6</ele>
        <time>2014-12-07T07:24:05Z</time>
      </trkpt>
      <trkpt lat="41.200603" lon="1.509485">
        <ele>24.6</ele>
        <time>2014-12-07T07:24:08Z</time>
      </trkpt>
      <trkpt lat="41.200619" lon="1.509438">
        <ele>24.6</ele>
        <time>2014-12-07T07:24:09Z</time>
      </trkpt>
      <trkpt lat="41.200645" lon="1.509336">
        <ele>24.6</ele>
        <time>2014-12-07T07:24:11Z</time>
      </trkpt>
      <trkpt lat="41.200714" lon="1.509259">
        <ele>24.6</ele>
        <time>2014-12-07T07:24:13Z</time>
      </trkpt>
      <trkpt lat="41.200840" lon="1.509198">
        <ele>24.6</ele>
        <time>2014-12-07T07:24:17Z</time>
      </trkpt>
      <trkpt lat="41.200905" lon="1.509172">
        <ele>24.2</ele>
        <time>2014-12-07T07:24:19Z</time>
      </trkpt>
      <trkpt lat="41.200935" lon="1.509157">
        <ele>23.8</ele>
        <time>2014-12-07T07:24:20Z</time>
      </trkpt>
      <trkpt lat="41.200966" lon="1.509136">
        <ele>23.0</ele>
        <time>2014-12-07T07:24:21Z</time>
      </trkpt>
      <trkpt lat="41.200993" lon="1.509103">
        <ele>22.6</ele>
        <time>2014-12-07T07:24:22Z</time>
      </trkpt>
      <trkpt lat="41.201042" lon="1.508943">
        <ele>22.6</ele>
        <time>2014-12-07T07:24:25Z</time>
      </trkpt>
      <trkpt lat="41.201057" lon="1.508887">
        <ele>22.6</ele>
        <time>2014-12-07T07:24:26Z</time>
      </trkpt>
      <trkpt lat="41.201065" lon="1.508794">
        <ele>22.6</ele>
        <time>2014-12-07T07:24:28Z</time>
      </trkpt>
      <trkpt lat="41.201054" lon="1.508764">
        <ele>22.6</ele>
        <time>2014-12-07T07:24:29Z</time>
      </trkpt>
      <trkpt lat="41.200962" lon="1.508769">
        <ele>22.6</ele>
        <time>2014-12-07T07:24:33Z</time>
      </trkpt>
      <trkpt lat="41.200932" lon="1.508764">
        <ele>22.6</ele>
        <time>2014-12-07T07:24:35Z</time>
      </trkpt>
      <trkpt lat="41.200893" lon="1.508734">
        <ele>23.2</ele>
        <time>2014-12-07T07:24:37Z</time>
      </trkpt>
      <trkpt lat="41.200874" lon="1.508707">
        <ele>23.6</ele>
        <time>2014-12-07T07:24:38Z</time>
      </trkpt>
      <trkpt lat="41.200863" lon="1.508679">
        <ele>24.0</ele>
        <time>2014-12-07T07:24:39Z</time>
      </trkpt>
      <trkpt lat="41.200851" lon="1.508656">
        <ele>24.6</ele>
        <time>2014-12-07T07:24:40Z</time>
      </trkpt>
      <trkpt lat="41.200844" lon="1.508635">
        <ele>25.0</ele>
        <time>2014-12-07T07:24:41Z</time>
      </trkpt>
      <trkpt lat="41.200832" lon="1.508597">
        <ele>25.0</ele>
        <time>2014-12-07T07:24:43Z</time>
      </trkpt>
      <trkpt lat="41.200825" lon="1.508578">
        <ele>25.0</ele>
        <time>2014-12-07T07:24:45Z</time>
      </trkpt>
      <trkpt lat="41.200832" lon="1.508560">
        <ele>25.0</ele>
        <time>2014-12-07T07:24:52Z</time>
      </trkpt>
      <trkpt lat="41.200840" lon="1.508538">
        <ele>25.0</ele>
        <time>2014-12-07T07:24:53Z</time>
      </trkpt>
      <trkpt lat="41.200848" lon="1.508455">
        <ele>25.0</ele>
        <time>2014-12-07T07:24:57Z</time>
      </trkpt>
      <trkpt lat="41.200825" lon="1.508373">
        <ele>27.2</ele>
        <time>2014-12-07T07:25:05Z</time>
      </trkpt>
      <trkpt lat="41.200874" lon="1.508273">
        <ele>27.2</ele>
        <time>2014-12-07T07:25:09Z</time>
      </trkpt>
      <trkpt lat="41.200848" lon="1.508141">
        <ele>27.2</ele>
        <time>2014-12-07T07:25:13Z</time>
      </trkpt>
      <trkpt lat="41.200806" lon="1.508053">
        <ele>27.2</ele>
        <time>2014-12-07T07:25:16Z</time>
      </trkpt>
      <trkpt lat="41.200775" lon="1.508043">
        <ele>27.2</ele>
        <time>2014-12-07T07:25:17Z</time>
      </trkpt>
      <trkpt lat="41.200748" lon="1.508020">
        <ele>27.2</ele>
        <time>2014-12-07T07:25:18Z</time>
      </trkpt>
      <trkpt lat="41.200733" lon="1.507943">
        <ele>27.2</ele>
        <time>2014-12-07T07:25:20Z</time>
      </trkpt>
      <trkpt lat="41.200668" lon="1.507872">
        <ele>27.2</ele>
        <time>2014-12-07T07:25:23Z</time>
      </trkpt>
      <trkpt lat="41.200550" lon="1.507820">
        <ele>27.2</ele>
        <time>2014-12-07T07:25:27Z</time>
      </trkpt>
      <trkpt lat="41.200508" lon="1.507846">
        <ele>27.6</ele>
        <time>2014-12-07T07:25:29Z</time>
      </trkpt>
      <trkpt lat="41.200489" lon="1.507868">
        <ele>28.2</ele>
        <time>2014-12-07T07:25:30Z</time>
      </trkpt>
      <trkpt lat="41.200470" lon="1.507888">
        <ele>28.6</ele>
        <time>2014-12-07T07:25:31Z</time>
      </trkpt>
      <trkpt lat="41.200455" lon="1.507903">
        <ele>29.0</ele>
        <time>2014-12-07T07:25:32Z</time>
      </trkpt>
      <trkpt lat="41.200436" lon="1.507908">
        <ele>29.6</ele>
        <time>2014-12-07T07:25:33Z</time>
      </trkpt>
      <trkpt lat="41.200405" lon="1.507909">
        <ele>30.0</ele>
        <time>2014-12-07T07:25:35Z</time>
      </trkpt>
      <trkpt lat="41.200397" lon="1.507909">
        <ele>30.4</ele>
        <time>2014-12-07T07:25:36Z</time>
      </trkpt>
      <trkpt lat="41.200386" lon="1.507912">
        <ele>30.8</ele>
        <time>2014-12-07T07:25:37Z</time>
      </trkpt>
      <trkpt lat="41.200375" lon="1.507917">
        <ele>31.2</ele>
        <time>2014-12-07T07:25:38Z</time>
      </trkpt>
      <trkpt lat="41.200367" lon="1.507923">
        <ele>31.8</ele>
        <time>2014-12-07T07:25:39Z</time>
      </trkpt>
      <trkpt lat="41.200359" lon="1.507929">
        <ele>31.8</ele>
        <time>2014-12-07T07:25:40Z</time>
      </trkpt>
      <trkpt lat="41.200333" lon="1.507960">
        <ele>31.8</ele>
        <time>2014-12-07T07:25:42Z</time>
      </trkpt>
      <trkpt lat="41.200268" lon="1.508093">
        <ele>31.8</ele>
        <time>2014-12-07T07:25:47Z</time>
      </trkpt>
      <trkpt lat="41.200218" lon="1.508157">
        <ele>31.8</ele>
        <time>2014-12-07T07:25:50Z</time>
      </trkpt>
      <trkpt lat="41.200218" lon="1.508182">
        <ele>32.2</ele>
        <time>2014-12-07T07:25:51Z</time>
      </trkpt>
      <trkpt lat="41.200222" lon="1.508202">
        <ele>32.6</ele>
        <time>2014-12-07T07:25:52Z</time>
      </trkpt>
      <trkpt lat="41.200226" lon="1.508220">
        <ele>33.0</ele>
        <time>2014-12-07T07:25:53Z</time>
      </trkpt>
      <trkpt lat="41.200233" lon="1.508232">
        <ele>33.4</ele>
        <time>2014-12-07T07:25:54Z</time>
      </trkpt>
      <trkpt lat="41.200237" lon="1.508240">
        <ele>33.8</ele>
        <time>2014-12-07T07:25:55Z</time>
      </trkpt>
      <trkpt lat="41.200256" lon="1.508253">
        <ele>33.8</ele>
        <time>2014-12-07T07:25:57Z</time>
      </trkpt>
      <trkpt lat="41.200268" lon="1.508262">
        <ele>33.8</ele>
        <time>2014-12-07T07:25:58Z</time>
      </trkpt>
      <trkpt lat="41.200306" lon="1.508274">
        <ele>33.8</ele>
        <time>2014-12-07T07:26:00Z</time>
      </trkpt>
      <trkpt lat="41.200325" lon="1.508268">
        <ele>33.8</ele>
        <time>2014-12-07T07:26:01Z</time>
      </trkpt>
      <trkpt lat="41.200394" lon="1.508313">
        <ele>33.8</ele>
        <time>2014-12-07T07:26:05Z</time>
      </trkpt>
      <trkpt lat="41.200378" lon="1.508488">
        <ele>33.8</ele>
        <time>2014-12-07T07:26:10Z</time>
      </trkpt>
      <trkpt lat="41.200310" lon="1.508639">
        <ele>33.8</ele>
        <time>2014-12-07T07:26:15Z</time>
      </trkpt>
      <trkpt lat="41.200245" lon="1.508678">
        <ele>34.2</ele>
        <time>2014-12-07T07:26:18Z</time>
      </trkpt>
      <trkpt lat="41.200233" lon="1.508692">
        <ele>34.6</ele>
        <time>2014-12-07T07:26:19Z</time>
      </trkpt>
      <trkpt lat="41.200222" lon="1.508714">
        <ele>35.0</ele>
        <time>2014-12-07T07:26:20Z</time>
      </trkpt>
      <trkpt lat="41.200214" lon="1.508739">
        <ele>35.4</ele>
        <time>2014-12-07T07:26:21Z</time>
      </trkpt>
      <trkpt lat="41.200211" lon="1.508770">
        <ele>35.8</ele>
        <time>2014-12-07T07:26:22Z</time>
      </trkpt>
      <trkpt lat="41.200226" lon="1.508840">
        <ele>35.8</ele>
        <time>2014-12-07T07:26:24Z</time>
      </trkpt>
      <trkpt lat="41.200226" lon="1.508898">
        <ele>35.8</ele>
        <time>2014-12-07T07:26:26Z</time>
      </trkpt>
      <trkpt lat="41.200195" lon="1.508929">
        <ele>35.8</ele>
        <time>2014-12-07T07:26:28Z</time>
      </trkpt>
      <trkpt lat="41.200138" lon="1.508952">
        <ele>36.2</ele>
        <time>2014-12-07T07:26:31Z</time>
      </trkpt>
      <trkpt lat="41.200130" lon="1.508964">
        <ele>36.6</ele>
        <time>2014-12-07T07:26:32Z</time>
      </trkpt>
      <trkpt lat="41.200127" lon="1.508974">
        <ele>37.0</ele>
        <time>2014-12-07T07:26:33Z</time>
      </trkpt>
      <trkpt lat="41.200123" lon="1.508982">
        <ele>37.4</ele>
        <time>2014-12-07T07:26:34Z</time>
      </trkpt>
      <trkpt lat="41.200134" lon="1.509056">
        <ele>37.8</ele>
        <time>2014-12-07T07:26:39Z</time>
      </trkpt>
      <trkpt lat="41.200146" lon="1.509108">
        <ele>37.8</ele>
        <time>2014-12-07T07:26:41Z</time>
      </trkpt>
      <trkpt lat="41.200100" lon="1.509232">
        <ele>37.8</ele>
        <time>2014-12-07T07:26:46Z</time>
      </trkpt>
      <trkpt lat="41.200020" lon="1.509340">
        <ele>37.8</ele>
        <time>2014-12-07T07:26:52Z</time>
      </trkpt>
      <trkpt lat="41.199955" lon="1.509371">
        <ele>38.4</ele>
        <time>2014-12-07T07:26:55Z</time>
      </trkpt>
      <trkpt lat="41.199936" lon="1.509387">
        <ele>38.8</ele>
        <time>2014-12-07T07:26:56Z</time>
      </trkpt>
      <trkpt lat="41.199917" lon="1.509402">
        <ele>39.2</ele>
        <time>2014-12-07T07:26:57Z</time>
      </trkpt>
      <trkpt lat="41.199898" lon="1.509420">
        <ele>39.6</ele>
        <time>2014-12-07T07:26:58Z</time>
      </trkpt>
      <trkpt lat="41.199883" lon="1.509436">
        <ele>40.0</ele>
        <time>2014-12-07T07:26:59Z</time>
      </trkpt>
      <trkpt lat="41.199825" lon="1.509480">
        <ele>40.0</ele>
        <time>2014-12-07T07:27:03Z</time>
      </trkpt>
      <trkpt lat="41.199810" lon="1.509492">
        <ele>40.0</ele>
        <time>2014-12-07T07:27:04Z</time>
      </trkpt>
      <trkpt lat="41.199783" lon="1.509518">
        <ele>40.4</ele>
        <time>2014-12-07T07:27:06Z</time>
      </trkpt>
      <trkpt lat="41.199772" lon="1.509531">
        <ele>41.0</ele>
        <time>2014-12-07T07:27:07Z</time>
      </trkpt>
      <trkpt lat="41.199757" lon="1.509544">
        <ele>41.4</ele>
        <time>2014-12-07T07:27:08Z</time>
      </trkpt>
      <trkpt lat="41.199734" lon="1.509554">
        <ele>41.8</ele>
        <time>2014-12-07T07:27:09Z</time>
      </trkpt>
      <trkpt lat="41.199715" lon="1.509559">
        <ele>42.2</ele>
        <time>2014-12-07T07:27:10Z</time>
      </trkpt>
      <trkpt lat="41.199657" lon="1.509623">
        <ele>42.2</ele>
        <time>2014-12-07T07:27:14Z</time>
      </trkpt>
      <trkpt lat="41.199593" lon="1.509694">
        <ele>42.2</ele>
        <time>2014-12-07T07:27:18Z</time>
      </trkpt>
      <trkpt lat="41.199574" lon="1.509702">
        <ele>42.6</ele>
        <time>2014-12-07T07:27:19Z</time>
      </trkpt>
      <trkpt lat="41.199562" lon="1.509711">
        <ele>43.0</ele>
        <time>2014-12-07T07:27:20Z</time>
      </trkpt>
      <trkpt lat="41.199547" lon="1.509721">
        <ele>43.4</ele>
        <time>2014-12-07T07:27:21Z</time>
      </trkpt>
      <trkpt lat="41.199532" lon="1.509730">
        <ele>43.8</ele>
        <time>2014-12-07T07:27:22Z</time>
      </trkpt>
      <trkpt lat="41.199512" lon="1.509740">
        <ele>44.2</ele>
        <time>2014-12-07T07:27:23Z</time>
      </trkpt>
      <trkpt lat="41.199448" lon="1.509778">
        <ele>44.2</ele>
        <time>2014-12-07T07:27:27Z</time>
      </trkpt>
      <trkpt lat="41.199387" lon="1.509818">
        <ele>44.6</ele>
        <time>2014-12-07T07:27:31Z</time>
      </trkpt>
      <trkpt lat="41.199368" lon="1.509830">
        <ele>45.0</ele>
        <time>2014-12-07T07:27:32Z</time>
      </trkpt>
      <trkpt lat="41.199348" lon="1.509834">
        <ele>45.4</ele>
        <time>2014-12-07T07:27:33Z</time>
      </trkpt>
      <trkpt lat="41.199333" lon="1.509843">
        <ele>45.8</ele>
        <time>2014-12-07T07:27:34Z</time>
      </trkpt>
      <trkpt lat="41.199314" lon="1.509856">
        <ele>46.4</ele>
        <time>2014-12-07T07:27:35Z</time>
      </trkpt>
      <trkpt lat="41.199245" lon="1.509905">
        <ele>47.2</ele>
        <time>2014-12-07T07:27:39Z</time>
      </trkpt>
      <trkpt lat="41.199226" lon="1.509916">
        <ele>47.6</ele>
        <time>2014-12-07T07:27:40Z</time>
      </trkpt>
      <trkpt lat="41.199211" lon="1.509923">
        <ele>48.0</ele>
        <time>2014-12-07T07:27:41Z</time>
      </trkpt>
      <trkpt lat="41.199196" lon="1.509931">
        <ele>48.4</ele>
        <time>2014-12-07T07:27:42Z</time>
      </trkpt>
      <trkpt lat="41.199150" lon="1.509959">
        <ele>48.4</ele>
        <time>2014-12-07T07:27:45Z</time>
      </trkpt>
      <trkpt lat="41.199123" lon="1.510002">
        <ele>48.8</ele>
        <time>2014-12-07T07:27:48Z</time>
      </trkpt>
      <trkpt lat="41.199104" lon="1.510020">
        <ele>49.2</ele>
        <time>2014-12-07T07:27:49Z</time>
      </trkpt>
      <trkpt lat="41.199089" lon="1.510034">
        <ele>49.6</ele>
        <time>2014-12-07T07:27:50Z</time>
      </trkpt>
      <trkpt lat="41.199070" lon="1.510045">
        <ele>50.0</ele>
        <time>2014-12-07T07:27:51Z</time>
      </trkpt>
      <trkpt lat="41.199055" lon="1.510057">
        <ele>50.4</ele>
        <time>2014-12-07T07:27:52Z</time>
      </trkpt>
      <trkpt lat="41.198997" lon="1.510122">
        <ele>50.4</ele>
        <time>2014-12-07T07:27:56Z</time>
      </trkpt>
      <trkpt lat="41.198929" lon="1.510199">
        <ele>50.4</ele>
        <time>2014-12-07T07:28:01Z</time>
      </trkpt>
      <trkpt lat="41.198845" lon="1.510296">
        <ele>51.0</ele>
        <time>2014-12-07T07:28:07Z</time>
      </trkpt>
      <trkpt lat="41.198830" lon="1.510305">
        <ele>51.4</ele>
        <time>2014-12-07T07:28:08Z</time>
      </trkpt>
      <trkpt lat="41.198814" lon="1.510310">
        <ele>51.8</ele>
        <time>2014-12-07T07:28:09Z</time>
      </trkpt>
      <trkpt lat="41.198795" lon="1.510310">
        <ele>52.2</ele>
        <time>2014-12-07T07:28:10Z</time>
      </trkpt>
      <trkpt lat="41.198776" lon="1.510304">
        <ele>52.6</ele>
        <time>2014-12-07T07:28:11Z</time>
      </trkpt>
      <trkpt lat="41.198750" lon="1.510294">
        <ele>52.6</ele>
        <time>2014-12-07T07:28:13Z</time>
      </trkpt>
      <trkpt lat="41.198727" lon="1.510301">
        <ele>52.6</ele>
        <time>2014-12-07T07:28:15Z</time>
      </trkpt>
      <trkpt lat="41.198711" lon="1.510313">
        <ele>53.0</ele>
        <time>2014-12-07T07:28:16Z</time>
      </trkpt>
      <trkpt lat="41.198700" lon="1.510326">
        <ele>53.4</ele>
        <time>2014-12-07T07:28:17Z</time>
      </trkpt>
      <trkpt lat="41.198681" lon="1.510338">
        <ele>53.8</ele>
        <time>2014-12-07T07:28:18Z</time>
      </trkpt>
      <trkpt lat="41.198662" lon="1.510346">
        <ele>54.2</ele>
        <time>2014-12-07T07:28:19Z</time>
      </trkpt>
      <trkpt lat="41.198647" lon="1.510356">
        <ele>54.6</ele>
        <time>2014-12-07T07:28:20Z</time>
      </trkpt>
      <trkpt lat="41.198589" lon="1.510418">
        <ele>54.6</ele>
        <time>2014-12-07T07:28:24Z</time>
      </trkpt>
      <trkpt lat="41.198490" lon="1.510464">
        <ele>55.0</ele>
        <time>2014-12-07T07:28:29Z</time>
      </trkpt>
      <trkpt lat="41.198471" lon="1.510472">
        <ele>55.4</ele>
        <time>2014-12-07T07:28:30Z</time>
      </trkpt>
      <trkpt lat="41.198456" lon="1.510485">
        <ele>55.8</ele>
        <time>2014-12-07T07:28:31Z</time>
      </trkpt>
      <trkpt lat="41.198441" lon="1.510495">
        <ele>56.4</ele>
        <time>2014-12-07T07:28:32Z</time>
      </trkpt>
      <trkpt lat="41.198421" lon="1.510505">
        <ele>56.8</ele>
        <time>2014-12-07T07:28:33Z</time>
      </trkpt>
      <trkpt lat="41.198364" lon="1.510541">
        <ele>56.8</ele>
        <time>2014-12-07T07:28:36Z</time>
      </trkpt>
      <trkpt lat="41.198330" lon="1.510569">
        <ele>56.8</ele>
        <time>2014-12-07T07:28:38Z</time>
      </trkpt>
      <trkpt lat="41.198269" lon="1.510620">
        <ele>56.8</ele>
        <time>2014-12-07T07:28:42Z</time>
      </trkpt>
      <trkpt lat="41.198238" lon="1.510635">
        <ele>56.8</ele>
        <time>2014-12-07T07:28:44Z</time>
      </trkpt>
      <trkpt lat="41.198215" lon="1.510652">
        <ele>56.8</ele>
        <time>2014-12-07T07:28:46Z</time>
      </trkpt>
      <trkpt lat="41.198177" lon="1.510677">
        <ele>56.8</ele>
        <time>2014-12-07T07:28:49Z</time>
      </trkpt>
      <trkpt lat="41.198139" lon="1.510688">
        <ele>56.8</ele>
        <time>2014-12-07T07:28:51Z</time>
      </trkpt>
      <trkpt lat="41.198124" lon="1.510701">
        <ele>56.8</ele>
        <time>2014-12-07T07:28:52Z</time>
      </trkpt>
      <trkpt lat="41.198112" lon="1.510718">
        <ele>57.6</ele>
        <time>2014-12-07T07:28:53Z</time>
      </trkpt>
      <trkpt lat="41.198105" lon="1.510739">
        <ele>58.0</ele>
        <time>2014-12-07T07:28:54Z</time>
      </trkpt>
      <trkpt lat="41.198093" lon="1.510762">
        <ele>58.4</ele>
        <time>2014-12-07T07:28:55Z</time>
      </trkpt>
      <trkpt lat="41.198082" lon="1.510783">
        <ele>58.8</ele>
        <time>2014-12-07T07:28:56Z</time>
      </trkpt>
      <trkpt lat="41.198067" lon="1.510803">
        <ele>58.8</ele>
        <time>2014-12-07T07:28:57Z</time>
      </trkpt>
      <trkpt lat="41.197975" lon="1.510818">
        <ele>58.8</ele>
        <time>2014-12-07T07:29:02Z</time>
      </trkpt>
      <trkpt lat="41.197960" lon="1.510818">
        <ele>58.8</ele>
        <time>2014-12-07T07:29:03Z</time>
      </trkpt>
      <trkpt lat="41.197887" lon="1.510812">
        <ele>58.8</ele>
        <time>2014-12-07T07:29:07Z</time>
      </trkpt>
      <trkpt lat="41.197845" lon="1.510851">
        <ele>59.2</ele>
        <time>2014-12-07T07:29:10Z</time>
      </trkpt>
      <trkpt lat="41.197830" lon="1.510859">
        <ele>59.6</ele>
        <time>2014-12-07T07:29:11Z</time>
      </trkpt>
      <trkpt lat="41.197819" lon="1.510864">
        <ele>60.2</ele>
        <time>2014-12-07T07:29:12Z</time>
      </trkpt>
      <trkpt lat="41.197811" lon="1.510867">
        <ele>60.6</ele>
        <time>2014-12-07T07:29:13Z</time>
      </trkpt>
      <trkpt lat="41.197800" lon="1.510874">
        <ele>61.0</ele>
        <time>2014-12-07T07:29:14Z</time>
      </trkpt>
      <trkpt lat="41.197765" lon="1.510887">
        <ele>61.0</ele>
        <time>2014-12-07T07:29:17Z</time>
      </trkpt>
      <trkpt lat="41.197731" lon="1.510932">
        <ele>61.0</ele>
        <time>2014-12-07T07:29:22Z</time>
      </trkpt>
      <trkpt lat="41.197716" lon="1.510973">
        <ele>61.0</ele>
        <time>2014-12-07T07:29:26Z</time>
      </trkpt>
      <trkpt lat="41.197704" lon="1.510972">
        <ele>61.0</ele>
        <time>2014-12-07T07:29:27Z</time>
      </trkpt>
      <trkpt lat="41.197678" lon="1.510960">
        <ele>61.4</ele>
        <time>2014-12-07T07:29:29Z</time>
      </trkpt>
      <trkpt lat="41.197670" lon="1.510953">
        <ele>61.8</ele>
        <time>2014-12-07T07:29:30Z</time>
      </trkpt>
      <trkpt lat="41.197655" lon="1.510952">
        <ele>62.2</ele>
        <time>2014-12-07T07:29:31Z</time>
      </trkpt>
      <trkpt lat="41.197639" lon="1.510951">
        <ele>62.8</ele>
        <time>2014-12-07T07:29:32Z</time>
      </trkpt>
      <trkpt lat="41.197613" lon="1.510954">
        <ele>63.2</ele>
        <time>2014-12-07T07:29:33Z</time>
      </trkpt>
      <trkpt lat="41.197563" lon="1.510980">
        <ele>63.2</ele>
        <time>2014-12-07T07:29:35Z</time>
      </trkpt>
      <trkpt lat="41.197475" lon="1.510975">
        <ele>63.2</ele>
        <time>2014-12-07T07:29:39Z</time>
      </trkpt>
      <trkpt lat="41.197403" lon="1.511014">
        <ele>64.0</ele>
        <time>2014-12-07T07:29:42Z</time>
      </trkpt>
      <trkpt lat="41.197376" lon="1.511025">
        <ele>64.4</ele>
        <time>2014-12-07T07:29:43Z</time>
      </trkpt>
      <trkpt lat="41.197342" lon="1.511035">
        <ele>64.8</ele>
        <time>2014-12-07T07:29:44Z</time>
      </trkpt>
      <trkpt lat="41.197315" lon="1.511039">
        <ele>65.2</ele>
        <time>2014-12-07T07:29:45Z</time>
      </trkpt>
      <trkpt lat="41.197262" lon="1.511054">
        <ele>65.2</ele>
        <time>2014-12-07T07:29:47Z</time>
      </trkpt>
      <trkpt lat="41.197224" lon="1.511055">
        <ele>65.2</ele>
        <time>2014-12-07T07:29:49Z</time>
      </trkpt>
      <trkpt lat="41.197163" lon="1.511036">
        <ele>65.2</ele>
        <time>2014-12-07T07:29:52Z</time>
      </trkpt>
      <trkpt lat="41.197155" lon="1.510994">
        <ele>65.8</ele>
        <time>2014-12-07T07:29:54Z</time>
      </trkpt>
      <trkpt lat="41.197163" lon="1.510975">
        <ele>66.2</ele>
        <time>2014-12-07T07:29:55Z</time>
      </trkpt>
      <trkpt lat="41.197182" lon="1.510950">
        <ele>66.6</ele>
        <time>2014-12-07T07:29:56Z</time>
      </trkpt>
      <trkpt lat="41.197193" lon="1.510933">
        <ele>67.0</ele>
        <time>2014-12-07T07:29:57Z</time>
      </trkpt>
      <trkpt lat="41.197208" lon="1.510920">
        <ele>67.4</ele>
        <time>2014-12-07T07:29:58Z</time>
      </trkpt>
      <trkpt lat="41.197220" lon="1.510907">
        <ele>67.4</ele>
        <time>2014-12-07T07:29:59Z</time>
      </trkpt>
      <trkpt lat="41.197243" lon="1.510883">
        <ele>67.4</ele>
        <time>2014-12-07T07:30:01Z</time>
      </trkpt>
      <trkpt lat="41.197281" lon="1.510812">
        <ele>67.4</ele>
        <time>2014-12-07T07:30:06Z</time>
      </trkpt>
      <trkpt lat="41.197311" lon="1.510765">
        <ele>67.4</ele>
        <time>2014-12-07T07:30:11Z</time>
      </trkpt>
      <trkpt lat="41.197323" lon="1.510751">
        <ele>65.4</ele>
        <time>2014-12-07T07:30:23Z</time>
      </trkpt>
      <trkpt lat="41.197426" lon="1.510642">
        <ele>65.4</ele>
        <time>2014-12-07T07:30:27Z</time>
      </trkpt>
      <trkpt lat="41.197624" lon="1.510413">
        <ele>65.4</ele>
        <time>2014-12-07T07:30:33Z</time>
      </trkpt>
      <trkpt lat="41.197750" lon="1.510296">
        <ele>65.0</ele>
        <time>2014-12-07T07:30:37Z</time>
      </trkpt>
      <trkpt lat="41.197765" lon="1.510285">
        <ele>64.6</ele>
        <time>2014-12-07T07:30:38Z</time>
      </trkpt>
      <trkpt lat="41.197769" lon="1.510275">
        <ele>64.2</ele>
        <time>2014-12-07T07:30:39Z</time>
      </trkpt>
      <trkpt lat="41.197773" lon="1.510267">
        <ele>63.6</ele>
        <time>2014-12-07T07:30:40Z</time>
      </trkpt>
      <trkpt lat="41.197777" lon="1.510264">
        <ele>63.2</ele>
        <time>2014-12-07T07:30:41Z</time>
      </trkpt>
      <trkpt lat="41.197784" lon="1.510244">
        <ele>63.2</ele>
        <time>2014-12-07T07:30:44Z</time>
      </trkpt>
      <trkpt lat="41.197781" lon="1.510238">
        <ele>63.2</ele>
        <time>2014-12-07T07:30:45Z</time>
      </trkpt>
      <trkpt lat="41.197769" lon="1.510216">
        <ele>63.2</ele>
        <time>2014-12-07T07:30:53Z</time>
      </trkpt>
      <trkpt lat="41.197750" lon="1.510180">
        <ele>63.2</ele>
        <time>2014-12-07T07:30:56Z</time>
      </trkpt>
      <trkpt lat="41.197746" lon="1.510176">
        <ele>63.2</ele>
        <time>2014-12-07T07:30:57Z</time>
      </trkpt>
      <trkpt lat="41.197712" lon="1.510149">
        <ele>63.2</ele>
        <time>2014-12-07T07:31:03Z</time>
      </trkpt>
      <trkpt lat="41.197704" lon="1.510126">
        <ele>63.2</ele>
        <time>2014-12-07T07:31:04Z</time>
      </trkpt>
      <trkpt lat="41.197704" lon="1.510094">
        <ele>63.2</ele>
        <time>2014-12-07T07:31:05Z</time>
      </trkpt>
      <trkpt lat="41.197670" lon="1.509975">
        <ele>63.2</ele>
        <time>2014-12-07T07:31:08Z</time>
      </trkpt>
      <trkpt lat="41.197643" lon="1.509894">
        <ele>62.8</ele>
        <time>2014-12-07T07:31:10Z</time>
      </trkpt>
      <trkpt lat="41.197639" lon="1.509854">
        <ele>62.4</ele>
        <time>2014-12-07T07:31:11Z</time>
      </trkpt>
      <trkpt lat="41.197639" lon="1.509818">
        <ele>62.0</ele>
        <time>2014-12-07T07:31:12Z</time>
      </trkpt>
      <trkpt lat="41.197632" lon="1.509787">
        <ele>61.6</ele>
        <time>2014-12-07T07:31:13Z</time>
      </trkpt>
      <trkpt lat="41.197624" lon="1.509754">
        <ele>61.2</ele>
        <time>2014-12-07T07:31:14Z</time>
      </trkpt>
      <trkpt lat="41.197624" lon="1.509683">
        <ele>61.2</ele>
        <time>2014-12-07T07:31:16Z</time>
      </trkpt>
      <trkpt lat="41.197617" lon="1.509636">
        <ele>61.2</ele>
        <time>2014-12-07T07:31:17Z</time>
      </trkpt>
      <trkpt lat="41.197598" lon="1.509580">
        <ele>60.8</ele>
        <time>2014-12-07T07:31:18Z</time>
      </trkpt>
      <trkpt lat="41.197575" lon="1.509521">
        <ele>60.4</ele>
        <time>2014-12-07T07:31:19Z</time>
      </trkpt>
      <trkpt lat="41.197552" lon="1.509472">
        <ele>60.0</ele>
        <time>2014-12-07T07:31:20Z</time>
      </trkpt>
      <trkpt lat="41.197533" lon="1.509428">
        <ele>59.0</ele>
        <time>2014-12-07T07:31:21Z</time>
      </trkpt>
      <trkpt lat="41.197487" lon="1.509348">
        <ele>58.6</ele>
        <time>2014-12-07T07:31:23Z</time>
      </trkpt>
      <trkpt lat="41.197464" lon="1.509298">
        <ele>58.2</ele>
        <time>2014-12-07T07:31:24Z</time>
      </trkpt>
      <trkpt lat="41.197437" lon="1.509242">
        <ele>57.6</ele>
        <time>2014-12-07T07:31:25Z</time>
      </trkpt>
      <trkpt lat="41.197407" lon="1.509185">
        <ele>57.2</ele>
        <time>2014-12-07T07:31:26Z</time>
      </trkpt>
      <trkpt lat="41.197380" lon="1.509133">
        <ele>56.8</ele>
        <time>2014-12-07T07:31:27Z</time>
      </trkpt>
      <trkpt lat="41.197353" lon="1.509078">
        <ele>56.8</ele>
        <time>2014-12-07T07:31:28Z</time>
      </trkpt>
      <trkpt lat="41.197323" lon="1.509022">
        <ele>56.2</ele>
        <time>2014-12-07T07:31:29Z</time>
      </trkpt>
      <trkpt lat="41.197289" lon="1.508973">
        <ele>55.8</ele>
        <time>2014-12-07T07:31:30Z</time>
      </trkpt>
      <trkpt lat="41.197254" lon="1.508922">
        <ele>55.2</ele>
        <time>2014-12-07T07:31:31Z</time>
      </trkpt>
      <trkpt lat="41.197224" lon="1.508877">
        <ele>54.6</ele>
        <time>2014-12-07T07:31:32Z</time>
      </trkpt>
      <trkpt lat="41.197189" lon="1.508832">
        <ele>54.2</ele>
        <time>2014-12-07T07:31:33Z</time>
      </trkpt>
      <trkpt lat="41.197151" lon="1.508785">
        <ele>54.2</ele>
        <time>2014-12-07T07:31:34Z</time>
      </trkpt>
      <trkpt lat="41.197117" lon="1.508736">
        <ele>53.6</ele>
        <time>2014-12-07T07:31:35Z</time>
      </trkpt>
      <trkpt lat="41.197083" lon="1.508687">
        <ele>53.2</ele>
        <time>2014-12-07T07:31:36Z</time>
      </trkpt>
      <trkpt lat="41.197056" lon="1.508641">
        <ele>52.8</ele>
        <time>2014-12-07T07:31:37Z</time>
      </trkpt>
      <trkpt lat="41.197025" lon="1.508600">
        <ele>52.4</ele>
        <time>2014-12-07T07:31:38Z</time>
      </trkpt>
      <trkpt lat="41.196995" lon="1.508554">
        <ele>51.8</ele>
        <time>2014-12-07T07:31:39Z</time>
      </trkpt>
      <trkpt lat="41.196964" lon="1.508506">
        <ele>51.4</ele>
        <time>2014-12-07T07:31:40Z</time>
      </trkpt>
      <trkpt lat="41.196930" lon="1.508457">
        <ele>51.0</ele>
        <time>2014-12-07T07:31:41Z</time>
      </trkpt>
      <trkpt lat="41.196896" lon="1.508409">
        <ele>50.6</ele>
        <time>2014-12-07T07:31:42Z</time>
      </trkpt>
      <trkpt lat="41.196861" lon="1.508364">
        <ele>50.2</ele>
        <time>2014-12-07T07:31:43Z</time>
      </trkpt>
      <trkpt lat="41.196827" lon="1.508320">
        <ele>49.8</ele>
        <time>2014-12-07T07:31:44Z</time>
      </trkpt>
      <trkpt lat="41.196789" lon="1.508273">
        <ele>49.2</ele>
        <time>2014-12-07T07:31:45Z</time>
      </trkpt>
      <trkpt lat="41.196747" lon="1.508225">
        <ele>48.8</ele>
        <time>2014-12-07T07:31:46Z</time>
      </trkpt>
      <trkpt lat="41.196709" lon="1.508190">
        <ele>48.4</ele>
        <time>2014-12-07T07:31:47Z</time>
      </trkpt>
      <trkpt lat="41.196667" lon="1.508162">
        <ele>48.0</ele>
        <time>2014-12-07T07:31:48Z</time>
      </trkpt>
      <trkpt lat="41.196640" lon="1.508123">
        <ele>47.6</ele>
        <time>2014-12-07T07:31:49Z</time>
      </trkpt>
      <trkpt lat="41.196617" lon="1.508080">
        <ele>47.2</ele>
        <time>2014-12-07T07:31:50Z</time>
      </trkpt>
      <trkpt lat="41.196594" lon="1.508036">
        <ele>46.8</ele>
        <time>2014-12-07T07:31:51Z</time>
      </trkpt>
      <trkpt lat="41.196568" lon="1.507998">
        <ele>46.4</ele>
        <time>2014-12-07T07:31:52Z</time>
      </trkpt>
      <trkpt lat="41.196533" lon="1.507963">
        <ele>46.0</ele>
        <time>2014-12-07T07:31:53Z</time>
      </trkpt>
      <trkpt lat="41.196495" lon="1.507930">
        <ele>45.6</ele>
        <time>2014-12-07T07:31:54Z</time>
      </trkpt>
      <trkpt lat="41.196457" lon="1.507902">
        <ele>45.6</ele>
        <time>2014-12-07T07:31:55Z</time>
      </trkpt>
      <trkpt lat="41.196274" lon="1.507761">
        <ele>45.6</ele>
        <time>2014-12-07T07:32:00Z</time>
      </trkpt>
      <trkpt lat="41.196224" lon="1.507687">
        <ele>45.6</ele>
        <time>2014-12-07T07:32:03Z</time>
      </trkpt>
      <trkpt lat="41.196205" lon="1.507678">
        <ele>45.0</ele>
        <time>2014-12-07T07:32:04Z</time>
      </trkpt>
      <trkpt lat="41.196186" lon="1.507674">
        <ele>44.6</ele>
        <time>2014-12-07T07:32:05Z</time>
      </trkpt>
      <trkpt lat="41.196171" lon="1.507663">
        <ele>44.2</ele>
        <time>2014-12-07T07:32:06Z</time>
      </trkpt>
      <trkpt lat="41.196148" lon="1.507654">
        <ele>43.8</ele>
        <time>2014-12-07T07:32:07Z</time>
      </trkpt>
      <trkpt lat="41.196133" lon="1.507644">
        <ele>43.4</ele>
        <time>2014-12-07T07:32:08Z</time>
      </trkpt>
      <trkpt lat="41.196079" lon="1.507630">
        <ele>43.4</ele>
        <time>2014-12-07T07:32:11Z</time>
      </trkpt>
      <trkpt lat="41.196033" lon="1.507631">
        <ele>43.4</ele>
        <time>2014-12-07T07:32:13Z</time>
      </trkpt>
      <trkpt lat="41.195961" lon="1.507621">
        <ele>43.4</ele>
        <time>2014-12-07T07:32:16Z</time>
      </trkpt>
      <trkpt lat="41.195805" lon="1.507529">
        <ele>43.4</ele>
        <time>2014-12-07T07:32:22Z</time>
      </trkpt>
      <trkpt lat="41.195755" lon="1.507497">
        <ele>43.4</ele>
        <time>2014-12-07T07:32:24Z</time>
      </trkpt>
      <trkpt lat="41.195724" lon="1.507482">
        <ele>43.4</ele>
        <time>2014-12-07T07:32:26Z</time>
      </trkpt>
      <trkpt lat="41.195717" lon="1.507469">
        <ele>43.4</ele>
        <time>2014-12-07T07:32:27Z</time>
      </trkpt>
      <trkpt lat="41.195656" lon="1.507406">
        <ele>43.4</ele>
        <time>2014-12-07T07:32:31Z</time>
      </trkpt>
      <trkpt lat="41.195637" lon="1.507391">
        <ele>43.0</ele>
        <time>2014-12-07T07:32:32Z</time>
      </trkpt>
      <trkpt lat="41.195614" lon="1.507370">
        <ele>42.4</ele>
        <time>2014-12-07T07:32:33Z</time>
      </trkpt>
      <trkpt lat="41.195591" lon="1.507347">
        <ele>42.0</ele>
        <time>2014-12-07T07:32:34Z</time>
      </trkpt>
      <trkpt lat="41.195560" lon="1.507326">
        <ele>41.2</ele>
        <time>2014-12-07T07:32:35Z</time>
      </trkpt>
      <trkpt lat="41.195503" lon="1.507273">
        <ele>41.2</ele>
        <time>2014-12-07T07:32:37Z</time>
      </trkpt>
      <trkpt lat="41.195393" lon="1.507104">
        <ele>41.2</ele>
        <time>2014-12-07T07:32:42Z</time>
      </trkpt>
      <trkpt lat="41.195313" lon="1.506989">
        <ele>41.2</ele>
        <time>2014-12-07T07:32:46Z</time>
      </trkpt>
      <trkpt lat="41.195244" lon="1.506697">
        <ele>41.2</ele>
        <time>2014-12-07T07:32:52Z</time>
      </trkpt>
      <trkpt lat="41.195221" lon="1.506653">
        <ele>41.2</ele>
        <time>2014-12-07T07:32:53Z</time>
      </trkpt>
      <trkpt lat="41.195171" lon="1.506570">
        <ele>41.2</ele>
        <time>2014-12-07T07:32:55Z</time>
      </trkpt>
      <trkpt lat="41.195049" lon="1.506368">
        <ele>40.4</ele>
        <time>2014-12-07T07:33:00Z</time>
      </trkpt>
      <trkpt lat="41.195026" lon="1.506327">
        <ele>39.8</ele>
        <time>2014-12-07T07:33:01Z</time>
      </trkpt>
      <trkpt lat="41.195007" lon="1.506287">
        <ele>39.4</ele>
        <time>2014-12-07T07:33:02Z</time>
      </trkpt>
      <trkpt lat="41.194988" lon="1.506249">
        <ele>39.0</ele>
        <time>2014-12-07T07:33:03Z</time>
      </trkpt>
      <trkpt lat="41.194923" lon="1.506192">
        <ele>39.0</ele>
        <time>2014-12-07T07:33:05Z</time>
      </trkpt>
      <trkpt lat="41.194805" lon="1.506141">
        <ele>39.0</ele>
        <time>2014-12-07T07:33:08Z</time>
      </trkpt>
      <trkpt lat="41.194775" lon="1.506116">
        <ele>39.0</ele>
        <time>2014-12-07T07:33:09Z</time>
      </trkpt>
      <trkpt lat="41.194668" lon="1.505954">
        <ele>39.0</ele>
        <time>2014-12-07T07:33:13Z</time>
      </trkpt>
      <trkpt lat="41.194645" lon="1.505905">
        <ele>39.0</ele>
        <time>2014-12-07T07:33:14Z</time>
      </trkpt>
      <trkpt lat="41.194649" lon="1.505790">
        <ele>39.0</ele>
        <time>2014-12-07T07:33:17Z</time>
      </trkpt>
      <trkpt lat="41.194645" lon="1.505752">
        <ele>38.6</ele>
        <time>2014-12-07T07:33:18Z</time>
      </trkpt>
      <trkpt lat="41.194633" lon="1.505707">
        <ele>38.2</ele>
        <time>2014-12-07T07:33:19Z</time>
      </trkpt>
      <trkpt lat="41.194611" lon="1.505661">
        <ele>37.8</ele>
        <time>2014-12-07T07:33:20Z</time>
      </trkpt>
      <trkpt lat="41.194584" lon="1.505615">
        <ele>37.4</ele>
        <time>2014-12-07T07:33:21Z</time>
      </trkpt>
      <trkpt lat="41.194565" lon="1.505567">
        <ele>37.0</ele>
        <time>2014-12-07T07:33:22Z</time>
      </trkpt>
      <trkpt lat="41.194553" lon="1.505521">
        <ele>37.0</ele>
        <time>2014-12-07T07:33:23Z</time>
      </trkpt>
      <trkpt lat="41.194534" lon="1.505478">
        <ele>37.0</ele>
        <time>2014-12-07T07:33:24Z</time>
      </trkpt>
      <trkpt lat="41.194489" lon="1.505398">
        <ele>36.6</ele>
        <time>2014-12-07T07:33:26Z</time>
      </trkpt>
      <trkpt lat="41.194473" lon="1.505345">
        <ele>36.0</ele>
        <time>2014-12-07T07:33:27Z</time>
      </trkpt>
      <trkpt lat="41.194458" lon="1.505291">
        <ele>35.6</ele>
        <time>2014-12-07T07:33:28Z</time>
      </trkpt>
      <trkpt lat="41.194447" lon="1.505236">
        <ele>35.2</ele>
        <time>2014-12-07T07:33:29Z</time>
      </trkpt>
      <trkpt lat="41.194431" lon="1.505177">
        <ele>34.6</ele>
        <time>2014-12-07T07:33:30Z</time>
      </trkpt>
      <trkpt lat="41.194397" lon="1.504994">
        <ele>34.2</ele>
        <time>2014-12-07T07:33:33Z</time>
      </trkpt>
      <trkpt lat="41.194382" lon="1.504926">
        <ele>33.8</ele>
        <time>2014-12-07T07:33:34Z</time>
      </trkpt>
      <trkpt lat="41.194374" lon="1.504861">
        <ele>33.2</ele>
        <time>2014-12-07T07:33:35Z</time>
      </trkpt>
      <trkpt lat="41.194370" lon="1.504798">
        <ele>32.8</ele>
        <time>2014-12-07T07:33:36Z</time>
      </trkpt>
      <trkpt lat="41.194351" lon="1.504728">
        <ele>32.4</ele>
        <time>2014-12-07T07:33:37Z</time>
      </trkpt>
      <trkpt lat="41.194340" lon="1.504656">
        <ele>32.4</ele>
        <time>2014-12-07T07:33:38Z</time>
      </trkpt>
      <trkpt lat="41.194309" lon="1.504509">
        <ele>32.4</ele>
        <time>2014-12-07T07:33:40Z</time>
      </trkpt>
      <trkpt lat="41.194294" lon="1.504431">
        <ele>32.0</ele>
        <time>2014-12-07T07:33:41Z</time>
      </trkpt>
      <trkpt lat="41.194283" lon="1.504347">
        <ele>31.4</ele>
        <time>2014-12-07T07:33:42Z</time>
      </trkpt>
      <trkpt lat="41.194279" lon="1.504267">
        <ele>31.0</ele>
        <time>2014-12-07T07:33:43Z</time>
      </trkpt>
      <trkpt lat="41.194283" lon="1.504198">
        <ele>30.6</ele>
        <time>2014-12-07T07:33:44Z</time>
      </trkpt>
      <trkpt lat="41.194279" lon="1.504135">
        <ele>30.2</ele>
        <time>2014-12-07T07:33:45Z</time>
      </trkpt>
      <trkpt lat="41.194275" lon="1.504075">
        <ele>29.8</ele>
        <time>2014-12-07T07:33:46Z</time>
      </trkpt>
      <trkpt lat="41.194271" lon="1.504012">
        <ele>29.4</ele>
        <time>2014-12-07T07:33:47Z</time>
      </trkpt>
      <trkpt lat="41.194263" lon="1.503947">
        <ele>28.8</ele>
        <time>2014-12-07T07:33:48Z</time>
      </trkpt>
      <trkpt lat="41.194252" lon="1.503881">
        <ele>28.0</ele>
        <time>2014-12-07T07:33:49Z</time>
      </trkpt>
      <trkpt lat="41.194183" lon="1.503699">
        <ele>28.0</ele>
        <time>2014-12-07T07:33:52Z</time>
      </trkpt>
      <trkpt lat="41.194027" lon="1.503518">
        <ele>28.0</ele>
        <time>2014-12-07T07:33:56Z</time>
      </trkpt>
      <trkpt lat="41.193970" lon="1.503417">
        <ele>27.6</ele>
        <time>2014-12-07T07:33:59Z</time>
      </trkpt>
      <trkpt lat="41.193954" lon="1.503386">
        <ele>27.2</ele>
        <time>2014-12-07T07:34:00Z</time>
      </trkpt>
      <trkpt lat="41.193966" lon="1.503351">
        <ele>26.8</ele>
        <time>2014-12-07T07:34:01Z</time>
      </trkpt>
      <trkpt lat="41.193989" lon="1.503323">
        <ele>26.4</ele>
        <time>2014-12-07T07:34:02Z</time>
      </trkpt>
      <trkpt lat="41.194008" lon="1.503294">
        <ele>26.0</ele>
        <time>2014-12-07T07:34:03Z</time>
      </trkpt>
      <trkpt lat="41.194019" lon="1.503193">
        <ele>26.0</ele>
        <time>2014-12-07T07:34:06Z</time>
      </trkpt>
      <trkpt lat="41.193981" lon="1.503088">
        <ele>26.0</ele>
        <time>2014-12-07T07:34:09Z</time>
      </trkpt>
      <trkpt lat="41.193962" lon="1.503053">
        <ele>26.0</ele>
        <time>2014-12-07T07:34:10Z</time>
      </trkpt>
      <trkpt lat="41.193924" lon="1.502976">
        <ele>26.0</ele>
        <time>2014-12-07T07:34:12Z</time>
      </trkpt>
      <trkpt lat="41.193893" lon="1.502900">
        <ele>26.0</ele>
        <time>2014-12-07T07:34:14Z</time>
      </trkpt>
      <trkpt lat="41.193855" lon="1.502850">
        <ele>26.0</ele>
        <time>2014-12-07T07:34:16Z</time>
      </trkpt>
      <trkpt lat="41.193783" lon="1.502821">
        <ele>26.0</ele>
        <time>2014-12-07T07:34:19Z</time>
      </trkpt>
      <trkpt lat="41.193760" lon="1.502804">
        <ele>26.0</ele>
        <time>2014-12-07T07:34:20Z</time>
      </trkpt>
      <trkpt lat="41.193707" lon="1.502718">
        <ele>26.0</ele>
        <time>2014-12-07T07:34:23Z</time>
      </trkpt>
      <trkpt lat="41.193642" lon="1.502652">
        <ele>26.0</ele>
        <time>2014-12-07T07:34:26Z</time>
      </trkpt>
      <trkpt lat="41.193596" lon="1.502636">
        <ele>26.0</ele>
        <time>2014-12-07T07:34:28Z</time>
      </trkpt>
      <trkpt lat="41.193447" lon="1.502635">
        <ele>26.0</ele>
        <time>2014-12-07T07:34:33Z</time>
      </trkpt>
      <trkpt lat="41.193314" lon="1.502624">
        <ele>26.0</ele>
        <time>2014-12-07T07:34:38Z</time>
      </trkpt>
      <trkpt lat="41.193241" lon="1.502591">
        <ele>26.0</ele>
        <time>2014-12-07T07:34:41Z</time>
      </trkpt>
      <trkpt lat="41.193203" lon="1.502590">
        <ele>26.0</ele>
        <time>2014-12-07T07:34:43Z</time>
      </trkpt>
      <trkpt lat="41.193123" lon="1.502570">
        <ele>26.0</ele>
        <time>2014-12-07T07:34:47Z</time>
      </trkpt>
      <trkpt lat="41.193077" lon="1.502548">
        <ele>26.0</ele>
        <time>2014-12-07T07:34:49Z</time>
      </trkpt>
      <trkpt lat="41.193031" lon="1.502528">
        <ele>26.0</ele>
        <time>2014-12-07T07:34:51Z</time>
      </trkpt>
      <trkpt lat="41.192944" lon="1.502509">
        <ele>26.4</ele>
        <time>2014-12-07T07:34:55Z</time>
      </trkpt>
      <trkpt lat="41.192913" lon="1.502516">
        <ele>26.8</ele>
        <time>2014-12-07T07:34:56Z</time>
      </trkpt>
      <trkpt lat="41.192883" lon="1.502520">
        <ele>27.2</ele>
        <time>2014-12-07T07:34:57Z</time>
      </trkpt>
      <trkpt lat="41.192852" lon="1.502520">
        <ele>27.6</ele>
        <time>2014-12-07T07:34:58Z</time>
      </trkpt>
      <trkpt lat="41.192822" lon="1.502517">
        <ele>28.0</ele>
        <time>2014-12-07T07:34:59Z</time>
      </trkpt>
      <trkpt lat="41.192757" lon="1.502514">
        <ele>28.0</ele>
        <time>2014-12-07T07:35:02Z</time>
      </trkpt>
      <trkpt lat="41.192703" lon="1.502508">
        <ele>28.8</ele>
        <time>2014-12-07T07:35:04Z</time>
      </trkpt>
      <trkpt lat="41.192677" lon="1.502506">
        <ele>29.4</ele>
        <time>2014-12-07T07:35:05Z</time>
      </trkpt>
      <trkpt lat="41.192646" lon="1.502512">
        <ele>29.8</ele>
        <time>2014-12-07T07:35:06Z</time>
      </trkpt>
      <trkpt lat="41.192619" lon="1.502520">
        <ele>30.2</ele>
        <time>2014-12-07T07:35:07Z</time>
      </trkpt>
      <trkpt lat="41.192593" lon="1.502525">
        <ele>30.8</ele>
        <time>2014-12-07T07:35:08Z</time>
      </trkpt>
      <trkpt lat="41.192570" lon="1.502522">
        <ele>31.2</ele>
        <time>2014-12-07T07:35:09Z</time>
      </trkpt>
      <trkpt lat="41.192543" lon="1.502526">
        <ele>31.8</ele>
        <time>2014-12-07T07:35:10Z</time>
      </trkpt>
      <trkpt lat="41.192513" lon="1.502532">
        <ele>32.2</ele>
        <time>2014-12-07T07:35:11Z</time>
      </trkpt>
      <trkpt lat="41.192493" lon="1.502533">
        <ele>32.2</ele>
        <time>2014-12-07T07:35:12Z</time>
      </trkpt>
      <trkpt lat="41.192421" lon="1.502519">
        <ele>32.6</ele>
        <time>2014-12-07T07:35:15Z</time>
      </trkpt>
      <trkpt lat="41.192402" lon="1.502507">
        <ele>33.0</ele>
        <time>2014-12-07T07:35:16Z</time>
      </trkpt>
      <trkpt lat="41.192379" lon="1.502485">
        <ele>33.4</ele>
        <time>2014-12-07T07:35:17Z</time>
      </trkpt>
      <trkpt lat="41.192364" lon="1.502454">
        <ele>33.8</ele>
        <time>2014-12-07T07:35:18Z</time>
      </trkpt>
      <trkpt lat="41.192356" lon="1.502429">
        <ele>34.4</ele>
        <time>2014-12-07T07:35:19Z</time>
      </trkpt>
      <trkpt lat="41.192341" lon="1.502408">
        <ele>34.4</ele>
        <time>2014-12-07T07:35:20Z</time>
      </trkpt>
      <trkpt lat="41.192245" lon="1.502341">
        <ele>34.4</ele>
        <time>2014-12-07T07:35:25Z</time>
      </trkpt>
      <trkpt lat="41.192204" lon="1.502346">
        <ele>34.4</ele>
        <time>2014-12-07T07:35:27Z</time>
      </trkpt>
      <trkpt lat="41.192181" lon="1.502352">
        <ele>34.8</ele>
        <time>2014-12-07T07:35:28Z</time>
      </trkpt>
      <trkpt lat="41.192165" lon="1.502364">
        <ele>35.2</ele>
        <time>2014-12-07T07:35:29Z</time>
      </trkpt>
      <trkpt lat="41.192158" lon="1.502377">
        <ele>35.6</ele>
        <time>2014-12-07T07:35:30Z</time>
      </trkpt>
      <trkpt lat="41.192158" lon="1.502400">
        <ele>36.0</ele>
        <time>2014-12-07T07:35:31Z</time>
      </trkpt>
      <trkpt lat="41.192162" lon="1.502428">
        <ele>36.4</ele>
        <time>2014-12-07T07:35:32Z</time>
      </trkpt>
      <trkpt lat="41.192150" lon="1.502514">
        <ele>36.4</ele>
        <time>2014-12-07T07:35:35Z</time>
      </trkpt>
      <trkpt lat="41.192116" lon="1.502631">
        <ele>36.4</ele>
        <time>2014-12-07T07:35:40Z</time>
      </trkpt>
      <trkpt lat="41.192051" lon="1.502625">
        <ele>36.4</ele>
        <time>2014-12-07T07:35:44Z</time>
      </trkpt>
      <trkpt lat="41.192039" lon="1.502615">
        <ele>36.4</ele>
        <time>2014-12-07T07:35:45Z</time>
      </trkpt>
      <trkpt lat="41.192001" lon="1.502615">
        <ele>36.4</ele>
        <time>2014-12-07T07:35:49Z</time>
      </trkpt>
      <trkpt lat="41.191917" lon="1.502581">
        <ele>38.4</ele>
        <time>2014-12-07T07:36:01Z</time>
      </trkpt>
      <trkpt lat="41.191887" lon="1.502530">
        <ele>38.4</ele>
        <time>2014-12-07T07:36:03Z</time>
      </trkpt>
      <trkpt lat="41.191776" lon="1.502381">
        <ele>38.4</ele>
        <time>2014-12-07T07:36:08Z</time>
      </trkpt>
      <trkpt lat="41.191723" lon="1.502375">
        <ele>38.8</ele>
        <time>2014-12-07T07:36:10Z</time>
      </trkpt>
      <trkpt lat="41.191700" lon="1.502379">
        <ele>39.2</ele>
        <time>2014-12-07T07:36:11Z</time>
      </trkpt>
      <trkpt lat="41.191681" lon="1.502380">
        <ele>39.6</ele>
        <time>2014-12-07T07:36:12Z</time>
      </trkpt>
      <trkpt lat="41.191662" lon="1.502387">
        <ele>40.0</ele>
        <time>2014-12-07T07:36:13Z</time>
      </trkpt>
      <trkpt lat="41.191635" lon="1.502394">
        <ele>40.4</ele>
        <time>2014-12-07T07:36:14Z</time>
      </trkpt>
      <trkpt lat="41.191586" lon="1.502382">
        <ele>40.4</ele>
        <time>2014-12-07T07:36:16Z</time>
      </trkpt>
      <trkpt lat="41.191521" lon="1.502340">
        <ele>40.4</ele>
        <time>2014-12-07T07:36:19Z</time>
      </trkpt>
      <trkpt lat="41.191498" lon="1.502340">
        <ele>40.4</ele>
        <time>2014-12-07T07:36:20Z</time>
      </trkpt>
      <trkpt lat="41.191452" lon="1.502270">
        <ele>40.4</ele>
        <time>2014-12-07T07:36:24Z</time>
      </trkpt>
      <trkpt lat="41.191425" lon="1.502159">
        <ele>40.4</ele>
        <time>2014-12-07T07:36:28Z</time>
      </trkpt>
      <trkpt lat="41.191391" lon="1.502034">
        <ele>40.4</ele>
        <time>2014-12-07T07:36:32Z</time>
      </trkpt>
      <trkpt lat="41.191425" lon="1.501905">
        <ele>40.4</ele>
        <time>2014-12-07T07:36:36Z</time>
      </trkpt>
      <trkpt lat="41.191418" lon="1.501844">
        <ele>40.8</ele>
        <time>2014-12-07T07:36:38Z</time>
      </trkpt>
      <trkpt lat="41.191410" lon="1.501809">
        <ele>41.2</ele>
        <time>2014-12-07T07:36:39Z</time>
      </trkpt>
      <trkpt lat="41.191391" lon="1.501781">
        <ele>41.6</ele>
        <time>2014-12-07T07:36:40Z</time>
      </trkpt>
      <trkpt lat="41.191368" lon="1.501757">
        <ele>42.0</ele>
        <time>2014-12-07T07:36:41Z</time>
      </trkpt>
      <trkpt lat="41.191338" lon="1.501734">
        <ele>42.4</ele>
        <time>2014-12-07T07:36:42Z</time>
      </trkpt>
      <trkpt lat="41.191292" lon="1.501686">
        <ele>42.4</ele>
        <time>2014-12-07T07:36:44Z</time>
      </trkpt>
      <trkpt lat="41.191273" lon="1.501664">
        <ele>42.4</ele>
        <time>2014-12-07T07:36:45Z</time>
      </trkpt>
      <trkpt lat="41.191216" lon="1.501631">
        <ele>42.8</ele>
        <time>2014-12-07T07:36:47Z</time>
      </trkpt>
      <trkpt lat="41.191185" lon="1.501615">
        <ele>43.2</ele>
        <time>2014-12-07T07:36:48Z</time>
      </trkpt>
      <trkpt lat="41.191162" lon="1.501593">
        <ele>43.8</ele>
        <time>2014-12-07T07:36:49Z</time>
      </trkpt>
      <trkpt lat="41.191135" lon="1.501562">
        <ele>44.2</ele>
        <time>2014-12-07T07:36:50Z</time>
      </trkpt>
      <trkpt lat="41.191128" lon="1.501529">
        <ele>44.6</ele>
        <time>2014-12-07T07:36:51Z</time>
      </trkpt>
      <trkpt lat="41.191082" lon="1.501437">
        <ele>44.6</ele>
        <time>2014-12-07T07:36:54Z</time>
      </trkpt>
      <trkpt lat="41.190994" lon="1.501255">
        <ele>45.0</ele>
        <time>2014-12-07T07:37:00Z</time>
      </trkpt>
      <trkpt lat="41.190987" lon="1.501226">
        <ele>45.4</ele>
        <time>2014-12-07T07:37:01Z</time>
      </trkpt>
      <trkpt lat="41.190987" lon="1.501190">
        <ele>45.8</ele>
        <time>2014-12-07T07:37:02Z</time>
      </trkpt>
      <trkpt lat="41.190987" lon="1.501154">
        <ele>46.2</ele>
        <time>2014-12-07T07:37:03Z</time>
      </trkpt>
      <trkpt lat="41.190987" lon="1.501117">
        <ele>46.8</ele>
        <time>2014-12-07T07:37:04Z</time>
      </trkpt>
      <trkpt lat="41.190994" lon="1.501079">
        <ele>46.8</ele>
        <time>2014-12-07T07:37:05Z</time>
      </trkpt>
      <trkpt lat="41.191002" lon="1.500932">
        <ele>46.8</ele>
        <time>2014-12-07T07:37:10Z</time>
      </trkpt>
      <trkpt lat="41.191010" lon="1.500883">
        <ele>46.8</ele>
        <time>2014-12-07T07:37:13Z</time>
      </trkpt>
      <trkpt lat="41.191029" lon="1.500876">
        <ele>46.8</ele>
        <time>2014-12-07T07:37:14Z</time>
      </trkpt>
      <trkpt lat="41.191109" lon="1.500852">
        <ele>46.8</ele>
        <time>2014-12-07T07:37:19Z</time>
      </trkpt>
      <trkpt lat="41.191128" lon="1.500841">
        <ele>46.8</ele>
        <time>2014-12-07T07:37:20Z</time>
      </trkpt>
      <trkpt lat="41.191227" lon="1.500753">
        <ele>46.8</ele>
        <time>2014-12-07T07:37:26Z</time>
      </trkpt>
      <trkpt lat="41.191254" lon="1.500689">
        <ele>46.8</ele>
        <time>2014-12-07T07:37:31Z</time>
      </trkpt>
      <trkpt lat="41.191254" lon="1.500680">
        <ele>46.8</ele>
        <time>2014-12-07T07:37:32Z</time>
      </trkpt>
      <trkpt lat="41.191246" lon="1.500674">
        <ele>46.4</ele>
        <time>2014-12-07T07:37:34Z</time>
      </trkpt>
      <trkpt lat="41.191242" lon="1.500672">
        <ele>45.8</ele>
        <time>2014-12-07T07:37:35Z</time>
      </trkpt>
      <trkpt lat="41.191235" lon="1.500671">
        <ele>45.4</ele>
        <time>2014-12-07T07:37:36Z</time>
      </trkpt>
      <trkpt lat="41.191235" lon="1.500669">
        <ele>45.0</ele>
        <time>2014-12-07T07:37:37Z</time>
      </trkpt>
      <trkpt lat="41.191208" lon="1.500623">
        <ele>44.6</ele>
        <time>2014-12-07T07:37:41Z</time>
      </trkpt>
      <trkpt lat="41.191162" lon="1.500506">
        <ele>44.6</ele>
        <time>2014-12-07T07:37:46Z</time>
      </trkpt>
      <trkpt lat="41.191105" lon="1.500477">
        <ele>44.2</ele>
        <time>2014-12-07T07:37:48Z</time>
      </trkpt>
      <trkpt lat="41.191078" lon="1.500474">
        <ele>43.8</ele>
        <time>2014-12-07T07:37:49Z</time>
      </trkpt>
      <trkpt lat="41.191048" lon="1.500468">
        <ele>43.4</ele>
        <time>2014-12-07T07:37:50Z</time>
      </trkpt>
      <trkpt lat="41.191013" lon="1.500461">
        <ele>43.0</ele>
        <time>2014-12-07T07:37:51Z</time>
      </trkpt>
      <trkpt lat="41.190983" lon="1.500474">
        <ele>42.6</ele>
        <time>2014-12-07T07:37:52Z</time>
      </trkpt>
      <trkpt lat="41.190960" lon="1.500487">
        <ele>42.6</ele>
        <time>2014-12-07T07:37:53Z</time>
      </trkpt>
      <trkpt lat="41.190903" lon="1.500495">
        <ele>42.6</ele>
        <time>2014-12-07T07:37:55Z</time>
      </trkpt>
      <trkpt lat="41.190861" lon="1.500465">
        <ele>42.6</ele>
        <time>2014-12-07T07:37:57Z</time>
      </trkpt>
      <trkpt lat="41.190826" lon="1.500400">
        <ele>42.6</ele>
        <time>2014-12-07T07:38:00Z</time>
      </trkpt>
      <trkpt lat="41.190807" lon="1.500389">
        <ele>42.6</ele>
        <time>2014-12-07T07:38:01Z</time>
      </trkpt>
      <trkpt lat="41.190739" lon="1.500254">
        <ele>42.6</ele>
        <time>2014-12-07T07:38:04Z</time>
      </trkpt>
      <trkpt lat="41.190704" lon="1.500208">
        <ele>42.6</ele>
        <time>2014-12-07T07:38:05Z</time>
      </trkpt>
      <trkpt lat="41.190620" lon="1.500134">
        <ele>42.6</ele>
        <time>2014-12-07T07:38:07Z</time>
      </trkpt>
      <trkpt lat="41.190475" lon="1.500127">
        <ele>42.6</ele>
        <time>2014-12-07T07:38:10Z</time>
      </trkpt>
      <trkpt lat="41.190315" lon="1.500197">
        <ele>42.6</ele>
        <time>2014-12-07T07:38:14Z</time>
      </trkpt>
      <trkpt lat="41.190170" lon="1.500283">
        <ele>42.6</ele>
        <time>2014-12-07T07:38:18Z</time>
      </trkpt>
      <trkpt lat="41.190105" lon="1.500342">
        <ele>42.6</ele>
        <time>2014-12-07T07:38:20Z</time>
      </trkpt>
      <trkpt lat="41.189945" lon="1.500434">
        <ele>42.6</ele>
        <time>2014-12-07T07:38:25Z</time>
      </trkpt>
      <trkpt lat="41.189800" lon="1.500542">
        <ele>42.6</ele>
        <time>2014-12-07T07:38:30Z</time>
      </trkpt>
      <trkpt lat="41.189663" lon="1.500661">
        <ele>42.6</ele>
        <time>2014-12-07T07:38:35Z</time>
      </trkpt>
      <trkpt lat="41.189503" lon="1.500791">
        <ele>42.6</ele>
        <time>2014-12-07T07:38:40Z</time>
      </trkpt>
      <trkpt lat="41.189419" lon="1.500835">
        <ele>42.6</ele>
        <time>2014-12-07T07:38:43Z</time>
      </trkpt>
      <trkpt lat="41.189392" lon="1.500821">
        <ele>42.6</ele>
        <time>2014-12-07T07:38:44Z</time>
      </trkpt>
      <trkpt lat="41.189259" lon="1.500786">
        <ele>42.6</ele>
        <time>2014-12-07T07:38:47Z</time>
      </trkpt>
      <trkpt lat="41.189194" lon="1.500772">
        <ele>42.2</ele>
        <time>2014-12-07T07:38:49Z</time>
      </trkpt>
      <trkpt lat="41.189182" lon="1.500744">
        <ele>41.8</ele>
        <time>2014-12-07T07:38:50Z</time>
      </trkpt>
      <trkpt lat="41.189175" lon="1.500707">
        <ele>41.2</ele>
        <time>2014-12-07T07:38:51Z</time>
      </trkpt>
      <trkpt lat="41.189186" lon="1.500669">
        <ele>40.8</ele>
        <time>2014-12-07T07:38:52Z</time>
      </trkpt>
      <trkpt lat="41.189198" lon="1.500641">
        <ele>40.2</ele>
        <time>2014-12-07T07:38:53Z</time>
      </trkpt>
      <trkpt lat="41.189217" lon="1.500622">
        <ele>39.6</ele>
        <time>2014-12-07T07:38:54Z</time>
      </trkpt>
      <trkpt lat="41.189240" lon="1.500606">
        <ele>39.0</ele>
        <time>2014-12-07T07:38:55Z</time>
      </trkpt>
      <trkpt lat="41.189266" lon="1.500597">
        <ele>38.4</ele>
        <time>2014-12-07T07:38:56Z</time>
      </trkpt>
      <trkpt lat="41.189301" lon="1.500587">
        <ele>38.0</ele>
        <time>2014-12-07T07:38:57Z</time>
      </trkpt>
      <trkpt lat="41.189384" lon="1.500563">
        <ele>38.0</ele>
        <time>2014-12-07T07:38:59Z</time>
      </trkpt>
      <trkpt lat="41.189472" lon="1.500502">
        <ele>38.0</ele>
        <time>2014-12-07T07:39:01Z</time>
      </trkpt>
      <trkpt lat="41.189526" lon="1.500468">
        <ele>37.4</ele>
        <time>2014-12-07T07:39:02Z</time>
      </trkpt>
      <trkpt lat="41.189575" lon="1.500433">
        <ele>37.0</ele>
        <time>2014-12-07T07:39:03Z</time>
      </trkpt>
      <trkpt lat="41.189629" lon="1.500396">
        <ele>36.6</ele>
        <time>2014-12-07T07:39:04Z</time>
      </trkpt>
      <trkpt lat="41.189678" lon="1.500361">
        <ele>36.2</ele>
        <time>2014-12-07T07:39:05Z</time>
      </trkpt>
      <trkpt lat="41.189728" lon="1.500327">
        <ele>35.8</ele>
        <time>2014-12-07T07:39:06Z</time>
      </trkpt>
      <trkpt lat="41.189995" lon="1.500129">
        <ele>35.8</ele>
        <time>2014-12-07T07:39:11Z</time>
      </trkpt>
      <trkpt lat="41.190315" lon="1.499890">
        <ele>35.8</ele>
        <time>2014-12-07T07:39:17Z</time>
      </trkpt>
      <trkpt lat="41.190472" lon="1.499805">
        <ele>35.4</ele>
        <time>2014-12-07T07:39:20Z</time>
      </trkpt>
      <trkpt lat="41.190525" lon="1.499793">
        <ele>35.0</ele>
        <time>2014-12-07T07:39:21Z</time>
      </trkpt>
      <trkpt lat="41.190582" lon="1.499792">
        <ele>34.6</ele>
        <time>2014-12-07T07:39:22Z</time>
      </trkpt>
      <trkpt lat="41.190636" lon="1.499804">
        <ele>34.2</ele>
        <time>2014-12-07T07:39:23Z</time>
      </trkpt>
      <trkpt lat="41.190689" lon="1.499834">
        <ele>33.8</ele>
        <time>2014-12-07T07:39:24Z</time>
      </trkpt>
      <trkpt lat="41.190739" lon="1.499871">
        <ele>33.8</ele>
        <time>2014-12-07T07:39:25Z</time>
      </trkpt>
      <trkpt lat="41.190788" lon="1.499909">
        <ele>33.8</ele>
        <time>2014-12-07T07:39:26Z</time>
      </trkpt>
      <trkpt lat="41.190945" lon="1.499999">
        <ele>33.8</ele>
        <time>2014-12-07T07:39:29Z</time>
      </trkpt>
      <trkpt lat="41.191002" lon="1.499987">
        <ele>33.2</ele>
        <time>2014-12-07T07:39:30Z</time>
      </trkpt>
      <trkpt lat="41.191063" lon="1.499972">
        <ele>32.8</ele>
        <time>2014-12-07T07:39:31Z</time>
      </trkpt>
      <trkpt lat="41.191128" lon="1.499965">
        <ele>32.4</ele>
        <time>2014-12-07T07:39:32Z</time>
      </trkpt>
      <trkpt lat="41.191193" lon="1.499956">
        <ele>31.8</ele>
        <time>2014-12-07T07:39:33Z</time>
      </trkpt>
      <trkpt lat="41.191257" lon="1.499941">
        <ele>31.2</ele>
        <time>2014-12-07T07:39:34Z</time>
      </trkpt>
      <trkpt lat="41.191319" lon="1.499915">
        <ele>30.0</ele>
        <time>2014-12-07T07:39:35Z</time>
      </trkpt>
      <trkpt lat="41.191391" lon="1.499887">
        <ele>29.4</ele>
        <time>2014-12-07T07:39:36Z</time>
      </trkpt>
      <trkpt lat="41.191452" lon="1.499853">
        <ele>29.4</ele>
        <time>2014-12-07T07:39:37Z</time>
      </trkpt>
      <trkpt lat="41.191563" lon="1.499751">
        <ele>29.4</ele>
        <time>2014-12-07T07:39:39Z</time>
      </trkpt>
      <trkpt lat="41.191696" lon="1.499573">
        <ele>29.4</ele>
        <time>2014-12-07T07:39:42Z</time>
      </trkpt>
      <trkpt lat="41.191727" lon="1.499520">
        <ele>29.4</ele>
        <time>2014-12-07T07:39:43Z</time>
      </trkpt>
      <trkpt lat="41.191742" lon="1.499441">
        <ele>29.4</ele>
        <time>2014-12-07T07:39:46Z</time>
      </trkpt>
      <trkpt lat="41.191734" lon="1.499404">
        <ele>29.4</ele>
        <time>2014-12-07T07:39:55Z</time>
      </trkpt>
      <trkpt lat="41.191708" lon="1.499310">
        <ele>29.0</ele>
        <time>2014-12-07T07:39:58Z</time>
      </trkpt>
      <trkpt lat="41.191704" lon="1.499261">
        <ele>28.6</ele>
        <time>2014-12-07T07:39:59Z</time>
      </trkpt>
      <trkpt lat="41.191692" lon="1.499172">
        <ele>27.8</ele>
        <time>2014-12-07T07:40:00Z</time>
      </trkpt>
      <trkpt lat="41.191689" lon="1.499083">
        <ele>27.4</ele>
        <time>2014-12-07T07:40:01Z</time>
      </trkpt>
      <trkpt lat="41.191689" lon="1.498995">
        <ele>26.8</ele>
        <time>2014-12-07T07:40:02Z</time>
      </trkpt>
      <trkpt lat="41.191685" lon="1.498900">
        <ele>26.2</ele>
        <time>2014-12-07T07:40:03Z</time>
      </trkpt>
      <trkpt lat="41.191681" lon="1.498811">
        <ele>25.6</ele>
        <time>2014-12-07T07:40:04Z</time>
      </trkpt>
      <trkpt lat="41.191677" lon="1.498734">
        <ele>25.0</ele>
        <time>2014-12-07T07:40:05Z</time>
      </trkpt>
      <trkpt lat="41.191669" lon="1.498665">
        <ele>24.2</ele>
        <time>2014-12-07T07:40:06Z</time>
      </trkpt>
      <trkpt lat="41.191669" lon="1.498621">
        <ele>23.6</ele>
        <time>2014-12-07T07:40:07Z</time>
      </trkpt>
      <trkpt lat="41.191654" lon="1.498584">
        <ele>23.0</ele>
        <time>2014-12-07T07:40:08Z</time>
      </trkpt>
      <trkpt lat="41.191628" lon="1.498582">
        <ele>22.2</ele>
        <time>2014-12-07T07:40:09Z</time>
      </trkpt>
      <trkpt lat="41.191601" lon="1.498592">
        <ele>21.6</ele>
        <time>2014-12-07T07:40:10Z</time>
      </trkpt>
      <trkpt lat="41.191574" lon="1.498616">
        <ele>21.0</ele>
        <time>2014-12-07T07:40:11Z</time>
      </trkpt>
      <trkpt lat="41.191544" lon="1.498643">
        <ele>20.2</ele>
        <time>2014-12-07T07:40:12Z</time>
      </trkpt>
      <trkpt lat="41.191517" lon="1.498682">
        <ele>19.6</ele>
        <time>2014-12-07T07:40:13Z</time>
      </trkpt>
      <trkpt lat="41.191479" lon="1.498729">
        <ele>18.8</ele>
        <time>2014-12-07T07:40:14Z</time>
      </trkpt>
      <trkpt lat="41.191437" lon="1.498775">
        <ele>18.2</ele>
        <time>2014-12-07T07:40:15Z</time>
      </trkpt>
      <trkpt lat="41.191391" lon="1.498810">
        <ele>17.4</ele>
        <time>2014-12-07T07:40:16Z</time>
      </trkpt>
      <trkpt lat="41.191319" lon="1.498854">
        <ele>16.6</ele>
        <time>2014-12-07T07:40:17Z</time>
      </trkpt>
      <trkpt lat="41.191242" lon="1.498876">
        <ele>15.8</ele>
        <time>2014-12-07T07:40:18Z</time>
      </trkpt>
      <trkpt lat="41.191162" lon="1.498879">
        <ele>14.8</ele>
        <time>2014-12-07T07:40:19Z</time>
      </trkpt>
      <trkpt lat="41.191090" lon="1.498851">
        <ele>13.8</ele>
        <time>2014-12-07T07:40:20Z</time>
      </trkpt>
      <trkpt lat="41.191021" lon="1.498806">
        <ele>12.8</ele>
        <time>2014-12-07T07:40:21Z</time>
      </trkpt>
      <trkpt lat="41.190952" lon="1.498769">
        <ele>11.8</ele>
        <time>2014-12-07T07:40:22Z</time>
      </trkpt>
      <trkpt lat="41.190891" lon="1.498748">
        <ele>10.8</ele>
        <time>2014-12-07T07:40:23Z</time>
      </trkpt>
      <trkpt lat="41.190830" lon="1.498731">
        <ele>10.4</ele>
        <time>2014-12-07T07:40:24Z</time>
      </trkpt>
      <trkpt lat="41.190773" lon="1.498733">
        <ele>9.6</ele>
        <time>2014-12-07T07:40:25Z</time>
      </trkpt>
      <trkpt lat="41.190712" lon="1.498742">
        <ele>9.2</ele>
        <time>2014-12-07T07:40:26Z</time>
      </trkpt>
      <trkpt lat="41.190651" lon="1.498764">
        <ele>8.8</ele>
        <time>2014-12-07T07:40:27Z</time>
      </trkpt>
      <trkpt lat="41.190594" lon="1.498787">
        <ele>8.8</ele>
        <time>2014-12-07T07:40:28Z</time>
      </trkpt>
      <trkpt lat="41.190536" lon="1.498818">
        <ele>8.8</ele>
        <time>2014-12-07T07:40:29Z</time>
      </trkpt>
      <trkpt lat="41.190483" lon="1.498848">
        <ele>8.8</ele>
        <time>2014-12-07T07:40:30Z</time>
      </trkpt>
      <trkpt lat="41.190372" lon="1.498895">
        <ele>8.8</ele>
        <time>2014-12-07T07:40:32Z</time>
      </trkpt>
      <trkpt lat="41.190216" lon="1.498927">
        <ele>8.8</ele>
        <time>2014-12-07T07:40:35Z</time>
      </trkpt>
      <trkpt lat="41.190052" lon="1.498863">
        <ele>8.8</ele>
        <time>2014-12-07T07:40:38Z</time>
      </trkpt>
      <trkpt lat="41.189945" lon="1.498896">
        <ele>8.2</ele>
        <time>2014-12-07T07:40:40Z</time>
      </trkpt>
      <trkpt lat="41.189899" lon="1.498920">
        <ele>7.6</ele>
        <time>2014-12-07T07:40:41Z</time>
      </trkpt>
      <trkpt lat="41.189865" lon="1.498940">
        <ele>7.2</ele>
        <time>2014-12-07T07:40:42Z</time>
      </trkpt>
      <trkpt lat="41.189842" lon="1.498948">
        <ele>6.6</ele>
        <time>2014-12-07T07:40:43Z</time>
      </trkpt>
      <trkpt lat="41.189835" lon="1.498954">
        <ele>6.0</ele>
        <time>2014-12-07T07:40:44Z</time>
      </trkpt>
      <trkpt lat="41.189835" lon="1.498952">
        <ele>6.0</ele>
        <time>2014-12-07T07:40:45Z</time>
      </trkpt>
      <trkpt lat="41.189800" lon="1.498910">
        <ele>6.0</ele>
        <time>2014-12-07T07:40:49Z</time>
      </trkpt>
      <trkpt lat="41.189774" lon="1.498870">
        <ele>5.6</ele>
        <time>2014-12-07T07:40:50Z</time>
      </trkpt>
      <trkpt lat="41.189728" lon="1.498837">
        <ele>5.2</ele>
        <time>2014-12-07T07:40:51Z</time>
      </trkpt>
      <trkpt lat="41.189690" lon="1.498815">
        <ele>4.8</ele>
        <time>2014-12-07T07:40:52Z</time>
      </trkpt>
      <trkpt lat="41.189644" lon="1.498804">
        <ele>4.2</ele>
        <time>2014-12-07T07:40:53Z</time>
      </trkpt>
      <trkpt lat="41.189602" lon="1.498803">
        <ele>3.8</ele>
        <time>2014-12-07T07:40:54Z</time>
      </trkpt>
      <trkpt lat="41.189564" lon="1.498812">
        <ele>3.4</ele>
        <time>2014-12-07T07:40:55Z</time>
      </trkpt>
      <trkpt lat="41.189518" lon="1.498822">
        <ele>2.8</ele>
        <time>2014-12-07T07:40:56Z</time>
      </trkpt>
      <trkpt lat="41.189484" lon="1.498824">
        <ele>2.4</ele>
        <time>2014-12-07T07:40:57Z</time>
      </trkpt>
      <trkpt lat="41.189438" lon="1.498830">
        <ele>1.8</ele>
        <time>2014-12-07T07:40:58Z</time>
      </trkpt>
      <trkpt lat="41.189396" lon="1.498825">
        <ele>1.4</ele>
        <time>2014-12-07T07:40:59Z</time>
      </trkpt>
      <trkpt lat="41.189251" lon="1.498792">
        <ele>0.8</ele>
        <time>2014-12-07T07:41:02Z</time>
      </trkpt>
      <trkpt lat="41.189201" lon="1.498784">
        <ele>0.4</ele>
        <time>2014-12-07T07:41:03Z</time>
      </trkpt>
      <trkpt lat="41.189159" lon="1.498770">
        <ele>-0.2</ele>
        <time>2014-12-07T07:41:04Z</time>
      </trkpt>
      <trkpt lat="41.189114" lon="1.498754">
        <ele>-0.6</ele>
        <time>2014-12-07T07:41:05Z</time>
      </trkpt>
      <trkpt lat="41.189068" lon="1.498754">
        <ele>-1.2</ele>
        <time>2014-12-07T07:41:06Z</time>
      </trkpt>
      <trkpt lat="41.189022" lon="1.498765">
        <ele>-1.8</ele>
        <time>2014-12-07T07:41:07Z</time>
      </trkpt>
      <trkpt lat="41.188976" lon="1.498782">
        <ele>-2.2</ele>
        <time>2014-12-07T07:41:08Z</time>
      </trkpt>
      <trkpt lat="41.188931" lon="1.498813">
        <ele>-2.8</ele>
        <time>2014-12-07T07:41:09Z</time>
      </trkpt>
      <trkpt lat="41.188885" lon="1.498842">
        <ele>-3.4</ele>
        <time>2014-12-07T07:41:10Z</time>
      </trkpt>
      <trkpt lat="41.188831" lon="1.498875">
        <ele>-3.4</ele>
        <time>2014-12-07T07:41:11Z</time>
      </trkpt>
      <trkpt lat="41.188786" lon="1.498904">
        <ele>-3.8</ele>
        <time>2014-12-07T07:41:12Z</time>
      </trkpt>
      <trkpt lat="41.188728" lon="1.498929">
        <ele>-4.2</ele>
        <time>2014-12-07T07:41:13Z</time>
      </trkpt>
      <trkpt lat="41.188671" lon="1.498932">
        <ele>-5.0</ele>
        <time>2014-12-07T07:41:14Z</time>
      </trkpt>
      <trkpt lat="41.188610" lon="1.498928">
        <ele>-5.6</ele>
        <time>2014-12-07T07:41:15Z</time>
      </trkpt>
      <trkpt lat="41.188492" lon="1.498940">
        <ele>-6.0</ele>
        <time>2014-12-07T07:41:17Z</time>
      </trkpt>
      <trkpt lat="41.188435" lon="1.498957">
        <ele>-6.4</ele>
        <time>2014-12-07T07:41:18Z</time>
      </trkpt>
      <trkpt lat="41.188385" lon="1.498984">
        <ele>-6.8</ele>
        <time>2014-12-07T07:41:19Z</time>
      </trkpt>
      <trkpt lat="41.188347" lon="1.499016">
        <ele>-7.2</ele>
        <time>2014-12-07T07:41:20Z</time>
      </trkpt>
      <trkpt lat="41.188309" lon="1.499046">
        <ele>-7.8</ele>
        <time>2014-12-07T07:41:21Z</time>
      </trkpt>
      <trkpt lat="41.188236" lon="1.499099">
        <ele>-7.8</ele>
        <time>2014-12-07T07:41:23Z</time>
      </trkpt>
      <trkpt lat="41.188194" lon="1.499129">
        <ele>-7.8</ele>
        <time>2014-12-07T07:41:24Z</time>
      </trkpt>
      <trkpt lat="41.188072" lon="1.499238">
        <ele>-8.2</ele>
        <time>2014-12-07T07:41:27Z</time>
      </trkpt>
      <trkpt lat="41.188023" lon="1.499275">
        <ele>-8.6</ele>
        <time>2014-12-07T07:41:28Z</time>
      </trkpt>
      <trkpt lat="41.187969" lon="1.499311">
        <ele>-9.2</ele>
        <time>2014-12-07T07:41:29Z</time>
      </trkpt>
      <trkpt lat="41.187912" lon="1.499334">
        <ele>-9.6</ele>
        <time>2014-12-07T07:41:30Z</time>
      </trkpt>
      <trkpt lat="41.187847" lon="1.499351">
        <ele>-10.0</ele>
        <time>2014-12-07T07:41:31Z</time>
      </trkpt>
      <trkpt lat="41.187786" lon="1.499376">
        <ele>-10.0</ele>
        <time>2014-12-07T07:41:32Z</time>
      </trkpt>
      <trkpt lat="41.187729" lon="1.499409">
        <ele>-10.4</ele>
        <time>2014-12-07T07:41:33Z</time>
      </trkpt>
      <trkpt lat="41.187675" lon="1.499450">
        <ele>-10.8</ele>
        <time>2014-12-07T07:41:34Z</time>
      </trkpt>
      <trkpt lat="41.187622" lon="1.499500">
        <ele>-11.2</ele>
        <time>2014-12-07T07:41:35Z</time>
      </trkpt>
      <trkpt lat="41.187572" lon="1.499545">
        <ele>-11.6</ele>
        <time>2014-12-07T07:41:36Z</time>
      </trkpt>
      <trkpt lat="41.187519" lon="1.499593">
        <ele>-12.0</ele>
        <time>2014-12-07T07:41:37Z</time>
      </trkpt>
      <trkpt lat="41.187252" lon="1.499850">
        <ele>-12.6</ele>
        <time>2014-12-07T07:41:42Z</time>
      </trkpt>
      <trkpt lat="41.187187" lon="1.499911">
        <ele>-13.0</ele>
        <time>2014-12-07T07:41:43Z</time>
      </trkpt>
      <trkpt lat="41.187130" lon="1.499972">
        <ele>-13.4</ele>
        <time>2014-12-07T07:41:44Z</time>
      </trkpt>
      <trkpt lat="41.187073" lon="1.500027">
        <ele>-13.8</ele>
        <time>2014-12-07T07:41:45Z</time>
      </trkpt>
      <trkpt lat="41.187012" lon="1.500080">
        <ele>-14.2</ele>
        <time>2014-12-07T07:41:46Z</time>
      </trkpt>
      <trkpt lat="41.186954" lon="1.500133">
        <ele>-14.8</ele>
        <time>2014-12-07T07:41:47Z</time>
      </trkpt>
      <trkpt lat="41.186901" lon="1.500176">
        <ele>-15.2</ele>
        <time>2014-12-07T07:41:48Z</time>
      </trkpt>
      <trkpt lat="41.186844" lon="1.500216">
        <ele>-15.8</ele>
        <time>2014-12-07T07:41:49Z</time>
      </trkpt>
      <trkpt lat="41.186798" lon="1.500241">
        <ele>-16.2</ele>
        <time>2014-12-07T07:41:50Z</time>
      </trkpt>
      <trkpt lat="41.186718" lon="1.500249">
        <ele>-16.2</ele>
        <time>2014-12-07T07:41:52Z</time>
      </trkpt>
      <trkpt lat="41.186665" lon="1.500103">
        <ele>-16.2</ele>
        <time>2014-12-07T07:41:55Z</time>
      </trkpt>
      <trkpt lat="41.186649" lon="1.500050">
        <ele>-16.8</ele>
        <time>2014-12-07T07:41:56Z</time>
      </trkpt>
      <trkpt lat="41.186642" lon="1.499993">
        <ele>-17.4</ele>
        <time>2014-12-07T07:41:57Z</time>
      </trkpt>
      <trkpt lat="41.186630" lon="1.499935">
        <ele>-17.8</ele>
        <time>2014-12-07T07:41:58Z</time>
      </trkpt>
      <trkpt lat="41.186619" lon="1.499881">
        <ele>-18.4</ele>
        <time>2014-12-07T07:41:59Z</time>
      </trkpt>
      <trkpt lat="41.186615" lon="1.499826">
        <ele>-18.8</ele>
        <time>2014-12-07T07:42:00Z</time>
      </trkpt>
      <trkpt lat="41.186607" lon="1.499771">
        <ele>-19.4</ele>
        <time>2014-12-07T07:42:01Z</time>
      </trkpt>
      <trkpt lat="41.186600" lon="1.499709">
        <ele>-19.8</ele>
        <time>2014-12-07T07:42:02Z</time>
      </trkpt>
      <trkpt lat="41.186584" lon="1.499643">
        <ele>-20.8</ele>
        <time>2014-12-07T07:42:03Z</time>
      </trkpt>
      <trkpt lat="41.186573" lon="1.499567">
        <ele>-21.2</ele>
        <time>2014-12-07T07:42:04Z</time>
      </trkpt>
      <trkpt lat="41.186558" lon="1.499492">
        <ele>-21.6</ele>
        <time>2014-12-07T07:42:05Z</time>
      </trkpt>
      <trkpt lat="41.186543" lon="1.499415">
        <ele>-22.0</ele>
        <time>2014-12-07T07:42:06Z</time>
      </trkpt>
      <trkpt lat="41.186531" lon="1.499341">
        <ele>-22.6</ele>
        <time>2014-12-07T07:42:07Z</time>
      </trkpt>
      <trkpt lat="41.186523" lon="1.499263">
        <ele>-23.0</ele>
        <time>2014-12-07T07:42:08Z</time>
      </trkpt>
      <trkpt lat="41.186512" lon="1.499186">
        <ele>-23.4</ele>
        <time>2014-12-07T07:42:09Z</time>
      </trkpt>
      <trkpt lat="41.186504" lon="1.499112">
        <ele>-23.4</ele>
        <time>2014-12-07T07:42:10Z</time>
      </trkpt>
      <trkpt lat="41.186493" lon="1.499045">
        <ele>-23.4</ele>
        <time>2014-12-07T07:42:11Z</time>
      </trkpt>
      <trkpt lat="41.186462" lon="1.498880">
        <ele>-23.4</ele>
        <time>2014-12-07T07:42:14Z</time>
      </trkpt>
      <trkpt lat="41.186440" lon="1.498669">
        <ele>-23.4</ele>
        <time>2014-12-07T07:42:19Z</time>
      </trkpt>
      <trkpt lat="41.186428" lon="1.498510">
        <ele>-23.0</ele>
        <time>2014-12-07T07:42:23Z</time>
      </trkpt>
      <trkpt lat="41.186424" lon="1.498470">
        <ele>-22.6</ele>
        <time>2014-12-07T07:42:24Z</time>
      </trkpt>
      <trkpt lat="41.186420" lon="1.498434">
        <ele>-22.0</ele>
        <time>2014-12-07T07:42:25Z</time>
      </trkpt>
      <trkpt lat="41.186413" lon="1.498398">
        <ele>-21.6</ele>
        <time>2014-12-07T07:42:26Z</time>
      </trkpt>
      <trkpt lat="41.186409" lon="1.498365">
        <ele>-21.2</ele>
        <time>2014-12-07T07:42:27Z</time>
      </trkpt>
      <trkpt lat="41.186398" lon="1.498288">
        <ele>-21.2</ele>
        <time>2014-12-07T07:42:31Z</time>
      </trkpt>
      <trkpt lat="41.186375" lon="1.498232">
        <ele>-20.8</ele>
        <time>2014-12-07T07:42:34Z</time>
      </trkpt>
      <trkpt lat="41.186356" lon="1.498211">
        <ele>-20.4</ele>
        <time>2014-12-07T07:42:35Z</time>
      </trkpt>
      <trkpt lat="41.186340" lon="1.498185">
        <ele>-20.0</ele>
        <time>2014-12-07T07:42:36Z</time>
      </trkpt>
      <trkpt lat="41.186325" lon="1.498163">
        <ele>-19.6</ele>
        <time>2014-12-07T07:42:37Z</time>
      </trkpt>
      <trkpt lat="41.186314" lon="1.498147">
        <ele>-19.2</ele>
        <time>2014-12-07T07:42:38Z</time>
      </trkpt>
      <trkpt lat="41.186314" lon="1.498124">
        <ele>-19.2</ele>
        <time>2014-12-07T07:42:39Z</time>
      </trkpt>
      <trkpt lat="41.186317" lon="1.498093">
        <ele>-19.2</ele>
        <time>2014-12-07T07:42:40Z</time>
      </trkpt>
      <trkpt lat="41.186317" lon="1.497989">
        <ele>-19.2</ele>
        <time>2014-12-07T07:42:43Z</time>
      </trkpt>
      <trkpt lat="41.186314" lon="1.497913">
        <ele>-19.2</ele>
        <time>2014-12-07T07:42:45Z</time>
      </trkpt>
      <trkpt lat="41.186291" lon="1.497684">
        <ele>-18.8</ele>
        <time>2014-12-07T07:42:51Z</time>
      </trkpt>
      <trkpt lat="41.186295" lon="1.497649">
        <ele>-18.4</ele>
        <time>2014-12-07T07:42:52Z</time>
      </trkpt>
      <trkpt lat="41.186291" lon="1.497612">
        <ele>-17.4</ele>
        <time>2014-12-07T07:42:53Z</time>
      </trkpt>
      <trkpt lat="41.186287" lon="1.497575">
        <ele>-17.0</ele>
        <time>2014-12-07T07:42:54Z</time>
      </trkpt>
      <trkpt lat="41.186241" lon="1.497424">
        <ele>-17.0</ele>
        <time>2014-12-07T07:42:59Z</time>
      </trkpt>
      <trkpt lat="41.186203" lon="1.497384">
        <ele>-16.6</ele>
        <time>2014-12-07T07:43:02Z</time>
      </trkpt>
      <trkpt lat="41.186188" lon="1.497377">
        <ele>-16.2</ele>
        <time>2014-12-07T07:43:03Z</time>
      </trkpt>
      <trkpt lat="41.186176" lon="1.497372">
        <ele>-15.8</ele>
        <time>2014-12-07T07:43:04Z</time>
      </trkpt>
      <trkpt lat="41.186157" lon="1.497367">
        <ele>-15.4</ele>
        <time>2014-12-07T07:43:05Z</time>
      </trkpt>
      <trkpt lat="41.186131" lon="1.497357">
        <ele>-15.0</ele>
        <time>2014-12-07T07:43:06Z</time>
      </trkpt>
      <trkpt lat="41.186069" lon="1.497350">
        <ele>-15.0</ele>
        <time>2014-12-07T07:43:08Z</time>
      </trkpt>
      <trkpt lat="41.185894" lon="1.497319">
        <ele>-15.0</ele>
        <time>2014-12-07T07:43:13Z</time>
      </trkpt>
      <trkpt lat="41.185612" lon="1.497262">
        <ele>-15.0</ele>
        <time>2014-12-07T07:43:20Z</time>
      </trkpt>
      <trkpt lat="41.185474" lon="1.497251">
        <ele>-15.0</ele>
        <time>2014-12-07T07:43:23Z</time>
      </trkpt>
      <trkpt lat="41.185390" lon="1.497221">
        <ele>-15.0</ele>
        <time>2014-12-07T07:43:25Z</time>
      </trkpt>
      <trkpt lat="41.185360" lon="1.497190">
        <ele>-15.0</ele>
        <time>2014-12-07T07:43:26Z</time>
      </trkpt>
      <trkpt lat="41.185268" lon="1.497080">
        <ele>-15.0</ele>
        <time>2014-12-07T07:43:29Z</time>
      </trkpt>
      <trkpt lat="41.185181" lon="1.496985">
        <ele>-15.0</ele>
        <time>2014-12-07T07:43:32Z</time>
      </trkpt>
      <trkpt lat="41.185108" lon="1.496962">
        <ele>-15.0</ele>
        <time>2014-12-07T07:43:34Z</time>
      </trkpt>
      <trkpt lat="41.185013" lon="1.496979">
        <ele>-15.0</ele>
        <time>2014-12-07T07:43:37Z</time>
      </trkpt>
      <trkpt lat="41.184982" lon="1.497032">
        <ele>-15.0</ele>
        <time>2014-12-07T07:43:39Z</time>
      </trkpt>
      <trkpt lat="41.184883" lon="1.497183">
        <ele>-15.0</ele>
        <time>2014-12-07T07:43:44Z</time>
      </trkpt>
      <trkpt lat="41.184757" lon="1.497325">
        <ele>-15.0</ele>
        <time>2014-12-07T07:43:50Z</time>
      </trkpt>
      <trkpt lat="41.184658" lon="1.497328">
        <ele>-15.0</ele>
        <time>2014-12-07T07:43:54Z</time>
      </trkpt>
      <trkpt lat="41.184582" lon="1.497275">
        <ele>-14.6</ele>
        <time>2014-12-07T07:43:58Z</time>
      </trkpt>
      <trkpt lat="41.184563" lon="1.497259">
        <ele>-14.2</ele>
        <time>2014-12-07T07:43:59Z</time>
      </trkpt>
      <trkpt lat="41.184544" lon="1.497245">
        <ele>-13.8</ele>
        <time>2014-12-07T07:44:00Z</time>
      </trkpt>
      <trkpt lat="41.184525" lon="1.497230">
        <ele>-13.4</ele>
        <time>2014-12-07T07:44:01Z</time>
      </trkpt>
      <trkpt lat="41.184505" lon="1.497215">
        <ele>-12.8</ele>
        <time>2014-12-07T07:44:02Z</time>
      </trkpt>
      <trkpt lat="41.184475" lon="1.497182">
        <ele>-12.4</ele>
        <time>2014-12-07T07:44:04Z</time>
      </trkpt>
      <trkpt lat="41.184464" lon="1.497164">
        <ele>-12.0</ele>
        <time>2014-12-07T07:44:05Z</time>
      </trkpt>
      <trkpt lat="41.184444" lon="1.497148">
        <ele>-11.6</ele>
        <time>2014-12-07T07:44:06Z</time>
      </trkpt>
      <trkpt lat="41.184429" lon="1.497135">
        <ele>-10.6</ele>
        <time>2014-12-07T07:44:07Z</time>
      </trkpt>
      <trkpt lat="41.184372" lon="1.497076">
        <ele>-9.8</ele>
        <time>2014-12-07T07:44:10Z</time>
      </trkpt>
      <trkpt lat="41.184361" lon="1.497063">
        <ele>-9.4</ele>
        <time>2014-12-07T07:44:12Z</time>
      </trkpt>
      <trkpt lat="41.184341" lon="1.497048">
        <ele>-9.0</ele>
        <time>2014-12-07T07:44:13Z</time>
      </trkpt>
      <trkpt lat="41.184322" lon="1.497041">
        <ele>-8.6</ele>
        <time>2014-12-07T07:44:14Z</time>
      </trkpt>
      <trkpt lat="41.184280" lon="1.497013">
        <ele>-8.2</ele>
        <time>2014-12-07T07:44:16Z</time>
      </trkpt>
      <trkpt lat="41.184269" lon="1.496988">
        <ele>-7.6</ele>
        <time>2014-12-07T07:44:17Z</time>
      </trkpt>
      <trkpt lat="41.184254" lon="1.496964">
        <ele>-7.2</ele>
        <time>2014-12-07T07:44:18Z</time>
      </trkpt>
      <trkpt lat="41.184235" lon="1.496943">
        <ele>-6.8</ele>
        <time>2014-12-07T07:44:19Z</time>
      </trkpt>
      <trkpt lat="41.184216" lon="1.496918">
        <ele>-6.4</ele>
        <time>2014-12-07T07:44:20Z</time>
      </trkpt>
      <trkpt lat="41.184185" lon="1.496871">
        <ele>-6.0</ele>
        <time>2014-12-07T07:44:22Z</time>
      </trkpt>
      <trkpt lat="41.184170" lon="1.496849">
        <ele>-5.4</ele>
        <time>2014-12-07T07:44:23Z</time>
      </trkpt>
      <trkpt lat="41.184162" lon="1.496825">
        <ele>-5.0</ele>
        <time>2014-12-07T07:44:24Z</time>
      </trkpt>
      <trkpt lat="41.184147" lon="1.496803">
        <ele>-4.6</ele>
        <time>2014-12-07T07:44:25Z</time>
      </trkpt>
      <trkpt lat="41.184135" lon="1.496780">
        <ele>-4.2</ele>
        <time>2014-12-07T07:44:26Z</time>
      </trkpt>
      <trkpt lat="41.184116" lon="1.496762">
        <ele>-4.2</ele>
        <time>2014-12-07T07:44:27Z</time>
      </trkpt>
      <trkpt lat="41.184097" lon="1.496720">
        <ele>-3.8</ele>
        <time>2014-12-07T07:44:29Z</time>
      </trkpt>
      <trkpt lat="41.184097" lon="1.496699">
        <ele>-3.4</ele>
        <time>2014-12-07T07:44:30Z</time>
      </trkpt>
      <trkpt lat="41.184090" lon="1.496676">
        <ele>-3.0</ele>
        <time>2014-12-07T07:44:31Z</time>
      </trkpt>
      <trkpt lat="41.184086" lon="1.496653">
        <ele>-2.6</ele>
        <time>2014-12-07T07:44:32Z</time>
      </trkpt>
      <trkpt lat="41.184071" lon="1.496628">
        <ele>-2.2</ele>
        <time>2014-12-07T07:44:33Z</time>
      </trkpt>
      <trkpt lat="41.183987" lon="1.496507">
        <ele>-1.8</ele>
        <time>2014-12-07T07:44:38Z</time>
      </trkpt>
      <trkpt lat="41.183971" lon="1.496479">
        <ele>-1.4</ele>
        <time>2014-12-07T07:44:39Z</time>
      </trkpt>
      <trkpt lat="41.183956" lon="1.496455">
        <ele>-1.0</ele>
        <time>2014-12-07T07:44:40Z</time>
      </trkpt>
      <trkpt lat="41.183945" lon="1.496429">
        <ele>-0.6</ele>
        <time>2014-12-07T07:44:41Z</time>
      </trkpt>
      <trkpt lat="41.183937" lon="1.496398">
        <ele>-0.2</ele>
        <time>2014-12-07T07:44:42Z</time>
      </trkpt>
      <trkpt lat="41.183929" lon="1.496366">
        <ele>-0.2</ele>
        <time>2014-12-07T07:44:43Z</time>
      </trkpt>
      <trkpt lat="41.183853" lon="1.496176">
        <ele>-0.2</ele>
        <time>2014-12-07T07:44:49Z</time>
      </trkpt>
      <trkpt lat="41.183746" lon="1.495908">
        <ele>-0.2</ele>
        <time>2014-12-07T07:44:56Z</time>
      </trkpt>
      <trkpt lat="41.183701" lon="1.495748">
        <ele>-0.2</ele>
        <time>2014-12-07T07:44:59Z</time>
      </trkpt>
      <trkpt lat="41.183674" lon="1.495624">
        <ele>-0.2</ele>
        <time>2014-12-07T07:45:01Z</time>
      </trkpt>
      <trkpt lat="41.183598" lon="1.495210">
        <ele>-0.2</ele>
        <time>2014-12-07T07:45:08Z</time>
      </trkpt>
      <trkpt lat="41.183575" lon="1.495037">
        <ele>-0.2</ele>
        <time>2014-12-07T07:45:11Z</time>
      </trkpt>
      <trkpt lat="41.183567" lon="1.494936">
        <ele>-0.2</ele>
        <time>2014-12-07T07:45:13Z</time>
      </trkpt>
      <trkpt lat="41.183529" lon="1.494722">
        <ele>-0.6</ele>
        <time>2014-12-07T07:45:17Z</time>
      </trkpt>
      <trkpt lat="41.183517" lon="1.494656">
        <ele>-1.0</ele>
        <time>2014-12-07T07:45:18Z</time>
      </trkpt>
      <trkpt lat="41.183495" lon="1.494583">
        <ele>-1.4</ele>
        <time>2014-12-07T07:45:19Z</time>
      </trkpt>
      <trkpt lat="41.183475" lon="1.494495">
        <ele>-1.8</ele>
        <time>2014-12-07T07:45:20Z</time>
      </trkpt>
      <trkpt lat="41.183449" lon="1.494405">
        <ele>-2.2</ele>
        <time>2014-12-07T07:45:21Z</time>
      </trkpt>
      <trkpt lat="41.183426" lon="1.494302">
        <ele>-2.6</ele>
        <time>2014-12-07T07:45:22Z</time>
      </trkpt>
      <trkpt lat="41.183399" lon="1.494196">
        <ele>-3.2</ele>
        <time>2014-12-07T07:45:23Z</time>
      </trkpt>
      <trkpt lat="41.183369" lon="1.494092">
        <ele>-3.8</ele>
        <time>2014-12-07T07:45:24Z</time>
      </trkpt>
      <trkpt lat="41.183334" lon="1.493987">
        <ele>-4.4</ele>
        <time>2014-12-07T07:45:25Z</time>
      </trkpt>
      <trkpt lat="41.183300" lon="1.493886">
        <ele>-5.2</ele>
        <time>2014-12-07T07:45:26Z</time>
      </trkpt>
      <trkpt lat="41.183254" lon="1.493786">
        <ele>-5.8</ele>
        <time>2014-12-07T07:45:27Z</time>
      </trkpt>
      <trkpt lat="41.183205" lon="1.493681">
        <ele>-6.4</ele>
        <time>2014-12-07T07:45:28Z</time>
      </trkpt>
      <trkpt lat="41.183155" lon="1.493583">
        <ele>-7.2</ele>
        <time>2014-12-07T07:45:29Z</time>
      </trkpt>
      <trkpt lat="41.183094" lon="1.493482">
        <ele>-8.0</ele>
        <time>2014-12-07T07:45:30Z</time>
      </trkpt>
      <trkpt lat="41.183033" lon="1.493378">
        <ele>-8.6</ele>
        <time>2014-12-07T07:45:31Z</time>
      </trkpt>
      <trkpt lat="41.182976" lon="1.493269">
        <ele>-9.4</ele>
        <time>2014-12-07T07:45:32Z</time>
      </trkpt>
      <trkpt lat="41.182919" lon="1.493161">
        <ele>-10.2</ele>
        <time>2014-12-07T07:45:33Z</time>
      </trkpt>
      <trkpt lat="41.182865" lon="1.493057">
        <ele>-10.8</ele>
        <time>2014-12-07T07:45:34Z</time>
      </trkpt>
      <trkpt lat="41.182812" lon="1.492959">
        <ele>-11.6</ele>
        <time>2014-12-07T07:45:35Z</time>
      </trkpt>
      <trkpt lat="41.182762" lon="1.492868">
        <ele>-12.4</ele>
        <time>2014-12-07T07:45:36Z</time>
      </trkpt>
      <trkpt lat="41.182713" lon="1.492768">
        <ele>-13.0</ele>
        <time>2014-12-07T07:45:37Z</time>
      </trkpt>
      <trkpt lat="41.182518" lon="1.492228">
        <ele>-13.4</ele>
        <time>2014-12-07T07:45:42Z</time>
      </trkpt>
      <trkpt lat="41.182491" lon="1.492112">
        <ele>-14.0</ele>
        <time>2014-12-07T07:45:43Z</time>
      </trkpt>
      <trkpt lat="41.182468" lon="1.491998">
        <ele>-14.6</ele>
        <time>2014-12-07T07:45:44Z</time>
      </trkpt>
      <trkpt lat="41.182449" lon="1.491877">
        <ele>-15.2</ele>
        <time>2014-12-07T07:45:45Z</time>
      </trkpt>
      <trkpt lat="41.182446" lon="1.491784">
        <ele>-16.0</ele>
        <time>2014-12-07T07:45:46Z</time>
      </trkpt>
      <trkpt lat="41.182438" lon="1.491693">
        <ele>-17.2</ele>
        <time>2014-12-07T07:45:47Z</time>
      </trkpt>
      <trkpt lat="41.182426" lon="1.491301">
        <ele>-17.2</ele>
        <time>2014-12-07T07:45:52Z</time>
      </trkpt>
      <trkpt lat="41.182426" lon="1.491070">
        <ele>-16.8</ele>
        <time>2014-12-07T07:45:56Z</time>
      </trkpt>
      <trkpt lat="41.182423" lon="1.491010">
        <ele>-16.2</ele>
        <time>2014-12-07T07:45:57Z</time>
      </trkpt>
      <trkpt lat="41.182419" lon="1.490950">
        <ele>-15.8</ele>
        <time>2014-12-07T07:45:58Z</time>
      </trkpt>
      <trkpt lat="41.182419" lon="1.490888">
        <ele>-15.4</ele>
        <time>2014-12-07T07:45:59Z</time>
      </trkpt>
      <trkpt lat="41.182415" lon="1.490826">
        <ele>-14.8</ele>
        <time>2014-12-07T07:46:00Z</time>
      </trkpt>
      <trkpt lat="41.182400" lon="1.490555">
        <ele>-14.8</ele>
        <time>2014-12-07T07:46:04Z</time>
      </trkpt>
      <trkpt lat="41.182377" lon="1.490376">
        <ele>-15.4</ele>
        <time>2014-12-07T07:46:06Z</time>
      </trkpt>
      <trkpt lat="41.182362" lon="1.490266">
        <ele>-15.8</ele>
        <time>2014-12-07T07:46:07Z</time>
      </trkpt>
      <trkpt lat="41.182362" lon="1.490157">
        <ele>-16.4</ele>
        <time>2014-12-07T07:46:08Z</time>
      </trkpt>
      <trkpt lat="41.182362" lon="1.490047">
        <ele>-17.0</ele>
        <time>2014-12-07T07:46:09Z</time>
      </trkpt>
      <trkpt lat="41.182362" lon="1.489936">
        <ele>-17.6</ele>
        <time>2014-12-07T07:46:10Z</time>
      </trkpt>
      <trkpt lat="41.182365" lon="1.489828">
        <ele>-19.0</ele>
        <time>2014-12-07T07:46:11Z</time>
      </trkpt>
      <trkpt lat="41.182373" lon="1.489724">
        <ele>-19.6</ele>
        <time>2014-12-07T07:46:12Z</time>
      </trkpt>
      <trkpt lat="41.182381" lon="1.489517">
        <ele>-19.6</ele>
        <time>2014-12-07T07:46:14Z</time>
      </trkpt>
      <trkpt lat="41.182404" lon="1.489218">
        <ele>-19.6</ele>
        <time>2014-12-07T07:46:17Z</time>
      </trkpt>
      <trkpt lat="41.182426" lon="1.489025">
        <ele>-19.6</ele>
        <time>2014-12-07T07:46:19Z</time>
      </trkpt>
      <trkpt lat="41.182449" lon="1.488825">
        <ele>-20.0</ele>
        <time>2014-12-07T07:46:21Z</time>
      </trkpt>
      <trkpt lat="41.182453" lon="1.488726">
        <ele>-20.4</ele>
        <time>2014-12-07T07:46:22Z</time>
      </trkpt>
      <trkpt lat="41.182453" lon="1.488623">
        <ele>-20.8</ele>
        <time>2014-12-07T07:46:23Z</time>
      </trkpt>
      <trkpt lat="41.182457" lon="1.488523">
        <ele>-21.4</ele>
        <time>2014-12-07T07:46:24Z</time>
      </trkpt>
      <trkpt lat="41.182472" lon="1.488433">
        <ele>-22.0</ele>
        <time>2014-12-07T07:46:25Z</time>
      </trkpt>
      <trkpt lat="41.182480" lon="1.488341">
        <ele>-22.6</ele>
        <time>2014-12-07T07:46:26Z</time>
      </trkpt>
      <trkpt lat="41.182487" lon="1.488249">
        <ele>-23.2</ele>
        <time>2014-12-07T07:46:27Z</time>
      </trkpt>
      <trkpt lat="41.182491" lon="1.488154">
        <ele>-23.8</ele>
        <time>2014-12-07T07:46:28Z</time>
      </trkpt>
      <trkpt lat="41.182495" lon="1.488071">
        <ele>-24.4</ele>
        <time>2014-12-07T07:46:29Z</time>
      </trkpt>
      <trkpt lat="41.182491" lon="1.488004">
        <ele>-25.0</ele>
        <time>2014-12-07T07:46:30Z</time>
      </trkpt>
      <trkpt lat="41.182491" lon="1.487944">
        <ele>-25.6</ele>
        <time>2014-12-07T07:46:31Z</time>
      </trkpt>
      <trkpt lat="41.182510" lon="1.487895">
        <ele>-26.4</ele>
        <time>2014-12-07T07:46:32Z</time>
      </trkpt>
      <trkpt lat="41.182533" lon="1.487831">
        <ele>-27.0</ele>
        <time>2014-12-07T07:46:33Z</time>
      </trkpt>
      <trkpt lat="41.182529" lon="1.487787">
        <ele>-27.6</ele>
        <time>2014-12-07T07:46:34Z</time>
      </trkpt>
      <trkpt lat="41.182526" lon="1.487750">
        <ele>-28.2</ele>
        <time>2014-12-07T07:46:35Z</time>
      </trkpt>
      <trkpt lat="41.182510" lon="1.487741">
        <ele>-29.4</ele>
        <time>2014-12-07T07:46:36Z</time>
      </trkpt>
      <trkpt lat="41.182499" lon="1.487731">
        <ele>-29.8</ele>
        <time>2014-12-07T07:46:37Z</time>
      </trkpt>
      <trkpt lat="41.182484" lon="1.487732">
        <ele>-30.4</ele>
        <time>2014-12-07T07:46:38Z</time>
      </trkpt>
      <trkpt lat="41.182472" lon="1.487733">
        <ele>-30.4</ele>
        <time>2014-12-07T07:46:39Z</time>
      </trkpt>
      <trkpt lat="41.182453" lon="1.487733">
        <ele>-30.4</ele>
        <time>2014-12-07T07:46:42Z</time>
      </trkpt>
      <trkpt lat="41.182396" lon="1.487741">
        <ele>-30.4</ele>
        <time>2014-12-07T07:46:48Z</time>
      </trkpt>
      <trkpt lat="41.182365" lon="1.487751">
        <ele>-30.8</ele>
        <time>2014-12-07T07:46:50Z</time>
      </trkpt>
      <trkpt lat="41.182350" lon="1.487756">
        <ele>-31.2</ele>
        <time>2014-12-07T07:46:51Z</time>
      </trkpt>
      <trkpt lat="41.182152" lon="1.487657">
        <ele>-32.6</ele>
        <time>2014-12-07T07:47:04Z</time>
      </trkpt>
      <trkpt lat="41.182163" lon="1.487637">
        <ele>-32.6</ele>
        <time>2014-12-07T07:47:05Z</time>
      </trkpt>
      <trkpt lat="41.182182" lon="1.487566">
        <ele>-32.6</ele>
        <time>2014-12-07T07:47:08Z</time>
      </trkpt>
      <trkpt lat="41.182175" lon="1.487526">
        <ele>-32.0</ele>
        <time>2014-12-07T07:47:10Z</time>
      </trkpt>
      <trkpt lat="41.182175" lon="1.487497">
        <ele>-31.6</ele>
        <time>2014-12-07T07:47:11Z</time>
      </trkpt>
      <trkpt lat="41.182175" lon="1.487473">
        <ele>-31.2</ele>
        <time>2014-12-07T07:47:12Z</time>
      </trkpt>
      <trkpt lat="41.182167" lon="1.487445">
        <ele>-30.8</ele>
        <time>2014-12-07T07:47:13Z</time>
      </trkpt>
      <trkpt lat="41.182156" lon="1.487417">
        <ele>-30.4</ele>
        <time>2014-12-07T07:47:14Z</time>
      </trkpt>
      <trkpt lat="41.182133" lon="1.487325">
        <ele>-30.4</ele>
        <time>2014-12-07T07:47:17Z</time>
      </trkpt>
      <trkpt lat="41.182095" lon="1.487096">
        <ele>-30.4</ele>
        <time>2014-12-07T07:47:24Z</time>
      </trkpt>
      <trkpt lat="41.182095" lon="1.487004">
        <ele>-30.0</ele>
        <time>2014-12-07T07:47:27Z</time>
      </trkpt>
      <trkpt lat="41.182102" lon="1.486972">
        <ele>-29.6</ele>
        <time>2014-12-07T07:47:28Z</time>
      </trkpt>
      <trkpt lat="41.182110" lon="1.486943">
        <ele>-29.2</ele>
        <time>2014-12-07T07:47:29Z</time>
      </trkpt>
      <trkpt lat="41.182110" lon="1.486904">
        <ele>-28.8</ele>
        <time>2014-12-07T07:47:30Z</time>
      </trkpt>
      <trkpt lat="41.182110" lon="1.486869">
        <ele>-28.2</ele>
        <time>2014-12-07T07:47:31Z</time>
      </trkpt>
      <trkpt lat="41.182129" lon="1.486703">
        <ele>-27.8</ele>
        <time>2014-12-07T07:47:36Z</time>
      </trkpt>
      <trkpt lat="41.182129" lon="1.486675">
        <ele>-27.4</ele>
        <time>2014-12-07T07:47:37Z</time>
      </trkpt>
      <trkpt lat="41.182137" lon="1.486635">
        <ele>-27.0</ele>
        <time>2014-12-07T07:47:38Z</time>
      </trkpt>
      <trkpt lat="41.182140" lon="1.486596">
        <ele>-26.6</ele>
        <time>2014-12-07T07:47:39Z</time>
      </trkpt>
      <trkpt lat="41.182144" lon="1.486554">
        <ele>-26.2</ele>
        <time>2014-12-07T07:47:40Z</time>
      </trkpt>
      <trkpt lat="41.182152" lon="1.486479">
        <ele>-26.2</ele>
        <time>2014-12-07T07:47:42Z</time>
      </trkpt>
      <trkpt lat="41.182156" lon="1.486325">
        <ele>-26.2</ele>
        <time>2014-12-07T07:47:46Z</time>
      </trkpt>
      <trkpt lat="41.182186" lon="1.486063">
        <ele>-26.2</ele>
        <time>2014-12-07T07:47:52Z</time>
      </trkpt>
      <trkpt lat="41.182205" lon="1.485825">
        <ele>-26.2</ele>
        <time>2014-12-07T07:47:58Z</time>
      </trkpt>
      <trkpt lat="41.182209" lon="1.485528">
        <ele>-26.2</ele>
        <time>2014-12-07T07:48:05Z</time>
      </trkpt>
      <trkpt lat="41.182209" lon="1.485296">
        <ele>-25.8</ele>
        <time>2014-12-07T07:48:10Z</time>
      </trkpt>
      <trkpt lat="41.182209" lon="1.485249">
        <ele>-25.4</ele>
        <time>2014-12-07T07:48:11Z</time>
      </trkpt>
      <trkpt lat="41.182209" lon="1.485207">
        <ele>-25.0</ele>
        <time>2014-12-07T07:48:12Z</time>
      </trkpt>
      <trkpt lat="41.182209" lon="1.485166">
        <ele>-24.4</ele>
        <time>2014-12-07T07:48:13Z</time>
      </trkpt>
      <trkpt lat="41.182209" lon="1.485123">
        <ele>-24.0</ele>
        <time>2014-12-07T07:48:14Z</time>
      </trkpt>
      <trkpt lat="41.182201" lon="1.484990">
        <ele>-24.0</ele>
        <time>2014-12-07T07:48:17Z</time>
      </trkpt>
      <trkpt lat="41.182178" lon="1.484834">
        <ele>-24.0</ele>
        <time>2014-12-07T07:48:22Z</time>
      </trkpt>
      <trkpt lat="41.182152" lon="1.484581">
        <ele>-24.0</ele>
        <time>2014-12-07T07:48:28Z</time>
      </trkpt>
      <trkpt lat="41.182156" lon="1.484411">
        <ele>-24.0</ele>
        <time>2014-12-07T07:48:34Z</time>
      </trkpt>
      <trkpt lat="41.182167" lon="1.484233">
        <ele>-24.0</ele>
        <time>2014-12-07T07:48:39Z</time>
      </trkpt>
      <trkpt lat="41.182159" lon="1.484193">
        <ele>-23.6</ele>
        <time>2014-12-07T07:48:40Z</time>
      </trkpt>
      <trkpt lat="41.182163" lon="1.484143">
        <ele>-23.2</ele>
        <time>2014-12-07T07:48:41Z</time>
      </trkpt>
      <trkpt lat="41.182163" lon="1.484096">
        <ele>-22.8</ele>
        <time>2014-12-07T07:48:42Z</time>
      </trkpt>
      <trkpt lat="41.182167" lon="1.484051">
        <ele>-22.4</ele>
        <time>2014-12-07T07:48:43Z</time>
      </trkpt>
      <trkpt lat="41.182171" lon="1.484003">
        <ele>-22.0</ele>
        <time>2014-12-07T07:48:44Z</time>
      </trkpt>
      <trkpt lat="41.182175" lon="1.483956">
        <ele>-22.0</ele>
        <time>2014-12-07T07:48:45Z</time>
      </trkpt>
      <trkpt lat="41.182198" lon="1.483699">
        <ele>-21.6</ele>
        <time>2014-12-07T07:48:51Z</time>
      </trkpt>
      <trkpt lat="41.182194" lon="1.483652">
        <ele>-21.2</ele>
        <time>2014-12-07T07:48:52Z</time>
      </trkpt>
      <trkpt lat="41.182190" lon="1.483605">
        <ele>-20.8</ele>
        <time>2014-12-07T07:48:53Z</time>
      </trkpt>
      <trkpt lat="41.182182" lon="1.483563">
        <ele>-20.4</ele>
        <time>2014-12-07T07:48:54Z</time>
      </trkpt>
      <trkpt lat="41.182175" lon="1.483524">
        <ele>-19.8</ele>
        <time>2014-12-07T07:48:55Z</time>
      </trkpt>
      <trkpt lat="41.182175" lon="1.483403">
        <ele>-19.8</ele>
        <time>2014-12-07T07:48:58Z</time>
      </trkpt>
      <trkpt lat="41.182137" lon="1.483219">
        <ele>-19.8</ele>
        <time>2014-12-07T07:49:03Z</time>
      </trkpt>
      <trkpt lat="41.182121" lon="1.483126">
        <ele>-19.8</ele>
        <time>2014-12-07T07:49:06Z</time>
      </trkpt>
      <trkpt lat="41.182125" lon="1.483078">
        <ele>-19.8</ele>
        <time>2014-12-07T07:49:08Z</time>
      </trkpt>
      <trkpt lat="41.182129" lon="1.483019">
        <ele>-19.4</ele>
        <time>2014-12-07T07:49:10Z</time>
      </trkpt>
      <trkpt lat="41.182137" lon="1.482981">
        <ele>-19.0</ele>
        <time>2014-12-07T07:49:11Z</time>
      </trkpt>
      <trkpt lat="41.182137" lon="1.482944">
        <ele>-18.6</ele>
        <time>2014-12-07T07:49:12Z</time>
      </trkpt>
      <trkpt lat="41.182144" lon="1.482905">
        <ele>-18.2</ele>
        <time>2014-12-07T07:49:13Z</time>
      </trkpt>
      <trkpt lat="41.182148" lon="1.482872">
        <ele>-17.8</ele>
        <time>2014-12-07T07:49:14Z</time>
      </trkpt>
      <trkpt lat="41.182140" lon="1.482840">
        <ele>-17.8</ele>
        <time>2014-12-07T07:49:15Z</time>
      </trkpt>
      <trkpt lat="41.182156" lon="1.482665">
        <ele>-17.8</ele>
        <time>2014-12-07T07:49:20Z</time>
      </trkpt>
      <trkpt lat="41.182167" lon="1.482636">
        <ele>-17.4</ele>
        <time>2014-12-07T07:49:21Z</time>
      </trkpt>
      <trkpt lat="41.182167" lon="1.482600">
        <ele>-16.8</ele>
        <time>2014-12-07T07:49:22Z</time>
      </trkpt>
      <trkpt lat="41.182167" lon="1.482562">
        <ele>-16.4</ele>
        <time>2014-12-07T07:49:23Z</time>
      </trkpt>
      <trkpt lat="41.182171" lon="1.482527">
        <ele>-16.0</ele>
        <time>2014-12-07T07:49:24Z</time>
      </trkpt>
      <trkpt lat="41.182175" lon="1.482492">
        <ele>-15.4</ele>
        <time>2014-12-07T07:49:25Z</time>
      </trkpt>
      <trkpt lat="41.182182" lon="1.482457">
        <ele>-15.4</ele>
        <time>2014-12-07T07:49:26Z</time>
      </trkpt>
      <trkpt lat="41.182198" lon="1.482359">
        <ele>-15.0</ele>
        <time>2014-12-07T07:49:29Z</time>
      </trkpt>
      <trkpt lat="41.182194" lon="1.482319">
        <ele>-14.6</ele>
        <time>2014-12-07T07:49:30Z</time>
      </trkpt>
      <trkpt lat="41.182194" lon="1.482278">
        <ele>-14.2</ele>
        <time>2014-12-07T07:49:31Z</time>
      </trkpt>
      <trkpt lat="41.182198" lon="1.482236">
        <ele>-13.8</ele>
        <time>2014-12-07T07:49:32Z</time>
      </trkpt>
      <trkpt lat="41.182201" lon="1.482194">
        <ele>-13.2</ele>
        <time>2014-12-07T07:49:33Z</time>
      </trkpt>
      <trkpt lat="41.182198" lon="1.481939">
        <ele>-13.2</ele>
        <time>2014-12-07T07:49:39Z</time>
      </trkpt>
      <trkpt lat="41.182190" lon="1.481724">
        <ele>-13.2</ele>
        <time>2014-12-07T07:49:44Z</time>
      </trkpt>
      <trkpt lat="41.182194" lon="1.481401">
        <ele>-13.2</ele>
        <time>2014-12-07T07:49:51Z</time>
      </trkpt>
      <trkpt lat="41.182201" lon="1.481269">
        <ele>-12.4</ele>
        <time>2014-12-07T07:49:54Z</time>
      </trkpt>
      <trkpt lat="41.182209" lon="1.481225">
        <ele>-12.0</ele>
        <time>2014-12-07T07:49:55Z</time>
      </trkpt>
      <trkpt lat="41.182224" lon="1.481184">
        <ele>-11.6</ele>
        <time>2014-12-07T07:49:56Z</time>
      </trkpt>
      <trkpt lat="41.182228" lon="1.481140">
        <ele>-11.2</ele>
        <time>2014-12-07T07:49:57Z</time>
      </trkpt>
      <trkpt lat="41.182236" lon="1.481095">
        <ele>-11.2</ele>
        <time>2014-12-07T07:49:58Z</time>
      </trkpt>
      <trkpt lat="41.182247" lon="1.480824">
        <ele>-11.2</ele>
        <time>2014-12-07T07:50:04Z</time>
      </trkpt>
      <trkpt lat="41.182255" lon="1.480481">
        <ele>-11.2</ele>
        <time>2014-12-07T07:50:11Z</time>
      </trkpt>
      <trkpt lat="41.182270" lon="1.480092">
        <ele>-11.2</ele>
        <time>2014-12-07T07:50:19Z</time>
      </trkpt>
      <trkpt lat="41.182270" lon="1.479852">
        <ele>-11.2</ele>
        <time>2014-12-07T07:50:24Z</time>
      </trkpt>
      <trkpt lat="41.182278" lon="1.479514">
        <ele>-11.2</ele>
        <time>2014-12-07T07:50:31Z</time>
      </trkpt>
      <trkpt lat="41.182281" lon="1.479238">
        <ele>-11.2</ele>
        <time>2014-12-07T07:50:36Z</time>
      </trkpt>
      <trkpt lat="41.182293" lon="1.479125">
        <ele>-11.2</ele>
        <time>2014-12-07T07:50:38Z</time>
      </trkpt>
      <trkpt lat="41.182293" lon="1.479009">
        <ele>-11.2</ele>
        <time>2014-12-07T07:50:40Z</time>
      </trkpt>
      <trkpt lat="41.182297" lon="1.478848">
        <ele>-11.2</ele>
        <time>2014-12-07T07:50:43Z</time>
      </trkpt>
      <trkpt lat="41.182297" lon="1.478743">
        <ele>-11.2</ele>
        <time>2014-12-07T07:50:45Z</time>
      </trkpt>
      <trkpt lat="41.182293" lon="1.478593">
        <ele>-11.2</ele>
        <time>2014-12-07T07:50:48Z</time>
      </trkpt>
      <trkpt lat="41.182278" lon="1.478296">
        <ele>-11.2</ele>
        <time>2014-12-07T07:50:54Z</time>
      </trkpt>
      <trkpt lat="41.182301" lon="1.477925">
        <ele>-11.2</ele>
        <time>2014-12-07T07:51:00Z</time>
      </trkpt>
      <trkpt lat="41.182289" lon="1.477859">
        <ele>-11.6</ele>
        <time>2014-12-07T07:51:01Z</time>
      </trkpt>
      <trkpt lat="41.182281" lon="1.477808">
        <ele>-12.0</ele>
        <time>2014-12-07T07:51:02Z</time>
      </trkpt>
      <trkpt lat="41.182278" lon="1.477760">
        <ele>-12.4</ele>
        <time>2014-12-07T07:51:03Z</time>
      </trkpt>
      <trkpt lat="41.182274" lon="1.477712">
        <ele>-13.0</ele>
        <time>2014-12-07T07:51:04Z</time>
      </trkpt>
      <trkpt lat="41.182274" lon="1.477668">
        <ele>-13.4</ele>
        <time>2014-12-07T07:51:05Z</time>
      </trkpt>
      <trkpt lat="41.182255" lon="1.477530">
        <ele>-13.4</ele>
        <time>2014-12-07T07:51:08Z</time>
      </trkpt>
      <trkpt lat="41.182247" lon="1.477364">
        <ele>-12.8</ele>
        <time>2014-12-07T07:51:12Z</time>
      </trkpt>
      <trkpt lat="41.182247" lon="1.477324">
        <ele>-12.4</ele>
        <time>2014-12-07T07:51:13Z</time>
      </trkpt>
      <trkpt lat="41.182247" lon="1.477283">
        <ele>-11.8</ele>
        <time>2014-12-07T07:51:14Z</time>
      </trkpt>
      <trkpt lat="41.182247" lon="1.477241">
        <ele>-11.4</ele>
        <time>2014-12-07T07:51:15Z</time>
      </trkpt>
      <trkpt lat="41.182247" lon="1.477197">
        <ele>-10.8</ele>
        <time>2014-12-07T07:51:16Z</time>
      </trkpt>
      <trkpt lat="41.182259" lon="1.477064">
        <ele>-10.8</ele>
        <time>2014-12-07T07:51:19Z</time>
      </trkpt>
      <trkpt lat="41.182255" lon="1.476830">
        <ele>-10.4</ele>
        <time>2014-12-07T07:51:24Z</time>
      </trkpt>
      <trkpt lat="41.182251" lon="1.476787">
        <ele>-10.0</ele>
        <time>2014-12-07T07:51:25Z</time>
      </trkpt>
      <trkpt lat="41.182247" lon="1.476746">
        <ele>-9.6</ele>
        <time>2014-12-07T07:51:26Z</time>
      </trkpt>
      <trkpt lat="41.182243" lon="1.476703">
        <ele>-9.2</ele>
        <time>2014-12-07T07:51:27Z</time>
      </trkpt>
      <trkpt lat="41.182236" lon="1.476660">
        <ele>-8.8</ele>
        <time>2014-12-07T07:51:28Z</time>
      </trkpt>
      <trkpt lat="41.182224" lon="1.476581">
        <ele>-8.4</ele>
        <time>2014-12-07T07:51:30Z</time>
      </trkpt>
      <trkpt lat="41.182220" lon="1.476536">
        <ele>-7.8</ele>
        <time>2014-12-07T07:51:31Z</time>
      </trkpt>
      <trkpt lat="41.182209" lon="1.476489">
        <ele>-7.0</ele>
        <time>2014-12-07T07:51:32Z</time>
      </trkpt>
      <trkpt lat="41.182205" lon="1.476454">
        <ele>-6.6</ele>
        <time>2014-12-07T07:51:33Z</time>
      </trkpt>
      <trkpt lat="41.182167" lon="1.476282">
        <ele>-6.0</ele>
        <time>2014-12-07T07:51:38Z</time>
      </trkpt>
      <trkpt lat="41.182159" lon="1.476245">
        <ele>-5.6</ele>
        <time>2014-12-07T07:51:39Z</time>
      </trkpt>
      <trkpt lat="41.182152" lon="1.476210">
        <ele>-5.2</ele>
        <time>2014-12-07T07:51:40Z</time>
      </trkpt>
      <trkpt lat="41.182144" lon="1.476177">
        <ele>-4.8</ele>
        <time>2014-12-07T07:51:41Z</time>
      </trkpt>
      <trkpt lat="41.182129" lon="1.476146">
        <ele>-4.4</ele>
        <time>2014-12-07T07:51:42Z</time>
      </trkpt>
      <trkpt lat="41.182110" lon="1.476035">
        <ele>-4.4</ele>
        <time>2014-12-07T07:51:45Z</time>
      </trkpt>
      <trkpt lat="41.182117" lon="1.475997">
        <ele>-3.8</ele>
        <time>2014-12-07T07:51:46Z</time>
      </trkpt>
      <trkpt lat="41.182110" lon="1.475959">
        <ele>-3.4</ele>
        <time>2014-12-07T07:51:47Z</time>
      </trkpt>
      <trkpt lat="41.182110" lon="1.475921">
        <ele>-3.0</ele>
        <time>2014-12-07T07:51:48Z</time>
      </trkpt>
      <trkpt lat="41.182102" lon="1.475886">
        <ele>-2.6</ele>
        <time>2014-12-07T07:51:49Z</time>
      </trkpt>
      <trkpt lat="41.182102" lon="1.475845">
        <ele>-2.2</ele>
        <time>2014-12-07T07:51:50Z</time>
      </trkpt>
      <trkpt lat="41.182098" lon="1.475778">
        <ele>-1.8</ele>
        <time>2014-12-07T07:51:52Z</time>
      </trkpt>
      <trkpt lat="41.182095" lon="1.475748">
        <ele>-1.2</ele>
        <time>2014-12-07T07:51:53Z</time>
      </trkpt>
      <trkpt lat="41.182091" lon="1.475712">
        <ele>-0.8</ele>
        <time>2014-12-07T07:51:54Z</time>
      </trkpt>
      <trkpt lat="41.182083" lon="1.475677">
        <ele>-0.4</ele>
        <time>2014-12-07T07:51:55Z</time>
      </trkpt>
      <trkpt lat="41.182072" lon="1.475644">
        <ele>0.0</ele>
        <time>2014-12-07T07:51:56Z</time>
      </trkpt>
      <trkpt lat="41.181999" lon="1.475436">
        <ele>0.0</ele>
        <time>2014-12-07T07:52:02Z</time>
      </trkpt>
      <trkpt lat="41.181984" lon="1.475402">
        <ele>0.4</ele>
        <time>2014-12-07T07:52:03Z</time>
      </trkpt>
      <trkpt lat="41.181976" lon="1.475368">
        <ele>0.8</ele>
        <time>2014-12-07T07:52:04Z</time>
      </trkpt>
      <trkpt lat="41.181969" lon="1.475324">
        <ele>1.2</ele>
        <time>2014-12-07T07:52:05Z</time>
      </trkpt>
      <trkpt lat="41.181965" lon="1.475283">
        <ele>1.6</ele>
        <time>2014-12-07T07:52:06Z</time>
      </trkpt>
      <trkpt lat="41.181957" lon="1.475245">
        <ele>2.0</ele>
        <time>2014-12-07T07:52:07Z</time>
      </trkpt>
      <trkpt lat="41.181950" lon="1.475209">
        <ele>2.0</ele>
        <time>2014-12-07T07:52:08Z</time>
      </trkpt>
      <trkpt lat="41.181892" lon="1.475017">
        <ele>2.0</ele>
        <time>2014-12-07T07:52:14Z</time>
      </trkpt>
      <trkpt lat="41.181805" lon="1.474813">
        <ele>2.6</ele>
        <time>2014-12-07T07:52:20Z</time>
      </trkpt>
      <trkpt lat="41.181793" lon="1.474788">
        <ele>3.4</ele>
        <time>2014-12-07T07:52:21Z</time>
      </trkpt>
      <trkpt lat="41.181786" lon="1.474762">
        <ele>3.8</ele>
        <time>2014-12-07T07:52:22Z</time>
      </trkpt>
      <trkpt lat="41.181778" lon="1.474726">
        <ele>4.2</ele>
        <time>2014-12-07T07:52:23Z</time>
      </trkpt>
      <trkpt lat="41.181767" lon="1.474653">
        <ele>4.2</ele>
        <time>2014-12-07T07:52:25Z</time>
      </trkpt>
      <trkpt lat="41.181747" lon="1.474411">
        <ele>4.2</ele>
        <time>2014-12-07T07:52:30Z</time>
      </trkpt>
      <trkpt lat="41.181812" lon="1.474180">
        <ele>4.2</ele>
        <time>2014-12-07T07:52:35Z</time>
      </trkpt>
      <trkpt lat="41.181938" lon="1.474119">
        <ele>4.2</ele>
        <time>2014-12-07T07:52:39Z</time>
      </trkpt>
      <trkpt lat="41.181973" lon="1.474105">
        <ele>4.2</ele>
        <time>2014-12-07T07:52:40Z</time>
      </trkpt>
      <trkpt lat="41.182228" lon="1.473992">
        <ele>4.2</ele>
        <time>2014-12-07T07:52:47Z</time>
      </trkpt>
      <trkpt lat="41.182411" lon="1.473936">
        <ele>4.2</ele>
        <time>2014-12-07T07:52:53Z</time>
      </trkpt>
      <trkpt lat="41.182438" lon="1.473927">
        <ele>3.6</ele>
        <time>2014-12-07T07:52:54Z</time>
      </trkpt>
      <trkpt lat="41.182461" lon="1.473909">
        <ele>3.2</ele>
        <time>2014-12-07T07:52:55Z</time>
      </trkpt>
      <trkpt lat="41.182476" lon="1.473891">
        <ele>2.8</ele>
        <time>2014-12-07T07:52:56Z</time>
      </trkpt>
      <trkpt lat="41.182487" lon="1.473863">
        <ele>2.4</ele>
        <time>2014-12-07T07:52:57Z</time>
      </trkpt>
      <trkpt lat="41.182499" lon="1.473823">
        <ele>2.0</ele>
        <time>2014-12-07T07:52:58Z</time>
      </trkpt>
      <trkpt lat="41.182564" lon="1.473655">
        <ele>2.0</ele>
        <time>2014-12-07T07:53:02Z</time>
      </trkpt>
      <trkpt lat="41.182598" lon="1.473632">
        <ele>1.4</ele>
        <time>2014-12-07T07:53:03Z</time>
      </trkpt>
      <trkpt lat="41.182629" lon="1.473606">
        <ele>1.0</ele>
        <time>2014-12-07T07:53:04Z</time>
      </trkpt>
      <trkpt lat="41.182655" lon="1.473573">
        <ele>0.6</ele>
        <time>2014-12-07T07:53:05Z</time>
      </trkpt>
      <trkpt lat="41.182690" lon="1.473532">
        <ele>0.2</ele>
        <time>2014-12-07T07:53:06Z</time>
      </trkpt>
      <trkpt lat="41.182709" lon="1.473484">
        <ele>-0.2</ele>
        <time>2014-12-07T07:53:07Z</time>
      </trkpt>
      <trkpt lat="41.182770" lon="1.473461">
        <ele>-0.2</ele>
        <time>2014-12-07T07:53:09Z</time>
      </trkpt>
      <trkpt lat="41.182785" lon="1.473322">
        <ele>-0.8</ele>
        <time>2014-12-07T07:53:12Z</time>
      </trkpt>
      <trkpt lat="41.182766" lon="1.473263">
        <ele>-1.4</ele>
        <time>2014-12-07T07:53:13Z</time>
      </trkpt>
      <trkpt lat="41.182724" lon="1.473210">
        <ele>-1.8</ele>
        <time>2014-12-07T07:53:14Z</time>
      </trkpt>
      <trkpt lat="41.182686" lon="1.473167">
        <ele>-2.4</ele>
        <time>2014-12-07T07:53:15Z</time>
      </trkpt>
      <trkpt lat="41.182644" lon="1.473135">
        <ele>-3.0</ele>
        <time>2014-12-07T07:53:16Z</time>
      </trkpt>
      <trkpt lat="41.182606" lon="1.473007">
        <ele>-3.0</ele>
        <time>2014-12-07T07:53:18Z</time>
      </trkpt>
      <trkpt lat="41.182621" lon="1.472936">
        <ele>-3.4</ele>
        <time>2014-12-07T07:53:19Z</time>
      </trkpt>
      <trkpt lat="41.182644" lon="1.472869">
        <ele>-3.8</ele>
        <time>2014-12-07T07:53:20Z</time>
      </trkpt>
      <trkpt lat="41.182667" lon="1.472804">
        <ele>-4.2</ele>
        <time>2014-12-07T07:53:21Z</time>
      </trkpt>
      <trkpt lat="41.182678" lon="1.472733">
        <ele>-4.6</ele>
        <time>2014-12-07T07:53:22Z</time>
      </trkpt>
      <trkpt lat="41.182690" lon="1.472659">
        <ele>-5.0</ele>
        <time>2014-12-07T07:53:23Z</time>
      </trkpt>
      <trkpt lat="41.182690" lon="1.472501">
        <ele>-5.0</ele>
        <time>2014-12-07T07:53:25Z</time>
      </trkpt>
      <trkpt lat="41.182690" lon="1.472428">
        <ele>-5.0</ele>
        <time>2014-12-07T07:53:26Z</time>
      </trkpt>
      <trkpt lat="41.182716" lon="1.472147">
        <ele>-5.0</ele>
        <time>2014-12-07T07:53:30Z</time>
      </trkpt>
      <trkpt lat="41.182724" lon="1.472080">
        <ele>-5.0</ele>
        <time>2014-12-07T07:53:31Z</time>
      </trkpt>
      <trkpt lat="41.182781" lon="1.471828">
        <ele>-5.6</ele>
        <time>2014-12-07T07:53:35Z</time>
      </trkpt>
      <trkpt lat="41.182793" lon="1.471767">
        <ele>-6.0</ele>
        <time>2014-12-07T07:53:36Z</time>
      </trkpt>
      <trkpt lat="41.182808" lon="1.471705">
        <ele>-6.4</ele>
        <time>2014-12-07T07:53:37Z</time>
      </trkpt>
      <trkpt lat="41.182816" lon="1.471643">
        <ele>-6.8</ele>
        <time>2014-12-07T07:53:38Z</time>
      </trkpt>
      <trkpt lat="41.182823" lon="1.471581">
        <ele>-7.4</ele>
        <time>2014-12-07T07:53:39Z</time>
      </trkpt>
      <trkpt lat="41.182861" lon="1.471286">
        <ele>-7.4</ele>
        <time>2014-12-07T07:53:44Z</time>
      </trkpt>
      <trkpt lat="41.182880" lon="1.471169">
        <ele>-7.4</ele>
        <time>2014-12-07T07:53:46Z</time>
      </trkpt>
      <trkpt lat="41.182934" lon="1.471036">
        <ele>-7.4</ele>
        <time>2014-12-07T07:53:49Z</time>
      </trkpt>
      <trkpt lat="41.182953" lon="1.471001">
        <ele>-7.4</ele>
        <time>2014-12-07T07:53:50Z</time>
      </trkpt>
      <trkpt lat="41.182980" lon="1.470982">
        <ele>-7.4</ele>
        <time>2014-12-07T07:53:51Z</time>
      </trkpt>
      <trkpt lat="41.183010" lon="1.470921">
        <ele>-7.4</ele>
        <time>2014-12-07T07:53:53Z</time>
      </trkpt>
      <trkpt lat="41.183018" lon="1.470736">
        <ele>-7.4</ele>
        <time>2014-12-07T07:53:56Z</time>
      </trkpt>
      <trkpt lat="41.183067" lon="1.470383">
        <ele>-7.4</ele>
        <time>2014-12-07T07:54:01Z</time>
      </trkpt>
      <trkpt lat="41.183083" lon="1.470313">
        <ele>-7.4</ele>
        <time>2014-12-07T07:54:02Z</time>
      </trkpt>
      <trkpt lat="41.183083" lon="1.470238">
        <ele>-7.4</ele>
        <time>2014-12-07T07:54:03Z</time>
      </trkpt>
      <trkpt lat="41.183102" lon="1.470098">
        <ele>-7.4</ele>
        <time>2014-12-07T07:54:05Z</time>
      </trkpt>
      <trkpt lat="41.183121" lon="1.469819">
        <ele>-7.4</ele>
        <time>2014-12-07T07:54:09Z</time>
      </trkpt>
      <trkpt lat="41.183140" lon="1.469756">
        <ele>-7.4</ele>
        <time>2014-12-07T07:54:10Z</time>
      </trkpt>
      <trkpt lat="41.183186" lon="1.469407">
        <ele>-7.4</ele>
        <time>2014-12-07T07:54:15Z</time>
      </trkpt>
      <trkpt lat="41.183205" lon="1.469064">
        <ele>-7.8</ele>
        <time>2014-12-07T07:54:20Z</time>
      </trkpt>
      <trkpt lat="41.183212" lon="1.468995">
        <ele>-8.2</ele>
        <time>2014-12-07T07:54:21Z</time>
      </trkpt>
      <trkpt lat="41.183224" lon="1.468923">
        <ele>-8.6</ele>
        <time>2014-12-07T07:54:22Z</time>
      </trkpt>
      <trkpt lat="41.183231" lon="1.468852">
        <ele>-9.0</ele>
        <time>2014-12-07T07:54:23Z</time>
      </trkpt>
      <trkpt lat="41.183239" lon="1.468780">
        <ele>-9.4</ele>
        <time>2014-12-07T07:54:24Z</time>
      </trkpt>
      <trkpt lat="41.183266" lon="1.468630">
        <ele>-9.4</ele>
        <time>2014-12-07T07:54:26Z</time>
      </trkpt>
      <trkpt lat="41.183262" lon="1.468483">
        <ele>-9.4</ele>
        <time>2014-12-07T07:54:28Z</time>
      </trkpt>
      <trkpt lat="41.183228" lon="1.468345">
        <ele>-9.4</ele>
        <time>2014-12-07T07:54:30Z</time>
      </trkpt>
      <trkpt lat="41.183212" lon="1.468280">
        <ele>-9.8</ele>
        <time>2014-12-07T07:54:31Z</time>
      </trkpt>
      <trkpt lat="41.183201" lon="1.468209">
        <ele>-10.4</ele>
        <time>2014-12-07T07:54:32Z</time>
      </trkpt>
      <trkpt lat="41.183186" lon="1.468129">
        <ele>-10.8</ele>
        <time>2014-12-07T07:54:33Z</time>
      </trkpt>
      <trkpt lat="41.183163" lon="1.468058">
        <ele>-11.2</ele>
        <time>2014-12-07T07:54:34Z</time>
      </trkpt>
      <trkpt lat="41.183159" lon="1.467984">
        <ele>-11.6</ele>
        <time>2014-12-07T07:54:35Z</time>
      </trkpt>
      <trkpt lat="41.183151" lon="1.467910">
        <ele>-11.6</ele>
        <time>2014-12-07T07:54:36Z</time>
      </trkpt>
      <trkpt lat="41.183163" lon="1.467685">
        <ele>-11.6</ele>
        <time>2014-12-07T07:54:39Z</time>
      </trkpt>
      <trkpt lat="41.183228" lon="1.467564">
        <ele>-11.6</ele>
        <time>2014-12-07T07:54:41Z</time>
      </trkpt>
      <trkpt lat="41.183323" lon="1.467476">
        <ele>-11.6</ele>
        <time>2014-12-07T07:54:43Z</time>
      </trkpt>
      <trkpt lat="41.183392" lon="1.467363">
        <ele>-11.6</ele>
        <time>2014-12-07T07:54:45Z</time>
      </trkpt>
      <trkpt lat="41.183418" lon="1.467177">
        <ele>-12.0</ele>
        <time>2014-12-07T07:54:48Z</time>
      </trkpt>
      <trkpt lat="41.183430" lon="1.467119">
        <ele>-12.8</ele>
        <time>2014-12-07T07:54:49Z</time>
      </trkpt>
      <trkpt lat="41.183445" lon="1.467063">
        <ele>-13.2</ele>
        <time>2014-12-07T07:54:50Z</time>
      </trkpt>
      <trkpt lat="41.183468" lon="1.467005">
        <ele>-13.6</ele>
        <time>2014-12-07T07:54:51Z</time>
      </trkpt>
      <trkpt lat="41.183495" lon="1.466888">
        <ele>-13.6</ele>
        <time>2014-12-07T07:54:53Z</time>
      </trkpt>
      <trkpt lat="41.183575" lon="1.466655">
        <ele>-13.6</ele>
        <time>2014-12-07T07:54:57Z</time>
      </trkpt>
      <trkpt lat="41.183647" lon="1.466585">
        <ele>-13.6</ele>
        <time>2014-12-07T07:54:59Z</time>
      </trkpt>
      <trkpt lat="41.183746" lon="1.466558">
        <ele>-13.6</ele>
        <time>2014-12-07T07:55:01Z</time>
      </trkpt>
      <trkpt lat="41.183834" lon="1.466518">
        <ele>-13.6</ele>
        <time>2014-12-07T07:55:03Z</time>
      </trkpt>
      <trkpt lat="41.183952" lon="1.466439">
        <ele>-13.6</ele>
        <time>2014-12-07T07:55:06Z</time>
      </trkpt>
      <trkpt lat="41.184017" lon="1.466343">
        <ele>-13.6</ele>
        <time>2014-12-07T07:55:08Z</time>
      </trkpt>
      <trkpt lat="41.184071" lon="1.466268">
        <ele>-13.6</ele>
        <time>2014-12-07T07:55:10Z</time>
      </trkpt>
      <trkpt lat="41.184181" lon="1.466188">
        <ele>-13.6</ele>
        <time>2014-12-07T07:55:13Z</time>
      </trkpt>
      <trkpt lat="41.184227" lon="1.466166">
        <ele>-12.8</ele>
        <time>2014-12-07T07:55:14Z</time>
      </trkpt>
      <trkpt lat="41.184269" lon="1.466154">
        <ele>-12.4</ele>
        <time>2014-12-07T07:55:15Z</time>
      </trkpt>
      <trkpt lat="41.184315" lon="1.466136">
        <ele>-12.0</ele>
        <time>2014-12-07T07:55:16Z</time>
      </trkpt>
      <trkpt lat="41.184361" lon="1.466115">
        <ele>-11.6</ele>
        <time>2014-12-07T07:55:17Z</time>
      </trkpt>
      <trkpt lat="41.184402" lon="1.466085">
        <ele>-11.6</ele>
        <time>2014-12-07T07:55:18Z</time>
      </trkpt>
      <trkpt lat="41.184490" lon="1.465934">
        <ele>-11.6</ele>
        <time>2014-12-07T07:55:22Z</time>
      </trkpt>
      <trkpt lat="41.184467" lon="1.465767">
        <ele>-11.6</ele>
        <time>2014-12-07T07:55:25Z</time>
      </trkpt>
      <trkpt lat="41.184460" lon="1.465660">
        <ele>-11.6</ele>
        <time>2014-12-07T07:55:27Z</time>
      </trkpt>
      <trkpt lat="41.184441" lon="1.465605">
        <ele>-11.6</ele>
        <time>2014-12-07T07:55:28Z</time>
      </trkpt>
      <trkpt lat="41.184414" lon="1.465504">
        <ele>-11.6</ele>
        <time>2014-12-07T07:55:30Z</time>
      </trkpt>
      <trkpt lat="41.184425" lon="1.465290">
        <ele>-11.6</ele>
        <time>2014-12-07T07:55:34Z</time>
      </trkpt>
      <trkpt lat="41.184540" lon="1.465176">
        <ele>-11.6</ele>
        <time>2014-12-07T07:55:37Z</time>
      </trkpt>
      <trkpt lat="41.184624" lon="1.464984">
        <ele>-11.6</ele>
        <time>2014-12-07T07:55:41Z</time>
      </trkpt>
      <trkpt lat="41.184654" lon="1.464864">
        <ele>-11.6</ele>
        <time>2014-12-07T07:55:43Z</time>
      </trkpt>
      <trkpt lat="41.184734" lon="1.464652">
        <ele>-11.6</ele>
        <time>2014-12-07T07:55:47Z</time>
      </trkpt>
      <trkpt lat="41.184765" lon="1.464609">
        <ele>-11.6</ele>
        <time>2014-12-07T07:55:48Z</time>
      </trkpt>
      <trkpt lat="41.184803" lon="1.464580">
        <ele>-11.0</ele>
        <time>2014-12-07T07:55:49Z</time>
      </trkpt>
      <trkpt lat="41.184845" lon="1.464567">
        <ele>-10.6</ele>
        <time>2014-12-07T07:55:50Z</time>
      </trkpt>
      <trkpt lat="41.184883" lon="1.464560">
        <ele>-10.2</ele>
        <time>2014-12-07T07:55:51Z</time>
      </trkpt>
      <trkpt lat="41.184917" lon="1.464541">
        <ele>-9.6</ele>
        <time>2014-12-07T07:55:52Z</time>
      </trkpt>
      <trkpt lat="41.184948" lon="1.464502">
        <ele>-9.2</ele>
        <time>2014-12-07T07:55:53Z</time>
      </trkpt>
      <trkpt lat="41.184967" lon="1.464388">
        <ele>-9.2</ele>
        <time>2014-12-07T07:55:55Z</time>
      </trkpt>
      <trkpt lat="41.184921" lon="1.464234">
        <ele>-9.2</ele>
        <time>2014-12-07T07:55:58Z</time>
      </trkpt>
      <trkpt lat="41.184841" lon="1.464103">
        <ele>-9.2</ele>
        <time>2014-12-07T07:56:01Z</time>
      </trkpt>
      <trkpt lat="41.184830" lon="1.464043">
        <ele>-9.2</ele>
        <time>2014-12-07T07:56:02Z</time>
      </trkpt>
      <trkpt lat="41.184811" lon="1.463921">
        <ele>-9.2</ele>
        <time>2014-12-07T07:56:04Z</time>
      </trkpt>
      <trkpt lat="41.184769" lon="1.463704">
        <ele>-9.2</ele>
        <time>2014-12-07T07:56:08Z</time>
      </trkpt>
      <trkpt lat="41.184673" lon="1.463467">
        <ele>-9.2</ele>
        <time>2014-12-07T07:56:13Z</time>
      </trkpt>
      <trkpt lat="41.184631" lon="1.463436">
        <ele>-9.2</ele>
        <time>2014-12-07T07:56:14Z</time>
      </trkpt>
      <trkpt lat="41.184498" lon="1.463372">
        <ele>-9.2</ele>
        <time>2014-12-07T07:56:17Z</time>
      </trkpt>
      <trkpt lat="41.184452" lon="1.463344">
        <ele>-9.2</ele>
        <time>2014-12-07T07:56:18Z</time>
      </trkpt>
      <trkpt lat="41.184269" lon="1.463217">
        <ele>-9.2</ele>
        <time>2014-12-07T07:56:22Z</time>
      </trkpt>
      <trkpt lat="41.184162" lon="1.463180">
        <ele>-9.2</ele>
        <time>2014-12-07T07:56:24Z</time>
      </trkpt>
      <trkpt lat="41.183990" lon="1.463240">
        <ele>-9.2</ele>
        <time>2014-12-07T07:56:27Z</time>
      </trkpt>
      <trkpt lat="41.183926" lon="1.463272">
        <ele>-9.2</ele>
        <time>2014-12-07T07:56:28Z</time>
      </trkpt>
      <trkpt lat="41.183865" lon="1.463304">
        <ele>-10.2</ele>
        <time>2014-12-07T07:56:29Z</time>
      </trkpt>
      <trkpt lat="41.183800" lon="1.463335">
        <ele>-10.6</ele>
        <time>2014-12-07T07:56:30Z</time>
      </trkpt>
      <trkpt lat="41.183727" lon="1.463350">
        <ele>-11.0</ele>
        <time>2014-12-07T07:56:31Z</time>
      </trkpt>
      <trkpt lat="41.183670" lon="1.463324">
        <ele>-11.4</ele>
        <time>2014-12-07T07:56:32Z</time>
      </trkpt>
      <trkpt lat="41.183628" lon="1.463266">
        <ele>-12.0</ele>
        <time>2014-12-07T07:56:33Z</time>
      </trkpt>
      <trkpt lat="41.183594" lon="1.463210">
        <ele>-12.4</ele>
        <time>2014-12-07T07:56:34Z</time>
      </trkpt>
      <trkpt lat="41.183582" lon="1.463147">
        <ele>-12.8</ele>
        <time>2014-12-07T07:56:35Z</time>
      </trkpt>
      <trkpt lat="41.183575" lon="1.463083">
        <ele>-13.2</ele>
        <time>2014-12-07T07:56:36Z</time>
      </trkpt>
      <trkpt lat="41.183559" lon="1.463023">
        <ele>-13.6</ele>
        <time>2014-12-07T07:56:37Z</time>
      </trkpt>
      <trkpt lat="41.183502" lon="1.462791">
        <ele>-13.6</ele>
        <time>2014-12-07T07:56:41Z</time>
      </trkpt>
      <trkpt lat="41.183475" lon="1.462676">
        <ele>-13.6</ele>
        <time>2014-12-07T07:56:43Z</time>
      </trkpt>
      <trkpt lat="41.183395" lon="1.462353">
        <ele>-13.6</ele>
        <time>2014-12-07T07:56:49Z</time>
      </trkpt>
      <trkpt lat="41.183346" lon="1.462267">
        <ele>-13.6</ele>
        <time>2014-12-07T07:56:51Z</time>
      </trkpt>
      <trkpt lat="41.183304" lon="1.462254">
        <ele>-13.6</ele>
        <time>2014-12-07T07:56:52Z</time>
      </trkpt>
      <trkpt lat="41.183258" lon="1.462246">
        <ele>-12.6</ele>
        <time>2014-12-07T07:56:53Z</time>
      </trkpt>
      <trkpt lat="41.183208" lon="1.462249">
        <ele>-12.0</ele>
        <time>2014-12-07T07:56:54Z</time>
      </trkpt>
      <trkpt lat="41.183155" lon="1.462253">
        <ele>-11.4</ele>
        <time>2014-12-07T07:56:55Z</time>
      </trkpt>
      <trkpt lat="41.183102" lon="1.462262">
        <ele>-11.6</ele>
        <time>2014-12-07T07:56:56Z</time>
      </trkpt>
      <trkpt lat="41.183041" lon="1.462286">
        <ele>-12.0</ele>
        <time>2014-12-07T07:56:57Z</time>
      </trkpt>
      <trkpt lat="41.182976" lon="1.462311">
        <ele>-12.4</ele>
        <time>2014-12-07T07:56:58Z</time>
      </trkpt>
      <trkpt lat="41.182911" lon="1.462334">
        <ele>-12.8</ele>
        <time>2014-12-07T07:56:59Z</time>
      </trkpt>
      <trkpt lat="41.182854" lon="1.462359">
        <ele>-13.2</ele>
        <time>2014-12-07T07:57:00Z</time>
      </trkpt>
      <trkpt lat="41.182732" lon="1.462401">
        <ele>-13.6</ele>
        <time>2014-12-07T07:57:02Z</time>
      </trkpt>
      <trkpt lat="41.182674" lon="1.462423">
        <ele>-14.0</ele>
        <time>2014-12-07T07:57:03Z</time>
      </trkpt>
      <trkpt lat="41.182617" lon="1.462440">
        <ele>-14.6</ele>
        <time>2014-12-07T07:57:04Z</time>
      </trkpt>
      <trkpt lat="41.182564" lon="1.462461">
        <ele>-15.0</ele>
        <time>2014-12-07T07:57:05Z</time>
      </trkpt>
      <trkpt lat="41.182510" lon="1.462479">
        <ele>-15.4</ele>
        <time>2014-12-07T07:57:06Z</time>
      </trkpt>
      <trkpt lat="41.182293" lon="1.462509">
        <ele>-15.4</ele>
        <time>2014-12-07T07:57:10Z</time>
      </trkpt>
      <trkpt lat="41.182255" lon="1.462479">
        <ele>-15.4</ele>
        <time>2014-12-07T07:57:11Z</time>
      </trkpt>
      <trkpt lat="41.182194" lon="1.462316">
        <ele>-15.4</ele>
        <time>2014-12-07T07:57:14Z</time>
      </trkpt>
      <trkpt lat="41.182182" lon="1.462247">
        <ele>-15.4</ele>
        <time>2014-12-07T07:57:15Z</time>
      </trkpt>
      <trkpt lat="41.182175" lon="1.462173">
        <ele>-15.8</ele>
        <time>2014-12-07T07:57:16Z</time>
      </trkpt>
      <trkpt lat="41.182159" lon="1.462099">
        <ele>-16.2</ele>
        <time>2014-12-07T07:57:17Z</time>
      </trkpt>
      <trkpt lat="41.182148" lon="1.462028">
        <ele>-17.0</ele>
        <time>2014-12-07T07:57:18Z</time>
      </trkpt>
      <trkpt lat="41.182133" lon="1.461956">
        <ele>-17.4</ele>
        <time>2014-12-07T07:57:19Z</time>
      </trkpt>
      <trkpt lat="41.182076" lon="1.461665">
        <ele>-17.4</ele>
        <time>2014-12-07T07:57:24Z</time>
      </trkpt>
      <trkpt lat="41.182022" lon="1.461485">
        <ele>-17.4</ele>
        <time>2014-12-07T07:57:29Z</time>
      </trkpt>
      <trkpt lat="41.181992" lon="1.461469">
        <ele>-17.4</ele>
        <time>2014-12-07T07:57:30Z</time>
      </trkpt>
      <trkpt lat="41.181923" lon="1.461417">
        <ele>-17.4</ele>
        <time>2014-12-07T07:57:33Z</time>
      </trkpt>
      <trkpt lat="41.181877" lon="1.461233">
        <ele>-17.4</ele>
        <time>2014-12-07T07:57:37Z</time>
      </trkpt>
      <trkpt lat="41.181866" lon="1.461183">
        <ele>-17.4</ele>
        <time>2014-12-07T07:57:38Z</time>
      </trkpt>
      <trkpt lat="41.181850" lon="1.461133">
        <ele>-17.4</ele>
        <time>2014-12-07T07:57:39Z</time>
      </trkpt>
      <trkpt lat="41.181793" lon="1.460906">
        <ele>-17.4</ele>
        <time>2014-12-07T07:57:43Z</time>
      </trkpt>
      <trkpt lat="41.181751" lon="1.460637">
        <ele>-18.0</ele>
        <time>2014-12-07T07:57:48Z</time>
      </trkpt>
      <trkpt lat="41.181736" lon="1.460578">
        <ele>-18.4</ele>
        <time>2014-12-07T07:57:49Z</time>
      </trkpt>
      <trkpt lat="41.181728" lon="1.460520">
        <ele>-18.8</ele>
        <time>2014-12-07T07:57:50Z</time>
      </trkpt>
      <trkpt lat="41.181721" lon="1.460461">
        <ele>-19.2</ele>
        <time>2014-12-07T07:57:51Z</time>
      </trkpt>
      <trkpt lat="41.181713" lon="1.460399">
        <ele>-19.6</ele>
        <time>2014-12-07T07:57:52Z</time>
      </trkpt>
      <trkpt lat="41.181679" lon="1.460104">
        <ele>-19.6</ele>
        <time>2014-12-07T07:57:57Z</time>
      </trkpt>
      <trkpt lat="41.181652" lon="1.459932">
        <ele>-19.6</ele>
        <time>2014-12-07T07:58:00Z</time>
      </trkpt>
      <trkpt lat="41.181641" lon="1.459761">
        <ele>-19.6</ele>
        <time>2014-12-07T07:58:03Z</time>
      </trkpt>
      <trkpt lat="41.181595" lon="1.459362">
        <ele>-19.6</ele>
        <time>2014-12-07T07:58:10Z</time>
      </trkpt>
      <trkpt lat="41.181568" lon="1.459026">
        <ele>-19.6</ele>
        <time>2014-12-07T07:58:16Z</time>
      </trkpt>
      <trkpt lat="41.181534" lon="1.458864">
        <ele>-19.0</ele>
        <time>2014-12-07T07:58:19Z</time>
      </trkpt>
      <trkpt lat="41.181526" lon="1.458809">
        <ele>-18.6</ele>
        <time>2014-12-07T07:58:20Z</time>
      </trkpt>
      <trkpt lat="41.181526" lon="1.458751">
        <ele>-18.0</ele>
        <time>2014-12-07T07:58:21Z</time>
      </trkpt>
      <trkpt lat="41.181526" lon="1.458699">
        <ele>-17.6</ele>
        <time>2014-12-07T07:58:22Z</time>
      </trkpt>
      <trkpt lat="41.181526" lon="1.458648">
        <ele>-17.0</ele>
        <time>2014-12-07T07:58:23Z</time>
      </trkpt>
      <trkpt lat="41.181534" lon="1.458384">
        <ele>-17.0</ele>
        <time>2014-12-07T07:58:28Z</time>
      </trkpt>
      <trkpt lat="41.181538" lon="1.458159">
        <ele>-17.0</ele>
        <time>2014-12-07T07:58:32Z</time>
      </trkpt>
      <trkpt lat="41.181545" lon="1.457963">
        <ele>-17.0</ele>
        <time>2014-12-07T07:58:35Z</time>
      </trkpt>
      <trkpt lat="41.181549" lon="1.457613">
        <ele>-17.0</ele>
        <time>2014-12-07T07:58:41Z</time>
      </trkpt>
      <trkpt lat="41.181553" lon="1.457506">
        <ele>-17.0</ele>
        <time>2014-12-07T07:58:43Z</time>
      </trkpt>
      <trkpt lat="41.181568" lon="1.457268">
        <ele>-17.0</ele>
        <time>2014-12-07T07:58:47Z</time>
      </trkpt>
      <trkpt lat="41.181572" lon="1.456834">
        <ele>-17.0</ele>
        <time>2014-12-07T07:58:54Z</time>
      </trkpt>
      <trkpt lat="41.181587" lon="1.456562">
        <ele>-17.0</ele>
        <time>2014-12-07T07:58:59Z</time>
      </trkpt>
      <trkpt lat="41.181595" lon="1.456510">
        <ele>-17.0</ele>
        <time>2014-12-07T07:59:00Z</time>
      </trkpt>
      <trkpt lat="41.181629" lon="1.456199">
        <ele>-17.0</ele>
        <time>2014-12-07T07:59:06Z</time>
      </trkpt>
      <trkpt lat="41.181637" lon="1.456015">
        <ele>-17.0</ele>
        <time>2014-12-07T07:59:10Z</time>
      </trkpt>
      <trkpt lat="41.181614" lon="1.455906">
        <ele>-17.0</ele>
        <time>2014-12-07T07:59:12Z</time>
      </trkpt>
      <trkpt lat="41.181580" lon="1.455744">
        <ele>-16.6</ele>
        <time>2014-12-07T07:59:15Z</time>
      </trkpt>
      <trkpt lat="41.181568" lon="1.455689">
        <ele>-16.2</ele>
        <time>2014-12-07T07:59:16Z</time>
      </trkpt>
      <trkpt lat="41.181564" lon="1.455631">
        <ele>-15.8</ele>
        <time>2014-12-07T07:59:17Z</time>
      </trkpt>
      <trkpt lat="41.181561" lon="1.455571">
        <ele>-15.4</ele>
        <time>2014-12-07T07:59:18Z</time>
      </trkpt>
      <trkpt lat="41.181561" lon="1.455513">
        <ele>-14.8</ele>
        <time>2014-12-07T07:59:19Z</time>
      </trkpt>
      <trkpt lat="41.181553" lon="1.455365">
        <ele>-14.8</ele>
        <time>2014-12-07T07:59:22Z</time>
      </trkpt>
      <trkpt lat="41.181545" lon="1.455015">
        <ele>-14.8</ele>
        <time>2014-12-07T07:59:28Z</time>
      </trkpt>
      <trkpt lat="41.181530" lon="1.454581">
        <ele>-14.8</ele>
        <time>2014-12-07T07:59:35Z</time>
      </trkpt>
      <trkpt lat="41.181492" lon="1.454302">
        <ele>-14.8</ele>
        <time>2014-12-07T07:59:39Z</time>
      </trkpt>
      <trkpt lat="41.181492" lon="1.454216">
        <ele>-15.2</ele>
        <time>2014-12-07T07:59:40Z</time>
      </trkpt>
      <trkpt lat="41.181484" lon="1.454138">
        <ele>-15.6</ele>
        <time>2014-12-07T07:59:41Z</time>
      </trkpt>
      <trkpt lat="41.181496" lon="1.454053">
        <ele>-16.2</ele>
        <time>2014-12-07T07:59:42Z</time>
      </trkpt>
      <trkpt lat="41.181511" lon="1.453973">
        <ele>-16.6</ele>
        <time>2014-12-07T07:59:43Z</time>
      </trkpt>
      <trkpt lat="41.181534" lon="1.453884">
        <ele>-17.0</ele>
        <time>2014-12-07T07:59:44Z</time>
      </trkpt>
      <trkpt lat="41.181583" lon="1.453767">
        <ele>-18.0</ele>
        <time>2014-12-07T07:59:46Z</time>
      </trkpt>
      <trkpt lat="41.181625" lon="1.453744">
        <ele>-18.4</ele>
        <time>2014-12-07T07:59:47Z</time>
      </trkpt>
      <trkpt lat="41.181671" lon="1.453731">
        <ele>-19.0</ele>
        <time>2014-12-07T07:59:48Z</time>
      </trkpt>
      <trkpt lat="41.181717" lon="1.453726">
        <ele>-19.8</ele>
        <time>2014-12-07T07:59:49Z</time>
      </trkpt>
      <trkpt lat="41.181759" lon="1.453746">
        <ele>-20.4</ele>
        <time>2014-12-07T07:59:50Z</time>
      </trkpt>
      <trkpt lat="41.181793" lon="1.453764">
        <ele>-21.0</ele>
        <time>2014-12-07T07:59:51Z</time>
      </trkpt>
      <trkpt lat="41.181839" lon="1.453775">
        <ele>-21.6</ele>
        <time>2014-12-07T07:59:52Z</time>
      </trkpt>
      <trkpt lat="41.181942" lon="1.453811">
        <ele>-21.6</ele>
        <time>2014-12-07T07:59:54Z</time>
      </trkpt>
      <trkpt lat="41.182098" lon="1.453868">
        <ele>-21.6</ele>
        <time>2014-12-07T07:59:58Z</time>
      </trkpt>
      <trkpt lat="41.182224" lon="1.453912">
        <ele>-21.6</ele>
        <time>2014-12-07T08:00:01Z</time>
      </trkpt>
      <trkpt lat="41.182301" lon="1.453940">
        <ele>-21.6</ele>
        <time>2014-12-07T08:00:03Z</time>
      </trkpt>
      <trkpt lat="41.182575" lon="1.454011">
        <ele>-21.6</ele>
        <time>2014-12-07T08:00:10Z</time>
      </trkpt>
      <trkpt lat="41.182743" lon="1.454038">
        <ele>-21.6</ele>
        <time>2014-12-07T08:00:15Z</time>
      </trkpt>
      <trkpt lat="41.182907" lon="1.454031">
        <ele>-21.6</ele>
        <time>2014-12-07T08:00:20Z</time>
      </trkpt>
      <trkpt lat="41.183113" lon="1.453984">
        <ele>-21.6</ele>
        <time>2014-12-07T08:00:25Z</time>
      </trkpt>
      <trkpt lat="41.183250" lon="1.453954">
        <ele>-21.6</ele>
        <time>2014-12-07T08:00:29Z</time>
      </trkpt>
      <trkpt lat="41.183311" lon="1.453945">
        <ele>-21.2</ele>
        <time>2014-12-07T08:00:31Z</time>
      </trkpt>
      <trkpt lat="41.183338" lon="1.453941">
        <ele>-20.8</ele>
        <time>2014-12-07T08:00:32Z</time>
      </trkpt>
      <trkpt lat="41.183372" lon="1.453939">
        <ele>-20.4</ele>
        <time>2014-12-07T08:00:33Z</time>
      </trkpt>
      <trkpt lat="41.183407" lon="1.453936">
        <ele>-19.8</ele>
        <time>2014-12-07T08:00:34Z</time>
      </trkpt>
      <trkpt lat="41.183441" lon="1.453933">
        <ele>-19.4</ele>
        <time>2014-12-07T08:00:35Z</time>
      </trkpt>
      <trkpt lat="41.183514" lon="1.453925">
        <ele>-19.4</ele>
        <time>2014-12-07T08:00:37Z</time>
      </trkpt>
      <trkpt lat="41.183792" lon="1.453905">
        <ele>-19.4</ele>
        <time>2014-12-07T08:00:45Z</time>
      </trkpt>
      <trkpt lat="41.184029" lon="1.453882">
        <ele>-19.4</ele>
        <time>2014-12-07T08:00:52Z</time>
      </trkpt>
      <trkpt lat="41.184227" lon="1.453856">
        <ele>-19.4</ele>
        <time>2014-12-07T08:00:58Z</time>
      </trkpt>
      <trkpt lat="41.184288" lon="1.453849">
        <ele>-18.4</ele>
        <time>2014-12-07T08:01:00Z</time>
      </trkpt>
      <trkpt lat="41.184326" lon="1.453843">
        <ele>-18.0</ele>
        <time>2014-12-07T08:01:01Z</time>
      </trkpt>
      <trkpt lat="41.184364" lon="1.453840">
        <ele>-17.6</ele>
        <time>2014-12-07T08:01:02Z</time>
      </trkpt>
      <trkpt lat="41.184406" lon="1.453839">
        <ele>-17.2</ele>
        <time>2014-12-07T08:01:03Z</time>
      </trkpt>
      <trkpt lat="41.184605" lon="1.453812">
        <ele>-17.2</ele>
        <time>2014-12-07T08:01:08Z</time>
      </trkpt>
      <trkpt lat="41.184647" lon="1.453805">
        <ele>-17.2</ele>
        <time>2014-12-07T08:01:09Z</time>
      </trkpt>
      <trkpt lat="41.184879" lon="1.453777">
        <ele>-17.2</ele>
        <time>2014-12-07T08:01:15Z</time>
      </trkpt>
      <trkpt lat="41.185146" lon="1.453745">
        <ele>-17.2</ele>
        <time>2014-12-07T08:01:22Z</time>
      </trkpt>
      <trkpt lat="41.185310" lon="1.453725">
        <ele>-17.2</ele>
        <time>2014-12-07T08:01:26Z</time>
      </trkpt>
      <trkpt lat="41.185432" lon="1.453708">
        <ele>-17.2</ele>
        <time>2014-12-07T08:01:29Z</time>
      </trkpt>
      <trkpt lat="41.185471" lon="1.453697">
        <ele>-16.8</ele>
        <time>2014-12-07T08:01:30Z</time>
      </trkpt>
      <trkpt lat="41.185516" lon="1.453685">
        <ele>-16.2</ele>
        <time>2014-12-07T08:01:31Z</time>
      </trkpt>
      <trkpt lat="41.185558" lon="1.453672">
        <ele>-15.8</ele>
        <time>2014-12-07T08:01:32Z</time>
      </trkpt>
      <trkpt lat="41.185596" lon="1.453660">
        <ele>-15.4</ele>
        <time>2014-12-07T08:01:33Z</time>
      </trkpt>
      <trkpt lat="41.185635" lon="1.453647">
        <ele>-15.0</ele>
        <time>2014-12-07T08:01:34Z</time>
      </trkpt>
      <trkpt lat="41.185818" lon="1.453575">
        <ele>-15.0</ele>
        <time>2014-12-07T08:01:39Z</time>
      </trkpt>
      <trkpt lat="41.185890" lon="1.453556">
        <ele>-15.0</ele>
        <time>2014-12-07T08:01:41Z</time>
      </trkpt>
      <trkpt lat="41.185993" lon="1.453495">
        <ele>-15.0</ele>
        <time>2014-12-07T08:01:44Z</time>
      </trkpt>
      <trkpt lat="41.186050" lon="1.453456">
        <ele>-15.0</ele>
        <time>2014-12-07T08:01:46Z</time>
      </trkpt>
      <trkpt lat="41.186256" lon="1.453284">
        <ele>-15.0</ele>
        <time>2014-12-07T08:01:53Z</time>
      </trkpt>
      <trkpt lat="41.186310" lon="1.453230">
        <ele>-14.4</ele>
        <time>2014-12-07T08:01:55Z</time>
      </trkpt>
      <trkpt lat="41.186340" lon="1.453202">
        <ele>-14.0</ele>
        <time>2014-12-07T08:01:56Z</time>
      </trkpt>
      <trkpt lat="41.186367" lon="1.453171">
        <ele>-13.4</ele>
        <time>2014-12-07T08:01:57Z</time>
      </trkpt>
      <trkpt lat="41.186401" lon="1.453139">
        <ele>-12.8</ele>
        <time>2014-12-07T08:01:58Z</time>
      </trkpt>
      <trkpt lat="41.186428" lon="1.453104">
        <ele>-12.4</ele>
        <time>2014-12-07T08:01:59Z</time>
      </trkpt>
      <trkpt lat="41.186611" lon="1.452959">
        <ele>-12.4</ele>
        <time>2014-12-07T08:02:04Z</time>
      </trkpt>
      <trkpt lat="41.186882" lon="1.452828">
        <ele>-12.4</ele>
        <time>2014-12-07T08:02:11Z</time>
      </trkpt>
      <trkpt lat="41.187138" lon="1.452643">
        <ele>-12.4</ele>
        <time>2014-12-07T08:02:18Z</time>
      </trkpt>
      <trkpt lat="41.187443" lon="1.452431">
        <ele>-12.4</ele>
        <time>2014-12-07T08:02:26Z</time>
      </trkpt>
      <trkpt lat="41.187752" lon="1.452256">
        <ele>-12.4</ele>
        <time>2014-12-07T08:02:34Z</time>
      </trkpt>
      <trkpt lat="41.187923" lon="1.452205">
        <ele>-12.4</ele>
        <time>2014-12-07T08:02:39Z</time>
      </trkpt>
      <trkpt lat="41.188000" lon="1.452203">
        <ele>-12.0</ele>
        <time>2014-12-07T08:02:41Z</time>
      </trkpt>
      <trkpt lat="41.188034" lon="1.452202">
        <ele>-11.6</ele>
        <time>2014-12-07T08:02:42Z</time>
      </trkpt>
      <trkpt lat="41.188072" lon="1.452202">
        <ele>-11.2</ele>
        <time>2014-12-07T08:02:43Z</time>
      </trkpt>
      <trkpt lat="41.188107" lon="1.452201">
        <ele>-10.8</ele>
        <time>2014-12-07T08:02:44Z</time>
      </trkpt>
      <trkpt lat="41.188141" lon="1.452198">
        <ele>-10.4</ele>
        <time>2014-12-07T08:02:45Z</time>
      </trkpt>
      <trkpt lat="41.188339" lon="1.452178">
        <ele>-9.8</ele>
        <time>2014-12-07T08:02:51Z</time>
      </trkpt>
      <trkpt lat="41.188374" lon="1.452175">
        <ele>-9.4</ele>
        <time>2014-12-07T08:02:52Z</time>
      </trkpt>
      <trkpt lat="41.188404" lon="1.452177">
        <ele>-9.0</ele>
        <time>2014-12-07T08:02:53Z</time>
      </trkpt>
      <trkpt lat="41.188431" lon="1.452178">
        <ele>-8.6</ele>
        <time>2014-12-07T08:02:54Z</time>
      </trkpt>
      <trkpt lat="41.188457" lon="1.452178">
        <ele>-8.0</ele>
        <time>2014-12-07T08:02:55Z</time>
      </trkpt>
      <trkpt lat="41.188484" lon="1.452167">
        <ele>-7.6</ele>
        <time>2014-12-07T08:02:56Z</time>
      </trkpt>
      <trkpt lat="41.188511" lon="1.452147">
        <ele>-7.2</ele>
        <time>2014-12-07T08:02:57Z</time>
      </trkpt>
      <trkpt lat="41.188541" lon="1.452124">
        <ele>-6.8</ele>
        <time>2014-12-07T08:02:58Z</time>
      </trkpt>
      <trkpt lat="41.188572" lon="1.452102">
        <ele>-6.4</ele>
        <time>2014-12-07T08:02:59Z</time>
      </trkpt>
      <trkpt lat="41.188599" lon="1.452078">
        <ele>-6.0</ele>
        <time>2014-12-07T08:03:00Z</time>
      </trkpt>
      <trkpt lat="41.188644" lon="1.452021">
        <ele>-6.0</ele>
        <time>2014-12-07T08:03:02Z</time>
      </trkpt>
      <trkpt lat="41.188721" lon="1.451845">
        <ele>-5.6</ele>
        <time>2014-12-07T08:03:07Z</time>
      </trkpt>
      <trkpt lat="41.188732" lon="1.451812">
        <ele>-5.2</ele>
        <time>2014-12-07T08:03:08Z</time>
      </trkpt>
      <trkpt lat="41.188744" lon="1.451775">
        <ele>-4.6</ele>
        <time>2014-12-07T08:03:09Z</time>
      </trkpt>
      <trkpt lat="41.188755" lon="1.451733">
        <ele>-4.2</ele>
        <time>2014-12-07T08:03:10Z</time>
      </trkpt>
      <trkpt lat="41.188770" lon="1.451690">
        <ele>-3.8</ele>
        <time>2014-12-07T08:03:11Z</time>
      </trkpt>
      <trkpt lat="41.188793" lon="1.451609">
        <ele>-3.4</ele>
        <time>2014-12-07T08:03:13Z</time>
      </trkpt>
      <trkpt lat="41.188805" lon="1.451572">
        <ele>-2.8</ele>
        <time>2014-12-07T08:03:14Z</time>
      </trkpt>
      <trkpt lat="41.188820" lon="1.451537">
        <ele>-2.4</ele>
        <time>2014-12-07T08:03:15Z</time>
      </trkpt>
      <trkpt lat="41.188831" lon="1.451498">
        <ele>-2.0</ele>
        <time>2014-12-07T08:03:16Z</time>
      </trkpt>
      <trkpt lat="41.188839" lon="1.451453">
        <ele>-1.6</ele>
        <time>2014-12-07T08:03:17Z</time>
      </trkpt>
      <trkpt lat="41.188850" lon="1.451372">
        <ele>-1.0</ele>
        <time>2014-12-07T08:03:19Z</time>
      </trkpt>
      <trkpt lat="41.188850" lon="1.451327">
        <ele>-0.6</ele>
        <time>2014-12-07T08:03:20Z</time>
      </trkpt>
      <trkpt lat="41.188843" lon="1.451284">
        <ele>0.0</ele>
        <time>2014-12-07T08:03:21Z</time>
      </trkpt>
      <trkpt lat="41.188843" lon="1.451239">
        <ele>0.4</ele>
        <time>2014-12-07T08:03:22Z</time>
      </trkpt>
      <trkpt lat="41.188843" lon="1.451195">
        <ele>1.0</ele>
        <time>2014-12-07T08:03:23Z</time>
      </trkpt>
      <trkpt lat="41.188839" lon="1.450933">
        <ele>1.0</ele>
        <time>2014-12-07T08:03:29Z</time>
      </trkpt>
      <trkpt lat="41.188869" lon="1.450703">
        <ele>1.0</ele>
        <time>2014-12-07T08:03:35Z</time>
      </trkpt>
      <trkpt lat="41.188923" lon="1.450608">
        <ele>1.4</ele>
        <time>2014-12-07T08:03:38Z</time>
      </trkpt>
      <trkpt lat="41.188942" lon="1.450583">
        <ele>1.8</ele>
        <time>2014-12-07T08:03:39Z</time>
      </trkpt>
      <trkpt lat="41.188965" lon="1.450558">
        <ele>2.2</ele>
        <time>2014-12-07T08:03:40Z</time>
      </trkpt>
      <trkpt lat="41.188984" lon="1.450534">
        <ele>2.6</ele>
        <time>2014-12-07T08:03:41Z</time>
      </trkpt>
      <trkpt lat="41.189007" lon="1.450508">
        <ele>3.0</ele>
        <time>2014-12-07T08:03:42Z</time>
      </trkpt>
      <trkpt lat="41.189159" lon="1.450334">
        <ele>3.0</ele>
        <time>2014-12-07T08:03:49Z</time>
      </trkpt>
      <trkpt lat="41.189194" lon="1.450279">
        <ele>3.6</ele>
        <time>2014-12-07T08:03:51Z</time>
      </trkpt>
      <trkpt lat="41.189213" lon="1.450250">
        <ele>4.0</ele>
        <time>2014-12-07T08:03:52Z</time>
      </trkpt>
      <trkpt lat="41.189232" lon="1.450220">
        <ele>5.0</ele>
        <time>2014-12-07T08:03:53Z</time>
      </trkpt>
      <trkpt lat="41.189255" lon="1.450191">
        <ele>5.6</ele>
        <time>2014-12-07T08:03:54Z</time>
      </trkpt>
      <trkpt lat="41.189274" lon="1.450163">
        <ele>5.6</ele>
        <time>2014-12-07T08:03:55Z</time>
      </trkpt>
      <trkpt lat="41.189392" lon="1.450008">
        <ele>5.6</ele>
        <time>2014-12-07T08:04:01Z</time>
      </trkpt>
      <trkpt lat="41.189510" lon="1.449935">
        <ele>5.6</ele>
        <time>2014-12-07T08:04:06Z</time>
      </trkpt>
      <trkpt lat="41.189564" lon="1.449925">
        <ele>6.0</ele>
        <time>2014-12-07T08:04:08Z</time>
      </trkpt>
      <trkpt lat="41.189590" lon="1.449923">
        <ele>6.4</ele>
        <time>2014-12-07T08:04:09Z</time>
      </trkpt>
      <trkpt lat="41.189617" lon="1.449919">
        <ele>6.8</ele>
        <time>2014-12-07T08:04:10Z</time>
      </trkpt>
      <trkpt lat="41.189640" lon="1.449909">
        <ele>7.4</ele>
        <time>2014-12-07T08:04:11Z</time>
      </trkpt>
      <trkpt lat="41.189663" lon="1.449902">
        <ele>7.8</ele>
        <time>2014-12-07T08:04:12Z</time>
      </trkpt>
      <trkpt lat="41.189709" lon="1.449890">
        <ele>8.2</ele>
        <time>2014-12-07T08:04:14Z</time>
      </trkpt>
      <trkpt lat="41.189735" lon="1.449878">
        <ele>8.6</ele>
        <time>2014-12-07T08:04:15Z</time>
      </trkpt>
      <trkpt lat="41.189762" lon="1.449865">
        <ele>9.2</ele>
        <time>2014-12-07T08:04:16Z</time>
      </trkpt>
      <trkpt lat="41.189781" lon="1.449850">
        <ele>9.6</ele>
        <time>2014-12-07T08:04:17Z</time>
      </trkpt>
      <trkpt lat="41.189808" lon="1.449834">
        <ele>10.0</ele>
        <time>2014-12-07T08:04:18Z</time>
      </trkpt>
      <trkpt lat="41.189827" lon="1.449816">
        <ele>10.4</ele>
        <time>2014-12-07T08:04:19Z</time>
      </trkpt>
      <trkpt lat="41.189854" lon="1.449798">
        <ele>10.8</ele>
        <time>2014-12-07T08:04:20Z</time>
      </trkpt>
      <trkpt lat="41.189873" lon="1.449776">
        <ele>11.2</ele>
        <time>2014-12-07T08:04:21Z</time>
      </trkpt>
      <trkpt lat="41.189888" lon="1.449757">
        <ele>11.6</ele>
        <time>2014-12-07T08:04:22Z</time>
      </trkpt>
      <trkpt lat="41.189915" lon="1.449738">
        <ele>12.0</ele>
        <time>2014-12-07T08:04:23Z</time>
      </trkpt>
      <trkpt lat="41.189960" lon="1.449695">
        <ele>12.0</ele>
        <time>2014-12-07T08:04:25Z</time>
      </trkpt>
      <trkpt lat="41.190079" lon="1.449593">
        <ele>12.4</ele>
        <time>2014-12-07T08:04:30Z</time>
      </trkpt>
      <trkpt lat="41.190102" lon="1.449570">
        <ele>13.0</ele>
        <time>2014-12-07T08:04:31Z</time>
      </trkpt>
      <trkpt lat="41.190128" lon="1.449548">
        <ele>13.4</ele>
        <time>2014-12-07T08:04:32Z</time>
      </trkpt>
      <trkpt lat="41.190155" lon="1.449529">
        <ele>13.8</ele>
        <time>2014-12-07T08:04:33Z</time>
      </trkpt>
      <trkpt lat="41.190182" lon="1.449510">
        <ele>14.2</ele>
        <time>2014-12-07T08:04:34Z</time>
      </trkpt>
      <trkpt lat="41.190289" lon="1.449430">
        <ele>14.2</ele>
        <time>2014-12-07T08:04:38Z</time>
      </trkpt>
      <trkpt lat="41.190517" lon="1.449257">
        <ele>14.2</ele>
        <time>2014-12-07T08:04:46Z</time>
      </trkpt>
      <trkpt lat="41.190704" lon="1.449108">
        <ele>14.2</ele>
        <time>2014-12-07T08:04:52Z</time>
      </trkpt>
      <trkpt lat="41.190903" lon="1.448950">
        <ele>14.2</ele>
        <time>2014-12-07T08:04:58Z</time>
      </trkpt>
      <trkpt lat="41.191059" lon="1.448821">
        <ele>14.6</ele>
        <time>2014-12-07T08:05:04Z</time>
      </trkpt>
      <trkpt lat="41.191086" lon="1.448799">
        <ele>15.0</ele>
        <time>2014-12-07T08:05:05Z</time>
      </trkpt>
      <trkpt lat="41.191109" lon="1.448778">
        <ele>15.6</ele>
        <time>2014-12-07T08:05:06Z</time>
      </trkpt>
      <trkpt lat="41.191135" lon="1.448759">
        <ele>16.6</ele>
        <time>2014-12-07T08:05:07Z</time>
      </trkpt>
      <trkpt lat="41.191193" lon="1.448721">
        <ele>17.0</ele>
        <time>2014-12-07T08:05:09Z</time>
      </trkpt>
      <trkpt lat="41.191216" lon="1.448700">
        <ele>17.4</ele>
        <time>2014-12-07T08:05:10Z</time>
      </trkpt>
      <trkpt lat="41.191242" lon="1.448679">
        <ele>17.8</ele>
        <time>2014-12-07T08:05:11Z</time>
      </trkpt>
      <trkpt lat="41.191273" lon="1.448656">
        <ele>18.2</ele>
        <time>2014-12-07T08:05:12Z</time>
      </trkpt>
      <trkpt lat="41.191299" lon="1.448631">
        <ele>18.6</ele>
        <time>2014-12-07T08:05:13Z</time>
      </trkpt>
      <trkpt lat="41.191406" lon="1.448535">
        <ele>18.6</ele>
        <time>2014-12-07T08:05:17Z</time>
      </trkpt>
      <trkpt lat="41.191467" lon="1.448499">
        <ele>19.0</ele>
        <time>2014-12-07T08:05:19Z</time>
      </trkpt>
      <trkpt lat="41.191498" lon="1.448484">
        <ele>19.4</ele>
        <time>2014-12-07T08:05:20Z</time>
      </trkpt>
      <trkpt lat="41.191525" lon="1.448471">
        <ele>20.0</ele>
        <time>2014-12-07T08:05:21Z</time>
      </trkpt>
      <trkpt lat="41.191559" lon="1.448461">
        <ele>20.4</ele>
        <time>2014-12-07T08:05:22Z</time>
      </trkpt>
      <trkpt lat="41.191593" lon="1.448449">
        <ele>20.8</ele>
        <time>2014-12-07T08:05:23Z</time>
      </trkpt>
      <trkpt lat="41.191624" lon="1.448436">
        <ele>20.8</ele>
        <time>2014-12-07T08:05:24Z</time>
      </trkpt>
      <trkpt lat="41.191769" lon="1.448277">
        <ele>20.8</ele>
        <time>2014-12-07T08:05:30Z</time>
      </trkpt>
      <trkpt lat="41.191830" lon="1.448129">
        <ele>21.2</ele>
        <time>2014-12-07T08:05:34Z</time>
      </trkpt>
      <trkpt lat="41.191856" lon="1.448109">
        <ele>21.6</ele>
        <time>2014-12-07T08:05:35Z</time>
      </trkpt>
      <trkpt lat="41.191887" lon="1.448095">
        <ele>22.0</ele>
        <time>2014-12-07T08:05:36Z</time>
      </trkpt>
      <trkpt lat="41.191921" lon="1.448089">
        <ele>22.4</ele>
        <time>2014-12-07T08:05:37Z</time>
      </trkpt>
      <trkpt lat="41.191948" lon="1.448088">
        <ele>23.0</ele>
        <time>2014-12-07T08:05:38Z</time>
      </trkpt>
      <trkpt lat="41.192017" lon="1.448106">
        <ele>23.0</ele>
        <time>2014-12-07T08:05:40Z</time>
      </trkpt>
      <trkpt lat="41.192093" lon="1.448131">
        <ele>23.0</ele>
        <time>2014-12-07T08:05:42Z</time>
      </trkpt>
      <trkpt lat="41.192207" lon="1.448145">
        <ele>23.0</ele>
        <time>2014-12-07T08:05:45Z</time>
      </trkpt>
      <trkpt lat="41.192284" lon="1.448125">
        <ele>23.0</ele>
        <time>2014-12-07T08:05:47Z</time>
      </trkpt>
      <trkpt lat="41.192402" lon="1.448055">
        <ele>23.0</ele>
        <time>2014-12-07T08:05:50Z</time>
      </trkpt>
      <trkpt lat="41.192448" lon="1.448041">
        <ele>23.0</ele>
        <time>2014-12-07T08:05:51Z</time>
      </trkpt>
      <trkpt lat="41.192616" lon="1.448032">
        <ele>23.0</ele>
        <time>2014-12-07T08:05:55Z</time>
      </trkpt>
      <trkpt lat="41.192871" lon="1.448017">
        <ele>23.0</ele>
        <time>2014-12-07T08:06:02Z</time>
      </trkpt>
      <trkpt lat="41.192989" lon="1.448004">
        <ele>23.4</ele>
        <time>2014-12-07T08:06:05Z</time>
      </trkpt>
      <trkpt lat="41.193027" lon="1.447999">
        <ele>23.8</ele>
        <time>2014-12-07T08:06:06Z</time>
      </trkpt>
      <trkpt lat="41.193062" lon="1.447996">
        <ele>24.2</ele>
        <time>2014-12-07T08:06:07Z</time>
      </trkpt>
      <trkpt lat="41.193100" lon="1.447993">
        <ele>24.6</ele>
        <time>2014-12-07T08:06:08Z</time>
      </trkpt>
      <trkpt lat="41.193134" lon="1.447985">
        <ele>25.0</ele>
        <time>2014-12-07T08:06:09Z</time>
      </trkpt>
      <trkpt lat="41.193275" lon="1.447965">
        <ele>25.4</ele>
        <time>2014-12-07T08:06:13Z</time>
      </trkpt>
      <trkpt lat="41.193306" lon="1.447963">
        <ele>25.8</ele>
        <time>2014-12-07T08:06:14Z</time>
      </trkpt>
      <trkpt lat="41.193340" lon="1.447961">
        <ele>26.2</ele>
        <time>2014-12-07T08:06:15Z</time>
      </trkpt>
      <trkpt lat="41.193375" lon="1.447963">
        <ele>26.6</ele>
        <time>2014-12-07T08:06:16Z</time>
      </trkpt>
      <trkpt lat="41.193405" lon="1.447969">
        <ele>27.0</ele>
        <time>2014-12-07T08:06:17Z</time>
      </trkpt>
      <trkpt lat="41.193497" lon="1.447975">
        <ele>27.4</ele>
        <time>2014-12-07T08:06:20Z</time>
      </trkpt>
      <trkpt lat="41.193531" lon="1.447968">
        <ele>28.4</ele>
        <time>2014-12-07T08:06:21Z</time>
      </trkpt>
      <trkpt lat="41.193562" lon="1.447949">
        <ele>28.8</ele>
        <time>2014-12-07T08:06:22Z</time>
      </trkpt>
      <trkpt lat="41.193588" lon="1.447931">
        <ele>29.2</ele>
        <time>2014-12-07T08:06:23Z</time>
      </trkpt>
      <trkpt lat="41.193615" lon="1.447913">
        <ele>29.6</ele>
        <time>2014-12-07T08:06:24Z</time>
      </trkpt>
      <trkpt lat="41.193642" lon="1.447893">
        <ele>30.0</ele>
        <time>2014-12-07T08:06:25Z</time>
      </trkpt>
      <trkpt lat="41.193668" lon="1.447873">
        <ele>30.4</ele>
        <time>2014-12-07T08:06:26Z</time>
      </trkpt>
      <trkpt lat="41.193703" lon="1.447855">
        <ele>31.0</ele>
        <time>2014-12-07T08:06:27Z</time>
      </trkpt>
      <trkpt lat="41.193729" lon="1.447836">
        <ele>31.4</ele>
        <time>2014-12-07T08:06:28Z</time>
      </trkpt>
      <trkpt lat="41.193821" lon="1.447781">
        <ele>31.4</ele>
        <time>2014-12-07T08:06:31Z</time>
      </trkpt>
      <trkpt lat="41.194023" lon="1.447686">
        <ele>31.4</ele>
        <time>2014-12-07T08:06:37Z</time>
      </trkpt>
      <trkpt lat="41.194237" lon="1.447567">
        <ele>31.4</ele>
        <time>2014-12-07T08:06:43Z</time>
      </trkpt>
      <trkpt lat="41.194271" lon="1.447540">
        <ele>31.4</ele>
        <time>2014-12-07T08:06:44Z</time>
      </trkpt>
      <trkpt lat="41.194447" lon="1.447393">
        <ele>31.4</ele>
        <time>2014-12-07T08:06:48Z</time>
      </trkpt>
      <trkpt lat="41.194508" lon="1.447238">
        <ele>31.4</ele>
        <time>2014-12-07T08:06:51Z</time>
      </trkpt>
      <trkpt lat="41.194542" lon="1.447150">
        <ele>30.8</ele>
        <time>2014-12-07T08:06:53Z</time>
      </trkpt>
      <trkpt lat="41.194569" lon="1.447110">
        <ele>30.4</ele>
        <time>2014-12-07T08:06:54Z</time>
      </trkpt>
      <trkpt lat="41.194595" lon="1.447078">
        <ele>30.0</ele>
        <time>2014-12-07T08:06:55Z</time>
      </trkpt>
      <trkpt lat="41.194633" lon="1.447054">
        <ele>29.6</ele>
        <time>2014-12-07T08:06:56Z</time>
      </trkpt>
      <trkpt lat="41.194675" lon="1.447044">
        <ele>29.0</ele>
        <time>2014-12-07T08:06:57Z</time>
      </trkpt>
      <trkpt lat="41.194767" lon="1.447059">
        <ele>29.0</ele>
        <time>2014-12-07T08:06:59Z</time>
      </trkpt>
      <trkpt lat="41.194923" lon="1.447080">
        <ele>29.0</ele>
        <time>2014-12-07T08:07:03Z</time>
      </trkpt>
      <trkpt lat="41.194958" lon="1.447071">
        <ele>29.0</ele>
        <time>2014-12-07T08:07:04Z</time>
      </trkpt>
      <trkpt lat="41.195030" lon="1.447047">
        <ele>29.6</ele>
        <time>2014-12-07T08:07:06Z</time>
      </trkpt>
      <trkpt lat="41.195068" lon="1.447028">
        <ele>30.0</ele>
        <time>2014-12-07T08:07:07Z</time>
      </trkpt>
      <trkpt lat="41.195103" lon="1.447008">
        <ele>30.4</ele>
        <time>2014-12-07T08:07:08Z</time>
      </trkpt>
      <trkpt lat="41.195137" lon="1.446984">
        <ele>30.8</ele>
        <time>2014-12-07T08:07:09Z</time>
      </trkpt>
      <trkpt lat="41.195168" lon="1.446963">
        <ele>31.4</ele>
        <time>2014-12-07T08:07:10Z</time>
      </trkpt>
      <trkpt lat="41.195332" lon="1.446815">
        <ele>31.4</ele>
        <time>2014-12-07T08:07:16Z</time>
      </trkpt>
      <trkpt lat="41.195431" lon="1.446691">
        <ele>31.8</ele>
        <time>2014-12-07T08:07:21Z</time>
      </trkpt>
      <trkpt lat="41.195457" lon="1.446668">
        <ele>32.2</ele>
        <time>2014-12-07T08:07:22Z</time>
      </trkpt>
      <trkpt lat="41.195488" lon="1.446649">
        <ele>32.6</ele>
        <time>2014-12-07T08:07:23Z</time>
      </trkpt>
      <trkpt lat="41.195515" lon="1.446629">
        <ele>33.0</ele>
        <time>2014-12-07T08:07:24Z</time>
      </trkpt>
      <trkpt lat="41.195545" lon="1.446609">
        <ele>33.4</ele>
        <time>2014-12-07T08:07:25Z</time>
      </trkpt>
      <trkpt lat="41.195637" lon="1.446561">
        <ele>33.4</ele>
        <time>2014-12-07T08:07:28Z</time>
      </trkpt>
      <trkpt lat="41.195801" lon="1.446450">
        <ele>33.4</ele>
        <time>2014-12-07T08:07:33Z</time>
      </trkpt>
      <trkpt lat="41.195980" lon="1.446374">
        <ele>33.4</ele>
        <time>2014-12-07T08:07:38Z</time>
      </trkpt>
      <trkpt lat="41.196175" lon="1.446368">
        <ele>33.8</ele>
        <time>2014-12-07T08:07:43Z</time>
      </trkpt>
      <trkpt lat="41.196213" lon="1.446380">
        <ele>34.4</ele>
        <time>2014-12-07T08:07:44Z</time>
      </trkpt>
      <trkpt lat="41.196251" lon="1.446393">
        <ele>34.8</ele>
        <time>2014-12-07T08:07:45Z</time>
      </trkpt>
      <trkpt lat="41.196285" lon="1.446406">
        <ele>35.2</ele>
        <time>2014-12-07T08:07:46Z</time>
      </trkpt>
      <trkpt lat="41.196323" lon="1.446422">
        <ele>35.6</ele>
        <time>2014-12-07T08:07:47Z</time>
      </trkpt>
      <trkpt lat="41.196419" lon="1.446466">
        <ele>35.6</ele>
        <time>2014-12-07T08:07:50Z</time>
      </trkpt>
      <trkpt lat="41.196575" lon="1.446522">
        <ele>36.0</ele>
        <time>2014-12-07T08:07:56Z</time>
      </trkpt>
      <trkpt lat="41.196602" lon="1.446524">
        <ele>36.4</ele>
        <time>2014-12-07T08:07:57Z</time>
      </trkpt>
      <trkpt lat="41.196636" lon="1.446524">
        <ele>36.8</ele>
        <time>2014-12-07T08:07:58Z</time>
      </trkpt>
      <trkpt lat="41.196667" lon="1.446528">
        <ele>37.2</ele>
        <time>2014-12-07T08:07:59Z</time>
      </trkpt>
      <trkpt lat="41.196693" lon="1.446534">
        <ele>37.6</ele>
        <time>2014-12-07T08:08:00Z</time>
      </trkpt>
      <trkpt lat="41.196720" lon="1.446528">
        <ele>37.6</ele>
        <time>2014-12-07T08:08:01Z</time>
      </trkpt>
      <trkpt lat="41.196747" lon="1.446511">
        <ele>37.6</ele>
        <time>2014-12-07T08:08:02Z</time>
      </trkpt>
      <trkpt lat="41.196785" lon="1.446403">
        <ele>37.6</ele>
        <time>2014-12-07T08:08:06Z</time>
      </trkpt>
      <trkpt lat="41.196808" lon="1.446281">
        <ele>37.6</ele>
        <time>2014-12-07T08:08:10Z</time>
      </trkpt>
      <trkpt lat="41.196812" lon="1.446250">
        <ele>38.2</ele>
        <time>2014-12-07T08:08:11Z</time>
      </trkpt>
      <trkpt lat="41.196819" lon="1.446223">
        <ele>38.6</ele>
        <time>2014-12-07T08:08:12Z</time>
      </trkpt>
      <trkpt lat="41.196835" lon="1.446195">
        <ele>39.2</ele>
        <time>2014-12-07T08:08:13Z</time>
      </trkpt>
      <trkpt lat="41.196846" lon="1.446172">
        <ele>39.6</ele>
        <time>2014-12-07T08:08:14Z</time>
      </trkpt>
      <trkpt lat="41.196857" lon="1.446150">
        <ele>40.2</ele>
        <time>2014-12-07T08:08:15Z</time>
      </trkpt>
      <trkpt lat="41.196873" lon="1.446125">
        <ele>40.8</ele>
        <time>2014-12-07T08:08:16Z</time>
      </trkpt>
      <trkpt lat="41.196892" lon="1.446099">
        <ele>41.2</ele>
        <time>2014-12-07T08:08:17Z</time>
      </trkpt>
      <trkpt lat="41.196915" lon="1.446080">
        <ele>41.8</ele>
        <time>2014-12-07T08:08:18Z</time>
      </trkpt>
      <trkpt lat="41.196938" lon="1.446062">
        <ele>42.2</ele>
        <time>2014-12-07T08:08:19Z</time>
      </trkpt>
      <trkpt lat="41.196999" lon="1.446013">
        <ele>42.2</ele>
        <time>2014-12-07T08:08:22Z</time>
      </trkpt>
      <trkpt lat="41.197052" lon="1.445995">
        <ele>42.8</ele>
        <time>2014-12-07T08:08:24Z</time>
      </trkpt>
      <trkpt lat="41.197075" lon="1.445985">
        <ele>43.6</ele>
        <time>2014-12-07T08:08:25Z</time>
      </trkpt>
      <trkpt lat="41.197098" lon="1.445970">
        <ele>44.0</ele>
        <time>2014-12-07T08:08:26Z</time>
      </trkpt>
      <trkpt lat="41.197128" lon="1.445959">
        <ele>44.4</ele>
        <time>2014-12-07T08:08:27Z</time>
      </trkpt>
      <trkpt lat="41.197205" lon="1.445953">
        <ele>44.8</ele>
        <time>2014-12-07T08:08:30Z</time>
      </trkpt>
      <trkpt lat="41.197235" lon="1.445955">
        <ele>45.4</ele>
        <time>2014-12-07T08:08:31Z</time>
      </trkpt>
      <trkpt lat="41.197258" lon="1.445962">
        <ele>45.8</ele>
        <time>2014-12-07T08:08:32Z</time>
      </trkpt>
      <trkpt lat="41.197285" lon="1.445969">
        <ele>46.2</ele>
        <time>2014-12-07T08:08:33Z</time>
      </trkpt>
      <trkpt lat="41.197308" lon="1.445982">
        <ele>46.6</ele>
        <time>2014-12-07T08:08:34Z</time>
      </trkpt>
      <trkpt lat="41.197388" lon="1.446032">
        <ele>47.2</ele>
        <time>2014-12-07T08:08:37Z</time>
      </trkpt>
      <trkpt lat="41.197414" lon="1.446041">
        <ele>47.6</ele>
        <time>2014-12-07T08:08:38Z</time>
      </trkpt>
      <trkpt lat="41.197445" lon="1.446042">
        <ele>48.0</ele>
        <time>2014-12-07T08:08:39Z</time>
      </trkpt>
      <trkpt lat="41.197472" lon="1.446044">
        <ele>48.6</ele>
        <time>2014-12-07T08:08:40Z</time>
      </trkpt>
      <trkpt lat="41.197502" lon="1.446048">
        <ele>49.0</ele>
        <time>2014-12-07T08:08:41Z</time>
      </trkpt>
      <trkpt lat="41.197559" lon="1.446058">
        <ele>49.4</ele>
        <time>2014-12-07T08:08:43Z</time>
      </trkpt>
      <trkpt lat="41.197586" lon="1.446062">
        <ele>50.0</ele>
        <time>2014-12-07T08:08:44Z</time>
      </trkpt>
      <trkpt lat="41.197617" lon="1.446063">
        <ele>50.4</ele>
        <time>2014-12-07T08:08:45Z</time>
      </trkpt>
      <trkpt lat="41.197643" lon="1.446063">
        <ele>50.8</ele>
        <time>2014-12-07T08:08:46Z</time>
      </trkpt>
      <trkpt lat="41.197670" lon="1.446067">
        <ele>51.4</ele>
        <time>2014-12-07T08:08:47Z</time>
      </trkpt>
      <trkpt lat="41.197727" lon="1.446075">
        <ele>51.4</ele>
        <time>2014-12-07T08:08:49Z</time>
      </trkpt>
      <trkpt lat="41.197803" lon="1.446060">
        <ele>51.8</ele>
        <time>2014-12-07T08:08:52Z</time>
      </trkpt>
      <trkpt lat="41.197830" lon="1.446046">
        <ele>52.2</ele>
        <time>2014-12-07T08:08:53Z</time>
      </trkpt>
      <trkpt lat="41.197857" lon="1.446032">
        <ele>52.6</ele>
        <time>2014-12-07T08:08:54Z</time>
      </trkpt>
      <trkpt lat="41.197880" lon="1.446021">
        <ele>53.0</ele>
        <time>2014-12-07T08:08:55Z</time>
      </trkpt>
      <trkpt lat="41.197903" lon="1.446018">
        <ele>53.4</ele>
        <time>2014-12-07T08:08:56Z</time>
      </trkpt>
      <trkpt lat="41.197975" lon="1.445993">
        <ele>53.8</ele>
        <time>2014-12-07T08:08:59Z</time>
      </trkpt>
      <trkpt lat="41.198002" lon="1.445975">
        <ele>54.4</ele>
        <time>2014-12-07T08:09:00Z</time>
      </trkpt>
      <trkpt lat="41.198029" lon="1.445956">
        <ele>54.8</ele>
        <time>2014-12-07T08:09:01Z</time>
      </trkpt>
      <trkpt lat="41.198059" lon="1.445936">
        <ele>55.2</ele>
        <time>2014-12-07T08:09:02Z</time>
      </trkpt>
      <trkpt lat="41.198086" lon="1.445915">
        <ele>55.8</ele>
        <time>2014-12-07T08:09:03Z</time>
      </trkpt>
      <trkpt lat="41.198200" lon="1.445796">
        <ele>55.8</ele>
        <time>2014-12-07T08:09:07Z</time>
      </trkpt>
      <trkpt lat="41.198364" lon="1.445556">
        <ele>55.8</ele>
        <time>2014-12-07T08:09:14Z</time>
      </trkpt>
      <trkpt lat="41.198444" lon="1.445406">
        <ele>55.8</ele>
        <time>2014-12-07T08:09:18Z</time>
      </trkpt>
      <trkpt lat="41.198521" lon="1.445207">
        <ele>55.8</ele>
        <time>2014-12-07T08:09:23Z</time>
      </trkpt>
      <trkpt lat="41.198627" lon="1.445096">
        <ele>55.8</ele>
        <time>2014-12-07T08:09:27Z</time>
      </trkpt>
      <trkpt lat="41.198742" lon="1.445037">
        <ele>55.8</ele>
        <time>2014-12-07T08:09:32Z</time>
      </trkpt>
      <trkpt lat="41.198830" lon="1.444949">
        <ele>55.8</ele>
        <time>2014-12-07T08:09:38Z</time>
      </trkpt>
      <trkpt lat="41.198887" lon="1.444889">
        <ele>56.2</ele>
        <time>2014-12-07T08:09:42Z</time>
      </trkpt>
      <trkpt lat="41.198914" lon="1.444869">
        <ele>56.6</ele>
        <time>2014-12-07T08:09:43Z</time>
      </trkpt>
      <trkpt lat="41.198933" lon="1.444854">
        <ele>57.2</ele>
        <time>2014-12-07T08:09:44Z</time>
      </trkpt>
      <trkpt lat="41.198959" lon="1.444846">
        <ele>57.6</ele>
        <time>2014-12-07T08:09:45Z</time>
      </trkpt>
      <trkpt lat="41.198994" lon="1.444843">
        <ele>58.0</ele>
        <time>2014-12-07T08:09:46Z</time>
      </trkpt>
      <trkpt lat="41.199024" lon="1.444831">
        <ele>58.0</ele>
        <time>2014-12-07T08:09:47Z</time>
      </trkpt>
      <trkpt lat="41.199169" lon="1.444767">
        <ele>58.0</ele>
        <time>2014-12-07T08:09:51Z</time>
      </trkpt>
      <trkpt lat="41.199314" lon="1.444657">
        <ele>58.0</ele>
        <time>2014-12-07T08:09:55Z</time>
      </trkpt>
      <trkpt lat="41.199421" lon="1.444598">
        <ele>58.0</ele>
        <time>2014-12-07T08:09:59Z</time>
      </trkpt>
      <trkpt lat="41.199532" lon="1.444605">
        <ele>58.0</ele>
        <time>2014-12-07T08:10:03Z</time>
      </trkpt>
      <trkpt lat="41.199692" lon="1.444602">
        <ele>58.0</ele>
        <time>2014-12-07T08:10:08Z</time>
      </trkpt>
      <trkpt lat="41.199791" lon="1.444545">
        <ele>58.0</ele>
        <time>2014-12-07T08:10:14Z</time>
      </trkpt>
      <trkpt lat="41.199894" lon="1.444515">
        <ele>58.4</ele>
        <time>2014-12-07T08:10:19Z</time>
      </trkpt>
      <trkpt lat="41.199917" lon="1.444515">
        <ele>58.8</ele>
        <time>2014-12-07T08:10:20Z</time>
      </trkpt>
      <trkpt lat="41.199944" lon="1.444509">
        <ele>59.4</ele>
        <time>2014-12-07T08:10:21Z</time>
      </trkpt>
      <trkpt lat="41.199978" lon="1.444502">
        <ele>59.8</ele>
        <time>2014-12-07T08:10:22Z</time>
      </trkpt>
      <trkpt lat="41.200008" lon="1.444492">
        <ele>60.2</ele>
        <time>2014-12-07T08:10:23Z</time>
      </trkpt>
      <trkpt lat="41.200047" lon="1.444475">
        <ele>60.2</ele>
        <time>2014-12-07T08:10:24Z</time>
      </trkpt>
      <trkpt lat="41.200127" lon="1.444436">
        <ele>60.2</ele>
        <time>2014-12-07T08:10:26Z</time>
      </trkpt>
      <trkpt lat="41.200214" lon="1.444341">
        <ele>60.2</ele>
        <time>2014-12-07T08:10:29Z</time>
      </trkpt>
      <trkpt lat="41.200245" lon="1.444219">
        <ele>60.2</ele>
        <time>2014-12-07T08:10:33Z</time>
      </trkpt>
      <trkpt lat="41.200329" lon="1.444145">
        <ele>60.6</ele>
        <time>2014-12-07T08:10:37Z</time>
      </trkpt>
      <trkpt lat="41.200352" lon="1.444150">
        <ele>61.0</ele>
        <time>2014-12-07T08:10:38Z</time>
      </trkpt>
      <trkpt lat="41.200375" lon="1.444157">
        <ele>61.4</ele>
        <time>2014-12-07T08:10:39Z</time>
      </trkpt>
      <trkpt lat="41.200397" lon="1.444160">
        <ele>61.8</ele>
        <time>2014-12-07T08:10:40Z</time>
      </trkpt>
      <trkpt lat="41.200420" lon="1.444162">
        <ele>62.2</ele>
        <time>2014-12-07T08:10:41Z</time>
      </trkpt>
      <trkpt lat="41.200439" lon="1.444154">
        <ele>62.2</ele>
        <time>2014-12-07T08:10:42Z</time>
      </trkpt>
      <trkpt lat="41.200531" lon="1.444105">
        <ele>62.2</ele>
        <time>2014-12-07T08:10:47Z</time>
      </trkpt>
      <trkpt lat="41.200542" lon="1.444083">
        <ele>62.2</ele>
        <time>2014-12-07T08:10:48Z</time>
      </trkpt>
      <trkpt lat="41.200554" lon="1.444058">
        <ele>62.6</ele>
        <time>2014-12-07T08:10:49Z</time>
      </trkpt>
      <trkpt lat="41.200565" lon="1.444039">
        <ele>63.0</ele>
        <time>2014-12-07T08:10:50Z</time>
      </trkpt>
      <trkpt lat="41.200577" lon="1.444023">
        <ele>63.4</ele>
        <time>2014-12-07T08:10:51Z</time>
      </trkpt>
      <trkpt lat="41.200588" lon="1.444007">
        <ele>63.8</ele>
        <time>2014-12-07T08:10:52Z</time>
      </trkpt>
      <trkpt lat="41.200603" lon="1.443988">
        <ele>64.4</ele>
        <time>2014-12-07T08:10:53Z</time>
      </trkpt>
      <trkpt lat="41.200642" lon="1.443956">
        <ele>64.8</ele>
        <time>2014-12-07T08:10:55Z</time>
      </trkpt>
      <trkpt lat="41.200661" lon="1.443940">
        <ele>65.2</ele>
        <time>2014-12-07T08:10:56Z</time>
      </trkpt>
      <trkpt lat="41.200676" lon="1.443929">
        <ele>65.6</ele>
        <time>2014-12-07T08:10:57Z</time>
      </trkpt>
      <trkpt lat="41.200695" lon="1.443921">
        <ele>66.0</ele>
        <time>2014-12-07T08:10:58Z</time>
      </trkpt>
      <trkpt lat="41.200722" lon="1.443923">
        <ele>66.4</ele>
        <time>2014-12-07T08:10:59Z</time>
      </trkpt>
      <trkpt lat="41.200752" lon="1.443946">
        <ele>66.4</ele>
        <time>2014-12-07T08:11:00Z</time>
      </trkpt>
      <trkpt lat="41.200802" lon="1.444022">
        <ele>66.4</ele>
        <time>2014-12-07T08:11:02Z</time>
      </trkpt>
      <trkpt lat="41.200840" lon="1.444082">
        <ele>66.4</ele>
        <time>2014-12-07T08:11:04Z</time>
      </trkpt>
      <trkpt lat="41.200935" lon="1.444191">
        <ele>66.4</ele>
        <time>2014-12-07T08:11:09Z</time>
      </trkpt>
      <trkpt lat="41.201061" lon="1.444279">
        <ele>66.8</ele>
        <time>2014-12-07T08:11:14Z</time>
      </trkpt>
      <trkpt lat="41.201092" lon="1.444293">
        <ele>67.4</ele>
        <time>2014-12-07T08:11:15Z</time>
      </trkpt>
      <trkpt lat="41.201122" lon="1.444307">
        <ele>67.8</ele>
        <time>2014-12-07T08:11:16Z</time>
      </trkpt>
      <trkpt lat="41.201153" lon="1.444324">
        <ele>68.2</ele>
        <time>2014-12-07T08:11:17Z</time>
      </trkpt>
      <trkpt lat="41.201180" lon="1.444341">
        <ele>68.8</ele>
        <time>2014-12-07T08:11:18Z</time>
      </trkpt>
      <trkpt lat="41.201256" lon="1.444386">
        <ele>68.8</ele>
        <time>2014-12-07T08:11:21Z</time>
      </trkpt>
      <trkpt lat="41.201309" lon="1.444410">
        <ele>69.2</ele>
        <time>2014-12-07T08:11:23Z</time>
      </trkpt>
      <trkpt lat="41.201336" lon="1.444416">
        <ele>69.6</ele>
        <time>2014-12-07T08:11:24Z</time>
      </trkpt>
      <trkpt lat="41.201363" lon="1.444421">
        <ele>70.0</ele>
        <time>2014-12-07T08:11:25Z</time>
      </trkpt>
      <trkpt lat="41.201382" lon="1.444427">
        <ele>70.4</ele>
        <time>2014-12-07T08:11:26Z</time>
      </trkpt>
      <trkpt lat="41.201408" lon="1.444437">
        <ele>70.8</ele>
        <time>2014-12-07T08:11:27Z</time>
      </trkpt>
      <trkpt lat="41.201481" lon="1.444453">
        <ele>71.2</ele>
        <time>2014-12-07T08:11:30Z</time>
      </trkpt>
      <trkpt lat="41.201500" lon="1.444459">
        <ele>71.6</ele>
        <time>2014-12-07T08:11:31Z</time>
      </trkpt>
      <trkpt lat="41.201519" lon="1.444462">
        <ele>72.0</ele>
        <time>2014-12-07T08:11:32Z</time>
      </trkpt>
      <trkpt lat="41.201542" lon="1.444460">
        <ele>72.6</ele>
        <time>2014-12-07T08:11:33Z</time>
      </trkpt>
      <trkpt lat="41.201561" lon="1.444458">
        <ele>73.0</ele>
        <time>2014-12-07T08:11:34Z</time>
      </trkpt>
      <trkpt lat="41.201614" lon="1.444459">
        <ele>73.0</ele>
        <time>2014-12-07T08:11:37Z</time>
      </trkpt>
      <trkpt lat="41.201630" lon="1.444463">
        <ele>73.0</ele>
        <time>2014-12-07T08:11:38Z</time>
      </trkpt>
      <trkpt lat="41.201706" lon="1.444476">
        <ele>74.0</ele>
        <time>2014-12-07T08:11:42Z</time>
      </trkpt>
      <trkpt lat="41.201721" lon="1.444478">
        <ele>74.4</ele>
        <time>2014-12-07T08:11:43Z</time>
      </trkpt>
      <trkpt lat="41.201736" lon="1.444486">
        <ele>75.0</ele>
        <time>2014-12-07T08:11:44Z</time>
      </trkpt>
      <trkpt lat="41.201756" lon="1.444490">
        <ele>75.4</ele>
        <time>2014-12-07T08:11:45Z</time>
      </trkpt>
      <trkpt lat="41.201790" lon="1.444490">
        <ele>75.4</ele>
        <time>2014-12-07T08:11:47Z</time>
      </trkpt>
      <trkpt lat="41.201862" lon="1.444501">
        <ele>75.4</ele>
        <time>2014-12-07T08:11:52Z</time>
      </trkpt>
      <trkpt lat="41.201950" lon="1.444541">
        <ele>75.4</ele>
        <time>2014-12-07T08:11:57Z</time>
      </trkpt>
      <trkpt lat="41.201969" lon="1.444555">
        <ele>75.8</ele>
        <time>2014-12-07T08:11:58Z</time>
      </trkpt>
      <trkpt lat="41.201988" lon="1.444554">
        <ele>76.4</ele>
        <time>2014-12-07T08:11:59Z</time>
      </trkpt>
      <trkpt lat="41.202011" lon="1.444540">
        <ele>76.8</ele>
        <time>2014-12-07T08:12:00Z</time>
      </trkpt>
      <trkpt lat="41.202026" lon="1.444520">
        <ele>77.2</ele>
        <time>2014-12-07T08:12:01Z</time>
      </trkpt>
      <trkpt lat="41.202045" lon="1.444503">
        <ele>77.6</ele>
        <time>2014-12-07T08:12:02Z</time>
      </trkpt>
      <trkpt lat="41.202068" lon="1.444487">
        <ele>77.6</ele>
        <time>2014-12-07T08:12:03Z</time>
      </trkpt>
      <trkpt lat="41.202099" lon="1.444459">
        <ele>78.0</ele>
        <time>2014-12-07T08:12:05Z</time>
      </trkpt>
      <trkpt lat="41.202114" lon="1.444443">
        <ele>78.6</ele>
        <time>2014-12-07T08:12:06Z</time>
      </trkpt>
      <trkpt lat="41.202133" lon="1.444429">
        <ele>79.4</ele>
        <time>2014-12-07T08:12:07Z</time>
      </trkpt>
      <trkpt lat="41.202145" lon="1.444419">
        <ele>79.8</ele>
        <time>2014-12-07T08:12:08Z</time>
      </trkpt>
      <trkpt lat="41.202202" lon="1.444423">
        <ele>79.8</ele>
        <time>2014-12-07T08:12:11Z</time>
      </trkpt>
      <trkpt lat="41.202278" lon="1.444390">
        <ele>79.8</ele>
        <time>2014-12-07T08:12:15Z</time>
      </trkpt>
      <trkpt lat="41.202293" lon="1.444379">
        <ele>79.8</ele>
        <time>2014-12-07T08:12:16Z</time>
      </trkpt>
      <trkpt lat="41.202320" lon="1.444346">
        <ele>80.2</ele>
        <time>2014-12-07T08:12:18Z</time>
      </trkpt>
      <trkpt lat="41.202335" lon="1.444330">
        <ele>80.6</ele>
        <time>2014-12-07T08:12:19Z</time>
      </trkpt>
      <trkpt lat="41.202358" lon="1.444317">
        <ele>81.0</ele>
        <time>2014-12-07T08:12:20Z</time>
      </trkpt>
      <trkpt lat="41.202377" lon="1.444303">
        <ele>81.4</ele>
        <time>2014-12-07T08:12:21Z</time>
      </trkpt>
      <trkpt lat="41.202400" lon="1.444287">
        <ele>81.8</ele>
        <time>2014-12-07T08:12:22Z</time>
      </trkpt>
      <trkpt lat="41.202480" lon="1.444247">
        <ele>81.8</ele>
        <time>2014-12-07T08:12:26Z</time>
      </trkpt>
      <trkpt lat="41.202591" lon="1.444170">
        <ele>82.2</ele>
        <time>2014-12-07T08:12:32Z</time>
      </trkpt>
      <trkpt lat="41.202606" lon="1.444162">
        <ele>82.8</ele>
        <time>2014-12-07T08:12:33Z</time>
      </trkpt>
      <trkpt lat="41.202621" lon="1.444149">
        <ele>83.2</ele>
        <time>2014-12-07T08:12:34Z</time>
      </trkpt>
      <trkpt lat="41.202641" lon="1.444140">
        <ele>83.6</ele>
        <time>2014-12-07T08:12:35Z</time>
      </trkpt>
      <trkpt lat="41.202663" lon="1.444129">
        <ele>84.0</ele>
        <time>2014-12-07T08:12:36Z</time>
      </trkpt>
      <trkpt lat="41.202679" lon="1.444117">
        <ele>84.0</ele>
        <time>2014-12-07T08:12:37Z</time>
      </trkpt>
      <trkpt lat="41.202721" lon="1.444097">
        <ele>84.4</ele>
        <time>2014-12-07T08:12:39Z</time>
      </trkpt>
      <trkpt lat="41.202740" lon="1.444091">
        <ele>84.8</ele>
        <time>2014-12-07T08:12:40Z</time>
      </trkpt>
      <trkpt lat="41.202759" lon="1.444082">
        <ele>85.2</ele>
        <time>2014-12-07T08:12:41Z</time>
      </trkpt>
      <trkpt lat="41.202778" lon="1.444069">
        <ele>85.6</ele>
        <time>2014-12-07T08:12:42Z</time>
      </trkpt>
      <trkpt lat="41.202797" lon="1.444055">
        <ele>86.0</ele>
        <time>2014-12-07T08:12:43Z</time>
      </trkpt>
      <trkpt lat="41.202850" lon="1.444031">
        <ele>86.0</ele>
        <time>2014-12-07T08:12:46Z</time>
      </trkpt>
      <trkpt lat="41.202896" lon="1.444016">
        <ele>86.4</ele>
        <time>2014-12-07T08:12:48Z</time>
      </trkpt>
      <trkpt lat="41.202919" lon="1.444003">
        <ele>86.8</ele>
        <time>2014-12-07T08:12:49Z</time>
      </trkpt>
      <trkpt lat="41.202942" lon="1.443995">
        <ele>87.2</ele>
        <time>2014-12-07T08:12:50Z</time>
      </trkpt>
      <trkpt lat="41.202961" lon="1.443982">
        <ele>87.6</ele>
        <time>2014-12-07T08:12:51Z</time>
      </trkpt>
      <trkpt lat="41.202980" lon="1.443970">
        <ele>88.0</ele>
        <time>2014-12-07T08:12:52Z</time>
      </trkpt>
      <trkpt lat="41.202999" lon="1.443963">
        <ele>88.0</ele>
        <time>2014-12-07T08:12:53Z</time>
      </trkpt>
      <trkpt lat="41.203087" lon="1.443926">
        <ele>89.0</ele>
        <time>2014-12-07T08:12:57Z</time>
      </trkpt>
      <trkpt lat="41.203106" lon="1.443915">
        <ele>89.6</ele>
        <time>2014-12-07T08:12:58Z</time>
      </trkpt>
      <trkpt lat="41.203125" lon="1.443902">
        <ele>90.0</ele>
        <time>2014-12-07T08:12:59Z</time>
      </trkpt>
      <trkpt lat="41.203144" lon="1.443889">
        <ele>90.6</ele>
        <time>2014-12-07T08:13:00Z</time>
      </trkpt>
      <trkpt lat="41.203224" lon="1.443839">
        <ele>90.6</ele>
        <time>2014-12-07T08:13:04Z</time>
      </trkpt>
      <trkpt lat="41.203285" lon="1.443805">
        <ele>91.0</ele>
        <time>2014-12-07T08:13:07Z</time>
      </trkpt>
      <trkpt lat="41.203308" lon="1.443781">
        <ele>91.4</ele>
        <time>2014-12-07T08:13:08Z</time>
      </trkpt>
      <trkpt lat="41.203327" lon="1.443758">
        <ele>91.8</ele>
        <time>2014-12-07T08:13:09Z</time>
      </trkpt>
      <trkpt lat="41.203350" lon="1.443735">
        <ele>92.4</ele>
        <time>2014-12-07T08:13:10Z</time>
      </trkpt>
      <trkpt lat="41.203377" lon="1.443713">
        <ele>91.8</ele>
        <time>2014-12-07T08:13:11Z</time>
      </trkpt>
      <trkpt lat="41.203407" lon="1.443695">
        <ele>91.4</ele>
        <time>2014-12-07T08:13:12Z</time>
      </trkpt>
      <trkpt lat="41.203434" lon="1.443673">
        <ele>91.0</ele>
        <time>2014-12-07T08:13:13Z</time>
      </trkpt>
      <trkpt lat="41.203461" lon="1.443660">
        <ele>90.6</ele>
        <time>2014-12-07T08:13:14Z</time>
      </trkpt>
      <trkpt lat="41.203491" lon="1.443644">
        <ele>90.2</ele>
        <time>2014-12-07T08:13:15Z</time>
      </trkpt>
      <trkpt lat="41.203522" lon="1.443625">
        <ele>89.6</ele>
        <time>2014-12-07T08:13:16Z</time>
      </trkpt>
      <trkpt lat="41.203552" lon="1.443606">
        <ele>89.2</ele>
        <time>2014-12-07T08:13:17Z</time>
      </trkpt>
      <trkpt lat="41.203587" lon="1.443584">
        <ele>88.6</ele>
        <time>2014-12-07T08:13:18Z</time>
      </trkpt>
      <trkpt lat="41.203629" lon="1.443566">
        <ele>88.2</ele>
        <time>2014-12-07T08:13:19Z</time>
      </trkpt>
      <trkpt lat="41.203705" lon="1.443547">
        <ele>87.8</ele>
        <time>2014-12-07T08:13:21Z</time>
      </trkpt>
      <trkpt lat="41.203732" lon="1.443544">
        <ele>87.0</ele>
        <time>2014-12-07T08:13:22Z</time>
      </trkpt>
      <trkpt lat="41.203762" lon="1.443534">
        <ele>86.6</ele>
        <time>2014-12-07T08:13:23Z</time>
      </trkpt>
      <trkpt lat="41.203793" lon="1.443526">
        <ele>86.0</ele>
        <time>2014-12-07T08:13:24Z</time>
      </trkpt>
      <trkpt lat="41.203819" lon="1.443523">
        <ele>85.6</ele>
        <time>2014-12-07T08:13:25Z</time>
      </trkpt>
      <trkpt lat="41.203850" lon="1.443521">
        <ele>85.0</ele>
        <time>2014-12-07T08:13:26Z</time>
      </trkpt>
      <trkpt lat="41.203869" lon="1.443522">
        <ele>84.4</ele>
        <time>2014-12-07T08:13:27Z</time>
      </trkpt>
      <trkpt lat="41.203896" lon="1.443528">
        <ele>84.0</ele>
        <time>2014-12-07T08:13:28Z</time>
      </trkpt>
      <trkpt lat="41.203922" lon="1.443528">
        <ele>84.0</ele>
        <time>2014-12-07T08:13:29Z</time>
      </trkpt>
      <trkpt lat="41.203976" lon="1.443523">
        <ele>83.6</ele>
        <time>2014-12-07T08:13:31Z</time>
      </trkpt>
      <trkpt lat="41.204002" lon="1.443538">
        <ele>83.0</ele>
        <time>2014-12-07T08:13:32Z</time>
      </trkpt>
      <trkpt lat="41.204029" lon="1.443548">
        <ele>82.6</ele>
        <time>2014-12-07T08:13:33Z</time>
      </trkpt>
      <trkpt lat="41.204063" lon="1.443550">
        <ele>82.2</ele>
        <time>2014-12-07T08:13:34Z</time>
      </trkpt>
      <trkpt lat="41.204102" lon="1.443548">
        <ele>81.8</ele>
        <time>2014-12-07T08:13:35Z</time>
      </trkpt>
      <trkpt lat="41.204174" lon="1.443578">
        <ele>81.8</ele>
        <time>2014-12-07T08:13:37Z</time>
      </trkpt>
      <trkpt lat="41.204247" lon="1.443630">
        <ele>81.2</ele>
        <time>2014-12-07T08:13:39Z</time>
      </trkpt>
      <trkpt lat="41.204285" lon="1.443648">
        <ele>80.8</ele>
        <time>2014-12-07T08:13:40Z</time>
      </trkpt>
      <trkpt lat="41.204323" lon="1.443652">
        <ele>80.2</ele>
        <time>2014-12-07T08:13:41Z</time>
      </trkpt>
      <trkpt lat="41.204365" lon="1.443651">
        <ele>79.8</ele>
        <time>2014-12-07T08:13:42Z</time>
      </trkpt>
      <trkpt lat="41.204411" lon="1.443630">
        <ele>79.4</ele>
        <time>2014-12-07T08:13:43Z</time>
      </trkpt>
      <trkpt lat="41.204494" lon="1.443553">
        <ele>79.4</ele>
        <time>2014-12-07T08:13:45Z</time>
      </trkpt>
      <trkpt lat="41.204647" lon="1.443415">
        <ele>78.8</ele>
        <time>2014-12-07T08:13:48Z</time>
      </trkpt>
      <trkpt lat="41.204708" lon="1.443377">
        <ele>78.4</ele>
        <time>2014-12-07T08:13:49Z</time>
      </trkpt>
      <trkpt lat="41.204777" lon="1.443346">
        <ele>78.0</ele>
        <time>2014-12-07T08:13:50Z</time>
      </trkpt>
      <trkpt lat="41.204853" lon="1.443321">
        <ele>77.4</ele>
        <time>2014-12-07T08:13:51Z</time>
      </trkpt>
      <trkpt lat="41.204929" lon="1.443299">
        <ele>77.0</ele>
        <time>2014-12-07T08:13:52Z</time>
      </trkpt>
      <trkpt lat="41.205006" lon="1.443277">
        <ele>76.6</ele>
        <time>2014-12-07T08:13:53Z</time>
      </trkpt>
      <trkpt lat="41.205093" lon="1.443266">
        <ele>76.0</ele>
        <time>2014-12-07T08:13:54Z</time>
      </trkpt>
      <trkpt lat="41.205177" lon="1.443271">
        <ele>75.6</ele>
        <time>2014-12-07T08:13:55Z</time>
      </trkpt>
      <trkpt lat="41.205269" lon="1.443282">
        <ele>75.0</ele>
        <time>2014-12-07T08:13:56Z</time>
      </trkpt>
      <trkpt lat="41.205349" lon="1.443289">
        <ele>74.2</ele>
        <time>2014-12-07T08:13:57Z</time>
      </trkpt>
      <trkpt lat="41.205418" lon="1.443291">
        <ele>73.2</ele>
        <time>2014-12-07T08:13:58Z</time>
      </trkpt>
      <trkpt lat="41.205475" lon="1.443279">
        <ele>72.4</ele>
        <time>2014-12-07T08:13:59Z</time>
      </trkpt>
      <trkpt lat="41.205528" lon="1.443253">
        <ele>71.4</ele>
        <time>2014-12-07T08:14:00Z</time>
      </trkpt>
      <trkpt lat="41.205570" lon="1.443210">
        <ele>70.6</ele>
        <time>2014-12-07T08:14:01Z</time>
      </trkpt>
      <trkpt lat="41.205605" lon="1.443157">
        <ele>69.8</ele>
        <time>2014-12-07T08:14:02Z</time>
      </trkpt>
      <trkpt lat="41.205639" lon="1.443105">
        <ele>69.0</ele>
        <time>2014-12-07T08:14:03Z</time>
      </trkpt>
      <trkpt lat="41.205666" lon="1.443053">
        <ele>68.2</ele>
        <time>2014-12-07T08:14:04Z</time>
      </trkpt>
      <trkpt lat="41.205696" lon="1.443005">
        <ele>67.4</ele>
        <time>2014-12-07T08:14:05Z</time>
      </trkpt>
      <trkpt lat="41.205727" lon="1.442955">
        <ele>67.4</ele>
        <time>2014-12-07T08:14:06Z</time>
      </trkpt>
      <trkpt lat="41.205837" lon="1.442769">
        <ele>67.4</ele>
        <time>2014-12-07T08:14:10Z</time>
      </trkpt>
      <trkpt lat="41.205864" lon="1.442679">
        <ele>67.4</ele>
        <time>2014-12-07T08:14:12Z</time>
      </trkpt>
      <trkpt lat="41.205853" lon="1.442591">
        <ele>67.8</ele>
        <time>2014-12-07T08:14:14Z</time>
      </trkpt>
      <trkpt lat="41.205837" lon="1.442549">
        <ele>68.2</ele>
        <time>2014-12-07T08:14:15Z</time>
      </trkpt>
      <trkpt lat="41.205822" lon="1.442503">
        <ele>68.8</ele>
        <time>2014-12-07T08:14:16Z</time>
      </trkpt>
      <trkpt lat="41.205807" lon="1.442458">
        <ele>69.2</ele>
        <time>2014-12-07T08:14:17Z</time>
      </trkpt>
      <trkpt lat="41.205795" lon="1.442420">
        <ele>69.6</ele>
        <time>2014-12-07T08:14:18Z</time>
      </trkpt>
      <trkpt lat="41.205761" lon="1.442331">
        <ele>69.6</ele>
        <time>2014-12-07T08:14:21Z</time>
      </trkpt>
      <trkpt lat="41.205708" lon="1.442118">
        <ele>69.6</ele>
        <time>2014-12-07T08:14:27Z</time>
      </trkpt>
      <trkpt lat="41.205696" lon="1.441944">
        <ele>69.6</ele>
        <time>2014-12-07T08:14:30Z</time>
      </trkpt>
      <trkpt lat="41.205704" lon="1.441874">
        <ele>69.6</ele>
        <time>2014-12-07T08:14:31Z</time>
      </trkpt>
      <trkpt lat="41.205746" lon="1.441730">
        <ele>69.2</ele>
        <time>2014-12-07T08:14:33Z</time>
      </trkpt>
      <trkpt lat="41.205776" lon="1.441658">
        <ele>68.6</ele>
        <time>2014-12-07T08:14:34Z</time>
      </trkpt>
      <trkpt lat="41.205814" lon="1.441595">
        <ele>68.2</ele>
        <time>2014-12-07T08:14:35Z</time>
      </trkpt>
      <trkpt lat="41.205856" lon="1.441530">
        <ele>67.2</ele>
        <time>2014-12-07T08:14:36Z</time>
      </trkpt>
      <trkpt lat="41.205898" lon="1.441470">
        <ele>66.8</ele>
        <time>2014-12-07T08:14:37Z</time>
      </trkpt>
      <trkpt lat="41.205944" lon="1.441409">
        <ele>66.2</ele>
        <time>2014-12-07T08:14:38Z</time>
      </trkpt>
      <trkpt lat="41.205994" lon="1.441347">
        <ele>65.6</ele>
        <time>2014-12-07T08:14:39Z</time>
      </trkpt>
      <trkpt lat="41.206043" lon="1.441280">
        <ele>65.0</ele>
        <time>2014-12-07T08:14:40Z</time>
      </trkpt>
      <trkpt lat="41.206085" lon="1.441214">
        <ele>64.4</ele>
        <time>2014-12-07T08:14:41Z</time>
      </trkpt>
      <trkpt lat="41.206127" lon="1.441146">
        <ele>63.8</ele>
        <time>2014-12-07T08:14:42Z</time>
      </trkpt>
      <trkpt lat="41.206173" lon="1.441081">
        <ele>63.2</ele>
        <time>2014-12-07T08:14:43Z</time>
      </trkpt>
      <trkpt lat="41.206226" lon="1.441028">
        <ele>62.6</ele>
        <time>2014-12-07T08:14:44Z</time>
      </trkpt>
      <trkpt lat="41.206387" lon="1.440882">
        <ele>62.0</ele>
        <time>2014-12-07T08:14:47Z</time>
      </trkpt>
      <trkpt lat="41.206444" lon="1.440851">
        <ele>61.4</ele>
        <time>2014-12-07T08:14:48Z</time>
      </trkpt>
      <trkpt lat="41.206497" lon="1.440820">
        <ele>61.0</ele>
        <time>2014-12-07T08:14:49Z</time>
      </trkpt>
      <trkpt lat="41.206554" lon="1.440790">
        <ele>60.4</ele>
        <time>2014-12-07T08:14:50Z</time>
      </trkpt>
      <trkpt lat="41.206608" lon="1.440760">
        <ele>59.8</ele>
        <time>2014-12-07T08:14:51Z</time>
      </trkpt>
      <trkpt lat="41.206707" lon="1.440719">
        <ele>59.4</ele>
        <time>2014-12-07T08:14:53Z</time>
      </trkpt>
      <trkpt lat="41.206757" lon="1.440707">
        <ele>59.0</ele>
        <time>2014-12-07T08:14:54Z</time>
      </trkpt>
      <trkpt lat="41.206795" lon="1.440671">
        <ele>58.6</ele>
        <time>2014-12-07T08:14:55Z</time>
      </trkpt>
      <trkpt lat="41.206814" lon="1.440615">
        <ele>58.2</ele>
        <time>2014-12-07T08:14:56Z</time>
      </trkpt>
      <trkpt lat="41.206818" lon="1.440567">
        <ele>57.6</ele>
        <time>2014-12-07T08:14:57Z</time>
      </trkpt>
      <trkpt lat="41.206795" lon="1.440456">
        <ele>57.6</ele>
        <time>2014-12-07T08:15:00Z</time>
      </trkpt>
      <trkpt lat="41.206795" lon="1.440429">
        <ele>57.6</ele>
        <time>2014-12-07T08:15:01Z</time>
      </trkpt>
      <trkpt lat="41.206810" lon="1.440360">
        <ele>57.6</ele>
        <time>2014-12-07T08:15:04Z</time>
      </trkpt>
      <trkpt lat="41.206821" lon="1.440350">
        <ele>57.6</ele>
        <time>2014-12-07T08:15:05Z</time>
      </trkpt>
      <trkpt lat="41.206860" lon="1.440341">
        <ele>58.0</ele>
        <time>2014-12-07T08:15:07Z</time>
      </trkpt>
      <trkpt lat="41.206879" lon="1.440336">
        <ele>58.6</ele>
        <time>2014-12-07T08:15:08Z</time>
      </trkpt>
      <trkpt lat="41.206898" lon="1.440332">
        <ele>59.0</ele>
        <time>2014-12-07T08:15:09Z</time>
      </trkpt>
      <trkpt lat="41.206921" lon="1.440331">
        <ele>59.4</ele>
        <time>2014-12-07T08:15:10Z</time>
      </trkpt>
      <trkpt lat="41.206947" lon="1.440330">
        <ele>59.8</ele>
        <time>2014-12-07T08:15:11Z</time>
      </trkpt>
      <trkpt lat="41.206974" lon="1.440330">
        <ele>59.8</ele>
        <time>2014-12-07T08:15:12Z</time>
      </trkpt>
      <trkpt lat="41.207085" lon="1.440287">
        <ele>59.8</ele>
        <time>2014-12-07T08:15:17Z</time>
      </trkpt>
      <trkpt lat="41.207153" lon="1.440227">
        <ele>60.2</ele>
        <time>2014-12-07T08:15:21Z</time>
      </trkpt>
      <trkpt lat="41.207165" lon="1.440202">
        <ele>60.6</ele>
        <time>2014-12-07T08:15:22Z</time>
      </trkpt>
      <trkpt lat="41.207176" lon="1.440176">
        <ele>61.0</ele>
        <time>2014-12-07T08:15:23Z</time>
      </trkpt>
      <trkpt lat="41.207191" lon="1.440147">
        <ele>61.4</ele>
        <time>2014-12-07T08:15:24Z</time>
      </trkpt>
      <trkpt lat="41.207199" lon="1.440117">
        <ele>61.8</ele>
        <time>2014-12-07T08:15:25Z</time>
      </trkpt>
      <trkpt lat="41.207230" lon="1.440026">
        <ele>61.8</ele>
        <time>2014-12-07T08:15:28Z</time>
      </trkpt>
      <trkpt lat="41.207298" lon="1.439856">
        <ele>61.8</ele>
        <time>2014-12-07T08:15:33Z</time>
      </trkpt>
      <trkpt lat="41.207390" lon="1.439701">
        <ele>61.8</ele>
        <time>2014-12-07T08:15:39Z</time>
      </trkpt>
      <trkpt lat="41.207455" lon="1.439597">
        <ele>61.8</ele>
        <time>2014-12-07T08:15:44Z</time>
      </trkpt>
      <trkpt lat="41.207439" lon="1.439617">
        <ele>61.8</ele>
        <time>2014-12-07T08:15:46Z</time>
      </trkpt>
      <trkpt lat="41.207428" lon="1.439645">
        <ele>61.8</ele>
        <time>2014-12-07T08:15:47Z</time>
      </trkpt>
      <trkpt lat="41.207321" lon="1.439795">
        <ele>61.8</ele>
        <time>2014-12-07T08:15:51Z</time>
      </trkpt>
      <trkpt lat="41.207279" lon="1.439890">
        <ele>61.8</ele>
        <time>2014-12-07T08:15:53Z</time>
      </trkpt>
      <trkpt lat="41.207218" lon="1.440043">
        <ele>61.8</ele>
        <time>2014-12-07T08:15:56Z</time>
      </trkpt>
      <trkpt lat="41.207165" lon="1.440152">
        <ele>61.8</ele>
        <time>2014-12-07T08:15:58Z</time>
      </trkpt>
      <trkpt lat="41.207054" lon="1.440259">
        <ele>61.8</ele>
        <time>2014-12-07T08:16:01Z</time>
      </trkpt>
      <trkpt lat="41.206867" lon="1.440305">
        <ele>61.8</ele>
        <time>2014-12-07T08:16:05Z</time>
      </trkpt>
      <trkpt lat="41.206825" lon="1.440308">
        <ele>61.8</ele>
        <time>2014-12-07T08:16:06Z</time>
      </trkpt>
      <trkpt lat="41.206753" lon="1.440361">
        <ele>61.8</ele>
        <time>2014-12-07T08:16:09Z</time>
      </trkpt>
      <trkpt lat="41.206776" lon="1.440387">
        <ele>61.4</ele>
        <time>2014-12-07T08:16:11Z</time>
      </trkpt>
      <trkpt lat="41.206791" lon="1.440388">
        <ele>61.0</ele>
        <time>2014-12-07T08:16:12Z</time>
      </trkpt>
      <trkpt lat="41.206799" lon="1.440388">
        <ele>60.6</ele>
        <time>2014-12-07T08:16:13Z</time>
      </trkpt>
      <trkpt lat="41.206799" lon="1.440389">
        <ele>59.8</ele>
        <time>2014-12-07T08:16:14Z</time>
      </trkpt>
      <trkpt lat="41.206799" lon="1.440389">
        <ele>59.8</ele>
        <time>2014-12-07T08:16:15Z</time>
      </trkpt>
      <trkpt lat="41.206814" lon="1.440385">
        <ele>59.8</ele>
        <time>2014-12-07T08:16:53Z</time>
      </trkpt>
      <trkpt lat="41.206879" lon="1.440356">
        <ele>59.8</ele>
        <time>2014-12-07T08:16:58Z</time>
      </trkpt>
      <trkpt lat="41.207012" lon="1.440345">
        <ele>59.8</ele>
        <time>2014-12-07T08:17:03Z</time>
      </trkpt>
      <trkpt lat="41.207039" lon="1.440333">
        <ele>60.2</ele>
        <time>2014-12-07T08:17:04Z</time>
      </trkpt>
      <trkpt lat="41.207066" lon="1.440320">
        <ele>60.6</ele>
        <time>2014-12-07T08:17:05Z</time>
      </trkpt>
      <trkpt lat="41.207092" lon="1.440301">
        <ele>61.2</ele>
        <time>2014-12-07T08:17:06Z</time>
      </trkpt>
      <trkpt lat="41.207123" lon="1.440272">
        <ele>61.6</ele>
        <time>2014-12-07T08:17:07Z</time>
      </trkpt>
      <trkpt lat="41.207150" lon="1.440238">
        <ele>62.0</ele>
        <time>2014-12-07T08:17:08Z</time>
      </trkpt>
      <trkpt lat="41.207245" lon="1.440022">
        <ele>62.0</ele>
        <time>2014-12-07T08:17:13Z</time>
      </trkpt>
      <trkpt lat="41.207298" lon="1.439867">
        <ele>62.0</ele>
        <time>2014-12-07T08:17:16Z</time>
      </trkpt>
      <trkpt lat="41.207355" lon="1.439770">
        <ele>62.0</ele>
        <time>2014-12-07T08:17:18Z</time>
      </trkpt>
      <trkpt lat="41.207428" lon="1.439686">
        <ele>62.0</ele>
        <time>2014-12-07T08:17:20Z</time>
      </trkpt>
      <trkpt lat="41.207596" lon="1.439526">
        <ele>62.0</ele>
        <time>2014-12-07T08:17:24Z</time>
      </trkpt>
      <trkpt lat="41.207874" lon="1.439293">
        <ele>62.0</ele>
        <time>2014-12-07T08:17:30Z</time>
      </trkpt>
      <trkpt lat="41.207924" lon="1.439261">
        <ele>62.0</ele>
        <time>2014-12-07T08:17:31Z</time>
      </trkpt>
      <trkpt lat="41.208088" lon="1.439214">
        <ele>62.0</ele>
        <time>2014-12-07T08:17:34Z</time>
      </trkpt>
      <trkpt lat="41.208141" lon="1.439208">
        <ele>62.0</ele>
        <time>2014-12-07T08:17:35Z</time>
      </trkpt>
      <trkpt lat="41.208401" lon="1.439226">
        <ele>62.0</ele>
        <time>2014-12-07T08:17:40Z</time>
      </trkpt>
      <trkpt lat="41.208488" lon="1.439239">
        <ele>62.0</ele>
        <time>2014-12-07T08:17:42Z</time>
      </trkpt>
      <trkpt lat="41.208672" lon="1.439287">
        <ele>62.0</ele>
        <time>2014-12-07T08:17:46Z</time>
      </trkpt>
      <trkpt lat="41.208717" lon="1.439297">
        <ele>62.4</ele>
        <time>2014-12-07T08:17:47Z</time>
      </trkpt>
      <trkpt lat="41.208767" lon="1.439304">
        <ele>63.0</ele>
        <time>2014-12-07T08:17:48Z</time>
      </trkpt>
      <trkpt lat="41.208817" lon="1.439319">
        <ele>63.4</ele>
        <time>2014-12-07T08:17:49Z</time>
      </trkpt>
      <trkpt lat="41.208862" lon="1.439338">
        <ele>64.0</ele>
        <time>2014-12-07T08:17:50Z</time>
      </trkpt>
      <trkpt lat="41.208908" lon="1.439363">
        <ele>64.4</ele>
        <time>2014-12-07T08:17:51Z</time>
      </trkpt>
      <trkpt lat="41.209080" lon="1.439469">
        <ele>64.8</ele>
        <time>2014-12-07T08:17:55Z</time>
      </trkpt>
      <trkpt lat="41.209114" lon="1.439498">
        <ele>65.4</ele>
        <time>2014-12-07T08:17:56Z</time>
      </trkpt>
      <trkpt lat="41.209152" lon="1.439531">
        <ele>65.8</ele>
        <time>2014-12-07T08:17:57Z</time>
      </trkpt>
      <trkpt lat="41.209190" lon="1.439563">
        <ele>66.2</ele>
        <time>2014-12-07T08:17:58Z</time>
      </trkpt>
      <trkpt lat="41.209229" lon="1.439593">
        <ele>66.6</ele>
        <time>2014-12-07T08:17:59Z</time>
      </trkpt>
      <trkpt lat="41.209476" lon="1.439789">
        <ele>66.6</ele>
        <time>2014-12-07T08:18:06Z</time>
      </trkpt>
      <trkpt lat="41.209515" lon="1.439818">
        <ele>67.2</ele>
        <time>2014-12-07T08:18:07Z</time>
      </trkpt>
      <trkpt lat="41.209545" lon="1.439842">
        <ele>67.6</ele>
        <time>2014-12-07T08:18:08Z</time>
      </trkpt>
      <trkpt lat="41.209579" lon="1.439868">
        <ele>68.2</ele>
        <time>2014-12-07T08:18:09Z</time>
      </trkpt>
      <trkpt lat="41.209614" lon="1.439893">
        <ele>68.6</ele>
        <time>2014-12-07T08:18:10Z</time>
      </trkpt>
      <trkpt lat="41.209644" lon="1.439921">
        <ele>69.2</ele>
        <time>2014-12-07T08:18:12Z</time>
      </trkpt>
      <trkpt lat="41.209705" lon="1.439967">
        <ele>69.2</ele>
        <time>2014-12-07T08:18:14Z</time>
      </trkpt>
      <trkpt lat="41.209766" lon="1.440013">
        <ele>69.6</ele>
        <time>2014-12-07T08:18:16Z</time>
      </trkpt>
      <trkpt lat="41.209793" lon="1.440034">
        <ele>70.2</ele>
        <time>2014-12-07T08:18:17Z</time>
      </trkpt>
      <trkpt lat="41.209827" lon="1.440059">
        <ele>70.6</ele>
        <time>2014-12-07T08:18:18Z</time>
      </trkpt>
      <trkpt lat="41.209858" lon="1.440085">
        <ele>71.6</ele>
        <time>2014-12-07T08:18:19Z</time>
      </trkpt>
      <trkpt lat="41.209919" lon="1.440134">
        <ele>71.6</ele>
        <time>2014-12-07T08:18:21Z</time>
      </trkpt>
      <trkpt lat="41.210007" lon="1.440212">
        <ele>72.0</ele>
        <time>2014-12-07T08:18:24Z</time>
      </trkpt>
      <trkpt lat="41.210033" lon="1.440236">
        <ele>72.4</ele>
        <time>2014-12-07T08:18:25Z</time>
      </trkpt>
      <trkpt lat="41.210064" lon="1.440261">
        <ele>72.8</ele>
        <time>2014-12-07T08:18:26Z</time>
      </trkpt>
      <trkpt lat="41.210091" lon="1.440284">
        <ele>73.2</ele>
        <time>2014-12-07T08:18:27Z</time>
      </trkpt>
      <trkpt lat="41.210117" lon="1.440307">
        <ele>73.6</ele>
        <time>2014-12-07T08:18:28Z</time>
      </trkpt>
      <trkpt lat="41.210228" lon="1.440405">
        <ele>74.0</ele>
        <time>2014-12-07T08:18:32Z</time>
      </trkpt>
      <trkpt lat="41.210255" lon="1.440428">
        <ele>74.4</ele>
        <time>2014-12-07T08:18:33Z</time>
      </trkpt>
      <trkpt lat="41.210281" lon="1.440450">
        <ele>74.8</ele>
        <time>2014-12-07T08:18:34Z</time>
      </trkpt>
      <trkpt lat="41.210312" lon="1.440472">
        <ele>75.2</ele>
        <time>2014-12-07T08:18:35Z</time>
      </trkpt>
      <trkpt lat="41.210335" lon="1.440494">
        <ele>75.8</ele>
        <time>2014-12-07T08:18:36Z</time>
      </trkpt>
      <trkpt lat="41.210434" lon="1.440574">
        <ele>76.2</ele>
        <time>2014-12-07T08:18:40Z</time>
      </trkpt>
      <trkpt lat="41.210457" lon="1.440597">
        <ele>76.6</ele>
        <time>2014-12-07T08:18:41Z</time>
      </trkpt>
      <trkpt lat="41.210484" lon="1.440619">
        <ele>77.0</ele>
        <time>2014-12-07T08:18:42Z</time>
      </trkpt>
      <trkpt lat="41.210506" lon="1.440639">
        <ele>77.4</ele>
        <time>2014-12-07T08:18:43Z</time>
      </trkpt>
      <trkpt lat="41.210533" lon="1.440657">
        <ele>77.8</ele>
        <time>2014-12-07T08:18:44Z</time>
      </trkpt>
      <trkpt lat="41.210606" lon="1.440709">
        <ele>78.4</ele>
        <time>2014-12-07T08:18:47Z</time>
      </trkpt>
      <trkpt lat="41.210629" lon="1.440724">
        <ele>78.8</ele>
        <time>2014-12-07T08:18:48Z</time>
      </trkpt>
      <trkpt lat="41.210655" lon="1.440739">
        <ele>79.2</ele>
        <time>2014-12-07T08:18:49Z</time>
      </trkpt>
      <trkpt lat="41.210678" lon="1.440754">
        <ele>79.8</ele>
        <time>2014-12-07T08:18:50Z</time>
      </trkpt>
      <trkpt lat="41.210705" lon="1.440768">
        <ele>80.2</ele>
        <time>2014-12-07T08:18:51Z</time>
      </trkpt>
      <trkpt lat="41.210857" lon="1.440827">
        <ele>80.6</ele>
        <time>2014-12-07T08:18:57Z</time>
      </trkpt>
      <trkpt lat="41.210876" lon="1.440836">
        <ele>81.0</ele>
        <time>2014-12-07T08:18:58Z</time>
      </trkpt>
      <trkpt lat="41.210899" lon="1.440844">
        <ele>81.4</ele>
        <time>2014-12-07T08:18:59Z</time>
      </trkpt>
      <trkpt lat="41.210922" lon="1.440855">
        <ele>81.8</ele>
        <time>2014-12-07T08:19:00Z</time>
      </trkpt>
      <trkpt lat="41.210949" lon="1.440862">
        <ele>82.2</ele>
        <time>2014-12-07T08:19:01Z</time>
      </trkpt>
      <trkpt lat="41.211102" lon="1.440889">
        <ele>82.2</ele>
        <time>2014-12-07T08:19:07Z</time>
      </trkpt>
      <trkpt lat="41.211304" lon="1.440914">
        <ele>82.2</ele>
        <time>2014-12-07T08:19:14Z</time>
      </trkpt>
      <trkpt lat="41.211536" lon="1.440937">
        <ele>82.2</ele>
        <time>2014-12-07T08:19:21Z</time>
      </trkpt>
      <trkpt lat="41.211823" lon="1.440964">
        <ele>82.2</ele>
        <time>2014-12-07T08:19:28Z</time>
      </trkpt>
      <trkpt lat="41.212044" lon="1.440972">
        <ele>83.0</ele>
        <time>2014-12-07T08:19:33Z</time>
      </trkpt>
      <trkpt lat="41.212090" lon="1.440971">
        <ele>83.4</ele>
        <time>2014-12-07T08:19:34Z</time>
      </trkpt>
      <trkpt lat="41.212135" lon="1.440962">
        <ele>83.8</ele>
        <time>2014-12-07T08:19:35Z</time>
      </trkpt>
      <trkpt lat="41.212177" lon="1.440955">
        <ele>84.2</ele>
        <time>2014-12-07T08:19:36Z</time>
      </trkpt>
      <trkpt lat="41.212215" lon="1.440944">
        <ele>83.8</ele>
        <time>2014-12-07T08:19:37Z</time>
      </trkpt>
      <trkpt lat="41.212257" lon="1.440933">
        <ele>83.4</ele>
        <time>2014-12-07T08:19:38Z</time>
      </trkpt>
      <trkpt lat="41.212296" lon="1.440925">
        <ele>83.0</ele>
        <time>2014-12-07T08:19:39Z</time>
      </trkpt>
      <trkpt lat="41.212337" lon="1.440924">
        <ele>82.6</ele>
        <time>2014-12-07T08:19:40Z</time>
      </trkpt>
      <trkpt lat="41.212372" lon="1.440940">
        <ele>82.0</ele>
        <time>2014-12-07T08:19:41Z</time>
      </trkpt>
      <trkpt lat="41.212467" lon="1.441012">
        <ele>82.0</ele>
        <time>2014-12-07T08:19:44Z</time>
      </trkpt>
      <trkpt lat="41.212517" lon="1.441157">
        <ele>82.0</ele>
        <time>2014-12-07T08:19:48Z</time>
      </trkpt>
      <trkpt lat="41.212570" lon="1.441415">
        <ele>82.0</ele>
        <time>2014-12-07T08:19:55Z</time>
      </trkpt>
      <trkpt lat="41.212631" lon="1.441496">
        <ele>82.6</ele>
        <time>2014-12-07T08:19:58Z</time>
      </trkpt>
      <trkpt lat="41.212658" lon="1.441523">
        <ele>83.0</ele>
        <time>2014-12-07T08:19:59Z</time>
      </trkpt>
      <trkpt lat="41.212677" lon="1.441546">
        <ele>83.4</ele>
        <time>2014-12-07T08:20:00Z</time>
      </trkpt>
      <trkpt lat="41.212704" lon="1.441562">
        <ele>83.8</ele>
        <time>2014-12-07T08:20:01Z</time>
      </trkpt>
      <trkpt lat="41.212730" lon="1.441572">
        <ele>84.4</ele>
        <time>2014-12-07T08:20:02Z</time>
      </trkpt>
      <trkpt lat="41.212814" lon="1.441612">
        <ele>84.8</ele>
        <time>2014-12-07T08:20:05Z</time>
      </trkpt>
      <trkpt lat="41.212837" lon="1.441619">
        <ele>85.2</ele>
        <time>2014-12-07T08:20:06Z</time>
      </trkpt>
      <trkpt lat="41.212864" lon="1.441627">
        <ele>85.6</ele>
        <time>2014-12-07T08:20:07Z</time>
      </trkpt>
      <trkpt lat="41.212891" lon="1.441629">
        <ele>86.2</ele>
        <time>2014-12-07T08:20:08Z</time>
      </trkpt>
      <trkpt lat="41.212921" lon="1.441633">
        <ele>86.6</ele>
        <time>2014-12-07T08:20:09Z</time>
      </trkpt>
      <trkpt lat="41.212959" lon="1.441651">
        <ele>86.6</ele>
        <time>2014-12-07T08:20:11Z</time>
      </trkpt>
      <trkpt lat="41.212982" lon="1.441663">
        <ele>87.0</ele>
        <time>2014-12-07T08:20:12Z</time>
      </trkpt>
      <trkpt lat="41.213005" lon="1.441672">
        <ele>87.6</ele>
        <time>2014-12-07T08:20:13Z</time>
      </trkpt>
      <trkpt lat="41.213028" lon="1.441684">
        <ele>88.0</ele>
        <time>2014-12-07T08:20:14Z</time>
      </trkpt>
      <trkpt lat="41.213051" lon="1.441694">
        <ele>88.4</ele>
        <time>2014-12-07T08:20:15Z</time>
      </trkpt>
      <trkpt lat="41.213074" lon="1.441705">
        <ele>88.8</ele>
        <time>2014-12-07T08:20:16Z</time>
      </trkpt>
      <trkpt lat="41.213097" lon="1.441717">
        <ele>88.8</ele>
        <time>2014-12-07T08:20:17Z</time>
      </trkpt>
      <trkpt lat="41.213142" lon="1.441734">
        <ele>89.4</ele>
        <time>2014-12-07T08:20:19Z</time>
      </trkpt>
      <trkpt lat="41.213165" lon="1.441738">
        <ele>89.8</ele>
        <time>2014-12-07T08:20:20Z</time>
      </trkpt>
      <trkpt lat="41.213188" lon="1.441744">
        <ele>90.2</ele>
        <time>2014-12-07T08:20:21Z</time>
      </trkpt>
      <trkpt lat="41.213207" lon="1.441751">
        <ele>90.6</ele>
        <time>2014-12-07T08:20:22Z</time>
      </trkpt>
      <trkpt lat="41.213230" lon="1.441767">
        <ele>91.2</ele>
        <time>2014-12-07T08:20:23Z</time>
      </trkpt>
      <trkpt lat="41.213291" lon="1.441802">
        <ele>91.6</ele>
        <time>2014-12-07T08:20:26Z</time>
      </trkpt>
      <trkpt lat="41.213314" lon="1.441811">
        <ele>92.2</ele>
        <time>2014-12-07T08:20:27Z</time>
      </trkpt>
      <trkpt lat="41.213333" lon="1.441814">
        <ele>92.6</ele>
        <time>2014-12-07T08:20:28Z</time>
      </trkpt>
      <trkpt lat="41.213356" lon="1.441821">
        <ele>93.0</ele>
        <time>2014-12-07T08:20:29Z</time>
      </trkpt>
      <trkpt lat="41.213379" lon="1.441826">
        <ele>93.6</ele>
        <time>2014-12-07T08:20:30Z</time>
      </trkpt>
      <trkpt lat="41.213493" lon="1.441868">
        <ele>94.0</ele>
        <time>2014-12-07T08:20:35Z</time>
      </trkpt>
      <trkpt lat="41.213516" lon="1.441876">
        <ele>94.4</ele>
        <time>2014-12-07T08:20:36Z</time>
      </trkpt>
      <trkpt lat="41.213543" lon="1.441886">
        <ele>94.8</ele>
        <time>2014-12-07T08:20:37Z</time>
      </trkpt>
      <trkpt lat="41.213566" lon="1.441900">
        <ele>95.2</ele>
        <time>2014-12-07T08:20:38Z</time>
      </trkpt>
      <trkpt lat="41.213589" lon="1.441911">
        <ele>95.6</ele>
        <time>2014-12-07T08:20:39Z</time>
      </trkpt>
      <trkpt lat="41.213627" lon="1.441942">
        <ele>95.6</ele>
        <time>2014-12-07T08:20:41Z</time>
      </trkpt>
      <trkpt lat="41.213650" lon="1.441956">
        <ele>96.2</ele>
        <time>2014-12-07T08:20:42Z</time>
      </trkpt>
      <trkpt lat="41.213673" lon="1.441966">
        <ele>96.6</ele>
        <time>2014-12-07T08:20:43Z</time>
      </trkpt>
      <trkpt lat="41.213696" lon="1.441976">
        <ele>97.0</ele>
        <time>2014-12-07T08:20:44Z</time>
      </trkpt>
      <trkpt lat="41.213718" lon="1.441986">
        <ele>97.4</ele>
        <time>2014-12-07T08:20:45Z</time>
      </trkpt>
      <trkpt lat="41.213741" lon="1.441992">
        <ele>97.8</ele>
        <time>2014-12-07T08:20:46Z</time>
      </trkpt>
      <trkpt lat="41.213768" lon="1.442002">
        <ele>98.2</ele>
        <time>2014-12-07T08:20:47Z</time>
      </trkpt>
      <trkpt lat="41.213795" lon="1.442009">
        <ele>99.0</ele>
        <time>2014-12-07T08:20:48Z</time>
      </trkpt>
      <trkpt lat="41.213818" lon="1.442016">
        <ele>99.4</ele>
        <time>2014-12-07T08:20:49Z</time>
      </trkpt>
      <trkpt lat="41.213837" lon="1.442023">
        <ele>99.8</ele>
        <time>2014-12-07T08:20:50Z</time>
      </trkpt>
      <trkpt lat="41.213882" lon="1.442037">
        <ele>100.4</ele>
        <time>2014-12-07T08:20:52Z</time>
      </trkpt>
      <trkpt lat="41.213905" lon="1.442045">
        <ele>100.8</ele>
        <time>2014-12-07T08:20:53Z</time>
      </trkpt>
      <trkpt lat="41.213932" lon="1.442050">
        <ele>101.2</ele>
        <time>2014-12-07T08:20:54Z</time>
      </trkpt>
      <trkpt lat="41.213959" lon="1.442054">
        <ele>101.6</ele>
        <time>2014-12-07T08:20:55Z</time>
      </trkpt>
      <trkpt lat="41.213982" lon="1.442055">
        <ele>102.0</ele>
        <time>2014-12-07T08:20:56Z</time>
      </trkpt>
      <trkpt lat="41.214027" lon="1.442058">
        <ele>102.4</ele>
        <time>2014-12-07T08:20:58Z</time>
      </trkpt>
      <trkpt lat="41.214050" lon="1.442061">
        <ele>102.8</ele>
        <time>2014-12-07T08:20:59Z</time>
      </trkpt>
      <trkpt lat="41.214073" lon="1.442069">
        <ele>103.2</ele>
        <time>2014-12-07T08:21:00Z</time>
      </trkpt>
      <trkpt lat="41.214100" lon="1.442078">
        <ele>103.6</ele>
        <time>2014-12-07T08:21:01Z</time>
      </trkpt>
      <trkpt lat="41.214123" lon="1.442089">
        <ele>104.2</ele>
        <time>2014-12-07T08:21:02Z</time>
      </trkpt>
      <trkpt lat="41.214149" lon="1.442097">
        <ele>104.2</ele>
        <time>2014-12-07T08:21:03Z</time>
      </trkpt>
      <trkpt lat="41.214172" lon="1.442101">
        <ele>104.6</ele>
        <time>2014-12-07T08:21:04Z</time>
      </trkpt>
      <trkpt lat="41.214195" lon="1.442106">
        <ele>105.2</ele>
        <time>2014-12-07T08:21:05Z</time>
      </trkpt>
      <trkpt lat="41.214222" lon="1.442112">
        <ele>105.6</ele>
        <time>2014-12-07T08:21:06Z</time>
      </trkpt>
      <trkpt lat="41.214252" lon="1.442121">
        <ele>106.2</ele>
        <time>2014-12-07T08:21:07Z</time>
      </trkpt>
      <trkpt lat="41.214275" lon="1.442126">
        <ele>106.6</ele>
        <time>2014-12-07T08:21:08Z</time>
      </trkpt>
      <trkpt lat="41.214336" lon="1.442139">
        <ele>106.6</ele>
        <time>2014-12-07T08:21:10Z</time>
      </trkpt>
      <trkpt lat="41.214394" lon="1.442145">
        <ele>107.6</ele>
        <time>2014-12-07T08:21:12Z</time>
      </trkpt>
      <trkpt lat="41.214409" lon="1.442137">
        <ele>108.0</ele>
        <time>2014-12-07T08:21:13Z</time>
      </trkpt>
      <trkpt lat="41.214436" lon="1.442137">
        <ele>108.4</ele>
        <time>2014-12-07T08:21:14Z</time>
      </trkpt>
      <trkpt lat="41.214458" lon="1.442142">
        <ele>109.0</ele>
        <time>2014-12-07T08:21:15Z</time>
      </trkpt>
      <trkpt lat="41.214512" lon="1.442156">
        <ele>109.4</ele>
        <time>2014-12-07T08:21:17Z</time>
      </trkpt>
      <trkpt lat="41.214539" lon="1.442166">
        <ele>109.8</ele>
        <time>2014-12-07T08:21:18Z</time>
      </trkpt>
      <trkpt lat="41.214565" lon="1.442178">
        <ele>110.2</ele>
        <time>2014-12-07T08:21:19Z</time>
      </trkpt>
      <trkpt lat="41.214592" lon="1.442189">
        <ele>110.6</ele>
        <time>2014-12-07T08:21:20Z</time>
      </trkpt>
      <trkpt lat="41.214619" lon="1.442197">
        <ele>111.0</ele>
        <time>2014-12-07T08:21:21Z</time>
      </trkpt>
      <trkpt lat="41.214645" lon="1.442207">
        <ele>111.0</ele>
        <time>2014-12-07T08:21:22Z</time>
      </trkpt>
      <trkpt lat="41.214687" lon="1.442232">
        <ele>111.4</ele>
        <time>2014-12-07T08:21:24Z</time>
      </trkpt>
      <trkpt lat="41.214710" lon="1.442235">
        <ele>111.8</ele>
        <time>2014-12-07T08:21:25Z</time>
      </trkpt>
      <trkpt lat="41.214729" lon="1.442242">
        <ele>112.2</ele>
        <time>2014-12-07T08:21:26Z</time>
      </trkpt>
      <trkpt lat="41.214760" lon="1.442246">
        <ele>112.6</ele>
        <time>2014-12-07T08:21:27Z</time>
      </trkpt>
      <trkpt lat="41.214787" lon="1.442254">
        <ele>113.0</ele>
        <time>2014-12-07T08:21:28Z</time>
      </trkpt>
      <trkpt lat="41.214867" lon="1.442278">
        <ele>113.4</ele>
        <time>2014-12-07T08:21:31Z</time>
      </trkpt>
      <trkpt lat="41.214890" lon="1.442281">
        <ele>113.8</ele>
        <time>2014-12-07T08:21:32Z</time>
      </trkpt>
      <trkpt lat="41.214909" lon="1.442289">
        <ele>114.4</ele>
        <time>2014-12-07T08:21:33Z</time>
      </trkpt>
      <trkpt lat="41.214931" lon="1.442291">
        <ele>114.8</ele>
        <time>2014-12-07T08:21:34Z</time>
      </trkpt>
      <trkpt lat="41.214954" lon="1.442297">
        <ele>115.2</ele>
        <time>2014-12-07T08:21:35Z</time>
      </trkpt>
      <trkpt lat="41.214981" lon="1.442303">
        <ele>115.6</ele>
        <time>2014-12-07T08:21:36Z</time>
      </trkpt>
      <trkpt lat="41.215008" lon="1.442311">
        <ele>116.6</ele>
        <time>2014-12-07T08:21:37Z</time>
      </trkpt>
      <trkpt lat="41.215034" lon="1.442326">
        <ele>117.0</ele>
        <time>2014-12-07T08:21:38Z</time>
      </trkpt>
      <trkpt lat="41.215057" lon="1.442346">
        <ele>117.4</ele>
        <time>2014-12-07T08:21:39Z</time>
      </trkpt>
      <trkpt lat="41.215080" lon="1.442367">
        <ele>117.4</ele>
        <time>2014-12-07T08:21:40Z</time>
      </trkpt>
      <trkpt lat="41.215130" lon="1.442410">
        <ele>117.8</ele>
        <time>2014-12-07T08:21:42Z</time>
      </trkpt>
      <trkpt lat="41.215153" lon="1.442432">
        <ele>118.4</ele>
        <time>2014-12-07T08:21:43Z</time>
      </trkpt>
      <trkpt lat="41.215172" lon="1.442456">
        <ele>118.8</ele>
        <time>2014-12-07T08:21:44Z</time>
      </trkpt>
      <trkpt lat="41.215191" lon="1.442481">
        <ele>119.2</ele>
        <time>2014-12-07T08:21:45Z</time>
      </trkpt>
      <trkpt lat="41.215214" lon="1.442504">
        <ele>119.6</ele>
        <time>2014-12-07T08:21:46Z</time>
      </trkpt>
      <trkpt lat="41.215229" lon="1.442532">
        <ele>120.0</ele>
        <time>2014-12-07T08:21:47Z</time>
      </trkpt>
      <trkpt lat="41.215240" lon="1.442555">
        <ele>120.4</ele>
        <time>2014-12-07T08:21:48Z</time>
      </trkpt>
      <trkpt lat="41.215260" lon="1.442579">
        <ele>121.0</ele>
        <time>2014-12-07T08:21:49Z</time>
      </trkpt>
      <trkpt lat="41.215271" lon="1.442603">
        <ele>121.4</ele>
        <time>2014-12-07T08:21:50Z</time>
      </trkpt>
      <trkpt lat="41.215286" lon="1.442636">
        <ele>121.8</ele>
        <time>2014-12-07T08:21:51Z</time>
      </trkpt>
      <trkpt lat="41.215324" lon="1.442687">
        <ele>122.2</ele>
        <time>2014-12-07T08:21:53Z</time>
      </trkpt>
      <trkpt lat="41.215347" lon="1.442704">
        <ele>122.6</ele>
        <time>2014-12-07T08:21:54Z</time>
      </trkpt>
      <trkpt lat="41.215366" lon="1.442706">
        <ele>123.0</ele>
        <time>2014-12-07T08:21:55Z</time>
      </trkpt>
      <trkpt lat="41.215389" lon="1.442711">
        <ele>123.6</ele>
        <time>2014-12-07T08:21:56Z</time>
      </trkpt>
      <trkpt lat="41.215412" lon="1.442718">
        <ele>124.0</ele>
        <time>2014-12-07T08:21:57Z</time>
      </trkpt>
      <trkpt lat="41.215439" lon="1.442717">
        <ele>124.4</ele>
        <time>2014-12-07T08:21:58Z</time>
      </trkpt>
      <trkpt lat="41.215466" lon="1.442711">
        <ele>124.8</ele>
        <time>2014-12-07T08:21:59Z</time>
      </trkpt>
      <trkpt lat="41.215492" lon="1.442709">
        <ele>125.4</ele>
        <time>2014-12-07T08:22:00Z</time>
      </trkpt>
      <trkpt lat="41.215519" lon="1.442705">
        <ele>125.8</ele>
        <time>2014-12-07T08:22:01Z</time>
      </trkpt>
      <trkpt lat="41.215549" lon="1.442695">
        <ele>126.2</ele>
        <time>2014-12-07T08:22:02Z</time>
      </trkpt>
      <trkpt lat="41.215576" lon="1.442691">
        <ele>126.2</ele>
        <time>2014-12-07T08:22:03Z</time>
      </trkpt>
      <trkpt lat="41.215595" lon="1.442690">
        <ele>126.6</ele>
        <time>2014-12-07T08:22:04Z</time>
      </trkpt>
      <trkpt lat="41.215614" lon="1.442690">
        <ele>127.2</ele>
        <time>2014-12-07T08:22:05Z</time>
      </trkpt>
      <trkpt lat="41.215633" lon="1.442693">
        <ele>127.6</ele>
        <time>2014-12-07T08:22:06Z</time>
      </trkpt>
      <trkpt lat="41.215652" lon="1.442691">
        <ele>128.0</ele>
        <time>2014-12-07T08:22:07Z</time>
      </trkpt>
      <trkpt lat="41.215668" lon="1.442692">
        <ele>128.4</ele>
        <time>2014-12-07T08:22:08Z</time>
      </trkpt>
      <trkpt lat="41.215691" lon="1.442691">
        <ele>128.4</ele>
        <time>2014-12-07T08:22:09Z</time>
      </trkpt>
      <trkpt lat="41.215843" lon="1.442695">
        <ele>128.4</ele>
        <time>2014-12-07T08:22:16Z</time>
      </trkpt>
      <trkpt lat="41.215862" lon="1.442709">
        <ele>128.8</ele>
        <time>2014-12-07T08:22:17Z</time>
      </trkpt>
      <trkpt lat="41.215878" lon="1.442730">
        <ele>129.2</ele>
        <time>2014-12-07T08:22:18Z</time>
      </trkpt>
      <trkpt lat="41.215889" lon="1.442756">
        <ele>129.8</ele>
        <time>2014-12-07T08:22:19Z</time>
      </trkpt>
      <trkpt lat="41.215893" lon="1.442777">
        <ele>130.4</ele>
        <time>2014-12-07T08:22:20Z</time>
      </trkpt>
      <trkpt lat="41.215900" lon="1.442800">
        <ele>131.2</ele>
        <time>2014-12-07T08:22:21Z</time>
      </trkpt>
      <trkpt lat="41.215916" lon="1.442826">
        <ele>131.8</ele>
        <time>2014-12-07T08:22:22Z</time>
      </trkpt>
      <trkpt lat="41.215927" lon="1.442848">
        <ele>132.4</ele>
        <time>2014-12-07T08:22:23Z</time>
      </trkpt>
      <trkpt lat="41.215935" lon="1.442868">
        <ele>133.2</ele>
        <time>2014-12-07T08:22:24Z</time>
      </trkpt>
      <trkpt lat="41.215946" lon="1.442887">
        <ele>133.2</ele>
        <time>2014-12-07T08:22:25Z</time>
      </trkpt>
      <trkpt lat="41.215965" lon="1.442923">
        <ele>133.2</ele>
        <time>2014-12-07T08:22:27Z</time>
      </trkpt>
      <trkpt lat="41.215977" lon="1.442988">
        <ele>133.2</ele>
        <time>2014-12-07T08:22:30Z</time>
      </trkpt>
      <trkpt lat="41.216034" lon="1.443112">
        <ele>133.6</ele>
        <time>2014-12-07T08:22:36Z</time>
      </trkpt>
      <trkpt lat="41.216042" lon="1.443130">
        <ele>134.0</ele>
        <time>2014-12-07T08:22:37Z</time>
      </trkpt>
      <trkpt lat="41.216049" lon="1.443149">
        <ele>134.4</ele>
        <time>2014-12-07T08:22:38Z</time>
      </trkpt>
      <trkpt lat="41.216061" lon="1.443172">
        <ele>135.0</ele>
        <time>2014-12-07T08:22:39Z</time>
      </trkpt>
      <trkpt lat="41.216064" lon="1.443196">
        <ele>135.4</ele>
        <time>2014-12-07T08:22:40Z</time>
      </trkpt>
      <trkpt lat="41.216080" lon="1.443268">
        <ele>135.4</ele>
        <time>2014-12-07T08:22:43Z</time>
      </trkpt>
      <trkpt lat="41.216080" lon="1.443294">
        <ele>135.4</ele>
        <time>2014-12-07T08:22:44Z</time>
      </trkpt>
      <trkpt lat="41.216091" lon="1.443352">
        <ele>135.8</ele>
        <time>2014-12-07T08:22:46Z</time>
      </trkpt>
      <trkpt lat="41.216095" lon="1.443375">
        <ele>136.2</ele>
        <time>2014-12-07T08:22:47Z</time>
      </trkpt>
      <trkpt lat="41.216099" lon="1.443401">
        <ele>136.6</ele>
        <time>2014-12-07T08:22:48Z</time>
      </trkpt>
      <trkpt lat="41.216099" lon="1.443422">
        <ele>137.0</ele>
        <time>2014-12-07T08:22:49Z</time>
      </trkpt>
      <trkpt lat="41.216106" lon="1.443442">
        <ele>137.4</ele>
        <time>2014-12-07T08:22:50Z</time>
      </trkpt>
      <trkpt lat="41.216110" lon="1.443464">
        <ele>138.0</ele>
        <time>2014-12-07T08:22:51Z</time>
      </trkpt>
      <trkpt lat="41.216118" lon="1.443492">
        <ele>138.8</ele>
        <time>2014-12-07T08:22:52Z</time>
      </trkpt>
      <trkpt lat="41.216129" lon="1.443519">
        <ele>139.4</ele>
        <time>2014-12-07T08:22:53Z</time>
      </trkpt>
      <trkpt lat="41.216145" lon="1.443543">
        <ele>139.8</ele>
        <time>2014-12-07T08:22:54Z</time>
      </trkpt>
      <trkpt lat="41.216190" lon="1.443646">
        <ele>139.8</ele>
        <time>2014-12-07T08:22:59Z</time>
      </trkpt>
      <trkpt lat="41.216244" lon="1.443748">
        <ele>140.2</ele>
        <time>2014-12-07T08:23:05Z</time>
      </trkpt>
      <trkpt lat="41.216255" lon="1.443765">
        <ele>140.6</ele>
        <time>2014-12-07T08:23:06Z</time>
      </trkpt>
      <trkpt lat="41.216267" lon="1.443783">
        <ele>141.0</ele>
        <time>2014-12-07T08:23:07Z</time>
      </trkpt>
      <trkpt lat="41.216282" lon="1.443799">
        <ele>141.4</ele>
        <time>2014-12-07T08:23:08Z</time>
      </trkpt>
      <trkpt lat="41.216297" lon="1.443805">
        <ele>141.8</ele>
        <time>2014-12-07T08:23:09Z</time>
      </trkpt>
      <trkpt lat="41.216335" lon="1.443851">
        <ele>141.8</ele>
        <time>2014-12-07T08:23:12Z</time>
      </trkpt>
      <trkpt lat="41.216373" lon="1.443902">
        <ele>141.8</ele>
        <time>2014-12-07T08:23:15Z</time>
      </trkpt>
      <trkpt lat="41.216400" lon="1.443960">
        <ele>141.8</ele>
        <time>2014-12-07T08:23:18Z</time>
      </trkpt>
      <trkpt lat="41.216465" lon="1.444089">
        <ele>141.8</ele>
        <time>2014-12-07T08:23:23Z</time>
      </trkpt>
      <trkpt lat="41.216541" lon="1.444232">
        <ele>141.8</ele>
        <time>2014-12-07T08:23:28Z</time>
      </trkpt>
      <trkpt lat="41.216557" lon="1.444393">
        <ele>141.8</ele>
        <time>2014-12-07T08:23:33Z</time>
      </trkpt>
      <trkpt lat="41.216553" lon="1.444424">
        <ele>142.4</ele>
        <time>2014-12-07T08:23:34Z</time>
      </trkpt>
      <trkpt lat="41.216557" lon="1.444453">
        <ele>142.8</ele>
        <time>2014-12-07T08:23:35Z</time>
      </trkpt>
      <trkpt lat="41.216553" lon="1.444479">
        <ele>143.2</ele>
        <time>2014-12-07T08:23:36Z</time>
      </trkpt>
      <trkpt lat="41.216545" lon="1.444505">
        <ele>143.6</ele>
        <time>2014-12-07T08:23:37Z</time>
      </trkpt>
      <trkpt lat="41.216534" lon="1.444527">
        <ele>144.2</ele>
        <time>2014-12-07T08:23:38Z</time>
      </trkpt>
      <trkpt lat="41.216511" lon="1.444603">
        <ele>144.2</ele>
        <time>2014-12-07T08:23:41Z</time>
      </trkpt>
      <trkpt lat="41.216480" lon="1.444680">
        <ele>144.2</ele>
        <time>2014-12-07T08:23:44Z</time>
      </trkpt>
      <trkpt lat="41.216454" lon="1.444895">
        <ele>144.2</ele>
        <time>2014-12-07T08:23:49Z</time>
      </trkpt>
      <trkpt lat="41.216427" lon="1.445158">
        <ele>144.2</ele>
        <time>2014-12-07T08:23:53Z</time>
      </trkpt>
      <trkpt lat="41.216427" lon="1.445222">
        <ele>144.2</ele>
        <time>2014-12-07T08:23:54Z</time>
      </trkpt>
      <trkpt lat="41.216438" lon="1.445283">
        <ele>144.2</ele>
        <time>2014-12-07T08:23:55Z</time>
      </trkpt>
      <trkpt lat="41.216488" lon="1.445384">
        <ele>144.2</ele>
        <time>2014-12-07T08:23:57Z</time>
      </trkpt>
      <trkpt lat="41.216602" lon="1.445554">
        <ele>144.2</ele>
        <time>2014-12-07T08:24:02Z</time>
      </trkpt>
      <trkpt lat="41.216675" lon="1.445689">
        <ele>145.0</ele>
        <time>2014-12-07T08:24:06Z</time>
      </trkpt>
      <trkpt lat="41.216694" lon="1.445724">
        <ele>145.6</ele>
        <time>2014-12-07T08:24:07Z</time>
      </trkpt>
      <trkpt lat="41.216713" lon="1.445753">
        <ele>146.0</ele>
        <time>2014-12-07T08:24:08Z</time>
      </trkpt>
      <trkpt lat="41.216728" lon="1.445782">
        <ele>146.6</ele>
        <time>2014-12-07T08:24:09Z</time>
      </trkpt>
      <trkpt lat="41.216778" lon="1.445886">
        <ele>146.6</ele>
        <time>2014-12-07T08:24:13Z</time>
      </trkpt>
      <trkpt lat="41.216808" lon="1.446025">
        <ele>147.0</ele>
        <time>2014-12-07T08:24:17Z</time>
      </trkpt>
      <trkpt lat="41.216812" lon="1.446062">
        <ele>147.4</ele>
        <time>2014-12-07T08:24:18Z</time>
      </trkpt>
      <trkpt lat="41.216824" lon="1.446100">
        <ele>147.8</ele>
        <time>2014-12-07T08:24:19Z</time>
      </trkpt>
      <trkpt lat="41.216835" lon="1.446138">
        <ele>148.4</ele>
        <time>2014-12-07T08:24:20Z</time>
      </trkpt>
      <trkpt lat="41.216843" lon="1.446176">
        <ele>148.8</ele>
        <time>2014-12-07T08:24:21Z</time>
      </trkpt>
      <trkpt lat="41.216873" lon="1.446288">
        <ele>148.8</ele>
        <time>2014-12-07T08:24:24Z</time>
      </trkpt>
      <trkpt lat="41.216896" lon="1.446361">
        <ele>149.2</ele>
        <time>2014-12-07T08:24:26Z</time>
      </trkpt>
      <trkpt lat="41.216904" lon="1.446401">
        <ele>149.6</ele>
        <time>2014-12-07T08:24:27Z</time>
      </trkpt>
      <trkpt lat="41.216919" lon="1.446441">
        <ele>150.2</ele>
        <time>2014-12-07T08:24:28Z</time>
      </trkpt>
      <trkpt lat="41.216927" lon="1.446473">
        <ele>150.6</ele>
        <time>2014-12-07T08:24:29Z</time>
      </trkpt>
      <trkpt lat="41.216938" lon="1.446505">
        <ele>151.0</ele>
        <time>2014-12-07T08:24:30Z</time>
      </trkpt>
      <trkpt lat="41.216961" lon="1.446618">
        <ele>151.4</ele>
        <time>2014-12-07T08:24:33Z</time>
      </trkpt>
      <trkpt lat="41.216969" lon="1.446657">
        <ele>151.8</ele>
        <time>2014-12-07T08:24:34Z</time>
      </trkpt>
      <trkpt lat="41.216976" lon="1.446699">
        <ele>152.2</ele>
        <time>2014-12-07T08:24:35Z</time>
      </trkpt>
      <trkpt lat="41.216984" lon="1.446739">
        <ele>152.6</ele>
        <time>2014-12-07T08:24:36Z</time>
      </trkpt>
      <trkpt lat="41.216991" lon="1.446777">
        <ele>153.0</ele>
        <time>2014-12-07T08:24:37Z</time>
      </trkpt>
      <trkpt lat="41.216999" lon="1.446816">
        <ele>153.6</ele>
        <time>2014-12-07T08:24:38Z</time>
      </trkpt>
      <trkpt lat="41.217003" lon="1.446849">
        <ele>154.0</ele>
        <time>2014-12-07T08:24:39Z</time>
      </trkpt>
      <trkpt lat="41.217007" lon="1.446880">
        <ele>154.4</ele>
        <time>2014-12-07T08:24:40Z</time>
      </trkpt>
      <trkpt lat="41.217010" lon="1.446921">
        <ele>154.8</ele>
        <time>2014-12-07T08:24:41Z</time>
      </trkpt>
      <trkpt lat="41.217022" lon="1.446955">
        <ele>155.2</ele>
        <time>2014-12-07T08:24:42Z</time>
      </trkpt>
      <trkpt lat="41.217072" lon="1.447130">
        <ele>155.6</ele>
        <time>2014-12-07T08:24:47Z</time>
      </trkpt>
      <trkpt lat="41.217079" lon="1.447165">
        <ele>156.0</ele>
        <time>2014-12-07T08:24:48Z</time>
      </trkpt>
      <trkpt lat="41.217079" lon="1.447202">
        <ele>156.4</ele>
        <time>2014-12-07T08:24:49Z</time>
      </trkpt>
      <trkpt lat="41.217068" lon="1.447230">
        <ele>156.8</ele>
        <time>2014-12-07T08:24:50Z</time>
      </trkpt>
      <trkpt lat="41.217056" lon="1.447260">
        <ele>157.2</ele>
        <time>2014-12-07T08:24:51Z</time>
      </trkpt>
      <trkpt lat="41.217049" lon="1.447294">
        <ele>157.2</ele>
        <time>2014-12-07T08:24:52Z</time>
      </trkpt>
      <trkpt lat="41.217037" lon="1.447388">
        <ele>158.0</ele>
        <time>2014-12-07T08:24:55Z</time>
      </trkpt>
      <trkpt lat="41.217033" lon="1.447420">
        <ele>158.4</ele>
        <time>2014-12-07T08:24:56Z</time>
      </trkpt>
      <trkpt lat="41.217037" lon="1.447445">
        <ele>158.8</ele>
        <time>2014-12-07T08:24:57Z</time>
      </trkpt>
      <trkpt lat="41.217037" lon="1.447475">
        <ele>159.2</ele>
        <time>2014-12-07T08:24:58Z</time>
      </trkpt>
      <trkpt lat="41.217056" lon="1.447562">
        <ele>159.8</ele>
        <time>2014-12-07T08:25:01Z</time>
      </trkpt>
      <trkpt lat="41.217060" lon="1.447588">
        <ele>160.2</ele>
        <time>2014-12-07T08:25:02Z</time>
      </trkpt>
      <trkpt lat="41.217068" lon="1.447619">
        <ele>160.6</ele>
        <time>2014-12-07T08:25:03Z</time>
      </trkpt>
      <trkpt lat="41.217075" lon="1.447651">
        <ele>161.2</ele>
        <time>2014-12-07T08:25:04Z</time>
      </trkpt>
      <trkpt lat="41.217083" lon="1.447683">
        <ele>161.6</ele>
        <time>2014-12-07T08:25:05Z</time>
      </trkpt>
      <trkpt lat="41.217091" lon="1.447706">
        <ele>162.2</ele>
        <time>2014-12-07T08:25:06Z</time>
      </trkpt>
      <trkpt lat="41.217094" lon="1.447729">
        <ele>162.8</ele>
        <time>2014-12-07T08:25:07Z</time>
      </trkpt>
      <trkpt lat="41.217110" lon="1.447751">
        <ele>163.4</ele>
        <time>2014-12-07T08:25:08Z</time>
      </trkpt>
      <trkpt lat="41.217125" lon="1.447773">
        <ele>163.8</ele>
        <time>2014-12-07T08:25:09Z</time>
      </trkpt>
      <trkpt lat="41.217144" lon="1.447792">
        <ele>163.8</ele>
        <time>2014-12-07T08:25:10Z</time>
      </trkpt>
      <trkpt lat="41.217155" lon="1.447816">
        <ele>164.4</ele>
        <time>2014-12-07T08:25:11Z</time>
      </trkpt>
      <trkpt lat="41.217171" lon="1.447838">
        <ele>164.8</ele>
        <time>2014-12-07T08:25:12Z</time>
      </trkpt>
      <trkpt lat="41.217190" lon="1.447860">
        <ele>165.2</ele>
        <time>2014-12-07T08:25:13Z</time>
      </trkpt>
      <trkpt lat="41.217205" lon="1.447881">
        <ele>165.6</ele>
        <time>2014-12-07T08:25:14Z</time>
      </trkpt>
      <trkpt lat="41.217220" lon="1.447902">
        <ele>166.0</ele>
        <time>2014-12-07T08:25:15Z</time>
      </trkpt>
      <trkpt lat="41.217270" lon="1.448015">
        <ele>166.8</ele>
        <time>2014-12-07T08:25:20Z</time>
      </trkpt>
      <trkpt lat="41.217270" lon="1.448045">
        <ele>167.2</ele>
        <time>2014-12-07T08:25:21Z</time>
      </trkpt>
      <trkpt lat="41.217274" lon="1.448067">
        <ele>167.6</ele>
        <time>2014-12-07T08:25:22Z</time>
      </trkpt>
      <trkpt lat="41.217281" lon="1.448094">
        <ele>168.0</ele>
        <time>2014-12-07T08:25:23Z</time>
      </trkpt>
      <trkpt lat="41.217300" lon="1.448180">
        <ele>168.0</ele>
        <time>2014-12-07T08:25:26Z</time>
      </trkpt>
      <trkpt lat="41.217304" lon="1.448209">
        <ele>168.4</ele>
        <time>2014-12-07T08:25:27Z</time>
      </trkpt>
      <trkpt lat="41.217300" lon="1.448233">
        <ele>168.8</ele>
        <time>2014-12-07T08:25:28Z</time>
      </trkpt>
      <trkpt lat="41.217289" lon="1.448258">
        <ele>169.2</ele>
        <time>2014-12-07T08:25:29Z</time>
      </trkpt>
      <trkpt lat="41.217274" lon="1.448284">
        <ele>169.6</ele>
        <time>2014-12-07T08:25:30Z</time>
      </trkpt>
      <trkpt lat="41.217270" lon="1.448313">
        <ele>170.0</ele>
        <time>2014-12-07T08:25:31Z</time>
      </trkpt>
      <trkpt lat="41.217251" lon="1.448432">
        <ele>170.0</ele>
        <time>2014-12-07T08:25:35Z</time>
      </trkpt>
      <trkpt lat="41.217243" lon="1.448461">
        <ele>170.4</ele>
        <time>2014-12-07T08:25:36Z</time>
      </trkpt>
      <trkpt lat="41.217243" lon="1.448492">
        <ele>170.8</ele>
        <time>2014-12-07T08:25:37Z</time>
      </trkpt>
      <trkpt lat="41.217243" lon="1.448523">
        <ele>171.2</ele>
        <time>2014-12-07T08:25:38Z</time>
      </trkpt>
      <trkpt lat="41.217243" lon="1.448550">
        <ele>171.6</ele>
        <time>2014-12-07T08:25:39Z</time>
      </trkpt>
      <trkpt lat="41.217239" lon="1.448572">
        <ele>172.0</ele>
        <time>2014-12-07T08:25:40Z</time>
      </trkpt>
      <trkpt lat="41.217247" lon="1.448596">
        <ele>172.0</ele>
        <time>2014-12-07T08:25:41Z</time>
      </trkpt>
      <trkpt lat="41.217270" lon="1.448639">
        <ele>172.6</ele>
        <time>2014-12-07T08:25:43Z</time>
      </trkpt>
      <trkpt lat="41.217281" lon="1.448659">
        <ele>173.0</ele>
        <time>2014-12-07T08:25:44Z</time>
      </trkpt>
      <trkpt lat="41.217289" lon="1.448683">
        <ele>173.8</ele>
        <time>2014-12-07T08:25:45Z</time>
      </trkpt>
      <trkpt lat="41.217304" lon="1.448701">
        <ele>174.4</ele>
        <time>2014-12-07T08:25:46Z</time>
      </trkpt>
      <trkpt lat="41.217354" lon="1.448744">
        <ele>174.8</ele>
        <time>2014-12-07T08:25:49Z</time>
      </trkpt>
      <trkpt lat="41.217373" lon="1.448757">
        <ele>175.2</ele>
        <time>2014-12-07T08:25:50Z</time>
      </trkpt>
      <trkpt lat="41.217384" lon="1.448778">
        <ele>175.6</ele>
        <time>2014-12-07T08:25:51Z</time>
      </trkpt>
      <trkpt lat="41.217403" lon="1.448794">
        <ele>176.2</ele>
        <time>2014-12-07T08:25:52Z</time>
      </trkpt>
      <trkpt lat="41.217422" lon="1.448808">
        <ele>176.6</ele>
        <time>2014-12-07T08:25:53Z</time>
      </trkpt>
      <trkpt lat="41.217449" lon="1.448846">
        <ele>177.0</ele>
        <time>2014-12-07T08:25:55Z</time>
      </trkpt>
      <trkpt lat="41.217464" lon="1.448865">
        <ele>177.4</ele>
        <time>2014-12-07T08:25:56Z</time>
      </trkpt>
      <trkpt lat="41.217480" lon="1.448894">
        <ele>177.8</ele>
        <time>2014-12-07T08:25:57Z</time>
      </trkpt>
      <trkpt lat="41.217487" lon="1.448919">
        <ele>178.2</ele>
        <time>2014-12-07T08:25:58Z</time>
      </trkpt>
      <trkpt lat="41.217495" lon="1.448947">
        <ele>178.8</ele>
        <time>2014-12-07T08:25:59Z</time>
      </trkpt>
      <trkpt lat="41.217518" lon="1.449112">
        <ele>179.2</ele>
        <time>2014-12-07T08:26:05Z</time>
      </trkpt>
      <trkpt lat="41.217518" lon="1.449136">
        <ele>179.6</ele>
        <time>2014-12-07T08:26:06Z</time>
      </trkpt>
      <trkpt lat="41.217518" lon="1.449165">
        <ele>180.0</ele>
        <time>2014-12-07T08:26:07Z</time>
      </trkpt>
      <trkpt lat="41.217518" lon="1.449192">
        <ele>180.4</ele>
        <time>2014-12-07T08:26:08Z</time>
      </trkpt>
      <trkpt lat="41.217514" lon="1.449220">
        <ele>181.4</ele>
        <time>2014-12-07T08:26:09Z</time>
      </trkpt>
      <trkpt lat="41.217518" lon="1.449246">
        <ele>181.8</ele>
        <time>2014-12-07T08:26:10Z</time>
      </trkpt>
      <trkpt lat="41.217525" lon="1.449274">
        <ele>182.2</ele>
        <time>2014-12-07T08:26:11Z</time>
      </trkpt>
      <trkpt lat="41.217533" lon="1.449295">
        <ele>182.6</ele>
        <time>2014-12-07T08:26:12Z</time>
      </trkpt>
      <trkpt lat="41.217541" lon="1.449316">
        <ele>183.0</ele>
        <time>2014-12-07T08:26:13Z</time>
      </trkpt>
      <trkpt lat="41.217590" lon="1.449464">
        <ele>183.0</ele>
        <time>2014-12-07T08:26:19Z</time>
      </trkpt>
      <trkpt lat="41.217613" lon="1.449511">
        <ele>183.4</ele>
        <time>2014-12-07T08:26:21Z</time>
      </trkpt>
      <trkpt lat="41.217625" lon="1.449535">
        <ele>183.8</ele>
        <time>2014-12-07T08:26:22Z</time>
      </trkpt>
      <trkpt lat="41.217636" lon="1.449561">
        <ele>184.2</ele>
        <time>2014-12-07T08:26:23Z</time>
      </trkpt>
      <trkpt lat="41.217648" lon="1.449581">
        <ele>184.6</ele>
        <time>2014-12-07T08:26:24Z</time>
      </trkpt>
      <trkpt lat="41.217659" lon="1.449604">
        <ele>185.0</ele>
        <time>2014-12-07T08:26:25Z</time>
      </trkpt>
      <trkpt lat="41.217693" lon="1.449668">
        <ele>185.4</ele>
        <time>2014-12-07T08:26:28Z</time>
      </trkpt>
      <trkpt lat="41.217701" lon="1.449688">
        <ele>185.8</ele>
        <time>2014-12-07T08:26:29Z</time>
      </trkpt>
      <trkpt lat="41.217709" lon="1.449706">
        <ele>186.2</ele>
        <time>2014-12-07T08:26:30Z</time>
      </trkpt>
      <trkpt lat="41.217720" lon="1.449718">
        <ele>186.8</ele>
        <time>2014-12-07T08:26:31Z</time>
      </trkpt>
      <trkpt lat="41.217731" lon="1.449728">
        <ele>187.2</ele>
        <time>2014-12-07T08:26:32Z</time>
      </trkpt>
      <trkpt lat="41.217800" lon="1.449849">
        <ele>187.2</ele>
        <time>2014-12-07T08:26:37Z</time>
      </trkpt>
      <trkpt lat="41.217854" lon="1.450008">
        <ele>187.2</ele>
        <time>2014-12-07T08:26:43Z</time>
      </trkpt>
      <trkpt lat="41.217899" lon="1.450137">
        <ele>187.6</ele>
        <time>2014-12-07T08:26:48Z</time>
      </trkpt>
      <trkpt lat="41.217915" lon="1.450162">
        <ele>188.0</ele>
        <time>2014-12-07T08:26:49Z</time>
      </trkpt>
      <trkpt lat="41.217926" lon="1.450191">
        <ele>188.4</ele>
        <time>2014-12-07T08:26:50Z</time>
      </trkpt>
      <trkpt lat="41.217937" lon="1.450221">
        <ele>188.8</ele>
        <time>2014-12-07T08:26:51Z</time>
      </trkpt>
      <trkpt lat="41.217945" lon="1.450249">
        <ele>189.2</ele>
        <time>2014-12-07T08:26:52Z</time>
      </trkpt>
      <trkpt lat="41.217960" lon="1.450286">
        <ele>189.2</ele>
        <time>2014-12-07T08:26:54Z</time>
      </trkpt>
      <trkpt lat="41.217987" lon="1.450419">
        <ele>189.6</ele>
        <time>2014-12-07T08:26:59Z</time>
      </trkpt>
      <trkpt lat="41.217991" lon="1.450446">
        <ele>190.4</ele>
        <time>2014-12-07T08:27:00Z</time>
      </trkpt>
      <trkpt lat="41.217987" lon="1.450469">
        <ele>190.8</ele>
        <time>2014-12-07T08:27:01Z</time>
      </trkpt>
      <trkpt lat="41.217983" lon="1.450490">
        <ele>191.2</ele>
        <time>2014-12-07T08:27:02Z</time>
      </trkpt>
      <trkpt lat="41.217960" lon="1.450530">
        <ele>191.6</ele>
        <time>2014-12-07T08:27:04Z</time>
      </trkpt>
      <trkpt lat="41.217953" lon="1.450547">
        <ele>192.0</ele>
        <time>2014-12-07T08:27:05Z</time>
      </trkpt>
      <trkpt lat="41.217953" lon="1.450551">
        <ele>192.4</ele>
        <time>2014-12-07T08:27:06Z</time>
      </trkpt>
      <trkpt lat="41.217941" lon="1.450557">
        <ele>192.8</ele>
        <time>2014-12-07T08:27:07Z</time>
      </trkpt>
      <trkpt lat="41.217934" lon="1.450564">
        <ele>193.2</ele>
        <time>2014-12-07T08:27:08Z</time>
      </trkpt>
      <trkpt lat="41.217922" lon="1.450581">
        <ele>193.2</ele>
        <time>2014-12-07T08:27:10Z</time>
      </trkpt>
      <trkpt lat="41.217907" lon="1.450584">
        <ele>193.8</ele>
        <time>2014-12-07T08:27:11Z</time>
      </trkpt>
      <trkpt lat="41.217899" lon="1.450592">
        <ele>194.2</ele>
        <time>2014-12-07T08:27:12Z</time>
      </trkpt>
      <trkpt lat="41.217880" lon="1.450598">
        <ele>194.6</ele>
        <time>2014-12-07T08:27:13Z</time>
      </trkpt>
      <trkpt lat="41.217865" lon="1.450613">
        <ele>195.0</ele>
        <time>2014-12-07T08:27:14Z</time>
      </trkpt>
      <trkpt lat="41.217842" lon="1.450623">
        <ele>195.4</ele>
        <time>2014-12-07T08:27:15Z</time>
      </trkpt>
      <trkpt lat="41.217827" lon="1.450633">
        <ele>195.4</ele>
        <time>2014-12-07T08:27:16Z</time>
      </trkpt>
      <trkpt lat="41.217781" lon="1.450669">
        <ele>196.0</ele>
        <time>2014-12-07T08:27:19Z</time>
      </trkpt>
      <trkpt lat="41.217762" lon="1.450681">
        <ele>196.4</ele>
        <time>2014-12-07T08:27:20Z</time>
      </trkpt>
      <trkpt lat="41.217747" lon="1.450688">
        <ele>196.8</ele>
        <time>2014-12-07T08:27:21Z</time>
      </trkpt>
      <trkpt lat="41.217735" lon="1.450700">
        <ele>197.2</ele>
        <time>2014-12-07T08:27:22Z</time>
      </trkpt>
      <trkpt lat="41.217720" lon="1.450715">
        <ele>197.8</ele>
        <time>2014-12-07T08:27:23Z</time>
      </trkpt>
      <trkpt lat="41.217709" lon="1.450726">
        <ele>198.2</ele>
        <time>2014-12-07T08:27:24Z</time>
      </trkpt>
      <trkpt lat="41.217690" lon="1.450735">
        <ele>198.6</ele>
        <time>2014-12-07T08:27:25Z</time>
      </trkpt>
      <trkpt lat="41.217670" lon="1.450742">
        <ele>199.0</ele>
        <time>2014-12-07T08:27:26Z</time>
      </trkpt>
      <trkpt lat="41.217655" lon="1.450747">
        <ele>199.6</ele>
        <time>2014-12-07T08:27:27Z</time>
      </trkpt>
      <trkpt lat="41.217644" lon="1.450751">
        <ele>200.0</ele>
        <time>2014-12-07T08:27:28Z</time>
      </trkpt>
      <trkpt lat="41.217628" lon="1.450763">
        <ele>200.0</ele>
        <time>2014-12-07T08:27:29Z</time>
      </trkpt>
      <trkpt lat="41.217606" lon="1.450781">
        <ele>200.4</ele>
        <time>2014-12-07T08:27:31Z</time>
      </trkpt>
      <trkpt lat="41.217590" lon="1.450790">
        <ele>200.8</ele>
        <time>2014-12-07T08:27:32Z</time>
      </trkpt>
      <trkpt lat="41.217575" lon="1.450798">
        <ele>201.4</ele>
        <time>2014-12-07T08:27:33Z</time>
      </trkpt>
      <trkpt lat="41.217560" lon="1.450799">
        <ele>201.8</ele>
        <time>2014-12-07T08:27:34Z</time>
      </trkpt>
      <trkpt lat="41.217545" lon="1.450805">
        <ele>202.2</ele>
        <time>2014-12-07T08:27:35Z</time>
      </trkpt>
      <trkpt lat="41.217506" lon="1.450823">
        <ele>202.8</ele>
        <time>2014-12-07T08:27:37Z</time>
      </trkpt>
      <trkpt lat="41.217487" lon="1.450830">
        <ele>203.2</ele>
        <time>2014-12-07T08:27:38Z</time>
      </trkpt>
      <trkpt lat="41.217472" lon="1.450839">
        <ele>203.6</ele>
        <time>2014-12-07T08:27:39Z</time>
      </trkpt>
      <trkpt lat="41.217449" lon="1.450845">
        <ele>204.2</ele>
        <time>2014-12-07T08:27:40Z</time>
      </trkpt>
      <trkpt lat="41.217434" lon="1.450852">
        <ele>204.6</ele>
        <time>2014-12-07T08:27:41Z</time>
      </trkpt>
      <trkpt lat="41.217400" lon="1.450855">
        <ele>205.0</ele>
        <time>2014-12-07T08:27:43Z</time>
      </trkpt>
      <trkpt lat="41.217384" lon="1.450858">
        <ele>205.6</ele>
        <time>2014-12-07T08:27:44Z</time>
      </trkpt>
      <trkpt lat="41.217365" lon="1.450858">
        <ele>206.0</ele>
        <time>2014-12-07T08:27:45Z</time>
      </trkpt>
      <trkpt lat="41.217350" lon="1.450861">
        <ele>206.4</ele>
        <time>2014-12-07T08:27:46Z</time>
      </trkpt>
      <trkpt lat="41.217335" lon="1.450865">
        <ele>206.8</ele>
        <time>2014-12-07T08:27:47Z</time>
      </trkpt>
      <trkpt lat="41.217300" lon="1.450876">
        <ele>207.6</ele>
        <time>2014-12-07T08:27:49Z</time>
      </trkpt>
      <trkpt lat="41.217278" lon="1.450882">
        <ele>208.0</ele>
        <time>2014-12-07T08:27:50Z</time>
      </trkpt>
      <trkpt lat="41.217262" lon="1.450883">
        <ele>208.6</ele>
        <time>2014-12-07T08:27:51Z</time>
      </trkpt>
      <trkpt lat="41.217243" lon="1.450876">
        <ele>209.0</ele>
        <time>2014-12-07T08:27:52Z</time>
      </trkpt>
      <trkpt lat="41.217190" lon="1.450867">
        <ele>209.4</ele>
        <time>2014-12-07T08:27:55Z</time>
      </trkpt>
      <trkpt lat="41.217175" lon="1.450862">
        <ele>209.8</ele>
        <time>2014-12-07T08:27:56Z</time>
      </trkpt>
      <trkpt lat="41.217155" lon="1.450861">
        <ele>210.2</ele>
        <time>2014-12-07T08:27:57Z</time>
      </trkpt>
      <trkpt lat="41.217140" lon="1.450863">
        <ele>210.8</ele>
        <time>2014-12-07T08:27:58Z</time>
      </trkpt>
      <trkpt lat="41.217129" lon="1.450861">
        <ele>211.2</ele>
        <time>2014-12-07T08:27:59Z</time>
      </trkpt>
      <trkpt lat="41.217045" lon="1.450863">
        <ele>211.2</ele>
        <time>2014-12-07T08:28:04Z</time>
      </trkpt>
      <trkpt lat="41.217030" lon="1.450864">
        <ele>211.6</ele>
        <time>2014-12-07T08:28:05Z</time>
      </trkpt>
      <trkpt lat="41.217010" lon="1.450863">
        <ele>212.0</ele>
        <time>2014-12-07T08:28:06Z</time>
      </trkpt>
      <trkpt lat="41.216995" lon="1.450868">
        <ele>212.6</ele>
        <time>2014-12-07T08:28:07Z</time>
      </trkpt>
      <trkpt lat="41.216976" lon="1.450868">
        <ele>213.0</ele>
        <time>2014-12-07T08:28:08Z</time>
      </trkpt>
      <trkpt lat="41.216965" lon="1.450862">
        <ele>213.6</ele>
        <time>2014-12-07T08:28:09Z</time>
      </trkpt>
      <trkpt lat="41.216949" lon="1.450860">
        <ele>214.2</ele>
        <time>2014-12-07T08:28:10Z</time>
      </trkpt>
      <trkpt lat="41.216930" lon="1.450863">
        <ele>214.6</ele>
        <time>2014-12-07T08:28:11Z</time>
      </trkpt>
      <trkpt lat="41.216915" lon="1.450863">
        <ele>215.2</ele>
        <time>2014-12-07T08:28:12Z</time>
      </trkpt>
      <trkpt lat="41.216900" lon="1.450859">
        <ele>215.8</ele>
        <time>2014-12-07T08:28:13Z</time>
      </trkpt>
      <trkpt lat="41.216885" lon="1.450858">
        <ele>216.8</ele>
        <time>2014-12-07T08:28:14Z</time>
      </trkpt>
      <trkpt lat="41.216869" lon="1.450858">
        <ele>217.2</ele>
        <time>2014-12-07T08:28:15Z</time>
      </trkpt>
      <trkpt lat="41.216858" lon="1.450859">
        <ele>217.8</ele>
        <time>2014-12-07T08:28:16Z</time>
      </trkpt>
      <trkpt lat="41.216843" lon="1.450856">
        <ele>218.2</ele>
        <time>2014-12-07T08:28:17Z</time>
      </trkpt>
      <trkpt lat="41.216824" lon="1.450857">
        <ele>218.6</ele>
        <time>2014-12-07T08:28:18Z</time>
      </trkpt>
      <trkpt lat="41.216805" lon="1.450863">
        <ele>219.0</ele>
        <time>2014-12-07T08:28:19Z</time>
      </trkpt>
      <trkpt lat="41.216793" lon="1.450863">
        <ele>219.4</ele>
        <time>2014-12-07T08:28:20Z</time>
      </trkpt>
      <trkpt lat="41.216778" lon="1.450863">
        <ele>220.0</ele>
        <time>2014-12-07T08:28:21Z</time>
      </trkpt>
      <trkpt lat="41.216721" lon="1.450847">
        <ele>220.4</ele>
        <time>2014-12-07T08:28:25Z</time>
      </trkpt>
      <trkpt lat="41.216702" lon="1.450848">
        <ele>220.8</ele>
        <time>2014-12-07T08:28:26Z</time>
      </trkpt>
      <trkpt lat="41.216686" lon="1.450845">
        <ele>221.2</ele>
        <time>2014-12-07T08:28:27Z</time>
      </trkpt>
      <trkpt lat="41.216667" lon="1.450844">
        <ele>221.6</ele>
        <time>2014-12-07T08:28:28Z</time>
      </trkpt>
      <trkpt lat="41.216648" lon="1.450841">
        <ele>222.0</ele>
        <time>2014-12-07T08:28:29Z</time>
      </trkpt>
      <trkpt lat="41.216602" lon="1.450826">
        <ele>222.6</ele>
        <time>2014-12-07T08:28:32Z</time>
      </trkpt>
      <trkpt lat="41.216579" lon="1.450827">
        <ele>223.0</ele>
        <time>2014-12-07T08:28:33Z</time>
      </trkpt>
      <trkpt lat="41.216557" lon="1.450837">
        <ele>223.4</ele>
        <time>2014-12-07T08:28:34Z</time>
      </trkpt>
      <trkpt lat="41.216534" lon="1.450836">
        <ele>223.8</ele>
        <time>2014-12-07T08:28:35Z</time>
      </trkpt>
      <trkpt lat="41.216518" lon="1.450841">
        <ele>224.4</ele>
        <time>2014-12-07T08:28:36Z</time>
      </trkpt>
      <trkpt lat="41.216469" lon="1.450867">
        <ele>224.4</ele>
        <time>2014-12-07T08:28:39Z</time>
      </trkpt>
      <trkpt lat="41.216438" lon="1.450890">
        <ele>224.4</ele>
        <time>2014-12-07T08:28:41Z</time>
      </trkpt>
      <trkpt lat="41.216373" lon="1.450991">
        <ele>224.8</ele>
        <time>2014-12-07T08:28:46Z</time>
      </trkpt>
      <trkpt lat="41.216370" lon="1.451014">
        <ele>225.4</ele>
        <time>2014-12-07T08:28:47Z</time>
      </trkpt>
      <trkpt lat="41.216362" lon="1.451030">
        <ele>226.0</ele>
        <time>2014-12-07T08:28:48Z</time>
      </trkpt>
      <trkpt lat="41.216358" lon="1.451050">
        <ele>226.4</ele>
        <time>2014-12-07T08:28:49Z</time>
      </trkpt>
      <trkpt lat="41.216347" lon="1.451059">
        <ele>227.0</ele>
        <time>2014-12-07T08:28:50Z</time>
      </trkpt>
      <trkpt lat="41.216339" lon="1.451077">
        <ele>227.0</ele>
        <time>2014-12-07T08:28:51Z</time>
      </trkpt>
      <trkpt lat="41.216328" lon="1.451125">
        <ele>227.4</ele>
        <time>2014-12-07T08:28:53Z</time>
      </trkpt>
      <trkpt lat="41.216324" lon="1.451144">
        <ele>227.8</ele>
        <time>2014-12-07T08:28:54Z</time>
      </trkpt>
      <trkpt lat="41.216312" lon="1.451163">
        <ele>228.4</ele>
        <time>2014-12-07T08:28:55Z</time>
      </trkpt>
      <trkpt lat="41.216309" lon="1.451181">
        <ele>228.8</ele>
        <time>2014-12-07T08:28:56Z</time>
      </trkpt>
      <trkpt lat="41.216297" lon="1.451200">
        <ele>229.2</ele>
        <time>2014-12-07T08:28:57Z</time>
      </trkpt>
      <trkpt lat="41.216293" lon="1.451216">
        <ele>229.2</ele>
        <time>2014-12-07T08:28:58Z</time>
      </trkpt>
      <trkpt lat="41.216225" lon="1.451320">
        <ele>229.2</ele>
        <time>2014-12-07T08:29:04Z</time>
      </trkpt>
      <trkpt lat="41.216194" lon="1.451343">
        <ele>229.2</ele>
        <time>2014-12-07T08:29:06Z</time>
      </trkpt>
      <trkpt lat="41.216145" lon="1.451373">
        <ele>229.2</ele>
        <time>2014-12-07T08:29:09Z</time>
      </trkpt>
      <trkpt lat="41.216026" lon="1.451429">
        <ele>229.8</ele>
        <time>2014-12-07T08:29:15Z</time>
      </trkpt>
      <trkpt lat="41.216011" lon="1.451440">
        <ele>230.2</ele>
        <time>2014-12-07T08:29:16Z</time>
      </trkpt>
      <trkpt lat="41.216000" lon="1.451443">
        <ele>230.6</ele>
        <time>2014-12-07T08:29:17Z</time>
      </trkpt>
      <trkpt lat="41.215992" lon="1.451453">
        <ele>231.0</ele>
        <time>2014-12-07T08:29:18Z</time>
      </trkpt>
      <trkpt lat="41.215981" lon="1.451459">
        <ele>231.4</ele>
        <time>2014-12-07T08:29:19Z</time>
      </trkpt>
      <trkpt lat="41.215950" lon="1.451483">
        <ele>231.4</ele>
        <time>2014-12-07T08:29:21Z</time>
      </trkpt>
      <trkpt lat="41.215874" lon="1.451525">
        <ele>232.0</ele>
        <time>2014-12-07T08:29:25Z</time>
      </trkpt>
      <trkpt lat="41.215855" lon="1.451529">
        <ele>232.4</ele>
        <time>2014-12-07T08:29:26Z</time>
      </trkpt>
      <trkpt lat="41.215839" lon="1.451532">
        <ele>232.8</ele>
        <time>2014-12-07T08:29:27Z</time>
      </trkpt>
      <trkpt lat="41.215820" lon="1.451534">
        <ele>233.6</ele>
        <time>2014-12-07T08:29:28Z</time>
      </trkpt>
      <trkpt lat="41.215767" lon="1.451533">
        <ele>233.6</ele>
        <time>2014-12-07T08:29:31Z</time>
      </trkpt>
      <trkpt lat="41.215733" lon="1.451508">
        <ele>233.6</ele>
        <time>2014-12-07T08:29:33Z</time>
      </trkpt>
      <trkpt lat="41.215706" lon="1.451560">
        <ele>233.6</ele>
        <time>2014-12-07T08:29:37Z</time>
      </trkpt>
      <trkpt lat="41.215775" lon="1.451551">
        <ele>234.0</ele>
        <time>2014-12-07T08:29:41Z</time>
      </trkpt>
      <trkpt lat="41.215805" lon="1.451548">
        <ele>234.4</ele>
        <time>2014-12-07T08:29:42Z</time>
      </trkpt>
      <trkpt lat="41.215836" lon="1.451543">
        <ele>235.0</ele>
        <time>2014-12-07T08:29:43Z</time>
      </trkpt>
      <trkpt lat="41.215870" lon="1.451532">
        <ele>235.4</ele>
        <time>2014-12-07T08:29:44Z</time>
      </trkpt>
      <trkpt lat="41.215904" lon="1.451506">
        <ele>235.8</ele>
        <time>2014-12-07T08:29:45Z</time>
      </trkpt>
      <trkpt lat="41.215939" lon="1.451476">
        <ele>235.8</ele>
        <time>2014-12-07T08:29:46Z</time>
      </trkpt>
      <trkpt lat="41.216019" lon="1.451426">
        <ele>235.2</ele>
        <time>2014-12-07T08:29:48Z</time>
      </trkpt>
      <trkpt lat="41.216064" lon="1.451394">
        <ele>234.8</ele>
        <time>2014-12-07T08:29:49Z</time>
      </trkpt>
      <trkpt lat="41.216114" lon="1.451363">
        <ele>234.4</ele>
        <time>2014-12-07T08:29:50Z</time>
      </trkpt>
      <trkpt lat="41.216167" lon="1.451335">
        <ele>233.8</ele>
        <time>2014-12-07T08:29:51Z</time>
      </trkpt>
      <trkpt lat="41.216217" lon="1.451299">
        <ele>233.2</ele>
        <time>2014-12-07T08:29:52Z</time>
      </trkpt>
      <trkpt lat="41.216270" lon="1.451270">
        <ele>232.0</ele>
        <time>2014-12-07T08:29:53Z</time>
      </trkpt>
      <trkpt lat="41.216316" lon="1.451259">
        <ele>231.4</ele>
        <time>2014-12-07T08:29:54Z</time>
      </trkpt>
      <trkpt lat="41.216351" lon="1.451246">
        <ele>231.4</ele>
        <time>2014-12-07T08:29:55Z</time>
      </trkpt>
      <trkpt lat="41.216389" lon="1.451238">
        <ele>231.4</ele>
        <time>2014-12-07T08:29:59Z</time>
      </trkpt>
      <trkpt lat="41.216450" lon="1.451229">
        <ele>229.4</ele>
        <time>2014-12-07T08:32:11Z</time>
      </trkpt>
      <trkpt lat="41.216515" lon="1.451206">
        <ele>229.4</ele>
        <time>2014-12-07T08:32:13Z</time>
      </trkpt>
      <trkpt lat="41.216648" lon="1.451147">
        <ele>229.4</ele>
        <time>2014-12-07T08:32:18Z</time>
      </trkpt>
      <trkpt lat="41.216774" lon="1.451201">
        <ele>229.4</ele>
        <time>2014-12-07T08:32:21Z</time>
      </trkpt>
      <trkpt lat="41.216812" lon="1.451237">
        <ele>229.4</ele>
        <time>2014-12-07T08:32:22Z</time>
      </trkpt>
      <trkpt lat="41.217010" lon="1.451398">
        <ele>229.4</ele>
        <time>2014-12-07T08:32:28Z</time>
      </trkpt>
      <trkpt lat="41.217140" lon="1.451558">
        <ele>229.4</ele>
        <time>2014-12-07T08:32:33Z</time>
      </trkpt>
      <trkpt lat="41.217247" lon="1.451741">
        <ele>229.4</ele>
        <time>2014-12-07T08:32:39Z</time>
      </trkpt>
      <trkpt lat="41.217373" lon="1.451895">
        <ele>229.4</ele>
        <time>2014-12-07T08:32:45Z</time>
      </trkpt>
      <trkpt lat="41.217457" lon="1.451946">
        <ele>229.8</ele>
        <time>2014-12-07T08:32:48Z</time>
      </trkpt>
      <trkpt lat="41.217484" lon="1.451955">
        <ele>230.4</ele>
        <time>2014-12-07T08:32:49Z</time>
      </trkpt>
      <trkpt lat="41.217510" lon="1.451962">
        <ele>230.8</ele>
        <time>2014-12-07T08:32:50Z</time>
      </trkpt>
      <trkpt lat="41.217541" lon="1.451966">
        <ele>231.4</ele>
        <time>2014-12-07T08:32:51Z</time>
      </trkpt>
      <trkpt lat="41.217567" lon="1.451970">
        <ele>231.8</ele>
        <time>2014-12-07T08:32:52Z</time>
      </trkpt>
      <trkpt lat="41.217598" lon="1.451977">
        <ele>232.2</ele>
        <time>2014-12-07T08:32:53Z</time>
      </trkpt>
      <trkpt lat="41.217617" lon="1.451980">
        <ele>232.8</ele>
        <time>2014-12-07T08:32:54Z</time>
      </trkpt>
      <trkpt lat="41.217640" lon="1.451985">
        <ele>233.2</ele>
        <time>2014-12-07T08:32:55Z</time>
      </trkpt>
      <trkpt lat="41.217667" lon="1.451997">
        <ele>233.8</ele>
        <time>2014-12-07T08:32:56Z</time>
      </trkpt>
      <trkpt lat="41.217697" lon="1.452004">
        <ele>234.2</ele>
        <time>2014-12-07T08:32:57Z</time>
      </trkpt>
      <trkpt lat="41.217899" lon="1.452060">
        <ele>234.2</ele>
        <time>2014-12-07T08:33:04Z</time>
      </trkpt>
      <trkpt lat="41.218086" lon="1.452087">
        <ele>234.6</ele>
        <time>2014-12-07T08:33:10Z</time>
      </trkpt>
      <trkpt lat="41.218117" lon="1.452093">
        <ele>235.0</ele>
        <time>2014-12-07T08:33:11Z</time>
      </trkpt>
      <trkpt lat="41.218151" lon="1.452093">
        <ele>235.4</ele>
        <time>2014-12-07T08:33:12Z</time>
      </trkpt>
      <trkpt lat="41.218185" lon="1.452097">
        <ele>235.8</ele>
        <time>2014-12-07T08:33:13Z</time>
      </trkpt>
      <trkpt lat="41.218216" lon="1.452100">
        <ele>236.4</ele>
        <time>2014-12-07T08:33:14Z</time>
      </trkpt>
      <trkpt lat="41.218407" lon="1.452120">
        <ele>236.4</ele>
        <time>2014-12-07T08:33:20Z</time>
      </trkpt>
      <trkpt lat="41.218616" lon="1.452185">
        <ele>236.4</ele>
        <time>2014-12-07T08:33:27Z</time>
      </trkpt>
      <trkpt lat="41.218838" lon="1.452309">
        <ele>236.4</ele>
        <time>2014-12-07T08:33:35Z</time>
      </trkpt>
      <trkpt lat="41.218868" lon="1.452327">
        <ele>236.8</ele>
        <time>2014-12-07T08:33:36Z</time>
      </trkpt>
      <trkpt lat="41.218899" lon="1.452352">
        <ele>237.2</ele>
        <time>2014-12-07T08:33:37Z</time>
      </trkpt>
      <trkpt lat="41.218922" lon="1.452376">
        <ele>237.6</ele>
        <time>2014-12-07T08:33:38Z</time>
      </trkpt>
      <trkpt lat="41.218945" lon="1.452401">
        <ele>238.0</ele>
        <time>2014-12-07T08:33:39Z</time>
      </trkpt>
      <trkpt lat="41.218967" lon="1.452435">
        <ele>238.4</ele>
        <time>2014-12-07T08:33:40Z</time>
      </trkpt>
      <trkpt lat="41.218990" lon="1.452468">
        <ele>238.4</ele>
        <time>2014-12-07T08:33:41Z</time>
      </trkpt>
      <trkpt lat="41.219116" lon="1.452740">
        <ele>238.4</ele>
        <time>2014-12-07T08:33:47Z</time>
      </trkpt>
      <trkpt lat="41.219131" lon="1.452792">
        <ele>238.4</ele>
        <time>2014-12-07T08:33:48Z</time>
      </trkpt>
      <trkpt lat="41.219143" lon="1.452843">
        <ele>238.8</ele>
        <time>2014-12-07T08:33:49Z</time>
      </trkpt>
      <trkpt lat="41.219154" lon="1.452896">
        <ele>239.2</ele>
        <time>2014-12-07T08:33:50Z</time>
      </trkpt>
      <trkpt lat="41.219162" lon="1.452945">
        <ele>239.6</ele>
        <time>2014-12-07T08:33:51Z</time>
      </trkpt>
      <trkpt lat="41.219170" lon="1.452996">
        <ele>240.0</ele>
        <time>2014-12-07T08:33:52Z</time>
      </trkpt>
      <trkpt lat="41.219166" lon="1.453048">
        <ele>239.6</ele>
        <time>2014-12-07T08:33:53Z</time>
      </trkpt>
      <trkpt lat="41.219162" lon="1.453102">
        <ele>239.4</ele>
        <time>2014-12-07T08:33:54Z</time>
      </trkpt>
      <trkpt lat="41.219158" lon="1.453158">
        <ele>239.0</ele>
        <time>2014-12-07T08:33:55Z</time>
      </trkpt>
      <trkpt lat="41.219154" lon="1.453213">
        <ele>238.6</ele>
        <time>2014-12-07T08:33:56Z</time>
      </trkpt>
      <trkpt lat="41.219143" lon="1.453267">
        <ele>238.2</ele>
        <time>2014-12-07T08:33:57Z</time>
      </trkpt>
      <trkpt lat="41.219116" lon="1.453373">
        <ele>238.2</ele>
        <time>2014-12-07T08:33:59Z</time>
      </trkpt>
      <trkpt lat="41.219059" lon="1.453631">
        <ele>238.2</ele>
        <time>2014-12-07T08:34:05Z</time>
      </trkpt>
      <trkpt lat="41.219009" lon="1.453867">
        <ele>238.2</ele>
        <time>2014-12-07T08:34:11Z</time>
      </trkpt>
      <trkpt lat="41.218971" lon="1.454007">
        <ele>238.8</ele>
        <time>2014-12-07T08:34:14Z</time>
      </trkpt>
      <trkpt lat="41.218956" lon="1.454059">
        <ele>239.2</ele>
        <time>2014-12-07T08:34:15Z</time>
      </trkpt>
      <trkpt lat="41.218937" lon="1.454116">
        <ele>239.6</ele>
        <time>2014-12-07T08:34:16Z</time>
      </trkpt>
      <trkpt lat="41.218922" lon="1.454176">
        <ele>240.0</ele>
        <time>2014-12-07T08:34:17Z</time>
      </trkpt>
      <trkpt lat="41.218895" lon="1.454235">
        <ele>240.4</ele>
        <time>2014-12-07T08:34:18Z</time>
      </trkpt>
      <trkpt lat="41.218792" lon="1.454501">
        <ele>239.8</ele>
        <time>2014-12-07T08:34:22Z</time>
      </trkpt>
      <trkpt lat="41.218761" lon="1.454580">
        <ele>239.4</ele>
        <time>2014-12-07T08:34:23Z</time>
      </trkpt>
      <trkpt lat="41.218735" lon="1.454665">
        <ele>238.2</ele>
        <time>2014-12-07T08:34:24Z</time>
      </trkpt>
      <trkpt lat="41.218704" lon="1.454755">
        <ele>237.4</ele>
        <time>2014-12-07T08:34:25Z</time>
      </trkpt>
      <trkpt lat="41.218681" lon="1.454833">
        <ele>236.6</ele>
        <time>2014-12-07T08:34:26Z</time>
      </trkpt>
      <trkpt lat="41.218670" lon="1.454917">
        <ele>235.6</ele>
        <time>2014-12-07T08:34:27Z</time>
      </trkpt>
      <trkpt lat="41.218678" lon="1.454992">
        <ele>234.2</ele>
        <time>2014-12-07T08:34:28Z</time>
      </trkpt>
      <trkpt lat="41.218719" lon="1.455043">
        <ele>233.0</ele>
        <time>2014-12-07T08:34:29Z</time>
      </trkpt>
      <trkpt lat="41.218773" lon="1.455079">
        <ele>231.6</ele>
        <time>2014-12-07T08:34:30Z</time>
      </trkpt>
      <trkpt lat="41.218830" lon="1.455103">
        <ele>230.2</ele>
        <time>2014-12-07T08:34:31Z</time>
      </trkpt>
      <trkpt lat="41.218891" lon="1.455101">
        <ele>228.8</ele>
        <time>2014-12-07T08:34:32Z</time>
      </trkpt>
      <trkpt lat="41.218952" lon="1.455099">
        <ele>227.4</ele>
        <time>2014-12-07T08:34:33Z</time>
      </trkpt>
      <trkpt lat="41.219009" lon="1.455097">
        <ele>226.0</ele>
        <time>2014-12-07T08:34:34Z</time>
      </trkpt>
      <trkpt lat="41.219246" lon="1.455106">
        <ele>226.0</ele>
        <time>2014-12-07T08:34:38Z</time>
      </trkpt>
      <trkpt lat="41.219524" lon="1.455107">
        <ele>226.0</ele>
        <time>2014-12-07T08:34:43Z</time>
      </trkpt>
      <trkpt lat="41.219578" lon="1.455092">
        <ele>226.0</ele>
        <time>2014-12-07T08:34:44Z</time>
      </trkpt>
      <trkpt lat="41.219769" lon="1.454995">
        <ele>226.0</ele>
        <time>2014-12-07T08:34:48Z</time>
      </trkpt>
      <trkpt lat="41.220055" lon="1.454829">
        <ele>226.0</ele>
        <time>2014-12-07T08:34:54Z</time>
      </trkpt>
      <trkpt lat="41.220100" lon="1.454809">
        <ele>226.0</ele>
        <time>2014-12-07T08:34:55Z</time>
      </trkpt>
      <trkpt lat="41.220169" lon="1.454798">
        <ele>225.6</ele>
        <time>2014-12-07T08:34:56Z</time>
      </trkpt>
      <trkpt lat="41.220238" lon="1.454793">
        <ele>225.2</ele>
        <time>2014-12-07T08:34:57Z</time>
      </trkpt>
      <trkpt lat="41.220303" lon="1.454834">
        <ele>224.4</ele>
        <time>2014-12-07T08:34:58Z</time>
      </trkpt>
      <trkpt lat="41.220375" lon="1.454875">
        <ele>223.8</ele>
        <time>2014-12-07T08:34:59Z</time>
      </trkpt>
      <trkpt lat="41.220428" lon="1.454905">
        <ele>223.0</ele>
        <time>2014-12-07T08:35:00Z</time>
      </trkpt>
      <trkpt lat="41.220490" lon="1.454923">
        <ele>222.0</ele>
        <time>2014-12-07T08:35:01Z</time>
      </trkpt>
      <trkpt lat="41.220554" lon="1.454931">
        <ele>221.2</ele>
        <time>2014-12-07T08:35:02Z</time>
      </trkpt>
      <trkpt lat="41.220612" lon="1.454948">
        <ele>220.4</ele>
        <time>2014-12-07T08:35:03Z</time>
      </trkpt>
      <trkpt lat="41.220673" lon="1.454976">
        <ele>219.6</ele>
        <time>2014-12-07T08:35:04Z</time>
      </trkpt>
      <trkpt lat="41.220715" lon="1.455023">
        <ele>218.6</ele>
        <time>2014-12-07T08:35:05Z</time>
      </trkpt>
      <trkpt lat="41.220749" lon="1.455076">
        <ele>217.6</ele>
        <time>2014-12-07T08:35:06Z</time>
      </trkpt>
      <trkpt lat="41.220772" lon="1.455140">
        <ele>216.8</ele>
        <time>2014-12-07T08:35:07Z</time>
      </trkpt>
      <trkpt lat="41.220791" lon="1.455207">
        <ele>215.8</ele>
        <time>2014-12-07T08:35:08Z</time>
      </trkpt>
      <trkpt lat="41.220798" lon="1.455268">
        <ele>214.8</ele>
        <time>2014-12-07T08:35:09Z</time>
      </trkpt>
      <trkpt lat="41.220795" lon="1.455331">
        <ele>213.8</ele>
        <time>2014-12-07T08:35:10Z</time>
      </trkpt>
      <trkpt lat="41.220787" lon="1.455392">
        <ele>212.8</ele>
        <time>2014-12-07T08:35:11Z</time>
      </trkpt>
      <trkpt lat="41.220757" lon="1.455443">
        <ele>211.8</ele>
        <time>2014-12-07T08:35:12Z</time>
      </trkpt>
      <trkpt lat="41.220722" lon="1.455500">
        <ele>210.8</ele>
        <time>2014-12-07T08:35:13Z</time>
      </trkpt>
      <trkpt lat="41.220684" lon="1.455565">
        <ele>209.6</ele>
        <time>2014-12-07T08:35:14Z</time>
      </trkpt>
      <trkpt lat="41.220634" lon="1.455617">
        <ele>207.6</ele>
        <time>2014-12-07T08:35:15Z</time>
      </trkpt>
      <trkpt lat="41.220535" lon="1.455700">
        <ele>207.6</ele>
        <time>2014-12-07T08:35:17Z</time>
      </trkpt>
      <trkpt lat="41.220467" lon="1.455819">
        <ele>207.6</ele>
        <time>2014-12-07T08:35:20Z</time>
      </trkpt>
      <trkpt lat="41.220501" lon="1.455831">
        <ele>207.2</ele>
        <time>2014-12-07T08:35:21Z</time>
      </trkpt>
      <trkpt lat="41.220528" lon="1.455833">
        <ele>206.8</ele>
        <time>2014-12-07T08:35:22Z</time>
      </trkpt>
      <trkpt lat="41.220585" lon="1.455811">
        <ele>206.4</ele>
        <time>2014-12-07T08:35:23Z</time>
      </trkpt>
      <trkpt lat="41.220638" lon="1.455774">
        <ele>205.6</ele>
        <time>2014-12-07T08:35:24Z</time>
      </trkpt>
      <trkpt lat="41.220688" lon="1.455742">
        <ele>205.0</ele>
        <time>2014-12-07T08:35:25Z</time>
      </trkpt>
      <trkpt lat="41.220741" lon="1.455718">
        <ele>204.2</ele>
        <time>2014-12-07T08:35:26Z</time>
      </trkpt>
      <trkpt lat="41.220795" lon="1.455688">
        <ele>203.6</ele>
        <time>2014-12-07T08:35:27Z</time>
      </trkpt>
      <trkpt lat="41.220848" lon="1.455669">
        <ele>203.0</ele>
        <time>2014-12-07T08:35:28Z</time>
      </trkpt>
      <trkpt lat="41.221016" lon="1.455581">
        <ele>202.4</ele>
        <time>2014-12-07T08:35:31Z</time>
      </trkpt>
      <trkpt lat="41.221069" lon="1.455565">
        <ele>202.0</ele>
        <time>2014-12-07T08:35:32Z</time>
      </trkpt>
      <trkpt lat="41.221127" lon="1.455537">
        <ele>201.6</ele>
        <time>2014-12-07T08:35:33Z</time>
      </trkpt>
      <trkpt lat="41.221188" lon="1.455495">
        <ele>201.2</ele>
        <time>2014-12-07T08:35:34Z</time>
      </trkpt>
      <trkpt lat="41.221245" lon="1.455439">
        <ele>200.6</ele>
        <time>2014-12-07T08:35:35Z</time>
      </trkpt>
      <trkpt lat="41.221294" lon="1.455371">
        <ele>200.0</ele>
        <time>2014-12-07T08:35:36Z</time>
      </trkpt>
      <trkpt lat="41.221329" lon="1.455303">
        <ele>199.2</ele>
        <time>2014-12-07T08:35:37Z</time>
      </trkpt>
      <trkpt lat="41.221348" lon="1.455228">
        <ele>198.6</ele>
        <time>2014-12-07T08:35:38Z</time>
      </trkpt>
      <trkpt lat="41.221371" lon="1.455161">
        <ele>198.0</ele>
        <time>2014-12-07T08:35:39Z</time>
      </trkpt>
      <trkpt lat="41.221390" lon="1.455111">
        <ele>197.6</ele>
        <time>2014-12-07T08:35:40Z</time>
      </trkpt>
      <trkpt lat="41.221428" lon="1.455071">
        <ele>197.0</ele>
        <time>2014-12-07T08:35:41Z</time>
      </trkpt>
      <trkpt lat="41.221474" lon="1.455037">
        <ele>196.6</ele>
        <time>2014-12-07T08:35:42Z</time>
      </trkpt>
      <trkpt lat="41.221512" lon="1.454994">
        <ele>196.2</ele>
        <time>2014-12-07T08:35:43Z</time>
      </trkpt>
      <trkpt lat="41.221539" lon="1.454939">
        <ele>195.6</ele>
        <time>2014-12-07T08:35:44Z</time>
      </trkpt>
      <trkpt lat="41.221569" lon="1.454817">
        <ele>195.6</ele>
        <time>2014-12-07T08:35:46Z</time>
      </trkpt>
      <trkpt lat="41.221611" lon="1.454674">
        <ele>195.6</ele>
        <time>2014-12-07T08:35:50Z</time>
      </trkpt>
      <trkpt lat="41.221622" lon="1.454635">
        <ele>195.2</ele>
        <time>2014-12-07T08:35:51Z</time>
      </trkpt>
      <trkpt lat="41.221638" lon="1.454598">
        <ele>194.6</ele>
        <time>2014-12-07T08:35:52Z</time>
      </trkpt>
      <trkpt lat="41.221653" lon="1.454554">
        <ele>194.2</ele>
        <time>2014-12-07T08:35:53Z</time>
      </trkpt>
      <trkpt lat="41.221664" lon="1.454504">
        <ele>193.8</ele>
        <time>2014-12-07T08:35:54Z</time>
      </trkpt>
      <trkpt lat="41.221676" lon="1.454451">
        <ele>193.2</ele>
        <time>2014-12-07T08:35:55Z</time>
      </trkpt>
      <trkpt lat="41.221691" lon="1.454395">
        <ele>193.2</ele>
        <time>2014-12-07T08:35:56Z</time>
      </trkpt>
      <trkpt lat="41.221764" lon="1.454222">
        <ele>192.8</ele>
        <time>2014-12-07T08:36:00Z</time>
      </trkpt>
      <trkpt lat="41.221790" lon="1.454175">
        <ele>192.4</ele>
        <time>2014-12-07T08:36:01Z</time>
      </trkpt>
      <trkpt lat="41.221828" lon="1.454121">
        <ele>192.0</ele>
        <time>2014-12-07T08:36:02Z</time>
      </trkpt>
      <trkpt lat="41.221867" lon="1.454065">
        <ele>191.4</ele>
        <time>2014-12-07T08:36:03Z</time>
      </trkpt>
      <trkpt lat="41.221909" lon="1.454018">
        <ele>190.2</ele>
        <time>2014-12-07T08:36:04Z</time>
      </trkpt>
      <trkpt lat="41.221951" lon="1.453961">
        <ele>189.6</ele>
        <time>2014-12-07T08:36:05Z</time>
      </trkpt>
      <trkpt lat="41.221992" lon="1.453906">
        <ele>189.0</ele>
        <time>2014-12-07T08:36:06Z</time>
      </trkpt>
      <trkpt lat="41.222027" lon="1.453839">
        <ele>189.0</ele>
        <time>2014-12-07T08:36:07Z</time>
      </trkpt>
      <trkpt lat="41.222054" lon="1.453764">
        <ele>188.4</ele>
        <time>2014-12-07T08:36:08Z</time>
      </trkpt>
      <trkpt lat="41.222073" lon="1.453686">
        <ele>188.0</ele>
        <time>2014-12-07T08:36:09Z</time>
      </trkpt>
      <trkpt lat="41.222092" lon="1.453604">
        <ele>187.6</ele>
        <time>2014-12-07T08:36:10Z</time>
      </trkpt>
      <trkpt lat="41.222107" lon="1.453523">
        <ele>187.0</ele>
        <time>2014-12-07T08:36:11Z</time>
      </trkpt>
      <trkpt lat="41.222126" lon="1.453450">
        <ele>186.6</ele>
        <time>2014-12-07T08:36:12Z</time>
      </trkpt>
      <trkpt lat="41.222252" lon="1.453077">
        <ele>186.6</ele>
        <time>2014-12-07T08:36:17Z</time>
      </trkpt>
      <trkpt lat="41.222435" lon="1.452633">
        <ele>186.6</ele>
        <time>2014-12-07T08:36:23Z</time>
      </trkpt>
      <trkpt lat="41.222504" lon="1.452568">
        <ele>186.0</ele>
        <time>2014-12-07T08:36:24Z</time>
      </trkpt>
      <trkpt lat="41.222576" lon="1.452499">
        <ele>185.4</ele>
        <time>2014-12-07T08:36:25Z</time>
      </trkpt>
      <trkpt lat="41.222660" lon="1.452427">
        <ele>185.0</ele>
        <time>2014-12-07T08:36:26Z</time>
      </trkpt>
      <trkpt lat="41.222736" lon="1.452356">
        <ele>184.2</ele>
        <time>2014-12-07T08:36:27Z</time>
      </trkpt>
      <trkpt lat="41.222813" lon="1.452284">
        <ele>182.4</ele>
        <time>2014-12-07T08:36:28Z</time>
      </trkpt>
      <trkpt lat="41.222897" lon="1.452217">
        <ele>181.4</ele>
        <time>2014-12-07T08:36:29Z</time>
      </trkpt>
      <trkpt lat="41.222965" lon="1.452159">
        <ele>180.4</ele>
        <time>2014-12-07T08:36:30Z</time>
      </trkpt>
      <trkpt lat="41.223038" lon="1.452106">
        <ele>179.2</ele>
        <time>2014-12-07T08:36:31Z</time>
      </trkpt>
      <trkpt lat="41.223110" lon="1.452058">
        <ele>178.0</ele>
        <time>2014-12-07T08:36:32Z</time>
      </trkpt>
      <trkpt lat="41.223186" lon="1.452029">
        <ele>176.6</ele>
        <time>2014-12-07T08:36:33Z</time>
      </trkpt>
      <trkpt lat="41.223248" lon="1.452029">
        <ele>175.4</ele>
        <time>2014-12-07T08:36:34Z</time>
      </trkpt>
      <trkpt lat="41.223309" lon="1.452045">
        <ele>173.8</ele>
        <time>2014-12-07T08:36:35Z</time>
      </trkpt>
      <trkpt lat="41.223373" lon="1.452087">
        <ele>172.4</ele>
        <time>2014-12-07T08:36:36Z</time>
      </trkpt>
      <trkpt lat="41.223434" lon="1.452141">
        <ele>170.8</ele>
        <time>2014-12-07T08:36:37Z</time>
      </trkpt>
      <trkpt lat="41.223492" lon="1.452191">
        <ele>169.0</ele>
        <time>2014-12-07T08:36:38Z</time>
      </trkpt>
      <trkpt lat="41.223553" lon="1.452205">
        <ele>167.4</ele>
        <time>2014-12-07T08:36:39Z</time>
      </trkpt>
      <trkpt lat="41.223602" lon="1.452179">
        <ele>165.8</ele>
        <time>2014-12-07T08:36:40Z</time>
      </trkpt>
      <trkpt lat="41.223648" lon="1.452103">
        <ele>164.2</ele>
        <time>2014-12-07T08:36:41Z</time>
      </trkpt>
      <trkpt lat="41.223686" lon="1.452021">
        <ele>162.4</ele>
        <time>2014-12-07T08:36:42Z</time>
      </trkpt>
      <trkpt lat="41.223709" lon="1.451918">
        <ele>160.8</ele>
        <time>2014-12-07T08:36:43Z</time>
      </trkpt>
      <trkpt lat="41.223736" lon="1.451805">
        <ele>160.8</ele>
        <time>2014-12-07T08:36:44Z</time>
      </trkpt>
      <trkpt lat="41.223862" lon="1.451482">
        <ele>160.8</ele>
        <time>2014-12-07T08:36:47Z</time>
      </trkpt>
      <trkpt lat="41.223919" lon="1.451377">
        <ele>160.0</ele>
        <time>2014-12-07T08:36:48Z</time>
      </trkpt>
      <trkpt lat="41.223976" lon="1.451272">
        <ele>159.0</ele>
        <time>2014-12-07T08:36:49Z</time>
      </trkpt>
      <trkpt lat="41.224037" lon="1.451175">
        <ele>157.6</ele>
        <time>2014-12-07T08:36:50Z</time>
      </trkpt>
      <trkpt lat="41.224110" lon="1.451080">
        <ele>156.2</ele>
        <time>2014-12-07T08:36:51Z</time>
      </trkpt>
      <trkpt lat="41.224197" lon="1.450994">
        <ele>155.0</ele>
        <time>2014-12-07T08:36:52Z</time>
      </trkpt>
      <trkpt lat="41.224277" lon="1.450917">
        <ele>153.8</ele>
        <time>2014-12-07T08:36:53Z</time>
      </trkpt>
      <trkpt lat="41.224358" lon="1.450852">
        <ele>151.4</ele>
        <time>2014-12-07T08:36:54Z</time>
      </trkpt>
      <trkpt lat="41.224434" lon="1.450798">
        <ele>150.2</ele>
        <time>2014-12-07T08:36:55Z</time>
      </trkpt>
      <trkpt lat="41.224503" lon="1.450747">
        <ele>149.0</ele>
        <time>2014-12-07T08:36:56Z</time>
      </trkpt>
      <trkpt lat="41.224556" lon="1.450703">
        <ele>148.4</ele>
        <time>2014-12-07T08:36:57Z</time>
      </trkpt>
      <trkpt lat="41.224613" lon="1.450658">
        <ele>147.8</ele>
        <time>2014-12-07T08:36:58Z</time>
      </trkpt>
      <trkpt lat="41.224667" lon="1.450594">
        <ele>147.0</ele>
        <time>2014-12-07T08:36:59Z</time>
      </trkpt>
      <trkpt lat="41.224712" lon="1.450523">
        <ele>146.4</ele>
        <time>2014-12-07T08:37:00Z</time>
      </trkpt>
      <trkpt lat="41.224747" lon="1.450443">
        <ele>145.8</ele>
        <time>2014-12-07T08:37:01Z</time>
      </trkpt>
      <trkpt lat="41.224762" lon="1.450352">
        <ele>145.4</ele>
        <time>2014-12-07T08:37:02Z</time>
      </trkpt>
      <trkpt lat="41.224773" lon="1.450263">
        <ele>145.0</ele>
        <time>2014-12-07T08:37:03Z</time>
      </trkpt>
      <trkpt lat="41.224777" lon="1.450174">
        <ele>144.2</ele>
        <time>2014-12-07T08:37:04Z</time>
      </trkpt>
      <trkpt lat="41.224766" lon="1.450083">
        <ele>143.4</ele>
        <time>2014-12-07T08:37:05Z</time>
      </trkpt>
      <trkpt lat="41.224754" lon="1.449993">
        <ele>142.6</ele>
        <time>2014-12-07T08:37:06Z</time>
      </trkpt>
      <trkpt lat="41.224739" lon="1.449909">
        <ele>142.0</ele>
        <time>2014-12-07T08:37:07Z</time>
      </trkpt>
      <trkpt lat="41.224720" lon="1.449823">
        <ele>141.2</ele>
        <time>2014-12-07T08:37:08Z</time>
      </trkpt>
      <trkpt lat="41.224674" lon="1.449556">
        <ele>141.2</ele>
        <time>2014-12-07T08:37:12Z</time>
      </trkpt>
      <trkpt lat="41.224651" lon="1.449557">
        <ele>141.2</ele>
        <time>2014-12-07T08:37:15Z</time>
      </trkpt>
      <trkpt lat="41.224655" lon="1.449555">
        <ele>141.2</ele>
        <time>2014-12-07T08:37:16Z</time>
      </trkpt>
      <trkpt lat="41.224648" lon="1.449566">
        <ele>141.2</ele>
        <time>2014-12-07T08:37:18Z</time>
      </trkpt>
      <trkpt lat="41.224640" lon="1.449586">
        <ele>141.2</ele>
        <time>2014-12-07T08:37:20Z</time>
      </trkpt>
      <trkpt lat="41.224640" lon="1.449582">
        <ele>141.2</ele>
        <time>2014-12-07T08:37:21Z</time>
      </trkpt>
      <trkpt lat="41.224655" lon="1.449571">
        <ele>141.0</ele>
        <time>2014-12-07T08:39:01Z</time>
      </trkpt>
      <trkpt lat="41.224655" lon="1.449534">
        <ele>141.0</ele>
        <time>2014-12-07T08:39:03Z</time>
      </trkpt>
      <trkpt lat="41.224648" lon="1.449376">
        <ele>141.0</ele>
        <time>2014-12-07T08:39:08Z</time>
      </trkpt>
      <trkpt lat="41.224609" lon="1.449162">
        <ele>141.0</ele>
        <time>2014-12-07T08:39:14Z</time>
      </trkpt>
      <trkpt lat="41.224537" lon="1.448942">
        <ele>141.0</ele>
        <time>2014-12-07T08:39:20Z</time>
      </trkpt>
      <trkpt lat="41.224472" lon="1.448825">
        <ele>140.6</ele>
        <time>2014-12-07T08:39:23Z</time>
      </trkpt>
      <trkpt lat="41.224449" lon="1.448786">
        <ele>140.2</ele>
        <time>2014-12-07T08:39:24Z</time>
      </trkpt>
      <trkpt lat="41.224422" lon="1.448747">
        <ele>139.8</ele>
        <time>2014-12-07T08:39:25Z</time>
      </trkpt>
      <trkpt lat="41.224396" lon="1.448703">
        <ele>139.2</ele>
        <time>2014-12-07T08:39:26Z</time>
      </trkpt>
      <trkpt lat="41.224365" lon="1.448659">
        <ele>138.8</ele>
        <time>2014-12-07T08:39:27Z</time>
      </trkpt>
      <trkpt lat="41.224277" lon="1.448527">
        <ele>138.4</ele>
        <time>2014-12-07T08:39:30Z</time>
      </trkpt>
      <trkpt lat="41.224251" lon="1.448478">
        <ele>138.0</ele>
        <time>2014-12-07T08:39:31Z</time>
      </trkpt>
      <trkpt lat="41.224228" lon="1.448428">
        <ele>137.6</ele>
        <time>2014-12-07T08:39:32Z</time>
      </trkpt>
      <trkpt lat="41.224205" lon="1.448378">
        <ele>137.2</ele>
        <time>2014-12-07T08:39:33Z</time>
      </trkpt>
      <trkpt lat="41.224190" lon="1.448326">
        <ele>136.8</ele>
        <time>2014-12-07T08:39:34Z</time>
      </trkpt>
      <trkpt lat="41.224175" lon="1.448278">
        <ele>136.8</ele>
        <time>2014-12-07T08:39:35Z</time>
      </trkpt>
      <trkpt lat="41.224144" lon="1.448178">
        <ele>136.8</ele>
        <time>2014-12-07T08:39:37Z</time>
      </trkpt>
      <trkpt lat="41.224121" lon="1.448066">
        <ele>136.8</ele>
        <time>2014-12-07T08:39:39Z</time>
      </trkpt>
      <trkpt lat="41.224010" lon="1.447732">
        <ele>136.8</ele>
        <time>2014-12-07T08:39:45Z</time>
      </trkpt>
      <trkpt lat="41.223949" lon="1.447619">
        <ele>136.8</ele>
        <time>2014-12-07T08:39:47Z</time>
      </trkpt>
      <trkpt lat="41.223804" lon="1.447447">
        <ele>136.8</ele>
        <time>2014-12-07T08:39:51Z</time>
      </trkpt>
      <trkpt lat="41.223572" lon="1.447232">
        <ele>136.4</ele>
        <time>2014-12-07T08:39:57Z</time>
      </trkpt>
      <trkpt lat="41.223534" lon="1.447196">
        <ele>136.0</ele>
        <time>2014-12-07T08:39:58Z</time>
      </trkpt>
      <trkpt lat="41.223495" lon="1.447157">
        <ele>135.6</ele>
        <time>2014-12-07T08:39:59Z</time>
      </trkpt>
      <trkpt lat="41.223461" lon="1.447119">
        <ele>135.2</ele>
        <time>2014-12-07T08:40:00Z</time>
      </trkpt>
      <trkpt lat="41.223427" lon="1.447077">
        <ele>134.8</ele>
        <time>2014-12-07T08:40:01Z</time>
      </trkpt>
      <trkpt lat="41.223186" lon="1.446797">
        <ele>134.8</ele>
        <time>2014-12-07T08:40:08Z</time>
      </trkpt>
      <trkpt lat="41.223019" lon="1.446609">
        <ele>134.8</ele>
        <time>2014-12-07T08:40:13Z</time>
      </trkpt>
      <trkpt lat="41.222984" lon="1.446573">
        <ele>134.8</ele>
        <time>2014-12-07T08:40:14Z</time>
      </trkpt>
      <trkpt lat="41.222790" lon="1.446301">
        <ele>134.8</ele>
        <time>2014-12-07T08:40:21Z</time>
      </trkpt>
      <trkpt lat="41.222778" lon="1.446249">
        <ele>134.8</ele>
        <time>2014-12-07T08:40:22Z</time>
      </trkpt>
      <trkpt lat="41.222759" lon="1.446082">
        <ele>134.8</ele>
        <time>2014-12-07T08:40:25Z</time>
      </trkpt>
      <trkpt lat="41.222763" lon="1.446025">
        <ele>134.8</ele>
        <time>2014-12-07T08:40:26Z</time>
      </trkpt>
      <trkpt lat="41.222767" lon="1.445969">
        <ele>134.8</ele>
        <time>2014-12-07T08:40:27Z</time>
      </trkpt>
      <trkpt lat="41.222797" lon="1.445747">
        <ele>134.8</ele>
        <time>2014-12-07T08:40:31Z</time>
      </trkpt>
      <trkpt lat="41.222805" lon="1.445690">
        <ele>134.8</ele>
        <time>2014-12-07T08:40:32Z</time>
      </trkpt>
      <trkpt lat="41.222805" lon="1.445259">
        <ele>134.8</ele>
        <time>2014-12-07T08:40:39Z</time>
      </trkpt>
      <trkpt lat="41.222801" lon="1.445197">
        <ele>134.8</ele>
        <time>2014-12-07T08:40:40Z</time>
      </trkpt>
      <trkpt lat="41.222767" lon="1.444939">
        <ele>134.8</ele>
        <time>2014-12-07T08:40:44Z</time>
      </trkpt>
      <trkpt lat="41.222668" lon="1.444492">
        <ele>134.8</ele>
        <time>2014-12-07T08:40:50Z</time>
      </trkpt>
      <trkpt lat="41.222569" lon="1.444025">
        <ele>134.2</ele>
        <time>2014-12-07T08:40:56Z</time>
      </trkpt>
      <trkpt lat="41.222557" lon="1.443944">
        <ele>133.8</ele>
        <time>2014-12-07T08:40:57Z</time>
      </trkpt>
      <trkpt lat="41.222542" lon="1.443863">
        <ele>133.4</ele>
        <time>2014-12-07T08:40:58Z</time>
      </trkpt>
      <trkpt lat="41.222527" lon="1.443781">
        <ele>133.0</ele>
        <time>2014-12-07T08:40:59Z</time>
      </trkpt>
      <trkpt lat="41.222515" lon="1.443701">
        <ele>132.4</ele>
        <time>2014-12-07T08:41:00Z</time>
      </trkpt>
      <trkpt lat="41.222450" lon="1.443281">
        <ele>132.4</ele>
        <time>2014-12-07T08:41:05Z</time>
      </trkpt>
      <trkpt lat="41.222443" lon="1.443031">
        <ele>132.0</ele>
        <time>2014-12-07T08:41:08Z</time>
      </trkpt>
      <trkpt lat="41.222446" lon="1.442943">
        <ele>131.6</ele>
        <time>2014-12-07T08:41:09Z</time>
      </trkpt>
      <trkpt lat="41.222454" lon="1.442858">
        <ele>131.2</ele>
        <time>2014-12-07T08:41:10Z</time>
      </trkpt>
      <trkpt lat="41.222462" lon="1.442773">
        <ele>130.8</ele>
        <time>2014-12-07T08:41:11Z</time>
      </trkpt>
      <trkpt lat="41.222473" lon="1.442688">
        <ele>130.2</ele>
        <time>2014-12-07T08:41:12Z</time>
      </trkpt>
      <trkpt lat="41.222523" lon="1.442412">
        <ele>130.2</ele>
        <time>2014-12-07T08:41:16Z</time>
      </trkpt>
      <trkpt lat="41.222595" lon="1.442105">
        <ele>130.2</ele>
        <time>2014-12-07T08:41:23Z</time>
      </trkpt>
      <trkpt lat="41.222656" lon="1.441845">
        <ele>130.2</ele>
        <time>2014-12-07T08:41:29Z</time>
      </trkpt>
      <trkpt lat="41.222569" lon="1.441711">
        <ele>130.2</ele>
        <time>2014-12-07T08:41:32Z</time>
      </trkpt>
      <trkpt lat="41.222534" lon="1.441661">
        <ele>130.2</ele>
        <time>2014-12-07T08:41:33Z</time>
      </trkpt>
      <trkpt lat="41.222412" lon="1.441492">
        <ele>129.8</ele>
        <time>2014-12-07T08:41:36Z</time>
      </trkpt>
      <trkpt lat="41.222363" lon="1.441439">
        <ele>129.4</ele>
        <time>2014-12-07T08:41:37Z</time>
      </trkpt>
      <trkpt lat="41.222305" lon="1.441378">
        <ele>128.8</ele>
        <time>2014-12-07T08:41:38Z</time>
      </trkpt>
      <trkpt lat="41.222256" lon="1.441318">
        <ele>128.4</ele>
        <time>2014-12-07T08:41:39Z</time>
      </trkpt>
      <trkpt lat="41.222202" lon="1.441256">
        <ele>128.0</ele>
        <time>2014-12-07T08:41:40Z</time>
      </trkpt>
      <trkpt lat="41.222153" lon="1.441195">
        <ele>128.0</ele>
        <time>2014-12-07T08:41:41Z</time>
      </trkpt>
      <trkpt lat="41.222107" lon="1.441132">
        <ele>128.0</ele>
        <time>2014-12-07T08:41:42Z</time>
      </trkpt>
      <trkpt lat="41.221970" lon="1.440842">
        <ele>128.0</ele>
        <time>2014-12-07T08:41:46Z</time>
      </trkpt>
      <trkpt lat="41.221954" lon="1.440686">
        <ele>127.4</ele>
        <time>2014-12-07T08:41:48Z</time>
      </trkpt>
      <trkpt lat="41.221962" lon="1.440609">
        <ele>126.8</ele>
        <time>2014-12-07T08:41:49Z</time>
      </trkpt>
      <trkpt lat="41.221970" lon="1.440537">
        <ele>125.8</ele>
        <time>2014-12-07T08:41:50Z</time>
      </trkpt>
      <trkpt lat="41.221981" lon="1.440470">
        <ele>125.2</ele>
        <time>2014-12-07T08:41:51Z</time>
      </trkpt>
      <trkpt lat="41.222004" lon="1.440353">
        <ele>125.2</ele>
        <time>2014-12-07T08:41:53Z</time>
      </trkpt>
      <trkpt lat="41.222015" lon="1.440262">
        <ele>124.8</ele>
        <time>2014-12-07T08:41:55Z</time>
      </trkpt>
      <trkpt lat="41.222008" lon="1.440222">
        <ele>124.0</ele>
        <time>2014-12-07T08:41:56Z</time>
      </trkpt>
      <trkpt lat="41.221989" lon="1.440190">
        <ele>123.2</ele>
        <time>2014-12-07T08:41:57Z</time>
      </trkpt>
      <trkpt lat="41.221951" lon="1.440168">
        <ele>122.2</ele>
        <time>2014-12-07T08:41:58Z</time>
      </trkpt>
      <trkpt lat="41.221912" lon="1.440150">
        <ele>121.2</ele>
        <time>2014-12-07T08:41:59Z</time>
      </trkpt>
      <trkpt lat="41.221874" lon="1.440134">
        <ele>120.2</ele>
        <time>2014-12-07T08:42:00Z</time>
      </trkpt>
      <trkpt lat="41.221828" lon="1.440115">
        <ele>119.2</ele>
        <time>2014-12-07T08:42:01Z</time>
      </trkpt>
      <trkpt lat="41.221794" lon="1.440094">
        <ele>118.2</ele>
        <time>2014-12-07T08:42:02Z</time>
      </trkpt>
      <trkpt lat="41.221760" lon="1.440069">
        <ele>118.2</ele>
        <time>2014-12-07T08:42:03Z</time>
      </trkpt>
      <trkpt lat="41.221729" lon="1.440043">
        <ele>118.2</ele>
        <time>2014-12-07T08:42:04Z</time>
      </trkpt>
      <trkpt lat="41.221508" lon="1.439838">
        <ele>118.2</ele>
        <time>2014-12-07T08:42:10Z</time>
      </trkpt>
      <trkpt lat="41.221394" lon="1.439710">
        <ele>117.6</ele>
        <time>2014-12-07T08:42:13Z</time>
      </trkpt>
      <trkpt lat="41.221359" lon="1.439672">
        <ele>117.0</ele>
        <time>2014-12-07T08:42:14Z</time>
      </trkpt>
      <trkpt lat="41.221313" lon="1.439632">
        <ele>115.8</ele>
        <time>2014-12-07T08:42:15Z</time>
      </trkpt>
      <trkpt lat="41.221268" lon="1.439588">
        <ele>115.4</ele>
        <time>2014-12-07T08:42:16Z</time>
      </trkpt>
      <trkpt lat="41.221222" lon="1.439543">
        <ele>115.4</ele>
        <time>2014-12-07T08:42:17Z</time>
      </trkpt>
      <trkpt lat="41.221043" lon="1.439341">
        <ele>115.4</ele>
        <time>2014-12-07T08:42:22Z</time>
      </trkpt>
      <trkpt lat="41.221004" lon="1.439250">
        <ele>115.4</ele>
        <time>2014-12-07T08:42:25Z</time>
      </trkpt>
      <trkpt lat="41.220970" lon="1.439211">
        <ele>115.4</ele>
        <time>2014-12-07T08:42:26Z</time>
      </trkpt>
      <trkpt lat="41.220913" lon="1.439180">
        <ele>115.4</ele>
        <time>2014-12-07T08:42:27Z</time>
      </trkpt>
      <trkpt lat="41.220852" lon="1.439158">
        <ele>115.0</ele>
        <time>2014-12-07T08:42:28Z</time>
      </trkpt>
      <trkpt lat="41.220798" lon="1.439133">
        <ele>114.4</ele>
        <time>2014-12-07T08:42:29Z</time>
      </trkpt>
      <trkpt lat="41.220757" lon="1.439097">
        <ele>113.8</ele>
        <time>2014-12-07T08:42:30Z</time>
      </trkpt>
      <trkpt lat="41.220745" lon="1.439040">
        <ele>113.0</ele>
        <time>2014-12-07T08:42:31Z</time>
      </trkpt>
      <trkpt lat="41.220741" lon="1.438974">
        <ele>112.2</ele>
        <time>2014-12-07T08:42:32Z</time>
      </trkpt>
      <trkpt lat="41.220741" lon="1.438902">
        <ele>111.2</ele>
        <time>2014-12-07T08:42:33Z</time>
      </trkpt>
      <trkpt lat="41.220745" lon="1.438823">
        <ele>110.2</ele>
        <time>2014-12-07T08:42:34Z</time>
      </trkpt>
      <trkpt lat="41.220753" lon="1.438735">
        <ele>109.2</ele>
        <time>2014-12-07T08:42:35Z</time>
      </trkpt>
      <trkpt lat="41.220772" lon="1.438636">
        <ele>108.4</ele>
        <time>2014-12-07T08:42:36Z</time>
      </trkpt>
      <trkpt lat="41.220798" lon="1.438529">
        <ele>107.4</ele>
        <time>2014-12-07T08:42:37Z</time>
      </trkpt>
      <trkpt lat="41.220833" lon="1.438418">
        <ele>106.6</ele>
        <time>2014-12-07T08:42:38Z</time>
      </trkpt>
      <trkpt lat="41.220871" lon="1.438322">
        <ele>105.2</ele>
        <time>2014-12-07T08:42:39Z</time>
      </trkpt>
      <trkpt lat="41.220894" lon="1.438229">
        <ele>104.4</ele>
        <time>2014-12-07T08:42:40Z</time>
      </trkpt>
      <trkpt lat="41.220898" lon="1.438134">
        <ele>103.2</ele>
        <time>2014-12-07T08:42:41Z</time>
      </trkpt>
      <trkpt lat="41.220890" lon="1.438043">
        <ele>101.8</ele>
        <time>2014-12-07T08:42:42Z</time>
      </trkpt>
      <trkpt lat="41.220879" lon="1.437960">
        <ele>100.4</ele>
        <time>2014-12-07T08:42:43Z</time>
      </trkpt>
      <trkpt lat="41.220867" lon="1.437890">
        <ele>99.0</ele>
        <time>2014-12-07T08:42:44Z</time>
      </trkpt>
      <trkpt lat="41.220867" lon="1.437830">
        <ele>97.6</ele>
        <time>2014-12-07T08:42:45Z</time>
      </trkpt>
      <trkpt lat="41.220879" lon="1.437780">
        <ele>96.2</ele>
        <time>2014-12-07T08:42:46Z</time>
      </trkpt>
      <trkpt lat="41.220905" lon="1.437733">
        <ele>96.2</ele>
        <time>2014-12-07T08:42:47Z</time>
      </trkpt>
      <trkpt lat="41.221012" lon="1.437629">
        <ele>96.2</ele>
        <time>2014-12-07T08:42:50Z</time>
      </trkpt>
      <trkpt lat="41.221043" lon="1.437600">
        <ele>96.2</ele>
        <time>2014-12-07T08:42:51Z</time>
      </trkpt>
      <trkpt lat="41.221062" lon="1.437568">
        <ele>96.6</ele>
        <time>2014-12-07T08:42:52Z</time>
      </trkpt>
      <trkpt lat="41.221088" lon="1.437536">
        <ele>97.0</ele>
        <time>2014-12-07T08:42:53Z</time>
      </trkpt>
      <trkpt lat="41.221107" lon="1.437505">
        <ele>97.6</ele>
        <time>2014-12-07T08:42:54Z</time>
      </trkpt>
      <trkpt lat="41.221130" lon="1.437475">
        <ele>98.0</ele>
        <time>2014-12-07T08:42:55Z</time>
      </trkpt>
      <trkpt lat="41.221157" lon="1.437452">
        <ele>98.4</ele>
        <time>2014-12-07T08:42:56Z</time>
      </trkpt>
      <trkpt lat="41.221249" lon="1.437308">
        <ele>98.4</ele>
        <time>2014-12-07T08:43:00Z</time>
      </trkpt>
      <trkpt lat="41.221325" lon="1.437087">
        <ele>98.4</ele>
        <time>2014-12-07T08:43:05Z</time>
      </trkpt>
      <trkpt lat="41.221363" lon="1.436875">
        <ele>98.4</ele>
        <time>2014-12-07T08:43:10Z</time>
      </trkpt>
      <trkpt lat="41.221390" lon="1.436758">
        <ele>98.8</ele>
        <time>2014-12-07T08:43:13Z</time>
      </trkpt>
      <trkpt lat="41.221394" lon="1.436722">
        <ele>99.2</ele>
        <time>2014-12-07T08:43:14Z</time>
      </trkpt>
      <trkpt lat="41.221405" lon="1.436686">
        <ele>99.6</ele>
        <time>2014-12-07T08:43:15Z</time>
      </trkpt>
      <trkpt lat="41.221413" lon="1.436651">
        <ele>100.0</ele>
        <time>2014-12-07T08:43:16Z</time>
      </trkpt>
      <trkpt lat="41.221424" lon="1.436617">
        <ele>100.6</ele>
        <time>2014-12-07T08:43:17Z</time>
      </trkpt>
      <trkpt lat="41.221432" lon="1.436582">
        <ele>101.0</ele>
        <time>2014-12-07T08:43:18Z</time>
      </trkpt>
      <trkpt lat="41.221439" lon="1.436546">
        <ele>101.6</ele>
        <time>2014-12-07T08:43:19Z</time>
      </trkpt>
      <trkpt lat="41.221447" lon="1.436515">
        <ele>102.0</ele>
        <time>2014-12-07T08:43:20Z</time>
      </trkpt>
      <trkpt lat="41.221447" lon="1.436476">
        <ele>102.6</ele>
        <time>2014-12-07T08:43:21Z</time>
      </trkpt>
      <trkpt lat="41.221432" lon="1.436374">
        <ele>102.6</ele>
        <time>2014-12-07T08:43:23Z</time>
      </trkpt>
      <trkpt lat="41.221413" lon="1.436134">
        <ele>102.6</ele>
        <time>2014-12-07T08:43:27Z</time>
      </trkpt>
      <trkpt lat="41.221397" lon="1.436082">
        <ele>102.6</ele>
        <time>2014-12-07T08:43:28Z</time>
      </trkpt>
      <trkpt lat="41.221340" lon="1.435961">
        <ele>102.6</ele>
        <time>2014-12-07T08:43:31Z</time>
      </trkpt>
      <trkpt lat="41.221321" lon="1.435928">
        <ele>102.6</ele>
        <time>2014-12-07T08:43:32Z</time>
      </trkpt>
      <trkpt lat="41.221153" lon="1.435760">
        <ele>102.6</ele>
        <time>2014-12-07T08:43:38Z</time>
      </trkpt>
      <trkpt lat="41.220970" lon="1.435671">
        <ele>102.6</ele>
        <time>2014-12-07T08:43:44Z</time>
      </trkpt>
      <trkpt lat="41.220844" lon="1.435594">
        <ele>102.6</ele>
        <time>2014-12-07T08:43:48Z</time>
      </trkpt>
      <trkpt lat="41.220825" lon="1.435567">
        <ele>103.0</ele>
        <time>2014-12-07T08:43:49Z</time>
      </trkpt>
      <trkpt lat="41.220806" lon="1.435542">
        <ele>103.4</ele>
        <time>2014-12-07T08:43:50Z</time>
      </trkpt>
      <trkpt lat="41.220783" lon="1.435520">
        <ele>103.8</ele>
        <time>2014-12-07T08:43:51Z</time>
      </trkpt>
      <trkpt lat="41.220764" lon="1.435499">
        <ele>104.2</ele>
        <time>2014-12-07T08:43:52Z</time>
      </trkpt>
      <trkpt lat="41.220745" lon="1.435475">
        <ele>104.6</ele>
        <time>2014-12-07T08:43:53Z</time>
      </trkpt>
      <trkpt lat="41.220680" lon="1.435404">
        <ele>105.0</ele>
        <time>2014-12-07T08:43:56Z</time>
      </trkpt>
      <trkpt lat="41.220665" lon="1.435377">
        <ele>105.4</ele>
        <time>2014-12-07T08:43:57Z</time>
      </trkpt>
      <trkpt lat="41.220654" lon="1.435351">
        <ele>105.8</ele>
        <time>2014-12-07T08:43:58Z</time>
      </trkpt>
      <trkpt lat="41.220634" lon="1.435329">
        <ele>106.2</ele>
        <time>2014-12-07T08:43:59Z</time>
      </trkpt>
      <trkpt lat="41.220627" lon="1.435312">
        <ele>106.6</ele>
        <time>2014-12-07T08:44:00Z</time>
      </trkpt>
      <trkpt lat="41.220596" lon="1.435264">
        <ele>106.6</ele>
        <time>2014-12-07T08:44:02Z</time>
      </trkpt>
      <trkpt lat="41.220581" lon="1.435243">
        <ele>107.0</ele>
        <time>2014-12-07T08:44:03Z</time>
      </trkpt>
      <trkpt lat="41.220562" lon="1.435226">
        <ele>107.6</ele>
        <time>2014-12-07T08:44:04Z</time>
      </trkpt>
      <trkpt lat="41.220547" lon="1.435211">
        <ele>108.0</ele>
        <time>2014-12-07T08:44:05Z</time>
      </trkpt>
      <trkpt lat="41.220528" lon="1.435195">
        <ele>108.6</ele>
        <time>2014-12-07T08:44:06Z</time>
      </trkpt>
      <trkpt lat="41.220509" lon="1.435178">
        <ele>109.2</ele>
        <time>2014-12-07T08:44:07Z</time>
      </trkpt>
      <trkpt lat="41.220493" lon="1.435162">
        <ele>109.8</ele>
        <time>2014-12-07T08:44:08Z</time>
      </trkpt>
      <trkpt lat="41.220478" lon="1.435146">
        <ele>110.4</ele>
        <time>2014-12-07T08:44:09Z</time>
      </trkpt>
      <trkpt lat="41.220463" lon="1.435131">
        <ele>111.0</ele>
        <time>2014-12-07T08:44:10Z</time>
      </trkpt>
      <trkpt lat="41.220451" lon="1.435113">
        <ele>111.4</ele>
        <time>2014-12-07T08:44:11Z</time>
      </trkpt>
      <trkpt lat="41.220444" lon="1.435095">
        <ele>111.8</ele>
        <time>2014-12-07T08:44:12Z</time>
      </trkpt>
      <trkpt lat="41.220436" lon="1.435074">
        <ele>112.2</ele>
        <time>2014-12-07T08:44:13Z</time>
      </trkpt>
      <trkpt lat="41.220428" lon="1.435049">
        <ele>112.6</ele>
        <time>2014-12-07T08:44:14Z</time>
      </trkpt>
      <trkpt lat="41.220417" lon="1.435032">
        <ele>113.0</ele>
        <time>2014-12-07T08:44:15Z</time>
      </trkpt>
      <trkpt lat="41.220390" lon="1.434993">
        <ele>113.0</ele>
        <time>2014-12-07T08:44:17Z</time>
      </trkpt>
      <trkpt lat="41.220379" lon="1.434947">
        <ele>113.0</ele>
        <time>2014-12-07T08:44:19Z</time>
      </trkpt>
      <trkpt lat="41.220333" lon="1.434889">
        <ele>113.4</ele>
        <time>2014-12-07T08:44:23Z</time>
      </trkpt>
      <trkpt lat="41.220318" lon="1.434872">
        <ele>113.8</ele>
        <time>2014-12-07T08:44:24Z</time>
      </trkpt>
      <trkpt lat="41.220303" lon="1.434860">
        <ele>114.2</ele>
        <time>2014-12-07T08:44:25Z</time>
      </trkpt>
      <trkpt lat="41.220284" lon="1.434847">
        <ele>114.6</ele>
        <time>2014-12-07T08:44:26Z</time>
      </trkpt>
      <trkpt lat="41.220272" lon="1.434832">
        <ele>115.2</ele>
        <time>2014-12-07T08:44:27Z</time>
      </trkpt>
      <trkpt lat="41.220211" lon="1.434755">
        <ele>115.2</ele>
        <time>2014-12-07T08:44:32Z</time>
      </trkpt>
      <trkpt lat="41.220196" lon="1.434746">
        <ele>115.6</ele>
        <time>2014-12-07T08:44:33Z</time>
      </trkpt>
      <trkpt lat="41.220184" lon="1.434733">
        <ele>116.0</ele>
        <time>2014-12-07T08:44:34Z</time>
      </trkpt>
      <trkpt lat="41.220165" lon="1.434719">
        <ele>116.6</ele>
        <time>2014-12-07T08:44:35Z</time>
      </trkpt>
      <trkpt lat="41.220146" lon="1.434709">
        <ele>117.0</ele>
        <time>2014-12-07T08:44:36Z</time>
      </trkpt>
      <trkpt lat="41.220131" lon="1.434701">
        <ele>117.6</ele>
        <time>2014-12-07T08:44:37Z</time>
      </trkpt>
      <trkpt lat="41.220081" lon="1.434658">
        <ele>117.6</ele>
        <time>2014-12-07T08:44:40Z</time>
      </trkpt>
      <trkpt lat="41.220070" lon="1.434639">
        <ele>117.6</ele>
        <time>2014-12-07T08:44:41Z</time>
      </trkpt>
      <trkpt lat="41.220058" lon="1.434618">
        <ele>118.0</ele>
        <time>2014-12-07T08:44:42Z</time>
      </trkpt>
      <trkpt lat="41.220051" lon="1.434599">
        <ele>118.4</ele>
        <time>2014-12-07T08:44:43Z</time>
      </trkpt>
      <trkpt lat="41.220039" lon="1.434578">
        <ele>119.2</ele>
        <time>2014-12-07T08:44:44Z</time>
      </trkpt>
      <trkpt lat="41.220032" lon="1.434562">
        <ele>119.6</ele>
        <time>2014-12-07T08:44:45Z</time>
      </trkpt>
      <trkpt lat="41.219997" lon="1.434523">
        <ele>119.6</ele>
        <time>2014-12-07T08:44:47Z</time>
      </trkpt>
      <trkpt lat="41.219959" lon="1.434474">
        <ele>120.0</ele>
        <time>2014-12-07T08:44:50Z</time>
      </trkpt>
      <trkpt lat="41.219948" lon="1.434457">
        <ele>120.6</ele>
        <time>2014-12-07T08:44:51Z</time>
      </trkpt>
      <trkpt lat="41.219933" lon="1.434443">
        <ele>121.0</ele>
        <time>2014-12-07T08:44:52Z</time>
      </trkpt>
      <trkpt lat="41.219921" lon="1.434432">
        <ele>121.4</ele>
        <time>2014-12-07T08:44:53Z</time>
      </trkpt>
      <trkpt lat="41.219910" lon="1.434422">
        <ele>122.0</ele>
        <time>2014-12-07T08:44:54Z</time>
      </trkpt>
      <trkpt lat="41.219856" lon="1.434333">
        <ele>122.4</ele>
        <time>2014-12-07T08:44:59Z</time>
      </trkpt>
      <trkpt lat="41.219849" lon="1.434314">
        <ele>123.0</ele>
        <time>2014-12-07T08:45:00Z</time>
      </trkpt>
      <trkpt lat="41.219841" lon="1.434291">
        <ele>123.4</ele>
        <time>2014-12-07T08:45:01Z</time>
      </trkpt>
      <trkpt lat="41.219833" lon="1.434267">
        <ele>123.8</ele>
        <time>2014-12-07T08:45:02Z</time>
      </trkpt>
      <trkpt lat="41.219822" lon="1.434241">
        <ele>124.4</ele>
        <time>2014-12-07T08:45:03Z</time>
      </trkpt>
      <trkpt lat="41.219807" lon="1.434193">
        <ele>124.4</ele>
        <time>2014-12-07T08:45:05Z</time>
      </trkpt>
      <trkpt lat="41.219784" lon="1.434140">
        <ele>124.4</ele>
        <time>2014-12-07T08:45:08Z</time>
      </trkpt>
      <trkpt lat="41.219769" lon="1.434129">
        <ele>124.8</ele>
        <time>2014-12-07T08:45:09Z</time>
      </trkpt>
      <trkpt lat="41.219757" lon="1.434115">
        <ele>125.2</ele>
        <time>2014-12-07T08:45:10Z</time>
      </trkpt>
      <trkpt lat="41.219738" lon="1.434106">
        <ele>125.6</ele>
        <time>2014-12-07T08:45:11Z</time>
      </trkpt>
      <trkpt lat="41.219715" lon="1.434097">
        <ele>126.0</ele>
        <time>2014-12-07T08:45:12Z</time>
      </trkpt>
      <trkpt lat="41.219696" lon="1.434092">
        <ele>126.4</ele>
        <time>2014-12-07T08:45:13Z</time>
      </trkpt>
      <trkpt lat="41.219650" lon="1.434094">
        <ele>126.4</ele>
        <time>2014-12-07T08:45:15Z</time>
      </trkpt>
      <trkpt lat="41.219559" lon="1.434067">
        <ele>126.8</ele>
        <time>2014-12-07T08:45:19Z</time>
      </trkpt>
      <trkpt lat="41.219536" lon="1.434057">
        <ele>127.2</ele>
        <time>2014-12-07T08:45:20Z</time>
      </trkpt>
      <trkpt lat="41.219517" lon="1.434046">
        <ele>127.6</ele>
        <time>2014-12-07T08:45:21Z</time>
      </trkpt>
      <trkpt lat="41.219498" lon="1.434036">
        <ele>128.0</ele>
        <time>2014-12-07T08:45:22Z</time>
      </trkpt>
      <trkpt lat="41.219479" lon="1.434025">
        <ele>128.4</ele>
        <time>2014-12-07T08:45:23Z</time>
      </trkpt>
      <trkpt lat="41.219414" lon="1.433953">
        <ele>129.0</ele>
        <time>2014-12-07T08:45:27Z</time>
      </trkpt>
      <trkpt lat="41.219402" lon="1.433932">
        <ele>129.4</ele>
        <time>2014-12-07T08:45:28Z</time>
      </trkpt>
      <trkpt lat="41.219387" lon="1.433908">
        <ele>129.8</ele>
        <time>2014-12-07T08:45:29Z</time>
      </trkpt>
      <trkpt lat="41.219379" lon="1.433880">
        <ele>130.2</ele>
        <time>2014-12-07T08:45:30Z</time>
      </trkpt>
      <trkpt lat="41.219372" lon="1.433853">
        <ele>130.6</ele>
        <time>2014-12-07T08:45:31Z</time>
      </trkpt>
      <trkpt lat="41.219364" lon="1.433801">
        <ele>130.6</ele>
        <time>2014-12-07T08:45:33Z</time>
      </trkpt>
      <trkpt lat="41.219360" lon="1.433646">
        <ele>130.6</ele>
        <time>2014-12-07T08:45:39Z</time>
      </trkpt>
      <trkpt lat="41.219368" lon="1.433547">
        <ele>131.0</ele>
        <time>2014-12-07T08:45:43Z</time>
      </trkpt>
      <trkpt lat="41.219368" lon="1.433525">
        <ele>131.4</ele>
        <time>2014-12-07T08:45:44Z</time>
      </trkpt>
      <trkpt lat="41.219372" lon="1.433504">
        <ele>131.8</ele>
        <time>2014-12-07T08:45:45Z</time>
      </trkpt>
      <trkpt lat="41.219379" lon="1.433482">
        <ele>132.2</ele>
        <time>2014-12-07T08:45:46Z</time>
      </trkpt>
      <trkpt lat="41.219387" lon="1.433454">
        <ele>132.8</ele>
        <time>2014-12-07T08:45:47Z</time>
      </trkpt>
      <trkpt lat="41.219391" lon="1.433354">
        <ele>133.2</ele>
        <time>2014-12-07T08:45:51Z</time>
      </trkpt>
      <trkpt lat="41.219395" lon="1.433330">
        <ele>133.6</ele>
        <time>2014-12-07T08:45:52Z</time>
      </trkpt>
      <trkpt lat="41.219398" lon="1.433307">
        <ele>134.0</ele>
        <time>2014-12-07T08:45:53Z</time>
      </trkpt>
      <trkpt lat="41.219398" lon="1.433287">
        <ele>134.4</ele>
        <time>2014-12-07T08:45:54Z</time>
      </trkpt>
      <trkpt lat="41.219398" lon="1.433266">
        <ele>134.8</ele>
        <time>2014-12-07T08:45:55Z</time>
      </trkpt>
      <trkpt lat="41.219395" lon="1.433226">
        <ele>134.8</ele>
        <time>2014-12-07T08:45:57Z</time>
      </trkpt>
      <trkpt lat="41.219357" lon="1.433107">
        <ele>134.8</ele>
        <time>2014-12-07T08:46:04Z</time>
      </trkpt>
      <trkpt lat="41.219315" lon="1.433032">
        <ele>135.2</ele>
        <time>2014-12-07T08:46:08Z</time>
      </trkpt>
      <trkpt lat="41.219299" lon="1.433014">
        <ele>135.8</ele>
        <time>2014-12-07T08:46:09Z</time>
      </trkpt>
      <trkpt lat="41.219292" lon="1.432990">
        <ele>136.2</ele>
        <time>2014-12-07T08:46:10Z</time>
      </trkpt>
      <trkpt lat="41.219284" lon="1.432969">
        <ele>136.8</ele>
        <time>2014-12-07T08:46:11Z</time>
      </trkpt>
      <trkpt lat="41.219273" lon="1.432947">
        <ele>137.2</ele>
        <time>2014-12-07T08:46:12Z</time>
      </trkpt>
      <trkpt lat="41.219254" lon="1.432878">
        <ele>137.6</ele>
        <time>2014-12-07T08:46:15Z</time>
      </trkpt>
      <trkpt lat="41.219250" lon="1.432859">
        <ele>138.0</ele>
        <time>2014-12-07T08:46:16Z</time>
      </trkpt>
      <trkpt lat="41.219246" lon="1.432842">
        <ele>138.4</ele>
        <time>2014-12-07T08:46:17Z</time>
      </trkpt>
      <trkpt lat="41.219238" lon="1.432822">
        <ele>138.8</ele>
        <time>2014-12-07T08:46:18Z</time>
      </trkpt>
      <trkpt lat="41.219234" lon="1.432804">
        <ele>139.2</ele>
        <time>2014-12-07T08:46:19Z</time>
      </trkpt>
      <trkpt lat="41.219227" lon="1.432782">
        <ele>139.2</ele>
        <time>2014-12-07T08:46:20Z</time>
      </trkpt>
      <trkpt lat="41.219212" lon="1.432707">
        <ele>139.6</ele>
        <time>2014-12-07T08:46:23Z</time>
      </trkpt>
      <trkpt lat="41.219215" lon="1.432683">
        <ele>140.0</ele>
        <time>2014-12-07T08:46:24Z</time>
      </trkpt>
      <trkpt lat="41.219223" lon="1.432658">
        <ele>140.4</ele>
        <time>2014-12-07T08:46:25Z</time>
      </trkpt>
      <trkpt lat="41.219223" lon="1.432635">
        <ele>140.8</ele>
        <time>2014-12-07T08:46:26Z</time>
      </trkpt>
      <trkpt lat="41.219223" lon="1.432613">
        <ele>141.2</ele>
        <time>2014-12-07T08:46:27Z</time>
      </trkpt>
      <trkpt lat="41.219173" lon="1.432541">
        <ele>141.6</ele>
        <time>2014-12-07T08:46:31Z</time>
      </trkpt>
      <trkpt lat="41.219162" lon="1.432529">
        <ele>142.0</ele>
        <time>2014-12-07T08:46:32Z</time>
      </trkpt>
      <trkpt lat="41.219147" lon="1.432523">
        <ele>142.6</ele>
        <time>2014-12-07T08:46:33Z</time>
      </trkpt>
      <trkpt lat="41.219128" lon="1.432516">
        <ele>143.0</ele>
        <time>2014-12-07T08:46:34Z</time>
      </trkpt>
      <trkpt lat="41.219120" lon="1.432516">
        <ele>143.4</ele>
        <time>2014-12-07T08:46:35Z</time>
      </trkpt>
      <trkpt lat="41.219109" lon="1.432528">
        <ele>143.4</ele>
        <time>2014-12-07T08:46:36Z</time>
      </trkpt>
      <trkpt lat="41.219082" lon="1.432561">
        <ele>143.8</ele>
        <time>2014-12-07T08:46:38Z</time>
      </trkpt>
      <trkpt lat="41.219067" lon="1.432580">
        <ele>144.4</ele>
        <time>2014-12-07T08:46:39Z</time>
      </trkpt>
      <trkpt lat="41.219051" lon="1.432599">
        <ele>144.8</ele>
        <time>2014-12-07T08:46:40Z</time>
      </trkpt>
      <trkpt lat="41.219040" lon="1.432616">
        <ele>145.2</ele>
        <time>2014-12-07T08:46:41Z</time>
      </trkpt>
      <trkpt lat="41.219021" lon="1.432627">
        <ele>145.6</ele>
        <time>2014-12-07T08:46:42Z</time>
      </trkpt>
      <trkpt lat="41.219002" lon="1.432636">
        <ele>145.6</ele>
        <time>2014-12-07T08:46:43Z</time>
      </trkpt>
      <trkpt lat="41.218952" lon="1.432685">
        <ele>146.0</ele>
        <time>2014-12-07T08:46:47Z</time>
      </trkpt>
      <trkpt lat="41.218941" lon="1.432699">
        <ele>146.4</ele>
        <time>2014-12-07T08:46:48Z</time>
      </trkpt>
      <trkpt lat="41.218933" lon="1.432708">
        <ele>146.8</ele>
        <time>2014-12-07T08:46:49Z</time>
      </trkpt>
      <trkpt lat="41.218922" lon="1.432719">
        <ele>147.2</ele>
        <time>2014-12-07T08:46:50Z</time>
      </trkpt>
      <trkpt lat="41.218903" lon="1.432732">
        <ele>147.6</ele>
        <time>2014-12-07T08:46:51Z</time>
      </trkpt>
      <trkpt lat="41.218864" lon="1.432758">
        <ele>148.2</ele>
        <time>2014-12-07T08:46:53Z</time>
      </trkpt>
      <trkpt lat="41.218849" lon="1.432763">
        <ele>148.6</ele>
        <time>2014-12-07T08:46:54Z</time>
      </trkpt>
      <trkpt lat="41.218838" lon="1.432761">
        <ele>149.0</ele>
        <time>2014-12-07T08:46:55Z</time>
      </trkpt>
      <trkpt lat="41.218826" lon="1.432749">
        <ele>149.4</ele>
        <time>2014-12-07T08:46:56Z</time>
      </trkpt>
      <trkpt lat="41.218819" lon="1.432730">
        <ele>149.8</ele>
        <time>2014-12-07T08:46:57Z</time>
      </trkpt>
      <trkpt lat="41.218819" lon="1.432711">
        <ele>149.8</ele>
        <time>2014-12-07T08:46:58Z</time>
      </trkpt>
      <trkpt lat="41.218822" lon="1.432665">
        <ele>150.2</ele>
        <time>2014-12-07T08:47:00Z</time>
      </trkpt>
      <trkpt lat="41.218826" lon="1.432641">
        <ele>150.6</ele>
        <time>2014-12-07T08:47:01Z</time>
      </trkpt>
      <trkpt lat="41.218830" lon="1.432615">
        <ele>151.2</ele>
        <time>2014-12-07T08:47:02Z</time>
      </trkpt>
      <trkpt lat="41.218830" lon="1.432590">
        <ele>151.6</ele>
        <time>2014-12-07T08:47:03Z</time>
      </trkpt>
      <trkpt lat="41.218838" lon="1.432568">
        <ele>152.0</ele>
        <time>2014-12-07T08:47:04Z</time>
      </trkpt>
      <trkpt lat="41.218872" lon="1.432431">
        <ele>152.4</ele>
        <time>2014-12-07T08:47:10Z</time>
      </trkpt>
      <trkpt lat="41.218876" lon="1.432404">
        <ele>152.8</ele>
        <time>2014-12-07T08:47:11Z</time>
      </trkpt>
      <trkpt lat="41.218880" lon="1.432379">
        <ele>153.6</ele>
        <time>2014-12-07T08:47:12Z</time>
      </trkpt>
      <trkpt lat="41.218864" lon="1.432356">
        <ele>154.0</ele>
        <time>2014-12-07T08:47:13Z</time>
      </trkpt>
      <trkpt lat="41.218857" lon="1.432345">
        <ele>154.0</ele>
        <time>2014-12-07T08:47:14Z</time>
      </trkpt>
      <trkpt lat="41.218842" lon="1.432345">
        <ele>154.0</ele>
        <time>2014-12-07T08:47:15Z</time>
      </trkpt>
      <trkpt lat="41.218800" lon="1.432416">
        <ele>154.0</ele>
        <time>2014-12-07T08:47:18Z</time>
      </trkpt>
      <trkpt lat="41.218784" lon="1.432446">
        <ele>154.4</ele>
        <time>2014-12-07T08:47:19Z</time>
      </trkpt>
      <trkpt lat="41.218781" lon="1.432472">
        <ele>154.8</ele>
        <time>2014-12-07T08:47:20Z</time>
      </trkpt>
      <trkpt lat="41.218773" lon="1.432497">
        <ele>155.2</ele>
        <time>2014-12-07T08:47:21Z</time>
      </trkpt>
      <trkpt lat="41.218769" lon="1.432516">
        <ele>155.6</ele>
        <time>2014-12-07T08:47:22Z</time>
      </trkpt>
      <trkpt lat="41.218761" lon="1.432529">
        <ele>156.0</ele>
        <time>2014-12-07T08:47:23Z</time>
      </trkpt>
      <trkpt lat="41.218746" lon="1.432537">
        <ele>156.0</ele>
        <time>2014-12-07T08:47:24Z</time>
      </trkpt>
      <trkpt lat="41.218678" lon="1.432539">
        <ele>156.0</ele>
        <time>2014-12-07T08:47:28Z</time>
      </trkpt>
      <trkpt lat="41.218666" lon="1.432530">
        <ele>156.6</ele>
        <time>2014-12-07T08:47:29Z</time>
      </trkpt>
      <trkpt lat="41.218647" lon="1.432518">
        <ele>157.0</ele>
        <time>2014-12-07T08:47:30Z</time>
      </trkpt>
      <trkpt lat="41.218632" lon="1.432503">
        <ele>157.4</ele>
        <time>2014-12-07T08:47:31Z</time>
      </trkpt>
      <trkpt lat="41.218616" lon="1.432488">
        <ele>158.0</ele>
        <time>2014-12-07T08:47:32Z</time>
      </trkpt>
      <trkpt lat="41.218601" lon="1.432472">
        <ele>158.4</ele>
        <time>2014-12-07T08:47:33Z</time>
      </trkpt>
      <trkpt lat="41.218590" lon="1.432456">
        <ele>158.4</ele>
        <time>2014-12-07T08:47:34Z</time>
      </trkpt>
      <trkpt lat="41.218555" lon="1.432409">
        <ele>159.2</ele>
        <time>2014-12-07T08:47:37Z</time>
      </trkpt>
      <trkpt lat="41.218548" lon="1.432396">
        <ele>159.6</ele>
        <time>2014-12-07T08:47:38Z</time>
      </trkpt>
      <trkpt lat="41.218536" lon="1.432375">
        <ele>160.0</ele>
        <time>2014-12-07T08:47:39Z</time>
      </trkpt>
      <trkpt lat="41.218529" lon="1.432352">
        <ele>160.6</ele>
        <time>2014-12-07T08:47:40Z</time>
      </trkpt>
      <trkpt lat="41.218525" lon="1.432324">
        <ele>160.6</ele>
        <time>2014-12-07T08:47:41Z</time>
      </trkpt>
      <trkpt lat="41.218525" lon="1.432253">
        <ele>161.0</ele>
        <time>2014-12-07T08:47:44Z</time>
      </trkpt>
      <trkpt lat="41.218529" lon="1.432230">
        <ele>161.4</ele>
        <time>2014-12-07T08:47:45Z</time>
      </trkpt>
      <trkpt lat="41.218536" lon="1.432205">
        <ele>161.8</ele>
        <time>2014-12-07T08:47:46Z</time>
      </trkpt>
      <trkpt lat="41.218540" lon="1.432179">
        <ele>162.4</ele>
        <time>2014-12-07T08:47:47Z</time>
      </trkpt>
      <trkpt lat="41.218540" lon="1.432151">
        <ele>162.8</ele>
        <time>2014-12-07T08:47:48Z</time>
      </trkpt>
      <trkpt lat="41.218529" lon="1.432084">
        <ele>163.2</ele>
        <time>2014-12-07T08:47:51Z</time>
      </trkpt>
      <trkpt lat="41.218525" lon="1.432064">
        <ele>163.6</ele>
        <time>2014-12-07T08:47:52Z</time>
      </trkpt>
      <trkpt lat="41.218525" lon="1.432040">
        <ele>164.2</ele>
        <time>2014-12-07T08:47:53Z</time>
      </trkpt>
      <trkpt lat="41.218525" lon="1.432018">
        <ele>164.6</ele>
        <time>2014-12-07T08:47:54Z</time>
      </trkpt>
      <trkpt lat="41.218521" lon="1.431995">
        <ele>165.0</ele>
        <time>2014-12-07T08:47:55Z</time>
      </trkpt>
      <trkpt lat="41.218525" lon="1.431926">
        <ele>165.4</ele>
        <time>2014-12-07T08:47:58Z</time>
      </trkpt>
      <trkpt lat="41.218529" lon="1.431905">
        <ele>165.8</ele>
        <time>2014-12-07T08:47:59Z</time>
      </trkpt>
      <trkpt lat="41.218525" lon="1.431880">
        <ele>166.2</ele>
        <time>2014-12-07T08:48:00Z</time>
      </trkpt>
      <trkpt lat="41.218525" lon="1.431854">
        <ele>166.6</ele>
        <time>2014-12-07T08:48:01Z</time>
      </trkpt>
      <trkpt lat="41.218529" lon="1.431827">
        <ele>167.0</ele>
        <time>2014-12-07T08:48:02Z</time>
      </trkpt>
      <trkpt lat="41.218529" lon="1.431734">
        <ele>167.0</ele>
        <time>2014-12-07T08:48:05Z</time>
      </trkpt>
      <trkpt lat="41.218533" lon="1.431660">
        <ele>167.0</ele>
        <time>2014-12-07T08:48:08Z</time>
      </trkpt>
      <trkpt lat="41.218540" lon="1.431636">
        <ele>167.0</ele>
        <time>2014-12-07T08:48:09Z</time>
      </trkpt>
      <trkpt lat="41.218586" lon="1.431500">
        <ele>167.0</ele>
        <time>2014-12-07T08:48:14Z</time>
      </trkpt>
      <trkpt lat="41.218666" lon="1.431358">
        <ele>167.0</ele>
        <time>2014-12-07T08:48:20Z</time>
      </trkpt>
      <trkpt lat="41.218708" lon="1.431166">
        <ele>167.0</ele>
        <time>2014-12-07T08:48:26Z</time>
      </trkpt>
      <trkpt lat="41.218758" lon="1.430994">
        <ele>167.0</ele>
        <time>2014-12-07T08:48:32Z</time>
      </trkpt>
      <trkpt lat="41.218761" lon="1.430938">
        <ele>167.4</ele>
        <time>2014-12-07T08:48:34Z</time>
      </trkpt>
      <trkpt lat="41.218765" lon="1.430907">
        <ele>168.0</ele>
        <time>2014-12-07T08:48:35Z</time>
      </trkpt>
      <trkpt lat="41.218773" lon="1.430879">
        <ele>168.4</ele>
        <time>2014-12-07T08:48:36Z</time>
      </trkpt>
      <trkpt lat="41.218773" lon="1.430854">
        <ele>168.8</ele>
        <time>2014-12-07T08:48:37Z</time>
      </trkpt>
      <trkpt lat="41.218784" lon="1.430826">
        <ele>169.2</ele>
        <time>2014-12-07T08:48:38Z</time>
      </trkpt>
      <trkpt lat="41.218788" lon="1.430794">
        <ele>169.6</ele>
        <time>2014-12-07T08:48:39Z</time>
      </trkpt>
      <trkpt lat="41.218792" lon="1.430759">
        <ele>170.0</ele>
        <time>2014-12-07T08:48:40Z</time>
      </trkpt>
      <trkpt lat="41.218800" lon="1.430726">
        <ele>170.6</ele>
        <time>2014-12-07T08:48:41Z</time>
      </trkpt>
      <trkpt lat="41.218800" lon="1.430691">
        <ele>171.0</ele>
        <time>2014-12-07T08:48:42Z</time>
      </trkpt>
      <trkpt lat="41.218803" lon="1.430655">
        <ele>171.4</ele>
        <time>2014-12-07T08:48:43Z</time>
      </trkpt>
      <trkpt lat="41.218815" lon="1.430623">
        <ele>171.4</ele>
        <time>2014-12-07T08:48:44Z</time>
      </trkpt>
      <trkpt lat="41.218819" lon="1.430418">
        <ele>171.4</ele>
        <time>2014-12-07T08:48:51Z</time>
      </trkpt>
      <trkpt lat="41.218800" lon="1.430264">
        <ele>171.4</ele>
        <time>2014-12-07T08:48:57Z</time>
      </trkpt>
      <trkpt lat="41.218800" lon="1.430092">
        <ele>171.8</ele>
        <time>2014-12-07T08:49:03Z</time>
      </trkpt>
      <trkpt lat="41.218792" lon="1.430062">
        <ele>172.2</ele>
        <time>2014-12-07T08:49:04Z</time>
      </trkpt>
      <trkpt lat="41.218792" lon="1.430031">
        <ele>172.6</ele>
        <time>2014-12-07T08:49:05Z</time>
      </trkpt>
      <trkpt lat="41.218788" lon="1.429998">
        <ele>173.0</ele>
        <time>2014-12-07T08:49:06Z</time>
      </trkpt>
      <trkpt lat="41.218788" lon="1.429963">
        <ele>173.4</ele>
        <time>2014-12-07T08:49:07Z</time>
      </trkpt>
      <trkpt lat="41.218792" lon="1.429882">
        <ele>173.4</ele>
        <time>2014-12-07T08:49:09Z</time>
      </trkpt>
      <trkpt lat="41.218819" lon="1.429629">
        <ele>173.4</ele>
        <time>2014-12-07T08:49:16Z</time>
      </trkpt>
      <trkpt lat="41.218864" lon="1.429462">
        <ele>173.4</ele>
        <time>2014-12-07T08:49:20Z</time>
      </trkpt>
      <trkpt lat="41.218983" lon="1.429261">
        <ele>173.4</ele>
        <time>2014-12-07T08:49:25Z</time>
      </trkpt>
      <trkpt lat="41.219009" lon="1.429217">
        <ele>173.4</ele>
        <time>2014-12-07T08:49:26Z</time>
      </trkpt>
      <trkpt lat="41.219067" lon="1.429140">
        <ele>173.4</ele>
        <time>2014-12-07T08:49:28Z</time>
      </trkpt>
      <trkpt lat="41.219101" lon="1.429127">
        <ele>173.4</ele>
        <time>2014-12-07T08:49:29Z</time>
      </trkpt>
      <trkpt lat="41.219204" lon="1.429031">
        <ele>173.4</ele>
        <time>2014-12-07T08:49:32Z</time>
      </trkpt>
      <trkpt lat="41.219242" lon="1.428981">
        <ele>173.0</ele>
        <time>2014-12-07T08:49:34Z</time>
      </trkpt>
      <trkpt lat="41.219254" lon="1.428967">
        <ele>172.6</ele>
        <time>2014-12-07T08:49:35Z</time>
      </trkpt>
      <trkpt lat="41.219265" lon="1.428952">
        <ele>172.2</ele>
        <time>2014-12-07T08:49:36Z</time>
      </trkpt>
      <trkpt lat="41.219273" lon="1.428936">
        <ele>171.8</ele>
        <time>2014-12-07T08:49:37Z</time>
      </trkpt>
      <trkpt lat="41.219273" lon="1.428928">
        <ele>171.4</ele>
        <time>2014-12-07T08:49:38Z</time>
      </trkpt>
      <trkpt lat="41.219261" lon="1.428927">
        <ele>171.4</ele>
        <time>2014-12-07T08:49:40Z</time>
      </trkpt>
      <trkpt lat="41.219257" lon="1.428926">
        <ele>171.4</ele>
        <time>2014-12-07T08:49:41Z</time>
      </trkpt>
      <trkpt lat="41.219223" lon="1.428886">
        <ele>171.4</ele>
        <time>2014-12-07T08:49:50Z</time>
      </trkpt>
      <trkpt lat="41.219181" lon="1.428830">
        <ele>171.4</ele>
        <time>2014-12-07T08:49:52Z</time>
      </trkpt>
      <trkpt lat="41.219048" lon="1.428744">
        <ele>171.4</ele>
        <time>2014-12-07T08:49:56Z</time>
      </trkpt>
      <trkpt lat="41.218868" lon="1.428668">
        <ele>171.4</ele>
        <time>2014-12-07T08:50:00Z</time>
      </trkpt>
      <trkpt lat="41.218803" lon="1.428620">
        <ele>171.4</ele>
        <time>2014-12-07T08:50:02Z</time>
      </trkpt>
      <trkpt lat="41.218792" lon="1.428567">
        <ele>171.4</ele>
        <time>2014-12-07T08:50:03Z</time>
      </trkpt>
      <trkpt lat="41.218803" lon="1.428452">
        <ele>170.8</ele>
        <time>2014-12-07T08:50:05Z</time>
      </trkpt>
      <trkpt lat="41.218826" lon="1.428399">
        <ele>170.4</ele>
        <time>2014-12-07T08:50:06Z</time>
      </trkpt>
      <trkpt lat="41.218857" lon="1.428365">
        <ele>170.0</ele>
        <time>2014-12-07T08:50:07Z</time>
      </trkpt>
      <trkpt lat="41.218891" lon="1.428329">
        <ele>169.4</ele>
        <time>2014-12-07T08:50:08Z</time>
      </trkpt>
      <trkpt lat="41.218918" lon="1.428288">
        <ele>169.0</ele>
        <time>2014-12-07T08:50:09Z</time>
      </trkpt>
      <trkpt lat="41.218929" lon="1.428261">
        <ele>168.6</ele>
        <time>2014-12-07T08:50:10Z</time>
      </trkpt>
      <trkpt lat="41.218918" lon="1.428232">
        <ele>168.0</ele>
        <time>2014-12-07T08:50:11Z</time>
      </trkpt>
      <trkpt lat="41.218903" lon="1.428208">
        <ele>167.6</ele>
        <time>2014-12-07T08:50:12Z</time>
      </trkpt>
      <trkpt lat="41.218884" lon="1.428175">
        <ele>166.8</ele>
        <time>2014-12-07T08:50:13Z</time>
      </trkpt>
      <trkpt lat="41.218845" lon="1.428148">
        <ele>166.0</ele>
        <time>2014-12-07T08:50:14Z</time>
      </trkpt>
      <trkpt lat="41.218788" lon="1.428112">
        <ele>165.0</ele>
        <time>2014-12-07T08:50:16Z</time>
      </trkpt>
      <trkpt lat="41.218758" lon="1.428080">
        <ele>164.0</ele>
        <time>2014-12-07T08:50:17Z</time>
      </trkpt>
      <trkpt lat="41.218735" lon="1.428046">
        <ele>162.8</ele>
        <time>2014-12-07T08:50:18Z</time>
      </trkpt>
      <trkpt lat="41.218719" lon="1.428019">
        <ele>162.0</ele>
        <time>2014-12-07T08:50:19Z</time>
      </trkpt>
      <trkpt lat="41.218708" lon="1.427989">
        <ele>161.2</ele>
        <time>2014-12-07T08:50:20Z</time>
      </trkpt>
      <trkpt lat="41.218700" lon="1.427970">
        <ele>160.4</ele>
        <time>2014-12-07T08:50:21Z</time>
      </trkpt>
      <trkpt lat="41.218697" lon="1.427954">
        <ele>159.6</ele>
        <time>2014-12-07T08:50:22Z</time>
      </trkpt>
      <trkpt lat="41.218689" lon="1.427934">
        <ele>158.6</ele>
        <time>2014-12-07T08:50:23Z</time>
      </trkpt>
      <trkpt lat="41.218681" lon="1.427885">
        <ele>158.6</ele>
        <time>2014-12-07T08:50:25Z</time>
      </trkpt>
      <trkpt lat="41.218647" lon="1.427734">
        <ele>158.6</ele>
        <time>2014-12-07T08:50:30Z</time>
      </trkpt>
      <trkpt lat="41.218685" lon="1.427596">
        <ele>159.0</ele>
        <time>2014-12-07T08:50:35Z</time>
      </trkpt>
      <trkpt lat="41.218704" lon="1.427567">
        <ele>159.4</ele>
        <time>2014-12-07T08:50:36Z</time>
      </trkpt>
      <trkpt lat="41.218723" lon="1.427541">
        <ele>159.8</ele>
        <time>2014-12-07T08:50:37Z</time>
      </trkpt>
      <trkpt lat="41.218746" lon="1.427511">
        <ele>160.2</ele>
        <time>2014-12-07T08:50:38Z</time>
      </trkpt>
      <trkpt lat="41.218765" lon="1.427485">
        <ele>160.6</ele>
        <time>2014-12-07T08:50:39Z</time>
      </trkpt>
      <trkpt lat="41.218784" lon="1.427451">
        <ele>160.6</ele>
        <time>2014-12-07T08:50:40Z</time>
      </trkpt>
      <trkpt lat="41.218918" lon="1.427223">
        <ele>160.6</ele>
        <time>2014-12-07T08:50:46Z</time>
      </trkpt>
      <trkpt lat="41.219044" lon="1.426991">
        <ele>160.6</ele>
        <time>2014-12-07T08:50:50Z</time>
      </trkpt>
      <trkpt lat="41.219070" lon="1.426914">
        <ele>160.2</ele>
        <time>2014-12-07T08:50:51Z</time>
      </trkpt>
      <trkpt lat="41.219109" lon="1.426838">
        <ele>159.8</ele>
        <time>2014-12-07T08:50:52Z</time>
      </trkpt>
      <trkpt lat="41.219143" lon="1.426760">
        <ele>159.2</ele>
        <time>2014-12-07T08:50:53Z</time>
      </trkpt>
      <trkpt lat="41.219185" lon="1.426688">
        <ele>158.8</ele>
        <time>2014-12-07T08:50:54Z</time>
      </trkpt>
      <trkpt lat="41.219227" lon="1.426615">
        <ele>158.2</ele>
        <time>2014-12-07T08:50:55Z</time>
      </trkpt>
      <trkpt lat="41.219261" lon="1.426537">
        <ele>157.6</ele>
        <time>2014-12-07T08:50:56Z</time>
      </trkpt>
      <trkpt lat="41.219284" lon="1.426471">
        <ele>157.2</ele>
        <time>2014-12-07T08:50:57Z</time>
      </trkpt>
      <trkpt lat="41.219307" lon="1.426411">
        <ele>156.4</ele>
        <time>2014-12-07T08:50:58Z</time>
      </trkpt>
      <trkpt lat="41.219326" lon="1.426365">
        <ele>155.8</ele>
        <time>2014-12-07T08:50:59Z</time>
      </trkpt>
      <trkpt lat="41.219345" lon="1.426316">
        <ele>155.2</ele>
        <time>2014-12-07T08:51:00Z</time>
      </trkpt>
      <trkpt lat="41.219353" lon="1.426252">
        <ele>154.6</ele>
        <time>2014-12-07T08:51:01Z</time>
      </trkpt>
      <trkpt lat="41.219360" lon="1.426183">
        <ele>153.8</ele>
        <time>2014-12-07T08:51:02Z</time>
      </trkpt>
      <trkpt lat="41.219360" lon="1.426106">
        <ele>153.2</ele>
        <time>2014-12-07T08:51:03Z</time>
      </trkpt>
      <trkpt lat="41.219360" lon="1.426028">
        <ele>152.4</ele>
        <time>2014-12-07T08:51:04Z</time>
      </trkpt>
      <trkpt lat="41.219368" lon="1.425949">
        <ele>151.6</ele>
        <time>2014-12-07T08:51:05Z</time>
      </trkpt>
      <trkpt lat="41.219379" lon="1.425876">
        <ele>151.0</ele>
        <time>2014-12-07T08:51:06Z</time>
      </trkpt>
      <trkpt lat="41.219402" lon="1.425803">
        <ele>150.6</ele>
        <time>2014-12-07T08:51:07Z</time>
      </trkpt>
      <trkpt lat="41.219429" lon="1.425740">
        <ele>150.2</ele>
        <time>2014-12-07T08:51:08Z</time>
      </trkpt>
      <trkpt lat="41.219460" lon="1.425694">
        <ele>149.8</ele>
        <time>2014-12-07T08:51:09Z</time>
      </trkpt>
      <trkpt lat="41.219501" lon="1.425668">
        <ele>149.4</ele>
        <time>2014-12-07T08:51:10Z</time>
      </trkpt>
      <trkpt lat="41.219543" lon="1.425668">
        <ele>149.0</ele>
        <time>2014-12-07T08:51:11Z</time>
      </trkpt>
      <trkpt lat="41.219574" lon="1.425676">
        <ele>149.0</ele>
        <time>2014-12-07T08:51:12Z</time>
      </trkpt>
      <trkpt lat="41.219734" lon="1.425767">
        <ele>149.0</ele>
        <time>2014-12-07T08:51:16Z</time>
      </trkpt>
      <trkpt lat="41.219872" lon="1.425823">
        <ele>149.0</ele>
        <time>2014-12-07T08:51:19Z</time>
      </trkpt>
      <trkpt lat="41.219959" lon="1.425829">
        <ele>149.0</ele>
        <time>2014-12-07T08:51:21Z</time>
      </trkpt>
      <trkpt lat="41.220043" lon="1.425825">
        <ele>149.0</ele>
        <time>2014-12-07T08:51:23Z</time>
      </trkpt>
      <trkpt lat="41.220215" lon="1.425810">
        <ele>149.0</ele>
        <time>2014-12-07T08:51:27Z</time>
      </trkpt>
      <trkpt lat="41.220402" lon="1.425768">
        <ele>148.4</ele>
        <time>2014-12-07T08:51:31Z</time>
      </trkpt>
      <trkpt lat="41.220451" lon="1.425754">
        <ele>148.0</ele>
        <time>2014-12-07T08:51:32Z</time>
      </trkpt>
      <trkpt lat="41.220509" lon="1.425741">
        <ele>147.6</ele>
        <time>2014-12-07T08:51:33Z</time>
      </trkpt>
      <trkpt lat="41.220554" lon="1.425734">
        <ele>147.2</ele>
        <time>2014-12-07T08:51:34Z</time>
      </trkpt>
      <trkpt lat="41.220596" lon="1.425724">
        <ele>146.6</ele>
        <time>2014-12-07T08:51:35Z</time>
      </trkpt>
      <trkpt lat="41.220657" lon="1.425706">
        <ele>146.6</ele>
        <time>2014-12-07T08:51:37Z</time>
      </trkpt>
      <trkpt lat="41.220684" lon="1.425704">
        <ele>146.2</ele>
        <time>2014-12-07T08:51:38Z</time>
      </trkpt>
      <trkpt lat="41.220718" lon="1.425701">
        <ele>145.0</ele>
        <time>2014-12-07T08:51:39Z</time>
      </trkpt>
      <trkpt lat="41.220745" lon="1.425675">
        <ele>144.6</ele>
        <time>2014-12-07T08:51:40Z</time>
      </trkpt>
      <trkpt lat="41.220772" lon="1.425644">
        <ele>144.0</ele>
        <time>2014-12-07T08:51:41Z</time>
      </trkpt>
      <trkpt lat="41.220798" lon="1.425611">
        <ele>143.6</ele>
        <time>2014-12-07T08:51:42Z</time>
      </trkpt>
      <trkpt lat="41.220818" lon="1.425566">
        <ele>143.2</ele>
        <time>2014-12-07T08:51:43Z</time>
      </trkpt>
      <trkpt lat="41.220833" lon="1.425519">
        <ele>142.8</ele>
        <time>2014-12-07T08:51:44Z</time>
      </trkpt>
      <trkpt lat="41.220829" lon="1.425466">
        <ele>142.2</ele>
        <time>2014-12-07T08:51:45Z</time>
      </trkpt>
      <trkpt lat="41.220833" lon="1.425410">
        <ele>141.8</ele>
        <time>2014-12-07T08:51:46Z</time>
      </trkpt>
      <trkpt lat="41.220848" lon="1.425271">
        <ele>141.8</ele>
        <time>2014-12-07T08:51:49Z</time>
      </trkpt>
      <trkpt lat="41.220844" lon="1.425224">
        <ele>141.8</ele>
        <time>2014-12-07T08:51:50Z</time>
      </trkpt>
      <trkpt lat="41.220871" lon="1.424939">
        <ele>141.8</ele>
        <time>2014-12-07T08:51:56Z</time>
      </trkpt>
      <trkpt lat="41.220932" lon="1.424863">
        <ele>141.8</ele>
        <time>2014-12-07T08:51:59Z</time>
      </trkpt>
      <trkpt lat="41.221039" lon="1.424777">
        <ele>141.8</ele>
        <time>2014-12-07T08:52:04Z</time>
      </trkpt>
      <trkpt lat="41.221062" lon="1.424762">
        <ele>141.8</ele>
        <time>2014-12-07T08:52:05Z</time>
      </trkpt>
      <trkpt lat="41.221161" lon="1.424676">
        <ele>142.2</ele>
        <time>2014-12-07T08:52:09Z</time>
      </trkpt>
      <trkpt lat="41.221180" lon="1.424646">
        <ele>142.6</ele>
        <time>2014-12-07T08:52:10Z</time>
      </trkpt>
      <trkpt lat="41.221188" lon="1.424611">
        <ele>143.2</ele>
        <time>2014-12-07T08:52:11Z</time>
      </trkpt>
      <trkpt lat="41.221195" lon="1.424579">
        <ele>143.6</ele>
        <time>2014-12-07T08:52:12Z</time>
      </trkpt>
      <trkpt lat="41.221195" lon="1.424549">
        <ele>144.0</ele>
        <time>2014-12-07T08:52:13Z</time>
      </trkpt>
      <trkpt lat="41.221203" lon="1.424519">
        <ele>144.0</ele>
        <time>2014-12-07T08:52:14Z</time>
      </trkpt>
      <trkpt lat="41.221207" lon="1.424459">
        <ele>144.4</ele>
        <time>2014-12-07T08:52:16Z</time>
      </trkpt>
      <trkpt lat="41.221214" lon="1.424434">
        <ele>144.8</ele>
        <time>2014-12-07T08:52:17Z</time>
      </trkpt>
      <trkpt lat="41.221222" lon="1.424411">
        <ele>145.2</ele>
        <time>2014-12-07T08:52:18Z</time>
      </trkpt>
      <trkpt lat="41.221230" lon="1.424392">
        <ele>145.6</ele>
        <time>2014-12-07T08:52:19Z</time>
      </trkpt>
      <trkpt lat="41.221237" lon="1.424368">
        <ele>146.2</ele>
        <time>2014-12-07T08:52:20Z</time>
      </trkpt>
      <trkpt lat="41.221245" lon="1.424348">
        <ele>146.6</ele>
        <time>2014-12-07T08:52:21Z</time>
      </trkpt>
      <trkpt lat="41.221249" lon="1.424324">
        <ele>147.2</ele>
        <time>2014-12-07T08:52:22Z</time>
      </trkpt>
      <trkpt lat="41.221252" lon="1.424303">
        <ele>147.6</ele>
        <time>2014-12-07T08:52:23Z</time>
      </trkpt>
      <trkpt lat="41.221260" lon="1.424284">
        <ele>148.2</ele>
        <time>2014-12-07T08:52:24Z</time>
      </trkpt>
      <trkpt lat="41.221264" lon="1.424262">
        <ele>148.8</ele>
        <time>2014-12-07T08:52:25Z</time>
      </trkpt>
      <trkpt lat="41.221268" lon="1.424237">
        <ele>149.4</ele>
        <time>2014-12-07T08:52:26Z</time>
      </trkpt>
      <trkpt lat="41.221272" lon="1.424213">
        <ele>150.0</ele>
        <time>2014-12-07T08:52:27Z</time>
      </trkpt>
      <trkpt lat="41.221275" lon="1.424193">
        <ele>151.0</ele>
        <time>2014-12-07T08:52:28Z</time>
      </trkpt>
      <trkpt lat="41.221287" lon="1.424171">
        <ele>151.4</ele>
        <time>2014-12-07T08:52:29Z</time>
      </trkpt>
      <trkpt lat="41.221294" lon="1.424152">
        <ele>151.8</ele>
        <time>2014-12-07T08:52:30Z</time>
      </trkpt>
      <trkpt lat="41.221302" lon="1.424135">
        <ele>152.2</ele>
        <time>2014-12-07T08:52:31Z</time>
      </trkpt>
      <trkpt lat="41.221306" lon="1.424114">
        <ele>152.8</ele>
        <time>2014-12-07T08:52:32Z</time>
      </trkpt>
      <trkpt lat="41.221310" lon="1.424095">
        <ele>153.4</ele>
        <time>2014-12-07T08:52:33Z</time>
      </trkpt>
      <trkpt lat="41.221310" lon="1.424084">
        <ele>154.0</ele>
        <time>2014-12-07T08:52:34Z</time>
      </trkpt>
      <trkpt lat="41.221306" lon="1.424064">
        <ele>154.4</ele>
        <time>2014-12-07T08:52:35Z</time>
      </trkpt>
      <trkpt lat="41.221306" lon="1.424045">
        <ele>155.0</ele>
        <time>2014-12-07T08:52:36Z</time>
      </trkpt>
      <trkpt lat="41.221317" lon="1.424043">
        <ele>155.0</ele>
        <time>2014-12-07T08:52:37Z</time>
      </trkpt>
      <trkpt lat="41.221329" lon="1.424044">
        <ele>155.0</ele>
        <time>2014-12-07T08:52:38Z</time>
      </trkpt>
      <trkpt lat="41.221382" lon="1.424002">
        <ele>155.0</ele>
        <time>2014-12-07T08:52:42Z</time>
      </trkpt>
      <trkpt lat="41.221401" lon="1.423994">
        <ele>155.4</ele>
        <time>2014-12-07T08:52:43Z</time>
      </trkpt>
      <trkpt lat="41.221420" lon="1.423981">
        <ele>155.8</ele>
        <time>2014-12-07T08:52:44Z</time>
      </trkpt>
      <trkpt lat="41.221439" lon="1.423972">
        <ele>156.6</ele>
        <time>2014-12-07T08:52:45Z</time>
      </trkpt>
      <trkpt lat="41.221455" lon="1.423974">
        <ele>157.2</ele>
        <time>2014-12-07T08:52:46Z</time>
      </trkpt>
      <trkpt lat="41.221470" lon="1.423974">
        <ele>157.8</ele>
        <time>2014-12-07T08:52:47Z</time>
      </trkpt>
      <trkpt lat="41.221485" lon="1.423979">
        <ele>158.6</ele>
        <time>2014-12-07T08:52:48Z</time>
      </trkpt>
      <trkpt lat="41.221500" lon="1.423982">
        <ele>159.2</ele>
        <time>2014-12-07T08:52:49Z</time>
      </trkpt>
      <trkpt lat="41.221512" lon="1.423990">
        <ele>159.6</ele>
        <time>2014-12-07T08:52:50Z</time>
      </trkpt>
      <trkpt lat="41.221523" lon="1.423996">
        <ele>160.2</ele>
        <time>2014-12-07T08:52:51Z</time>
      </trkpt>
      <trkpt lat="41.221539" lon="1.424002">
        <ele>161.2</ele>
        <time>2014-12-07T08:52:52Z</time>
      </trkpt>
      <trkpt lat="41.221558" lon="1.424000">
        <ele>161.6</ele>
        <time>2014-12-07T08:52:53Z</time>
      </trkpt>
      <trkpt lat="41.221565" lon="1.424002">
        <ele>161.6</ele>
        <time>2014-12-07T08:52:54Z</time>
      </trkpt>
      <trkpt lat="41.221649" lon="1.424013">
        <ele>161.6</ele>
        <time>2014-12-07T08:52:59Z</time>
      </trkpt>
      <trkpt lat="41.221756" lon="1.424007">
        <ele>161.6</ele>
        <time>2014-12-07T08:53:05Z</time>
      </trkpt>
      <trkpt lat="41.221832" lon="1.423932">
        <ele>161.6</ele>
        <time>2014-12-07T08:53:11Z</time>
      </trkpt>
      <trkpt lat="41.221844" lon="1.423929">
        <ele>162.0</ele>
        <time>2014-12-07T08:53:12Z</time>
      </trkpt>
      <trkpt lat="41.221855" lon="1.423920">
        <ele>162.4</ele>
        <time>2014-12-07T08:53:13Z</time>
      </trkpt>
      <trkpt lat="41.221867" lon="1.423910">
        <ele>163.0</ele>
        <time>2014-12-07T08:53:14Z</time>
      </trkpt>
      <trkpt lat="41.221878" lon="1.423899">
        <ele>163.4</ele>
        <time>2014-12-07T08:53:15Z</time>
      </trkpt>
      <trkpt lat="41.221886" lon="1.423882">
        <ele>163.8</ele>
        <time>2014-12-07T08:53:16Z</time>
      </trkpt>
      <trkpt lat="41.221893" lon="1.423866">
        <ele>163.8</ele>
        <time>2014-12-07T08:53:17Z</time>
      </trkpt>
      <trkpt lat="41.221901" lon="1.423843">
        <ele>164.2</ele>
        <time>2014-12-07T08:53:18Z</time>
      </trkpt>
      <trkpt lat="41.221909" lon="1.423834">
        <ele>164.8</ele>
        <time>2014-12-07T08:53:19Z</time>
      </trkpt>
      <trkpt lat="41.221920" lon="1.423821">
        <ele>165.2</ele>
        <time>2014-12-07T08:53:20Z</time>
      </trkpt>
      <trkpt lat="41.221935" lon="1.423810">
        <ele>165.6</ele>
        <time>2014-12-07T08:53:21Z</time>
      </trkpt>
      <trkpt lat="41.221947" lon="1.423792">
        <ele>166.0</ele>
        <time>2014-12-07T08:53:22Z</time>
      </trkpt>
      <trkpt lat="41.221989" lon="1.423695">
        <ele>166.0</ele>
        <time>2014-12-07T08:53:27Z</time>
      </trkpt>
      <trkpt lat="41.221996" lon="1.423668">
        <ele>166.4</ele>
        <time>2014-12-07T08:53:28Z</time>
      </trkpt>
      <trkpt lat="41.222008" lon="1.423643">
        <ele>167.0</ele>
        <time>2014-12-07T08:53:29Z</time>
      </trkpt>
      <trkpt lat="41.222019" lon="1.423620">
        <ele>167.4</ele>
        <time>2014-12-07T08:53:30Z</time>
      </trkpt>
      <trkpt lat="41.222034" lon="1.423597">
        <ele>167.8</ele>
        <time>2014-12-07T08:53:31Z</time>
      </trkpt>
      <trkpt lat="41.222046" lon="1.423576">
        <ele>168.2</ele>
        <time>2014-12-07T08:53:32Z</time>
      </trkpt>
      <trkpt lat="41.222061" lon="1.423554">
        <ele>168.2</ele>
        <time>2014-12-07T08:53:33Z</time>
      </trkpt>
      <trkpt lat="41.222145" lon="1.423350">
        <ele>168.2</ele>
        <time>2014-12-07T08:53:40Z</time>
      </trkpt>
      <trkpt lat="41.222172" lon="1.423190">
        <ele>168.2</ele>
        <time>2014-12-07T08:53:45Z</time>
      </trkpt>
      <trkpt lat="41.222134" lon="1.422976">
        <ele>168.2</ele>
        <time>2014-12-07T08:53:51Z</time>
      </trkpt>
      <trkpt lat="41.222054" lon="1.422787">
        <ele>168.2</ele>
        <time>2014-12-07T08:53:56Z</time>
      </trkpt>
      <trkpt lat="41.221981" lon="1.422607">
        <ele>168.2</ele>
        <time>2014-12-07T08:54:01Z</time>
      </trkpt>
      <trkpt lat="41.221962" lon="1.422582">
        <ele>167.8</ele>
        <time>2014-12-07T08:54:02Z</time>
      </trkpt>
      <trkpt lat="41.221954" lon="1.422548">
        <ele>167.4</ele>
        <time>2014-12-07T08:54:03Z</time>
      </trkpt>
      <trkpt lat="41.221947" lon="1.422516">
        <ele>167.0</ele>
        <time>2014-12-07T08:54:04Z</time>
      </trkpt>
      <trkpt lat="41.221947" lon="1.422477">
        <ele>166.6</ele>
        <time>2014-12-07T08:54:05Z</time>
      </trkpt>
      <trkpt lat="41.221951" lon="1.422444">
        <ele>166.2</ele>
        <time>2014-12-07T08:54:06Z</time>
      </trkpt>
      <trkpt lat="41.221962" lon="1.422299">
        <ele>166.2</ele>
        <time>2014-12-07T08:54:10Z</time>
      </trkpt>
      <trkpt lat="41.221951" lon="1.422052">
        <ele>166.2</ele>
        <time>2014-12-07T08:54:16Z</time>
      </trkpt>
      <trkpt lat="41.221947" lon="1.421704">
        <ele>166.2</ele>
        <time>2014-12-07T08:54:23Z</time>
      </trkpt>
      <trkpt lat="41.221985" lon="1.421442">
        <ele>166.2</ele>
        <time>2014-12-07T08:54:29Z</time>
      </trkpt>
      <trkpt lat="41.222008" lon="1.421340">
        <ele>166.2</ele>
        <time>2014-12-07T08:54:33Z</time>
      </trkpt>
      <trkpt lat="41.221981" lon="1.421290">
        <ele>166.2</ele>
        <time>2014-12-07T08:54:35Z</time>
      </trkpt>
      <trkpt lat="41.221958" lon="1.421272">
        <ele>166.2</ele>
        <time>2014-12-07T08:54:37Z</time>
      </trkpt>
      <trkpt lat="41.221889" lon="1.421192">
        <ele>166.2</ele>
        <time>2014-12-07T08:54:42Z</time>
      </trkpt>
      <trkpt lat="41.221878" lon="1.421170">
        <ele>166.6</ele>
        <time>2014-12-07T08:54:43Z</time>
      </trkpt>
      <trkpt lat="41.221863" lon="1.421144">
        <ele>167.0</ele>
        <time>2014-12-07T08:54:44Z</time>
      </trkpt>
      <trkpt lat="41.221844" lon="1.421116">
        <ele>167.4</ele>
        <time>2014-12-07T08:54:45Z</time>
      </trkpt>
      <trkpt lat="41.221832" lon="1.421090">
        <ele>168.0</ele>
        <time>2014-12-07T08:54:46Z</time>
      </trkpt>
      <trkpt lat="41.221828" lon="1.421065">
        <ele>168.4</ele>
        <time>2014-12-07T08:54:47Z</time>
      </trkpt>
      <trkpt lat="41.221821" lon="1.421045">
        <ele>168.4</ele>
        <time>2014-12-07T08:54:48Z</time>
      </trkpt>
      <trkpt lat="41.221783" lon="1.420928">
        <ele>168.4</ele>
        <time>2014-12-07T08:54:54Z</time>
      </trkpt>
      <trkpt lat="41.221718" lon="1.420693">
        <ele>168.4</ele>
        <time>2014-12-07T08:55:00Z</time>
      </trkpt>
      <trkpt lat="41.221710" lon="1.420662">
        <ele>168.8</ele>
        <time>2014-12-07T08:55:01Z</time>
      </trkpt>
      <trkpt lat="41.221699" lon="1.420623">
        <ele>169.2</ele>
        <time>2014-12-07T08:55:02Z</time>
      </trkpt>
      <trkpt lat="41.221687" lon="1.420586">
        <ele>169.6</ele>
        <time>2014-12-07T08:55:03Z</time>
      </trkpt>
      <trkpt lat="41.221676" lon="1.420556">
        <ele>170.0</ele>
        <time>2014-12-07T08:55:04Z</time>
      </trkpt>
      <trkpt lat="41.221664" lon="1.420520">
        <ele>170.4</ele>
        <time>2014-12-07T08:55:05Z</time>
      </trkpt>
      <trkpt lat="41.221584" lon="1.420362">
        <ele>170.4</ele>
        <time>2014-12-07T08:55:11Z</time>
      </trkpt>
      <trkpt lat="41.221577" lon="1.420356">
        <ele>170.8</ele>
        <time>2014-12-07T08:55:12Z</time>
      </trkpt>
      <trkpt lat="41.221561" lon="1.420335">
        <ele>171.2</ele>
        <time>2014-12-07T08:55:13Z</time>
      </trkpt>
      <trkpt lat="41.221550" lon="1.420314">
        <ele>171.8</ele>
        <time>2014-12-07T08:55:14Z</time>
      </trkpt>
      <trkpt lat="41.221539" lon="1.420294">
        <ele>172.2</ele>
        <time>2014-12-07T08:55:15Z</time>
      </trkpt>
      <trkpt lat="41.221531" lon="1.420289">
        <ele>172.6</ele>
        <time>2014-12-07T08:55:16Z</time>
      </trkpt>
      <trkpt lat="41.221519" lon="1.420287">
        <ele>172.6</ele>
        <time>2014-12-07T08:55:18Z</time>
      </trkpt>
      <trkpt lat="41.221458" lon="1.420114">
        <ele>176.4</ele>
        <time>2014-12-07T08:55:40Z</time>
      </trkpt>
      <trkpt lat="41.221451" lon="1.420074">
        <ele>176.8</ele>
        <time>2014-12-07T08:55:41Z</time>
      </trkpt>
      <trkpt lat="41.221375" lon="1.419987">
        <ele>176.8</ele>
        <time>2014-12-07T08:55:46Z</time>
      </trkpt>
      <trkpt lat="41.221321" lon="1.419975">
        <ele>177.2</ele>
        <time>2014-12-07T08:55:49Z</time>
      </trkpt>
      <trkpt lat="41.221306" lon="1.419971">
        <ele>177.6</ele>
        <time>2014-12-07T08:55:50Z</time>
      </trkpt>
      <trkpt lat="41.221294" lon="1.419974">
        <ele>178.0</ele>
        <time>2014-12-07T08:55:51Z</time>
      </trkpt>
      <trkpt lat="41.221275" lon="1.419979">
        <ele>178.4</ele>
        <time>2014-12-07T08:55:52Z</time>
      </trkpt>
      <trkpt lat="41.221252" lon="1.419978">
        <ele>178.8</ele>
        <time>2014-12-07T08:55:53Z</time>
      </trkpt>
      <trkpt lat="41.221203" lon="1.419971">
        <ele>179.4</ele>
        <time>2014-12-07T08:55:56Z</time>
      </trkpt>
      <trkpt lat="41.221188" lon="1.419964">
        <ele>179.8</ele>
        <time>2014-12-07T08:55:57Z</time>
      </trkpt>
      <trkpt lat="41.221176" lon="1.419954">
        <ele>180.2</ele>
        <time>2014-12-07T08:55:58Z</time>
      </trkpt>
      <trkpt lat="41.221157" lon="1.419940">
        <ele>180.8</ele>
        <time>2014-12-07T08:55:59Z</time>
      </trkpt>
      <trkpt lat="41.221142" lon="1.419927">
        <ele>181.2</ele>
        <time>2014-12-07T08:56:00Z</time>
      </trkpt>
      <trkpt lat="41.221130" lon="1.419922">
        <ele>181.6</ele>
        <time>2014-12-07T08:56:01Z</time>
      </trkpt>
      <trkpt lat="41.221115" lon="1.419918">
        <ele>182.2</ele>
        <time>2014-12-07T08:56:02Z</time>
      </trkpt>
      <trkpt lat="41.221096" lon="1.419914">
        <ele>182.6</ele>
        <time>2014-12-07T08:56:03Z</time>
      </trkpt>
      <trkpt lat="41.221081" lon="1.419908">
        <ele>183.0</ele>
        <time>2014-12-07T08:56:04Z</time>
      </trkpt>
      <trkpt lat="41.221069" lon="1.419905">
        <ele>183.4</ele>
        <time>2014-12-07T08:56:05Z</time>
      </trkpt>
      <trkpt lat="41.221035" lon="1.419897">
        <ele>183.8</ele>
        <time>2014-12-07T08:56:07Z</time>
      </trkpt>
      <trkpt lat="41.221024" lon="1.419892">
        <ele>184.2</ele>
        <time>2014-12-07T08:56:08Z</time>
      </trkpt>
      <trkpt lat="41.221001" lon="1.419882">
        <ele>184.6</ele>
        <time>2014-12-07T08:56:09Z</time>
      </trkpt>
      <trkpt lat="41.220982" lon="1.419867">
        <ele>185.4</ele>
        <time>2014-12-07T08:56:10Z</time>
      </trkpt>
      <trkpt lat="41.220943" lon="1.419861">
        <ele>185.4</ele>
        <time>2014-12-07T08:56:12Z</time>
      </trkpt>
      <trkpt lat="41.220879" lon="1.419874">
        <ele>186.0</ele>
        <time>2014-12-07T08:56:15Z</time>
      </trkpt>
      <trkpt lat="41.220863" lon="1.419883">
        <ele>186.4</ele>
        <time>2014-12-07T08:56:16Z</time>
      </trkpt>
      <trkpt lat="41.220844" lon="1.419894">
        <ele>186.8</ele>
        <time>2014-12-07T08:56:17Z</time>
      </trkpt>
      <trkpt lat="41.220825" lon="1.419893">
        <ele>187.2</ele>
        <time>2014-12-07T08:56:18Z</time>
      </trkpt>
      <trkpt lat="41.220814" lon="1.419892">
        <ele>187.6</ele>
        <time>2014-12-07T08:56:19Z</time>
      </trkpt>
      <trkpt lat="41.220753" lon="1.419890">
        <ele>188.0</ele>
        <time>2014-12-07T08:56:22Z</time>
      </trkpt>
      <trkpt lat="41.220730" lon="1.419896">
        <ele>188.4</ele>
        <time>2014-12-07T08:56:23Z</time>
      </trkpt>
      <trkpt lat="41.220707" lon="1.419893">
        <ele>189.0</ele>
        <time>2014-12-07T08:56:24Z</time>
      </trkpt>
      <trkpt lat="41.220695" lon="1.419896">
        <ele>189.4</ele>
        <time>2014-12-07T08:56:25Z</time>
      </trkpt>
      <trkpt lat="41.220676" lon="1.419897">
        <ele>189.8</ele>
        <time>2014-12-07T08:56:26Z</time>
      </trkpt>
      <trkpt lat="41.220573" lon="1.419910">
        <ele>190.2</ele>
        <time>2014-12-07T08:56:31Z</time>
      </trkpt>
      <trkpt lat="41.220551" lon="1.419917">
        <ele>190.6</ele>
        <time>2014-12-07T08:56:32Z</time>
      </trkpt>
      <trkpt lat="41.220528" lon="1.419925">
        <ele>191.2</ele>
        <time>2014-12-07T08:56:33Z</time>
      </trkpt>
      <trkpt lat="41.220512" lon="1.419928">
        <ele>191.6</ele>
        <time>2014-12-07T08:56:34Z</time>
      </trkpt>
      <trkpt lat="41.220501" lon="1.419933">
        <ele>192.0</ele>
        <time>2014-12-07T08:56:35Z</time>
      </trkpt>
      <trkpt lat="41.220482" lon="1.419947">
        <ele>192.0</ele>
        <time>2014-12-07T08:56:37Z</time>
      </trkpt>
      <trkpt lat="41.220448" lon="1.419963">
        <ele>192.0</ele>
        <time>2014-12-07T08:56:42Z</time>
      </trkpt>
      <trkpt lat="41.220467" lon="1.420004">
        <ele>192.0</ele>
        <time>2014-12-07T08:56:45Z</time>
      </trkpt>
      <trkpt lat="41.220490" lon="1.420008">
        <ele>192.0</ele>
        <time>2014-12-07T08:56:47Z</time>
      </trkpt>
      <trkpt lat="41.220497" lon="1.419947">
        <ele>192.0</ele>
        <time>2014-12-07T08:56:51Z</time>
      </trkpt>
      <trkpt lat="41.220455" lon="1.419949">
        <ele>192.0</ele>
        <time>2014-12-07T08:56:54Z</time>
      </trkpt>
      <trkpt lat="41.220421" lon="1.419960">
        <ele>192.0</ele>
        <time>2014-12-07T08:56:56Z</time>
      </trkpt>
      <trkpt lat="41.220390" lon="1.419974">
        <ele>192.4</ele>
        <time>2014-12-07T08:56:58Z</time>
      </trkpt>
      <trkpt lat="41.220371" lon="1.419980">
        <ele>193.0</ele>
        <time>2014-12-07T08:56:59Z</time>
      </trkpt>
      <trkpt lat="41.220352" lon="1.419989">
        <ele>193.8</ele>
        <time>2014-12-07T08:57:00Z</time>
      </trkpt>
      <trkpt lat="41.220333" lon="1.419998">
        <ele>194.2</ele>
        <time>2014-12-07T08:57:01Z</time>
      </trkpt>
      <trkpt lat="41.220303" lon="1.419998">
        <ele>194.2</ele>
        <time>2014-12-07T08:57:03Z</time>
      </trkpt>
      <trkpt lat="41.220276" lon="1.420006">
        <ele>194.2</ele>
        <time>2014-12-07T08:57:05Z</time>
      </trkpt>
      <trkpt lat="41.220219" lon="1.420016">
        <ele>194.2</ele>
        <time>2014-12-07T08:57:08Z</time>
      </trkpt>
      <trkpt lat="41.220203" lon="1.420015">
        <ele>194.6</ele>
        <time>2014-12-07T08:57:09Z</time>
      </trkpt>
      <trkpt lat="41.220181" lon="1.420020">
        <ele>195.0</ele>
        <time>2014-12-07T08:57:10Z</time>
      </trkpt>
      <trkpt lat="41.220161" lon="1.420023">
        <ele>195.6</ele>
        <time>2014-12-07T08:57:11Z</time>
      </trkpt>
      <trkpt lat="41.220146" lon="1.420019">
        <ele>196.0</ele>
        <time>2014-12-07T08:57:12Z</time>
      </trkpt>
      <trkpt lat="41.220142" lon="1.420010">
        <ele>196.4</ele>
        <time>2014-12-07T08:57:13Z</time>
      </trkpt>
      <trkpt lat="41.220131" lon="1.419995">
        <ele>196.4</ele>
        <time>2014-12-07T08:57:14Z</time>
      </trkpt>
      <trkpt lat="41.220119" lon="1.419988">
        <ele>196.8</ele>
        <time>2014-12-07T08:57:15Z</time>
      </trkpt>
      <trkpt lat="41.220108" lon="1.419981">
        <ele>197.2</ele>
        <time>2014-12-07T08:57:16Z</time>
      </trkpt>
      <trkpt lat="41.220093" lon="1.419978">
        <ele>197.8</ele>
        <time>2014-12-07T08:57:17Z</time>
      </trkpt>
      <trkpt lat="41.220081" lon="1.419973">
        <ele>198.2</ele>
        <time>2014-12-07T08:57:18Z</time>
      </trkpt>
      <trkpt lat="41.220066" lon="1.419966">
        <ele>198.6</ele>
        <time>2014-12-07T08:57:19Z</time>
      </trkpt>
      <trkpt lat="41.220047" lon="1.419959">
        <ele>198.6</ele>
        <time>2014-12-07T08:57:20Z</time>
      </trkpt>
      <trkpt lat="41.220020" lon="1.419945">
        <ele>198.6</ele>
        <time>2014-12-07T08:57:22Z</time>
      </trkpt>
      <trkpt lat="41.220005" lon="1.419930">
        <ele>199.0</ele>
        <time>2014-12-07T08:57:23Z</time>
      </trkpt>
      <trkpt lat="41.219994" lon="1.419919">
        <ele>199.8</ele>
        <time>2014-12-07T08:57:24Z</time>
      </trkpt>
      <trkpt lat="41.219982" lon="1.419909">
        <ele>200.2</ele>
        <time>2014-12-07T08:57:25Z</time>
      </trkpt>
      <trkpt lat="41.219963" lon="1.419906">
        <ele>200.6</ele>
        <time>2014-12-07T08:57:26Z</time>
      </trkpt>
      <trkpt lat="41.219944" lon="1.419903">
        <ele>201.2</ele>
        <time>2014-12-07T08:57:27Z</time>
      </trkpt>
      <trkpt lat="41.219929" lon="1.419905">
        <ele>201.6</ele>
        <time>2014-12-07T08:57:28Z</time>
      </trkpt>
      <trkpt lat="41.219917" lon="1.419897">
        <ele>202.0</ele>
        <time>2014-12-07T08:57:29Z</time>
      </trkpt>
      <trkpt lat="41.219906" lon="1.419895">
        <ele>202.4</ele>
        <time>2014-12-07T08:57:30Z</time>
      </trkpt>
      <trkpt lat="41.219894" lon="1.419895">
        <ele>203.0</ele>
        <time>2014-12-07T08:57:31Z</time>
      </trkpt>
      <trkpt lat="41.219883" lon="1.419892">
        <ele>203.4</ele>
        <time>2014-12-07T08:57:32Z</time>
      </trkpt>
      <trkpt lat="41.219872" lon="1.419881">
        <ele>204.0</ele>
        <time>2014-12-07T08:57:33Z</time>
      </trkpt>
      <trkpt lat="41.219860" lon="1.419873">
        <ele>204.4</ele>
        <time>2014-12-07T08:57:34Z</time>
      </trkpt>
      <trkpt lat="41.219849" lon="1.419859">
        <ele>205.0</ele>
        <time>2014-12-07T08:57:35Z</time>
      </trkpt>
      <trkpt lat="41.219833" lon="1.419852">
        <ele>205.0</ele>
        <time>2014-12-07T08:57:36Z</time>
      </trkpt>
      <trkpt lat="41.219776" lon="1.419847">
        <ele>205.4</ele>
        <time>2014-12-07T08:57:40Z</time>
      </trkpt>
      <trkpt lat="41.219757" lon="1.419846">
        <ele>205.8</ele>
        <time>2014-12-07T08:57:41Z</time>
      </trkpt>
      <trkpt lat="41.219742" lon="1.419837">
        <ele>206.2</ele>
        <time>2014-12-07T08:57:42Z</time>
      </trkpt>
      <trkpt lat="41.219727" lon="1.419836">
        <ele>206.6</ele>
        <time>2014-12-07T08:57:43Z</time>
      </trkpt>
      <trkpt lat="41.219707" lon="1.419836">
        <ele>207.0</ele>
        <time>2014-12-07T08:57:44Z</time>
      </trkpt>
      <trkpt lat="41.219677" lon="1.419845">
        <ele>207.4</ele>
        <time>2014-12-07T08:57:46Z</time>
      </trkpt>
      <trkpt lat="41.219658" lon="1.419848">
        <ele>207.8</ele>
        <time>2014-12-07T08:57:47Z</time>
      </trkpt>
      <trkpt lat="41.219639" lon="1.419854">
        <ele>208.2</ele>
        <time>2014-12-07T08:57:48Z</time>
      </trkpt>
      <trkpt lat="41.219624" lon="1.419856">
        <ele>209.2</ele>
        <time>2014-12-07T08:57:49Z</time>
      </trkpt>
      <trkpt lat="41.219566" lon="1.419823">
        <ele>209.2</ele>
        <time>2014-12-07T08:57:53Z</time>
      </trkpt>
      <trkpt lat="41.219547" lon="1.419767">
        <ele>209.6</ele>
        <time>2014-12-07T08:57:56Z</time>
      </trkpt>
      <trkpt lat="41.219532" lon="1.419752">
        <ele>210.0</ele>
        <time>2014-12-07T08:57:57Z</time>
      </trkpt>
      <trkpt lat="41.219517" lon="1.419744">
        <ele>210.4</ele>
        <time>2014-12-07T08:57:58Z</time>
      </trkpt>
      <trkpt lat="41.219498" lon="1.419730">
        <ele>210.8</ele>
        <time>2014-12-07T08:57:59Z</time>
      </trkpt>
      <trkpt lat="41.219482" lon="1.419725">
        <ele>211.2</ele>
        <time>2014-12-07T08:58:00Z</time>
      </trkpt>
      <trkpt lat="41.219467" lon="1.419721">
        <ele>211.2</ele>
        <time>2014-12-07T08:58:01Z</time>
      </trkpt>
      <trkpt lat="41.219448" lon="1.419710">
        <ele>211.6</ele>
        <time>2014-12-07T08:58:02Z</time>
      </trkpt>
      <trkpt lat="41.219433" lon="1.419700">
        <ele>212.0</ele>
        <time>2014-12-07T08:58:03Z</time>
      </trkpt>
      <trkpt lat="41.219421" lon="1.419680">
        <ele>212.4</ele>
        <time>2014-12-07T08:58:04Z</time>
      </trkpt>
      <trkpt lat="41.219406" lon="1.419662">
        <ele>212.8</ele>
        <time>2014-12-07T08:58:05Z</time>
      </trkpt>
      <trkpt lat="41.219387" lon="1.419652">
        <ele>213.2</ele>
        <time>2014-12-07T08:58:06Z</time>
      </trkpt>
      <trkpt lat="41.219360" lon="1.419623">
        <ele>213.2</ele>
        <time>2014-12-07T08:58:08Z</time>
      </trkpt>
      <trkpt lat="41.219322" lon="1.419617">
        <ele>213.2</ele>
        <time>2014-12-07T08:58:10Z</time>
      </trkpt>
      <trkpt lat="41.219261" lon="1.419593">
        <ele>213.2</ele>
        <time>2014-12-07T08:58:13Z</time>
      </trkpt>
      <trkpt lat="41.219227" lon="1.419596">
        <ele>213.2</ele>
        <time>2014-12-07T08:58:15Z</time>
      </trkpt>
      <trkpt lat="41.219208" lon="1.419593">
        <ele>213.8</ele>
        <time>2014-12-07T08:58:16Z</time>
      </trkpt>
      <trkpt lat="41.219189" lon="1.419586">
        <ele>214.2</ele>
        <time>2014-12-07T08:58:17Z</time>
      </trkpt>
      <trkpt lat="41.219181" lon="1.419574">
        <ele>214.6</ele>
        <time>2014-12-07T08:58:18Z</time>
      </trkpt>
      <trkpt lat="41.219166" lon="1.419560">
        <ele>215.0</ele>
        <time>2014-12-07T08:58:19Z</time>
      </trkpt>
      <trkpt lat="41.219143" lon="1.419548">
        <ele>215.6</ele>
        <time>2014-12-07T08:58:20Z</time>
      </trkpt>
      <trkpt lat="41.219051" lon="1.419500">
        <ele>216.0</ele>
        <time>2014-12-07T08:58:24Z</time>
      </trkpt>
      <trkpt lat="41.219036" lon="1.419487">
        <ele>216.4</ele>
        <time>2014-12-07T08:58:25Z</time>
      </trkpt>
      <trkpt lat="41.219021" lon="1.419470">
        <ele>216.8</ele>
        <time>2014-12-07T08:58:26Z</time>
      </trkpt>
      <trkpt lat="41.219009" lon="1.419453">
        <ele>217.2</ele>
        <time>2014-12-07T08:58:27Z</time>
      </trkpt>
      <trkpt lat="41.218990" lon="1.419432">
        <ele>217.6</ele>
        <time>2014-12-07T08:58:28Z</time>
      </trkpt>
      <trkpt lat="41.218952" lon="1.419292">
        <ele>217.6</ele>
        <time>2014-12-07T08:58:32Z</time>
      </trkpt>
      <trkpt lat="41.218891" lon="1.419076">
        <ele>217.6</ele>
        <time>2014-12-07T08:58:38Z</time>
      </trkpt>
      <trkpt lat="41.218819" lon="1.418870">
        <ele>217.6</ele>
        <time>2014-12-07T08:58:44Z</time>
      </trkpt>
      <trkpt lat="41.218811" lon="1.418828">
        <ele>217.6</ele>
        <time>2014-12-07T08:58:46Z</time>
      </trkpt>
      <trkpt lat="41.218811" lon="1.418804">
        <ele>218.0</ele>
        <time>2014-12-07T08:58:47Z</time>
      </trkpt>
      <trkpt lat="41.218807" lon="1.418777">
        <ele>218.4</ele>
        <time>2014-12-07T08:58:48Z</time>
      </trkpt>
      <trkpt lat="41.218792" lon="1.418752">
        <ele>218.8</ele>
        <time>2014-12-07T08:58:49Z</time>
      </trkpt>
      <trkpt lat="41.218784" lon="1.418728">
        <ele>219.4</ele>
        <time>2014-12-07T08:58:50Z</time>
      </trkpt>
      <trkpt lat="41.218777" lon="1.418710">
        <ele>219.8</ele>
        <time>2014-12-07T08:58:51Z</time>
      </trkpt>
      <trkpt lat="41.218761" lon="1.418650">
        <ele>219.8</ele>
        <time>2014-12-07T08:58:53Z</time>
      </trkpt>
      <trkpt lat="41.218750" lon="1.418507">
        <ele>220.2</ele>
        <time>2014-12-07T08:58:58Z</time>
      </trkpt>
      <trkpt lat="41.218731" lon="1.418507">
        <ele>220.6</ele>
        <time>2014-12-07T08:58:59Z</time>
      </trkpt>
      <trkpt lat="41.218723" lon="1.418522">
        <ele>221.0</ele>
        <time>2014-12-07T08:59:00Z</time>
      </trkpt>
      <trkpt lat="41.218723" lon="1.418527">
        <ele>221.4</ele>
        <time>2014-12-07T08:59:01Z</time>
      </trkpt>
      <trkpt lat="41.218727" lon="1.418531">
        <ele>221.8</ele>
        <time>2014-12-07T08:59:02Z</time>
      </trkpt>
      <trkpt lat="41.218739" lon="1.418543">
        <ele>221.8</ele>
        <time>2014-12-07T08:59:04Z</time>
      </trkpt>
      <trkpt lat="41.218742" lon="1.418605">
        <ele>221.8</ele>
        <time>2014-12-07T08:59:07Z</time>
      </trkpt>
      <trkpt lat="41.218777" lon="1.418708">
        <ele>221.8</ele>
        <time>2014-12-07T08:59:10Z</time>
      </trkpt>
      <trkpt lat="41.218803" lon="1.418814">
        <ele>221.8</ele>
        <time>2014-12-07T08:59:12Z</time>
      </trkpt>
      <trkpt lat="41.218884" lon="1.419074">
        <ele>221.4</ele>
        <time>2014-12-07T08:59:16Z</time>
      </trkpt>
      <trkpt lat="41.218903" lon="1.419140">
        <ele>220.8</ele>
        <time>2014-12-07T08:59:17Z</time>
      </trkpt>
      <trkpt lat="41.218925" lon="1.419203">
        <ele>220.4</ele>
        <time>2014-12-07T08:59:18Z</time>
      </trkpt>
      <trkpt lat="41.218945" lon="1.419270">
        <ele>220.0</ele>
        <time>2014-12-07T08:59:19Z</time>
      </trkpt>
      <trkpt lat="41.218956" lon="1.419330">
        <ele>219.6</ele>
        <time>2014-12-07T08:59:20Z</time>
      </trkpt>
      <trkpt lat="41.218960" lon="1.419389">
        <ele>219.6</ele>
        <time>2014-12-07T08:59:21Z</time>
      </trkpt>
      <trkpt lat="41.219067" lon="1.419539">
        <ele>219.6</ele>
        <time>2014-12-07T08:59:25Z</time>
      </trkpt>
      <trkpt lat="41.219223" lon="1.419592">
        <ele>219.6</ele>
        <time>2014-12-07T08:59:28Z</time>
      </trkpt>
      <trkpt lat="41.219288" lon="1.419612">
        <ele>219.6</ele>
        <time>2014-12-07T08:59:29Z</time>
      </trkpt>
      <trkpt lat="41.219334" lon="1.419638">
        <ele>219.2</ele>
        <time>2014-12-07T08:59:30Z</time>
      </trkpt>
      <trkpt lat="41.219379" lon="1.419659">
        <ele>218.6</ele>
        <time>2014-12-07T08:59:31Z</time>
      </trkpt>
      <trkpt lat="41.219421" lon="1.419694">
        <ele>218.2</ele>
        <time>2014-12-07T08:59:32Z</time>
      </trkpt>
      <trkpt lat="41.219460" lon="1.419730">
        <ele>217.6</ele>
        <time>2014-12-07T08:59:33Z</time>
      </trkpt>
      <trkpt lat="41.219494" lon="1.419768">
        <ele>217.0</ele>
        <time>2014-12-07T08:59:34Z</time>
      </trkpt>
      <trkpt lat="41.219524" lon="1.419791">
        <ele>216.4</ele>
        <time>2014-12-07T08:59:35Z</time>
      </trkpt>
      <trkpt lat="41.219547" lon="1.419817">
        <ele>215.8</ele>
        <time>2014-12-07T08:59:36Z</time>
      </trkpt>
      <trkpt lat="41.219574" lon="1.419843">
        <ele>215.2</ele>
        <time>2014-12-07T08:59:37Z</time>
      </trkpt>
      <trkpt lat="41.219601" lon="1.419855">
        <ele>214.4</ele>
        <time>2014-12-07T08:59:38Z</time>
      </trkpt>
      <trkpt lat="41.219631" lon="1.419844">
        <ele>213.8</ele>
        <time>2014-12-07T08:59:39Z</time>
      </trkpt>
      <trkpt lat="41.219658" lon="1.419836">
        <ele>213.2</ele>
        <time>2014-12-07T08:59:40Z</time>
      </trkpt>
      <trkpt lat="41.219696" lon="1.419834">
        <ele>212.4</ele>
        <time>2014-12-07T08:59:41Z</time>
      </trkpt>
      <trkpt lat="41.219757" lon="1.419839">
        <ele>211.8</ele>
        <time>2014-12-07T08:59:43Z</time>
      </trkpt>
      <trkpt lat="41.219784" lon="1.419842">
        <ele>211.4</ele>
        <time>2014-12-07T08:59:44Z</time>
      </trkpt>
      <trkpt lat="41.219807" lon="1.419850">
        <ele>210.8</ele>
        <time>2014-12-07T08:59:45Z</time>
      </trkpt>
      <trkpt lat="41.219833" lon="1.419868">
        <ele>210.2</ele>
        <time>2014-12-07T08:59:46Z</time>
      </trkpt>
      <trkpt lat="41.219860" lon="1.419875">
        <ele>209.6</ele>
        <time>2014-12-07T08:59:47Z</time>
      </trkpt>
      <trkpt lat="41.219887" lon="1.419881">
        <ele>209.0</ele>
        <time>2014-12-07T08:59:48Z</time>
      </trkpt>
      <trkpt lat="41.219910" lon="1.419891">
        <ele>208.4</ele>
        <time>2014-12-07T08:59:49Z</time>
      </trkpt>
      <trkpt lat="41.219933" lon="1.419895">
        <ele>207.8</ele>
        <time>2014-12-07T08:59:50Z</time>
      </trkpt>
      <trkpt lat="41.219948" lon="1.419899">
        <ele>207.0</ele>
        <time>2014-12-07T08:59:51Z</time>
      </trkpt>
      <trkpt lat="41.219967" lon="1.419909">
        <ele>205.6</ele>
        <time>2014-12-07T08:59:52Z</time>
      </trkpt>
      <trkpt lat="41.219990" lon="1.419928">
        <ele>205.0</ele>
        <time>2014-12-07T08:59:53Z</time>
      </trkpt>
      <trkpt lat="41.220013" lon="1.419951">
        <ele>204.2</ele>
        <time>2014-12-07T08:59:54Z</time>
      </trkpt>
      <trkpt lat="41.220043" lon="1.419971">
        <ele>203.4</ele>
        <time>2014-12-07T08:59:55Z</time>
      </trkpt>
      <trkpt lat="41.220074" lon="1.419983">
        <ele>202.6</ele>
        <time>2014-12-07T08:59:56Z</time>
      </trkpt>
      <trkpt lat="41.220097" lon="1.419984">
        <ele>202.2</ele>
        <time>2014-12-07T08:59:57Z</time>
      </trkpt>
      <trkpt lat="41.220104" lon="1.419982">
        <ele>201.6</ele>
        <time>2014-12-07T08:59:58Z</time>
      </trkpt>
      <trkpt lat="41.220112" lon="1.419984">
        <ele>201.2</ele>
        <time>2014-12-07T08:59:59Z</time>
      </trkpt>
      <trkpt lat="41.220112" lon="1.419982">
        <ele>200.8</ele>
        <time>2014-12-07T09:00:00Z</time>
      </trkpt>
      <trkpt lat="41.220131" lon="1.419982">
        <ele>200.2</ele>
        <time>2014-12-07T09:00:12Z</time>
      </trkpt>
      <trkpt lat="41.220165" lon="1.419984">
        <ele>200.2</ele>
        <time>2014-12-07T09:00:14Z</time>
      </trkpt>
      <trkpt lat="41.220207" lon="1.420004">
        <ele>199.8</ele>
        <time>2014-12-07T09:00:16Z</time>
      </trkpt>
      <trkpt lat="41.220222" lon="1.420013">
        <ele>198.8</ele>
        <time>2014-12-07T09:00:17Z</time>
      </trkpt>
      <trkpt lat="41.220238" lon="1.420020">
        <ele>198.2</ele>
        <time>2014-12-07T09:00:18Z</time>
      </trkpt>
      <trkpt lat="41.220253" lon="1.420028">
        <ele>197.8</ele>
        <time>2014-12-07T09:00:19Z</time>
      </trkpt>
      <trkpt lat="41.220284" lon="1.420043">
        <ele>197.2</ele>
        <time>2014-12-07T09:00:20Z</time>
      </trkpt>
      <trkpt lat="41.220303" lon="1.420065">
        <ele>196.6</ele>
        <time>2014-12-07T09:00:21Z</time>
      </trkpt>
      <trkpt lat="41.220329" lon="1.420079">
        <ele>196.2</ele>
        <time>2014-12-07T09:00:22Z</time>
      </trkpt>
      <trkpt lat="41.220345" lon="1.420092">
        <ele>195.6</ele>
        <time>2014-12-07T09:00:23Z</time>
      </trkpt>
      <trkpt lat="41.220356" lon="1.420091">
        <ele>195.6</ele>
        <time>2014-12-07T09:00:24Z</time>
      </trkpt>
      <trkpt lat="41.220364" lon="1.420082">
        <ele>195.6</ele>
        <time>2014-12-07T09:00:25Z</time>
      </trkpt>
      <trkpt lat="41.220367" lon="1.420047">
        <ele>195.6</ele>
        <time>2014-12-07T09:00:28Z</time>
      </trkpt>
      <trkpt lat="41.220345" lon="1.420029">
        <ele>195.6</ele>
        <time>2014-12-07T09:00:30Z</time>
      </trkpt>
      <trkpt lat="41.220264" lon="1.419980">
        <ele>195.6</ele>
        <time>2014-12-07T09:00:36Z</time>
      </trkpt>
      <trkpt lat="41.220211" lon="1.419994">
        <ele>195.6</ele>
        <time>2014-12-07T09:00:40Z</time>
      </trkpt>
      <trkpt lat="41.220173" lon="1.419998">
        <ele>195.6</ele>
        <time>2014-12-07T09:00:42Z</time>
      </trkpt>
      <trkpt lat="41.220158" lon="1.420002">
        <ele>196.0</ele>
        <time>2014-12-07T09:00:43Z</time>
      </trkpt>
      <trkpt lat="41.220146" lon="1.420002">
        <ele>196.6</ele>
        <time>2014-12-07T09:00:44Z</time>
      </trkpt>
      <trkpt lat="41.220146" lon="1.420004">
        <ele>197.0</ele>
        <time>2014-12-07T09:00:45Z</time>
      </trkpt>
      <trkpt lat="41.220146" lon="1.420003">
        <ele>197.6</ele>
        <time>2014-12-07T09:00:46Z</time>
      </trkpt>
      <trkpt lat="41.220154" lon="1.420004">
        <ele>198.0</ele>
        <time>2014-12-07T09:00:47Z</time>
      </trkpt>
      <trkpt lat="41.220192" lon="1.419980">
        <ele>198.0</ele>
        <time>2014-12-07T09:00:51Z</time>
      </trkpt>
      <trkpt lat="41.220238" lon="1.419985">
        <ele>198.0</ele>
        <time>2014-12-07T09:00:53Z</time>
      </trkpt>
      <trkpt lat="41.220318" lon="1.420044">
        <ele>197.6</ele>
        <time>2014-12-07T09:00:58Z</time>
      </trkpt>
      <trkpt lat="41.220337" lon="1.420066">
        <ele>197.2</ele>
        <time>2014-12-07T09:00:59Z</time>
      </trkpt>
      <trkpt lat="41.220356" lon="1.420087">
        <ele>196.6</ele>
        <time>2014-12-07T09:01:00Z</time>
      </trkpt>
      <trkpt lat="41.220371" lon="1.420095">
        <ele>196.2</ele>
        <time>2014-12-07T09:01:01Z</time>
      </trkpt>
      <trkpt lat="41.220383" lon="1.420088">
        <ele>195.8</ele>
        <time>2014-12-07T09:01:02Z</time>
      </trkpt>
      <trkpt lat="41.220387" lon="1.420071">
        <ele>195.8</ele>
        <time>2014-12-07T09:01:03Z</time>
      </trkpt>
      <trkpt lat="41.220379" lon="1.420052">
        <ele>195.8</ele>
        <time>2014-12-07T09:01:05Z</time>
      </trkpt>
      <trkpt lat="41.220352" lon="1.420025">
        <ele>195.8</ele>
        <time>2014-12-07T09:01:08Z</time>
      </trkpt>
      <trkpt lat="41.220329" lon="1.420008">
        <ele>195.8</ele>
        <time>2014-12-07T09:01:10Z</time>
      </trkpt>
      <trkpt lat="41.220261" lon="1.419998">
        <ele>195.8</ele>
        <time>2014-12-07T09:01:15Z</time>
      </trkpt>
      <trkpt lat="41.220177" lon="1.420016">
        <ele>195.8</ele>
        <time>2014-12-07T09:01:21Z</time>
      </trkpt>
      <trkpt lat="41.220158" lon="1.420006">
        <ele>196.2</ele>
        <time>2014-12-07T09:01:22Z</time>
      </trkpt>
      <trkpt lat="41.220146" lon="1.420002">
        <ele>196.6</ele>
        <time>2014-12-07T09:01:23Z</time>
      </trkpt>
      <trkpt lat="41.220131" lon="1.419991">
        <ele>197.2</ele>
        <time>2014-12-07T09:01:24Z</time>
      </trkpt>
      <trkpt lat="41.220119" lon="1.419981">
        <ele>197.6</ele>
        <time>2014-12-07T09:01:25Z</time>
      </trkpt>
      <trkpt lat="41.220104" lon="1.419980">
        <ele>198.0</ele>
        <time>2014-12-07T09:01:26Z</time>
      </trkpt>
      <trkpt lat="41.220074" lon="1.419965">
        <ele>198.6</ele>
        <time>2014-12-07T09:01:28Z</time>
      </trkpt>
      <trkpt lat="41.220062" lon="1.419960">
        <ele>199.0</ele>
        <time>2014-12-07T09:01:29Z</time>
      </trkpt>
      <trkpt lat="41.220051" lon="1.419953">
        <ele>199.4</ele>
        <time>2014-12-07T09:01:30Z</time>
      </trkpt>
      <trkpt lat="41.220036" lon="1.419948">
        <ele>199.8</ele>
        <time>2014-12-07T09:01:31Z</time>
      </trkpt>
      <trkpt lat="41.220020" lon="1.419942">
        <ele>200.2</ele>
        <time>2014-12-07T09:01:32Z</time>
      </trkpt>
      <trkpt lat="41.220001" lon="1.419920">
        <ele>200.6</ele>
        <time>2014-12-07T09:01:34Z</time>
      </trkpt>
      <trkpt lat="41.219994" lon="1.419910">
        <ele>201.0</ele>
        <time>2014-12-07T09:01:35Z</time>
      </trkpt>
      <trkpt lat="41.219990" lon="1.419905">
        <ele>201.4</ele>
        <time>2014-12-07T09:01:36Z</time>
      </trkpt>
      <trkpt lat="41.219982" lon="1.419898">
        <ele>202.0</ele>
        <time>2014-12-07T09:01:37Z</time>
      </trkpt>
      <trkpt lat="41.219963" lon="1.419897">
        <ele>202.4</ele>
        <time>2014-12-07T09:01:38Z</time>
      </trkpt>
      <trkpt lat="41.219940" lon="1.419884">
        <ele>202.4</ele>
        <time>2014-12-07T09:01:40Z</time>
      </trkpt>
      <trkpt lat="41.219921" lon="1.419883">
        <ele>202.8</ele>
        <time>2014-12-07T09:01:41Z</time>
      </trkpt>
      <trkpt lat="41.219913" lon="1.419887">
        <ele>203.2</ele>
        <time>2014-12-07T09:01:42Z</time>
      </trkpt>
      <trkpt lat="41.219902" lon="1.419885">
        <ele>203.6</ele>
        <time>2014-12-07T09:01:43Z</time>
      </trkpt>
      <trkpt lat="41.219887" lon="1.419879">
        <ele>204.0</ele>
        <time>2014-12-07T09:01:44Z</time>
      </trkpt>
      <trkpt lat="41.219875" lon="1.419875">
        <ele>204.4</ele>
        <time>2014-12-07T09:01:45Z</time>
      </trkpt>
      <trkpt lat="41.219849" lon="1.419873">
        <ele>204.8</ele>
        <time>2014-12-07T09:01:47Z</time>
      </trkpt>
      <trkpt lat="41.219830" lon="1.419869">
        <ele>205.2</ele>
        <time>2014-12-07T09:01:48Z</time>
      </trkpt>
      <trkpt lat="41.219822" lon="1.419867">
        <ele>205.6</ele>
        <time>2014-12-07T09:01:49Z</time>
      </trkpt>
      <trkpt lat="41.219810" lon="1.419861">
        <ele>206.2</ele>
        <time>2014-12-07T09:01:50Z</time>
      </trkpt>
      <trkpt lat="41.219799" lon="1.419854">
        <ele>206.6</ele>
        <time>2014-12-07T09:01:51Z</time>
      </trkpt>
      <trkpt lat="41.219776" lon="1.419841">
        <ele>206.6</ele>
        <time>2014-12-07T09:01:53Z</time>
      </trkpt>
      <trkpt lat="41.219749" lon="1.419839">
        <ele>207.0</ele>
        <time>2014-12-07T09:01:55Z</time>
      </trkpt>
      <trkpt lat="41.219742" lon="1.419839">
        <ele>207.8</ele>
        <time>2014-12-07T09:01:56Z</time>
      </trkpt>
      <trkpt lat="41.219727" lon="1.419842">
        <ele>208.4</ele>
        <time>2014-12-07T09:01:57Z</time>
      </trkpt>
      <trkpt lat="41.219715" lon="1.419838">
        <ele>208.8</ele>
        <time>2014-12-07T09:01:58Z</time>
      </trkpt>
      <trkpt lat="41.219704" lon="1.419842">
        <ele>208.8</ele>
        <time>2014-12-07T09:01:59Z</time>
      </trkpt>
      <trkpt lat="41.219612" lon="1.419858">
        <ele>209.2</ele>
        <time>2014-12-07T09:02:06Z</time>
      </trkpt>
      <trkpt lat="41.219604" lon="1.419853">
        <ele>209.6</ele>
        <time>2014-12-07T09:02:07Z</time>
      </trkpt>
      <trkpt lat="41.219589" lon="1.419845">
        <ele>210.0</ele>
        <time>2014-12-07T09:02:08Z</time>
      </trkpt>
      <trkpt lat="41.219585" lon="1.419841">
        <ele>210.4</ele>
        <time>2014-12-07T09:02:09Z</time>
      </trkpt>
      <trkpt lat="41.219574" lon="1.419833">
        <ele>210.8</ele>
        <time>2014-12-07T09:02:10Z</time>
      </trkpt>
      <trkpt lat="41.219570" lon="1.419817">
        <ele>210.8</ele>
        <time>2014-12-07T09:02:11Z</time>
      </trkpt>
      <trkpt lat="41.219524" lon="1.419757">
        <ele>211.2</ele>
        <time>2014-12-07T09:02:15Z</time>
      </trkpt>
      <trkpt lat="41.219505" lon="1.419752">
        <ele>211.6</ele>
        <time>2014-12-07T09:02:16Z</time>
      </trkpt>
      <trkpt lat="41.219501" lon="1.419741">
        <ele>212.0</ele>
        <time>2014-12-07T09:02:17Z</time>
      </trkpt>
      <trkpt lat="41.219486" lon="1.419735">
        <ele>212.4</ele>
        <time>2014-12-07T09:02:18Z</time>
      </trkpt>
      <trkpt lat="41.219475" lon="1.419726">
        <ele>213.0</ele>
        <time>2014-12-07T09:02:19Z</time>
      </trkpt>
      <trkpt lat="41.219414" lon="1.419682">
        <ele>213.0</ele>
        <time>2014-12-07T09:02:24Z</time>
      </trkpt>
      <trkpt lat="41.219406" lon="1.419670">
        <ele>213.4</ele>
        <time>2014-12-07T09:02:25Z</time>
      </trkpt>
      <trkpt lat="41.219387" lon="1.419660">
        <ele>213.8</ele>
        <time>2014-12-07T09:02:26Z</time>
      </trkpt>
      <trkpt lat="41.219368" lon="1.419652">
        <ele>214.2</ele>
        <time>2014-12-07T09:02:27Z</time>
      </trkpt>
      <trkpt lat="41.219353" lon="1.419642">
        <ele>214.6</ele>
        <time>2014-12-07T09:02:28Z</time>
      </trkpt>
      <trkpt lat="41.219337" lon="1.419643">
        <ele>215.0</ele>
        <time>2014-12-07T09:02:29Z</time>
      </trkpt>
      <trkpt lat="41.219326" lon="1.419634">
        <ele>215.0</ele>
        <time>2014-12-07T09:02:30Z</time>
      </trkpt>
      <trkpt lat="41.219254" lon="1.419617">
        <ele>215.0</ele>
        <time>2014-12-07T09:02:36Z</time>
      </trkpt>
      <trkpt lat="41.219246" lon="1.419607">
        <ele>215.0</ele>
        <time>2014-12-07T09:02:37Z</time>
      </trkpt>
      <trkpt lat="41.219181" lon="1.419584">
        <ele>215.0</ele>
        <time>2014-12-07T09:02:41Z</time>
      </trkpt>
      <trkpt lat="41.219170" lon="1.419577">
        <ele>215.0</ele>
        <time>2014-12-07T09:02:42Z</time>
      </trkpt>
      <trkpt lat="41.219105" lon="1.419552">
        <ele>215.4</ele>
        <time>2014-12-07T09:02:46Z</time>
      </trkpt>
      <trkpt lat="41.219090" lon="1.419542">
        <ele>215.8</ele>
        <time>2014-12-07T09:02:47Z</time>
      </trkpt>
      <trkpt lat="41.219078" lon="1.419538">
        <ele>216.2</ele>
        <time>2014-12-07T09:02:48Z</time>
      </trkpt>
      <trkpt lat="41.219055" lon="1.419521">
        <ele>216.6</ele>
        <time>2014-12-07T09:02:49Z</time>
      </trkpt>
      <trkpt lat="41.219040" lon="1.419507">
        <ele>217.0</ele>
        <time>2014-12-07T09:02:50Z</time>
      </trkpt>
      <trkpt lat="41.218987" lon="1.419439">
        <ele>217.0</ele>
        <time>2014-12-07T09:02:54Z</time>
      </trkpt>
      <trkpt lat="41.218960" lon="1.419363">
        <ele>217.4</ele>
        <time>2014-12-07T09:02:57Z</time>
      </trkpt>
      <trkpt lat="41.218948" lon="1.419334">
        <ele>218.0</ele>
        <time>2014-12-07T09:02:58Z</time>
      </trkpt>
      <trkpt lat="41.218937" lon="1.419300">
        <ele>218.4</ele>
        <time>2014-12-07T09:02:59Z</time>
      </trkpt>
      <trkpt lat="41.218933" lon="1.419271">
        <ele>218.8</ele>
        <time>2014-12-07T09:03:00Z</time>
      </trkpt>
      <trkpt lat="41.218929" lon="1.419238">
        <ele>219.2</ele>
        <time>2014-12-07T09:03:01Z</time>
      </trkpt>
      <trkpt lat="41.218903" lon="1.419043">
        <ele>219.2</ele>
        <time>2014-12-07T09:03:07Z</time>
      </trkpt>
      <trkpt lat="41.218864" lon="1.418901">
        <ele>219.2</ele>
        <time>2014-12-07T09:03:13Z</time>
      </trkpt>
      <trkpt lat="41.218834" lon="1.418815">
        <ele>219.2</ele>
        <time>2014-12-07T09:03:16Z</time>
      </trkpt>
      <trkpt lat="41.218800" lon="1.418713">
        <ele>219.2</ele>
        <time>2014-12-07T09:03:19Z</time>
      </trkpt>
      <trkpt lat="41.218773" lon="1.418661">
        <ele>219.6</ele>
        <time>2014-12-07T09:03:21Z</time>
      </trkpt>
      <trkpt lat="41.218765" lon="1.418635">
        <ele>220.0</ele>
        <time>2014-12-07T09:03:22Z</time>
      </trkpt>
      <trkpt lat="41.218758" lon="1.418597">
        <ele>220.6</ele>
        <time>2014-12-07T09:03:23Z</time>
      </trkpt>
      <trkpt lat="41.218758" lon="1.418560">
        <ele>221.0</ele>
        <time>2014-12-07T09:03:24Z</time>
      </trkpt>
      <trkpt lat="41.218758" lon="1.418528">
        <ele>221.4</ele>
        <time>2014-12-07T09:03:25Z</time>
      </trkpt>
      <trkpt lat="41.218765" lon="1.418508">
        <ele>221.4</ele>
        <time>2014-12-07T09:03:26Z</time>
      </trkpt>
      <trkpt lat="41.218792" lon="1.418437">
        <ele>221.4</ele>
        <time>2014-12-07T09:03:29Z</time>
      </trkpt>
      <trkpt lat="41.218830" lon="1.418386">
        <ele>221.4</ele>
        <time>2014-12-07T09:03:31Z</time>
      </trkpt>
      <trkpt lat="41.218842" lon="1.418357">
        <ele>221.8</ele>
        <time>2014-12-07T09:03:32Z</time>
      </trkpt>
      <trkpt lat="41.218857" lon="1.418325">
        <ele>222.2</ele>
        <time>2014-12-07T09:03:33Z</time>
      </trkpt>
      <trkpt lat="41.218872" lon="1.418288">
        <ele>222.6</ele>
        <time>2014-12-07T09:03:34Z</time>
      </trkpt>
      <trkpt lat="41.218891" lon="1.418241">
        <ele>223.0</ele>
        <time>2014-12-07T09:03:35Z</time>
      </trkpt>
      <trkpt lat="41.218899" lon="1.418189">
        <ele>223.4</ele>
        <time>2014-12-07T09:03:36Z</time>
      </trkpt>
      <trkpt lat="41.218895" lon="1.418103">
        <ele>223.4</ele>
        <time>2014-12-07T09:03:38Z</time>
      </trkpt>
      <trkpt lat="41.218891" lon="1.417973">
        <ele>223.4</ele>
        <time>2014-12-07T09:03:42Z</time>
      </trkpt>
      <trkpt lat="41.218887" lon="1.417850">
        <ele>223.0</ele>
        <time>2014-12-07T09:03:45Z</time>
      </trkpt>
      <trkpt lat="41.218872" lon="1.417789">
        <ele>222.6</ele>
        <time>2014-12-07T09:03:46Z</time>
      </trkpt>
      <trkpt lat="41.218864" lon="1.417734">
        <ele>222.2</ele>
        <time>2014-12-07T09:03:47Z</time>
      </trkpt>
      <trkpt lat="41.218845" lon="1.417680">
        <ele>221.8</ele>
        <time>2014-12-07T09:03:48Z</time>
      </trkpt>
      <trkpt lat="41.218838" lon="1.417623">
        <ele>221.4</ele>
        <time>2014-12-07T09:03:49Z</time>
      </trkpt>
      <trkpt lat="41.218849" lon="1.417457">
        <ele>221.4</ele>
        <time>2014-12-07T09:03:52Z</time>
      </trkpt>
      <trkpt lat="41.218956" lon="1.417282">
        <ele>221.4</ele>
        <time>2014-12-07T09:03:56Z</time>
      </trkpt>
      <trkpt lat="41.219036" lon="1.417235">
        <ele>221.4</ele>
        <time>2014-12-07T09:03:58Z</time>
      </trkpt>
      <trkpt lat="41.219074" lon="1.417198">
        <ele>221.4</ele>
        <time>2014-12-07T09:03:59Z</time>
      </trkpt>
      <trkpt lat="41.219120" lon="1.417167">
        <ele>220.8</ele>
        <time>2014-12-07T09:04:00Z</time>
      </trkpt>
      <trkpt lat="41.219143" lon="1.417135">
        <ele>220.0</ele>
        <time>2014-12-07T09:04:01Z</time>
      </trkpt>
      <trkpt lat="41.219162" lon="1.417093">
        <ele>219.6</ele>
        <time>2014-12-07T09:04:02Z</time>
      </trkpt>
      <trkpt lat="41.219177" lon="1.417046">
        <ele>219.2</ele>
        <time>2014-12-07T09:04:03Z</time>
      </trkpt>
      <trkpt lat="41.219189" lon="1.417012">
        <ele>218.6</ele>
        <time>2014-12-07T09:04:04Z</time>
      </trkpt>
      <trkpt lat="41.219204" lon="1.416979">
        <ele>218.2</ele>
        <time>2014-12-07T09:04:05Z</time>
      </trkpt>
      <trkpt lat="41.219219" lon="1.416940">
        <ele>217.8</ele>
        <time>2014-12-07T09:04:06Z</time>
      </trkpt>
      <trkpt lat="41.219246" lon="1.416906">
        <ele>217.2</ele>
        <time>2014-12-07T09:04:07Z</time>
      </trkpt>
      <trkpt lat="41.219273" lon="1.416873">
        <ele>216.8</ele>
        <time>2014-12-07T09:04:08Z</time>
      </trkpt>
      <trkpt lat="41.219433" lon="1.416754">
        <ele>216.8</ele>
        <time>2014-12-07T09:04:13Z</time>
      </trkpt>
      <trkpt lat="41.219585" lon="1.416654">
        <ele>216.4</ele>
        <time>2014-12-07T09:04:17Z</time>
      </trkpt>
      <trkpt lat="41.219627" lon="1.416629">
        <ele>216.0</ele>
        <time>2014-12-07T09:04:18Z</time>
      </trkpt>
      <trkpt lat="41.219669" lon="1.416599">
        <ele>215.4</ele>
        <time>2014-12-07T09:04:19Z</time>
      </trkpt>
      <trkpt lat="41.219715" lon="1.416569">
        <ele>215.0</ele>
        <time>2014-12-07T09:04:20Z</time>
      </trkpt>
      <trkpt lat="41.219749" lon="1.416535">
        <ele>214.6</ele>
        <time>2014-12-07T09:04:21Z</time>
      </trkpt>
      <trkpt lat="41.219784" lon="1.416497">
        <ele>214.6</ele>
        <time>2014-12-07T09:04:22Z</time>
      </trkpt>
      <trkpt lat="41.219837" lon="1.416410">
        <ele>214.6</ele>
        <time>2014-12-07T09:04:24Z</time>
      </trkpt>
      <trkpt lat="41.219879" lon="1.416320">
        <ele>214.6</ele>
        <time>2014-12-07T09:04:26Z</time>
      </trkpt>
      <trkpt lat="41.219933" lon="1.416198">
        <ele>214.6</ele>
        <time>2014-12-07T09:04:29Z</time>
      </trkpt>
      <trkpt lat="41.220039" lon="1.416072">
        <ele>214.6</ele>
        <time>2014-12-07T09:04:33Z</time>
      </trkpt>
      <trkpt lat="41.220181" lon="1.415914">
        <ele>214.6</ele>
        <time>2014-12-07T09:04:37Z</time>
      </trkpt>
      <trkpt lat="41.220276" lon="1.415850">
        <ele>214.6</ele>
        <time>2014-12-07T09:04:39Z</time>
      </trkpt>
      <trkpt lat="41.220501" lon="1.415747">
        <ele>214.6</ele>
        <time>2014-12-07T09:04:44Z</time>
      </trkpt>
      <trkpt lat="41.220627" lon="1.415723">
        <ele>214.6</ele>
        <time>2014-12-07T09:04:47Z</time>
      </trkpt>
      <trkpt lat="41.220715" lon="1.415727">
        <ele>214.6</ele>
        <time>2014-12-07T09:04:49Z</time>
      </trkpt>
      <trkpt lat="41.220875" lon="1.415787">
        <ele>214.6</ele>
        <time>2014-12-07T09:04:53Z</time>
      </trkpt>
      <trkpt lat="41.220913" lon="1.415796">
        <ele>214.6</ele>
        <time>2014-12-07T09:04:54Z</time>
      </trkpt>
      <trkpt lat="41.220955" lon="1.415801">
        <ele>215.0</ele>
        <time>2014-12-07T09:04:55Z</time>
      </trkpt>
      <trkpt lat="41.220997" lon="1.415792">
        <ele>215.6</ele>
        <time>2014-12-07T09:04:56Z</time>
      </trkpt>
      <trkpt lat="41.221035" lon="1.415782">
        <ele>216.0</ele>
        <time>2014-12-07T09:04:57Z</time>
      </trkpt>
      <trkpt lat="41.221069" lon="1.415779">
        <ele>216.4</ele>
        <time>2014-12-07T09:04:58Z</time>
      </trkpt>
      <trkpt lat="41.221104" lon="1.415776">
        <ele>217.0</ele>
        <time>2014-12-07T09:04:59Z</time>
      </trkpt>
      <trkpt lat="41.221214" lon="1.415733">
        <ele>217.4</ele>
        <time>2014-12-07T09:05:03Z</time>
      </trkpt>
      <trkpt lat="41.221233" lon="1.415698">
        <ele>217.8</ele>
        <time>2014-12-07T09:05:04Z</time>
      </trkpt>
      <trkpt lat="41.221249" lon="1.415658">
        <ele>218.4</ele>
        <time>2014-12-07T09:05:05Z</time>
      </trkpt>
      <trkpt lat="41.221260" lon="1.415620">
        <ele>218.8</ele>
        <time>2014-12-07T09:05:06Z</time>
      </trkpt>
      <trkpt lat="41.221272" lon="1.415582">
        <ele>219.2</ele>
        <time>2014-12-07T09:05:07Z</time>
      </trkpt>
      <trkpt lat="41.221287" lon="1.415543">
        <ele>219.8</ele>
        <time>2014-12-07T09:05:08Z</time>
      </trkpt>
      <trkpt lat="41.221306" lon="1.415498">
        <ele>220.2</ele>
        <time>2014-12-07T09:05:09Z</time>
      </trkpt>
      <trkpt lat="41.221329" lon="1.415470">
        <ele>220.6</ele>
        <time>2014-12-07T09:05:10Z</time>
      </trkpt>
      <trkpt lat="41.221363" lon="1.415439">
        <ele>221.2</ele>
        <time>2014-12-07T09:05:11Z</time>
      </trkpt>
      <trkpt lat="41.221390" lon="1.415401">
        <ele>221.6</ele>
        <time>2014-12-07T09:05:12Z</time>
      </trkpt>
      <trkpt lat="41.221439" lon="1.415290">
        <ele>221.6</ele>
        <time>2014-12-07T09:05:15Z</time>
      </trkpt>
      <trkpt lat="41.221458" lon="1.415259">
        <ele>222.0</ele>
        <time>2014-12-07T09:05:16Z</time>
      </trkpt>
      <trkpt lat="41.221489" lon="1.415243">
        <ele>222.4</ele>
        <time>2014-12-07T09:05:17Z</time>
      </trkpt>
      <trkpt lat="41.221508" lon="1.415209">
        <ele>223.0</ele>
        <time>2014-12-07T09:05:18Z</time>
      </trkpt>
      <trkpt lat="41.221527" lon="1.415190">
        <ele>223.4</ele>
        <time>2014-12-07T09:05:19Z</time>
      </trkpt>
      <trkpt lat="41.221561" lon="1.415191">
        <ele>223.8</ele>
        <time>2014-12-07T09:05:20Z</time>
      </trkpt>
      <trkpt lat="41.221619" lon="1.415187">
        <ele>224.2</ele>
        <time>2014-12-07T09:05:22Z</time>
      </trkpt>
      <trkpt lat="41.221649" lon="1.415190">
        <ele>224.6</ele>
        <time>2014-12-07T09:05:23Z</time>
      </trkpt>
      <trkpt lat="41.221680" lon="1.415193">
        <ele>225.2</ele>
        <time>2014-12-07T09:05:24Z</time>
      </trkpt>
      <trkpt lat="41.221710" lon="1.415207">
        <ele>225.6</ele>
        <time>2014-12-07T09:05:25Z</time>
      </trkpt>
      <trkpt lat="41.221748" lon="1.415212">
        <ele>226.0</ele>
        <time>2014-12-07T09:05:26Z</time>
      </trkpt>
      <trkpt lat="41.221817" lon="1.415221">
        <ele>226.6</ele>
        <time>2014-12-07T09:05:28Z</time>
      </trkpt>
      <trkpt lat="41.221851" lon="1.415230">
        <ele>227.0</ele>
        <time>2014-12-07T09:05:29Z</time>
      </trkpt>
      <trkpt lat="41.221882" lon="1.415243">
        <ele>227.4</ele>
        <time>2014-12-07T09:05:30Z</time>
      </trkpt>
      <trkpt lat="41.221909" lon="1.415260">
        <ele>227.8</ele>
        <time>2014-12-07T09:05:31Z</time>
      </trkpt>
      <trkpt lat="41.221935" lon="1.415271">
        <ele>228.4</ele>
        <time>2014-12-07T09:05:32Z</time>
      </trkpt>
      <trkpt lat="41.222019" lon="1.415360">
        <ele>228.4</ele>
        <time>2014-12-07T09:05:35Z</time>
      </trkpt>
      <trkpt lat="41.222042" lon="1.415408">
        <ele>228.4</ele>
        <time>2014-12-07T09:05:36Z</time>
      </trkpt>
      <trkpt lat="41.222107" lon="1.415502">
        <ele>228.4</ele>
        <time>2014-12-07T09:05:38Z</time>
      </trkpt>
      <trkpt lat="41.222157" lon="1.415527">
        <ele>228.4</ele>
        <time>2014-12-07T09:05:39Z</time>
      </trkpt>
      <trkpt lat="41.222290" lon="1.415540">
        <ele>227.8</ele>
        <time>2014-12-07T09:05:41Z</time>
      </trkpt>
      <trkpt lat="41.222378" lon="1.415519">
        <ele>227.4</ele>
        <time>2014-12-07T09:05:42Z</time>
      </trkpt>
      <trkpt lat="41.222462" lon="1.415496">
        <ele>226.8</ele>
        <time>2014-12-07T09:05:43Z</time>
      </trkpt>
      <trkpt lat="41.222538" lon="1.415474">
        <ele>226.4</ele>
        <time>2014-12-07T09:05:44Z</time>
      </trkpt>
      <trkpt lat="41.222614" lon="1.415456">
        <ele>225.8</ele>
        <time>2014-12-07T09:05:45Z</time>
      </trkpt>
      <trkpt lat="41.222687" lon="1.415447">
        <ele>225.8</ele>
        <time>2014-12-07T09:05:46Z</time>
      </trkpt>
      <trkpt lat="41.222813" lon="1.415481">
        <ele>225.8</ele>
        <time>2014-12-07T09:05:48Z</time>
      </trkpt>
      <trkpt lat="41.222900" lon="1.415572">
        <ele>225.8</ele>
        <time>2014-12-07T09:05:50Z</time>
      </trkpt>
      <trkpt lat="41.222992" lon="1.415671">
        <ele>225.8</ele>
        <time>2014-12-07T09:05:52Z</time>
      </trkpt>
      <trkpt lat="41.223103" lon="1.415773">
        <ele>225.4</ele>
        <time>2014-12-07T09:05:54Z</time>
      </trkpt>
      <trkpt lat="41.223160" lon="1.415813">
        <ele>225.0</ele>
        <time>2014-12-07T09:05:55Z</time>
      </trkpt>
      <trkpt lat="41.223221" lon="1.415850">
        <ele>224.6</ele>
        <time>2014-12-07T09:05:56Z</time>
      </trkpt>
      <trkpt lat="41.223286" lon="1.415874">
        <ele>224.0</ele>
        <time>2014-12-07T09:05:57Z</time>
      </trkpt>
      <trkpt lat="41.223343" lon="1.415902">
        <ele>223.6</ele>
        <time>2014-12-07T09:05:58Z</time>
      </trkpt>
      <trkpt lat="41.223392" lon="1.415938">
        <ele>223.6</ele>
        <time>2014-12-07T09:05:59Z</time>
      </trkpt>
      <trkpt lat="41.223530" lon="1.416084">
        <ele>223.6</ele>
        <time>2014-12-07T09:06:02Z</time>
      </trkpt>
      <trkpt lat="41.223618" lon="1.416205">
        <ele>223.6</ele>
        <time>2014-12-07T09:06:04Z</time>
      </trkpt>
      <trkpt lat="41.223671" lon="1.416266">
        <ele>223.6</ele>
        <time>2014-12-07T09:06:05Z</time>
      </trkpt>
      <trkpt lat="41.223804" lon="1.416426">
        <ele>223.6</ele>
        <time>2014-12-07T09:06:08Z</time>
      </trkpt>
      <trkpt lat="41.223835" lon="1.416718">
        <ele>223.6</ele>
        <time>2014-12-07T09:06:12Z</time>
      </trkpt>
      <trkpt lat="41.223816" lon="1.416866">
        <ele>223.6</ele>
        <time>2014-12-07T09:06:14Z</time>
      </trkpt>
      <trkpt lat="41.223804" lon="1.416951">
        <ele>223.2</ele>
        <time>2014-12-07T09:06:15Z</time>
      </trkpt>
      <trkpt lat="41.223793" lon="1.417040">
        <ele>222.8</ele>
        <time>2014-12-07T09:06:16Z</time>
      </trkpt>
      <trkpt lat="41.223793" lon="1.417137">
        <ele>222.2</ele>
        <time>2014-12-07T09:06:17Z</time>
      </trkpt>
      <trkpt lat="41.223801" lon="1.417235">
        <ele>221.8</ele>
        <time>2014-12-07T09:06:18Z</time>
      </trkpt>
      <trkpt lat="41.223820" lon="1.417331">
        <ele>221.4</ele>
        <time>2014-12-07T09:06:19Z</time>
      </trkpt>
      <trkpt lat="41.223843" lon="1.417425">
        <ele>221.0</ele>
        <time>2014-12-07T09:06:20Z</time>
      </trkpt>
      <trkpt lat="41.223869" lon="1.417504">
        <ele>220.4</ele>
        <time>2014-12-07T09:06:21Z</time>
      </trkpt>
      <trkpt lat="41.223907" lon="1.417581">
        <ele>220.0</ele>
        <time>2014-12-07T09:06:22Z</time>
      </trkpt>
      <trkpt lat="41.223938" lon="1.417660">
        <ele>219.6</ele>
        <time>2014-12-07T09:06:23Z</time>
      </trkpt>
      <trkpt lat="41.223965" lon="1.417737">
        <ele>219.2</ele>
        <time>2014-12-07T09:06:24Z</time>
      </trkpt>
      <trkpt lat="41.224110" lon="1.418164">
        <ele>219.2</ele>
        <time>2014-12-07T09:06:29Z</time>
      </trkpt>
      <trkpt lat="41.224140" lon="1.418251">
        <ele>218.6</ele>
        <time>2014-12-07T09:06:30Z</time>
      </trkpt>
      <trkpt lat="41.224167" lon="1.418334">
        <ele>218.2</ele>
        <time>2014-12-07T09:06:31Z</time>
      </trkpt>
      <trkpt lat="41.224201" lon="1.418412">
        <ele>217.8</ele>
        <time>2014-12-07T09:06:32Z</time>
      </trkpt>
      <trkpt lat="41.224236" lon="1.418473">
        <ele>217.2</ele>
        <time>2014-12-07T09:06:33Z</time>
      </trkpt>
      <trkpt lat="41.224274" lon="1.418519">
        <ele>216.8</ele>
        <time>2014-12-07T09:06:34Z</time>
      </trkpt>
      <trkpt lat="41.224377" lon="1.418580">
        <ele>216.4</ele>
        <time>2014-12-07T09:06:36Z</time>
      </trkpt>
      <trkpt lat="41.224434" lon="1.418606">
        <ele>216.0</ele>
        <time>2014-12-07T09:06:37Z</time>
      </trkpt>
      <trkpt lat="41.224491" lon="1.418631">
        <ele>215.6</ele>
        <time>2014-12-07T09:06:38Z</time>
      </trkpt>
      <trkpt lat="41.224548" lon="1.418652">
        <ele>215.2</ele>
        <time>2014-12-07T09:06:39Z</time>
      </trkpt>
      <trkpt lat="41.224613" lon="1.418661">
        <ele>214.8</ele>
        <time>2014-12-07T09:06:40Z</time>
      </trkpt>
      <trkpt lat="41.224674" lon="1.418660">
        <ele>214.8</ele>
        <time>2014-12-07T09:06:41Z</time>
      </trkpt>
      <trkpt lat="41.224735" lon="1.418653">
        <ele>214.8</ele>
        <time>2014-12-07T09:06:42Z</time>
      </trkpt>
      <trkpt lat="41.224915" lon="1.418582">
        <ele>214.8</ele>
        <time>2014-12-07T09:06:45Z</time>
      </trkpt>
      <trkpt lat="41.225010" lon="1.418499">
        <ele>214.8</ele>
        <time>2014-12-07T09:06:47Z</time>
      </trkpt>
      <trkpt lat="41.225052" lon="1.418466">
        <ele>214.8</ele>
        <time>2014-12-07T09:06:48Z</time>
      </trkpt>
      <trkpt lat="41.225109" lon="1.418453">
        <ele>214.4</ele>
        <time>2014-12-07T09:06:49Z</time>
      </trkpt>
      <trkpt lat="41.225163" lon="1.418457">
        <ele>213.8</ele>
        <time>2014-12-07T09:06:50Z</time>
      </trkpt>
      <trkpt lat="41.225216" lon="1.418484">
        <ele>213.4</ele>
        <time>2014-12-07T09:06:51Z</time>
      </trkpt>
      <trkpt lat="41.225281" lon="1.418541">
        <ele>212.8</ele>
        <time>2014-12-07T09:06:52Z</time>
      </trkpt>
      <trkpt lat="41.225334" lon="1.418609">
        <ele>212.2</ele>
        <time>2014-12-07T09:06:53Z</time>
      </trkpt>
      <trkpt lat="41.225372" lon="1.418690">
        <ele>210.8</ele>
        <time>2014-12-07T09:06:54Z</time>
      </trkpt>
      <trkpt lat="41.225407" lon="1.418782">
        <ele>210.0</ele>
        <time>2014-12-07T09:06:55Z</time>
      </trkpt>
      <trkpt lat="41.225433" lon="1.418874">
        <ele>209.4</ele>
        <time>2014-12-07T09:06:56Z</time>
      </trkpt>
      <trkpt lat="41.225460" lon="1.418970">
        <ele>208.6</ele>
        <time>2014-12-07T09:06:57Z</time>
      </trkpt>
      <trkpt lat="41.225491" lon="1.419067">
        <ele>207.8</ele>
        <time>2014-12-07T09:06:58Z</time>
      </trkpt>
      <trkpt lat="41.225533" lon="1.419145">
        <ele>207.2</ele>
        <time>2014-12-07T09:06:59Z</time>
      </trkpt>
      <trkpt lat="41.225582" lon="1.419207">
        <ele>206.8</ele>
        <time>2014-12-07T09:07:00Z</time>
      </trkpt>
      <trkpt lat="41.225636" lon="1.419250">
        <ele>206.2</ele>
        <time>2014-12-07T09:07:01Z</time>
      </trkpt>
      <trkpt lat="41.225693" lon="1.419275">
        <ele>205.6</ele>
        <time>2014-12-07T09:07:02Z</time>
      </trkpt>
      <trkpt lat="41.225750" lon="1.419278">
        <ele>205.0</ele>
        <time>2014-12-07T09:07:03Z</time>
      </trkpt>
      <trkpt lat="41.225857" lon="1.419223">
        <ele>205.0</ele>
        <time>2014-12-07T09:07:05Z</time>
      </trkpt>
      <trkpt lat="41.225994" lon="1.419039">
        <ele>205.0</ele>
        <time>2014-12-07T09:07:08Z</time>
      </trkpt>
      <trkpt lat="41.226036" lon="1.418966">
        <ele>205.0</ele>
        <time>2014-12-07T09:07:09Z</time>
      </trkpt>
      <trkpt lat="41.226120" lon="1.418832">
        <ele>204.6</ele>
        <time>2014-12-07T09:07:11Z</time>
      </trkpt>
      <trkpt lat="41.226173" lon="1.418777">
        <ele>204.2</ele>
        <time>2014-12-07T09:07:12Z</time>
      </trkpt>
      <trkpt lat="41.226227" lon="1.418724">
        <ele>203.6</ele>
        <time>2014-12-07T09:07:13Z</time>
      </trkpt>
      <trkpt lat="41.226276" lon="1.418667">
        <ele>203.2</ele>
        <time>2014-12-07T09:07:14Z</time>
      </trkpt>
      <trkpt lat="41.226326" lon="1.418608">
        <ele>202.6</ele>
        <time>2014-12-07T09:07:15Z</time>
      </trkpt>
      <trkpt lat="41.226418" lon="1.418478">
        <ele>202.6</ele>
        <time>2014-12-07T09:07:17Z</time>
      </trkpt>
      <trkpt lat="41.226460" lon="1.418402">
        <ele>202.6</ele>
        <time>2014-12-07T09:07:18Z</time>
      </trkpt>
      <trkpt lat="41.226505" lon="1.418326">
        <ele>202.2</ele>
        <time>2014-12-07T09:07:19Z</time>
      </trkpt>
      <trkpt lat="41.226563" lon="1.418256">
        <ele>201.8</ele>
        <time>2014-12-07T09:07:20Z</time>
      </trkpt>
      <trkpt lat="41.226616" lon="1.418194">
        <ele>201.4</ele>
        <time>2014-12-07T09:07:21Z</time>
      </trkpt>
      <trkpt lat="41.226669" lon="1.418136">
        <ele>200.8</ele>
        <time>2014-12-07T09:07:22Z</time>
      </trkpt>
      <trkpt lat="41.226730" lon="1.418086">
        <ele>200.4</ele>
        <time>2014-12-07T09:07:23Z</time>
      </trkpt>
      <trkpt lat="41.226852" lon="1.418011">
        <ele>199.8</ele>
        <time>2014-12-07T09:07:25Z</time>
      </trkpt>
      <trkpt lat="41.226917" lon="1.417984">
        <ele>199.4</ele>
        <time>2014-12-07T09:07:26Z</time>
      </trkpt>
      <trkpt lat="41.226982" lon="1.417961">
        <ele>198.8</ele>
        <time>2014-12-07T09:07:27Z</time>
      </trkpt>
      <trkpt lat="41.227051" lon="1.417928">
        <ele>198.4</ele>
        <time>2014-12-07T09:07:28Z</time>
      </trkpt>
      <trkpt lat="41.227104" lon="1.417879">
        <ele>197.8</ele>
        <time>2014-12-07T09:07:29Z</time>
      </trkpt>
      <trkpt lat="41.227158" lon="1.417823">
        <ele>197.8</ele>
        <time>2014-12-07T09:07:30Z</time>
      </trkpt>
      <trkpt lat="41.227264" lon="1.417737">
        <ele>197.8</ele>
        <time>2014-12-07T09:07:32Z</time>
      </trkpt>
      <trkpt lat="41.227375" lon="1.417726">
        <ele>197.8</ele>
        <time>2014-12-07T09:07:34Z</time>
      </trkpt>
      <trkpt lat="41.227474" lon="1.417767">
        <ele>197.8</ele>
        <time>2014-12-07T09:07:36Z</time>
      </trkpt>
      <trkpt lat="41.227566" lon="1.417823">
        <ele>197.8</ele>
        <time>2014-12-07T09:07:38Z</time>
      </trkpt>
      <trkpt lat="41.227612" lon="1.417860">
        <ele>197.8</ele>
        <time>2014-12-07T09:07:39Z</time>
      </trkpt>
      <trkpt lat="41.227692" lon="1.417923">
        <ele>197.8</ele>
        <time>2014-12-07T09:07:41Z</time>
      </trkpt>
      <trkpt lat="41.227818" lon="1.417992">
        <ele>197.8</ele>
        <time>2014-12-07T09:07:44Z</time>
      </trkpt>
      <trkpt lat="41.227859" lon="1.418020">
        <ele>197.8</ele>
        <time>2014-12-07T09:07:45Z</time>
      </trkpt>
      <trkpt lat="41.227894" lon="1.418053">
        <ele>197.8</ele>
        <time>2014-12-07T09:07:46Z</time>
      </trkpt>
      <trkpt lat="41.227955" lon="1.418055">
        <ele>197.8</ele>
        <time>2014-12-07T09:07:48Z</time>
      </trkpt>
      <trkpt lat="41.228008" lon="1.417994">
        <ele>197.8</ele>
        <time>2014-12-07T09:07:50Z</time>
      </trkpt>
      <trkpt lat="41.228031" lon="1.417951">
        <ele>197.8</ele>
        <time>2014-12-07T09:07:52Z</time>
      </trkpt>
      <trkpt lat="41.228127" lon="1.417777">
        <ele>197.4</ele>
        <time>2014-12-07T09:07:57Z</time>
      </trkpt>
      <trkpt lat="41.228142" lon="1.417747">
        <ele>197.0</ele>
        <time>2014-12-07T09:07:58Z</time>
      </trkpt>
      <trkpt lat="41.228161" lon="1.417718">
        <ele>196.6</ele>
        <time>2014-12-07T09:07:59Z</time>
      </trkpt>
      <trkpt lat="41.228176" lon="1.417692">
        <ele>196.2</ele>
        <time>2014-12-07T09:08:00Z</time>
      </trkpt>
      <trkpt lat="41.228191" lon="1.417673">
        <ele>195.8</ele>
        <time>2014-12-07T09:08:01Z</time>
      </trkpt>
      <trkpt lat="41.228203" lon="1.417656">
        <ele>195.8</ele>
        <time>2014-12-07T09:08:02Z</time>
      </trkpt>
      <trkpt lat="41.228271" lon="1.417540">
        <ele>195.8</ele>
        <time>2014-12-07T09:08:07Z</time>
      </trkpt>
      <trkpt lat="41.228329" lon="1.417469">
        <ele>195.4</ele>
        <time>2014-12-07T09:08:10Z</time>
      </trkpt>
      <trkpt lat="41.228348" lon="1.417440">
        <ele>194.8</ele>
        <time>2014-12-07T09:08:11Z</time>
      </trkpt>
      <trkpt lat="41.228367" lon="1.417410">
        <ele>194.4</ele>
        <time>2014-12-07T09:08:12Z</time>
      </trkpt>
      <trkpt lat="41.228386" lon="1.417378">
        <ele>194.0</ele>
        <time>2014-12-07T09:08:13Z</time>
      </trkpt>
      <trkpt lat="41.228405" lon="1.417347">
        <ele>193.6</ele>
        <time>2014-12-07T09:08:14Z</time>
      </trkpt>
      <trkpt lat="41.228458" lon="1.417242">
        <ele>193.6</ele>
        <time>2014-12-07T09:08:18Z</time>
      </trkpt>
      <trkpt lat="41.228554" lon="1.417084">
        <ele>193.2</ele>
        <time>2014-12-07T09:08:22Z</time>
      </trkpt>
      <trkpt lat="41.228577" lon="1.417023">
        <ele>192.8</ele>
        <time>2014-12-07T09:08:23Z</time>
      </trkpt>
      <trkpt lat="41.228603" lon="1.416961">
        <ele>192.4</ele>
        <time>2014-12-07T09:08:24Z</time>
      </trkpt>
      <trkpt lat="41.228622" lon="1.416897">
        <ele>192.0</ele>
        <time>2014-12-07T09:08:25Z</time>
      </trkpt>
      <trkpt lat="41.228645" lon="1.416833">
        <ele>191.6</ele>
        <time>2014-12-07T09:08:26Z</time>
      </trkpt>
      <trkpt lat="41.228668" lon="1.416762">
        <ele>191.6</ele>
        <time>2014-12-07T09:08:27Z</time>
      </trkpt>
      <trkpt lat="41.228756" lon="1.416559">
        <ele>191.6</ele>
        <time>2014-12-07T09:08:30Z</time>
      </trkpt>
      <trkpt lat="41.228802" lon="1.416432">
        <ele>191.6</ele>
        <time>2014-12-07T09:08:32Z</time>
      </trkpt>
      <trkpt lat="41.228821" lon="1.416366">
        <ele>190.6</ele>
        <time>2014-12-07T09:08:33Z</time>
      </trkpt>
      <trkpt lat="41.228840" lon="1.416297">
        <ele>190.0</ele>
        <time>2014-12-07T09:08:34Z</time>
      </trkpt>
      <trkpt lat="41.228867" lon="1.416222">
        <ele>189.6</ele>
        <time>2014-12-07T09:08:35Z</time>
      </trkpt>
      <trkpt lat="41.228889" lon="1.416153">
        <ele>189.2</ele>
        <time>2014-12-07T09:08:36Z</time>
      </trkpt>
      <trkpt lat="41.228939" lon="1.416023">
        <ele>189.2</ele>
        <time>2014-12-07T09:08:38Z</time>
      </trkpt>
      <trkpt lat="41.228992" lon="1.415892">
        <ele>188.8</ele>
        <time>2014-12-07T09:08:40Z</time>
      </trkpt>
      <trkpt lat="41.229027" lon="1.415830">
        <ele>188.4</ele>
        <time>2014-12-07T09:08:41Z</time>
      </trkpt>
      <trkpt lat="41.229065" lon="1.415767">
        <ele>188.0</ele>
        <time>2014-12-07T09:08:42Z</time>
      </trkpt>
      <trkpt lat="41.229111" lon="1.415714">
        <ele>187.6</ele>
        <time>2014-12-07T09:08:43Z</time>
      </trkpt>
      <trkpt lat="41.229160" lon="1.415666">
        <ele>186.8</ele>
        <time>2014-12-07T09:08:44Z</time>
      </trkpt>
      <trkpt lat="41.229210" lon="1.415621">
        <ele>186.2</ele>
        <time>2014-12-07T09:08:45Z</time>
      </trkpt>
      <trkpt lat="41.229259" lon="1.415580">
        <ele>185.4</ele>
        <time>2014-12-07T09:08:46Z</time>
      </trkpt>
      <trkpt lat="41.229313" lon="1.415545">
        <ele>184.8</ele>
        <time>2014-12-07T09:08:47Z</time>
      </trkpt>
      <trkpt lat="41.229362" lon="1.415517">
        <ele>184.0</ele>
        <time>2014-12-07T09:08:48Z</time>
      </trkpt>
      <trkpt lat="41.229408" lon="1.415496">
        <ele>184.0</ele>
        <time>2014-12-07T09:08:49Z</time>
      </trkpt>
      <trkpt lat="41.229553" lon="1.415444">
        <ele>184.0</ele>
        <time>2014-12-07T09:08:53Z</time>
      </trkpt>
      <trkpt lat="41.229614" lon="1.415457">
        <ele>184.0</ele>
        <time>2014-12-07T09:08:55Z</time>
      </trkpt>
      <trkpt lat="41.229633" lon="1.415474">
        <ele>184.0</ele>
        <time>2014-12-07T09:08:56Z</time>
      </trkpt>
      <trkpt lat="41.229744" lon="1.415580">
        <ele>184.0</ele>
        <time>2014-12-07T09:09:02Z</time>
      </trkpt>
      <trkpt lat="41.229828" lon="1.415690">
        <ele>184.0</ele>
        <time>2014-12-07T09:09:07Z</time>
      </trkpt>
      <trkpt lat="41.229935" lon="1.415715">
        <ele>184.0</ele>
        <time>2014-12-07T09:09:12Z</time>
      </trkpt>
      <trkpt lat="41.230011" lon="1.415705">
        <ele>184.4</ele>
        <time>2014-12-07T09:09:15Z</time>
      </trkpt>
      <trkpt lat="41.230030" lon="1.415704">
        <ele>185.0</ele>
        <time>2014-12-07T09:09:16Z</time>
      </trkpt>
      <trkpt lat="41.230057" lon="1.415715">
        <ele>185.4</ele>
        <time>2014-12-07T09:09:17Z</time>
      </trkpt>
      <trkpt lat="41.230076" lon="1.415735">
        <ele>185.8</ele>
        <time>2014-12-07T09:09:18Z</time>
      </trkpt>
      <trkpt lat="41.230095" lon="1.415755">
        <ele>186.2</ele>
        <time>2014-12-07T09:09:19Z</time>
      </trkpt>
      <trkpt lat="41.230160" lon="1.415817">
        <ele>187.0</ele>
        <time>2014-12-07T09:09:22Z</time>
      </trkpt>
      <trkpt lat="41.230186" lon="1.415829">
        <ele>187.4</ele>
        <time>2014-12-07T09:09:23Z</time>
      </trkpt>
      <trkpt lat="41.230209" lon="1.415832">
        <ele>187.8</ele>
        <time>2014-12-07T09:09:24Z</time>
      </trkpt>
      <trkpt lat="41.230232" lon="1.415828">
        <ele>188.2</ele>
        <time>2014-12-07T09:09:25Z</time>
      </trkpt>
      <trkpt lat="41.230259" lon="1.415814">
        <ele>188.2</ele>
        <time>2014-12-07T09:09:26Z</time>
      </trkpt>
      <trkpt lat="41.230320" lon="1.415784">
        <ele>188.2</ele>
        <time>2014-12-07T09:09:28Z</time>
      </trkpt>
      <trkpt lat="41.230461" lon="1.415706">
        <ele>188.2</ele>
        <time>2014-12-07T09:09:32Z</time>
      </trkpt>
      <trkpt lat="41.230640" lon="1.415630">
        <ele>188.2</ele>
        <time>2014-12-07T09:09:37Z</time>
      </trkpt>
      <trkpt lat="41.230789" lon="1.415562">
        <ele>188.2</ele>
        <time>2014-12-07T09:09:41Z</time>
      </trkpt>
      <trkpt lat="41.231007" lon="1.415419">
        <ele>188.2</ele>
        <time>2014-12-07T09:09:45Z</time>
      </trkpt>
      <trkpt lat="41.231171" lon="1.415330">
        <ele>187.8</ele>
        <time>2014-12-07T09:09:48Z</time>
      </trkpt>
      <trkpt lat="41.231220" lon="1.415284">
        <ele>187.4</ele>
        <time>2014-12-07T09:09:49Z</time>
      </trkpt>
      <trkpt lat="41.231270" lon="1.415225">
        <ele>187.0</ele>
        <time>2014-12-07T09:09:50Z</time>
      </trkpt>
      <trkpt lat="41.231319" lon="1.415164">
        <ele>186.6</ele>
        <time>2014-12-07T09:09:51Z</time>
      </trkpt>
      <trkpt lat="41.231358" lon="1.415104">
        <ele>186.0</ele>
        <time>2014-12-07T09:09:52Z</time>
      </trkpt>
      <trkpt lat="41.231396" lon="1.415049">
        <ele>185.4</ele>
        <time>2014-12-07T09:09:53Z</time>
      </trkpt>
      <trkpt lat="41.231434" lon="1.415021">
        <ele>184.8</ele>
        <time>2014-12-07T09:09:54Z</time>
      </trkpt>
      <trkpt lat="41.231476" lon="1.415014">
        <ele>184.2</ele>
        <time>2014-12-07T09:09:55Z</time>
      </trkpt>
      <trkpt lat="41.231522" lon="1.415010">
        <ele>183.6</ele>
        <time>2014-12-07T09:09:56Z</time>
      </trkpt>
      <trkpt lat="41.231571" lon="1.415001">
        <ele>183.6</ele>
        <time>2014-12-07T09:09:57Z</time>
      </trkpt>
      <trkpt lat="41.231621" lon="1.414981">
        <ele>183.6</ele>
        <time>2014-12-07T09:09:58Z</time>
      </trkpt>
      <trkpt lat="41.231731" lon="1.414848">
        <ele>183.2</ele>
        <time>2014-12-07T09:10:01Z</time>
      </trkpt>
      <trkpt lat="41.231762" lon="1.414795">
        <ele>182.8</ele>
        <time>2014-12-07T09:10:02Z</time>
      </trkpt>
      <trkpt lat="41.231792" lon="1.414740">
        <ele>182.2</ele>
        <time>2014-12-07T09:10:03Z</time>
      </trkpt>
      <trkpt lat="41.231831" lon="1.414680">
        <ele>181.8</ele>
        <time>2014-12-07T09:10:04Z</time>
      </trkpt>
      <trkpt lat="41.231861" lon="1.414609">
        <ele>181.4</ele>
        <time>2014-12-07T09:10:05Z</time>
      </trkpt>
      <trkpt lat="41.231915" lon="1.414468">
        <ele>181.4</ele>
        <time>2014-12-07T09:10:07Z</time>
      </trkpt>
      <trkpt lat="41.232018" lon="1.414336">
        <ele>181.4</ele>
        <time>2014-12-07T09:10:10Z</time>
      </trkpt>
      <trkpt lat="41.232147" lon="1.414362">
        <ele>180.8</ele>
        <time>2014-12-07T09:10:13Z</time>
      </trkpt>
      <trkpt lat="41.232182" lon="1.414396">
        <ele>180.4</ele>
        <time>2014-12-07T09:10:14Z</time>
      </trkpt>
      <trkpt lat="41.232208" lon="1.414443">
        <ele>179.8</ele>
        <time>2014-12-07T09:10:15Z</time>
      </trkpt>
      <trkpt lat="41.232227" lon="1.414502">
        <ele>179.4</ele>
        <time>2014-12-07T09:10:16Z</time>
      </trkpt>
      <trkpt lat="41.232239" lon="1.414564">
        <ele>178.8</ele>
        <time>2014-12-07T09:10:17Z</time>
      </trkpt>
      <trkpt lat="41.232262" lon="1.414629">
        <ele>178.8</ele>
        <time>2014-12-07T09:10:18Z</time>
      </trkpt>
      <trkpt lat="41.232315" lon="1.414772">
        <ele>178.8</ele>
        <time>2014-12-07T09:10:20Z</time>
      </trkpt>
      <trkpt lat="41.232437" lon="1.414926">
        <ele>178.8</ele>
        <time>2014-12-07T09:10:23Z</time>
      </trkpt>
      <trkpt lat="41.232491" lon="1.414959">
        <ele>178.8</ele>
        <time>2014-12-07T09:10:24Z</time>
      </trkpt>
      <trkpt lat="41.232544" lon="1.414994">
        <ele>178.8</ele>
        <time>2014-12-07T09:10:25Z</time>
      </trkpt>
      <trkpt lat="41.232594" lon="1.415025">
        <ele>178.4</ele>
        <time>2014-12-07T09:10:26Z</time>
      </trkpt>
      <trkpt lat="41.232643" lon="1.415056">
        <ele>178.0</ele>
        <time>2014-12-07T09:10:27Z</time>
      </trkpt>
      <trkpt lat="41.232689" lon="1.415079">
        <ele>177.6</ele>
        <time>2014-12-07T09:10:28Z</time>
      </trkpt>
      <trkpt lat="41.232735" lon="1.415099">
        <ele>177.2</ele>
        <time>2014-12-07T09:10:29Z</time>
      </trkpt>
      <trkpt lat="41.232777" lon="1.415122">
        <ele>176.6</ele>
        <time>2014-12-07T09:10:30Z</time>
      </trkpt>
      <trkpt lat="41.232998" lon="1.415253">
        <ele>176.6</ele>
        <time>2014-12-07T09:10:35Z</time>
      </trkpt>
      <trkpt lat="41.233040" lon="1.415277">
        <ele>176.6</ele>
        <time>2014-12-07T09:10:36Z</time>
      </trkpt>
      <trkpt lat="41.233192" lon="1.415365">
        <ele>176.6</ele>
        <time>2014-12-07T09:10:40Z</time>
      </trkpt>
      <trkpt lat="41.233360" lon="1.415414">
        <ele>176.6</ele>
        <time>2014-12-07T09:10:44Z</time>
      </trkpt>
      <trkpt lat="41.233398" lon="1.415434">
        <ele>176.6</ele>
        <time>2014-12-07T09:10:45Z</time>
      </trkpt>
      <trkpt lat="41.233578" lon="1.415491">
        <ele>176.6</ele>
        <time>2014-12-07T09:10:50Z</time>
      </trkpt>
      <trkpt lat="41.233677" lon="1.415481">
        <ele>177.0</ele>
        <time>2014-12-07T09:10:53Z</time>
      </trkpt>
      <trkpt lat="41.233707" lon="1.415480">
        <ele>177.6</ele>
        <time>2014-12-07T09:10:54Z</time>
      </trkpt>
      <trkpt lat="41.233742" lon="1.415479">
        <ele>178.0</ele>
        <time>2014-12-07T09:10:55Z</time>
      </trkpt>
      <trkpt lat="41.233776" lon="1.415481">
        <ele>178.4</ele>
        <time>2014-12-07T09:10:56Z</time>
      </trkpt>
      <trkpt lat="41.233814" lon="1.415484">
        <ele>178.8</ele>
        <time>2014-12-07T09:10:57Z</time>
      </trkpt>
      <trkpt lat="41.233921" lon="1.415514">
        <ele>178.8</ele>
        <time>2014-12-07T09:11:00Z</time>
      </trkpt>
      <trkpt lat="41.234116" lon="1.415577">
        <ele>178.8</ele>
        <time>2014-12-07T09:11:05Z</time>
      </trkpt>
      <trkpt lat="41.234241" lon="1.415637">
        <ele>178.8</ele>
        <time>2014-12-07T09:11:08Z</time>
      </trkpt>
      <trkpt lat="41.234333" lon="1.415659">
        <ele>178.8</ele>
        <time>2014-12-07T09:11:10Z</time>
      </trkpt>
      <trkpt lat="41.234474" lon="1.415684">
        <ele>178.8</ele>
        <time>2014-12-07T09:11:13Z</time>
      </trkpt>
      <trkpt lat="41.234558" lon="1.415711">
        <ele>178.8</ele>
        <time>2014-12-07T09:11:15Z</time>
      </trkpt>
      <trkpt lat="41.234650" lon="1.415739">
        <ele>178.8</ele>
        <time>2014-12-07T09:11:17Z</time>
      </trkpt>
      <trkpt lat="41.234802" lon="1.415785">
        <ele>178.8</ele>
        <time>2014-12-07T09:11:20Z</time>
      </trkpt>
      <trkpt lat="41.234955" lon="1.415814">
        <ele>178.8</ele>
        <time>2014-12-07T09:11:23Z</time>
      </trkpt>
      <trkpt lat="41.235001" lon="1.415831">
        <ele>178.4</ele>
        <time>2014-12-07T09:11:24Z</time>
      </trkpt>
      <trkpt lat="41.235050" lon="1.415853">
        <ele>177.6</ele>
        <time>2014-12-07T09:11:25Z</time>
      </trkpt>
      <trkpt lat="41.235100" lon="1.415872">
        <ele>177.2</ele>
        <time>2014-12-07T09:11:26Z</time>
      </trkpt>
      <trkpt lat="41.235146" lon="1.415884">
        <ele>176.8</ele>
        <time>2014-12-07T09:11:27Z</time>
      </trkpt>
      <trkpt lat="41.235291" lon="1.415903">
        <ele>176.8</ele>
        <time>2014-12-07T09:11:30Z</time>
      </trkpt>
      <trkpt lat="41.235474" lon="1.415931">
        <ele>176.8</ele>
        <time>2014-12-07T09:11:34Z</time>
      </trkpt>
      <trkpt lat="41.235546" lon="1.415920">
        <ele>176.2</ele>
        <time>2014-12-07T09:11:36Z</time>
      </trkpt>
      <trkpt lat="41.235580" lon="1.415907">
        <ele>175.8</ele>
        <time>2014-12-07T09:11:37Z</time>
      </trkpt>
      <trkpt lat="41.235615" lon="1.415891">
        <ele>175.4</ele>
        <time>2014-12-07T09:11:38Z</time>
      </trkpt>
      <trkpt lat="41.235653" lon="1.415872">
        <ele>174.8</ele>
        <time>2014-12-07T09:11:39Z</time>
      </trkpt>
      <trkpt lat="41.235687" lon="1.415849">
        <ele>174.4</ele>
        <time>2014-12-07T09:11:40Z</time>
      </trkpt>
      <trkpt lat="41.235874" lon="1.415744">
        <ele>174.4</ele>
        <time>2014-12-07T09:11:45Z</time>
      </trkpt>
      <trkpt lat="41.236084" lon="1.415634">
        <ele>174.4</ele>
        <time>2014-12-07T09:11:51Z</time>
      </trkpt>
      <trkpt lat="41.236210" lon="1.415516">
        <ele>174.4</ele>
        <time>2014-12-07T09:11:56Z</time>
      </trkpt>
      <trkpt lat="41.236305" lon="1.415441">
        <ele>174.8</ele>
        <time>2014-12-07T09:12:00Z</time>
      </trkpt>
      <trkpt lat="41.236332" lon="1.415429">
        <ele>175.2</ele>
        <time>2014-12-07T09:12:01Z</time>
      </trkpt>
      <trkpt lat="41.236362" lon="1.415422">
        <ele>175.6</ele>
        <time>2014-12-07T09:12:02Z</time>
      </trkpt>
      <trkpt lat="41.236393" lon="1.415415">
        <ele>176.0</ele>
        <time>2014-12-07T09:12:03Z</time>
      </trkpt>
      <trkpt lat="41.236416" lon="1.415404">
        <ele>176.6</ele>
        <time>2014-12-07T09:12:04Z</time>
      </trkpt>
      <trkpt lat="41.236435" lon="1.415382">
        <ele>176.6</ele>
        <time>2014-12-07T09:12:05Z</time>
      </trkpt>
      <trkpt lat="41.236458" lon="1.415366">
        <ele>176.6</ele>
        <time>2014-12-07T09:12:06Z</time>
      </trkpt>
      <trkpt lat="41.236500" lon="1.415368">
        <ele>176.6</ele>
        <time>2014-12-07T09:12:08Z</time>
      </trkpt>
      <trkpt lat="41.236546" lon="1.415433">
        <ele>176.6</ele>
        <time>2014-12-07T09:12:11Z</time>
      </trkpt>
      <trkpt lat="41.236561" lon="1.415463">
        <ele>176.6</ele>
        <time>2014-12-07T09:12:13Z</time>
      </trkpt>
      <trkpt lat="41.236565" lon="1.415469">
        <ele>176.6</ele>
        <time>2014-12-07T09:12:14Z</time>
      </trkpt>
      <trkpt lat="41.236572" lon="1.415485">
        <ele>176.6</ele>
        <time>2014-12-07T09:12:18Z</time>
      </trkpt>
      <trkpt lat="41.236580" lon="1.415505">
        <ele>176.6</ele>
        <time>2014-12-07T09:12:19Z</time>
      </trkpt>
      <trkpt lat="41.236629" lon="1.415674">
        <ele>176.6</ele>
        <time>2014-12-07T09:12:24Z</time>
      </trkpt>
      <trkpt lat="41.236717" lon="1.415894">
        <ele>177.0</ele>
        <time>2014-12-07T09:12:29Z</time>
      </trkpt>
      <trkpt lat="41.236725" lon="1.415941">
        <ele>177.4</ele>
        <time>2014-12-07T09:12:30Z</time>
      </trkpt>
      <trkpt lat="41.236732" lon="1.415987">
        <ele>177.8</ele>
        <time>2014-12-07T09:12:31Z</time>
      </trkpt>
      <trkpt lat="41.236736" lon="1.416032">
        <ele>178.2</ele>
        <time>2014-12-07T09:12:32Z</time>
      </trkpt>
      <trkpt lat="41.236744" lon="1.416078">
        <ele>178.6</ele>
        <time>2014-12-07T09:12:33Z</time>
      </trkpt>
      <trkpt lat="41.236782" lon="1.416159">
        <ele>178.6</ele>
        <time>2014-12-07T09:12:35Z</time>
      </trkpt>
      <trkpt lat="41.236908" lon="1.416338">
        <ele>178.6</ele>
        <time>2014-12-07T09:12:40Z</time>
      </trkpt>
      <trkpt lat="41.237095" lon="1.416421">
        <ele>178.6</ele>
        <time>2014-12-07T09:12:45Z</time>
      </trkpt>
      <trkpt lat="41.237232" lon="1.416529">
        <ele>179.0</ele>
        <time>2014-12-07T09:12:49Z</time>
      </trkpt>
      <trkpt lat="41.237267" lon="1.416560">
        <ele>179.4</ele>
        <time>2014-12-07T09:12:50Z</time>
      </trkpt>
      <trkpt lat="41.237297" lon="1.416586">
        <ele>179.8</ele>
        <time>2014-12-07T09:12:51Z</time>
      </trkpt>
      <trkpt lat="41.237328" lon="1.416617">
        <ele>180.2</ele>
        <time>2014-12-07T09:12:52Z</time>
      </trkpt>
      <trkpt lat="41.237350" lon="1.416648">
        <ele>180.6</ele>
        <time>2014-12-07T09:12:53Z</time>
      </trkpt>
      <trkpt lat="41.237377" lon="1.416680">
        <ele>180.6</ele>
        <time>2014-12-07T09:12:54Z</time>
      </trkpt>
      <trkpt lat="41.237469" lon="1.416771">
        <ele>180.6</ele>
        <time>2014-12-07T09:12:57Z</time>
      </trkpt>
      <trkpt lat="41.237541" lon="1.416824">
        <ele>180.6</ele>
        <time>2014-12-07T09:12:59Z</time>
      </trkpt>
      <trkpt lat="41.237801" lon="1.416987">
        <ele>180.6</ele>
        <time>2014-12-07T09:13:06Z</time>
      </trkpt>
      <trkpt lat="41.237991" lon="1.416971">
        <ele>180.6</ele>
        <time>2014-12-07T09:13:11Z</time>
      </trkpt>
      <trkpt lat="41.238136" lon="1.417015">
        <ele>181.0</ele>
        <time>2014-12-07T09:13:15Z</time>
      </trkpt>
      <trkpt lat="41.238174" lon="1.417028">
        <ele>181.4</ele>
        <time>2014-12-07T09:13:16Z</time>
      </trkpt>
      <trkpt lat="41.238216" lon="1.417036">
        <ele>181.8</ele>
        <time>2014-12-07T09:13:17Z</time>
      </trkpt>
      <trkpt lat="41.238255" lon="1.417037">
        <ele>182.2</ele>
        <time>2014-12-07T09:13:18Z</time>
      </trkpt>
      <trkpt lat="41.238289" lon="1.417032">
        <ele>182.6</ele>
        <time>2014-12-07T09:13:19Z</time>
      </trkpt>
      <trkpt lat="41.238331" lon="1.417017">
        <ele>182.6</ele>
        <time>2014-12-07T09:13:20Z</time>
      </trkpt>
      <trkpt lat="41.238586" lon="1.416926">
        <ele>182.6</ele>
        <time>2014-12-07T09:13:27Z</time>
      </trkpt>
      <trkpt lat="41.238731" lon="1.416889">
        <ele>182.6</ele>
        <time>2014-12-07T09:13:31Z</time>
      </trkpt>
      <trkpt lat="41.238777" lon="1.416895">
        <ele>182.6</ele>
        <time>2014-12-07T09:13:32Z</time>
      </trkpt>
      <trkpt lat="41.238861" lon="1.416904">
        <ele>182.6</ele>
        <time>2014-12-07T09:13:34Z</time>
      </trkpt>
      <trkpt lat="41.238941" lon="1.416867">
        <ele>182.6</ele>
        <time>2014-12-07T09:13:36Z</time>
      </trkpt>
      <trkpt lat="41.239002" lon="1.416801">
        <ele>182.6</ele>
        <time>2014-12-07T09:13:38Z</time>
      </trkpt>
      <trkpt lat="41.239090" lon="1.416720">
        <ele>182.6</ele>
        <time>2014-12-07T09:13:41Z</time>
      </trkpt>
      <trkpt lat="41.239189" lon="1.416743">
        <ele>182.6</ele>
        <time>2014-12-07T09:13:44Z</time>
      </trkpt>
      <trkpt lat="41.239258" lon="1.416737">
        <ele>183.0</ele>
        <time>2014-12-07T09:13:46Z</time>
      </trkpt>
      <trkpt lat="41.239296" lon="1.416713">
        <ele>183.4</ele>
        <time>2014-12-07T09:13:47Z</time>
      </trkpt>
      <trkpt lat="41.239334" lon="1.416694">
        <ele>183.8</ele>
        <time>2014-12-07T09:13:48Z</time>
      </trkpt>
      <trkpt lat="41.239368" lon="1.416673">
        <ele>184.2</ele>
        <time>2014-12-07T09:13:49Z</time>
      </trkpt>
      <trkpt lat="41.239403" lon="1.416652">
        <ele>184.8</ele>
        <time>2014-12-07T09:13:50Z</time>
      </trkpt>
      <trkpt lat="41.239460" lon="1.416638">
        <ele>184.8</ele>
        <time>2014-12-07T09:13:52Z</time>
      </trkpt>
      <trkpt lat="41.239479" lon="1.416640">
        <ele>184.8</ele>
        <time>2014-12-07T09:13:53Z</time>
      </trkpt>
      <trkpt lat="41.239571" lon="1.416626">
        <ele>185.2</ele>
        <time>2014-12-07T09:13:57Z</time>
      </trkpt>
      <trkpt lat="41.239601" lon="1.416609">
        <ele>185.6</ele>
        <time>2014-12-07T09:13:58Z</time>
      </trkpt>
      <trkpt lat="41.239628" lon="1.416582">
        <ele>186.0</ele>
        <time>2014-12-07T09:13:59Z</time>
      </trkpt>
      <trkpt lat="41.239655" lon="1.416560">
        <ele>186.4</ele>
        <time>2014-12-07T09:14:00Z</time>
      </trkpt>
      <trkpt lat="41.239685" lon="1.416550">
        <ele>186.8</ele>
        <time>2014-12-07T09:14:01Z</time>
      </trkpt>
      <trkpt lat="41.239712" lon="1.416556">
        <ele>186.8</ele>
        <time>2014-12-07T09:14:02Z</time>
      </trkpt>
      <trkpt lat="41.239746" lon="1.416564">
        <ele>186.8</ele>
        <time>2014-12-07T09:14:03Z</time>
      </trkpt>
      <trkpt lat="41.239853" lon="1.416583">
        <ele>186.8</ele>
        <time>2014-12-07T09:14:06Z</time>
      </trkpt>
      <trkpt lat="41.239925" lon="1.416583">
        <ele>186.8</ele>
        <time>2014-12-07T09:14:08Z</time>
      </trkpt>
      <trkpt lat="41.239998" lon="1.416579">
        <ele>187.2</ele>
        <time>2014-12-07T09:14:10Z</time>
      </trkpt>
      <trkpt lat="41.240036" lon="1.416577">
        <ele>187.6</ele>
        <time>2014-12-07T09:14:11Z</time>
      </trkpt>
      <trkpt lat="41.240078" lon="1.416577">
        <ele>188.0</ele>
        <time>2014-12-07T09:14:12Z</time>
      </trkpt>
      <trkpt lat="41.240116" lon="1.416581">
        <ele>188.4</ele>
        <time>2014-12-07T09:14:13Z</time>
      </trkpt>
      <trkpt lat="41.240150" lon="1.416591">
        <ele>188.8</ele>
        <time>2014-12-07T09:14:14Z</time>
      </trkpt>
      <trkpt lat="41.240314" lon="1.416676">
        <ele>188.8</ele>
        <time>2014-12-07T09:14:19Z</time>
      </trkpt>
      <trkpt lat="41.240417" lon="1.416796">
        <ele>188.8</ele>
        <time>2014-12-07T09:14:23Z</time>
      </trkpt>
      <trkpt lat="41.240589" lon="1.416913">
        <ele>188.8</ele>
        <time>2014-12-07T09:14:29Z</time>
      </trkpt>
      <trkpt lat="41.240711" lon="1.416961">
        <ele>189.2</ele>
        <time>2014-12-07T09:14:33Z</time>
      </trkpt>
      <trkpt lat="41.240742" lon="1.416980">
        <ele>189.8</ele>
        <time>2014-12-07T09:14:34Z</time>
      </trkpt>
      <trkpt lat="41.240768" lon="1.417011">
        <ele>190.2</ele>
        <time>2014-12-07T09:14:35Z</time>
      </trkpt>
      <trkpt lat="41.240791" lon="1.417047">
        <ele>190.6</ele>
        <time>2014-12-07T09:14:36Z</time>
      </trkpt>
      <trkpt lat="41.240818" lon="1.417082">
        <ele>191.0</ele>
        <time>2014-12-07T09:14:37Z</time>
      </trkpt>
      <trkpt lat="41.240955" lon="1.417191">
        <ele>191.0</ele>
        <time>2014-12-07T09:14:42Z</time>
      </trkpt>
      <trkpt lat="41.241016" lon="1.417208">
        <ele>191.8</ele>
        <time>2014-12-07T09:14:44Z</time>
      </trkpt>
      <trkpt lat="41.241047" lon="1.417219">
        <ele>192.2</ele>
        <time>2014-12-07T09:14:45Z</time>
      </trkpt>
      <trkpt lat="41.241081" lon="1.417227">
        <ele>192.6</ele>
        <time>2014-12-07T09:14:46Z</time>
      </trkpt>
      <trkpt lat="41.241112" lon="1.417235">
        <ele>193.0</ele>
        <time>2014-12-07T09:14:47Z</time>
      </trkpt>
      <trkpt lat="41.241142" lon="1.417257">
        <ele>193.0</ele>
        <time>2014-12-07T09:14:48Z</time>
      </trkpt>
      <trkpt lat="41.241188" lon="1.417333">
        <ele>193.0</ele>
        <time>2014-12-07T09:14:50Z</time>
      </trkpt>
      <trkpt lat="41.241318" lon="1.417463">
        <ele>193.0</ele>
        <time>2014-12-07T09:14:55Z</time>
      </trkpt>
      <trkpt lat="41.241447" lon="1.417536">
        <ele>193.0</ele>
        <time>2014-12-07T09:14:59Z</time>
      </trkpt>
      <trkpt lat="41.241478" lon="1.417563">
        <ele>193.0</ele>
        <time>2014-12-07T09:15:00Z</time>
      </trkpt>
      <trkpt lat="41.241631" lon="1.417603">
        <ele>193.4</ele>
        <time>2014-12-07T09:15:04Z</time>
      </trkpt>
      <trkpt lat="41.241673" lon="1.417609">
        <ele>194.0</ele>
        <time>2014-12-07T09:15:05Z</time>
      </trkpt>
      <trkpt lat="41.241707" lon="1.417619">
        <ele>194.4</ele>
        <time>2014-12-07T09:15:06Z</time>
      </trkpt>
      <trkpt lat="41.241741" lon="1.417629">
        <ele>194.8</ele>
        <time>2014-12-07T09:15:07Z</time>
      </trkpt>
      <trkpt lat="41.241776" lon="1.417644">
        <ele>195.2</ele>
        <time>2014-12-07T09:15:08Z</time>
      </trkpt>
      <trkpt lat="41.241806" lon="1.417655">
        <ele>195.2</ele>
        <time>2014-12-07T09:15:09Z</time>
      </trkpt>
      <trkpt lat="41.241920" lon="1.417757">
        <ele>195.2</ele>
        <time>2014-12-07T09:15:14Z</time>
      </trkpt>
      <trkpt lat="41.241959" lon="1.417803">
        <ele>195.6</ele>
        <time>2014-12-07T09:15:16Z</time>
      </trkpt>
      <trkpt lat="41.241974" lon="1.417825">
        <ele>196.0</ele>
        <time>2014-12-07T09:15:17Z</time>
      </trkpt>
      <trkpt lat="41.241989" lon="1.417847">
        <ele>196.4</ele>
        <time>2014-12-07T09:15:18Z</time>
      </trkpt>
      <trkpt lat="41.242004" lon="1.417875">
        <ele>196.8</ele>
        <time>2014-12-07T09:15:19Z</time>
      </trkpt>
      <trkpt lat="41.242020" lon="1.417910">
        <ele>197.2</ele>
        <time>2014-12-07T09:15:20Z</time>
      </trkpt>
      <trkpt lat="41.242096" lon="1.418049">
        <ele>197.2</ele>
        <time>2014-12-07T09:15:24Z</time>
      </trkpt>
      <trkpt lat="41.242146" lon="1.418148">
        <ele>197.6</ele>
        <time>2014-12-07T09:15:28Z</time>
      </trkpt>
      <trkpt lat="41.242157" lon="1.418164">
        <ele>198.0</ele>
        <time>2014-12-07T09:15:29Z</time>
      </trkpt>
      <trkpt lat="41.242176" lon="1.418176">
        <ele>198.6</ele>
        <time>2014-12-07T09:15:30Z</time>
      </trkpt>
      <trkpt lat="41.242191" lon="1.418186">
        <ele>199.0</ele>
        <time>2014-12-07T09:15:31Z</time>
      </trkpt>
      <trkpt lat="41.242210" lon="1.418189">
        <ele>199.4</ele>
        <time>2014-12-07T09:15:32Z</time>
      </trkpt>
      <trkpt lat="41.242260" lon="1.418201">
        <ele>199.4</ele>
        <time>2014-12-07T09:15:34Z</time>
      </trkpt>
      <trkpt lat="41.242416" lon="1.418304">
        <ele>199.4</ele>
        <time>2014-12-07T09:15:39Z</time>
      </trkpt>
      <trkpt lat="41.242435" lon="1.418343">
        <ele>199.4</ele>
        <time>2014-12-07T09:15:40Z</time>
      </trkpt>
      <trkpt lat="41.242493" lon="1.418448">
        <ele>199.8</ele>
        <time>2014-12-07T09:15:43Z</time>
      </trkpt>
      <trkpt lat="41.242516" lon="1.418478">
        <ele>200.2</ele>
        <time>2014-12-07T09:15:44Z</time>
      </trkpt>
      <trkpt lat="41.242535" lon="1.418511">
        <ele>200.6</ele>
        <time>2014-12-07T09:15:45Z</time>
      </trkpt>
      <trkpt lat="41.242558" lon="1.418544">
        <ele>201.0</ele>
        <time>2014-12-07T09:15:46Z</time>
      </trkpt>
      <trkpt lat="41.242580" lon="1.418573">
        <ele>201.4</ele>
        <time>2014-12-07T09:15:47Z</time>
      </trkpt>
      <trkpt lat="41.242611" lon="1.418634">
        <ele>201.4</ele>
        <time>2014-12-07T09:15:49Z</time>
      </trkpt>
      <trkpt lat="41.242672" lon="1.418837">
        <ele>201.4</ele>
        <time>2014-12-07T09:15:54Z</time>
      </trkpt>
      <trkpt lat="41.242733" lon="1.418953">
        <ele>202.0</ele>
        <time>2014-12-07T09:15:58Z</time>
      </trkpt>
      <trkpt lat="41.242760" lon="1.418977">
        <ele>202.4</ele>
        <time>2014-12-07T09:15:59Z</time>
      </trkpt>
      <trkpt lat="41.242786" lon="1.418995">
        <ele>202.8</ele>
        <time>2014-12-07T09:16:00Z</time>
      </trkpt>
      <trkpt lat="41.242809" lon="1.419013">
        <ele>203.2</ele>
        <time>2014-12-07T09:16:01Z</time>
      </trkpt>
      <trkpt lat="41.242832" lon="1.419032">
        <ele>203.8</ele>
        <time>2014-12-07T09:16:02Z</time>
      </trkpt>
      <trkpt lat="41.242905" lon="1.419054">
        <ele>203.8</ele>
        <time>2014-12-07T09:16:06Z</time>
      </trkpt>
      <trkpt lat="41.242931" lon="1.419061">
        <ele>203.8</ele>
        <time>2014-12-07T09:16:08Z</time>
      </trkpt>
      <trkpt lat="41.242996" lon="1.419069">
        <ele>204.2</ele>
        <time>2014-12-07T09:16:12Z</time>
      </trkpt>
      <trkpt lat="41.243004" lon="1.419054">
        <ele>204.6</ele>
        <time>2014-12-07T09:16:13Z</time>
      </trkpt>
      <trkpt lat="41.243011" lon="1.419034">
        <ele>205.0</ele>
        <time>2014-12-07T09:16:14Z</time>
      </trkpt>
      <trkpt lat="41.243004" lon="1.419024">
        <ele>205.4</ele>
        <time>2014-12-07T09:16:15Z</time>
      </trkpt>
      <trkpt lat="41.242989" lon="1.419023">
        <ele>205.8</ele>
        <time>2014-12-07T09:16:16Z</time>
      </trkpt>
      <trkpt lat="41.242989" lon="1.419075">
        <ele>205.8</ele>
        <time>2014-12-07T09:16:19Z</time>
      </trkpt>
      <trkpt lat="41.243034" lon="1.419109">
        <ele>205.8</ele>
        <time>2014-12-07T09:16:21Z</time>
      </trkpt>
      <trkpt lat="41.243050" lon="1.419137">
        <ele>205.8</ele>
        <time>2014-12-07T09:16:22Z</time>
      </trkpt>
      <trkpt lat="41.243103" lon="1.419225">
        <ele>205.8</ele>
        <time>2014-12-07T09:16:25Z</time>
      </trkpt>
      <trkpt lat="41.243214" lon="1.419445">
        <ele>205.8</ele>
        <time>2014-12-07T09:16:31Z</time>
      </trkpt>
      <trkpt lat="41.243408" lon="1.419796">
        <ele>205.8</ele>
        <time>2014-12-07T09:16:40Z</time>
      </trkpt>
      <trkpt lat="41.243568" lon="1.420087">
        <ele>205.8</ele>
        <time>2014-12-07T09:16:47Z</time>
      </trkpt>
      <trkpt lat="41.243759" lon="1.420403">
        <ele>205.8</ele>
        <time>2014-12-07T09:16:54Z</time>
      </trkpt>
      <trkpt lat="41.243790" lon="1.420452">
        <ele>205.8</ele>
        <time>2014-12-07T09:16:55Z</time>
      </trkpt>
      <trkpt lat="41.243954" lon="1.420752">
        <ele>205.8</ele>
        <time>2014-12-07T09:17:01Z</time>
      </trkpt>
      <trkpt lat="41.244152" lon="1.421080">
        <ele>205.8</ele>
        <time>2014-12-07T09:17:08Z</time>
      </trkpt>
      <trkpt lat="41.244343" lon="1.421420">
        <ele>205.8</ele>
        <time>2014-12-07T09:17:15Z</time>
      </trkpt>
      <trkpt lat="41.244370" lon="1.421468">
        <ele>205.8</ele>
        <time>2014-12-07T09:17:16Z</time>
      </trkpt>
      <trkpt lat="41.244419" lon="1.421558">
        <ele>205.8</ele>
        <time>2014-12-07T09:17:18Z</time>
      </trkpt>
      <trkpt lat="41.244446" lon="1.421605">
        <ele>206.2</ele>
        <time>2014-12-07T09:17:19Z</time>
      </trkpt>
      <trkpt lat="41.244476" lon="1.421654">
        <ele>206.6</ele>
        <time>2014-12-07T09:17:20Z</time>
      </trkpt>
      <trkpt lat="41.244507" lon="1.421702">
        <ele>207.2</ele>
        <time>2014-12-07T09:17:21Z</time>
      </trkpt>
      <trkpt lat="41.244530" lon="1.421749">
        <ele>207.6</ele>
        <time>2014-12-07T09:17:22Z</time>
      </trkpt>
      <trkpt lat="41.244556" lon="1.421795">
        <ele>208.0</ele>
        <time>2014-12-07T09:17:23Z</time>
      </trkpt>
      <trkpt lat="41.244656" lon="1.421982">
        <ele>208.0</ele>
        <time>2014-12-07T09:17:27Z</time>
      </trkpt>
      <trkpt lat="41.244793" lon="1.422236">
        <ele>208.0</ele>
        <time>2014-12-07T09:17:33Z</time>
      </trkpt>
      <trkpt lat="41.244884" lon="1.422397">
        <ele>208.0</ele>
        <time>2014-12-07T09:17:38Z</time>
      </trkpt>
      <trkpt lat="41.244957" lon="1.422540">
        <ele>208.4</ele>
        <time>2014-12-07T09:17:42Z</time>
      </trkpt>
      <trkpt lat="41.244976" lon="1.422575">
        <ele>208.8</ele>
        <time>2014-12-07T09:17:43Z</time>
      </trkpt>
      <trkpt lat="41.244991" lon="1.422612">
        <ele>209.4</ele>
        <time>2014-12-07T09:17:44Z</time>
      </trkpt>
      <trkpt lat="41.245010" lon="1.422647">
        <ele>209.8</ele>
        <time>2014-12-07T09:17:45Z</time>
      </trkpt>
      <trkpt lat="41.245033" lon="1.422677">
        <ele>210.2</ele>
        <time>2014-12-07T09:17:46Z</time>
      </trkpt>
      <trkpt lat="41.245121" lon="1.422783">
        <ele>210.2</ele>
        <time>2014-12-07T09:17:50Z</time>
      </trkpt>
      <trkpt lat="41.245277" lon="1.422920">
        <ele>210.2</ele>
        <time>2014-12-07T09:17:56Z</time>
      </trkpt>
      <trkpt lat="41.245445" lon="1.422991">
        <ele>209.8</ele>
        <time>2014-12-07T09:18:00Z</time>
      </trkpt>
      <trkpt lat="41.245487" lon="1.423013">
        <ele>209.2</ele>
        <time>2014-12-07T09:18:01Z</time>
      </trkpt>
      <trkpt lat="41.245529" lon="1.423034">
        <ele>208.8</ele>
        <time>2014-12-07T09:18:02Z</time>
      </trkpt>
      <trkpt lat="41.245567" lon="1.423059">
        <ele>208.4</ele>
        <time>2014-12-07T09:18:03Z</time>
      </trkpt>
      <trkpt lat="41.245609" lon="1.423083">
        <ele>208.0</ele>
        <time>2014-12-07T09:18:04Z</time>
      </trkpt>
      <trkpt lat="41.245678" lon="1.423148">
        <ele>208.0</ele>
        <time>2014-12-07T09:18:06Z</time>
      </trkpt>
      <trkpt lat="41.245708" lon="1.423289">
        <ele>208.0</ele>
        <time>2014-12-07T09:18:09Z</time>
      </trkpt>
      <trkpt lat="41.245758" lon="1.423398">
        <ele>208.0</ele>
        <time>2014-12-07T09:18:12Z</time>
      </trkpt>
      <trkpt lat="41.245789" lon="1.423422">
        <ele>208.0</ele>
        <time>2014-12-07T09:18:13Z</time>
      </trkpt>
      <trkpt lat="41.245831" lon="1.423445">
        <ele>208.0</ele>
        <time>2014-12-07T09:18:14Z</time>
      </trkpt>
      <trkpt lat="41.245945" lon="1.423514">
        <ele>208.0</ele>
        <time>2014-12-07T09:18:17Z</time>
      </trkpt>
      <trkpt lat="41.246048" lon="1.423656">
        <ele>207.6</ele>
        <time>2014-12-07T09:18:20Z</time>
      </trkpt>
      <trkpt lat="41.246086" lon="1.423704">
        <ele>207.0</ele>
        <time>2014-12-07T09:18:21Z</time>
      </trkpt>
      <trkpt lat="41.246124" lon="1.423747">
        <ele>206.6</ele>
        <time>2014-12-07T09:18:22Z</time>
      </trkpt>
      <trkpt lat="41.246166" lon="1.423789">
        <ele>206.2</ele>
        <time>2014-12-07T09:18:23Z</time>
      </trkpt>
      <trkpt lat="41.246201" lon="1.423834">
        <ele>205.8</ele>
        <time>2014-12-07T09:18:24Z</time>
      </trkpt>
      <trkpt lat="41.246265" lon="1.423928">
        <ele>205.8</ele>
        <time>2014-12-07T09:18:26Z</time>
      </trkpt>
      <trkpt lat="41.246323" lon="1.424028">
        <ele>205.8</ele>
        <time>2014-12-07T09:18:28Z</time>
      </trkpt>
      <trkpt lat="41.246410" lon="1.424189">
        <ele>205.8</ele>
        <time>2014-12-07T09:18:31Z</time>
      </trkpt>
      <trkpt lat="41.246574" lon="1.424390">
        <ele>205.8</ele>
        <time>2014-12-07T09:18:35Z</time>
      </trkpt>
      <trkpt lat="41.246616" lon="1.424440">
        <ele>205.8</ele>
        <time>2014-12-07T09:18:36Z</time>
      </trkpt>
      <trkpt lat="41.246643" lon="1.424508">
        <ele>205.4</ele>
        <time>2014-12-07T09:18:37Z</time>
      </trkpt>
      <trkpt lat="41.246670" lon="1.424575">
        <ele>205.0</ele>
        <time>2014-12-07T09:18:38Z</time>
      </trkpt>
      <trkpt lat="41.246693" lon="1.424630">
        <ele>204.6</ele>
        <time>2014-12-07T09:18:39Z</time>
      </trkpt>
      <trkpt lat="41.246735" lon="1.424658">
        <ele>204.2</ele>
        <time>2014-12-07T09:18:40Z</time>
      </trkpt>
      <trkpt lat="41.246773" lon="1.424663">
        <ele>203.8</ele>
        <time>2014-12-07T09:18:41Z</time>
      </trkpt>
      <trkpt lat="41.246872" lon="1.424749">
        <ele>203.4</ele>
        <time>2014-12-07T09:18:44Z</time>
      </trkpt>
      <trkpt lat="41.246887" lon="1.424782">
        <ele>203.0</ele>
        <time>2014-12-07T09:18:45Z</time>
      </trkpt>
      <trkpt lat="41.246891" lon="1.424799">
        <ele>202.4</ele>
        <time>2014-12-07T09:18:46Z</time>
      </trkpt>
      <trkpt lat="41.246891" lon="1.424810">
        <ele>202.0</ele>
        <time>2014-12-07T09:18:47Z</time>
      </trkpt>
      <trkpt lat="41.246891" lon="1.424817">
        <ele>201.4</ele>
        <time>2014-12-07T09:18:48Z</time>
      </trkpt>
      <trkpt lat="41.246891" lon="1.424819">
        <ele>200.2</ele>
        <time>2014-12-07T09:18:49Z</time>
      </trkpt>
      <trkpt lat="41.246906" lon="1.424799">
        <ele>199.6</ele>
        <time>2014-12-07T09:18:53Z</time>
      </trkpt>
      <trkpt lat="41.246918" lon="1.424796">
        <ele>199.6</ele>
        <time>2014-12-07T09:18:54Z</time>
      </trkpt>
      <trkpt lat="41.246952" lon="1.424778">
        <ele>199.6</ele>
        <time>2014-12-07T09:18:59Z</time>
      </trkpt>
      <trkpt lat="41.247017" lon="1.424803">
        <ele>199.6</ele>
        <time>2014-12-07T09:19:12Z</time>
      </trkpt>
      <trkpt lat="41.247005" lon="1.424887">
        <ele>199.6</ele>
        <time>2014-12-07T09:19:16Z</time>
      </trkpt>
      <trkpt lat="41.247036" lon="1.425009">
        <ele>199.6</ele>
        <time>2014-12-07T09:19:20Z</time>
      </trkpt>
      <trkpt lat="41.247059" lon="1.425045">
        <ele>199.6</ele>
        <time>2014-12-07T09:19:21Z</time>
      </trkpt>
      <trkpt lat="41.247070" lon="1.425195">
        <ele>199.6</ele>
        <time>2014-12-07T09:19:24Z</time>
      </trkpt>
      <trkpt lat="41.247009" lon="1.425419">
        <ele>199.6</ele>
        <time>2014-12-07T09:19:28Z</time>
      </trkpt>
      <trkpt lat="41.246998" lon="1.425538">
        <ele>199.2</ele>
        <time>2014-12-07T09:19:30Z</time>
      </trkpt>
      <trkpt lat="41.247025" lon="1.425584">
        <ele>198.8</ele>
        <time>2014-12-07T09:19:31Z</time>
      </trkpt>
      <trkpt lat="41.247055" lon="1.425625">
        <ele>198.4</ele>
        <time>2014-12-07T09:19:32Z</time>
      </trkpt>
      <trkpt lat="41.247082" lon="1.425666">
        <ele>198.0</ele>
        <time>2014-12-07T09:19:33Z</time>
      </trkpt>
      <trkpt lat="41.247108" lon="1.425708">
        <ele>197.4</ele>
        <time>2014-12-07T09:19:34Z</time>
      </trkpt>
      <trkpt lat="41.247131" lon="1.425755">
        <ele>197.4</ele>
        <time>2014-12-07T09:19:35Z</time>
      </trkpt>
      <trkpt lat="41.247196" lon="1.425849">
        <ele>197.4</ele>
        <time>2014-12-07T09:19:37Z</time>
      </trkpt>
      <trkpt lat="41.247398" lon="1.425967">
        <ele>197.4</ele>
        <time>2014-12-07T09:19:41Z</time>
      </trkpt>
      <trkpt lat="41.247684" lon="1.426097">
        <ele>197.4</ele>
        <time>2014-12-07T09:19:46Z</time>
      </trkpt>
      <trkpt lat="41.247799" lon="1.426131">
        <ele>197.4</ele>
        <time>2014-12-07T09:19:48Z</time>
      </trkpt>
      <trkpt lat="41.247845" lon="1.426167">
        <ele>197.4</ele>
        <time>2014-12-07T09:19:49Z</time>
      </trkpt>
      <trkpt lat="41.247894" lon="1.426222">
        <ele>197.4</ele>
        <time>2014-12-07T09:19:50Z</time>
      </trkpt>
      <trkpt lat="41.247982" lon="1.426342">
        <ele>197.0</ele>
        <time>2014-12-07T09:19:52Z</time>
      </trkpt>
      <trkpt lat="41.248020" lon="1.426397">
        <ele>196.6</ele>
        <time>2014-12-07T09:19:53Z</time>
      </trkpt>
      <trkpt lat="41.248062" lon="1.426448">
        <ele>196.2</ele>
        <time>2014-12-07T09:19:54Z</time>
      </trkpt>
      <trkpt lat="41.248100" lon="1.426500">
        <ele>195.8</ele>
        <time>2014-12-07T09:19:55Z</time>
      </trkpt>
      <trkpt lat="41.248119" lon="1.426561">
        <ele>195.4</ele>
        <time>2014-12-07T09:19:56Z</time>
      </trkpt>
      <trkpt lat="41.248138" lon="1.426702">
        <ele>195.4</ele>
        <time>2014-12-07T09:19:58Z</time>
      </trkpt>
      <trkpt lat="41.248112" lon="1.426847">
        <ele>194.8</ele>
        <time>2014-12-07T09:20:00Z</time>
      </trkpt>
      <trkpt lat="41.248096" lon="1.426917">
        <ele>194.4</ele>
        <time>2014-12-07T09:20:01Z</time>
      </trkpt>
      <trkpt lat="41.248085" lon="1.426988">
        <ele>194.0</ele>
        <time>2014-12-07T09:20:02Z</time>
      </trkpt>
      <trkpt lat="41.248077" lon="1.427062">
        <ele>193.0</ele>
        <time>2014-12-07T09:20:03Z</time>
      </trkpt>
      <trkpt lat="41.248066" lon="1.427305">
        <ele>192.6</ele>
        <time>2014-12-07T09:20:06Z</time>
      </trkpt>
      <trkpt lat="41.248074" lon="1.427384">
        <ele>192.2</ele>
        <time>2014-12-07T09:20:07Z</time>
      </trkpt>
      <trkpt lat="41.248074" lon="1.427461">
        <ele>191.8</ele>
        <time>2014-12-07T09:20:08Z</time>
      </trkpt>
      <trkpt lat="41.248055" lon="1.427541">
        <ele>191.4</ele>
        <time>2014-12-07T09:20:09Z</time>
      </trkpt>
      <trkpt lat="41.248043" lon="1.427626">
        <ele>191.0</ele>
        <time>2014-12-07T09:20:10Z</time>
      </trkpt>
      <trkpt lat="41.248032" lon="1.427712">
        <ele>191.0</ele>
        <time>2014-12-07T09:20:11Z</time>
      </trkpt>
      <trkpt lat="41.248024" lon="1.427797">
        <ele>190.6</ele>
        <time>2014-12-07T09:20:12Z</time>
      </trkpt>
      <trkpt lat="41.248009" lon="1.427882">
        <ele>190.2</ele>
        <time>2014-12-07T09:20:13Z</time>
      </trkpt>
      <trkpt lat="41.247997" lon="1.427959">
        <ele>189.8</ele>
        <time>2014-12-07T09:20:14Z</time>
      </trkpt>
      <trkpt lat="41.248001" lon="1.428029">
        <ele>189.4</ele>
        <time>2014-12-07T09:20:15Z</time>
      </trkpt>
      <trkpt lat="41.248024" lon="1.428084">
        <ele>189.0</ele>
        <time>2014-12-07T09:20:16Z</time>
      </trkpt>
      <trkpt lat="41.248066" lon="1.428137">
        <ele>189.0</ele>
        <time>2014-12-07T09:20:17Z</time>
      </trkpt>
      <trkpt lat="41.248123" lon="1.428256">
        <ele>188.6</ele>
        <time>2014-12-07T09:20:19Z</time>
      </trkpt>
      <trkpt lat="41.248119" lon="1.428329">
        <ele>188.2</ele>
        <time>2014-12-07T09:20:20Z</time>
      </trkpt>
      <trkpt lat="41.248116" lon="1.428405">
        <ele>187.8</ele>
        <time>2014-12-07T09:20:21Z</time>
      </trkpt>
      <trkpt lat="41.248131" lon="1.428476">
        <ele>187.2</ele>
        <time>2014-12-07T09:20:22Z</time>
      </trkpt>
      <trkpt lat="41.248161" lon="1.428536">
        <ele>186.8</ele>
        <time>2014-12-07T09:20:23Z</time>
      </trkpt>
      <trkpt lat="41.248184" lon="1.428575">
        <ele>186.4</ele>
        <time>2014-12-07T09:20:24Z</time>
      </trkpt>
      <trkpt lat="41.248207" lon="1.428591">
        <ele>185.8</ele>
        <time>2014-12-07T09:20:25Z</time>
      </trkpt>
      <trkpt lat="41.248219" lon="1.428595">
        <ele>185.4</ele>
        <time>2014-12-07T09:20:26Z</time>
      </trkpt>
      <trkpt lat="41.248226" lon="1.428601">
        <ele>184.8</ele>
        <time>2014-12-07T09:20:27Z</time>
      </trkpt>
      <trkpt lat="41.248226" lon="1.428596">
        <ele>184.4</ele>
        <time>2014-12-07T09:20:28Z</time>
      </trkpt>
      <trkpt lat="41.248226" lon="1.428597">
        <ele>184.4</ele>
        <time>2014-12-07T09:20:29Z</time>
      </trkpt>
      <trkpt lat="41.248245" lon="1.428621">
        <ele>184.4</ele>
        <time>2014-12-07T09:20:35Z</time>
      </trkpt>
      <trkpt lat="41.248310" lon="1.428703">
        <ele>184.4</ele>
        <time>2014-12-07T09:20:38Z</time>
      </trkpt>
      <trkpt lat="41.248344" lon="1.428709">
        <ele>184.4</ele>
        <time>2014-12-07T09:20:39Z</time>
      </trkpt>
      <trkpt lat="41.248383" lon="1.428700">
        <ele>183.8</ele>
        <time>2014-12-07T09:20:40Z</time>
      </trkpt>
      <trkpt lat="41.248413" lon="1.428682">
        <ele>183.4</ele>
        <time>2014-12-07T09:20:41Z</time>
      </trkpt>
      <trkpt lat="41.248444" lon="1.428663">
        <ele>183.0</ele>
        <time>2014-12-07T09:20:42Z</time>
      </trkpt>
      <trkpt lat="41.248482" lon="1.428650">
        <ele>182.6</ele>
        <time>2014-12-07T09:20:43Z</time>
      </trkpt>
      <trkpt lat="41.248524" lon="1.428647">
        <ele>182.2</ele>
        <time>2014-12-07T09:20:44Z</time>
      </trkpt>
      <trkpt lat="41.248562" lon="1.428640">
        <ele>182.2</ele>
        <time>2014-12-07T09:20:45Z</time>
      </trkpt>
      <trkpt lat="41.248634" lon="1.428637">
        <ele>182.2</ele>
        <time>2014-12-07T09:20:47Z</time>
      </trkpt>
      <trkpt lat="41.248863" lon="1.428605">
        <ele>182.2</ele>
        <time>2014-12-07T09:20:53Z</time>
      </trkpt>
      <trkpt lat="41.248951" lon="1.428604">
        <ele>182.2</ele>
        <time>2014-12-07T09:20:55Z</time>
      </trkpt>
      <trkpt lat="41.249088" lon="1.428601">
        <ele>182.2</ele>
        <time>2014-12-07T09:20:58Z</time>
      </trkpt>
      <trkpt lat="41.249340" lon="1.428638">
        <ele>182.2</ele>
        <time>2014-12-07T09:21:04Z</time>
      </trkpt>
      <trkpt lat="41.249390" lon="1.428639">
        <ele>182.2</ele>
        <time>2014-12-07T09:21:05Z</time>
      </trkpt>
      <trkpt lat="41.249554" lon="1.428562">
        <ele>182.2</ele>
        <time>2014-12-07T09:21:09Z</time>
      </trkpt>
      <trkpt lat="41.249763" lon="1.428515">
        <ele>182.2</ele>
        <time>2014-12-07T09:21:14Z</time>
      </trkpt>
      <trkpt lat="41.249817" lon="1.428528">
        <ele>182.2</ele>
        <time>2014-12-07T09:21:15Z</time>
      </trkpt>
      <trkpt lat="41.250034" lon="1.428568">
        <ele>182.2</ele>
        <time>2014-12-07T09:21:20Z</time>
      </trkpt>
      <trkpt lat="41.250160" lon="1.428567">
        <ele>182.6</ele>
        <time>2014-12-07T09:21:23Z</time>
      </trkpt>
      <trkpt lat="41.250202" lon="1.428569">
        <ele>183.0</ele>
        <time>2014-12-07T09:21:24Z</time>
      </trkpt>
      <trkpt lat="41.250244" lon="1.428569">
        <ele>183.4</ele>
        <time>2014-12-07T09:21:25Z</time>
      </trkpt>
      <trkpt lat="41.250286" lon="1.428571">
        <ele>183.8</ele>
        <time>2014-12-07T09:21:26Z</time>
      </trkpt>
      <trkpt lat="41.250328" lon="1.428571">
        <ele>184.2</ele>
        <time>2014-12-07T09:21:27Z</time>
      </trkpt>
      <trkpt lat="41.250622" lon="1.428547">
        <ele>184.2</ele>
        <time>2014-12-07T09:21:34Z</time>
      </trkpt>
      <trkpt lat="41.250847" lon="1.428556">
        <ele>184.2</ele>
        <time>2014-12-07T09:21:40Z</time>
      </trkpt>
      <trkpt lat="41.251083" lon="1.428551">
        <ele>184.2</ele>
        <time>2014-12-07T09:21:46Z</time>
      </trkpt>
      <trkpt lat="41.251236" lon="1.428525">
        <ele>184.2</ele>
        <time>2014-12-07T09:21:50Z</time>
      </trkpt>
      <trkpt lat="41.251278" lon="1.428510">
        <ele>184.2</ele>
        <time>2014-12-07T09:21:51Z</time>
      </trkpt>
      <trkpt lat="41.251450" lon="1.428508">
        <ele>184.2</ele>
        <time>2014-12-07T09:21:55Z</time>
      </trkpt>
      <trkpt lat="41.251579" lon="1.428475">
        <ele>184.2</ele>
        <time>2014-12-07T09:21:59Z</time>
      </trkpt>
      <trkpt lat="41.251614" lon="1.428429">
        <ele>184.2</ele>
        <time>2014-12-07T09:22:00Z</time>
      </trkpt>
      <trkpt lat="41.251778" lon="1.428205">
        <ele>184.2</ele>
        <time>2014-12-07T09:22:05Z</time>
      </trkpt>
      <trkpt lat="41.251968" lon="1.428038">
        <ele>184.2</ele>
        <time>2014-12-07T09:22:11Z</time>
      </trkpt>
      <trkpt lat="41.252117" lon="1.427926">
        <ele>184.2</ele>
        <time>2014-12-07T09:22:15Z</time>
      </trkpt>
      <trkpt lat="41.252182" lon="1.427859">
        <ele>184.2</ele>
        <time>2014-12-07T09:22:17Z</time>
      </trkpt>
      <trkpt lat="41.252216" lon="1.427825">
        <ele>184.2</ele>
        <time>2014-12-07T09:22:18Z</time>
      </trkpt>
      <trkpt lat="41.252285" lon="1.427764">
        <ele>184.6</ele>
        <time>2014-12-07T09:22:20Z</time>
      </trkpt>
      <trkpt lat="41.252316" lon="1.427739">
        <ele>185.0</ele>
        <time>2014-12-07T09:22:21Z</time>
      </trkpt>
      <trkpt lat="41.252357" lon="1.427718">
        <ele>185.4</ele>
        <time>2014-12-07T09:22:22Z</time>
      </trkpt>
      <trkpt lat="41.252396" lon="1.427696">
        <ele>185.8</ele>
        <time>2014-12-07T09:22:23Z</time>
      </trkpt>
      <trkpt lat="41.252430" lon="1.427676">
        <ele>186.2</ele>
        <time>2014-12-07T09:22:24Z</time>
      </trkpt>
      <trkpt lat="41.252537" lon="1.427605">
        <ele>186.2</ele>
        <time>2014-12-07T09:22:27Z</time>
      </trkpt>
      <trkpt lat="41.252762" lon="1.427471">
        <ele>186.2</ele>
        <time>2014-12-07T09:22:33Z</time>
      </trkpt>
      <trkpt lat="41.252800" lon="1.427444">
        <ele>186.2</ele>
        <time>2014-12-07T09:22:34Z</time>
      </trkpt>
      <trkpt lat="41.252983" lon="1.427296">
        <ele>186.6</ele>
        <time>2014-12-07T09:22:39Z</time>
      </trkpt>
      <trkpt lat="41.253017" lon="1.427264">
        <ele>187.0</ele>
        <time>2014-12-07T09:22:40Z</time>
      </trkpt>
      <trkpt lat="41.253052" lon="1.427231">
        <ele>187.4</ele>
        <time>2014-12-07T09:22:41Z</time>
      </trkpt>
      <trkpt lat="41.253082" lon="1.427194">
        <ele>188.0</ele>
        <time>2014-12-07T09:22:42Z</time>
      </trkpt>
      <trkpt lat="41.253117" lon="1.427157">
        <ele>188.4</ele>
        <time>2014-12-07T09:22:43Z</time>
      </trkpt>
      <trkpt lat="41.253208" lon="1.427049">
        <ele>188.4</ele>
        <time>2014-12-07T09:22:46Z</time>
      </trkpt>
      <trkpt lat="41.253311" lon="1.426950">
        <ele>188.4</ele>
        <time>2014-12-07T09:22:49Z</time>
      </trkpt>
      <trkpt lat="41.253410" lon="1.426852">
        <ele>188.4</ele>
        <time>2014-12-07T09:22:52Z</time>
      </trkpt>
      <trkpt lat="41.253513" lon="1.426706">
        <ele>189.2</ele>
        <time>2014-12-07T09:22:56Z</time>
      </trkpt>
      <trkpt lat="41.253532" lon="1.426663">
        <ele>189.6</ele>
        <time>2014-12-07T09:22:57Z</time>
      </trkpt>
      <trkpt lat="41.253548" lon="1.426622">
        <ele>190.0</ele>
        <time>2014-12-07T09:22:58Z</time>
      </trkpt>
      <trkpt lat="41.253571" lon="1.426583">
        <ele>190.4</ele>
        <time>2014-12-07T09:22:59Z</time>
      </trkpt>
      <trkpt lat="41.253593" lon="1.426544">
        <ele>190.8</ele>
        <time>2014-12-07T09:23:00Z</time>
      </trkpt>
      <trkpt lat="41.253616" lon="1.426511">
        <ele>191.2</ele>
        <time>2014-12-07T09:23:01Z</time>
      </trkpt>
      <trkpt lat="41.253639" lon="1.426479">
        <ele>191.6</ele>
        <time>2014-12-07T09:23:02Z</time>
      </trkpt>
      <trkpt lat="41.253670" lon="1.426450">
        <ele>192.0</ele>
        <time>2014-12-07T09:23:03Z</time>
      </trkpt>
      <trkpt lat="41.253696" lon="1.426421">
        <ele>192.4</ele>
        <time>2014-12-07T09:23:04Z</time>
      </trkpt>
      <trkpt lat="41.253860" lon="1.426244">
        <ele>192.4</ele>
        <time>2014-12-07T09:23:10Z</time>
      </trkpt>
      <trkpt lat="41.254025" lon="1.426083">
        <ele>192.4</ele>
        <time>2014-12-07T09:23:15Z</time>
      </trkpt>
      <trkpt lat="41.254093" lon="1.426012">
        <ele>192.8</ele>
        <time>2014-12-07T09:23:17Z</time>
      </trkpt>
      <trkpt lat="41.254124" lon="1.425977">
        <ele>193.4</ele>
        <time>2014-12-07T09:23:18Z</time>
      </trkpt>
      <trkpt lat="41.254154" lon="1.425939">
        <ele>193.8</ele>
        <time>2014-12-07T09:23:19Z</time>
      </trkpt>
      <trkpt lat="41.254192" lon="1.425903">
        <ele>194.2</ele>
        <time>2014-12-07T09:23:20Z</time>
      </trkpt>
      <trkpt lat="41.254230" lon="1.425866">
        <ele>194.6</ele>
        <time>2014-12-07T09:23:21Z</time>
      </trkpt>
      <trkpt lat="41.254337" lon="1.425759">
        <ele>194.6</ele>
        <time>2014-12-07T09:23:24Z</time>
      </trkpt>
      <trkpt lat="41.254524" lon="1.425539">
        <ele>194.6</ele>
        <time>2014-12-07T09:23:30Z</time>
      </trkpt>
      <trkpt lat="41.254768" lon="1.425296">
        <ele>194.6</ele>
        <time>2014-12-07T09:23:37Z</time>
      </trkpt>
      <trkpt lat="41.254833" lon="1.425209">
        <ele>194.6</ele>
        <time>2014-12-07T09:23:39Z</time>
      </trkpt>
      <trkpt lat="41.254860" lon="1.425117">
        <ele>194.6</ele>
        <time>2014-12-07T09:23:41Z</time>
      </trkpt>
      <trkpt lat="41.254845" lon="1.425046">
        <ele>195.0</ele>
        <time>2014-12-07T09:23:43Z</time>
      </trkpt>
      <trkpt lat="41.254818" lon="1.425015">
        <ele>195.4</ele>
        <time>2014-12-07T09:23:44Z</time>
      </trkpt>
      <trkpt lat="41.254776" lon="1.424988">
        <ele>195.8</ele>
        <time>2014-12-07T09:23:45Z</time>
      </trkpt>
      <trkpt lat="41.254742" lon="1.424956">
        <ele>196.2</ele>
        <time>2014-12-07T09:23:46Z</time>
      </trkpt>
      <trkpt lat="41.254715" lon="1.424927">
        <ele>197.2</ele>
        <time>2014-12-07T09:23:47Z</time>
      </trkpt>
      <trkpt lat="41.254688" lon="1.424898">
        <ele>197.6</ele>
        <time>2014-12-07T09:23:48Z</time>
      </trkpt>
      <trkpt lat="41.254650" lon="1.424867">
        <ele>198.0</ele>
        <time>2014-12-07T09:23:49Z</time>
      </trkpt>
      <trkpt lat="41.254623" lon="1.424829">
        <ele>198.6</ele>
        <time>2014-12-07T09:23:50Z</time>
      </trkpt>
      <trkpt lat="41.254601" lon="1.424786">
        <ele>199.2</ele>
        <time>2014-12-07T09:23:51Z</time>
      </trkpt>
      <trkpt lat="41.254589" lon="1.424740">
        <ele>199.6</ele>
        <time>2014-12-07T09:23:52Z</time>
      </trkpt>
      <trkpt lat="41.254597" lon="1.424693">
        <ele>200.2</ele>
        <time>2014-12-07T09:23:53Z</time>
      </trkpt>
      <trkpt lat="41.254612" lon="1.424653">
        <ele>200.8</ele>
        <time>2014-12-07T09:23:54Z</time>
      </trkpt>
      <trkpt lat="41.254631" lon="1.424619">
        <ele>201.4</ele>
        <time>2014-12-07T09:23:55Z</time>
      </trkpt>
      <trkpt lat="41.254650" lon="1.424587">
        <ele>202.0</ele>
        <time>2014-12-07T09:23:56Z</time>
      </trkpt>
      <trkpt lat="41.254681" lon="1.424555">
        <ele>202.6</ele>
        <time>2014-12-07T09:23:57Z</time>
      </trkpt>
      <trkpt lat="41.254719" lon="1.424523">
        <ele>203.2</ele>
        <time>2014-12-07T09:23:58Z</time>
      </trkpt>
      <trkpt lat="41.254749" lon="1.424483">
        <ele>203.8</ele>
        <time>2014-12-07T09:23:59Z</time>
      </trkpt>
      <trkpt lat="41.254818" lon="1.424402">
        <ele>203.8</ele>
        <time>2014-12-07T09:24:01Z</time>
      </trkpt>
      <trkpt lat="41.254856" lon="1.424360">
        <ele>203.8</ele>
        <time>2014-12-07T09:24:02Z</time>
      </trkpt>
      <trkpt lat="41.255100" lon="1.424127">
        <ele>203.8</ele>
        <time>2014-12-07T09:24:08Z</time>
      </trkpt>
      <trkpt lat="41.255318" lon="1.423909">
        <ele>203.8</ele>
        <time>2014-12-07T09:24:14Z</time>
      </trkpt>
      <trkpt lat="41.255352" lon="1.423872">
        <ele>203.8</ele>
        <time>2014-12-07T09:24:15Z</time>
      </trkpt>
      <trkpt lat="41.255611" lon="1.423597">
        <ele>203.8</ele>
        <time>2014-12-07T09:24:22Z</time>
      </trkpt>
      <trkpt lat="41.255772" lon="1.423394">
        <ele>203.8</ele>
        <time>2014-12-07T09:24:27Z</time>
      </trkpt>
      <trkpt lat="41.255840" lon="1.423304">
        <ele>203.8</ele>
        <time>2014-12-07T09:24:29Z</time>
      </trkpt>
      <trkpt lat="41.255936" lon="1.423175">
        <ele>203.8</ele>
        <time>2014-12-07T09:24:32Z</time>
      </trkpt>
      <trkpt lat="41.255970" lon="1.423134">
        <ele>203.8</ele>
        <time>2014-12-07T09:24:33Z</time>
      </trkpt>
      <trkpt lat="41.256161" lon="1.422876">
        <ele>203.8</ele>
        <time>2014-12-07T09:24:39Z</time>
      </trkpt>
      <trkpt lat="41.256248" lon="1.422746">
        <ele>204.2</ele>
        <time>2014-12-07T09:24:42Z</time>
      </trkpt>
      <trkpt lat="41.256279" lon="1.422698">
        <ele>204.6</ele>
        <time>2014-12-07T09:24:43Z</time>
      </trkpt>
      <trkpt lat="41.256310" lon="1.422652">
        <ele>205.2</ele>
        <time>2014-12-07T09:24:44Z</time>
      </trkpt>
      <trkpt lat="41.256340" lon="1.422606">
        <ele>205.6</ele>
        <time>2014-12-07T09:24:45Z</time>
      </trkpt>
      <trkpt lat="41.256363" lon="1.422557">
        <ele>206.0</ele>
        <time>2014-12-07T09:24:46Z</time>
      </trkpt>
      <trkpt lat="41.256390" lon="1.422511">
        <ele>206.0</ele>
        <time>2014-12-07T09:24:47Z</time>
      </trkpt>
      <trkpt lat="41.256523" lon="1.422253">
        <ele>206.0</ele>
        <time>2014-12-07T09:24:52Z</time>
      </trkpt>
      <trkpt lat="41.256554" lon="1.422204">
        <ele>206.0</ele>
        <time>2014-12-07T09:24:53Z</time>
      </trkpt>
      <trkpt lat="41.256779" lon="1.421887">
        <ele>206.0</ele>
        <time>2014-12-07T09:25:00Z</time>
      </trkpt>
      <trkpt lat="41.256832" lon="1.421797">
        <ele>206.4</ele>
        <time>2014-12-07T09:25:02Z</time>
      </trkpt>
      <trkpt lat="41.256859" lon="1.421751">
        <ele>206.8</ele>
        <time>2014-12-07T09:25:03Z</time>
      </trkpt>
      <trkpt lat="41.256886" lon="1.421706">
        <ele>207.2</ele>
        <time>2014-12-07T09:25:04Z</time>
      </trkpt>
      <trkpt lat="41.256912" lon="1.421660">
        <ele>207.6</ele>
        <time>2014-12-07T09:25:05Z</time>
      </trkpt>
      <trkpt lat="41.256943" lon="1.421611">
        <ele>208.0</ele>
        <time>2014-12-07T09:25:06Z</time>
      </trkpt>
      <trkpt lat="41.256973" lon="1.421561">
        <ele>208.0</ele>
        <time>2014-12-07T09:25:07Z</time>
      </trkpt>
      <trkpt lat="41.257198" lon="1.421141">
        <ele>208.0</ele>
        <time>2014-12-07T09:25:15Z</time>
      </trkpt>
      <trkpt lat="41.257236" lon="1.421089">
        <ele>208.0</ele>
        <time>2014-12-07T09:25:16Z</time>
      </trkpt>
      <trkpt lat="41.257332" lon="1.421034">
        <ele>208.0</ele>
        <time>2014-12-07T09:25:18Z</time>
      </trkpt>
      <trkpt lat="41.257465" lon="1.421154">
        <ele>208.0</ele>
        <time>2014-12-07T09:25:21Z</time>
      </trkpt>
      <trkpt lat="41.257507" lon="1.421216">
        <ele>208.0</ele>
        <time>2014-12-07T09:25:22Z</time>
      </trkpt>
      <trkpt lat="41.257538" lon="1.421281">
        <ele>208.0</ele>
        <time>2014-12-07T09:25:23Z</time>
      </trkpt>
      <trkpt lat="41.257607" lon="1.421376">
        <ele>207.6</ele>
        <time>2014-12-07T09:25:25Z</time>
      </trkpt>
      <trkpt lat="41.257652" lon="1.421387">
        <ele>206.8</ele>
        <time>2014-12-07T09:25:26Z</time>
      </trkpt>
      <trkpt lat="41.257706" lon="1.421377">
        <ele>206.4</ele>
        <time>2014-12-07T09:25:27Z</time>
      </trkpt>
      <trkpt lat="41.257748" lon="1.421362">
        <ele>206.0</ele>
        <time>2014-12-07T09:25:28Z</time>
      </trkpt>
      <trkpt lat="41.257866" lon="1.421421">
        <ele>206.4</ele>
        <time>2014-12-07T09:25:31Z</time>
      </trkpt>
      <trkpt lat="41.257896" lon="1.421467">
        <ele>206.8</ele>
        <time>2014-12-07T09:25:32Z</time>
      </trkpt>
      <trkpt lat="41.257931" lon="1.421500">
        <ele>207.4</ele>
        <time>2014-12-07T09:25:33Z</time>
      </trkpt>
      <trkpt lat="41.257973" lon="1.421522">
        <ele>207.8</ele>
        <time>2014-12-07T09:25:34Z</time>
      </trkpt>
      <trkpt lat="41.258011" lon="1.421529">
        <ele>208.2</ele>
        <time>2014-12-07T09:25:35Z</time>
      </trkpt>
      <trkpt lat="41.258057" lon="1.421527">
        <ele>208.6</ele>
        <time>2014-12-07T09:25:36Z</time>
      </trkpt>
      <trkpt lat="41.258091" lon="1.421506">
        <ele>209.2</ele>
        <time>2014-12-07T09:25:37Z</time>
      </trkpt>
      <trkpt lat="41.258110" lon="1.421467">
        <ele>209.6</ele>
        <time>2014-12-07T09:25:38Z</time>
      </trkpt>
      <trkpt lat="41.258114" lon="1.421421">
        <ele>210.0</ele>
        <time>2014-12-07T09:25:39Z</time>
      </trkpt>
      <trkpt lat="41.258110" lon="1.421364">
        <ele>210.4</ele>
        <time>2014-12-07T09:25:40Z</time>
      </trkpt>
      <trkpt lat="41.258110" lon="1.421299">
        <ele>210.4</ele>
        <time>2014-12-07T09:25:41Z</time>
      </trkpt>
      <trkpt lat="41.258202" lon="1.421146">
        <ele>210.4</ele>
        <time>2014-12-07T09:25:44Z</time>
      </trkpt>
      <trkpt lat="41.258232" lon="1.421114">
        <ele>211.0</ele>
        <time>2014-12-07T09:25:45Z</time>
      </trkpt>
      <trkpt lat="41.258274" lon="1.421090">
        <ele>211.4</ele>
        <time>2014-12-07T09:25:46Z</time>
      </trkpt>
      <trkpt lat="41.258320" lon="1.421074">
        <ele>212.0</ele>
        <time>2014-12-07T09:25:47Z</time>
      </trkpt>
      <trkpt lat="41.258369" lon="1.421079">
        <ele>212.6</ele>
        <time>2014-12-07T09:25:48Z</time>
      </trkpt>
      <trkpt lat="41.258419" lon="1.421093">
        <ele>213.0</ele>
        <time>2014-12-07T09:25:49Z</time>
      </trkpt>
      <trkpt lat="41.258465" lon="1.421106">
        <ele>213.0</ele>
        <time>2014-12-07T09:25:50Z</time>
      </trkpt>
      <trkpt lat="41.258514" lon="1.421127">
        <ele>213.0</ele>
        <time>2014-12-07T09:25:51Z</time>
      </trkpt>
      <trkpt lat="41.258667" lon="1.421133">
        <ele>213.0</ele>
        <time>2014-12-07T09:25:54Z</time>
      </trkpt>
      <trkpt lat="41.258717" lon="1.421138">
        <ele>213.6</ele>
        <time>2014-12-07T09:25:55Z</time>
      </trkpt>
      <trkpt lat="41.258770" lon="1.421144">
        <ele>214.0</ele>
        <time>2014-12-07T09:25:56Z</time>
      </trkpt>
      <trkpt lat="41.258823" lon="1.421144">
        <ele>214.4</ele>
        <time>2014-12-07T09:25:57Z</time>
      </trkpt>
      <trkpt lat="41.258873" lon="1.421139">
        <ele>214.8</ele>
        <time>2014-12-07T09:25:58Z</time>
      </trkpt>
      <trkpt lat="41.258923" lon="1.421128">
        <ele>215.4</ele>
        <time>2014-12-07T09:25:59Z</time>
      </trkpt>
      <trkpt lat="41.258972" lon="1.421139">
        <ele>215.4</ele>
        <time>2014-12-07T09:26:00Z</time>
      </trkpt>
      <trkpt lat="41.259026" lon="1.421139">
        <ele>215.8</ele>
        <time>2014-12-07T09:26:01Z</time>
      </trkpt>
      <trkpt lat="41.259075" lon="1.421154">
        <ele>216.2</ele>
        <time>2014-12-07T09:26:02Z</time>
      </trkpt>
      <trkpt lat="41.259125" lon="1.421146">
        <ele>216.6</ele>
        <time>2014-12-07T09:26:03Z</time>
      </trkpt>
      <trkpt lat="41.259178" lon="1.421150">
        <ele>217.0</ele>
        <time>2014-12-07T09:26:04Z</time>
      </trkpt>
      <trkpt lat="41.259224" lon="1.421154">
        <ele>217.6</ele>
        <time>2014-12-07T09:26:05Z</time>
      </trkpt>
      <trkpt lat="41.259274" lon="1.421156">
        <ele>218.0</ele>
        <time>2014-12-07T09:26:06Z</time>
      </trkpt>
      <trkpt lat="41.259312" lon="1.421165">
        <ele>218.6</ele>
        <time>2014-12-07T09:26:07Z</time>
      </trkpt>
      <trkpt lat="41.259350" lon="1.421178">
        <ele>219.2</ele>
        <time>2014-12-07T09:26:08Z</time>
      </trkpt>
      <trkpt lat="41.259388" lon="1.421182">
        <ele>219.8</ele>
        <time>2014-12-07T09:26:09Z</time>
      </trkpt>
      <trkpt lat="41.259430" lon="1.421175">
        <ele>220.4</ele>
        <time>2014-12-07T09:26:10Z</time>
      </trkpt>
      <trkpt lat="41.259468" lon="1.421164">
        <ele>221.0</ele>
        <time>2014-12-07T09:26:11Z</time>
      </trkpt>
      <trkpt lat="41.259495" lon="1.421140">
        <ele>221.6</ele>
        <time>2014-12-07T09:26:12Z</time>
      </trkpt>
      <trkpt lat="41.259537" lon="1.421111">
        <ele>222.2</ele>
        <time>2014-12-07T09:26:13Z</time>
      </trkpt>
      <trkpt lat="41.259575" lon="1.421077">
        <ele>222.6</ele>
        <time>2014-12-07T09:26:14Z</time>
      </trkpt>
      <trkpt lat="41.259609" lon="1.421046">
        <ele>223.6</ele>
        <time>2014-12-07T09:26:15Z</time>
      </trkpt>
      <trkpt lat="41.259640" lon="1.421025">
        <ele>224.2</ele>
        <time>2014-12-07T09:26:16Z</time>
      </trkpt>
      <trkpt lat="41.259785" lon="1.420985">
        <ele>224.2</ele>
        <time>2014-12-07T09:26:20Z</time>
      </trkpt>
      <trkpt lat="41.259865" lon="1.420960">
        <ele>224.6</ele>
        <time>2014-12-07T09:26:22Z</time>
      </trkpt>
      <trkpt lat="41.259907" lon="1.420941">
        <ele>225.0</ele>
        <time>2014-12-07T09:26:23Z</time>
      </trkpt>
      <trkpt lat="41.259945" lon="1.420925">
        <ele>225.4</ele>
        <time>2014-12-07T09:26:24Z</time>
      </trkpt>
      <trkpt lat="41.259983" lon="1.420916">
        <ele>225.8</ele>
        <time>2014-12-07T09:26:25Z</time>
      </trkpt>
      <trkpt lat="41.260017" lon="1.420911">
        <ele>226.2</ele>
        <time>2014-12-07T09:26:26Z</time>
      </trkpt>
      <trkpt lat="41.260090" lon="1.420889">
        <ele>226.6</ele>
        <time>2014-12-07T09:26:28Z</time>
      </trkpt>
      <trkpt lat="41.260128" lon="1.420874">
        <ele>227.0</ele>
        <time>2014-12-07T09:26:29Z</time>
      </trkpt>
      <trkpt lat="41.260162" lon="1.420858">
        <ele>227.4</ele>
        <time>2014-12-07T09:26:30Z</time>
      </trkpt>
      <trkpt lat="41.260201" lon="1.420846">
        <ele>227.8</ele>
        <time>2014-12-07T09:26:31Z</time>
      </trkpt>
      <trkpt lat="41.260235" lon="1.420840">
        <ele>228.2</ele>
        <time>2014-12-07T09:26:32Z</time>
      </trkpt>
      <trkpt lat="41.260326" lon="1.420802">
        <ele>228.6</ele>
        <time>2014-12-07T09:26:35Z</time>
      </trkpt>
      <trkpt lat="41.260353" lon="1.420784">
        <ele>229.0</ele>
        <time>2014-12-07T09:26:36Z</time>
      </trkpt>
      <trkpt lat="41.260384" lon="1.420767">
        <ele>229.4</ele>
        <time>2014-12-07T09:26:37Z</time>
      </trkpt>
      <trkpt lat="41.260414" lon="1.420762">
        <ele>229.8</ele>
        <time>2014-12-07T09:26:38Z</time>
      </trkpt>
      <trkpt lat="41.260445" lon="1.420755">
        <ele>230.2</ele>
        <time>2014-12-07T09:26:39Z</time>
      </trkpt>
      <trkpt lat="41.260502" lon="1.420725">
        <ele>230.6</ele>
        <time>2014-12-07T09:26:41Z</time>
      </trkpt>
      <trkpt lat="41.260532" lon="1.420718">
        <ele>231.0</ele>
        <time>2014-12-07T09:26:42Z</time>
      </trkpt>
      <trkpt lat="41.260559" lon="1.420718">
        <ele>231.4</ele>
        <time>2014-12-07T09:26:43Z</time>
      </trkpt>
      <trkpt lat="41.260597" lon="1.420714">
        <ele>232.0</ele>
        <time>2014-12-07T09:26:44Z</time>
      </trkpt>
      <trkpt lat="41.260632" lon="1.420703">
        <ele>232.4</ele>
        <time>2014-12-07T09:26:45Z</time>
      </trkpt>
      <trkpt lat="41.260754" lon="1.420673">
        <ele>232.8</ele>
        <time>2014-12-07T09:26:48Z</time>
      </trkpt>
      <trkpt lat="41.260792" lon="1.420668">
        <ele>233.2</ele>
        <time>2014-12-07T09:26:49Z</time>
      </trkpt>
      <trkpt lat="41.260830" lon="1.420661">
        <ele>233.6</ele>
        <time>2014-12-07T09:26:50Z</time>
      </trkpt>
      <trkpt lat="41.260872" lon="1.420654">
        <ele>234.2</ele>
        <time>2014-12-07T09:26:51Z</time>
      </trkpt>
      <trkpt lat="41.260910" lon="1.420649">
        <ele>234.6</ele>
        <time>2014-12-07T09:26:52Z</time>
      </trkpt>
      <trkpt lat="41.260956" lon="1.420647">
        <ele>235.2</ele>
        <time>2014-12-07T09:26:53Z</time>
      </trkpt>
      <trkpt lat="41.260994" lon="1.420645">
        <ele>235.6</ele>
        <time>2014-12-07T09:26:54Z</time>
      </trkpt>
      <trkpt lat="41.261024" lon="1.420643">
        <ele>236.2</ele>
        <time>2014-12-07T09:26:55Z</time>
      </trkpt>
      <trkpt lat="41.261051" lon="1.420647">
        <ele>236.6</ele>
        <time>2014-12-07T09:26:56Z</time>
      </trkpt>
      <trkpt lat="41.261093" lon="1.420671">
        <ele>236.6</ele>
        <time>2014-12-07T09:26:58Z</time>
      </trkpt>
      <trkpt lat="41.261143" lon="1.420802">
        <ele>236.6</ele>
        <time>2014-12-07T09:27:03Z</time>
      </trkpt>
      <trkpt lat="41.261230" lon="1.420969">
        <ele>236.6</ele>
        <time>2014-12-07T09:27:08Z</time>
      </trkpt>
      <trkpt lat="41.261250" lon="1.421182">
        <ele>236.6</ele>
        <time>2014-12-07T09:27:12Z</time>
      </trkpt>
      <trkpt lat="41.261246" lon="1.421255">
        <ele>236.6</ele>
        <time>2014-12-07T09:27:13Z</time>
      </trkpt>
      <trkpt lat="41.261211" lon="1.421511">
        <ele>236.6</ele>
        <time>2014-12-07T09:27:16Z</time>
      </trkpt>
      <trkpt lat="41.261173" lon="1.421703">
        <ele>236.2</ele>
        <time>2014-12-07T09:27:18Z</time>
      </trkpt>
      <trkpt lat="41.261150" lon="1.421805">
        <ele>235.6</ele>
        <time>2014-12-07T09:27:19Z</time>
      </trkpt>
      <trkpt lat="41.261135" lon="1.421905">
        <ele>235.0</ele>
        <time>2014-12-07T09:27:20Z</time>
      </trkpt>
      <trkpt lat="41.261093" lon="1.421999">
        <ele>234.6</ele>
        <time>2014-12-07T09:27:21Z</time>
      </trkpt>
      <trkpt lat="41.261047" lon="1.422092">
        <ele>234.0</ele>
        <time>2014-12-07T09:27:22Z</time>
      </trkpt>
      <trkpt lat="41.260902" lon="1.422356">
        <ele>233.6</ele>
        <time>2014-12-07T09:27:25Z</time>
      </trkpt>
      <trkpt lat="41.260841" lon="1.422439">
        <ele>233.0</ele>
        <time>2014-12-07T09:27:26Z</time>
      </trkpt>
      <trkpt lat="41.260796" lon="1.422534">
        <ele>232.6</ele>
        <time>2014-12-07T09:27:27Z</time>
      </trkpt>
      <trkpt lat="41.260750" lon="1.422638">
        <ele>232.0</ele>
        <time>2014-12-07T09:27:28Z</time>
      </trkpt>
      <trkpt lat="41.260712" lon="1.422740">
        <ele>231.4</ele>
        <time>2014-12-07T09:27:29Z</time>
      </trkpt>
      <trkpt lat="41.260677" lon="1.422844">
        <ele>231.0</ele>
        <time>2014-12-07T09:27:30Z</time>
      </trkpt>
      <trkpt lat="41.260643" lon="1.422950">
        <ele>230.6</ele>
        <time>2014-12-07T09:27:31Z</time>
      </trkpt>
      <trkpt lat="41.260612" lon="1.423053">
        <ele>230.2</ele>
        <time>2014-12-07T09:27:32Z</time>
      </trkpt>
      <trkpt lat="41.260586" lon="1.423152">
        <ele>229.6</ele>
        <time>2014-12-07T09:27:33Z</time>
      </trkpt>
      <trkpt lat="41.260551" lon="1.423250">
        <ele>229.2</ele>
        <time>2014-12-07T09:27:34Z</time>
      </trkpt>
      <trkpt lat="41.260498" lon="1.423441">
        <ele>229.2</ele>
        <time>2014-12-07T09:27:36Z</time>
      </trkpt>
      <trkpt lat="41.260433" lon="1.423616">
        <ele>228.6</ele>
        <time>2014-12-07T09:27:39Z</time>
      </trkpt>
      <trkpt lat="41.260410" lon="1.423633">
        <ele>228.2</ele>
        <time>2014-12-07T09:27:40Z</time>
      </trkpt>
      <trkpt lat="41.260391" lon="1.423630">
        <ele>227.6</ele>
        <time>2014-12-07T09:27:41Z</time>
      </trkpt>
      <trkpt lat="41.260372" lon="1.423621">
        <ele>227.2</ele>
        <time>2014-12-07T09:27:42Z</time>
      </trkpt>
      <trkpt lat="41.260357" lon="1.423618">
        <ele>226.6</ele>
        <time>2014-12-07T09:27:43Z</time>
      </trkpt>
      <trkpt lat="41.260345" lon="1.423615">
        <ele>226.6</ele>
        <time>2014-12-07T09:27:44Z</time>
      </trkpt>
      <trkpt lat="41.260349" lon="1.423616">
        <ele>226.6</ele>
        <time>2014-12-07T09:27:45Z</time>
      </trkpt>
      <trkpt lat="41.260376" lon="1.423655">
        <ele>226.6</ele>
        <time>2014-12-07T09:29:05Z</time>
      </trkpt>
      <trkpt lat="41.260410" lon="1.423648">
        <ele>226.6</ele>
        <time>2014-12-07T09:29:09Z</time>
      </trkpt>
      <trkpt lat="41.260422" lon="1.423656">
        <ele>226.6</ele>
        <time>2014-12-07T09:29:40Z</time>
      </trkpt>
      <trkpt lat="41.260433" lon="1.423670">
        <ele>226.6</ele>
        <time>2014-12-07T09:29:41Z</time>
      </trkpt>
      <trkpt lat="41.260433" lon="1.423737">
        <ele>226.6</ele>
        <time>2014-12-07T09:29:44Z</time>
      </trkpt>
      <trkpt lat="41.260433" lon="1.423770">
        <ele>226.6</ele>
        <time>2014-12-07T09:29:45Z</time>
      </trkpt>
      <trkpt lat="41.260380" lon="1.423977">
        <ele>226.6</ele>
        <time>2014-12-07T09:29:50Z</time>
      </trkpt>
      <trkpt lat="41.260387" lon="1.424170">
        <ele>226.6</ele>
        <time>2014-12-07T09:29:54Z</time>
      </trkpt>
      <trkpt lat="41.260380" lon="1.424217">
        <ele>226.6</ele>
        <time>2014-12-07T09:29:55Z</time>
      </trkpt>
      <trkpt lat="41.260353" lon="1.424306">
        <ele>226.6</ele>
        <time>2014-12-07T09:29:57Z</time>
      </trkpt>
      <trkpt lat="41.260296" lon="1.424387">
        <ele>226.6</ele>
        <time>2014-12-07T09:30:00Z</time>
      </trkpt>
      <trkpt lat="41.260277" lon="1.424397">
        <ele>227.0</ele>
        <time>2014-12-07T09:30:01Z</time>
      </trkpt>
      <trkpt lat="41.260262" lon="1.424420">
        <ele>227.4</ele>
        <time>2014-12-07T09:30:02Z</time>
      </trkpt>
      <trkpt lat="41.260242" lon="1.424436">
        <ele>227.8</ele>
        <time>2014-12-07T09:30:03Z</time>
      </trkpt>
      <trkpt lat="41.260235" lon="1.424450">
        <ele>228.2</ele>
        <time>2014-12-07T09:30:04Z</time>
      </trkpt>
      <trkpt lat="41.260231" lon="1.424450">
        <ele>228.6</ele>
        <time>2014-12-07T09:30:05Z</time>
      </trkpt>
      <trkpt lat="41.260201" lon="1.424518">
        <ele>228.6</ele>
        <time>2014-12-07T09:30:09Z</time>
      </trkpt>
      <trkpt lat="41.260208" lon="1.424556">
        <ele>228.6</ele>
        <time>2014-12-07T09:30:11Z</time>
      </trkpt>
      <trkpt lat="41.260223" lon="1.424562">
        <ele>229.0</ele>
        <time>2014-12-07T09:30:12Z</time>
      </trkpt>
      <trkpt lat="41.260239" lon="1.424564">
        <ele>229.6</ele>
        <time>2014-12-07T09:30:13Z</time>
      </trkpt>
      <trkpt lat="41.260258" lon="1.424558">
        <ele>230.0</ele>
        <time>2014-12-07T09:30:14Z</time>
      </trkpt>
      <trkpt lat="41.260277" lon="1.424554">
        <ele>230.4</ele>
        <time>2014-12-07T09:30:15Z</time>
      </trkpt>
      <trkpt lat="41.260288" lon="1.424557">
        <ele>230.8</ele>
        <time>2014-12-07T09:30:16Z</time>
      </trkpt>
      <trkpt lat="41.260303" lon="1.424567">
        <ele>230.8</ele>
        <time>2014-12-07T09:30:17Z</time>
      </trkpt>
      <trkpt lat="41.260315" lon="1.424589">
        <ele>230.8</ele>
        <time>2014-12-07T09:30:18Z</time>
      </trkpt>
      <trkpt lat="41.260307" lon="1.424759">
        <ele>230.8</ele>
        <time>2014-12-07T09:30:22Z</time>
      </trkpt>
      <trkpt lat="41.260300" lon="1.424868">
        <ele>230.8</ele>
        <time>2014-12-07T09:30:24Z</time>
      </trkpt>
      <trkpt lat="41.260292" lon="1.424985">
        <ele>230.8</ele>
        <time>2014-12-07T09:30:26Z</time>
      </trkpt>
      <trkpt lat="41.260300" lon="1.425042">
        <ele>230.8</ele>
        <time>2014-12-07T09:30:27Z</time>
      </trkpt>
      <trkpt lat="41.260395" lon="1.425267">
        <ele>230.8</ele>
        <time>2014-12-07T09:30:31Z</time>
      </trkpt>
      <trkpt lat="41.260471" lon="1.425471">
        <ele>230.4</ele>
        <time>2014-12-07T09:30:35Z</time>
      </trkpt>
      <trkpt lat="41.260475" lon="1.425516">
        <ele>229.8</ele>
        <time>2014-12-07T09:30:36Z</time>
      </trkpt>
      <trkpt lat="41.260487" lon="1.425567">
        <ele>229.4</ele>
        <time>2014-12-07T09:30:37Z</time>
      </trkpt>
      <trkpt lat="41.260494" lon="1.425619">
        <ele>229.0</ele>
        <time>2014-12-07T09:30:38Z</time>
      </trkpt>
      <trkpt lat="41.260506" lon="1.425670">
        <ele>228.6</ele>
        <time>2014-12-07T09:30:39Z</time>
      </trkpt>
      <trkpt lat="41.260506" lon="1.425725">
        <ele>228.6</ele>
        <time>2014-12-07T09:30:40Z</time>
      </trkpt>
      <trkpt lat="41.260487" lon="1.425837">
        <ele>228.6</ele>
        <time>2014-12-07T09:30:42Z</time>
      </trkpt>
      <trkpt lat="41.260384" lon="1.426196">
        <ele>228.6</ele>
        <time>2014-12-07T09:30:48Z</time>
      </trkpt>
      <trkpt lat="41.260300" lon="1.426450">
        <ele>228.6</ele>
        <time>2014-12-07T09:30:52Z</time>
      </trkpt>
      <trkpt lat="41.260204" lon="1.426683">
        <ele>228.6</ele>
        <time>2014-12-07T09:30:56Z</time>
      </trkpt>
      <trkpt lat="41.260174" lon="1.426726">
        <ele>228.6</ele>
        <time>2014-12-07T09:30:57Z</time>
      </trkpt>
      <trkpt lat="41.260056" lon="1.426820">
        <ele>228.6</ele>
        <time>2014-12-07T09:31:00Z</time>
      </trkpt>
      <trkpt lat="41.259987" lon="1.426884">
        <ele>228.6</ele>
        <time>2014-12-07T09:31:02Z</time>
      </trkpt>
      <trkpt lat="41.259918" lon="1.426943">
        <ele>228.6</ele>
        <time>2014-12-07T09:31:04Z</time>
      </trkpt>
      <trkpt lat="41.259789" lon="1.427056">
        <ele>228.6</ele>
        <time>2014-12-07T09:31:08Z</time>
      </trkpt>
      <trkpt lat="41.259712" lon="1.427109">
        <ele>228.6</ele>
        <time>2014-12-07T09:31:10Z</time>
      </trkpt>
      <trkpt lat="41.259594" lon="1.427127">
        <ele>228.6</ele>
        <time>2014-12-07T09:31:13Z</time>
      </trkpt>
      <trkpt lat="41.259552" lon="1.427148">
        <ele>228.6</ele>
        <time>2014-12-07T09:31:14Z</time>
      </trkpt>
      <trkpt lat="41.259441" lon="1.427261">
        <ele>228.6</ele>
        <time>2014-12-07T09:31:17Z</time>
      </trkpt>
      <trkpt lat="41.259426" lon="1.427389">
        <ele>228.6</ele>
        <time>2014-12-07T09:31:20Z</time>
      </trkpt>
      <trkpt lat="41.259449" lon="1.427467">
        <ele>228.6</ele>
        <time>2014-12-07T09:31:24Z</time>
      </trkpt>
      <trkpt lat="41.259449" lon="1.427552">
        <ele>228.6</ele>
        <time>2014-12-07T09:31:28Z</time>
      </trkpt>
      <trkpt lat="41.259445" lon="1.427588">
        <ele>228.6</ele>
        <time>2014-12-07T09:31:30Z</time>
      </trkpt>
      <trkpt lat="41.259411" lon="1.427759">
        <ele>228.6</ele>
        <time>2014-12-07T09:31:36Z</time>
      </trkpt>
      <trkpt lat="41.259331" lon="1.427961">
        <ele>228.6</ele>
        <time>2014-12-07T09:31:41Z</time>
      </trkpt>
      <trkpt lat="41.259315" lon="1.428015">
        <ele>228.6</ele>
        <time>2014-12-07T09:31:42Z</time>
      </trkpt>
      <trkpt lat="41.259277" lon="1.428165">
        <ele>228.6</ele>
        <time>2014-12-07T09:31:45Z</time>
      </trkpt>
      <trkpt lat="41.259228" lon="1.428249">
        <ele>228.6</ele>
        <time>2014-12-07T09:31:47Z</time>
      </trkpt>
      <trkpt lat="41.259140" lon="1.428336">
        <ele>228.6</ele>
        <time>2014-12-07T09:31:50Z</time>
      </trkpt>
      <trkpt lat="41.259121" lon="1.428381">
        <ele>229.0</ele>
        <time>2014-12-07T09:31:51Z</time>
      </trkpt>
      <trkpt lat="41.259102" lon="1.428420">
        <ele>229.4</ele>
        <time>2014-12-07T09:31:52Z</time>
      </trkpt>
      <trkpt lat="41.259083" lon="1.428463">
        <ele>229.8</ele>
        <time>2014-12-07T09:31:53Z</time>
      </trkpt>
      <trkpt lat="41.259071" lon="1.428503">
        <ele>230.4</ele>
        <time>2014-12-07T09:31:54Z</time>
      </trkpt>
      <trkpt lat="41.259060" lon="1.428541">
        <ele>230.8</ele>
        <time>2014-12-07T09:31:55Z</time>
      </trkpt>
      <trkpt lat="41.258957" lon="1.428694">
        <ele>230.8</ele>
        <time>2014-12-07T09:32:00Z</time>
      </trkpt>
      <trkpt lat="41.258934" lon="1.428722">
        <ele>231.6</ele>
        <time>2014-12-07T09:32:01Z</time>
      </trkpt>
      <trkpt lat="41.258923" lon="1.428755">
        <ele>232.0</ele>
        <time>2014-12-07T09:32:02Z</time>
      </trkpt>
      <trkpt lat="41.258904" lon="1.428779">
        <ele>232.4</ele>
        <time>2014-12-07T09:32:03Z</time>
      </trkpt>
      <trkpt lat="41.258884" lon="1.428809">
        <ele>232.8</ele>
        <time>2014-12-07T09:32:04Z</time>
      </trkpt>
      <trkpt lat="41.258862" lon="1.428839">
        <ele>232.8</ele>
        <time>2014-12-07T09:32:05Z</time>
      </trkpt>
      <trkpt lat="41.258846" lon="1.428864">
        <ele>233.4</ele>
        <time>2014-12-07T09:32:06Z</time>
      </trkpt>
      <trkpt lat="41.258827" lon="1.428889">
        <ele>233.8</ele>
        <time>2014-12-07T09:32:07Z</time>
      </trkpt>
      <trkpt lat="41.258812" lon="1.428915">
        <ele>234.2</ele>
        <time>2014-12-07T09:32:08Z</time>
      </trkpt>
      <trkpt lat="41.258789" lon="1.428942">
        <ele>234.6</ele>
        <time>2014-12-07T09:32:09Z</time>
      </trkpt>
      <trkpt lat="41.258770" lon="1.428974">
        <ele>235.2</ele>
        <time>2014-12-07T09:32:10Z</time>
      </trkpt>
      <trkpt lat="41.258728" lon="1.429038">
        <ele>235.2</ele>
        <time>2014-12-07T09:32:12Z</time>
      </trkpt>
      <trkpt lat="41.258698" lon="1.429097">
        <ele>235.6</ele>
        <time>2014-12-07T09:32:14Z</time>
      </trkpt>
      <trkpt lat="41.258682" lon="1.429131">
        <ele>236.0</ele>
        <time>2014-12-07T09:32:15Z</time>
      </trkpt>
      <trkpt lat="41.258667" lon="1.429169">
        <ele>236.4</ele>
        <time>2014-12-07T09:32:16Z</time>
      </trkpt>
      <trkpt lat="41.258652" lon="1.429200">
        <ele>236.8</ele>
        <time>2014-12-07T09:32:17Z</time>
      </trkpt>
      <trkpt lat="41.258636" lon="1.429232">
        <ele>237.4</ele>
        <time>2014-12-07T09:32:18Z</time>
      </trkpt>
      <trkpt lat="41.258614" lon="1.429264">
        <ele>237.8</ele>
        <time>2014-12-07T09:32:19Z</time>
      </trkpt>
      <trkpt lat="41.258598" lon="1.429295">
        <ele>238.2</ele>
        <time>2014-12-07T09:32:20Z</time>
      </trkpt>
      <trkpt lat="41.258583" lon="1.429324">
        <ele>238.6</ele>
        <time>2014-12-07T09:32:21Z</time>
      </trkpt>
      <trkpt lat="41.258564" lon="1.429353">
        <ele>239.2</ele>
        <time>2014-12-07T09:32:22Z</time>
      </trkpt>
      <trkpt lat="41.258549" lon="1.429388">
        <ele>239.6</ele>
        <time>2014-12-07T09:32:23Z</time>
      </trkpt>
      <trkpt lat="41.258514" lon="1.429445">
        <ele>239.6</ele>
        <time>2014-12-07T09:32:25Z</time>
      </trkpt>
      <trkpt lat="41.258419" lon="1.429606">
        <ele>240.0</ele>
        <time>2014-12-07T09:32:30Z</time>
      </trkpt>
      <trkpt lat="41.258400" lon="1.429642">
        <ele>240.4</ele>
        <time>2014-12-07T09:32:31Z</time>
      </trkpt>
      <trkpt lat="41.258385" lon="1.429677">
        <ele>240.8</ele>
        <time>2014-12-07T09:32:32Z</time>
      </trkpt>
      <trkpt lat="41.258362" lon="1.429715">
        <ele>241.2</ele>
        <time>2014-12-07T09:32:33Z</time>
      </trkpt>
      <trkpt lat="41.258339" lon="1.429752">
        <ele>241.6</ele>
        <time>2014-12-07T09:32:34Z</time>
      </trkpt>
      <trkpt lat="41.258247" lon="1.429903">
        <ele>241.6</ele>
        <time>2014-12-07T09:32:38Z</time>
      </trkpt>
      <trkpt lat="41.258179" lon="1.430002">
        <ele>242.0</ele>
        <time>2014-12-07T09:32:41Z</time>
      </trkpt>
      <trkpt lat="41.258152" lon="1.430033">
        <ele>242.4</ele>
        <time>2014-12-07T09:32:42Z</time>
      </trkpt>
      <trkpt lat="41.258129" lon="1.430058">
        <ele>242.8</ele>
        <time>2014-12-07T09:32:43Z</time>
      </trkpt>
      <trkpt lat="41.258099" lon="1.430080">
        <ele>243.2</ele>
        <time>2014-12-07T09:32:44Z</time>
      </trkpt>
      <trkpt lat="41.258072" lon="1.430099">
        <ele>243.8</ele>
        <time>2014-12-07T09:32:45Z</time>
      </trkpt>
      <trkpt lat="41.257957" lon="1.430208">
        <ele>243.8</ele>
        <time>2014-12-07T09:32:49Z</time>
      </trkpt>
      <trkpt lat="41.257885" lon="1.430298">
        <ele>244.2</ele>
        <time>2014-12-07T09:32:52Z</time>
      </trkpt>
      <trkpt lat="41.257858" lon="1.430324">
        <ele>244.6</ele>
        <time>2014-12-07T09:32:53Z</time>
      </trkpt>
      <trkpt lat="41.257820" lon="1.430353">
        <ele>245.0</ele>
        <time>2014-12-07T09:32:54Z</time>
      </trkpt>
      <trkpt lat="41.257786" lon="1.430372">
        <ele>245.4</ele>
        <time>2014-12-07T09:32:55Z</time>
      </trkpt>
      <trkpt lat="41.257755" lon="1.430387">
        <ele>246.0</ele>
        <time>2014-12-07T09:32:56Z</time>
      </trkpt>
      <trkpt lat="41.257660" lon="1.430428">
        <ele>246.0</ele>
        <time>2014-12-07T09:32:59Z</time>
      </trkpt>
      <trkpt lat="41.257423" lon="1.430429">
        <ele>246.0</ele>
        <time>2014-12-07T09:33:05Z</time>
      </trkpt>
      <trkpt lat="41.257263" lon="1.430399">
        <ele>246.0</ele>
        <time>2014-12-07T09:33:10Z</time>
      </trkpt>
      <trkpt lat="41.257244" lon="1.430482">
        <ele>245.4</ele>
        <time>2014-12-07T09:33:13Z</time>
      </trkpt>
      <trkpt lat="41.257252" lon="1.430531">
        <ele>245.0</ele>
        <time>2014-12-07T09:33:14Z</time>
      </trkpt>
      <trkpt lat="41.257263" lon="1.430580">
        <ele>244.6</ele>
        <time>2014-12-07T09:33:15Z</time>
      </trkpt>
      <trkpt lat="41.257282" lon="1.430635">
        <ele>243.8</ele>
        <time>2014-12-07T09:33:16Z</time>
      </trkpt>
      <trkpt lat="41.257313" lon="1.430687">
        <ele>243.8</ele>
        <time>2014-12-07T09:33:17Z</time>
      </trkpt>
      <trkpt lat="41.257309" lon="1.430910">
        <ele>243.8</ele>
        <time>2014-12-07T09:33:21Z</time>
      </trkpt>
      <trkpt lat="41.257202" lon="1.431112">
        <ele>243.2</ele>
        <time>2014-12-07T09:33:24Z</time>
      </trkpt>
      <trkpt lat="41.257172" lon="1.431183">
        <ele>242.6</ele>
        <time>2014-12-07T09:33:25Z</time>
      </trkpt>
      <trkpt lat="41.257145" lon="1.431270">
        <ele>242.2</ele>
        <time>2014-12-07T09:33:26Z</time>
      </trkpt>
      <trkpt lat="41.257126" lon="1.431339">
        <ele>241.4</ele>
        <time>2014-12-07T09:33:27Z</time>
      </trkpt>
      <trkpt lat="41.257099" lon="1.431401">
        <ele>240.8</ele>
        <time>2014-12-07T09:33:28Z</time>
      </trkpt>
      <trkpt lat="41.257088" lon="1.431443">
        <ele>239.8</ele>
        <time>2014-12-07T09:33:29Z</time>
      </trkpt>
      <trkpt lat="41.257072" lon="1.431468">
        <ele>239.0</ele>
        <time>2014-12-07T09:33:30Z</time>
      </trkpt>
      <trkpt lat="41.257046" lon="1.431492">
        <ele>238.0</ele>
        <time>2014-12-07T09:33:31Z</time>
      </trkpt>
      <trkpt lat="41.257019" lon="1.431517">
        <ele>237.4</ele>
        <time>2014-12-07T09:33:32Z</time>
      </trkpt>
      <trkpt lat="41.256996" lon="1.431546">
        <ele>236.6</ele>
        <time>2014-12-07T09:33:33Z</time>
      </trkpt>
      <trkpt lat="41.256966" lon="1.431571">
        <ele>235.8</ele>
        <time>2014-12-07T09:33:34Z</time>
      </trkpt>
      <trkpt lat="41.256939" lon="1.431597">
        <ele>235.0</ele>
        <time>2014-12-07T09:33:35Z</time>
      </trkpt>
      <trkpt lat="41.256908" lon="1.431630">
        <ele>234.2</ele>
        <time>2014-12-07T09:33:36Z</time>
      </trkpt>
      <trkpt lat="41.256866" lon="1.431671">
        <ele>233.6</ele>
        <time>2014-12-07T09:33:37Z</time>
      </trkpt>
      <trkpt lat="41.256821" lon="1.431724">
        <ele>232.8</ele>
        <time>2014-12-07T09:33:38Z</time>
      </trkpt>
      <trkpt lat="41.256775" lon="1.431792">
        <ele>232.2</ele>
        <time>2014-12-07T09:33:39Z</time>
      </trkpt>
      <trkpt lat="41.256714" lon="1.431854">
        <ele>230.8</ele>
        <time>2014-12-07T09:33:40Z</time>
      </trkpt>
      <trkpt lat="41.256657" lon="1.431903">
        <ele>229.8</ele>
        <time>2014-12-07T09:33:41Z</time>
      </trkpt>
      <trkpt lat="41.256592" lon="1.431954">
        <ele>229.0</ele>
        <time>2014-12-07T09:33:42Z</time>
      </trkpt>
      <trkpt lat="41.256523" lon="1.431999">
        <ele>228.0</ele>
        <time>2014-12-07T09:33:43Z</time>
      </trkpt>
      <trkpt lat="41.256466" lon="1.432036">
        <ele>227.0</ele>
        <time>2014-12-07T09:33:44Z</time>
      </trkpt>
      <trkpt lat="41.256413" lon="1.432076">
        <ele>226.0</ele>
        <time>2014-12-07T09:33:45Z</time>
      </trkpt>
      <trkpt lat="41.256359" lon="1.432120">
        <ele>225.0</ele>
        <time>2014-12-07T09:33:46Z</time>
      </trkpt>
      <trkpt lat="41.256294" lon="1.432174">
        <ele>224.0</ele>
        <time>2014-12-07T09:33:47Z</time>
      </trkpt>
      <trkpt lat="41.256252" lon="1.432238">
        <ele>223.0</ele>
        <time>2014-12-07T09:33:48Z</time>
      </trkpt>
      <trkpt lat="41.256203" lon="1.432319">
        <ele>222.2</ele>
        <time>2014-12-07T09:33:49Z</time>
      </trkpt>
      <trkpt lat="41.256153" lon="1.432397">
        <ele>221.4</ele>
        <time>2014-12-07T09:33:50Z</time>
      </trkpt>
      <trkpt lat="41.256104" lon="1.432481">
        <ele>220.6</ele>
        <time>2014-12-07T09:33:51Z</time>
      </trkpt>
      <trkpt lat="41.256050" lon="1.432556">
        <ele>219.6</ele>
        <time>2014-12-07T09:33:52Z</time>
      </trkpt>
      <trkpt lat="41.256004" lon="1.432635">
        <ele>218.8</ele>
        <time>2014-12-07T09:33:53Z</time>
      </trkpt>
      <trkpt lat="41.255959" lon="1.432709">
        <ele>217.8</ele>
        <time>2014-12-07T09:33:54Z</time>
      </trkpt>
      <trkpt lat="41.255905" lon="1.432783">
        <ele>216.8</ele>
        <time>2014-12-07T09:33:55Z</time>
      </trkpt>
      <trkpt lat="41.255859" lon="1.432859">
        <ele>216.0</ele>
        <time>2014-12-07T09:33:56Z</time>
      </trkpt>
      <trkpt lat="41.255814" lon="1.432940">
        <ele>215.0</ele>
        <time>2014-12-07T09:33:57Z</time>
      </trkpt>
      <trkpt lat="41.255764" lon="1.433025">
        <ele>214.2</ele>
        <time>2014-12-07T09:33:58Z</time>
      </trkpt>
      <trkpt lat="41.255718" lon="1.433114">
        <ele>213.6</ele>
        <time>2014-12-07T09:33:59Z</time>
      </trkpt>
      <trkpt lat="41.255672" lon="1.433193">
        <ele>212.8</ele>
        <time>2014-12-07T09:34:00Z</time>
      </trkpt>
      <trkpt lat="41.255627" lon="1.433277">
        <ele>212.2</ele>
        <time>2014-12-07T09:34:01Z</time>
      </trkpt>
      <trkpt lat="41.255589" lon="1.433362">
        <ele>211.4</ele>
        <time>2014-12-07T09:34:02Z</time>
      </trkpt>
      <trkpt lat="41.255554" lon="1.433447">
        <ele>210.6</ele>
        <time>2014-12-07T09:34:03Z</time>
      </trkpt>
      <trkpt lat="41.255516" lon="1.433523">
        <ele>210.0</ele>
        <time>2014-12-07T09:34:04Z</time>
      </trkpt>
      <trkpt lat="41.255478" lon="1.433589">
        <ele>208.6</ele>
        <time>2014-12-07T09:34:05Z</time>
      </trkpt>
      <trkpt lat="41.255455" lon="1.433621">
        <ele>208.0</ele>
        <time>2014-12-07T09:34:06Z</time>
      </trkpt>
      <trkpt lat="41.255451" lon="1.433643">
        <ele>207.4</ele>
        <time>2014-12-07T09:34:07Z</time>
      </trkpt>
      <trkpt lat="41.255455" lon="1.433652">
        <ele>206.6</ele>
        <time>2014-12-07T09:34:08Z</time>
      </trkpt>
      <trkpt lat="41.255459" lon="1.433659">
        <ele>206.0</ele>
        <time>2014-12-07T09:34:09Z</time>
      </trkpt>
      <trkpt lat="41.255470" lon="1.433665">
        <ele>205.6</ele>
        <time>2014-12-07T09:34:10Z</time>
      </trkpt>
      <trkpt lat="41.255482" lon="1.433670">
        <ele>205.2</ele>
        <time>2014-12-07T09:34:11Z</time>
      </trkpt>
      <trkpt lat="41.255493" lon="1.433676">
        <ele>204.8</ele>
        <time>2014-12-07T09:34:12Z</time>
      </trkpt>
      <trkpt lat="41.255505" lon="1.433680">
        <ele>204.4</ele>
        <time>2014-12-07T09:34:13Z</time>
      </trkpt>
      <trkpt lat="41.255520" lon="1.433694">
        <ele>203.8</ele>
        <time>2014-12-07T09:34:14Z</time>
      </trkpt>
      <trkpt lat="41.255535" lon="1.433714">
        <ele>203.8</ele>
        <time>2014-12-07T09:34:15Z</time>
      </trkpt>
      <trkpt lat="41.255566" lon="1.433736">
        <ele>203.8</ele>
        <time>2014-12-07T09:34:16Z</time>
      </trkpt>
      <trkpt lat="41.255653" lon="1.433752">
        <ele>203.8</ele>
        <time>2014-12-07T09:34:18Z</time>
      </trkpt>
      <trkpt lat="41.255764" lon="1.433751">
        <ele>203.8</ele>
        <time>2014-12-07T09:34:20Z</time>
      </trkpt>
      <trkpt lat="41.256001" lon="1.433789">
        <ele>203.4</ele>
        <time>2014-12-07T09:34:24Z</time>
      </trkpt>
      <trkpt lat="41.256069" lon="1.433821">
        <ele>202.8</ele>
        <time>2014-12-07T09:34:25Z</time>
      </trkpt>
      <trkpt lat="41.256138" lon="1.433867">
        <ele>202.4</ele>
        <time>2014-12-07T09:34:26Z</time>
      </trkpt>
      <trkpt lat="41.256203" lon="1.433927">
        <ele>201.8</ele>
        <time>2014-12-07T09:34:27Z</time>
      </trkpt>
      <trkpt lat="41.256256" lon="1.433987">
        <ele>201.4</ele>
        <time>2014-12-07T09:34:28Z</time>
      </trkpt>
      <trkpt lat="41.256298" lon="1.434049">
        <ele>201.4</ele>
        <time>2014-12-07T09:34:29Z</time>
      </trkpt>
      <trkpt lat="41.256340" lon="1.434102">
        <ele>201.4</ele>
        <time>2014-12-07T09:34:30Z</time>
      </trkpt>
      <trkpt lat="41.256435" lon="1.434189">
        <ele>201.4</ele>
        <time>2014-12-07T09:34:32Z</time>
      </trkpt>
      <trkpt lat="41.256531" lon="1.434246">
        <ele>201.4</ele>
        <time>2014-12-07T09:34:34Z</time>
      </trkpt>
      <trkpt lat="41.256630" lon="1.434283">
        <ele>201.4</ele>
        <time>2014-12-07T09:34:36Z</time>
      </trkpt>
      <trkpt lat="41.256744" lon="1.434320">
        <ele>200.8</ele>
        <time>2014-12-07T09:34:38Z</time>
      </trkpt>
      <trkpt lat="41.256805" lon="1.434331">
        <ele>200.4</ele>
        <time>2014-12-07T09:34:39Z</time>
      </trkpt>
      <trkpt lat="41.256870" lon="1.434341">
        <ele>200.0</ele>
        <time>2014-12-07T09:34:40Z</time>
      </trkpt>
      <trkpt lat="41.256927" lon="1.434349">
        <ele>199.6</ele>
        <time>2014-12-07T09:34:41Z</time>
      </trkpt>
      <trkpt lat="41.257000" lon="1.434351">
        <ele>199.2</ele>
        <time>2014-12-07T09:34:42Z</time>
      </trkpt>
      <trkpt lat="41.257069" lon="1.434358">
        <ele>198.6</ele>
        <time>2014-12-07T09:34:43Z</time>
      </trkpt>
      <trkpt lat="41.257145" lon="1.434361">
        <ele>198.0</ele>
        <time>2014-12-07T09:34:44Z</time>
      </trkpt>
      <trkpt lat="41.257206" lon="1.434387">
        <ele>197.4</ele>
        <time>2014-12-07T09:34:45Z</time>
      </trkpt>
      <trkpt lat="41.257256" lon="1.434428">
        <ele>197.0</ele>
        <time>2014-12-07T09:34:46Z</time>
      </trkpt>
      <trkpt lat="41.257317" lon="1.434459">
        <ele>196.6</ele>
        <time>2014-12-07T09:34:47Z</time>
      </trkpt>
      <trkpt lat="41.257366" lon="1.434477">
        <ele>196.2</ele>
        <time>2014-12-07T09:34:48Z</time>
      </trkpt>
      <trkpt lat="41.257423" lon="1.434473">
        <ele>195.8</ele>
        <time>2014-12-07T09:34:49Z</time>
      </trkpt>
      <trkpt lat="41.257484" lon="1.434444">
        <ele>195.2</ele>
        <time>2014-12-07T09:34:50Z</time>
      </trkpt>
      <trkpt lat="41.257576" lon="1.434408">
        <ele>194.8</ele>
        <time>2014-12-07T09:34:51Z</time>
      </trkpt>
      <trkpt lat="41.257652" lon="1.434363">
        <ele>194.2</ele>
        <time>2014-12-07T09:34:52Z</time>
      </trkpt>
      <trkpt lat="41.257725" lon="1.434320">
        <ele>193.4</ele>
        <time>2014-12-07T09:34:53Z</time>
      </trkpt>
      <trkpt lat="41.257790" lon="1.434293">
        <ele>192.0</ele>
        <time>2014-12-07T09:34:54Z</time>
      </trkpt>
      <trkpt lat="41.257851" lon="1.434266">
        <ele>191.2</ele>
        <time>2014-12-07T09:34:55Z</time>
      </trkpt>
      <trkpt lat="41.257912" lon="1.434273">
        <ele>190.4</ele>
        <time>2014-12-07T09:34:56Z</time>
      </trkpt>
      <trkpt lat="41.257957" lon="1.434296">
        <ele>189.6</ele>
        <time>2014-12-07T09:34:57Z</time>
      </trkpt>
      <trkpt lat="41.258003" lon="1.434345">
        <ele>188.8</ele>
        <time>2014-12-07T09:34:58Z</time>
      </trkpt>
      <trkpt lat="41.258041" lon="1.434404">
        <ele>188.2</ele>
        <time>2014-12-07T09:34:59Z</time>
      </trkpt>
      <trkpt lat="41.258060" lon="1.434471">
        <ele>187.4</ele>
        <time>2014-12-07T09:35:00Z</time>
      </trkpt>
      <trkpt lat="41.258076" lon="1.434530">
        <ele>186.6</ele>
        <time>2014-12-07T09:35:01Z</time>
      </trkpt>
      <trkpt lat="41.258083" lon="1.434598">
        <ele>186.0</ele>
        <time>2014-12-07T09:35:02Z</time>
      </trkpt>
      <trkpt lat="41.258083" lon="1.434655">
        <ele>186.0</ele>
        <time>2014-12-07T09:35:03Z</time>
      </trkpt>
      <trkpt lat="41.258095" lon="1.434701">
        <ele>186.0</ele>
        <time>2014-12-07T09:35:04Z</time>
      </trkpt>
      <trkpt lat="41.258133" lon="1.434844">
        <ele>186.0</ele>
        <time>2014-12-07T09:35:07Z</time>
      </trkpt>
      <trkpt lat="41.258167" lon="1.434932">
        <ele>186.0</ele>
        <time>2014-12-07T09:35:09Z</time>
      </trkpt>
      <trkpt lat="41.258217" lon="1.435052">
        <ele>186.4</ele>
        <time>2014-12-07T09:35:12Z</time>
      </trkpt>
      <trkpt lat="41.258228" lon="1.435102">
        <ele>186.8</ele>
        <time>2014-12-07T09:35:13Z</time>
      </trkpt>
      <trkpt lat="41.258244" lon="1.435143">
        <ele>187.2</ele>
        <time>2014-12-07T09:35:14Z</time>
      </trkpt>
      <trkpt lat="41.258255" lon="1.435182">
        <ele>187.6</ele>
        <time>2014-12-07T09:35:15Z</time>
      </trkpt>
      <trkpt lat="41.258278" lon="1.435216">
        <ele>188.0</ele>
        <time>2014-12-07T09:35:16Z</time>
      </trkpt>
      <trkpt lat="41.258312" lon="1.435348">
        <ele>188.8</ele>
        <time>2014-12-07T09:35:19Z</time>
      </trkpt>
      <trkpt lat="41.258320" lon="1.435386">
        <ele>189.2</ele>
        <time>2014-12-07T09:35:20Z</time>
      </trkpt>
      <trkpt lat="41.258331" lon="1.435411">
        <ele>189.6</ele>
        <time>2014-12-07T09:35:21Z</time>
      </trkpt>
      <trkpt lat="41.258339" lon="1.435443">
        <ele>190.0</ele>
        <time>2014-12-07T09:35:22Z</time>
      </trkpt>
      <trkpt lat="41.258354" lon="1.435468">
        <ele>190.4</ele>
        <time>2014-12-07T09:35:23Z</time>
      </trkpt>
      <trkpt lat="41.258377" lon="1.435487">
        <ele>191.0</ele>
        <time>2014-12-07T09:35:24Z</time>
      </trkpt>
      <trkpt lat="41.258408" lon="1.435495">
        <ele>191.4</ele>
        <time>2014-12-07T09:35:25Z</time>
      </trkpt>
      <trkpt lat="41.258434" lon="1.435494">
        <ele>191.8</ele>
        <time>2014-12-07T09:35:26Z</time>
      </trkpt>
      <trkpt lat="41.258457" lon="1.435486">
        <ele>192.2</ele>
        <time>2014-12-07T09:35:27Z</time>
      </trkpt>
      <trkpt lat="41.258484" lon="1.435472">
        <ele>192.6</ele>
        <time>2014-12-07T09:35:28Z</time>
      </trkpt>
      <trkpt lat="41.258511" lon="1.435465">
        <ele>193.0</ele>
        <time>2014-12-07T09:35:29Z</time>
      </trkpt>
      <trkpt lat="41.258533" lon="1.435440">
        <ele>193.4</ele>
        <time>2014-12-07T09:35:30Z</time>
      </trkpt>
      <trkpt lat="41.258560" lon="1.435421">
        <ele>193.8</ele>
        <time>2014-12-07T09:35:31Z</time>
      </trkpt>
      <trkpt lat="41.258575" lon="1.435407">
        <ele>194.4</ele>
        <time>2014-12-07T09:35:32Z</time>
      </trkpt>
      <trkpt lat="41.258629" lon="1.435373">
        <ele>194.8</ele>
        <time>2014-12-07T09:35:34Z</time>
      </trkpt>
      <trkpt lat="41.258663" lon="1.435357">
        <ele>195.2</ele>
        <time>2014-12-07T09:35:35Z</time>
      </trkpt>
      <trkpt lat="41.258690" lon="1.435349">
        <ele>195.6</ele>
        <time>2014-12-07T09:35:36Z</time>
      </trkpt>
      <trkpt lat="41.258709" lon="1.435335">
        <ele>196.0</ele>
        <time>2014-12-07T09:35:37Z</time>
      </trkpt>
      <trkpt lat="41.258736" lon="1.435317">
        <ele>196.6</ele>
        <time>2014-12-07T09:35:38Z</time>
      </trkpt>
      <trkpt lat="41.258789" lon="1.435291">
        <ele>197.0</ele>
        <time>2014-12-07T09:35:40Z</time>
      </trkpt>
      <trkpt lat="41.258816" lon="1.435285">
        <ele>197.4</ele>
        <time>2014-12-07T09:35:41Z</time>
      </trkpt>
      <trkpt lat="41.258839" lon="1.435277">
        <ele>197.8</ele>
        <time>2014-12-07T09:35:42Z</time>
      </trkpt>
      <trkpt lat="41.258858" lon="1.435264">
        <ele>198.2</ele>
        <time>2014-12-07T09:35:43Z</time>
      </trkpt>
      <trkpt lat="41.258888" lon="1.435257">
        <ele>198.6</ele>
        <time>2014-12-07T09:35:44Z</time>
      </trkpt>
      <trkpt lat="41.258915" lon="1.435260">
        <ele>199.2</ele>
        <time>2014-12-07T09:35:45Z</time>
      </trkpt>
      <trkpt lat="41.258942" lon="1.435265">
        <ele>199.6</ele>
        <time>2014-12-07T09:35:46Z</time>
      </trkpt>
      <trkpt lat="41.258972" lon="1.435276">
        <ele>200.2</ele>
        <time>2014-12-07T09:35:47Z</time>
      </trkpt>
      <trkpt lat="41.258999" lon="1.435281">
        <ele>200.6</ele>
        <time>2014-12-07T09:35:48Z</time>
      </trkpt>
      <trkpt lat="41.259026" lon="1.435301">
        <ele>201.2</ele>
        <time>2014-12-07T09:35:49Z</time>
      </trkpt>
      <trkpt lat="41.259087" lon="1.435364">
        <ele>201.6</ele>
        <time>2014-12-07T09:35:52Z</time>
      </trkpt>
      <trkpt lat="41.259106" lon="1.435374">
        <ele>202.0</ele>
        <time>2014-12-07T09:35:53Z</time>
      </trkpt>
      <trkpt lat="41.259117" lon="1.435383">
        <ele>202.4</ele>
        <time>2014-12-07T09:35:54Z</time>
      </trkpt>
      <trkpt lat="41.259132" lon="1.435389">
        <ele>202.8</ele>
        <time>2014-12-07T09:35:55Z</time>
      </trkpt>
      <trkpt lat="41.259159" lon="1.435397">
        <ele>203.2</ele>
        <time>2014-12-07T09:35:56Z</time>
      </trkpt>
      <trkpt lat="41.259178" lon="1.435410">
        <ele>203.2</ele>
        <time>2014-12-07T09:35:57Z</time>
      </trkpt>
      <trkpt lat="41.259201" lon="1.435417">
        <ele>203.8</ele>
        <time>2014-12-07T09:35:58Z</time>
      </trkpt>
      <trkpt lat="41.259220" lon="1.435421">
        <ele>204.2</ele>
        <time>2014-12-07T09:35:59Z</time>
      </trkpt>
      <trkpt lat="41.259239" lon="1.435430">
        <ele>204.6</ele>
        <time>2014-12-07T09:36:00Z</time>
      </trkpt>
      <trkpt lat="41.259266" lon="1.435446">
        <ele>205.2</ele>
        <time>2014-12-07T09:36:01Z</time>
      </trkpt>
      <trkpt lat="41.259289" lon="1.435455">
        <ele>205.6</ele>
        <time>2014-12-07T09:36:02Z</time>
      </trkpt>
      <trkpt lat="41.259308" lon="1.435473">
        <ele>205.6</ele>
        <time>2014-12-07T09:36:03Z</time>
      </trkpt>
      <trkpt lat="41.259342" lon="1.435501">
        <ele>206.0</ele>
        <time>2014-12-07T09:36:05Z</time>
      </trkpt>
      <trkpt lat="41.259354" lon="1.435520">
        <ele>206.4</ele>
        <time>2014-12-07T09:36:06Z</time>
      </trkpt>
      <trkpt lat="41.259369" lon="1.435531">
        <ele>206.8</ele>
        <time>2014-12-07T09:36:07Z</time>
      </trkpt>
      <trkpt lat="41.259392" lon="1.435540">
        <ele>207.8</ele>
        <time>2014-12-07T09:36:08Z</time>
      </trkpt>
      <trkpt lat="41.259403" lon="1.435552">
        <ele>208.2</ele>
        <time>2014-12-07T09:36:09Z</time>
      </trkpt>
      <trkpt lat="41.259418" lon="1.435562">
        <ele>208.6</ele>
        <time>2014-12-07T09:36:10Z</time>
      </trkpt>
      <trkpt lat="41.259430" lon="1.435589">
        <ele>209.0</ele>
        <time>2014-12-07T09:36:11Z</time>
      </trkpt>
      <trkpt lat="41.259445" lon="1.435620">
        <ele>209.4</ele>
        <time>2014-12-07T09:36:12Z</time>
      </trkpt>
      <trkpt lat="41.259457" lon="1.435648">
        <ele>209.8</ele>
        <time>2014-12-07T09:36:13Z</time>
      </trkpt>
      <trkpt lat="41.259457" lon="1.435679">
        <ele>209.8</ele>
        <time>2014-12-07T09:36:14Z</time>
      </trkpt>
      <trkpt lat="41.259468" lon="1.435835">
        <ele>209.8</ele>
        <time>2014-12-07T09:36:19Z</time>
      </trkpt>
      <trkpt lat="41.259468" lon="1.435867">
        <ele>210.2</ele>
        <time>2014-12-07T09:36:20Z</time>
      </trkpt>
      <trkpt lat="41.259468" lon="1.435903">
        <ele>210.6</ele>
        <time>2014-12-07T09:36:21Z</time>
      </trkpt>
      <trkpt lat="41.259468" lon="1.435934">
        <ele>211.0</ele>
        <time>2014-12-07T09:36:22Z</time>
      </trkpt>
      <trkpt lat="41.259468" lon="1.435961">
        <ele>211.6</ele>
        <time>2014-12-07T09:36:23Z</time>
      </trkpt>
      <trkpt lat="41.259468" lon="1.435980">
        <ele>212.0</ele>
        <time>2014-12-07T09:36:24Z</time>
      </trkpt>
      <trkpt lat="41.259476" lon="1.435987">
        <ele>212.0</ele>
        <time>2014-12-07T09:36:25Z</time>
      </trkpt>
      <trkpt lat="41.259491" lon="1.436050">
        <ele>212.4</ele>
        <time>2014-12-07T09:36:29Z</time>
      </trkpt>
      <trkpt lat="41.259499" lon="1.436065">
        <ele>212.8</ele>
        <time>2014-12-07T09:36:30Z</time>
      </trkpt>
      <trkpt lat="41.259502" lon="1.436083">
        <ele>213.2</ele>
        <time>2014-12-07T09:36:31Z</time>
      </trkpt>
      <trkpt lat="41.259502" lon="1.436097">
        <ele>213.6</ele>
        <time>2014-12-07T09:36:32Z</time>
      </trkpt>
      <trkpt lat="41.259514" lon="1.436118">
        <ele>214.0</ele>
        <time>2014-12-07T09:36:33Z</time>
      </trkpt>
      <trkpt lat="41.259525" lon="1.436155">
        <ele>214.0</ele>
        <time>2014-12-07T09:36:35Z</time>
      </trkpt>
      <trkpt lat="41.259541" lon="1.436264">
        <ele>214.4</ele>
        <time>2014-12-07T09:36:40Z</time>
      </trkpt>
      <trkpt lat="41.259541" lon="1.436280">
        <ele>215.0</ele>
        <time>2014-12-07T09:36:41Z</time>
      </trkpt>
      <trkpt lat="41.259548" lon="1.436292">
        <ele>215.4</ele>
        <time>2014-12-07T09:36:42Z</time>
      </trkpt>
      <trkpt lat="41.259552" lon="1.436315">
        <ele>215.8</ele>
        <time>2014-12-07T09:36:43Z</time>
      </trkpt>
      <trkpt lat="41.259560" lon="1.436339">
        <ele>216.2</ele>
        <time>2014-12-07T09:36:44Z</time>
      </trkpt>
      <trkpt lat="41.259567" lon="1.436362">
        <ele>216.2</ele>
        <time>2014-12-07T09:36:45Z</time>
      </trkpt>
      <trkpt lat="41.259617" lon="1.436487">
        <ele>216.6</ele>
        <time>2014-12-07T09:36:50Z</time>
      </trkpt>
      <trkpt lat="41.259628" lon="1.436503">
        <ele>217.2</ele>
        <time>2014-12-07T09:36:51Z</time>
      </trkpt>
      <trkpt lat="41.259628" lon="1.436524">
        <ele>217.6</ele>
        <time>2014-12-07T09:36:52Z</time>
      </trkpt>
      <trkpt lat="41.259621" lon="1.436532">
        <ele>218.0</ele>
        <time>2014-12-07T09:36:53Z</time>
      </trkpt>
      <trkpt lat="41.259605" lon="1.436524">
        <ele>218.4</ele>
        <time>2014-12-07T09:36:54Z</time>
      </trkpt>
      <trkpt lat="41.259598" lon="1.436507">
        <ele>218.4</ele>
        <time>2014-12-07T09:36:55Z</time>
      </trkpt>
      <trkpt lat="41.259575" lon="1.436353">
        <ele>218.4</ele>
        <time>2014-12-07T09:37:00Z</time>
      </trkpt>
      <trkpt lat="41.259541" lon="1.436262">
        <ele>218.4</ele>
        <time>2014-12-07T09:37:04Z</time>
      </trkpt>
      <trkpt lat="41.259533" lon="1.436232">
        <ele>218.0</ele>
        <time>2014-12-07T09:37:05Z</time>
      </trkpt>
      <trkpt lat="41.259529" lon="1.436197">
        <ele>217.6</ele>
        <time>2014-12-07T09:37:06Z</time>
      </trkpt>
      <trkpt lat="41.259521" lon="1.436164">
        <ele>217.2</ele>
        <time>2014-12-07T09:37:07Z</time>
      </trkpt>
      <trkpt lat="41.259518" lon="1.436132">
        <ele>216.8</ele>
        <time>2014-12-07T09:37:08Z</time>
      </trkpt>
      <trkpt lat="41.259514" lon="1.436110">
        <ele>216.4</ele>
        <time>2014-12-07T09:37:09Z</time>
      </trkpt>
      <trkpt lat="41.259468" lon="1.436103">
        <ele>216.0</ele>
        <time>2014-12-07T09:37:12Z</time>
      </trkpt>
      <trkpt lat="41.259457" lon="1.436117">
        <ele>215.4</ele>
        <time>2014-12-07T09:37:13Z</time>
      </trkpt>
      <trkpt lat="41.259445" lon="1.436147">
        <ele>215.0</ele>
        <time>2014-12-07T09:37:14Z</time>
      </trkpt>
      <trkpt lat="41.259430" lon="1.436179">
        <ele>214.6</ele>
        <time>2014-12-07T09:37:15Z</time>
      </trkpt>
      <trkpt lat="41.259415" lon="1.436208">
        <ele>214.2</ele>
        <time>2014-12-07T09:37:16Z</time>
      </trkpt>
      <trkpt lat="41.259399" lon="1.436241">
        <ele>214.2</ele>
        <time>2014-12-07T09:37:17Z</time>
      </trkpt>
      <trkpt lat="41.259388" lon="1.436274">
        <ele>214.2</ele>
        <time>2014-12-07T09:37:18Z</time>
      </trkpt>
      <trkpt lat="41.259293" lon="1.436466">
        <ele>214.2</ele>
        <time>2014-12-07T09:37:24Z</time>
      </trkpt>
      <trkpt lat="41.259224" lon="1.436644">
        <ele>214.2</ele>
        <time>2014-12-07T09:37:29Z</time>
      </trkpt>
      <trkpt lat="41.259144" lon="1.436832">
        <ele>214.2</ele>
        <time>2014-12-07T09:37:34Z</time>
      </trkpt>
      <trkpt lat="41.259022" lon="1.437069">
        <ele>214.2</ele>
        <time>2014-12-07T09:37:40Z</time>
      </trkpt>
      <trkpt lat="41.258987" lon="1.437208">
        <ele>214.2</ele>
        <time>2014-12-07T09:37:44Z</time>
      </trkpt>
      <trkpt lat="41.258907" lon="1.437327">
        <ele>214.2</ele>
        <time>2014-12-07T09:37:49Z</time>
      </trkpt>
      <trkpt lat="41.258705" lon="1.437473">
        <ele>214.2</ele>
        <time>2014-12-07T09:37:54Z</time>
      </trkpt>
      <trkpt lat="41.258545" lon="1.437568">
        <ele>214.2</ele>
        <time>2014-12-07T09:37:57Z</time>
      </trkpt>
      <trkpt lat="41.258492" lon="1.437568">
        <ele>213.8</ele>
        <time>2014-12-07T09:37:58Z</time>
      </trkpt>
      <trkpt lat="41.258442" lon="1.437550">
        <ele>213.4</ele>
        <time>2014-12-07T09:37:59Z</time>
      </trkpt>
      <trkpt lat="41.258392" lon="1.437529">
        <ele>212.8</ele>
        <time>2014-12-07T09:38:00Z</time>
      </trkpt>
      <trkpt lat="41.258347" lon="1.437512">
        <ele>212.4</ele>
        <time>2014-12-07T09:38:01Z</time>
      </trkpt>
      <trkpt lat="41.258301" lon="1.437489">
        <ele>212.0</ele>
        <time>2014-12-07T09:38:02Z</time>
      </trkpt>
      <trkpt lat="41.258129" lon="1.437432">
        <ele>211.6</ele>
        <time>2014-12-07T09:38:05Z</time>
      </trkpt>
      <trkpt lat="41.258076" lon="1.437410">
        <ele>211.2</ele>
        <time>2014-12-07T09:38:06Z</time>
      </trkpt>
      <trkpt lat="41.258011" lon="1.437397">
        <ele>210.8</ele>
        <time>2014-12-07T09:38:07Z</time>
      </trkpt>
      <trkpt lat="41.257942" lon="1.437388">
        <ele>210.2</ele>
        <time>2014-12-07T09:38:08Z</time>
      </trkpt>
      <trkpt lat="41.257877" lon="1.437382">
        <ele>209.8</ele>
        <time>2014-12-07T09:38:09Z</time>
      </trkpt>
      <trkpt lat="41.257805" lon="1.437382">
        <ele>209.8</ele>
        <time>2014-12-07T09:38:10Z</time>
      </trkpt>
      <trkpt lat="41.257648" lon="1.437395">
        <ele>209.4</ele>
        <time>2014-12-07T09:38:12Z</time>
      </trkpt>
      <trkpt lat="41.257565" lon="1.437401">
        <ele>209.0</ele>
        <time>2014-12-07T09:38:13Z</time>
      </trkpt>
      <trkpt lat="41.257488" lon="1.437423">
        <ele>208.6</ele>
        <time>2014-12-07T09:38:14Z</time>
      </trkpt>
      <trkpt lat="41.257420" lon="1.437450">
        <ele>208.2</ele>
        <time>2014-12-07T09:38:15Z</time>
      </trkpt>
      <trkpt lat="41.257355" lon="1.437487">
        <ele>207.6</ele>
        <time>2014-12-07T09:38:16Z</time>
      </trkpt>
      <trkpt lat="41.257305" lon="1.437537">
        <ele>207.2</ele>
        <time>2014-12-07T09:38:17Z</time>
      </trkpt>
      <trkpt lat="41.257271" lon="1.437593">
        <ele>206.6</ele>
        <time>2014-12-07T09:38:18Z</time>
      </trkpt>
      <trkpt lat="41.257248" lon="1.437670">
        <ele>206.2</ele>
        <time>2014-12-07T09:38:19Z</time>
      </trkpt>
      <trkpt lat="41.257248" lon="1.437746">
        <ele>205.6</ele>
        <time>2014-12-07T09:38:20Z</time>
      </trkpt>
      <trkpt lat="41.257263" lon="1.437824">
        <ele>205.2</ele>
        <time>2014-12-07T09:38:21Z</time>
      </trkpt>
      <trkpt lat="41.257305" lon="1.437912">
        <ele>204.8</ele>
        <time>2014-12-07T09:38:22Z</time>
      </trkpt>
      <trkpt lat="41.257343" lon="1.437998">
        <ele>204.2</ele>
        <time>2014-12-07T09:38:23Z</time>
      </trkpt>
      <trkpt lat="41.257389" lon="1.438090">
        <ele>203.8</ele>
        <time>2014-12-07T09:38:24Z</time>
      </trkpt>
      <trkpt lat="41.257423" lon="1.438181">
        <ele>203.2</ele>
        <time>2014-12-07T09:38:25Z</time>
      </trkpt>
      <trkpt lat="41.257454" lon="1.438269">
        <ele>202.6</ele>
        <time>2014-12-07T09:38:26Z</time>
      </trkpt>
      <trkpt lat="41.257477" lon="1.438361">
        <ele>202.2</ele>
        <time>2014-12-07T09:38:27Z</time>
      </trkpt>
      <trkpt lat="41.257484" lon="1.438454">
        <ele>201.6</ele>
        <time>2014-12-07T09:38:28Z</time>
      </trkpt>
      <trkpt lat="41.257481" lon="1.438546">
        <ele>201.0</ele>
        <time>2014-12-07T09:38:29Z</time>
      </trkpt>
      <trkpt lat="41.257462" lon="1.438623">
        <ele>200.6</ele>
        <time>2014-12-07T09:38:30Z</time>
      </trkpt>
      <trkpt lat="41.257439" lon="1.438679">
        <ele>200.0</ele>
        <time>2014-12-07T09:38:31Z</time>
      </trkpt>
      <trkpt lat="41.257408" lon="1.438721">
        <ele>199.6</ele>
        <time>2014-12-07T09:38:32Z</time>
      </trkpt>
      <trkpt lat="41.257370" lon="1.438730">
        <ele>199.2</ele>
        <time>2014-12-07T09:38:33Z</time>
      </trkpt>
      <trkpt lat="41.257324" lon="1.438696">
        <ele>198.6</ele>
        <time>2014-12-07T09:38:34Z</time>
      </trkpt>
      <trkpt lat="41.257286" lon="1.438634">
        <ele>198.2</ele>
        <time>2014-12-07T09:38:35Z</time>
      </trkpt>
      <trkpt lat="41.257252" lon="1.438559">
        <ele>196.8</ele>
        <time>2014-12-07T09:38:36Z</time>
      </trkpt>
      <trkpt lat="41.257217" lon="1.438480">
        <ele>196.0</ele>
        <time>2014-12-07T09:38:37Z</time>
      </trkpt>
      <trkpt lat="41.257172" lon="1.438403">
        <ele>195.2</ele>
        <time>2014-12-07T09:38:38Z</time>
      </trkpt>
      <trkpt lat="41.257130" lon="1.438327">
        <ele>194.6</ele>
        <time>2014-12-07T09:38:39Z</time>
      </trkpt>
      <trkpt lat="41.257072" lon="1.438267">
        <ele>194.6</ele>
        <time>2014-12-07T09:38:40Z</time>
      </trkpt>
      <trkpt lat="41.257008" lon="1.438234">
        <ele>194.2</ele>
        <time>2014-12-07T09:38:41Z</time>
      </trkpt>
      <trkpt lat="41.256950" lon="1.438210">
        <ele>193.8</ele>
        <time>2014-12-07T09:38:42Z</time>
      </trkpt>
      <trkpt lat="41.256901" lon="1.438195">
        <ele>193.2</ele>
        <time>2014-12-07T09:38:43Z</time>
      </trkpt>
      <trkpt lat="41.256844" lon="1.438188">
        <ele>192.8</ele>
        <time>2014-12-07T09:38:44Z</time>
      </trkpt>
      <trkpt lat="41.256783" lon="1.438184">
        <ele>192.4</ele>
        <time>2014-12-07T09:38:45Z</time>
      </trkpt>
      <trkpt lat="41.256660" lon="1.438210">
        <ele>192.0</ele>
        <time>2014-12-07T09:38:47Z</time>
      </trkpt>
      <trkpt lat="41.256592" lon="1.438234">
        <ele>191.6</ele>
        <time>2014-12-07T09:38:48Z</time>
      </trkpt>
      <trkpt lat="41.256519" lon="1.438257">
        <ele>191.2</ele>
        <time>2014-12-07T09:38:49Z</time>
      </trkpt>
      <trkpt lat="41.256451" lon="1.438266">
        <ele>190.8</ele>
        <time>2014-12-07T09:38:50Z</time>
      </trkpt>
      <trkpt lat="41.256378" lon="1.438263">
        <ele>190.4</ele>
        <time>2014-12-07T09:38:51Z</time>
      </trkpt>
      <trkpt lat="41.256310" lon="1.438249">
        <ele>189.8</ele>
        <time>2014-12-07T09:38:52Z</time>
      </trkpt>
      <trkpt lat="41.256241" lon="1.438233">
        <ele>189.4</ele>
        <time>2014-12-07T09:38:53Z</time>
      </trkpt>
      <trkpt lat="41.256180" lon="1.438196">
        <ele>188.8</ele>
        <time>2014-12-07T09:38:54Z</time>
      </trkpt>
      <trkpt lat="41.256142" lon="1.438141">
        <ele>188.4</ele>
        <time>2014-12-07T09:38:55Z</time>
      </trkpt>
      <trkpt lat="41.256107" lon="1.438082">
        <ele>188.0</ele>
        <time>2014-12-07T09:38:56Z</time>
      </trkpt>
      <trkpt lat="41.256023" lon="1.437888">
        <ele>188.0</ele>
        <time>2014-12-07T09:38:59Z</time>
      </trkpt>
      <trkpt lat="41.256001" lon="1.437837">
        <ele>188.0</ele>
        <time>2014-12-07T09:39:00Z</time>
      </trkpt>
      <trkpt lat="41.255978" lon="1.437776">
        <ele>187.0</ele>
        <time>2014-12-07T09:39:01Z</time>
      </trkpt>
      <trkpt lat="41.255951" lon="1.437715">
        <ele>186.6</ele>
        <time>2014-12-07T09:39:02Z</time>
      </trkpt>
      <trkpt lat="41.255943" lon="1.437646">
        <ele>186.2</ele>
        <time>2014-12-07T09:39:03Z</time>
      </trkpt>
      <trkpt lat="41.255951" lon="1.437566">
        <ele>185.6</ele>
        <time>2014-12-07T09:39:04Z</time>
      </trkpt>
      <trkpt lat="41.255981" lon="1.437489">
        <ele>185.6</ele>
        <time>2014-12-07T09:39:05Z</time>
      </trkpt>
      <trkpt lat="41.256062" lon="1.437351">
        <ele>185.6</ele>
        <time>2014-12-07T09:39:07Z</time>
      </trkpt>
      <trkpt lat="41.256123" lon="1.437214">
        <ele>185.6</ele>
        <time>2014-12-07T09:39:09Z</time>
      </trkpt>
      <trkpt lat="41.256184" lon="1.437086">
        <ele>185.2</ele>
        <time>2014-12-07T09:39:11Z</time>
      </trkpt>
      <trkpt lat="41.256214" lon="1.437021">
        <ele>184.8</ele>
        <time>2014-12-07T09:39:12Z</time>
      </trkpt>
      <trkpt lat="41.256241" lon="1.436958">
        <ele>184.4</ele>
        <time>2014-12-07T09:39:13Z</time>
      </trkpt>
      <trkpt lat="41.256268" lon="1.436898">
        <ele>184.0</ele>
        <time>2014-12-07T09:39:14Z</time>
      </trkpt>
      <trkpt lat="41.256290" lon="1.436839">
        <ele>183.6</ele>
        <time>2014-12-07T09:39:15Z</time>
      </trkpt>
      <trkpt lat="41.256313" lon="1.436742">
        <ele>183.6</ele>
        <time>2014-12-07T09:39:17Z</time>
      </trkpt>
      <trkpt lat="41.256283" lon="1.436715">
        <ele>183.6</ele>
        <time>2014-12-07T09:39:18Z</time>
      </trkpt>
      <trkpt lat="41.256233" lon="1.436704">
        <ele>183.6</ele>
        <time>2014-12-07T09:39:19Z</time>
      </trkpt>
      <trkpt lat="41.256081" lon="1.436789">
        <ele>183.2</ele>
        <time>2014-12-07T09:39:22Z</time>
      </trkpt>
      <trkpt lat="41.256023" lon="1.436810">
        <ele>182.8</ele>
        <time>2014-12-07T09:39:23Z</time>
      </trkpt>
      <trkpt lat="41.255966" lon="1.436821">
        <ele>182.2</ele>
        <time>2014-12-07T09:39:24Z</time>
      </trkpt>
      <trkpt lat="41.255905" lon="1.436827">
        <ele>181.8</ele>
        <time>2014-12-07T09:39:25Z</time>
      </trkpt>
      <trkpt lat="41.255844" lon="1.436821">
        <ele>180.6</ele>
        <time>2014-12-07T09:39:26Z</time>
      </trkpt>
      <trkpt lat="41.255791" lon="1.436790">
        <ele>180.0</ele>
        <time>2014-12-07T09:39:27Z</time>
      </trkpt>
      <trkpt lat="41.255733" lon="1.436746">
        <ele>179.2</ele>
        <time>2014-12-07T09:39:28Z</time>
      </trkpt>
      <trkpt lat="41.255692" lon="1.436692">
        <ele>178.6</ele>
        <time>2014-12-07T09:39:29Z</time>
      </trkpt>
      <trkpt lat="41.255650" lon="1.436657">
        <ele>178.0</ele>
        <time>2014-12-07T09:39:30Z</time>
      </trkpt>
      <trkpt lat="41.255592" lon="1.436655">
        <ele>177.4</ele>
        <time>2014-12-07T09:39:31Z</time>
      </trkpt>
      <trkpt lat="41.255539" lon="1.436687">
        <ele>177.4</ele>
        <time>2014-12-07T09:39:32Z</time>
      </trkpt>
      <trkpt lat="41.255451" lon="1.436751">
        <ele>177.4</ele>
        <time>2014-12-07T09:39:34Z</time>
      </trkpt>
      <trkpt lat="41.255356" lon="1.436786">
        <ele>177.4</ele>
        <time>2014-12-07T09:39:36Z</time>
      </trkpt>
      <trkpt lat="41.255093" lon="1.436799">
        <ele>177.4</ele>
        <time>2014-12-07T09:39:41Z</time>
      </trkpt>
      <trkpt lat="41.255001" lon="1.436792">
        <ele>177.4</ele>
        <time>2014-12-07T09:39:43Z</time>
      </trkpt>
      <trkpt lat="41.254906" lon="1.436795">
        <ele>177.4</ele>
        <time>2014-12-07T09:39:45Z</time>
      </trkpt>
      <trkpt lat="41.254860" lon="1.436807">
        <ele>177.4</ele>
        <time>2014-12-07T09:39:46Z</time>
      </trkpt>
      <trkpt lat="41.254753" lon="1.436843">
        <ele>177.4</ele>
        <time>2014-12-07T09:39:48Z</time>
      </trkpt>
      <trkpt lat="41.254707" lon="1.436877">
        <ele>177.4</ele>
        <time>2014-12-07T09:39:49Z</time>
      </trkpt>
      <trkpt lat="41.254627" lon="1.436931">
        <ele>177.8</ele>
        <time>2014-12-07T09:39:51Z</time>
      </trkpt>
      <trkpt lat="41.254585" lon="1.436956">
        <ele>178.2</ele>
        <time>2014-12-07T09:39:52Z</time>
      </trkpt>
      <trkpt lat="41.254543" lon="1.436977">
        <ele>178.6</ele>
        <time>2014-12-07T09:39:53Z</time>
      </trkpt>
      <trkpt lat="41.254505" lon="1.437008">
        <ele>179.2</ele>
        <time>2014-12-07T09:39:54Z</time>
      </trkpt>
      <trkpt lat="41.254463" lon="1.437037">
        <ele>179.6</ele>
        <time>2014-12-07T09:39:55Z</time>
      </trkpt>
      <trkpt lat="41.254154" lon="1.437263">
        <ele>179.6</ele>
        <time>2014-12-07T09:40:02Z</time>
      </trkpt>
      <trkpt lat="41.253910" lon="1.437490">
        <ele>179.6</ele>
        <time>2014-12-07T09:40:08Z</time>
      </trkpt>
      <trkpt lat="41.253830" lon="1.437550">
        <ele>179.6</ele>
        <time>2014-12-07T09:40:10Z</time>
      </trkpt>
      <trkpt lat="41.253681" lon="1.437618">
        <ele>179.6</ele>
        <time>2014-12-07T09:40:13Z</time>
      </trkpt>
      <trkpt lat="41.253544" lon="1.437660">
        <ele>179.2</ele>
        <time>2014-12-07T09:40:16Z</time>
      </trkpt>
      <trkpt lat="41.253494" lon="1.437683">
        <ele>178.8</ele>
        <time>2014-12-07T09:40:17Z</time>
      </trkpt>
      <trkpt lat="41.253448" lon="1.437696">
        <ele>178.4</ele>
        <time>2014-12-07T09:40:18Z</time>
      </trkpt>
      <trkpt lat="41.253399" lon="1.437708">
        <ele>178.0</ele>
        <time>2014-12-07T09:40:19Z</time>
      </trkpt>
      <trkpt lat="41.253345" lon="1.437725">
        <ele>177.6</ele>
        <time>2014-12-07T09:40:20Z</time>
      </trkpt>
      <trkpt lat="41.253132" lon="1.437763">
        <ele>177.6</ele>
        <time>2014-12-07T09:40:24Z</time>
      </trkpt>
      <trkpt lat="41.252777" lon="1.437847">
        <ele>177.6</ele>
        <time>2014-12-07T09:40:31Z</time>
      </trkpt>
      <trkpt lat="41.252445" lon="1.437928">
        <ele>177.6</ele>
        <time>2014-12-07T09:40:37Z</time>
      </trkpt>
      <trkpt lat="41.252121" lon="1.437989">
        <ele>177.6</ele>
        <time>2014-12-07T09:40:43Z</time>
      </trkpt>
      <trkpt lat="41.252022" lon="1.437962">
        <ele>177.6</ele>
        <time>2014-12-07T09:40:45Z</time>
      </trkpt>
      <trkpt lat="41.251862" lon="1.437899">
        <ele>177.6</ele>
        <time>2014-12-07T09:40:49Z</time>
      </trkpt>
      <trkpt lat="41.251820" lon="1.437878">
        <ele>177.0</ele>
        <time>2014-12-07T09:40:50Z</time>
      </trkpt>
      <trkpt lat="41.251766" lon="1.437851">
        <ele>176.6</ele>
        <time>2014-12-07T09:40:51Z</time>
      </trkpt>
      <trkpt lat="41.251713" lon="1.437824">
        <ele>176.0</ele>
        <time>2014-12-07T09:40:52Z</time>
      </trkpt>
      <trkpt lat="41.251659" lon="1.437799">
        <ele>175.6</ele>
        <time>2014-12-07T09:40:53Z</time>
      </trkpt>
      <trkpt lat="41.251606" lon="1.437766">
        <ele>174.8</ele>
        <time>2014-12-07T09:40:54Z</time>
      </trkpt>
      <trkpt lat="41.251556" lon="1.437736">
        <ele>174.2</ele>
        <time>2014-12-07T09:40:55Z</time>
      </trkpt>
      <trkpt lat="41.251514" lon="1.437717">
        <ele>173.6</ele>
        <time>2014-12-07T09:40:56Z</time>
      </trkpt>
      <trkpt lat="41.251476" lon="1.437702">
        <ele>172.8</ele>
        <time>2014-12-07T09:40:57Z</time>
      </trkpt>
      <trkpt lat="41.251442" lon="1.437685">
        <ele>172.2</ele>
        <time>2014-12-07T09:40:58Z</time>
      </trkpt>
      <trkpt lat="41.251396" lon="1.437641">
        <ele>171.8</ele>
        <time>2014-12-07T09:40:59Z</time>
      </trkpt>
      <trkpt lat="41.251369" lon="1.437592">
        <ele>171.4</ele>
        <time>2014-12-07T09:41:00Z</time>
      </trkpt>
      <trkpt lat="41.251350" lon="1.437526">
        <ele>170.8</ele>
        <time>2014-12-07T09:41:01Z</time>
      </trkpt>
      <trkpt lat="41.251335" lon="1.437451">
        <ele>170.4</ele>
        <time>2014-12-07T09:41:02Z</time>
      </trkpt>
      <trkpt lat="41.251343" lon="1.437370">
        <ele>170.0</ele>
        <time>2014-12-07T09:41:03Z</time>
      </trkpt>
      <trkpt lat="41.251347" lon="1.437290">
        <ele>170.0</ele>
        <time>2014-12-07T09:41:04Z</time>
      </trkpt>
      <trkpt lat="41.251350" lon="1.437219">
        <ele>170.0</ele>
        <time>2014-12-07T09:41:05Z</time>
      </trkpt>
      <trkpt lat="41.251354" lon="1.436809">
        <ele>170.0</ele>
        <time>2014-12-07T09:41:11Z</time>
      </trkpt>
      <trkpt lat="41.251362" lon="1.436632">
        <ele>170.0</ele>
        <time>2014-12-07T09:41:14Z</time>
      </trkpt>
      <trkpt lat="41.251350" lon="1.436508">
        <ele>170.0</ele>
        <time>2014-12-07T09:41:16Z</time>
      </trkpt>
      <trkpt lat="41.251263" lon="1.436155">
        <ele>169.6</ele>
        <time>2014-12-07T09:41:21Z</time>
      </trkpt>
      <trkpt lat="41.251251" lon="1.436086">
        <ele>169.2</ele>
        <time>2014-12-07T09:41:22Z</time>
      </trkpt>
      <trkpt lat="41.251244" lon="1.436020">
        <ele>168.8</ele>
        <time>2014-12-07T09:41:23Z</time>
      </trkpt>
      <trkpt lat="41.251225" lon="1.435964">
        <ele>168.4</ele>
        <time>2014-12-07T09:41:24Z</time>
      </trkpt>
      <trkpt lat="41.251205" lon="1.435929">
        <ele>168.0</ele>
        <time>2014-12-07T09:41:25Z</time>
      </trkpt>
      <trkpt lat="41.251167" lon="1.435916">
        <ele>168.0</ele>
        <time>2014-12-07T09:41:26Z</time>
      </trkpt>
      <trkpt lat="41.251102" lon="1.435896">
        <ele>167.4</ele>
        <time>2014-12-07T09:41:28Z</time>
      </trkpt>
      <trkpt lat="41.251064" lon="1.435892">
        <ele>166.6</ele>
        <time>2014-12-07T09:41:29Z</time>
      </trkpt>
      <trkpt lat="41.251022" lon="1.435896">
        <ele>166.0</ele>
        <time>2014-12-07T09:41:30Z</time>
      </trkpt>
      <trkpt lat="41.250984" lon="1.435904">
        <ele>165.6</ele>
        <time>2014-12-07T09:41:31Z</time>
      </trkpt>
      <trkpt lat="41.250954" lon="1.435915">
        <ele>165.6</ele>
        <time>2014-12-07T09:41:32Z</time>
      </trkpt>
      <trkpt lat="41.250904" lon="1.435960">
        <ele>165.6</ele>
        <time>2014-12-07T09:41:34Z</time>
      </trkpt>
      <trkpt lat="41.250893" lon="1.435985">
        <ele>166.0</ele>
        <time>2014-12-07T09:41:35Z</time>
      </trkpt>
      <trkpt lat="41.250881" lon="1.436017">
        <ele>166.4</ele>
        <time>2014-12-07T09:41:36Z</time>
      </trkpt>
      <trkpt lat="41.250870" lon="1.436057">
        <ele>166.8</ele>
        <time>2014-12-07T09:41:37Z</time>
      </trkpt>
      <trkpt lat="41.250858" lon="1.436098">
        <ele>167.2</ele>
        <time>2014-12-07T09:41:38Z</time>
      </trkpt>
      <trkpt lat="41.250854" lon="1.436145">
        <ele>167.6</ele>
        <time>2014-12-07T09:41:39Z</time>
      </trkpt>
      <trkpt lat="41.250851" lon="1.436203">
        <ele>167.6</ele>
        <time>2014-12-07T09:41:40Z</time>
      </trkpt>
      <trkpt lat="41.250847" lon="1.436315">
        <ele>168.0</ele>
        <time>2014-12-07T09:41:42Z</time>
      </trkpt>
      <trkpt lat="41.250843" lon="1.436368">
        <ele>168.4</ele>
        <time>2014-12-07T09:41:43Z</time>
      </trkpt>
      <trkpt lat="41.250839" lon="1.436424">
        <ele>168.8</ele>
        <time>2014-12-07T09:41:44Z</time>
      </trkpt>
      <trkpt lat="41.250839" lon="1.436476">
        <ele>169.2</ele>
        <time>2014-12-07T09:41:45Z</time>
      </trkpt>
      <trkpt lat="41.250832" lon="1.436535">
        <ele>169.6</ele>
        <time>2014-12-07T09:41:46Z</time>
      </trkpt>
      <trkpt lat="41.250824" lon="1.436647">
        <ele>169.6</ele>
        <time>2014-12-07T09:41:48Z</time>
      </trkpt>
      <trkpt lat="41.250790" lon="1.436810">
        <ele>169.6</ele>
        <time>2014-12-07T09:41:51Z</time>
      </trkpt>
      <trkpt lat="41.250687" lon="1.437071">
        <ele>169.6</ele>
        <time>2014-12-07T09:41:57Z</time>
      </trkpt>
      <trkpt lat="41.250671" lon="1.437112">
        <ele>170.0</ele>
        <time>2014-12-07T09:41:58Z</time>
      </trkpt>
      <trkpt lat="41.250652" lon="1.437157">
        <ele>170.4</ele>
        <time>2014-12-07T09:41:59Z</time>
      </trkpt>
      <trkpt lat="41.250637" lon="1.437203">
        <ele>171.0</ele>
        <time>2014-12-07T09:42:00Z</time>
      </trkpt>
      <trkpt lat="41.250622" lon="1.437244">
        <ele>171.4</ele>
        <time>2014-12-07T09:42:01Z</time>
      </trkpt>
      <trkpt lat="41.250599" lon="1.437294">
        <ele>171.8</ele>
        <time>2014-12-07T09:42:02Z</time>
      </trkpt>
      <trkpt lat="41.250568" lon="1.437329">
        <ele>171.8</ele>
        <time>2014-12-07T09:42:03Z</time>
      </trkpt>
      <trkpt lat="41.250538" lon="1.437352">
        <ele>171.8</ele>
        <time>2014-12-07T09:42:04Z</time>
      </trkpt>
      <trkpt lat="41.250374" lon="1.437387">
        <ele>171.8</ele>
        <time>2014-12-07T09:42:09Z</time>
      </trkpt>
      <trkpt lat="41.250244" lon="1.437416">
        <ele>172.2</ele>
        <time>2014-12-07T09:42:13Z</time>
      </trkpt>
      <trkpt lat="41.250214" lon="1.437404">
        <ele>172.6</ele>
        <time>2014-12-07T09:42:14Z</time>
      </trkpt>
      <trkpt lat="41.250187" lon="1.437383">
        <ele>173.0</ele>
        <time>2014-12-07T09:42:15Z</time>
      </trkpt>
      <trkpt lat="41.250160" lon="1.437364">
        <ele>173.4</ele>
        <time>2014-12-07T09:42:16Z</time>
      </trkpt>
      <trkpt lat="41.250137" lon="1.437348">
        <ele>173.8</ele>
        <time>2014-12-07T09:42:17Z</time>
      </trkpt>
      <trkpt lat="41.250069" lon="1.437275">
        <ele>174.4</ele>
        <time>2014-12-07T09:42:20Z</time>
      </trkpt>
      <trkpt lat="41.250050" lon="1.437245">
        <ele>174.8</ele>
        <time>2014-12-07T09:42:21Z</time>
      </trkpt>
      <trkpt lat="41.250031" lon="1.437215">
        <ele>175.2</ele>
        <time>2014-12-07T09:42:22Z</time>
      </trkpt>
      <trkpt lat="41.250011" lon="1.437185">
        <ele>175.6</ele>
        <time>2014-12-07T09:42:23Z</time>
      </trkpt>
      <trkpt lat="41.249992" lon="1.437156">
        <ele>176.0</ele>
        <time>2014-12-07T09:42:24Z</time>
      </trkpt>
      <trkpt lat="41.249958" lon="1.437100">
        <ele>176.0</ele>
        <time>2014-12-07T09:42:26Z</time>
      </trkpt>
      <trkpt lat="41.249924" lon="1.437037">
        <ele>176.4</ele>
        <time>2014-12-07T09:42:28Z</time>
      </trkpt>
      <trkpt lat="41.249908" lon="1.437000">
        <ele>177.0</ele>
        <time>2014-12-07T09:42:29Z</time>
      </trkpt>
      <trkpt lat="41.249912" lon="1.436967">
        <ele>177.4</ele>
        <time>2014-12-07T09:42:30Z</time>
      </trkpt>
      <trkpt lat="41.249924" lon="1.436936">
        <ele>177.8</ele>
        <time>2014-12-07T09:42:31Z</time>
      </trkpt>
      <trkpt lat="41.249939" lon="1.436904">
        <ele>178.4</ele>
        <time>2014-12-07T09:42:32Z</time>
      </trkpt>
      <trkpt lat="41.249996" lon="1.436802">
        <ele>178.4</ele>
        <time>2014-12-07T09:42:35Z</time>
      </trkpt>
      <trkpt lat="41.250015" lon="1.436769">
        <ele>178.4</ele>
        <time>2014-12-07T09:42:36Z</time>
      </trkpt>
      <trkpt lat="41.250069" lon="1.436610">
        <ele>178.4</ele>
        <time>2014-12-07T09:42:41Z</time>
      </trkpt>
      <trkpt lat="41.250042" lon="1.436546">
        <ele>178.8</ele>
        <time>2014-12-07T09:42:43Z</time>
      </trkpt>
      <trkpt lat="41.250034" lon="1.436509">
        <ele>179.2</ele>
        <time>2014-12-07T09:42:44Z</time>
      </trkpt>
      <trkpt lat="41.250027" lon="1.436471">
        <ele>179.6</ele>
        <time>2014-12-07T09:42:45Z</time>
      </trkpt>
      <trkpt lat="41.250034" lon="1.436434">
        <ele>180.0</ele>
        <time>2014-12-07T09:42:46Z</time>
      </trkpt>
      <trkpt lat="41.250031" lon="1.436396">
        <ele>180.4</ele>
        <time>2014-12-07T09:42:47Z</time>
      </trkpt>
      <trkpt lat="41.250027" lon="1.436321">
        <ele>180.4</ele>
        <time>2014-12-07T09:42:49Z</time>
      </trkpt>
      <trkpt lat="41.250034" lon="1.436246">
        <ele>180.4</ele>
        <time>2014-12-07T09:42:51Z</time>
      </trkpt>
      <trkpt lat="41.250046" lon="1.435975">
        <ele>180.4</ele>
        <time>2014-12-07T09:42:57Z</time>
      </trkpt>
      <trkpt lat="41.250031" lon="1.435607">
        <ele>180.4</ele>
        <time>2014-12-07T09:43:04Z</time>
      </trkpt>
      <trkpt lat="41.250050" lon="1.435334">
        <ele>180.4</ele>
        <time>2014-12-07T09:43:10Z</time>
      </trkpt>
      <trkpt lat="41.250015" lon="1.435195">
        <ele>180.4</ele>
        <time>2014-12-07T09:43:14Z</time>
      </trkpt>
      <trkpt lat="41.249916" lon="1.435151">
        <ele>180.4</ele>
        <time>2014-12-07T09:43:19Z</time>
      </trkpt>
      <trkpt lat="41.249893" lon="1.435145">
        <ele>181.0</ele>
        <time>2014-12-07T09:43:20Z</time>
      </trkpt>
      <trkpt lat="41.249866" lon="1.435144">
        <ele>181.4</ele>
        <time>2014-12-07T09:43:21Z</time>
      </trkpt>
      <trkpt lat="41.249836" lon="1.435146">
        <ele>181.8</ele>
        <time>2014-12-07T09:43:22Z</time>
      </trkpt>
      <trkpt lat="41.249809" lon="1.435152">
        <ele>182.2</ele>
        <time>2014-12-07T09:43:23Z</time>
      </trkpt>
      <trkpt lat="41.249783" lon="1.435157">
        <ele>182.6</ele>
        <time>2014-12-07T09:43:24Z</time>
      </trkpt>
      <trkpt lat="41.249733" lon="1.435156">
        <ele>183.0</ele>
        <time>2014-12-07T09:43:26Z</time>
      </trkpt>
      <trkpt lat="41.249706" lon="1.435164">
        <ele>183.4</ele>
        <time>2014-12-07T09:43:27Z</time>
      </trkpt>
      <trkpt lat="41.249680" lon="1.435169">
        <ele>183.8</ele>
        <time>2014-12-07T09:43:28Z</time>
      </trkpt>
      <trkpt lat="41.249649" lon="1.435172">
        <ele>184.2</ele>
        <time>2014-12-07T09:43:29Z</time>
      </trkpt>
      <trkpt lat="41.249622" lon="1.435175">
        <ele>184.8</ele>
        <time>2014-12-07T09:43:30Z</time>
      </trkpt>
      <trkpt lat="41.249599" lon="1.435180">
        <ele>185.2</ele>
        <time>2014-12-07T09:43:31Z</time>
      </trkpt>
      <trkpt lat="41.249577" lon="1.435185">
        <ele>186.2</ele>
        <time>2014-12-07T09:43:32Z</time>
      </trkpt>
      <trkpt lat="41.249550" lon="1.435186">
        <ele>186.8</ele>
        <time>2014-12-07T09:43:33Z</time>
      </trkpt>
      <trkpt lat="41.249519" lon="1.435184">
        <ele>186.8</ele>
        <time>2014-12-07T09:43:34Z</time>
      </trkpt>
      <trkpt lat="41.249393" lon="1.435186">
        <ele>187.2</ele>
        <time>2014-12-07T09:43:39Z</time>
      </trkpt>
      <trkpt lat="41.249371" lon="1.435185">
        <ele>187.6</ele>
        <time>2014-12-07T09:43:40Z</time>
      </trkpt>
      <trkpt lat="41.249348" lon="1.435182">
        <ele>188.0</ele>
        <time>2014-12-07T09:43:41Z</time>
      </trkpt>
      <trkpt lat="41.249325" lon="1.435174">
        <ele>188.4</ele>
        <time>2014-12-07T09:43:42Z</time>
      </trkpt>
      <trkpt lat="41.249302" lon="1.435168">
        <ele>188.8</ele>
        <time>2014-12-07T09:43:43Z</time>
      </trkpt>
      <trkpt lat="41.249249" lon="1.435172">
        <ele>188.8</ele>
        <time>2014-12-07T09:43:45Z</time>
      </trkpt>
      <trkpt lat="41.249168" lon="1.435189">
        <ele>189.2</ele>
        <time>2014-12-07T09:43:48Z</time>
      </trkpt>
      <trkpt lat="41.249142" lon="1.435196">
        <ele>189.6</ele>
        <time>2014-12-07T09:43:49Z</time>
      </trkpt>
      <trkpt lat="41.249115" lon="1.435200">
        <ele>190.0</ele>
        <time>2014-12-07T09:43:50Z</time>
      </trkpt>
      <trkpt lat="41.249084" lon="1.435200">
        <ele>190.4</ele>
        <time>2014-12-07T09:43:51Z</time>
      </trkpt>
      <trkpt lat="41.249054" lon="1.435197">
        <ele>190.8</ele>
        <time>2014-12-07T09:43:52Z</time>
      </trkpt>
      <trkpt lat="41.248898" lon="1.435203">
        <ele>191.2</ele>
        <time>2014-12-07T09:43:58Z</time>
      </trkpt>
      <trkpt lat="41.248871" lon="1.435210">
        <ele>191.8</ele>
        <time>2014-12-07T09:43:59Z</time>
      </trkpt>
      <trkpt lat="41.248848" lon="1.435214">
        <ele>192.2</ele>
        <time>2014-12-07T09:44:00Z</time>
      </trkpt>
      <trkpt lat="41.248825" lon="1.435217">
        <ele>192.6</ele>
        <time>2014-12-07T09:44:01Z</time>
      </trkpt>
      <trkpt lat="41.248795" lon="1.435220">
        <ele>193.2</ele>
        <time>2014-12-07T09:44:02Z</time>
      </trkpt>
      <trkpt lat="41.248741" lon="1.435224">
        <ele>193.2</ele>
        <time>2014-12-07T09:44:04Z</time>
      </trkpt>
      <trkpt lat="41.248688" lon="1.435229">
        <ele>193.6</ele>
        <time>2014-12-07T09:44:06Z</time>
      </trkpt>
      <trkpt lat="41.248661" lon="1.435236">
        <ele>194.0</ele>
        <time>2014-12-07T09:44:07Z</time>
      </trkpt>
      <trkpt lat="41.248634" lon="1.435246">
        <ele>194.4</ele>
        <time>2014-12-07T09:44:08Z</time>
      </trkpt>
      <trkpt lat="41.248608" lon="1.435254">
        <ele>194.8</ele>
        <time>2014-12-07T09:44:09Z</time>
      </trkpt>
      <trkpt lat="41.248577" lon="1.435259">
        <ele>195.2</ele>
        <time>2014-12-07T09:44:10Z</time>
      </trkpt>
      <trkpt lat="41.248417" lon="1.435250">
        <ele>195.2</ele>
        <time>2014-12-07T09:44:15Z</time>
      </trkpt>
      <trkpt lat="41.248241" lon="1.435239">
        <ele>195.2</ele>
        <time>2014-12-07T09:44:21Z</time>
      </trkpt>
      <trkpt lat="41.248085" lon="1.435230">
        <ele>195.6</ele>
        <time>2014-12-07T09:44:26Z</time>
      </trkpt>
      <trkpt lat="41.248055" lon="1.435227">
        <ele>196.0</ele>
        <time>2014-12-07T09:44:27Z</time>
      </trkpt>
      <trkpt lat="41.248028" lon="1.435225">
        <ele>196.4</ele>
        <time>2014-12-07T09:44:28Z</time>
      </trkpt>
      <trkpt lat="41.247997" lon="1.435222">
        <ele>197.0</ele>
        <time>2014-12-07T09:44:29Z</time>
      </trkpt>
      <trkpt lat="41.247967" lon="1.435221">
        <ele>197.4</ele>
        <time>2014-12-07T09:44:30Z</time>
      </trkpt>
      <trkpt lat="41.247883" lon="1.435219">
        <ele>197.4</ele>
        <time>2014-12-07T09:44:33Z</time>
      </trkpt>
      <trkpt lat="41.247829" lon="1.435215">
        <ele>197.8</ele>
        <time>2014-12-07T09:44:35Z</time>
      </trkpt>
      <trkpt lat="41.247799" lon="1.435212">
        <ele>198.2</ele>
        <time>2014-12-07T09:44:36Z</time>
      </trkpt>
      <trkpt lat="41.247772" lon="1.435212">
        <ele>198.6</ele>
        <time>2014-12-07T09:44:37Z</time>
      </trkpt>
      <trkpt lat="41.247742" lon="1.435211">
        <ele>199.2</ele>
        <time>2014-12-07T09:44:38Z</time>
      </trkpt>
      <trkpt lat="41.247715" lon="1.435209">
        <ele>199.6</ele>
        <time>2014-12-07T09:44:39Z</time>
      </trkpt>
      <trkpt lat="41.247688" lon="1.435211">
        <ele>199.6</ele>
        <time>2014-12-07T09:44:40Z</time>
      </trkpt>
      <trkpt lat="41.247524" lon="1.435224">
        <ele>199.6</ele>
        <time>2014-12-07T09:44:46Z</time>
      </trkpt>
      <trkpt lat="41.247307" lon="1.435209">
        <ele>199.6</ele>
        <time>2014-12-07T09:44:52Z</time>
      </trkpt>
      <trkpt lat="41.247082" lon="1.435172">
        <ele>199.6</ele>
        <time>2014-12-07T09:44:59Z</time>
      </trkpt>
      <trkpt lat="41.246826" lon="1.435182">
        <ele>199.6</ele>
        <time>2014-12-07T09:45:06Z</time>
      </trkpt>
      <trkpt lat="41.246567" lon="1.435183">
        <ele>200.0</ele>
        <time>2014-12-07T09:45:13Z</time>
      </trkpt>
      <trkpt lat="41.246532" lon="1.435185">
        <ele>200.4</ele>
        <time>2014-12-07T09:45:14Z</time>
      </trkpt>
      <trkpt lat="41.246494" lon="1.435186">
        <ele>200.8</ele>
        <time>2014-12-07T09:45:15Z</time>
      </trkpt>
      <trkpt lat="41.246460" lon="1.435186">
        <ele>201.2</ele>
        <time>2014-12-07T09:45:16Z</time>
      </trkpt>
      <trkpt lat="41.246429" lon="1.435187">
        <ele>201.6</ele>
        <time>2014-12-07T09:45:17Z</time>
      </trkpt>
      <trkpt lat="41.246330" lon="1.435196">
        <ele>202.0</ele>
        <time>2014-12-07T09:45:20Z</time>
      </trkpt>
      <trkpt lat="41.246296" lon="1.435201">
        <ele>202.4</ele>
        <time>2014-12-07T09:45:21Z</time>
      </trkpt>
      <trkpt lat="41.246262" lon="1.435201">
        <ele>203.0</ele>
        <time>2014-12-07T09:45:22Z</time>
      </trkpt>
      <trkpt lat="41.246227" lon="1.435199">
        <ele>203.4</ele>
        <time>2014-12-07T09:45:23Z</time>
      </trkpt>
      <trkpt lat="41.246193" lon="1.435200">
        <ele>203.8</ele>
        <time>2014-12-07T09:45:24Z</time>
      </trkpt>
      <trkpt lat="41.246159" lon="1.435200">
        <ele>203.8</ele>
        <time>2014-12-07T09:45:25Z</time>
      </trkpt>
      <trkpt lat="41.245983" lon="1.435248">
        <ele>203.8</ele>
        <time>2014-12-07T09:45:30Z</time>
      </trkpt>
      <trkpt lat="41.245808" lon="1.435294">
        <ele>203.8</ele>
        <time>2014-12-07T09:45:35Z</time>
      </trkpt>
      <trkpt lat="41.245762" lon="1.435298">
        <ele>203.8</ele>
        <time>2014-12-07T09:45:36Z</time>
      </trkpt>
      <trkpt lat="41.245628" lon="1.435354">
        <ele>203.8</ele>
        <time>2014-12-07T09:45:39Z</time>
      </trkpt>
      <trkpt lat="41.245544" lon="1.435413">
        <ele>203.8</ele>
        <time>2014-12-07T09:45:41Z</time>
      </trkpt>
      <trkpt lat="41.245506" lon="1.435451">
        <ele>203.8</ele>
        <time>2014-12-07T09:45:42Z</time>
      </trkpt>
      <trkpt lat="41.245403" lon="1.435557">
        <ele>203.8</ele>
        <time>2014-12-07T09:45:45Z</time>
      </trkpt>
      <trkpt lat="41.245338" lon="1.435616">
        <ele>203.8</ele>
        <time>2014-12-07T09:45:47Z</time>
      </trkpt>
      <trkpt lat="41.245167" lon="1.435720">
        <ele>203.8</ele>
        <time>2014-12-07T09:45:51Z</time>
      </trkpt>
      <trkpt lat="41.244957" lon="1.435796">
        <ele>203.8</ele>
        <time>2014-12-07T09:45:55Z</time>
      </trkpt>
      <trkpt lat="41.244907" lon="1.435824">
        <ele>203.8</ele>
        <time>2014-12-07T09:45:56Z</time>
      </trkpt>
      <trkpt lat="41.244534" lon="1.436040">
        <ele>203.8</ele>
        <time>2014-12-07T09:46:03Z</time>
      </trkpt>
      <trkpt lat="41.244488" lon="1.436081">
        <ele>203.8</ele>
        <time>2014-12-07T09:46:04Z</time>
      </trkpt>
      <trkpt lat="41.244362" lon="1.436167">
        <ele>203.8</ele>
        <time>2014-12-07T09:46:07Z</time>
      </trkpt>
      <trkpt lat="41.244324" lon="1.436193">
        <ele>203.8</ele>
        <time>2014-12-07T09:46:08Z</time>
      </trkpt>
      <trkpt lat="41.244289" lon="1.436223">
        <ele>203.8</ele>
        <time>2014-12-07T09:46:09Z</time>
      </trkpt>
      <trkpt lat="41.244129" lon="1.436319">
        <ele>203.8</ele>
        <time>2014-12-07T09:46:14Z</time>
      </trkpt>
      <trkpt lat="41.243965" lon="1.436409">
        <ele>203.8</ele>
        <time>2014-12-07T09:46:20Z</time>
      </trkpt>
      <trkpt lat="41.243835" lon="1.436530">
        <ele>203.8</ele>
        <time>2014-12-07T09:46:25Z</time>
      </trkpt>
      <trkpt lat="41.243805" lon="1.436560">
        <ele>204.2</ele>
        <time>2014-12-07T09:46:26Z</time>
      </trkpt>
      <trkpt lat="41.243774" lon="1.436589">
        <ele>204.6</ele>
        <time>2014-12-07T09:46:27Z</time>
      </trkpt>
      <trkpt lat="41.243744" lon="1.436619">
        <ele>205.0</ele>
        <time>2014-12-07T09:46:28Z</time>
      </trkpt>
      <trkpt lat="41.243713" lon="1.436646">
        <ele>205.4</ele>
        <time>2014-12-07T09:46:29Z</time>
      </trkpt>
      <trkpt lat="41.243679" lon="1.436664">
        <ele>205.8</ele>
        <time>2014-12-07T09:46:30Z</time>
      </trkpt>
      <trkpt lat="41.243607" lon="1.436680">
        <ele>205.8</ele>
        <time>2014-12-07T09:46:32Z</time>
      </trkpt>
      <trkpt lat="41.243443" lon="1.436791">
        <ele>205.8</ele>
        <time>2014-12-07T09:46:37Z</time>
      </trkpt>
      <trkpt lat="41.243320" lon="1.436879">
        <ele>205.8</ele>
        <time>2014-12-07T09:46:41Z</time>
      </trkpt>
      <trkpt lat="41.243229" lon="1.437051">
        <ele>205.8</ele>
        <time>2014-12-07T09:46:45Z</time>
      </trkpt>
      <trkpt lat="41.243206" lon="1.437160">
        <ele>205.8</ele>
        <time>2014-12-07T09:46:47Z</time>
      </trkpt>
      <trkpt lat="41.243206" lon="1.437216">
        <ele>205.8</ele>
        <time>2014-12-07T09:46:48Z</time>
      </trkpt>
      <trkpt lat="41.243198" lon="1.437276">
        <ele>206.4</ele>
        <time>2014-12-07T09:46:49Z</time>
      </trkpt>
      <trkpt lat="41.243195" lon="1.437332">
        <ele>207.2</ele>
        <time>2014-12-07T09:46:50Z</time>
      </trkpt>
      <trkpt lat="41.243187" lon="1.437385">
        <ele>207.6</ele>
        <time>2014-12-07T09:46:51Z</time>
      </trkpt>
      <trkpt lat="41.243172" lon="1.437427">
        <ele>208.0</ele>
        <time>2014-12-07T09:46:52Z</time>
      </trkpt>
      <trkpt lat="41.243076" lon="1.437436">
        <ele>208.0</ele>
        <time>2014-12-07T09:46:55Z</time>
      </trkpt>
      <trkpt lat="41.242924" lon="1.437403">
        <ele>208.0</ele>
        <time>2014-12-07T09:46:59Z</time>
      </trkpt>
      <trkpt lat="41.242737" lon="1.437513">
        <ele>208.0</ele>
        <time>2014-12-07T09:47:04Z</time>
      </trkpt>
      <trkpt lat="41.242619" lon="1.437570">
        <ele>208.0</ele>
        <time>2014-12-07T09:47:07Z</time>
      </trkpt>
      <trkpt lat="41.242546" lon="1.437614">
        <ele>208.0</ele>
        <time>2014-12-07T09:47:09Z</time>
      </trkpt>
      <trkpt lat="41.242290" lon="1.437819">
        <ele>208.0</ele>
        <time>2014-12-07T09:47:16Z</time>
      </trkpt>
      <trkpt lat="41.242134" lon="1.437890">
        <ele>208.4</ele>
        <time>2014-12-07T09:47:20Z</time>
      </trkpt>
      <trkpt lat="41.242100" lon="1.437898">
        <ele>208.8</ele>
        <time>2014-12-07T09:47:21Z</time>
      </trkpt>
      <trkpt lat="41.242058" lon="1.437896">
        <ele>209.2</ele>
        <time>2014-12-07T09:47:22Z</time>
      </trkpt>
      <trkpt lat="41.242027" lon="1.437876">
        <ele>209.6</ele>
        <time>2014-12-07T09:47:23Z</time>
      </trkpt>
      <trkpt lat="41.241997" lon="1.437860">
        <ele>210.0</ele>
        <time>2014-12-07T09:47:24Z</time>
      </trkpt>
      <trkpt lat="41.241909" lon="1.437933">
        <ele>210.0</ele>
        <time>2014-12-07T09:47:27Z</time>
      </trkpt>
      <trkpt lat="41.241821" lon="1.438042">
        <ele>210.0</ele>
        <time>2014-12-07T09:47:30Z</time>
      </trkpt>
      <trkpt lat="41.241760" lon="1.438096">
        <ele>210.0</ele>
        <time>2014-12-07T09:47:32Z</time>
      </trkpt>
      <trkpt lat="41.241589" lon="1.438229">
        <ele>210.4</ele>
        <time>2014-12-07T09:47:37Z</time>
      </trkpt>
      <trkpt lat="41.241550" lon="1.438236">
        <ele>210.8</ele>
        <time>2014-12-07T09:47:38Z</time>
      </trkpt>
      <trkpt lat="41.241512" lon="1.438225">
        <ele>211.4</ele>
        <time>2014-12-07T09:47:39Z</time>
      </trkpt>
      <trkpt lat="41.241478" lon="1.438202">
        <ele>212.2</ele>
        <time>2014-12-07T09:47:40Z</time>
      </trkpt>
      <trkpt lat="41.241367" lon="1.438216">
        <ele>212.2</ele>
        <time>2014-12-07T09:47:43Z</time>
      </trkpt>
      <trkpt lat="41.241291" lon="1.438259">
        <ele>212.2</ele>
        <time>2014-12-07T09:47:45Z</time>
      </trkpt>
      <trkpt lat="41.241234" lon="1.438342">
        <ele>212.2</ele>
        <time>2014-12-07T09:47:47Z</time>
      </trkpt>
      <trkpt lat="41.241188" lon="1.438432">
        <ele>212.6</ele>
        <time>2014-12-07T09:47:49Z</time>
      </trkpt>
      <trkpt lat="41.241158" lon="1.438466">
        <ele>213.0</ele>
        <time>2014-12-07T09:47:50Z</time>
      </trkpt>
      <trkpt lat="41.241123" lon="1.438488">
        <ele>213.4</ele>
        <time>2014-12-07T09:47:51Z</time>
      </trkpt>
      <trkpt lat="41.241085" lon="1.438506">
        <ele>214.0</ele>
        <time>2014-12-07T09:47:52Z</time>
      </trkpt>
      <trkpt lat="41.241055" lon="1.438529">
        <ele>214.4</ele>
        <time>2014-12-07T09:47:53Z</time>
      </trkpt>
      <trkpt lat="41.240932" lon="1.438634">
        <ele>214.4</ele>
        <time>2014-12-07T09:47:57Z</time>
      </trkpt>
      <trkpt lat="41.240875" lon="1.438642">
        <ele>214.4</ele>
        <time>2014-12-07T09:48:00Z</time>
      </trkpt>
      <trkpt lat="41.240879" lon="1.438596">
        <ele>214.4</ele>
        <time>2014-12-07T09:48:03Z</time>
      </trkpt>
      <trkpt lat="41.240845" lon="1.438588">
        <ele>214.4</ele>
        <time>2014-12-07T09:48:05Z</time>
      </trkpt>
      <trkpt lat="41.240826" lon="1.438594">
        <ele>214.8</ele>
        <time>2014-12-07T09:48:06Z</time>
      </trkpt>
      <trkpt lat="41.240803" lon="1.438598">
        <ele>215.2</ele>
        <time>2014-12-07T09:48:07Z</time>
      </trkpt>
      <trkpt lat="41.240780" lon="1.438610">
        <ele>215.6</ele>
        <time>2014-12-07T09:48:08Z</time>
      </trkpt>
      <trkpt lat="41.240757" lon="1.438635">
        <ele>216.2</ele>
        <time>2014-12-07T09:48:09Z</time>
      </trkpt>
      <trkpt lat="41.240738" lon="1.438666">
        <ele>216.6</ele>
        <time>2014-12-07T09:48:10Z</time>
      </trkpt>
      <trkpt lat="41.240639" lon="1.438851">
        <ele>216.6</ele>
        <time>2014-12-07T09:48:15Z</time>
      </trkpt>
      <trkpt lat="41.240574" lon="1.438961">
        <ele>217.0</ele>
        <time>2014-12-07T09:48:18Z</time>
      </trkpt>
      <trkpt lat="41.240547" lon="1.438998">
        <ele>217.4</ele>
        <time>2014-12-07T09:48:19Z</time>
      </trkpt>
      <trkpt lat="41.240528" lon="1.439036">
        <ele>217.8</ele>
        <time>2014-12-07T09:48:20Z</time>
      </trkpt>
      <trkpt lat="41.240501" lon="1.439073">
        <ele>218.2</ele>
        <time>2014-12-07T09:48:21Z</time>
      </trkpt>
      <trkpt lat="41.240479" lon="1.439109">
        <ele>218.6</ele>
        <time>2014-12-07T09:48:22Z</time>
      </trkpt>
      <trkpt lat="41.240368" lon="1.439319">
        <ele>218.6</ele>
        <time>2014-12-07T09:48:27Z</time>
      </trkpt>
      <trkpt lat="41.240341" lon="1.439364">
        <ele>218.6</ele>
        <time>2014-12-07T09:48:28Z</time>
      </trkpt>
      <trkpt lat="41.240242" lon="1.439539">
        <ele>218.6</ele>
        <time>2014-12-07T09:48:32Z</time>
      </trkpt>
      <trkpt lat="41.240189" lon="1.439605">
        <ele>219.0</ele>
        <time>2014-12-07T09:48:34Z</time>
      </trkpt>
      <trkpt lat="41.240162" lon="1.439607">
        <ele>219.4</ele>
        <time>2014-12-07T09:48:35Z</time>
      </trkpt>
      <trkpt lat="41.240139" lon="1.439588">
        <ele>219.8</ele>
        <time>2014-12-07T09:48:36Z</time>
      </trkpt>
      <trkpt lat="41.240116" lon="1.439562">
        <ele>220.2</ele>
        <time>2014-12-07T09:48:37Z</time>
      </trkpt>
      <trkpt lat="41.240093" lon="1.439530">
        <ele>220.8</ele>
        <time>2014-12-07T09:48:38Z</time>
      </trkpt>
      <trkpt lat="41.240036" lon="1.439481">
        <ele>221.2</ele>
        <time>2014-12-07T09:48:40Z</time>
      </trkpt>
      <trkpt lat="41.240005" lon="1.439465">
        <ele>221.6</ele>
        <time>2014-12-07T09:48:41Z</time>
      </trkpt>
      <trkpt lat="41.239979" lon="1.439452">
        <ele>222.0</ele>
        <time>2014-12-07T09:48:42Z</time>
      </trkpt>
      <trkpt lat="41.239948" lon="1.439433">
        <ele>222.4</ele>
        <time>2014-12-07T09:48:43Z</time>
      </trkpt>
      <trkpt lat="41.239914" lon="1.439410">
        <ele>222.8</ele>
        <time>2014-12-07T09:48:44Z</time>
      </trkpt>
      <trkpt lat="41.239868" lon="1.439343">
        <ele>222.8</ele>
        <time>2014-12-07T09:48:46Z</time>
      </trkpt>
      <trkpt lat="41.239796" lon="1.439229">
        <ele>223.2</ele>
        <time>2014-12-07T09:48:49Z</time>
      </trkpt>
      <trkpt lat="41.239773" lon="1.439197">
        <ele>223.6</ele>
        <time>2014-12-07T09:48:50Z</time>
      </trkpt>
      <trkpt lat="41.239742" lon="1.439168">
        <ele>224.0</ele>
        <time>2014-12-07T09:48:51Z</time>
      </trkpt>
      <trkpt lat="41.239716" lon="1.439142">
        <ele>224.4</ele>
        <time>2014-12-07T09:48:52Z</time>
      </trkpt>
      <trkpt lat="41.239693" lon="1.439116">
        <ele>224.8</ele>
        <time>2014-12-07T09:48:53Z</time>
      </trkpt>
      <trkpt lat="41.239544" lon="1.439005">
        <ele>224.8</ele>
        <time>2014-12-07T09:48:58Z</time>
      </trkpt>
      <trkpt lat="41.239346" lon="1.438864">
        <ele>224.8</ele>
        <time>2014-12-07T09:49:05Z</time>
      </trkpt>
      <trkpt lat="41.239193" lon="1.438774">
        <ele>224.8</ele>
        <time>2014-12-07T09:49:11Z</time>
      </trkpt>
      <trkpt lat="41.238983" lon="1.438754">
        <ele>224.8</ele>
        <time>2014-12-07T09:49:18Z</time>
      </trkpt>
      <trkpt lat="41.238781" lon="1.438760">
        <ele>224.8</ele>
        <time>2014-12-07T09:49:25Z</time>
      </trkpt>
      <trkpt lat="41.238735" lon="1.438644">
        <ele>224.8</ele>
        <time>2014-12-07T09:49:29Z</time>
      </trkpt>
      <trkpt lat="41.238731" lon="1.438577">
        <ele>224.4</ele>
        <time>2014-12-07T09:49:32Z</time>
      </trkpt>
      <trkpt lat="41.238731" lon="1.438557">
        <ele>224.0</ele>
        <time>2014-12-07T09:49:33Z</time>
      </trkpt>
      <trkpt lat="41.238728" lon="1.438539">
        <ele>223.4</ele>
        <time>2014-12-07T09:49:34Z</time>
      </trkpt>
      <trkpt lat="41.238724" lon="1.438523">
        <ele>223.0</ele>
        <time>2014-12-07T09:49:35Z</time>
      </trkpt>
      <trkpt lat="41.238712" lon="1.438507">
        <ele>222.6</ele>
        <time>2014-12-07T09:49:36Z</time>
      </trkpt>
      <trkpt lat="41.238697" lon="1.438449">
        <ele>222.6</ele>
        <time>2014-12-07T09:49:40Z</time>
      </trkpt>
      <trkpt lat="41.238686" lon="1.438425">
        <ele>222.6</ele>
        <time>2014-12-07T09:50:49Z</time>
      </trkpt>
      <trkpt lat="41.238636" lon="1.438267">
        <ele>222.6</ele>
        <time>2014-12-07T09:50:54Z</time>
      </trkpt>
      <trkpt lat="41.238605" lon="1.438167">
        <ele>222.6</ele>
        <time>2014-12-07T09:50:56Z</time>
      </trkpt>
      <trkpt lat="41.238586" lon="1.438107">
        <ele>221.6</ele>
        <time>2014-12-07T09:50:57Z</time>
      </trkpt>
      <trkpt lat="41.238567" lon="1.438046">
        <ele>221.2</ele>
        <time>2014-12-07T09:50:58Z</time>
      </trkpt>
      <trkpt lat="41.238544" lon="1.437985">
        <ele>220.8</ele>
        <time>2014-12-07T09:50:59Z</time>
      </trkpt>
      <trkpt lat="41.238525" lon="1.437925">
        <ele>220.4</ele>
        <time>2014-12-07T09:51:00Z</time>
      </trkpt>
      <trkpt lat="41.238506" lon="1.437863">
        <ele>220.4</ele>
        <time>2014-12-07T09:51:01Z</time>
      </trkpt>
      <trkpt lat="41.238464" lon="1.437731">
        <ele>220.4</ele>
        <time>2014-12-07T09:51:03Z</time>
      </trkpt>
      <trkpt lat="41.238426" lon="1.437596">
        <ele>220.4</ele>
        <time>2014-12-07T09:51:05Z</time>
      </trkpt>
      <trkpt lat="41.238369" lon="1.437415">
        <ele>220.0</ele>
        <time>2014-12-07T09:51:08Z</time>
      </trkpt>
      <trkpt lat="41.238346" lon="1.437359">
        <ele>219.4</ele>
        <time>2014-12-07T09:51:09Z</time>
      </trkpt>
      <trkpt lat="41.238327" lon="1.437306">
        <ele>219.0</ele>
        <time>2014-12-07T09:51:10Z</time>
      </trkpt>
      <trkpt lat="41.238308" lon="1.437255">
        <ele>218.6</ele>
        <time>2014-12-07T09:51:11Z</time>
      </trkpt>
      <trkpt lat="41.238293" lon="1.437208">
        <ele>218.2</ele>
        <time>2014-12-07T09:51:12Z</time>
      </trkpt>
      <trkpt lat="41.238266" lon="1.437172">
        <ele>218.2</ele>
        <time>2014-12-07T09:51:13Z</time>
      </trkpt>
      <trkpt lat="41.238235" lon="1.437157">
        <ele>218.2</ele>
        <time>2014-12-07T09:51:14Z</time>
      </trkpt>
      <trkpt lat="41.238182" lon="1.437179">
        <ele>218.6</ele>
        <time>2014-12-07T09:51:16Z</time>
      </trkpt>
      <trkpt lat="41.238152" lon="1.437198">
        <ele>219.2</ele>
        <time>2014-12-07T09:51:17Z</time>
      </trkpt>
      <trkpt lat="41.238121" lon="1.437221">
        <ele>219.6</ele>
        <time>2014-12-07T09:51:18Z</time>
      </trkpt>
      <trkpt lat="41.238091" lon="1.437242">
        <ele>220.2</ele>
        <time>2014-12-07T09:51:19Z</time>
      </trkpt>
      <trkpt lat="41.238060" lon="1.437255">
        <ele>220.6</ele>
        <time>2014-12-07T09:51:20Z</time>
      </trkpt>
      <trkpt lat="41.237991" lon="1.437252">
        <ele>220.6</ele>
        <time>2014-12-07T09:51:22Z</time>
      </trkpt>
      <trkpt lat="41.237949" lon="1.437236">
        <ele>220.6</ele>
        <time>2014-12-07T09:51:23Z</time>
      </trkpt>
      <trkpt lat="41.237801" lon="1.437174">
        <ele>220.6</ele>
        <time>2014-12-07T09:51:27Z</time>
      </trkpt>
      <trkpt lat="41.237537" lon="1.437078">
        <ele>220.6</ele>
        <time>2014-12-07T09:51:33Z</time>
      </trkpt>
      <trkpt lat="41.237488" lon="1.437069">
        <ele>220.6</ele>
        <time>2014-12-07T09:51:34Z</time>
      </trkpt>
      <trkpt lat="41.237331" lon="1.437018">
        <ele>220.6</ele>
        <time>2014-12-07T09:51:37Z</time>
      </trkpt>
      <trkpt lat="41.237144" lon="1.437000">
        <ele>220.6</ele>
        <time>2014-12-07T09:51:40Z</time>
      </trkpt>
      <trkpt lat="41.237080" lon="1.436986">
        <ele>220.6</ele>
        <time>2014-12-07T09:51:41Z</time>
      </trkpt>
      <trkpt lat="41.237019" lon="1.436963">
        <ele>220.2</ele>
        <time>2014-12-07T09:51:42Z</time>
      </trkpt>
      <trkpt lat="41.236954" lon="1.436937">
        <ele>219.8</ele>
        <time>2014-12-07T09:51:43Z</time>
      </trkpt>
      <trkpt lat="41.236897" lon="1.436918">
        <ele>219.4</ele>
        <time>2014-12-07T09:51:44Z</time>
      </trkpt>
      <trkpt lat="41.236843" lon="1.436898">
        <ele>219.0</ele>
        <time>2014-12-07T09:51:45Z</time>
      </trkpt>
      <trkpt lat="41.236790" lon="1.436872">
        <ele>218.6</ele>
        <time>2014-12-07T09:51:46Z</time>
      </trkpt>
      <trkpt lat="41.236694" lon="1.436816">
        <ele>218.6</ele>
        <time>2014-12-07T09:51:48Z</time>
      </trkpt>
      <trkpt lat="41.236595" lon="1.436780">
        <ele>218.6</ele>
        <time>2014-12-07T09:51:50Z</time>
      </trkpt>
      <trkpt lat="41.236458" lon="1.436736">
        <ele>218.6</ele>
        <time>2014-12-07T09:51:53Z</time>
      </trkpt>
      <trkpt lat="41.236320" lon="1.436670">
        <ele>218.6</ele>
        <time>2014-12-07T09:51:56Z</time>
      </trkpt>
      <trkpt lat="41.236168" lon="1.436599">
        <ele>218.6</ele>
        <time>2014-12-07T09:51:59Z</time>
      </trkpt>
      <trkpt lat="41.236111" lon="1.436586">
        <ele>218.6</ele>
        <time>2014-12-07T09:52:00Z</time>
      </trkpt>
      <trkpt lat="41.235950" lon="1.436564">
        <ele>218.2</ele>
        <time>2014-12-07T09:52:03Z</time>
      </trkpt>
      <trkpt lat="41.235897" lon="1.436579">
        <ele>217.8</ele>
        <time>2014-12-07T09:52:04Z</time>
      </trkpt>
      <trkpt lat="41.235832" lon="1.436596">
        <ele>217.4</ele>
        <time>2014-12-07T09:52:05Z</time>
      </trkpt>
      <trkpt lat="41.235767" lon="1.436616">
        <ele>216.6</ele>
        <time>2014-12-07T09:52:06Z</time>
      </trkpt>
      <trkpt lat="41.235695" lon="1.436637">
        <ele>216.0</ele>
        <time>2014-12-07T09:52:07Z</time>
      </trkpt>
      <trkpt lat="41.235622" lon="1.436656">
        <ele>215.2</ele>
        <time>2014-12-07T09:52:08Z</time>
      </trkpt>
      <trkpt lat="41.235554" lon="1.436680">
        <ele>214.2</ele>
        <time>2014-12-07T09:52:09Z</time>
      </trkpt>
      <trkpt lat="41.235497" lon="1.436716">
        <ele>213.4</ele>
        <time>2014-12-07T09:52:10Z</time>
      </trkpt>
      <trkpt lat="41.235443" lon="1.436769">
        <ele>211.8</ele>
        <time>2014-12-07T09:52:11Z</time>
      </trkpt>
      <trkpt lat="41.235325" lon="1.436996">
        <ele>211.8</ele>
        <time>2014-12-07T09:52:14Z</time>
      </trkpt>
      <trkpt lat="41.235287" lon="1.437069">
        <ele>211.2</ele>
        <time>2014-12-07T09:52:15Z</time>
      </trkpt>
      <trkpt lat="41.235245" lon="1.437140">
        <ele>210.6</ele>
        <time>2014-12-07T09:52:16Z</time>
      </trkpt>
      <trkpt lat="41.235207" lon="1.437207">
        <ele>210.0</ele>
        <time>2014-12-07T09:52:17Z</time>
      </trkpt>
      <trkpt lat="41.235165" lon="1.437268">
        <ele>209.2</ele>
        <time>2014-12-07T09:52:18Z</time>
      </trkpt>
      <trkpt lat="41.235126" lon="1.437310">
        <ele>208.4</ele>
        <time>2014-12-07T09:52:19Z</time>
      </trkpt>
      <trkpt lat="41.235077" lon="1.437330">
        <ele>207.8</ele>
        <time>2014-12-07T09:52:20Z</time>
      </trkpt>
      <trkpt lat="41.235027" lon="1.437330">
        <ele>207.0</ele>
        <time>2014-12-07T09:52:21Z</time>
      </trkpt>
      <trkpt lat="41.234982" lon="1.437328">
        <ele>206.0</ele>
        <time>2014-12-07T09:52:22Z</time>
      </trkpt>
      <trkpt lat="41.234940" lon="1.437340">
        <ele>205.2</ele>
        <time>2014-12-07T09:52:23Z</time>
      </trkpt>
      <trkpt lat="41.234901" lon="1.437378">
        <ele>204.4</ele>
        <time>2014-12-07T09:52:24Z</time>
      </trkpt>
      <trkpt lat="41.234867" lon="1.437436">
        <ele>203.4</ele>
        <time>2014-12-07T09:52:25Z</time>
      </trkpt>
      <trkpt lat="41.234848" lon="1.437507">
        <ele>203.0</ele>
        <time>2014-12-07T09:52:26Z</time>
      </trkpt>
      <trkpt lat="41.234833" lon="1.437587">
        <ele>202.4</ele>
        <time>2014-12-07T09:52:27Z</time>
      </trkpt>
      <trkpt lat="41.234821" lon="1.437675">
        <ele>202.0</ele>
        <time>2014-12-07T09:52:28Z</time>
      </trkpt>
      <trkpt lat="41.234810" lon="1.437751">
        <ele>201.4</ele>
        <time>2014-12-07T09:52:29Z</time>
      </trkpt>
      <trkpt lat="41.234802" lon="1.437824">
        <ele>201.0</ele>
        <time>2014-12-07T09:52:30Z</time>
      </trkpt>
      <trkpt lat="41.234749" lon="1.437966">
        <ele>200.4</ele>
        <time>2014-12-07T09:52:32Z</time>
      </trkpt>
      <trkpt lat="41.234703" lon="1.438039">
        <ele>200.0</ele>
        <time>2014-12-07T09:52:33Z</time>
      </trkpt>
      <trkpt lat="41.234657" lon="1.438112">
        <ele>199.6</ele>
        <time>2014-12-07T09:52:34Z</time>
      </trkpt>
      <trkpt lat="41.234604" lon="1.438187">
        <ele>199.2</ele>
        <time>2014-12-07T09:52:35Z</time>
      </trkpt>
      <trkpt lat="41.234558" lon="1.438260">
        <ele>198.8</ele>
        <time>2014-12-07T09:52:36Z</time>
      </trkpt>
      <trkpt lat="41.234512" lon="1.438329">
        <ele>198.4</ele>
        <time>2014-12-07T09:52:37Z</time>
      </trkpt>
      <trkpt lat="41.234470" lon="1.438396">
        <ele>198.0</ele>
        <time>2014-12-07T09:52:38Z</time>
      </trkpt>
      <trkpt lat="41.234428" lon="1.438462">
        <ele>197.4</ele>
        <time>2014-12-07T09:52:39Z</time>
      </trkpt>
      <trkpt lat="41.234386" lon="1.438532">
        <ele>196.8</ele>
        <time>2014-12-07T09:52:40Z</time>
      </trkpt>
      <trkpt lat="41.234341" lon="1.438601">
        <ele>196.0</ele>
        <time>2014-12-07T09:52:41Z</time>
      </trkpt>
      <trkpt lat="41.234291" lon="1.438667">
        <ele>195.2</ele>
        <time>2014-12-07T09:52:42Z</time>
      </trkpt>
      <trkpt lat="41.234234" lon="1.438731">
        <ele>194.6</ele>
        <time>2014-12-07T09:52:43Z</time>
      </trkpt>
      <trkpt lat="41.234169" lon="1.438788">
        <ele>193.8</ele>
        <time>2014-12-07T09:52:44Z</time>
      </trkpt>
      <trkpt lat="41.234100" lon="1.438839">
        <ele>193.0</ele>
        <time>2014-12-07T09:52:45Z</time>
      </trkpt>
      <trkpt lat="41.234035" lon="1.438883">
        <ele>192.2</ele>
        <time>2014-12-07T09:52:46Z</time>
      </trkpt>
      <trkpt lat="41.233963" lon="1.438921">
        <ele>191.4</ele>
        <time>2014-12-07T09:52:47Z</time>
      </trkpt>
      <trkpt lat="41.233894" lon="1.438954">
        <ele>191.4</ele>
        <time>2014-12-07T09:52:48Z</time>
      </trkpt>
      <trkpt lat="41.233826" lon="1.438985">
        <ele>191.0</ele>
        <time>2014-12-07T09:52:49Z</time>
      </trkpt>
      <trkpt lat="41.233757" lon="1.439022">
        <ele>190.4</ele>
        <time>2014-12-07T09:52:50Z</time>
      </trkpt>
      <trkpt lat="41.233692" lon="1.439062">
        <ele>189.6</ele>
        <time>2014-12-07T09:52:51Z</time>
      </trkpt>
      <trkpt lat="41.233635" lon="1.439102">
        <ele>189.0</ele>
        <time>2014-12-07T09:52:52Z</time>
      </trkpt>
      <trkpt lat="41.233589" lon="1.439141">
        <ele>188.2</ele>
        <time>2014-12-07T09:52:53Z</time>
      </trkpt>
      <trkpt lat="41.233543" lon="1.439172">
        <ele>187.2</ele>
        <time>2014-12-07T09:52:54Z</time>
      </trkpt>
      <trkpt lat="41.233490" lon="1.439194">
        <ele>186.4</ele>
        <time>2014-12-07T09:52:55Z</time>
      </trkpt>
      <trkpt lat="41.233433" lon="1.439211">
        <ele>185.6</ele>
        <time>2014-12-07T09:52:56Z</time>
      </trkpt>
      <trkpt lat="41.233368" lon="1.439227">
        <ele>184.6</ele>
        <time>2014-12-07T09:52:57Z</time>
      </trkpt>
      <trkpt lat="41.233299" lon="1.439237">
        <ele>183.8</ele>
        <time>2014-12-07T09:52:58Z</time>
      </trkpt>
      <trkpt lat="41.233223" lon="1.439232">
        <ele>182.8</ele>
        <time>2014-12-07T09:52:59Z</time>
      </trkpt>
      <trkpt lat="41.233147" lon="1.439220">
        <ele>182.0</ele>
        <time>2014-12-07T09:53:00Z</time>
      </trkpt>
      <trkpt lat="41.233067" lon="1.439209">
        <ele>180.0</ele>
        <time>2014-12-07T09:53:01Z</time>
      </trkpt>
      <trkpt lat="41.232986" lon="1.439191">
        <ele>179.6</ele>
        <time>2014-12-07T09:53:02Z</time>
      </trkpt>
      <trkpt lat="41.232906" lon="1.439163">
        <ele>179.0</ele>
        <time>2014-12-07T09:53:03Z</time>
      </trkpt>
      <trkpt lat="41.232838" lon="1.439137">
        <ele>178.6</ele>
        <time>2014-12-07T09:53:04Z</time>
      </trkpt>
      <trkpt lat="41.232769" lon="1.439119">
        <ele>178.2</ele>
        <time>2014-12-07T09:53:05Z</time>
      </trkpt>
      <trkpt lat="41.232704" lon="1.439114">
        <ele>177.6</ele>
        <time>2014-12-07T09:53:06Z</time>
      </trkpt>
      <trkpt lat="41.232635" lon="1.439132">
        <ele>177.0</ele>
        <time>2014-12-07T09:53:07Z</time>
      </trkpt>
      <trkpt lat="41.232571" lon="1.439164">
        <ele>176.4</ele>
        <time>2014-12-07T09:53:08Z</time>
      </trkpt>
      <trkpt lat="41.232498" lon="1.439204">
        <ele>175.6</ele>
        <time>2014-12-07T09:53:09Z</time>
      </trkpt>
      <trkpt lat="41.232430" lon="1.439247">
        <ele>174.8</ele>
        <time>2014-12-07T09:53:10Z</time>
      </trkpt>
      <trkpt lat="41.232361" lon="1.439293">
        <ele>174.2</ele>
        <time>2014-12-07T09:53:11Z</time>
      </trkpt>
      <trkpt lat="41.232292" lon="1.439340">
        <ele>173.4</ele>
        <time>2014-12-07T09:53:12Z</time>
      </trkpt>
      <trkpt lat="41.232224" lon="1.439395">
        <ele>172.8</ele>
        <time>2014-12-07T09:53:13Z</time>
      </trkpt>
      <trkpt lat="41.232155" lon="1.439448">
        <ele>172.0</ele>
        <time>2014-12-07T09:53:14Z</time>
      </trkpt>
      <trkpt lat="41.232086" lon="1.439501">
        <ele>171.4</ele>
        <time>2014-12-07T09:53:15Z</time>
      </trkpt>
      <trkpt lat="41.232018" lon="1.439544">
        <ele>170.6</ele>
        <time>2014-12-07T09:53:16Z</time>
      </trkpt>
      <trkpt lat="41.231937" lon="1.439579">
        <ele>169.8</ele>
        <time>2014-12-07T09:53:17Z</time>
      </trkpt>
      <trkpt lat="41.231857" lon="1.439614">
        <ele>169.0</ele>
        <time>2014-12-07T09:53:18Z</time>
      </trkpt>
      <trkpt lat="41.231773" lon="1.439644">
        <ele>168.2</ele>
        <time>2014-12-07T09:53:19Z</time>
      </trkpt>
      <trkpt lat="41.231686" lon="1.439673">
        <ele>167.6</ele>
        <time>2014-12-07T09:53:20Z</time>
      </trkpt>
      <trkpt lat="41.231609" lon="1.439706">
        <ele>167.0</ele>
        <time>2014-12-07T09:53:21Z</time>
      </trkpt>
      <trkpt lat="41.231529" lon="1.439739">
        <ele>166.4</ele>
        <time>2014-12-07T09:53:22Z</time>
      </trkpt>
      <trkpt lat="41.231445" lon="1.439766">
        <ele>165.8</ele>
        <time>2014-12-07T09:53:23Z</time>
      </trkpt>
      <trkpt lat="41.231369" lon="1.439792">
        <ele>165.0</ele>
        <time>2014-12-07T09:53:24Z</time>
      </trkpt>
      <trkpt lat="41.231289" lon="1.439818">
        <ele>163.6</ele>
        <time>2014-12-07T09:53:25Z</time>
      </trkpt>
      <trkpt lat="41.231209" lon="1.439845">
        <ele>162.8</ele>
        <time>2014-12-07T09:53:26Z</time>
      </trkpt>
      <trkpt lat="41.231129" lon="1.439869">
        <ele>162.2</ele>
        <time>2014-12-07T09:53:27Z</time>
      </trkpt>
      <trkpt lat="41.231045" lon="1.439901">
        <ele>161.2</ele>
        <time>2014-12-07T09:53:28Z</time>
      </trkpt>
      <trkpt lat="41.230976" lon="1.439942">
        <ele>160.4</ele>
        <time>2014-12-07T09:53:29Z</time>
      </trkpt>
      <trkpt lat="41.230900" lon="1.439978">
        <ele>159.6</ele>
        <time>2014-12-07T09:53:30Z</time>
      </trkpt>
      <trkpt lat="41.230824" lon="1.440015">
        <ele>158.6</ele>
        <time>2014-12-07T09:53:31Z</time>
      </trkpt>
      <trkpt lat="41.230743" lon="1.440050">
        <ele>158.0</ele>
        <time>2014-12-07T09:53:32Z</time>
      </trkpt>
      <trkpt lat="41.230663" lon="1.440083">
        <ele>157.4</ele>
        <time>2014-12-07T09:53:33Z</time>
      </trkpt>
      <trkpt lat="41.230579" lon="1.440106">
        <ele>156.8</ele>
        <time>2014-12-07T09:53:34Z</time>
      </trkpt>
      <trkpt lat="41.230495" lon="1.440128">
        <ele>156.2</ele>
        <time>2014-12-07T09:53:35Z</time>
      </trkpt>
      <trkpt lat="41.230412" lon="1.440148">
        <ele>155.6</ele>
        <time>2014-12-07T09:53:36Z</time>
      </trkpt>
      <trkpt lat="41.230312" lon="1.440160">
        <ele>155.0</ele>
        <time>2014-12-07T09:53:37Z</time>
      </trkpt>
      <trkpt lat="41.230213" lon="1.440150">
        <ele>154.6</ele>
        <time>2014-12-07T09:53:38Z</time>
      </trkpt>
      <trkpt lat="41.230106" lon="1.440125">
        <ele>154.2</ele>
        <time>2014-12-07T09:53:39Z</time>
      </trkpt>
      <trkpt lat="41.230003" lon="1.440104">
        <ele>153.4</ele>
        <time>2014-12-07T09:53:40Z</time>
      </trkpt>
      <trkpt lat="41.229897" lon="1.440082">
        <ele>152.8</ele>
        <time>2014-12-07T09:53:41Z</time>
      </trkpt>
      <trkpt lat="41.229797" lon="1.440062">
        <ele>152.0</ele>
        <time>2014-12-07T09:53:42Z</time>
      </trkpt>
      <trkpt lat="41.229694" lon="1.440048">
        <ele>151.2</ele>
        <time>2014-12-07T09:53:43Z</time>
      </trkpt>
      <trkpt lat="41.229607" lon="1.440067">
        <ele>150.4</ele>
        <time>2014-12-07T09:53:44Z</time>
      </trkpt>
      <trkpt lat="41.229527" lon="1.440120">
        <ele>149.6</ele>
        <time>2014-12-07T09:53:45Z</time>
      </trkpt>
      <trkpt lat="41.229439" lon="1.440181">
        <ele>148.8</ele>
        <time>2014-12-07T09:53:46Z</time>
      </trkpt>
      <trkpt lat="41.229343" lon="1.440226">
        <ele>148.2</ele>
        <time>2014-12-07T09:53:47Z</time>
      </trkpt>
      <trkpt lat="41.229237" lon="1.440246">
        <ele>147.6</ele>
        <time>2014-12-07T09:53:48Z</time>
      </trkpt>
      <trkpt lat="41.229126" lon="1.440251">
        <ele>147.0</ele>
        <time>2014-12-07T09:53:49Z</time>
      </trkpt>
      <trkpt lat="41.229023" lon="1.440256">
        <ele>145.4</ele>
        <time>2014-12-07T09:53:50Z</time>
      </trkpt>
      <trkpt lat="41.228928" lon="1.440261">
        <ele>144.4</ele>
        <time>2014-12-07T09:53:51Z</time>
      </trkpt>
      <trkpt lat="41.228855" lon="1.440264">
        <ele>143.6</ele>
        <time>2014-12-07T09:53:52Z</time>
      </trkpt>
      <trkpt lat="41.228802" lon="1.440264">
        <ele>142.6</ele>
        <time>2014-12-07T09:53:53Z</time>
      </trkpt>
      <trkpt lat="41.228756" lon="1.440263">
        <ele>141.8</ele>
        <time>2014-12-07T09:53:54Z</time>
      </trkpt>
      <trkpt lat="41.228718" lon="1.440262">
        <ele>141.0</ele>
        <time>2014-12-07T09:53:55Z</time>
      </trkpt>
      <trkpt lat="41.228676" lon="1.440261">
        <ele>140.0</ele>
        <time>2014-12-07T09:53:56Z</time>
      </trkpt>
      <trkpt lat="41.228622" lon="1.440268">
        <ele>139.2</ele>
        <time>2014-12-07T09:53:57Z</time>
      </trkpt>
      <trkpt lat="41.228558" lon="1.440286">
        <ele>138.4</ele>
        <time>2014-12-07T09:53:58Z</time>
      </trkpt>
      <trkpt lat="41.228458" lon="1.440350">
        <ele>138.4</ele>
        <time>2014-12-07T09:54:00Z</time>
      </trkpt>
      <trkpt lat="41.228374" lon="1.440446">
        <ele>138.0</ele>
        <time>2014-12-07T09:54:02Z</time>
      </trkpt>
      <trkpt lat="41.228325" lon="1.440498">
        <ele>137.6</ele>
        <time>2014-12-07T09:54:03Z</time>
      </trkpt>
      <trkpt lat="41.228271" lon="1.440549">
        <ele>137.0</ele>
        <time>2014-12-07T09:54:04Z</time>
      </trkpt>
      <trkpt lat="41.228210" lon="1.440599">
        <ele>136.6</ele>
        <time>2014-12-07T09:54:05Z</time>
      </trkpt>
      <trkpt lat="41.228142" lon="1.440643">
        <ele>136.2</ele>
        <time>2014-12-07T09:54:06Z</time>
      </trkpt>
      <trkpt lat="41.227993" lon="1.440709">
        <ele>136.2</ele>
        <time>2014-12-07T09:54:08Z</time>
      </trkpt>
      <trkpt lat="41.227913" lon="1.440729">
        <ele>135.8</ele>
        <time>2014-12-07T09:54:09Z</time>
      </trkpt>
      <trkpt lat="41.227833" lon="1.440737">
        <ele>135.4</ele>
        <time>2014-12-07T09:54:10Z</time>
      </trkpt>
      <trkpt lat="41.227749" lon="1.440730">
        <ele>135.0</ele>
        <time>2014-12-07T09:54:11Z</time>
      </trkpt>
      <trkpt lat="41.227665" lon="1.440713">
        <ele>134.6</ele>
        <time>2014-12-07T09:54:12Z</time>
      </trkpt>
      <trkpt lat="41.227573" lon="1.440686">
        <ele>134.0</ele>
        <time>2014-12-07T09:54:13Z</time>
      </trkpt>
      <trkpt lat="41.227413" lon="1.440618">
        <ele>134.0</ele>
        <time>2014-12-07T09:54:15Z</time>
      </trkpt>
      <trkpt lat="41.227341" lon="1.440580">
        <ele>133.6</ele>
        <time>2014-12-07T09:54:16Z</time>
      </trkpt>
      <trkpt lat="41.227264" lon="1.440547">
        <ele>133.2</ele>
        <time>2014-12-07T09:54:17Z</time>
      </trkpt>
      <trkpt lat="41.227184" lon="1.440522">
        <ele>132.8</ele>
        <time>2014-12-07T09:54:18Z</time>
      </trkpt>
      <trkpt lat="41.227104" lon="1.440510">
        <ele>132.4</ele>
        <time>2014-12-07T09:54:19Z</time>
      </trkpt>
      <trkpt lat="41.227024" lon="1.440508">
        <ele>132.0</ele>
        <time>2014-12-07T09:54:20Z</time>
      </trkpt>
      <trkpt lat="41.226940" lon="1.440519">
        <ele>132.0</ele>
        <time>2014-12-07T09:54:21Z</time>
      </trkpt>
      <trkpt lat="41.226696" lon="1.440601">
        <ele>132.0</ele>
        <time>2014-12-07T09:54:24Z</time>
      </trkpt>
      <trkpt lat="41.226616" lon="1.440638">
        <ele>132.0</ele>
        <time>2014-12-07T09:54:25Z</time>
      </trkpt>
      <trkpt lat="41.226231" lon="1.440871">
        <ele>132.0</ele>
        <time>2014-12-07T09:54:30Z</time>
      </trkpt>
      <trkpt lat="41.226166" lon="1.440938">
        <ele>132.0</ele>
        <time>2014-12-07T09:54:31Z</time>
      </trkpt>
      <trkpt lat="41.225948" lon="1.441266">
        <ele>132.0</ele>
        <time>2014-12-07T09:54:35Z</time>
      </trkpt>
      <trkpt lat="41.225887" lon="1.441361">
        <ele>131.4</ele>
        <time>2014-12-07T09:54:36Z</time>
      </trkpt>
      <trkpt lat="41.225822" lon="1.441449">
        <ele>131.0</ele>
        <time>2014-12-07T09:54:37Z</time>
      </trkpt>
      <trkpt lat="41.225758" lon="1.441530">
        <ele>130.6</ele>
        <time>2014-12-07T09:54:38Z</time>
      </trkpt>
      <trkpt lat="41.225693" lon="1.441590">
        <ele>129.6</ele>
        <time>2014-12-07T09:54:39Z</time>
      </trkpt>
      <trkpt lat="41.225559" lon="1.441653">
        <ele>129.2</ele>
        <time>2014-12-07T09:54:41Z</time>
      </trkpt>
      <trkpt lat="41.225498" lon="1.441664">
        <ele>128.8</ele>
        <time>2014-12-07T09:54:42Z</time>
      </trkpt>
      <trkpt lat="41.225433" lon="1.441666">
        <ele>128.4</ele>
        <time>2014-12-07T09:54:43Z</time>
      </trkpt>
      <trkpt lat="41.225361" lon="1.441656">
        <ele>128.0</ele>
        <time>2014-12-07T09:54:44Z</time>
      </trkpt>
      <trkpt lat="41.225296" lon="1.441634">
        <ele>127.6</ele>
        <time>2014-12-07T09:54:45Z</time>
      </trkpt>
      <trkpt lat="41.225235" lon="1.441600">
        <ele>127.6</ele>
        <time>2014-12-07T09:54:46Z</time>
      </trkpt>
      <trkpt lat="41.225060" lon="1.441465">
        <ele>127.6</ele>
        <time>2014-12-07T09:54:49Z</time>
      </trkpt>
      <trkpt lat="41.225010" lon="1.441417">
        <ele>127.6</ele>
        <time>2014-12-07T09:54:50Z</time>
      </trkpt>
      <trkpt lat="41.224957" lon="1.441379">
        <ele>127.6</ele>
        <time>2014-12-07T09:54:51Z</time>
      </trkpt>
      <trkpt lat="41.224846" lon="1.441344">
        <ele>127.6</ele>
        <time>2014-12-07T09:54:53Z</time>
      </trkpt>
      <trkpt lat="41.224678" lon="1.441338">
        <ele>127.6</ele>
        <time>2014-12-07T09:54:56Z</time>
      </trkpt>
      <trkpt lat="41.224552" lon="1.441343">
        <ele>127.0</ele>
        <time>2014-12-07T09:54:58Z</time>
      </trkpt>
      <trkpt lat="41.224483" lon="1.441346">
        <ele>126.6</ele>
        <time>2014-12-07T09:54:59Z</time>
      </trkpt>
      <trkpt lat="41.224411" lon="1.441352">
        <ele>126.2</ele>
        <time>2014-12-07T09:55:00Z</time>
      </trkpt>
      <trkpt lat="41.224346" lon="1.441360">
        <ele>125.6</ele>
        <time>2014-12-07T09:55:01Z</time>
      </trkpt>
      <trkpt lat="41.224277" lon="1.441367">
        <ele>125.2</ele>
        <time>2014-12-07T09:55:02Z</time>
      </trkpt>
      <trkpt lat="41.224140" lon="1.441368">
        <ele>124.4</ele>
        <time>2014-12-07T09:55:04Z</time>
      </trkpt>
      <trkpt lat="41.224075" lon="1.441369">
        <ele>124.0</ele>
        <time>2014-12-07T09:55:05Z</time>
      </trkpt>
      <trkpt lat="41.224010" lon="1.441371">
        <ele>123.6</ele>
        <time>2014-12-07T09:55:06Z</time>
      </trkpt>
      <trkpt lat="41.223949" lon="1.441372">
        <ele>123.2</ele>
        <time>2014-12-07T09:55:07Z</time>
      </trkpt>
      <trkpt lat="41.223850" lon="1.441380">
        <ele>123.2</ele>
        <time>2014-12-07T09:55:09Z</time>
      </trkpt>
      <trkpt lat="41.223778" lon="1.441392">
        <ele>122.8</ele>
        <time>2014-12-07T09:55:11Z</time>
      </trkpt>
      <trkpt lat="41.223743" lon="1.441404">
        <ele>122.2</ele>
        <time>2014-12-07T09:55:12Z</time>
      </trkpt>
      <trkpt lat="41.223717" lon="1.441419">
        <ele>121.8</ele>
        <time>2014-12-07T09:55:13Z</time>
      </trkpt>
      <trkpt lat="41.223690" lon="1.441444">
        <ele>121.4</ele>
        <time>2014-12-07T09:55:14Z</time>
      </trkpt>
      <trkpt lat="41.223675" lon="1.441472">
        <ele>121.0</ele>
        <time>2014-12-07T09:55:15Z</time>
      </trkpt>
      <trkpt lat="41.223656" lon="1.441515">
        <ele>121.0</ele>
        <time>2014-12-07T09:55:17Z</time>
      </trkpt>
      <trkpt lat="41.223652" lon="1.441543">
        <ele>121.0</ele>
        <time>2014-12-07T09:55:18Z</time>
      </trkpt>
      <trkpt lat="41.223660" lon="1.441634">
        <ele>121.0</ele>
        <time>2014-12-07T09:55:21Z</time>
      </trkpt>
      <trkpt lat="41.223644" lon="1.441717">
        <ele>121.4</ele>
        <time>2014-12-07T09:55:24Z</time>
      </trkpt>
      <trkpt lat="41.223637" lon="1.441743">
        <ele>121.8</ele>
        <time>2014-12-07T09:55:25Z</time>
      </trkpt>
      <trkpt lat="41.223637" lon="1.441772">
        <ele>122.2</ele>
        <time>2014-12-07T09:55:26Z</time>
      </trkpt>
      <trkpt lat="41.223633" lon="1.441805">
        <ele>122.6</ele>
        <time>2014-12-07T09:55:27Z</time>
      </trkpt>
      <trkpt lat="41.223633" lon="1.441835">
        <ele>123.0</ele>
        <time>2014-12-07T09:55:28Z</time>
      </trkpt>
      <trkpt lat="41.223633" lon="1.441922">
        <ele>123.4</ele>
        <time>2014-12-07T09:55:31Z</time>
      </trkpt>
      <trkpt lat="41.223625" lon="1.441953">
        <ele>123.8</ele>
        <time>2014-12-07T09:55:32Z</time>
      </trkpt>
      <trkpt lat="41.223618" lon="1.441981">
        <ele>124.4</ele>
        <time>2014-12-07T09:55:33Z</time>
      </trkpt>
      <trkpt lat="41.223598" lon="1.442007">
        <ele>124.8</ele>
        <time>2014-12-07T09:55:34Z</time>
      </trkpt>
      <trkpt lat="41.223583" lon="1.442024">
        <ele>125.4</ele>
        <time>2014-12-07T09:55:35Z</time>
      </trkpt>
      <trkpt lat="41.223564" lon="1.442036">
        <ele>126.2</ele>
        <time>2014-12-07T09:55:36Z</time>
      </trkpt>
      <trkpt lat="41.223545" lon="1.442043">
        <ele>127.0</ele>
        <time>2014-12-07T09:55:37Z</time>
      </trkpt>
      <trkpt lat="41.223526" lon="1.442061">
        <ele>127.8</ele>
        <time>2014-12-07T09:55:38Z</time>
      </trkpt>
      <trkpt lat="41.223503" lon="1.442072">
        <ele>128.6</ele>
        <time>2014-12-07T09:55:39Z</time>
      </trkpt>
      <trkpt lat="41.223480" lon="1.442085">
        <ele>129.4</ele>
        <time>2014-12-07T09:55:40Z</time>
      </trkpt>
      <trkpt lat="41.223454" lon="1.442091">
        <ele>130.2</ele>
        <time>2014-12-07T09:55:41Z</time>
      </trkpt>
      <trkpt lat="41.223412" lon="1.442107">
        <ele>130.2</ele>
        <time>2014-12-07T09:55:43Z</time>
      </trkpt>
      <trkpt lat="41.223335" lon="1.442145">
        <ele>130.6</ele>
        <time>2014-12-07T09:55:47Z</time>
      </trkpt>
      <trkpt lat="41.223312" lon="1.442156">
        <ele>131.2</ele>
        <time>2014-12-07T09:55:48Z</time>
      </trkpt>
      <trkpt lat="41.223301" lon="1.442170">
        <ele>131.6</ele>
        <time>2014-12-07T09:55:49Z</time>
      </trkpt>
      <trkpt lat="41.223282" lon="1.442186">
        <ele>132.0</ele>
        <time>2014-12-07T09:55:50Z</time>
      </trkpt>
      <trkpt lat="41.223267" lon="1.442196">
        <ele>132.6</ele>
        <time>2014-12-07T09:55:51Z</time>
      </trkpt>
      <trkpt lat="41.223240" lon="1.442221">
        <ele>132.6</ele>
        <time>2014-12-07T09:55:53Z</time>
      </trkpt>
      <trkpt lat="41.223232" lon="1.442230">
        <ele>133.0</ele>
        <time>2014-12-07T09:55:54Z</time>
      </trkpt>
      <trkpt lat="41.223225" lon="1.442238">
        <ele>133.4</ele>
        <time>2014-12-07T09:55:55Z</time>
      </trkpt>
      <trkpt lat="41.223213" lon="1.442247">
        <ele>133.8</ele>
        <time>2014-12-07T09:55:56Z</time>
      </trkpt>
      <trkpt lat="41.223202" lon="1.442252">
        <ele>134.2</ele>
        <time>2014-12-07T09:55:57Z</time>
      </trkpt>
      <trkpt lat="41.223190" lon="1.442255">
        <ele>134.6</ele>
        <time>2014-12-07T09:55:58Z</time>
      </trkpt>
      <trkpt lat="41.223183" lon="1.442251">
        <ele>134.6</ele>
        <time>2014-12-07T09:55:59Z</time>
      </trkpt>
      <trkpt lat="41.223125" lon="1.442237">
        <ele>134.6</ele>
        <time>2014-12-07T09:56:03Z</time>
      </trkpt>
      <trkpt lat="41.223103" lon="1.442235">
        <ele>134.6</ele>
        <time>2014-12-07T09:56:05Z</time>
      </trkpt>
      <trkpt lat="41.223034" lon="1.442258">
        <ele>134.6</ele>
        <time>2014-12-07T09:56:10Z</time>
      </trkpt>
      <trkpt lat="41.223030" lon="1.442279">
        <ele>134.6</ele>
        <time>2014-12-07T09:56:11Z</time>
      </trkpt>
      <trkpt lat="41.223038" lon="1.442300">
        <ele>134.6</ele>
        <time>2014-12-07T09:56:14Z</time>
      </trkpt>
      <trkpt lat="41.223049" lon="1.442292">
        <ele>134.6</ele>
        <time>2014-12-07T09:56:16Z</time>
      </trkpt>
      <trkpt lat="41.223099" lon="1.442255">
        <ele>134.6</ele>
        <time>2014-12-07T09:56:23Z</time>
      </trkpt>
      <trkpt lat="41.223106" lon="1.442243">
        <ele>134.2</ele>
        <time>2014-12-07T09:56:24Z</time>
      </trkpt>
      <trkpt lat="41.223103" lon="1.442234">
        <ele>133.6</ele>
        <time>2014-12-07T09:56:25Z</time>
      </trkpt>
      <trkpt lat="41.223091" lon="1.442229">
        <ele>133.2</ele>
        <time>2014-12-07T09:56:26Z</time>
      </trkpt>
      <trkpt lat="41.223080" lon="1.442228">
        <ele>132.8</ele>
        <time>2014-12-07T09:56:27Z</time>
      </trkpt>
      <trkpt lat="41.223072" lon="1.442234">
        <ele>132.4</ele>
        <time>2014-12-07T09:56:28Z</time>
      </trkpt>
      <trkpt lat="41.223072" lon="1.442238">
        <ele>132.4</ele>
        <time>2014-12-07T09:56:29Z</time>
      </trkpt>
      <trkpt lat="41.223038" lon="1.442240">
        <ele>135.6</ele>
        <time>2014-12-07T09:56:43Z</time>
      </trkpt>
      <trkpt lat="41.223030" lon="1.442220">
        <ele>135.0</ele>
        <time>2014-12-07T09:56:44Z</time>
      </trkpt>
      <trkpt lat="41.223011" lon="1.442197">
        <ele>134.6</ele>
        <time>2014-12-07T09:56:45Z</time>
      </trkpt>
      <trkpt lat="41.222984" lon="1.442180">
        <ele>134.0</ele>
        <time>2014-12-07T09:56:46Z</time>
      </trkpt>
      <trkpt lat="41.222958" lon="1.442164">
        <ele>134.0</ele>
        <time>2014-12-07T09:56:47Z</time>
      </trkpt>
      <trkpt lat="41.222786" lon="1.441998">
        <ele>134.0</ele>
        <time>2014-12-07T09:56:55Z</time>
      </trkpt>
      <trkpt lat="41.222713" lon="1.441917">
        <ele>133.6</ele>
        <time>2014-12-07T09:56:58Z</time>
      </trkpt>
      <trkpt lat="41.222687" lon="1.441883">
        <ele>133.0</ele>
        <time>2014-12-07T09:56:59Z</time>
      </trkpt>
      <trkpt lat="41.222660" lon="1.441852">
        <ele>132.6</ele>
        <time>2014-12-07T09:57:00Z</time>
      </trkpt>
      <trkpt lat="41.222633" lon="1.441817">
        <ele>132.0</ele>
        <time>2014-12-07T09:57:01Z</time>
      </trkpt>
      <trkpt lat="41.222607" lon="1.441785">
        <ele>131.6</ele>
        <time>2014-12-07T09:57:02Z</time>
      </trkpt>
      <trkpt lat="41.222454" lon="1.441581">
        <ele>130.8</ele>
        <time>2014-12-07T09:57:08Z</time>
      </trkpt>
      <trkpt lat="41.222431" lon="1.441555">
        <ele>130.2</ele>
        <time>2014-12-07T09:57:09Z</time>
      </trkpt>
      <trkpt lat="41.222404" lon="1.441523">
        <ele>129.8</ele>
        <time>2014-12-07T09:57:10Z</time>
      </trkpt>
      <trkpt lat="41.222378" lon="1.441489">
        <ele>129.4</ele>
        <time>2014-12-07T09:57:11Z</time>
      </trkpt>
      <trkpt lat="41.222305" lon="1.441404">
        <ele>129.0</ele>
        <time>2014-12-07T09:57:13Z</time>
      </trkpt>
      <trkpt lat="41.222263" lon="1.441353">
        <ele>128.6</ele>
        <time>2014-12-07T09:57:14Z</time>
      </trkpt>
      <trkpt lat="41.222225" lon="1.441309">
        <ele>128.2</ele>
        <time>2014-12-07T09:57:15Z</time>
      </trkpt>
      <trkpt lat="41.222187" lon="1.441264">
        <ele>127.6</ele>
        <time>2014-12-07T09:57:16Z</time>
      </trkpt>
      <trkpt lat="41.222149" lon="1.441216">
        <ele>127.2</ele>
        <time>2014-12-07T09:57:17Z</time>
      </trkpt>
      <trkpt lat="41.222088" lon="1.441121">
        <ele>127.2</ele>
        <time>2014-12-07T09:57:19Z</time>
      </trkpt>
      <trkpt lat="41.222061" lon="1.441068">
        <ele>127.2</ele>
        <time>2014-12-07T09:57:20Z</time>
      </trkpt>
      <trkpt lat="41.221962" lon="1.440826">
        <ele>126.8</ele>
        <time>2014-12-07T09:57:25Z</time>
      </trkpt>
      <trkpt lat="41.221962" lon="1.440795">
        <ele>126.4</ele>
        <time>2014-12-07T09:57:26Z</time>
      </trkpt>
      <trkpt lat="41.221966" lon="1.440764">
        <ele>126.0</ele>
        <time>2014-12-07T09:57:27Z</time>
      </trkpt>
      <trkpt lat="41.221973" lon="1.440730">
        <ele>125.6</ele>
        <time>2014-12-07T09:57:28Z</time>
      </trkpt>
      <trkpt lat="41.221981" lon="1.440689">
        <ele>125.2</ele>
        <time>2014-12-07T09:57:29Z</time>
      </trkpt>
      <trkpt lat="41.221992" lon="1.440645">
        <ele>125.2</ele>
        <time>2014-12-07T09:57:30Z</time>
      </trkpt>
      <trkpt lat="41.222038" lon="1.440396">
        <ele>125.2</ele>
        <time>2014-12-07T09:57:35Z</time>
      </trkpt>
      <trkpt lat="41.222061" lon="1.440296">
        <ele>125.2</ele>
        <time>2014-12-07T09:57:37Z</time>
      </trkpt>
      <trkpt lat="41.222065" lon="1.440257">
        <ele>124.2</ele>
        <time>2014-12-07T09:57:38Z</time>
      </trkpt>
      <trkpt lat="41.222054" lon="1.440220">
        <ele>123.0</ele>
        <time>2014-12-07T09:57:39Z</time>
      </trkpt>
      <trkpt lat="41.222027" lon="1.440197">
        <ele>121.8</ele>
        <time>2014-12-07T09:57:40Z</time>
      </trkpt>
      <trkpt lat="41.221996" lon="1.440179">
        <ele>120.6</ele>
        <time>2014-12-07T09:57:41Z</time>
      </trkpt>
      <trkpt lat="41.221954" lon="1.440163">
        <ele>119.4</ele>
        <time>2014-12-07T09:57:42Z</time>
      </trkpt>
      <trkpt lat="41.221912" lon="1.440146">
        <ele>118.0</ele>
        <time>2014-12-07T09:57:43Z</time>
      </trkpt>
      <trkpt lat="41.221832" lon="1.440107">
        <ele>118.0</ele>
        <time>2014-12-07T09:57:45Z</time>
      </trkpt>
      <trkpt lat="41.221577" lon="1.439915">
        <ele>118.0</ele>
        <time>2014-12-07T09:57:52Z</time>
      </trkpt>
      <trkpt lat="41.221447" lon="1.439799">
        <ele>118.0</ele>
        <time>2014-12-07T09:57:56Z</time>
      </trkpt>
      <trkpt lat="41.221397" lon="1.439752">
        <ele>118.0</ele>
        <time>2014-12-07T09:57:58Z</time>
      </trkpt>
      <trkpt lat="41.221367" lon="1.439734">
        <ele>117.6</ele>
        <time>2014-12-07T09:58:00Z</time>
      </trkpt>
      <trkpt lat="41.221363" lon="1.439731">
        <ele>117.2</ele>
        <time>2014-12-07T09:58:01Z</time>
      </trkpt>
      <trkpt lat="41.221359" lon="1.439730">
        <ele>116.8</ele>
        <time>2014-12-07T09:58:02Z</time>
      </trkpt>
      <trkpt lat="41.221748" lon="1.440237">
        <ele>119.4</ele>
        <time>2014-12-07T10:10:36Z</time>
      </trkpt>
      <trkpt lat="41.221771" lon="1.440240">
        <ele>119.4</ele>
        <time>2014-12-07T10:10:40Z</time>
      </trkpt>
      <trkpt lat="41.221779" lon="1.440248">
        <ele>119.0</ele>
        <time>2014-12-07T10:10:43Z</time>
      </trkpt>
      <trkpt lat="41.221783" lon="1.440250">
        <ele>118.4</ele>
        <time>2014-12-07T10:10:44Z</time>
      </trkpt>
      <trkpt lat="41.221783" lon="1.440251">
        <ele>117.4</ele>
        <time>2014-12-07T10:10:45Z</time>
      </trkpt>
      <trkpt lat="41.221786" lon="1.440248">
        <ele>117.0</ele>
        <time>2014-12-07T10:10:46Z</time>
      </trkpt>
      <trkpt lat="41.221794" lon="1.440268">
        <ele>117.0</ele>
        <time>2014-12-07T10:10:51Z</time>
      </trkpt>
      <trkpt lat="41.221802" lon="1.440283">
        <ele>117.6</ele>
        <time>2014-12-07T10:10:53Z</time>
      </trkpt>
      <trkpt lat="41.221809" lon="1.440292">
        <ele>118.0</ele>
        <time>2014-12-07T10:10:54Z</time>
      </trkpt>
      <trkpt lat="41.221817" lon="1.440302">
        <ele>118.4</ele>
        <time>2014-12-07T10:10:55Z</time>
      </trkpt>
      <trkpt lat="41.221817" lon="1.440308">
        <ele>119.0</ele>
        <time>2014-12-07T10:10:56Z</time>
      </trkpt>
      <trkpt lat="41.221825" lon="1.440312">
        <ele>119.4</ele>
        <time>2014-12-07T10:10:57Z</time>
      </trkpt>
      <trkpt lat="41.221828" lon="1.440302">
        <ele>119.4</ele>
        <time>2014-12-07T10:11:02Z</time>
      </trkpt>
      <trkpt lat="41.221817" lon="1.440234">
        <ele>119.4</ele>
        <time>2014-12-07T10:11:10Z</time>
      </trkpt>
      <trkpt lat="41.221809" lon="1.440220">
        <ele>119.4</ele>
        <time>2014-12-07T10:11:11Z</time>
      </trkpt>
      <trkpt lat="41.221809" lon="1.440195">
        <ele>119.4</ele>
        <time>2014-12-07T10:11:27Z</time>
      </trkpt>
      <trkpt lat="41.221844" lon="1.440227">
        <ele>119.4</ele>
        <time>2014-12-07T10:11:31Z</time>
      </trkpt>
      <trkpt lat="41.221874" lon="1.440256">
        <ele>119.4</ele>
        <time>2014-12-07T10:11:39Z</time>
      </trkpt>
      <trkpt lat="41.221844" lon="1.440207">
        <ele>119.4</ele>
        <time>2014-12-07T10:11:44Z</time>
      </trkpt>
      <trkpt lat="41.221321" lon="1.439667">
        <ele>119.6</ele>
        <time>2014-12-07T10:24:34Z</time>
      </trkpt>
      <trkpt lat="41.221291" lon="1.439629">
        <ele>119.6</ele>
        <time>2014-12-07T10:24:36Z</time>
      </trkpt>
      <trkpt lat="41.221283" lon="1.439608">
        <ele>119.6</ele>
        <time>2014-12-07T10:24:37Z</time>
      </trkpt>
      <trkpt lat="41.221294" lon="1.439590">
        <ele>119.6</ele>
        <time>2014-12-07T10:24:39Z</time>
      </trkpt>
      <trkpt lat="41.221306" lon="1.439595">
        <ele>119.6</ele>
        <time>2014-12-07T10:24:41Z</time>
      </trkpt>
      <trkpt lat="41.221333" lon="1.439624">
        <ele>119.6</ele>
        <time>2014-12-07T10:24:44Z</time>
      </trkpt>
      <trkpt lat="41.221340" lon="1.439677">
        <ele>120.0</ele>
        <time>2014-12-07T10:24:48Z</time>
      </trkpt>
      <trkpt lat="41.221348" lon="1.439689">
        <ele>120.4</ele>
        <time>2014-12-07T10:24:49Z</time>
      </trkpt>
      <trkpt lat="41.221359" lon="1.439702">
        <ele>120.8</ele>
        <time>2014-12-07T10:24:50Z</time>
      </trkpt>
      <trkpt lat="41.221371" lon="1.439716">
        <ele>121.4</ele>
        <time>2014-12-07T10:24:51Z</time>
      </trkpt>
      <trkpt lat="41.221386" lon="1.439736">
        <ele>121.8</ele>
        <time>2014-12-07T10:24:52Z</time>
      </trkpt>
      <trkpt lat="41.221405" lon="1.439757">
        <ele>121.2</ele>
        <time>2014-12-07T10:24:53Z</time>
      </trkpt>
      <trkpt lat="41.221424" lon="1.439785">
        <ele>120.8</ele>
        <time>2014-12-07T10:24:54Z</time>
      </trkpt>
      <trkpt lat="41.221462" lon="1.439824">
        <ele>120.2</ele>
        <time>2014-12-07T10:24:55Z</time>
      </trkpt>
      <trkpt lat="41.221508" lon="1.439871">
        <ele>119.8</ele>
        <time>2014-12-07T10:24:56Z</time>
      </trkpt>
      <trkpt lat="41.221554" lon="1.439921">
        <ele>119.2</ele>
        <time>2014-12-07T10:24:57Z</time>
      </trkpt>
      <trkpt lat="41.221603" lon="1.439966">
        <ele>119.2</ele>
        <time>2014-12-07T10:24:58Z</time>
      </trkpt>
      <trkpt lat="41.221725" lon="1.440082">
        <ele>119.2</ele>
        <time>2014-12-07T10:25:01Z</time>
      </trkpt>
      <trkpt lat="41.221756" lon="1.440111">
        <ele>120.0</ele>
        <time>2014-12-07T10:25:02Z</time>
      </trkpt>
      <trkpt lat="41.221790" lon="1.440134">
        <ele>120.6</ele>
        <time>2014-12-07T10:25:03Z</time>
      </trkpt>
      <trkpt lat="41.221817" lon="1.440153">
        <ele>121.2</ele>
        <time>2014-12-07T10:25:04Z</time>
      </trkpt>
      <trkpt lat="41.221848" lon="1.440173">
        <ele>122.0</ele>
        <time>2014-12-07T10:25:05Z</time>
      </trkpt>
      <trkpt lat="41.221882" lon="1.440190">
        <ele>121.6</ele>
        <time>2014-12-07T10:25:06Z</time>
      </trkpt>
      <trkpt lat="41.221912" lon="1.440208">
        <ele>121.4</ele>
        <time>2014-12-07T10:25:07Z</time>
      </trkpt>
      <trkpt lat="41.221947" lon="1.440222">
        <ele>121.0</ele>
        <time>2014-12-07T10:25:08Z</time>
      </trkpt>
      <trkpt lat="41.221985" lon="1.440231">
        <ele>120.4</ele>
        <time>2014-12-07T10:25:09Z</time>
      </trkpt>
      <trkpt lat="41.222061" lon="1.440262">
        <ele>120.4</ele>
        <time>2014-12-07T10:25:11Z</time>
      </trkpt>
      <trkpt lat="41.222244" lon="1.440384">
        <ele>120.8</ele>
        <time>2014-12-07T10:25:16Z</time>
      </trkpt>
      <trkpt lat="41.222267" lon="1.440415">
        <ele>121.2</ele>
        <time>2014-12-07T10:25:17Z</time>
      </trkpt>
      <trkpt lat="41.222290" lon="1.440451">
        <ele>121.6</ele>
        <time>2014-12-07T10:25:18Z</time>
      </trkpt>
      <trkpt lat="41.222317" lon="1.440487">
        <ele>121.4</ele>
        <time>2014-12-07T10:25:19Z</time>
      </trkpt>
      <trkpt lat="41.222336" lon="1.440522">
        <ele>121.0</ele>
        <time>2014-12-07T10:25:20Z</time>
      </trkpt>
      <trkpt lat="41.222359" lon="1.440558">
        <ele>120.6</ele>
        <time>2014-12-07T10:25:21Z</time>
      </trkpt>
      <trkpt lat="41.222382" lon="1.440597">
        <ele>120.2</ele>
        <time>2014-12-07T10:25:22Z</time>
      </trkpt>
      <trkpt lat="41.222412" lon="1.440610">
        <ele>119.8</ele>
        <time>2014-12-07T10:25:23Z</time>
      </trkpt>
      <trkpt lat="41.222435" lon="1.440547">
        <ele>119.8</ele>
        <time>2014-12-07T10:25:26Z</time>
      </trkpt>
      <trkpt lat="41.222412" lon="1.440479">
        <ele>119.8</ele>
        <time>2014-12-07T10:25:28Z</time>
      </trkpt>
      <trkpt lat="41.222404" lon="1.440373">
        <ele>119.8</ele>
        <time>2014-12-07T10:25:31Z</time>
      </trkpt>
      <trkpt lat="41.222404" lon="1.440365">
        <ele>119.4</ele>
        <time>2014-12-07T10:25:32Z</time>
      </trkpt>
      <trkpt lat="41.222397" lon="1.440447">
        <ele>115.8</ele>
        <time>2014-12-07T10:26:16Z</time>
      </trkpt>
      <trkpt lat="41.222404" lon="1.440470">
        <ele>115.8</ele>
        <time>2014-12-07T10:26:17Z</time>
      </trkpt>
      <trkpt lat="41.222420" lon="1.440566">
        <ele>115.8</ele>
        <time>2014-12-07T10:26:22Z</time>
      </trkpt>
      <trkpt lat="41.222404" lon="1.440596">
        <ele>115.8</ele>
        <time>2014-12-07T10:26:24Z</time>
      </trkpt>
      <trkpt lat="41.222397" lon="1.440607">
        <ele>115.8</ele>
        <time>2014-12-07T10:26:25Z</time>
      </trkpt>
      <trkpt lat="41.222389" lon="1.440622">
        <ele>115.8</ele>
        <time>2014-12-07T10:26:26Z</time>
      </trkpt>
      <trkpt lat="41.222374" lon="1.440669">
        <ele>116.2</ele>
        <time>2014-12-07T10:26:28Z</time>
      </trkpt>
      <trkpt lat="41.222370" lon="1.440698">
        <ele>116.6</ele>
        <time>2014-12-07T10:26:29Z</time>
      </trkpt>
      <trkpt lat="41.222370" lon="1.440726">
        <ele>117.0</ele>
        <time>2014-12-07T10:26:30Z</time>
      </trkpt>
      <trkpt lat="41.222370" lon="1.440753">
        <ele>117.6</ele>
        <time>2014-12-07T10:26:31Z</time>
      </trkpt>
      <trkpt lat="41.222366" lon="1.440780">
        <ele>118.0</ele>
        <time>2014-12-07T10:26:32Z</time>
      </trkpt>
      <trkpt lat="41.222347" lon="1.440912">
        <ele>118.4</ele>
        <time>2014-12-07T10:26:37Z</time>
      </trkpt>
      <trkpt lat="41.222343" lon="1.440937">
        <ele>118.8</ele>
        <time>2014-12-07T10:26:38Z</time>
      </trkpt>
      <trkpt lat="41.222347" lon="1.440967">
        <ele>119.4</ele>
        <time>2014-12-07T10:26:39Z</time>
      </trkpt>
      <trkpt lat="41.222355" lon="1.441001">
        <ele>119.8</ele>
        <time>2014-12-07T10:26:40Z</time>
      </trkpt>
      <trkpt lat="41.222363" lon="1.441029">
        <ele>120.2</ele>
        <time>2014-12-07T10:26:41Z</time>
      </trkpt>
      <trkpt lat="41.222366" lon="1.441057">
        <ele>120.6</ele>
        <time>2014-12-07T10:26:42Z</time>
      </trkpt>
      <trkpt lat="41.222370" lon="1.441088">
        <ele>121.0</ele>
        <time>2014-12-07T10:26:43Z</time>
      </trkpt>
      <trkpt lat="41.222389" lon="1.441116">
        <ele>121.6</ele>
        <time>2014-12-07T10:26:44Z</time>
      </trkpt>
      <trkpt lat="41.222401" lon="1.441141">
        <ele>122.2</ele>
        <time>2014-12-07T10:26:45Z</time>
      </trkpt>
      <trkpt lat="41.222404" lon="1.441169">
        <ele>122.8</ele>
        <time>2014-12-07T10:26:46Z</time>
      </trkpt>
      <trkpt lat="41.222416" lon="1.441195">
        <ele>123.6</ele>
        <time>2014-12-07T10:26:47Z</time>
      </trkpt>
      <trkpt lat="41.222424" lon="1.441223">
        <ele>125.2</ele>
        <time>2014-12-07T10:26:48Z</time>
      </trkpt>
      <trkpt lat="41.222431" lon="1.441246">
        <ele>126.0</ele>
        <time>2014-12-07T10:26:49Z</time>
      </trkpt>
      <trkpt lat="41.222443" lon="1.441270">
        <ele>126.8</ele>
        <time>2014-12-07T10:26:50Z</time>
      </trkpt>
      <trkpt lat="41.222458" lon="1.441333">
        <ele>127.4</ele>
        <time>2014-12-07T10:26:52Z</time>
      </trkpt>
      <trkpt lat="41.222469" lon="1.441363">
        <ele>127.8</ele>
        <time>2014-12-07T10:26:53Z</time>
      </trkpt>
      <trkpt lat="41.222477" lon="1.441387">
        <ele>128.4</ele>
        <time>2014-12-07T10:26:54Z</time>
      </trkpt>
      <trkpt lat="41.222481" lon="1.441411">
        <ele>129.0</ele>
        <time>2014-12-07T10:26:55Z</time>
      </trkpt>
      <trkpt lat="41.222488" lon="1.441443">
        <ele>129.4</ele>
        <time>2014-12-07T10:26:56Z</time>
      </trkpt>
      <trkpt lat="41.222496" lon="1.441531">
        <ele>129.4</ele>
        <time>2014-12-07T10:26:59Z</time>
      </trkpt>
      <trkpt lat="41.222553" lon="1.441693">
        <ele>129.8</ele>
        <time>2014-12-07T10:27:05Z</time>
      </trkpt>
      <trkpt lat="41.222572" lon="1.441712">
        <ele>130.4</ele>
        <time>2014-12-07T10:27:06Z</time>
      </trkpt>
      <trkpt lat="41.222588" lon="1.441738">
        <ele>130.8</ele>
        <time>2014-12-07T10:27:07Z</time>
      </trkpt>
      <trkpt lat="41.222607" lon="1.441764">
        <ele>131.2</ele>
        <time>2014-12-07T10:27:08Z</time>
      </trkpt>
      <trkpt lat="41.222622" lon="1.441788">
        <ele>131.6</ele>
        <time>2014-12-07T10:27:09Z</time>
      </trkpt>
      <trkpt lat="41.222672" lon="1.441861">
        <ele>131.6</ele>
        <time>2014-12-07T10:27:12Z</time>
      </trkpt>
      <trkpt lat="41.222782" lon="1.441965">
        <ele>131.6</ele>
        <time>2014-12-07T10:27:18Z</time>
      </trkpt>
      <trkpt lat="41.222801" lon="1.441985">
        <ele>132.2</ele>
        <time>2014-12-07T10:27:19Z</time>
      </trkpt>
      <trkpt lat="41.222820" lon="1.442006">
        <ele>132.6</ele>
        <time>2014-12-07T10:27:20Z</time>
      </trkpt>
      <trkpt lat="41.222839" lon="1.442026">
        <ele>133.0</ele>
        <time>2014-12-07T10:27:21Z</time>
      </trkpt>
      <trkpt lat="41.222855" lon="1.442046">
        <ele>133.4</ele>
        <time>2014-12-07T10:27:22Z</time>
      </trkpt>
      <trkpt lat="41.222870" lon="1.442064">
        <ele>133.8</ele>
        <time>2014-12-07T10:27:23Z</time>
      </trkpt>
      <trkpt lat="41.222923" lon="1.442121">
        <ele>133.8</ele>
        <time>2014-12-07T10:27:26Z</time>
      </trkpt>
      <trkpt lat="41.223042" lon="1.442239">
        <ele>133.8</ele>
        <time>2014-12-07T10:27:33Z</time>
      </trkpt>
      <trkpt lat="41.223083" lon="1.442268">
        <ele>134.2</ele>
        <time>2014-12-07T10:27:36Z</time>
      </trkpt>
      <trkpt lat="41.223110" lon="1.442272">
        <ele>134.6</ele>
        <time>2014-12-07T10:27:37Z</time>
      </trkpt>
      <trkpt lat="41.223133" lon="1.442278">
        <ele>135.4</ele>
        <time>2014-12-07T10:27:38Z</time>
      </trkpt>
      <trkpt lat="41.223152" lon="1.442283">
        <ele>135.8</ele>
        <time>2014-12-07T10:27:39Z</time>
      </trkpt>
      <trkpt lat="41.223221" lon="1.442311">
        <ele>135.8</ele>
        <time>2014-12-07T10:27:42Z</time>
      </trkpt>
      <trkpt lat="41.223236" lon="1.442320">
        <ele>136.6</ele>
        <time>2014-12-07T10:27:43Z</time>
      </trkpt>
      <trkpt lat="41.223259" lon="1.442330">
        <ele>137.2</ele>
        <time>2014-12-07T10:27:44Z</time>
      </trkpt>
      <trkpt lat="41.223282" lon="1.442337">
        <ele>138.0</ele>
        <time>2014-12-07T10:27:45Z</time>
      </trkpt>
      <trkpt lat="41.223301" lon="1.442340">
        <ele>138.6</ele>
        <time>2014-12-07T10:27:46Z</time>
      </trkpt>
      <trkpt lat="41.223324" lon="1.442344">
        <ele>139.4</ele>
        <time>2014-12-07T10:27:47Z</time>
      </trkpt>
      <trkpt lat="41.223366" lon="1.442370">
        <ele>138.8</ele>
        <time>2014-12-07T10:27:49Z</time>
      </trkpt>
      <trkpt lat="41.223381" lon="1.442390">
        <ele>138.4</ele>
        <time>2014-12-07T10:27:50Z</time>
      </trkpt>
      <trkpt lat="41.223400" lon="1.442411">
        <ele>137.8</ele>
        <time>2014-12-07T10:27:51Z</time>
      </trkpt>
      <trkpt lat="41.223419" lon="1.442429">
        <ele>137.4</ele>
        <time>2014-12-07T10:27:52Z</time>
      </trkpt>
      <trkpt lat="41.223438" lon="1.442446">
        <ele>136.8</ele>
        <time>2014-12-07T10:27:53Z</time>
      </trkpt>
      <trkpt lat="41.223503" lon="1.442498">
        <ele>136.8</ele>
        <time>2014-12-07T10:27:56Z</time>
      </trkpt>
      <trkpt lat="41.223553" lon="1.442533">
        <ele>137.2</ele>
        <time>2014-12-07T10:27:58Z</time>
      </trkpt>
      <trkpt lat="41.223579" lon="1.442550">
        <ele>137.6</ele>
        <time>2014-12-07T10:27:59Z</time>
      </trkpt>
      <trkpt lat="41.223598" lon="1.442569">
        <ele>138.0</ele>
        <time>2014-12-07T10:28:00Z</time>
      </trkpt>
      <trkpt lat="41.223621" lon="1.442589">
        <ele>138.4</ele>
        <time>2014-12-07T10:28:01Z</time>
      </trkpt>
      <trkpt lat="41.223640" lon="1.442611">
        <ele>138.8</ele>
        <time>2014-12-07T10:28:02Z</time>
      </trkpt>
      <trkpt lat="41.223679" lon="1.442646">
        <ele>138.8</ele>
        <time>2014-12-07T10:28:04Z</time>
      </trkpt>
      <trkpt lat="41.223797" lon="1.442802">
        <ele>138.8</ele>
        <time>2014-12-07T10:28:11Z</time>
      </trkpt>
      <trkpt lat="41.223816" lon="1.442820">
        <ele>139.4</ele>
        <time>2014-12-07T10:28:12Z</time>
      </trkpt>
      <trkpt lat="41.223831" lon="1.442843">
        <ele>139.8</ele>
        <time>2014-12-07T10:28:13Z</time>
      </trkpt>
      <trkpt lat="41.223843" lon="1.442867">
        <ele>140.4</ele>
        <time>2014-12-07T10:28:14Z</time>
      </trkpt>
      <trkpt lat="41.223854" lon="1.442889">
        <ele>140.8</ele>
        <time>2014-12-07T10:28:15Z</time>
      </trkpt>
      <trkpt lat="41.223866" lon="1.442914">
        <ele>141.4</ele>
        <time>2014-12-07T10:28:16Z</time>
      </trkpt>
      <trkpt lat="41.223877" lon="1.442939">
        <ele>141.4</ele>
        <time>2014-12-07T10:28:17Z</time>
      </trkpt>
      <trkpt lat="41.223942" lon="1.443024">
        <ele>141.8</ele>
        <time>2014-12-07T10:28:21Z</time>
      </trkpt>
      <trkpt lat="41.223961" lon="1.443048">
        <ele>142.2</ele>
        <time>2014-12-07T10:28:22Z</time>
      </trkpt>
      <trkpt lat="41.223976" lon="1.443069">
        <ele>142.6</ele>
        <time>2014-12-07T10:28:23Z</time>
      </trkpt>
      <trkpt lat="41.223991" lon="1.443086">
        <ele>143.0</ele>
        <time>2014-12-07T10:28:24Z</time>
      </trkpt>
      <trkpt lat="41.224007" lon="1.443105">
        <ele>143.4</ele>
        <time>2014-12-07T10:28:25Z</time>
      </trkpt>
      <trkpt lat="41.224079" lon="1.443199">
        <ele>144.0</ele>
        <time>2014-12-07T10:28:30Z</time>
      </trkpt>
      <trkpt lat="41.224094" lon="1.443219">
        <ele>144.4</ele>
        <time>2014-12-07T10:28:31Z</time>
      </trkpt>
      <trkpt lat="41.224113" lon="1.443236">
        <ele>145.0</ele>
        <time>2014-12-07T10:28:32Z</time>
      </trkpt>
      <trkpt lat="41.224121" lon="1.443257">
        <ele>145.4</ele>
        <time>2014-12-07T10:28:33Z</time>
      </trkpt>
      <trkpt lat="41.224136" lon="1.443275">
        <ele>145.8</ele>
        <time>2014-12-07T10:28:34Z</time>
      </trkpt>
      <trkpt lat="41.224178" lon="1.443324">
        <ele>145.8</ele>
        <time>2014-12-07T10:28:37Z</time>
      </trkpt>
      <trkpt lat="41.224236" lon="1.443404">
        <ele>146.4</ele>
        <time>2014-12-07T10:28:42Z</time>
      </trkpt>
      <trkpt lat="41.224251" lon="1.443420">
        <ele>146.8</ele>
        <time>2014-12-07T10:28:43Z</time>
      </trkpt>
      <trkpt lat="41.224258" lon="1.443437">
        <ele>147.2</ele>
        <time>2014-12-07T10:28:44Z</time>
      </trkpt>
      <trkpt lat="41.224266" lon="1.443459">
        <ele>147.6</ele>
        <time>2014-12-07T10:28:45Z</time>
      </trkpt>
      <trkpt lat="41.224277" lon="1.443480">
        <ele>148.2</ele>
        <time>2014-12-07T10:28:46Z</time>
      </trkpt>
      <trkpt lat="41.224308" lon="1.443516">
        <ele>148.2</ele>
        <time>2014-12-07T10:28:48Z</time>
      </trkpt>
      <trkpt lat="41.224339" lon="1.443555">
        <ele>148.6</ele>
        <time>2014-12-07T10:28:50Z</time>
      </trkpt>
      <trkpt lat="41.224361" lon="1.443577">
        <ele>149.0</ele>
        <time>2014-12-07T10:28:51Z</time>
      </trkpt>
      <trkpt lat="41.224377" lon="1.443599">
        <ele>149.8</ele>
        <time>2014-12-07T10:28:52Z</time>
      </trkpt>
      <trkpt lat="41.224384" lon="1.443618">
        <ele>150.2</ele>
        <time>2014-12-07T10:28:53Z</time>
      </trkpt>
      <trkpt lat="41.224396" lon="1.443638">
        <ele>150.2</ele>
        <time>2014-12-07T10:28:54Z</time>
      </trkpt>
      <trkpt lat="41.224483" lon="1.443809">
        <ele>150.2</ele>
        <time>2014-12-07T10:29:01Z</time>
      </trkpt>
      <trkpt lat="41.224545" lon="1.443913">
        <ele>150.6</ele>
        <time>2014-12-07T10:29:05Z</time>
      </trkpt>
      <trkpt lat="41.224564" lon="1.443937">
        <ele>151.0</ele>
        <time>2014-12-07T10:29:06Z</time>
      </trkpt>
      <trkpt lat="41.224579" lon="1.443959">
        <ele>151.4</ele>
        <time>2014-12-07T10:29:07Z</time>
      </trkpt>
      <trkpt lat="41.224598" lon="1.443982">
        <ele>151.8</ele>
        <time>2014-12-07T10:29:08Z</time>
      </trkpt>
      <trkpt lat="41.224613" lon="1.444004">
        <ele>152.4</ele>
        <time>2014-12-07T10:29:09Z</time>
      </trkpt>
      <trkpt lat="41.224701" lon="1.444138">
        <ele>152.4</ele>
        <time>2014-12-07T10:29:15Z</time>
      </trkpt>
      <trkpt lat="41.224720" lon="1.444162">
        <ele>152.8</ele>
        <time>2014-12-07T10:29:16Z</time>
      </trkpt>
      <trkpt lat="41.224735" lon="1.444186">
        <ele>153.2</ele>
        <time>2014-12-07T10:29:17Z</time>
      </trkpt>
      <trkpt lat="41.224747" lon="1.444209">
        <ele>153.6</ele>
        <time>2014-12-07T10:29:18Z</time>
      </trkpt>
      <trkpt lat="41.224766" lon="1.444229">
        <ele>154.0</ele>
        <time>2014-12-07T10:29:19Z</time>
      </trkpt>
      <trkpt lat="41.224781" lon="1.444251">
        <ele>154.4</ele>
        <time>2014-12-07T10:29:20Z</time>
      </trkpt>
      <trkpt lat="41.224819" lon="1.444298">
        <ele>154.4</ele>
        <time>2014-12-07T10:29:22Z</time>
      </trkpt>
      <trkpt lat="41.224941" lon="1.444376">
        <ele>154.8</ele>
        <time>2014-12-07T10:29:28Z</time>
      </trkpt>
      <trkpt lat="41.224960" lon="1.444381">
        <ele>155.2</ele>
        <time>2014-12-07T10:29:29Z</time>
      </trkpt>
      <trkpt lat="41.224976" lon="1.444386">
        <ele>155.6</ele>
        <time>2014-12-07T10:29:30Z</time>
      </trkpt>
      <trkpt lat="41.224998" lon="1.444395">
        <ele>156.0</ele>
        <time>2014-12-07T10:29:31Z</time>
      </trkpt>
      <trkpt lat="41.225018" lon="1.444403">
        <ele>156.4</ele>
        <time>2014-12-07T10:29:32Z</time>
      </trkpt>
      <trkpt lat="41.225071" lon="1.444415">
        <ele>156.8</ele>
        <time>2014-12-07T10:29:34Z</time>
      </trkpt>
      <trkpt lat="41.225098" lon="1.444426">
        <ele>157.2</ele>
        <time>2014-12-07T10:29:35Z</time>
      </trkpt>
      <trkpt lat="41.225124" lon="1.444434">
        <ele>157.6</ele>
        <time>2014-12-07T10:29:36Z</time>
      </trkpt>
      <trkpt lat="41.225143" lon="1.444443">
        <ele>158.2</ele>
        <time>2014-12-07T10:29:37Z</time>
      </trkpt>
      <trkpt lat="41.225170" lon="1.444458">
        <ele>158.6</ele>
        <time>2014-12-07T10:29:38Z</time>
      </trkpt>
      <trkpt lat="41.225204" lon="1.444491">
        <ele>158.6</ele>
        <time>2014-12-07T10:29:40Z</time>
      </trkpt>
      <trkpt lat="41.225250" lon="1.444547">
        <ele>159.0</ele>
        <time>2014-12-07T10:29:43Z</time>
      </trkpt>
      <trkpt lat="41.225277" lon="1.444566">
        <ele>159.4</ele>
        <time>2014-12-07T10:29:44Z</time>
      </trkpt>
      <trkpt lat="41.225300" lon="1.444585">
        <ele>159.8</ele>
        <time>2014-12-07T10:29:45Z</time>
      </trkpt>
      <trkpt lat="41.225319" lon="1.444608">
        <ele>160.4</ele>
        <time>2014-12-07T10:29:46Z</time>
      </trkpt>
      <trkpt lat="41.225338" lon="1.444629">
        <ele>160.8</ele>
        <time>2014-12-07T10:29:47Z</time>
      </trkpt>
      <trkpt lat="41.225391" lon="1.444696">
        <ele>160.8</ele>
        <time>2014-12-07T10:29:50Z</time>
      </trkpt>
      <trkpt lat="41.225460" lon="1.444746">
        <ele>161.2</ele>
        <time>2014-12-07T10:29:53Z</time>
      </trkpt>
      <trkpt lat="41.225479" lon="1.444761">
        <ele>161.8</ele>
        <time>2014-12-07T10:29:54Z</time>
      </trkpt>
      <trkpt lat="41.225506" lon="1.444774">
        <ele>162.2</ele>
        <time>2014-12-07T10:29:55Z</time>
      </trkpt>
      <trkpt lat="41.225529" lon="1.444785">
        <ele>162.8</ele>
        <time>2014-12-07T10:29:56Z</time>
      </trkpt>
      <trkpt lat="41.225555" lon="1.444794">
        <ele>163.2</ele>
        <time>2014-12-07T10:29:57Z</time>
      </trkpt>
      <trkpt lat="41.225624" lon="1.444897">
        <ele>163.2</ele>
        <time>2014-12-07T10:30:02Z</time>
      </trkpt>
      <trkpt lat="41.225677" lon="1.445020">
        <ele>163.2</ele>
        <time>2014-12-07T10:30:06Z</time>
      </trkpt>
      <trkpt lat="41.225758" lon="1.445262">
        <ele>163.2</ele>
        <time>2014-12-07T10:30:13Z</time>
      </trkpt>
      <trkpt lat="41.225830" lon="1.445467">
        <ele>163.2</ele>
        <time>2014-12-07T10:30:19Z</time>
      </trkpt>
      <trkpt lat="41.225853" lon="1.445674">
        <ele>163.2</ele>
        <time>2014-12-07T10:30:24Z</time>
      </trkpt>
      <trkpt lat="41.225861" lon="1.445735">
        <ele>163.6</ele>
        <time>2014-12-07T10:30:26Z</time>
      </trkpt>
      <trkpt lat="41.225868" lon="1.445771">
        <ele>164.0</ele>
        <time>2014-12-07T10:30:27Z</time>
      </trkpt>
      <trkpt lat="41.225876" lon="1.445809">
        <ele>164.6</ele>
        <time>2014-12-07T10:30:28Z</time>
      </trkpt>
      <trkpt lat="41.225887" lon="1.445846">
        <ele>165.0</ele>
        <time>2014-12-07T10:30:29Z</time>
      </trkpt>
      <trkpt lat="41.225903" lon="1.445881">
        <ele>165.4</ele>
        <time>2014-12-07T10:30:30Z</time>
      </trkpt>
      <trkpt lat="41.226002" lon="1.446158">
        <ele>165.4</ele>
        <time>2014-12-07T10:30:38Z</time>
      </trkpt>
      <trkpt lat="41.226089" lon="1.446444">
        <ele>165.8</ele>
        <time>2014-12-07T10:30:46Z</time>
      </trkpt>
      <trkpt lat="41.226101" lon="1.446472">
        <ele>166.2</ele>
        <time>2014-12-07T10:30:47Z</time>
      </trkpt>
      <trkpt lat="41.226112" lon="1.446502">
        <ele>166.6</ele>
        <time>2014-12-07T10:30:48Z</time>
      </trkpt>
      <trkpt lat="41.226120" lon="1.446533">
        <ele>167.2</ele>
        <time>2014-12-07T10:30:49Z</time>
      </trkpt>
      <trkpt lat="41.226128" lon="1.446566">
        <ele>167.6</ele>
        <time>2014-12-07T10:30:50Z</time>
      </trkpt>
      <trkpt lat="41.226173" lon="1.446701">
        <ele>167.6</ele>
        <time>2014-12-07T10:30:54Z</time>
      </trkpt>
      <trkpt lat="41.226273" lon="1.446976">
        <ele>167.6</ele>
        <time>2014-12-07T10:31:01Z</time>
      </trkpt>
      <trkpt lat="41.226421" lon="1.447083">
        <ele>167.6</ele>
        <time>2014-12-07T10:31:06Z</time>
      </trkpt>
      <trkpt lat="41.226654" lon="1.447205">
        <ele>167.6</ele>
        <time>2014-12-07T10:31:12Z</time>
      </trkpt>
      <trkpt lat="41.226959" lon="1.447348">
        <ele>168.4</ele>
        <time>2014-12-07T10:31:20Z</time>
      </trkpt>
      <trkpt lat="41.226986" lon="1.447366">
        <ele>168.8</ele>
        <time>2014-12-07T10:31:21Z</time>
      </trkpt>
      <trkpt lat="41.227013" lon="1.447390">
        <ele>169.2</ele>
        <time>2014-12-07T10:31:22Z</time>
      </trkpt>
      <trkpt lat="41.227036" lon="1.447420">
        <ele>169.6</ele>
        <time>2014-12-07T10:31:23Z</time>
      </trkpt>
      <trkpt lat="41.227051" lon="1.447455">
        <ele>169.6</ele>
        <time>2014-12-07T10:31:24Z</time>
      </trkpt>
      <trkpt lat="41.227058" lon="1.447518">
        <ele>170.0</ele>
        <time>2014-12-07T10:31:26Z</time>
      </trkpt>
      <trkpt lat="41.227058" lon="1.447555">
        <ele>170.6</ele>
        <time>2014-12-07T10:31:27Z</time>
      </trkpt>
      <trkpt lat="41.227058" lon="1.447596">
        <ele>171.0</ele>
        <time>2014-12-07T10:31:28Z</time>
      </trkpt>
      <trkpt lat="41.227058" lon="1.447637">
        <ele>171.4</ele>
        <time>2014-12-07T10:31:29Z</time>
      </trkpt>
      <trkpt lat="41.227062" lon="1.447678">
        <ele>171.8</ele>
        <time>2014-12-07T10:31:30Z</time>
      </trkpt>
      <trkpt lat="41.227104" lon="1.447766">
        <ele>171.8</ele>
        <time>2014-12-07T10:31:33Z</time>
      </trkpt>
      <trkpt lat="41.227211" lon="1.447788">
        <ele>171.8</ele>
        <time>2014-12-07T10:31:38Z</time>
      </trkpt>
      <trkpt lat="41.227249" lon="1.447791">
        <ele>172.2</ele>
        <time>2014-12-07T10:31:40Z</time>
      </trkpt>
      <trkpt lat="41.227268" lon="1.447796">
        <ele>172.6</ele>
        <time>2014-12-07T10:31:41Z</time>
      </trkpt>
      <trkpt lat="41.227283" lon="1.447801">
        <ele>173.0</ele>
        <time>2014-12-07T10:31:42Z</time>
      </trkpt>
      <trkpt lat="41.227303" lon="1.447805">
        <ele>173.4</ele>
        <time>2014-12-07T10:31:43Z</time>
      </trkpt>
      <trkpt lat="41.227325" lon="1.447811">
        <ele>173.8</ele>
        <time>2014-12-07T10:31:44Z</time>
      </trkpt>
      <trkpt lat="41.227348" lon="1.447819">
        <ele>174.2</ele>
        <time>2014-12-07T10:31:45Z</time>
      </trkpt>
      <trkpt lat="41.227367" lon="1.447826">
        <ele>174.8</ele>
        <time>2014-12-07T10:31:46Z</time>
      </trkpt>
      <trkpt lat="41.227383" lon="1.447835">
        <ele>175.2</ele>
        <time>2014-12-07T10:31:47Z</time>
      </trkpt>
      <trkpt lat="41.227402" lon="1.447841">
        <ele>175.6</ele>
        <time>2014-12-07T10:31:48Z</time>
      </trkpt>
      <trkpt lat="41.227417" lon="1.447847">
        <ele>176.0</ele>
        <time>2014-12-07T10:31:49Z</time>
      </trkpt>
      <trkpt lat="41.227467" lon="1.447848">
        <ele>176.0</ele>
        <time>2014-12-07T10:31:52Z</time>
      </trkpt>
      <trkpt lat="41.227505" lon="1.447852">
        <ele>176.6</ele>
        <time>2014-12-07T10:31:54Z</time>
      </trkpt>
      <trkpt lat="41.227524" lon="1.447859">
        <ele>177.0</ele>
        <time>2014-12-07T10:31:55Z</time>
      </trkpt>
      <trkpt lat="41.227539" lon="1.447865">
        <ele>177.6</ele>
        <time>2014-12-07T10:31:56Z</time>
      </trkpt>
      <trkpt lat="41.227558" lon="1.447868">
        <ele>178.4</ele>
        <time>2014-12-07T10:31:57Z</time>
      </trkpt>
      <trkpt lat="41.227577" lon="1.447866">
        <ele>179.0</ele>
        <time>2014-12-07T10:31:58Z</time>
      </trkpt>
      <trkpt lat="41.227592" lon="1.447867">
        <ele>179.8</ele>
        <time>2014-12-07T10:31:59Z</time>
      </trkpt>
      <trkpt lat="41.227608" lon="1.447870">
        <ele>180.4</ele>
        <time>2014-12-07T10:32:00Z</time>
      </trkpt>
      <trkpt lat="41.227661" lon="1.447864">
        <ele>180.8</ele>
        <time>2014-12-07T10:32:03Z</time>
      </trkpt>
      <trkpt lat="41.227673" lon="1.447855">
        <ele>181.4</ele>
        <time>2014-12-07T10:32:04Z</time>
      </trkpt>
      <trkpt lat="41.227692" lon="1.447844">
        <ele>181.8</ele>
        <time>2014-12-07T10:32:05Z</time>
      </trkpt>
      <trkpt lat="41.227707" lon="1.447835">
        <ele>182.2</ele>
        <time>2014-12-07T10:32:06Z</time>
      </trkpt>
      <trkpt lat="41.227718" lon="1.447826">
        <ele>182.6</ele>
        <time>2014-12-07T10:32:07Z</time>
      </trkpt>
      <trkpt lat="41.227779" lon="1.447795">
        <ele>183.0</ele>
        <time>2014-12-07T10:32:11Z</time>
      </trkpt>
      <trkpt lat="41.227791" lon="1.447784">
        <ele>183.6</ele>
        <time>2014-12-07T10:32:12Z</time>
      </trkpt>
      <trkpt lat="41.227810" lon="1.447772">
        <ele>184.0</ele>
        <time>2014-12-07T10:32:13Z</time>
      </trkpt>
      <trkpt lat="41.227821" lon="1.447762">
        <ele>184.4</ele>
        <time>2014-12-07T10:32:14Z</time>
      </trkpt>
      <trkpt lat="41.227837" lon="1.447755">
        <ele>184.8</ele>
        <time>2014-12-07T10:32:15Z</time>
      </trkpt>
      <trkpt lat="41.227905" lon="1.447697">
        <ele>185.2</ele>
        <time>2014-12-07T10:32:20Z</time>
      </trkpt>
      <trkpt lat="41.227917" lon="1.447687">
        <ele>185.6</ele>
        <time>2014-12-07T10:32:21Z</time>
      </trkpt>
      <trkpt lat="41.227936" lon="1.447678">
        <ele>186.2</ele>
        <time>2014-12-07T10:32:22Z</time>
      </trkpt>
      <trkpt lat="41.227947" lon="1.447665">
        <ele>186.6</ele>
        <time>2014-12-07T10:32:23Z</time>
      </trkpt>
      <trkpt lat="41.227959" lon="1.447653">
        <ele>187.0</ele>
        <time>2014-12-07T10:32:24Z</time>
      </trkpt>
      <trkpt lat="41.227978" lon="1.447624">
        <ele>187.4</ele>
        <time>2014-12-07T10:32:26Z</time>
      </trkpt>
      <trkpt lat="41.227985" lon="1.447606">
        <ele>187.8</ele>
        <time>2014-12-07T10:32:27Z</time>
      </trkpt>
      <trkpt lat="41.227989" lon="1.447587">
        <ele>188.2</ele>
        <time>2014-12-07T10:32:28Z</time>
      </trkpt>
      <trkpt lat="41.227997" lon="1.447560">
        <ele>188.6</ele>
        <time>2014-12-07T10:32:29Z</time>
      </trkpt>
      <trkpt lat="41.228004" lon="1.447538">
        <ele>189.2</ele>
        <time>2014-12-07T10:32:30Z</time>
      </trkpt>
      <trkpt lat="41.228016" lon="1.447497">
        <ele>189.2</ele>
        <time>2014-12-07T10:32:32Z</time>
      </trkpt>
      <trkpt lat="41.228024" lon="1.447451">
        <ele>189.6</ele>
        <time>2014-12-07T10:32:34Z</time>
      </trkpt>
      <trkpt lat="41.228027" lon="1.447429">
        <ele>190.0</ele>
        <time>2014-12-07T10:32:35Z</time>
      </trkpt>
      <trkpt lat="41.228031" lon="1.447408">
        <ele>190.6</ele>
        <time>2014-12-07T10:32:36Z</time>
      </trkpt>
      <trkpt lat="41.228035" lon="1.447385">
        <ele>191.0</ele>
        <time>2014-12-07T10:32:37Z</time>
      </trkpt>
      <trkpt lat="41.228043" lon="1.447362">
        <ele>191.4</ele>
        <time>2014-12-07T10:32:38Z</time>
      </trkpt>
      <trkpt lat="41.228046" lon="1.447340">
        <ele>191.8</ele>
        <time>2014-12-07T10:32:39Z</time>
      </trkpt>
      <trkpt lat="41.228050" lon="1.447321">
        <ele>192.2</ele>
        <time>2014-12-07T10:32:40Z</time>
      </trkpt>
      <trkpt lat="41.228050" lon="1.447304">
        <ele>192.6</ele>
        <time>2014-12-07T10:32:41Z</time>
      </trkpt>
      <trkpt lat="41.228050" lon="1.447285">
        <ele>193.0</ele>
        <time>2014-12-07T10:32:42Z</time>
      </trkpt>
      <trkpt lat="41.228054" lon="1.447263">
        <ele>193.4</ele>
        <time>2014-12-07T10:32:43Z</time>
      </trkpt>
      <trkpt lat="41.228054" lon="1.447242">
        <ele>194.0</ele>
        <time>2014-12-07T10:32:44Z</time>
      </trkpt>
      <trkpt lat="41.228058" lon="1.447222">
        <ele>194.4</ele>
        <time>2014-12-07T10:32:45Z</time>
      </trkpt>
      <trkpt lat="41.228054" lon="1.447201">
        <ele>195.0</ele>
        <time>2014-12-07T10:32:46Z</time>
      </trkpt>
      <trkpt lat="41.228054" lon="1.447178">
        <ele>195.6</ele>
        <time>2014-12-07T10:32:47Z</time>
      </trkpt>
      <trkpt lat="41.228054" lon="1.447153">
        <ele>196.0</ele>
        <time>2014-12-07T10:32:48Z</time>
      </trkpt>
      <trkpt lat="41.228054" lon="1.447131">
        <ele>196.6</ele>
        <time>2014-12-07T10:32:49Z</time>
      </trkpt>
      <trkpt lat="41.228054" lon="1.447108">
        <ele>197.0</ele>
        <time>2014-12-07T10:32:50Z</time>
      </trkpt>
      <trkpt lat="41.228046" lon="1.447080">
        <ele>197.6</ele>
        <time>2014-12-07T10:32:51Z</time>
      </trkpt>
      <trkpt lat="41.228043" lon="1.447048">
        <ele>198.0</ele>
        <time>2014-12-07T10:32:52Z</time>
      </trkpt>
      <trkpt lat="41.228004" lon="1.446824">
        <ele>198.0</ele>
        <time>2014-12-07T10:33:00Z</time>
      </trkpt>
      <trkpt lat="41.227970" lon="1.446727">
        <ele>198.6</ele>
        <time>2014-12-07T10:33:04Z</time>
      </trkpt>
      <trkpt lat="41.227962" lon="1.446702">
        <ele>199.0</ele>
        <time>2014-12-07T10:33:05Z</time>
      </trkpt>
      <trkpt lat="41.227955" lon="1.446679">
        <ele>199.4</ele>
        <time>2014-12-07T10:33:06Z</time>
      </trkpt>
      <trkpt lat="41.227951" lon="1.446656">
        <ele>200.0</ele>
        <time>2014-12-07T10:33:07Z</time>
      </trkpt>
      <trkpt lat="41.227943" lon="1.446633">
        <ele>200.4</ele>
        <time>2014-12-07T10:33:08Z</time>
      </trkpt>
      <trkpt lat="41.227921" lon="1.446524">
        <ele>200.8</ele>
        <time>2014-12-07T10:33:13Z</time>
      </trkpt>
      <trkpt lat="41.227909" lon="1.446508">
        <ele>201.2</ele>
        <time>2014-12-07T10:33:14Z</time>
      </trkpt>
      <trkpt lat="41.227901" lon="1.446481">
        <ele>201.6</ele>
        <time>2014-12-07T10:33:15Z</time>
      </trkpt>
      <trkpt lat="41.227894" lon="1.446452">
        <ele>202.0</ele>
        <time>2014-12-07T10:33:16Z</time>
      </trkpt>
      <trkpt lat="41.227882" lon="1.446426">
        <ele>202.4</ele>
        <time>2014-12-07T10:33:17Z</time>
      </trkpt>
      <trkpt lat="41.227856" lon="1.446356">
        <ele>202.4</ele>
        <time>2014-12-07T10:33:20Z</time>
      </trkpt>
      <trkpt lat="41.227844" lon="1.446334">
        <ele>203.0</ele>
        <time>2014-12-07T10:33:21Z</time>
      </trkpt>
      <trkpt lat="41.227833" lon="1.446309">
        <ele>203.4</ele>
        <time>2014-12-07T10:33:22Z</time>
      </trkpt>
      <trkpt lat="41.227818" lon="1.446286">
        <ele>203.8</ele>
        <time>2014-12-07T10:33:23Z</time>
      </trkpt>
      <trkpt lat="41.227802" lon="1.446265">
        <ele>204.8</ele>
        <time>2014-12-07T10:33:24Z</time>
      </trkpt>
      <trkpt lat="41.227772" lon="1.446229">
        <ele>204.8</ele>
        <time>2014-12-07T10:33:26Z</time>
      </trkpt>
      <trkpt lat="41.227695" lon="1.446079">
        <ele>204.8</ele>
        <time>2014-12-07T10:33:32Z</time>
      </trkpt>
      <trkpt lat="41.227638" lon="1.445933">
        <ele>205.2</ele>
        <time>2014-12-07T10:33:37Z</time>
      </trkpt>
      <trkpt lat="41.227634" lon="1.445898">
        <ele>205.6</ele>
        <time>2014-12-07T10:33:38Z</time>
      </trkpt>
      <trkpt lat="41.227634" lon="1.445867">
        <ele>206.2</ele>
        <time>2014-12-07T10:33:39Z</time>
      </trkpt>
      <trkpt lat="41.227638" lon="1.445837">
        <ele>206.6</ele>
        <time>2014-12-07T10:33:40Z</time>
      </trkpt>
      <trkpt lat="41.227642" lon="1.445810">
        <ele>207.0</ele>
        <time>2014-12-07T10:33:41Z</time>
      </trkpt>
      <trkpt lat="41.227680" lon="1.445750">
        <ele>207.0</ele>
        <time>2014-12-07T10:33:44Z</time>
      </trkpt>
      <trkpt lat="41.227764" lon="1.445674">
        <ele>207.4</ele>
        <time>2014-12-07T10:33:48Z</time>
      </trkpt>
      <trkpt lat="41.227783" lon="1.445657">
        <ele>208.2</ele>
        <time>2014-12-07T10:33:49Z</time>
      </trkpt>
      <trkpt lat="41.227802" lon="1.445646">
        <ele>208.6</ele>
        <time>2014-12-07T10:33:50Z</time>
      </trkpt>
      <trkpt lat="41.227821" lon="1.445641">
        <ele>209.2</ele>
        <time>2014-12-07T10:33:51Z</time>
      </trkpt>
      <trkpt lat="41.227840" lon="1.445638">
        <ele>209.6</ele>
        <time>2014-12-07T10:33:52Z</time>
      </trkpt>
      <trkpt lat="41.227863" lon="1.445638">
        <ele>210.2</ele>
        <time>2014-12-07T10:33:53Z</time>
      </trkpt>
      <trkpt lat="41.227882" lon="1.445644">
        <ele>210.6</ele>
        <time>2014-12-07T10:33:54Z</time>
      </trkpt>
      <trkpt lat="41.227898" lon="1.445659">
        <ele>211.2</ele>
        <time>2014-12-07T10:33:55Z</time>
      </trkpt>
      <trkpt lat="41.227970" lon="1.445740">
        <ele>211.8</ele>
        <time>2014-12-07T10:33:59Z</time>
      </trkpt>
      <trkpt lat="41.227982" lon="1.445768">
        <ele>212.2</ele>
        <time>2014-12-07T10:34:00Z</time>
      </trkpt>
      <trkpt lat="41.227997" lon="1.445794">
        <ele>212.8</ele>
        <time>2014-12-07T10:34:01Z</time>
      </trkpt>
      <trkpt lat="41.228008" lon="1.445824">
        <ele>213.4</ele>
        <time>2014-12-07T10:34:02Z</time>
      </trkpt>
      <trkpt lat="41.228024" lon="1.445849">
        <ele>214.0</ele>
        <time>2014-12-07T10:34:03Z</time>
      </trkpt>
      <trkpt lat="41.228081" lon="1.445959">
        <ele>214.0</ele>
        <time>2014-12-07T10:34:07Z</time>
      </trkpt>
      <trkpt lat="41.228188" lon="1.446180">
        <ele>214.0</ele>
        <time>2014-12-07T10:34:13Z</time>
      </trkpt>
      <trkpt lat="41.228226" lon="1.446251">
        <ele>214.4</ele>
        <time>2014-12-07T10:34:15Z</time>
      </trkpt>
      <trkpt lat="41.228252" lon="1.446281">
        <ele>214.8</ele>
        <time>2014-12-07T10:34:16Z</time>
      </trkpt>
      <trkpt lat="41.228275" lon="1.446309">
        <ele>215.2</ele>
        <time>2014-12-07T10:34:17Z</time>
      </trkpt>
      <trkpt lat="41.228302" lon="1.446340">
        <ele>215.6</ele>
        <time>2014-12-07T10:34:18Z</time>
      </trkpt>
      <trkpt lat="41.228325" lon="1.446373">
        <ele>216.0</ele>
        <time>2014-12-07T10:34:19Z</time>
      </trkpt>
      <trkpt lat="41.228352" lon="1.446404">
        <ele>216.0</ele>
        <time>2014-12-07T10:34:20Z</time>
      </trkpt>
      <trkpt lat="41.228497" lon="1.446551">
        <ele>216.0</ele>
        <time>2014-12-07T10:34:26Z</time>
      </trkpt>
      <trkpt lat="41.228626" lon="1.446668">
        <ele>216.0</ele>
        <time>2014-12-07T10:34:32Z</time>
      </trkpt>
      <trkpt lat="41.228649" lon="1.446672">
        <ele>216.4</ele>
        <time>2014-12-07T10:34:33Z</time>
      </trkpt>
      <trkpt lat="41.228672" lon="1.446678">
        <ele>217.0</ele>
        <time>2014-12-07T10:34:34Z</time>
      </trkpt>
      <trkpt lat="41.228691" lon="1.446681">
        <ele>217.4</ele>
        <time>2014-12-07T10:34:35Z</time>
      </trkpt>
      <trkpt lat="41.228710" lon="1.446685">
        <ele>217.8</ele>
        <time>2014-12-07T10:34:36Z</time>
      </trkpt>
      <trkpt lat="41.228729" lon="1.446690">
        <ele>218.2</ele>
        <time>2014-12-07T10:34:37Z</time>
      </trkpt>
      <trkpt lat="41.228748" lon="1.446696">
        <ele>218.6</ele>
        <time>2014-12-07T10:34:38Z</time>
      </trkpt>
      <trkpt lat="41.228767" lon="1.446702">
        <ele>219.0</ele>
        <time>2014-12-07T10:34:39Z</time>
      </trkpt>
      <trkpt lat="41.228790" lon="1.446697">
        <ele>219.4</ele>
        <time>2014-12-07T10:34:40Z</time>
      </trkpt>
      <trkpt lat="41.228806" lon="1.446692">
        <ele>219.8</ele>
        <time>2014-12-07T10:34:41Z</time>
      </trkpt>
      <trkpt lat="41.228825" lon="1.446695">
        <ele>220.4</ele>
        <time>2014-12-07T10:34:42Z</time>
      </trkpt>
      <trkpt lat="41.228844" lon="1.446694">
        <ele>220.8</ele>
        <time>2014-12-07T10:34:43Z</time>
      </trkpt>
      <trkpt lat="41.228863" lon="1.446698">
        <ele>221.4</ele>
        <time>2014-12-07T10:34:44Z</time>
      </trkpt>
      <trkpt lat="41.228882" lon="1.446701">
        <ele>221.8</ele>
        <time>2014-12-07T10:34:45Z</time>
      </trkpt>
      <trkpt lat="41.228901" lon="1.446706">
        <ele>222.4</ele>
        <time>2014-12-07T10:34:46Z</time>
      </trkpt>
      <trkpt lat="41.228954" lon="1.446700">
        <ele>222.8</ele>
        <time>2014-12-07T10:34:49Z</time>
      </trkpt>
      <trkpt lat="41.228973" lon="1.446704">
        <ele>223.2</ele>
        <time>2014-12-07T10:34:50Z</time>
      </trkpt>
      <trkpt lat="41.228992" lon="1.446707">
        <ele>223.8</ele>
        <time>2014-12-07T10:34:51Z</time>
      </trkpt>
      <trkpt lat="41.229008" lon="1.446711">
        <ele>224.2</ele>
        <time>2014-12-07T10:34:52Z</time>
      </trkpt>
      <trkpt lat="41.229027" lon="1.446719">
        <ele>224.6</ele>
        <time>2014-12-07T10:34:53Z</time>
      </trkpt>
      <trkpt lat="41.229042" lon="1.446726">
        <ele>225.0</ele>
        <time>2014-12-07T10:34:54Z</time>
      </trkpt>
      <trkpt lat="41.229057" lon="1.446737">
        <ele>225.6</ele>
        <time>2014-12-07T10:34:55Z</time>
      </trkpt>
      <trkpt lat="41.229076" lon="1.446746">
        <ele>226.0</ele>
        <time>2014-12-07T10:34:56Z</time>
      </trkpt>
      <trkpt lat="41.229095" lon="1.446753">
        <ele>226.4</ele>
        <time>2014-12-07T10:34:57Z</time>
      </trkpt>
      <trkpt lat="41.229115" lon="1.446761">
        <ele>226.8</ele>
        <time>2014-12-07T10:34:58Z</time>
      </trkpt>
      <trkpt lat="41.229176" lon="1.446782">
        <ele>227.2</ele>
        <time>2014-12-07T10:35:01Z</time>
      </trkpt>
      <trkpt lat="41.229195" lon="1.446784">
        <ele>227.6</ele>
        <time>2014-12-07T10:35:02Z</time>
      </trkpt>
      <trkpt lat="41.229214" lon="1.446788">
        <ele>228.6</ele>
        <time>2014-12-07T10:35:03Z</time>
      </trkpt>
      <trkpt lat="41.229233" lon="1.446790">
        <ele>229.0</ele>
        <time>2014-12-07T10:35:04Z</time>
      </trkpt>
      <trkpt lat="41.229252" lon="1.446787">
        <ele>229.0</ele>
        <time>2014-12-07T10:35:05Z</time>
      </trkpt>
      <trkpt lat="41.229271" lon="1.446793">
        <ele>229.6</ele>
        <time>2014-12-07T10:35:06Z</time>
      </trkpt>
      <trkpt lat="41.229298" lon="1.446809">
        <ele>230.0</ele>
        <time>2014-12-07T10:35:07Z</time>
      </trkpt>
      <trkpt lat="41.229317" lon="1.446828">
        <ele>230.4</ele>
        <time>2014-12-07T10:35:08Z</time>
      </trkpt>
      <trkpt lat="41.229340" lon="1.446847">
        <ele>231.0</ele>
        <time>2014-12-07T10:35:09Z</time>
      </trkpt>
      <trkpt lat="41.229355" lon="1.446864">
        <ele>231.4</ele>
        <time>2014-12-07T10:35:10Z</time>
      </trkpt>
      <trkpt lat="41.229389" lon="1.446900">
        <ele>231.8</ele>
        <time>2014-12-07T10:35:12Z</time>
      </trkpt>
      <trkpt lat="41.229404" lon="1.446920">
        <ele>232.4</ele>
        <time>2014-12-07T10:35:13Z</time>
      </trkpt>
      <trkpt lat="41.229416" lon="1.446942">
        <ele>233.0</ele>
        <time>2014-12-07T10:35:14Z</time>
      </trkpt>
      <trkpt lat="41.229427" lon="1.446965">
        <ele>233.8</ele>
        <time>2014-12-07T10:35:15Z</time>
      </trkpt>
      <trkpt lat="41.229443" lon="1.446986">
        <ele>234.4</ele>
        <time>2014-12-07T10:35:16Z</time>
      </trkpt>
      <trkpt lat="41.229454" lon="1.447008">
        <ele>235.2</ele>
        <time>2014-12-07T10:35:17Z</time>
      </trkpt>
      <trkpt lat="41.229473" lon="1.447027">
        <ele>235.8</ele>
        <time>2014-12-07T10:35:18Z</time>
      </trkpt>
      <trkpt lat="41.229488" lon="1.447048">
        <ele>236.4</ele>
        <time>2014-12-07T10:35:19Z</time>
      </trkpt>
      <trkpt lat="41.229511" lon="1.447072">
        <ele>237.0</ele>
        <time>2014-12-07T10:35:20Z</time>
      </trkpt>
      <trkpt lat="41.229530" lon="1.447092">
        <ele>237.6</ele>
        <time>2014-12-07T10:35:21Z</time>
      </trkpt>
      <trkpt lat="41.229549" lon="1.447115">
        <ele>238.2</ele>
        <time>2014-12-07T10:35:22Z</time>
      </trkpt>
      <trkpt lat="41.229568" lon="1.447140">
        <ele>238.2</ele>
        <time>2014-12-07T10:35:23Z</time>
      </trkpt>
      <trkpt lat="41.229694" lon="1.447206">
        <ele>238.2</ele>
        <time>2014-12-07T10:35:28Z</time>
      </trkpt>
      <trkpt lat="41.229832" lon="1.447246">
        <ele>238.2</ele>
        <time>2014-12-07T10:35:32Z</time>
      </trkpt>
      <trkpt lat="41.229877" lon="1.447260">
        <ele>238.2</ele>
        <time>2014-12-07T10:35:33Z</time>
      </trkpt>
      <trkpt lat="41.230068" lon="1.447345">
        <ele>238.2</ele>
        <time>2014-12-07T10:35:37Z</time>
      </trkpt>
      <trkpt lat="41.230125" lon="1.447375">
        <ele>238.2</ele>
        <time>2014-12-07T10:35:38Z</time>
      </trkpt>
      <trkpt lat="41.230186" lon="1.447409">
        <ele>237.8</ele>
        <time>2014-12-07T10:35:39Z</time>
      </trkpt>
      <trkpt lat="41.230244" lon="1.447443">
        <ele>237.4</ele>
        <time>2014-12-07T10:35:40Z</time>
      </trkpt>
      <trkpt lat="41.230301" lon="1.447484">
        <ele>236.8</ele>
        <time>2014-12-07T10:35:41Z</time>
      </trkpt>
      <trkpt lat="41.230362" lon="1.447515">
        <ele>236.4</ele>
        <time>2014-12-07T10:35:42Z</time>
      </trkpt>
      <trkpt lat="41.230415" lon="1.447546">
        <ele>235.8</ele>
        <time>2014-12-07T10:35:43Z</time>
      </trkpt>
      <trkpt lat="41.230537" lon="1.447623">
        <ele>235.8</ele>
        <time>2014-12-07T10:35:46Z</time>
      </trkpt>
      <trkpt lat="41.230572" lon="1.447646">
        <ele>235.8</ele>
        <time>2014-12-07T10:35:47Z</time>
      </trkpt>
      <trkpt lat="41.230667" lon="1.447707">
        <ele>235.8</ele>
        <time>2014-12-07T10:35:51Z</time>
      </trkpt>
      <trkpt lat="41.230686" lon="1.447728">
        <ele>235.8</ele>
        <time>2014-12-07T10:35:52Z</time>
      </trkpt>
      <trkpt lat="41.230717" lon="1.447735">
        <ele>235.8</ele>
        <time>2014-12-07T10:35:53Z</time>
      </trkpt>
      <trkpt lat="41.230770" lon="1.447758">
        <ele>235.8</ele>
        <time>2014-12-07T10:35:55Z</time>
      </trkpt>
      <trkpt lat="41.230789" lon="1.447774">
        <ele>236.4</ele>
        <time>2014-12-07T10:35:56Z</time>
      </trkpt>
      <trkpt lat="41.230808" lon="1.447788">
        <ele>236.8</ele>
        <time>2014-12-07T10:35:57Z</time>
      </trkpt>
      <trkpt lat="41.230827" lon="1.447804">
        <ele>237.2</ele>
        <time>2014-12-07T10:35:58Z</time>
      </trkpt>
      <trkpt lat="41.230854" lon="1.447823">
        <ele>237.6</ele>
        <time>2014-12-07T10:35:59Z</time>
      </trkpt>
      <trkpt lat="41.230881" lon="1.447840">
        <ele>238.0</ele>
        <time>2014-12-07T10:36:00Z</time>
      </trkpt>
      <trkpt lat="41.230907" lon="1.447852">
        <ele>238.0</ele>
        <time>2014-12-07T10:36:01Z</time>
      </trkpt>
      <trkpt lat="41.230934" lon="1.447860">
        <ele>238.6</ele>
        <time>2014-12-07T10:36:02Z</time>
      </trkpt>
      <trkpt lat="41.230961" lon="1.447875">
        <ele>239.0</ele>
        <time>2014-12-07T10:36:03Z</time>
      </trkpt>
      <trkpt lat="41.230991" lon="1.447886">
        <ele>239.6</ele>
        <time>2014-12-07T10:36:04Z</time>
      </trkpt>
      <trkpt lat="41.231022" lon="1.447898">
        <ele>240.2</ele>
        <time>2014-12-07T10:36:05Z</time>
      </trkpt>
      <trkpt lat="41.231049" lon="1.447912">
        <ele>240.6</ele>
        <time>2014-12-07T10:36:06Z</time>
      </trkpt>
      <trkpt lat="41.231079" lon="1.447923">
        <ele>240.6</ele>
        <time>2014-12-07T10:36:07Z</time>
      </trkpt>
      <trkpt lat="41.231213" lon="1.447965">
        <ele>240.6</ele>
        <time>2014-12-07T10:36:11Z</time>
      </trkpt>
      <trkpt lat="41.231258" lon="1.447984">
        <ele>240.6</ele>
        <time>2014-12-07T10:36:12Z</time>
      </trkpt>
      <trkpt lat="41.231503" lon="1.448111">
        <ele>240.6</ele>
        <time>2014-12-07T10:36:18Z</time>
      </trkpt>
      <trkpt lat="41.231621" lon="1.448177">
        <ele>241.2</ele>
        <time>2014-12-07T10:36:22Z</time>
      </trkpt>
      <trkpt lat="41.231647" lon="1.448185">
        <ele>241.6</ele>
        <time>2014-12-07T10:36:23Z</time>
      </trkpt>
      <trkpt lat="41.231678" lon="1.448197">
        <ele>242.0</ele>
        <time>2014-12-07T10:36:24Z</time>
      </trkpt>
      <trkpt lat="41.231705" lon="1.448200">
        <ele>242.6</ele>
        <time>2014-12-07T10:36:25Z</time>
      </trkpt>
      <trkpt lat="41.231739" lon="1.448199">
        <ele>243.2</ele>
        <time>2014-12-07T10:36:26Z</time>
      </trkpt>
      <trkpt lat="41.231773" lon="1.448195">
        <ele>243.6</ele>
        <time>2014-12-07T10:36:27Z</time>
      </trkpt>
      <trkpt lat="41.231812" lon="1.448207">
        <ele>244.2</ele>
        <time>2014-12-07T10:36:28Z</time>
      </trkpt>
      <trkpt lat="41.231853" lon="1.448240">
        <ele>244.8</ele>
        <time>2014-12-07T10:36:29Z</time>
      </trkpt>
      <trkpt lat="41.231888" lon="1.448282">
        <ele>245.4</ele>
        <time>2014-12-07T10:36:30Z</time>
      </trkpt>
      <trkpt lat="41.231911" lon="1.448341">
        <ele>245.0</ele>
        <time>2014-12-07T10:36:31Z</time>
      </trkpt>
      <trkpt lat="41.231930" lon="1.448394">
        <ele>244.6</ele>
        <time>2014-12-07T10:36:32Z</time>
      </trkpt>
      <trkpt lat="41.231956" lon="1.448434">
        <ele>244.2</ele>
        <time>2014-12-07T10:36:33Z</time>
      </trkpt>
      <trkpt lat="41.231983" lon="1.448470">
        <ele>243.6</ele>
        <time>2014-12-07T10:36:34Z</time>
      </trkpt>
      <trkpt lat="41.232010" lon="1.448496">
        <ele>243.2</ele>
        <time>2014-12-07T10:36:35Z</time>
      </trkpt>
      <trkpt lat="41.232048" lon="1.448506">
        <ele>242.8</ele>
        <time>2014-12-07T10:36:36Z</time>
      </trkpt>
      <trkpt lat="41.232090" lon="1.448515">
        <ele>242.4</ele>
        <time>2014-12-07T10:36:37Z</time>
      </trkpt>
      <trkpt lat="41.232147" lon="1.448517">
        <ele>241.8</ele>
        <time>2014-12-07T10:36:38Z</time>
      </trkpt>
      <trkpt lat="41.232220" lon="1.448510">
        <ele>241.4</ele>
        <time>2014-12-07T10:36:39Z</time>
      </trkpt>
      <trkpt lat="41.232292" lon="1.448499">
        <ele>241.0</ele>
        <time>2014-12-07T10:36:40Z</time>
      </trkpt>
      <trkpt lat="41.232372" lon="1.448489">
        <ele>241.0</ele>
        <time>2014-12-07T10:36:41Z</time>
      </trkpt>
      <trkpt lat="41.232456" lon="1.448478">
        <ele>240.2</ele>
        <time>2014-12-07T10:36:42Z</time>
      </trkpt>
      <trkpt lat="41.232529" lon="1.448464">
        <ele>239.6</ele>
        <time>2014-12-07T10:36:43Z</time>
      </trkpt>
      <trkpt lat="41.232582" lon="1.448451">
        <ele>239.0</ele>
        <time>2014-12-07T10:36:44Z</time>
      </trkpt>
      <trkpt lat="41.232624" lon="1.448438">
        <ele>238.4</ele>
        <time>2014-12-07T10:36:45Z</time>
      </trkpt>
      <trkpt lat="41.232662" lon="1.448430">
        <ele>238.0</ele>
        <time>2014-12-07T10:36:46Z</time>
      </trkpt>
      <trkpt lat="41.232689" lon="1.448423">
        <ele>237.4</ele>
        <time>2014-12-07T10:36:47Z</time>
      </trkpt>
      <trkpt lat="41.232708" lon="1.448412">
        <ele>236.8</ele>
        <time>2014-12-07T10:36:48Z</time>
      </trkpt>
      <trkpt lat="41.232735" lon="1.448403">
        <ele>236.8</ele>
        <time>2014-12-07T10:36:49Z</time>
      </trkpt>
      <trkpt lat="41.232887" lon="1.448396">
        <ele>236.8</ele>
        <time>2014-12-07T10:36:54Z</time>
      </trkpt>
      <trkpt lat="41.233070" lon="1.448351">
        <ele>236.8</ele>
        <time>2014-12-07T10:36:59Z</time>
      </trkpt>
      <trkpt lat="41.233200" lon="1.448245">
        <ele>236.8</ele>
        <time>2014-12-07T10:37:05Z</time>
      </trkpt>
      <trkpt lat="41.233292" lon="1.448170">
        <ele>236.8</ele>
        <time>2014-12-07T10:37:09Z</time>
      </trkpt>
      <trkpt lat="41.233360" lon="1.448104">
        <ele>237.2</ele>
        <time>2014-12-07T10:37:12Z</time>
      </trkpt>
      <trkpt lat="41.233383" lon="1.448081">
        <ele>237.6</ele>
        <time>2014-12-07T10:37:13Z</time>
      </trkpt>
      <trkpt lat="41.233402" lon="1.448058">
        <ele>238.0</ele>
        <time>2014-12-07T10:37:14Z</time>
      </trkpt>
      <trkpt lat="41.233421" lon="1.448036">
        <ele>238.6</ele>
        <time>2014-12-07T10:37:15Z</time>
      </trkpt>
      <trkpt lat="41.233437" lon="1.448017">
        <ele>239.0</ele>
        <time>2014-12-07T10:37:16Z</time>
      </trkpt>
      <trkpt lat="41.233456" lon="1.447992">
        <ele>239.0</ele>
        <time>2014-12-07T10:37:17Z</time>
      </trkpt>
      <trkpt lat="41.233475" lon="1.447969">
        <ele>239.4</ele>
        <time>2014-12-07T10:37:18Z</time>
      </trkpt>
      <trkpt lat="41.233490" lon="1.447947">
        <ele>240.0</ele>
        <time>2014-12-07T10:37:19Z</time>
      </trkpt>
      <trkpt lat="41.233505" lon="1.447921">
        <ele>240.4</ele>
        <time>2014-12-07T10:37:20Z</time>
      </trkpt>
      <trkpt lat="41.233521" lon="1.447900">
        <ele>241.0</ele>
        <time>2014-12-07T10:37:21Z</time>
      </trkpt>
      <trkpt lat="41.233536" lon="1.447882">
        <ele>241.4</ele>
        <time>2014-12-07T10:37:22Z</time>
      </trkpt>
      <trkpt lat="41.233555" lon="1.447858">
        <ele>241.4</ele>
        <time>2014-12-07T10:37:23Z</time>
      </trkpt>
      <trkpt lat="41.233574" lon="1.447830">
        <ele>241.8</ele>
        <time>2014-12-07T10:37:24Z</time>
      </trkpt>
      <trkpt lat="41.233593" lon="1.447807">
        <ele>242.4</ele>
        <time>2014-12-07T10:37:25Z</time>
      </trkpt>
      <trkpt lat="41.233612" lon="1.447786">
        <ele>242.8</ele>
        <time>2014-12-07T10:37:26Z</time>
      </trkpt>
      <trkpt lat="41.233635" lon="1.447766">
        <ele>243.4</ele>
        <time>2014-12-07T10:37:27Z</time>
      </trkpt>
      <trkpt lat="41.233654" lon="1.447752">
        <ele>243.8</ele>
        <time>2014-12-07T10:37:28Z</time>
      </trkpt>
      <trkpt lat="41.233677" lon="1.447737">
        <ele>244.4</ele>
        <time>2014-12-07T10:37:29Z</time>
      </trkpt>
      <trkpt lat="41.233696" lon="1.447724">
        <ele>245.0</ele>
        <time>2014-12-07T10:37:30Z</time>
      </trkpt>
      <trkpt lat="41.233719" lon="1.447715">
        <ele>245.4</ele>
        <time>2014-12-07T10:37:31Z</time>
      </trkpt>
      <trkpt lat="41.233746" lon="1.447707">
        <ele>246.0</ele>
        <time>2014-12-07T10:37:32Z</time>
      </trkpt>
      <trkpt lat="41.233768" lon="1.447698">
        <ele>246.4</ele>
        <time>2014-12-07T10:37:33Z</time>
      </trkpt>
      <trkpt lat="41.233791" lon="1.447695">
        <ele>247.0</ele>
        <time>2014-12-07T10:37:34Z</time>
      </trkpt>
      <trkpt lat="41.233814" lon="1.447690">
        <ele>247.4</ele>
        <time>2014-12-07T10:37:35Z</time>
      </trkpt>
      <trkpt lat="41.233833" lon="1.447690">
        <ele>248.0</ele>
        <time>2014-12-07T10:37:36Z</time>
      </trkpt>
      <trkpt lat="41.233864" lon="1.447686">
        <ele>248.4</ele>
        <time>2014-12-07T10:37:37Z</time>
      </trkpt>
      <trkpt lat="41.233967" lon="1.447673">
        <ele>248.8</ele>
        <time>2014-12-07T10:37:41Z</time>
      </trkpt>
      <trkpt lat="41.233990" lon="1.447672">
        <ele>249.2</ele>
        <time>2014-12-07T10:37:42Z</time>
      </trkpt>
      <trkpt lat="41.234016" lon="1.447677">
        <ele>249.6</ele>
        <time>2014-12-07T10:37:43Z</time>
      </trkpt>
      <trkpt lat="41.234039" lon="1.447682">
        <ele>250.0</ele>
        <time>2014-12-07T10:37:44Z</time>
      </trkpt>
      <trkpt lat="41.234058" lon="1.447685">
        <ele>250.4</ele>
        <time>2014-12-07T10:37:45Z</time>
      </trkpt>
      <trkpt lat="41.234127" lon="1.447682">
        <ele>250.8</ele>
        <time>2014-12-07T10:37:48Z</time>
      </trkpt>
      <trkpt lat="41.234158" lon="1.447684">
        <ele>251.2</ele>
        <time>2014-12-07T10:37:49Z</time>
      </trkpt>
      <trkpt lat="41.234180" lon="1.447682">
        <ele>251.8</ele>
        <time>2014-12-07T10:37:50Z</time>
      </trkpt>
      <trkpt lat="41.234207" lon="1.447684">
        <ele>252.2</ele>
        <time>2014-12-07T10:37:51Z</time>
      </trkpt>
      <trkpt lat="41.234234" lon="1.447680">
        <ele>252.6</ele>
        <time>2014-12-07T10:37:52Z</time>
      </trkpt>
      <trkpt lat="41.234261" lon="1.447672">
        <ele>252.6</ele>
        <time>2014-12-07T10:37:53Z</time>
      </trkpt>
      <trkpt lat="41.234390" lon="1.447637">
        <ele>253.0</ele>
        <time>2014-12-07T10:37:58Z</time>
      </trkpt>
      <trkpt lat="41.234413" lon="1.447628">
        <ele>253.4</ele>
        <time>2014-12-07T10:37:59Z</time>
      </trkpt>
      <trkpt lat="41.234440" lon="1.447620">
        <ele>253.8</ele>
        <time>2014-12-07T10:38:00Z</time>
      </trkpt>
      <trkpt lat="41.234467" lon="1.447616">
        <ele>254.2</ele>
        <time>2014-12-07T10:38:01Z</time>
      </trkpt>
      <trkpt lat="41.234493" lon="1.447615">
        <ele>254.6</ele>
        <time>2014-12-07T10:38:02Z</time>
      </trkpt>
      <trkpt lat="41.234547" lon="1.447617">
        <ele>254.6</ele>
        <time>2014-12-07T10:38:04Z</time>
      </trkpt>
      <trkpt lat="41.234646" lon="1.447649">
        <ele>254.6</ele>
        <time>2014-12-07T10:38:08Z</time>
      </trkpt>
      <trkpt lat="41.234665" lon="1.447662">
        <ele>254.6</ele>
        <time>2014-12-07T10:38:09Z</time>
      </trkpt>
      <trkpt lat="41.234692" lon="1.447674">
        <ele>255.0</ele>
        <time>2014-12-07T10:38:10Z</time>
      </trkpt>
      <trkpt lat="41.234711" lon="1.447689">
        <ele>255.4</ele>
        <time>2014-12-07T10:38:11Z</time>
      </trkpt>
      <trkpt lat="41.234737" lon="1.447701">
        <ele>256.0</ele>
        <time>2014-12-07T10:38:12Z</time>
      </trkpt>
      <trkpt lat="41.234760" lon="1.447707">
        <ele>256.4</ele>
        <time>2014-12-07T10:38:13Z</time>
      </trkpt>
      <trkpt lat="41.234783" lon="1.447714">
        <ele>257.0</ele>
        <time>2014-12-07T10:38:14Z</time>
      </trkpt>
      <trkpt lat="41.234806" lon="1.447722">
        <ele>257.4</ele>
        <time>2014-12-07T10:38:15Z</time>
      </trkpt>
      <trkpt lat="41.234837" lon="1.447728">
        <ele>258.0</ele>
        <time>2014-12-07T10:38:16Z</time>
      </trkpt>
      <trkpt lat="41.234863" lon="1.447736">
        <ele>258.6</ele>
        <time>2014-12-07T10:38:17Z</time>
      </trkpt>
      <trkpt lat="41.234882" lon="1.447746">
        <ele>259.0</ele>
        <time>2014-12-07T10:38:18Z</time>
      </trkpt>
      <trkpt lat="41.234955" lon="1.447782">
        <ele>259.6</ele>
        <time>2014-12-07T10:38:21Z</time>
      </trkpt>
      <trkpt lat="41.234974" lon="1.447792">
        <ele>260.6</ele>
        <time>2014-12-07T10:38:22Z</time>
      </trkpt>
      <trkpt lat="41.235001" lon="1.447809">
        <ele>261.0</ele>
        <time>2014-12-07T10:38:23Z</time>
      </trkpt>
      <trkpt lat="41.235023" lon="1.447823">
        <ele>261.4</ele>
        <time>2014-12-07T10:38:24Z</time>
      </trkpt>
      <trkpt lat="41.235096" lon="1.447865">
        <ele>262.0</ele>
        <time>2014-12-07T10:38:27Z</time>
      </trkpt>
      <trkpt lat="41.235119" lon="1.447875">
        <ele>262.4</ele>
        <time>2014-12-07T10:38:28Z</time>
      </trkpt>
      <trkpt lat="41.235138" lon="1.447890">
        <ele>262.8</ele>
        <time>2014-12-07T10:38:29Z</time>
      </trkpt>
      <trkpt lat="41.235157" lon="1.447906">
        <ele>263.2</ele>
        <time>2014-12-07T10:38:30Z</time>
      </trkpt>
      <trkpt lat="41.235180" lon="1.447920">
        <ele>263.6</ele>
        <time>2014-12-07T10:38:31Z</time>
      </trkpt>
      <trkpt lat="41.235260" lon="1.448027">
        <ele>263.6</ele>
        <time>2014-12-07T10:38:36Z</time>
      </trkpt>
      <trkpt lat="41.235367" lon="1.448150">
        <ele>263.6</ele>
        <time>2014-12-07T10:38:41Z</time>
      </trkpt>
      <trkpt lat="41.235546" lon="1.448242">
        <ele>263.6</ele>
        <time>2014-12-07T10:38:47Z</time>
      </trkpt>
      <trkpt lat="41.235680" lon="1.448247">
        <ele>263.6</ele>
        <time>2014-12-07T10:38:53Z</time>
      </trkpt>
      <trkpt lat="41.235733" lon="1.448235">
        <ele>264.0</ele>
        <time>2014-12-07T10:38:56Z</time>
      </trkpt>
      <trkpt lat="41.235756" lon="1.448233">
        <ele>264.4</ele>
        <time>2014-12-07T10:38:57Z</time>
      </trkpt>
      <trkpt lat="41.235775" lon="1.448228">
        <ele>264.8</ele>
        <time>2014-12-07T10:38:58Z</time>
      </trkpt>
      <trkpt lat="41.235794" lon="1.448226">
        <ele>265.6</ele>
        <time>2014-12-07T10:38:59Z</time>
      </trkpt>
      <trkpt lat="41.235813" lon="1.448226">
        <ele>266.2</ele>
        <time>2014-12-07T10:39:00Z</time>
      </trkpt>
      <trkpt lat="41.235832" lon="1.448227">
        <ele>267.0</ele>
        <time>2014-12-07T10:39:01Z</time>
      </trkpt>
      <trkpt lat="41.235847" lon="1.448225">
        <ele>267.6</ele>
        <time>2014-12-07T10:39:02Z</time>
      </trkpt>
      <trkpt lat="41.235863" lon="1.448226">
        <ele>268.2</ele>
        <time>2014-12-07T10:39:03Z</time>
      </trkpt>
      <trkpt lat="41.235905" lon="1.448235">
        <ele>268.8</ele>
        <time>2014-12-07T10:39:05Z</time>
      </trkpt>
      <trkpt lat="41.235924" lon="1.448239">
        <ele>269.2</ele>
        <time>2014-12-07T10:39:06Z</time>
      </trkpt>
      <trkpt lat="41.235943" lon="1.448247">
        <ele>269.6</ele>
        <time>2014-12-07T10:39:07Z</time>
      </trkpt>
      <trkpt lat="41.235962" lon="1.448252">
        <ele>270.2</ele>
        <time>2014-12-07T10:39:08Z</time>
      </trkpt>
      <trkpt lat="41.235985" lon="1.448259">
        <ele>270.6</ele>
        <time>2014-12-07T10:39:09Z</time>
      </trkpt>
      <trkpt lat="41.236061" lon="1.448297">
        <ele>270.6</ele>
        <time>2014-12-07T10:39:13Z</time>
      </trkpt>
      <trkpt lat="41.236107" lon="1.448321">
        <ele>271.0</ele>
        <time>2014-12-07T10:39:15Z</time>
      </trkpt>
      <trkpt lat="41.236130" lon="1.448335">
        <ele>271.4</ele>
        <time>2014-12-07T10:39:16Z</time>
      </trkpt>
      <trkpt lat="41.236156" lon="1.448347">
        <ele>272.0</ele>
        <time>2014-12-07T10:39:17Z</time>
      </trkpt>
      <trkpt lat="41.236183" lon="1.448362">
        <ele>272.4</ele>
        <time>2014-12-07T10:39:18Z</time>
      </trkpt>
      <trkpt lat="41.236206" lon="1.448372">
        <ele>272.8</ele>
        <time>2014-12-07T10:39:19Z</time>
      </trkpt>
      <trkpt lat="41.236248" lon="1.448393">
        <ele>273.4</ele>
        <time>2014-12-07T10:39:21Z</time>
      </trkpt>
      <trkpt lat="41.236271" lon="1.448404">
        <ele>274.4</ele>
        <time>2014-12-07T10:39:22Z</time>
      </trkpt>
      <trkpt lat="41.236294" lon="1.448416">
        <ele>275.2</ele>
        <time>2014-12-07T10:39:23Z</time>
      </trkpt>
      <trkpt lat="41.236317" lon="1.448423">
        <ele>276.2</ele>
        <time>2014-12-07T10:39:24Z</time>
      </trkpt>
      <trkpt lat="41.236340" lon="1.448425">
        <ele>277.2</ele>
        <time>2014-12-07T10:39:25Z</time>
      </trkpt>
      <trkpt lat="41.236366" lon="1.448431">
        <ele>278.2</ele>
        <time>2014-12-07T10:39:26Z</time>
      </trkpt>
      <trkpt lat="41.236454" lon="1.448455">
        <ele>277.6</ele>
        <time>2014-12-07T10:39:29Z</time>
      </trkpt>
      <trkpt lat="41.236488" lon="1.448467">
        <ele>277.2</ele>
        <time>2014-12-07T10:39:30Z</time>
      </trkpt>
      <trkpt lat="41.236526" lon="1.448475">
        <ele>276.8</ele>
        <time>2014-12-07T10:39:31Z</time>
      </trkpt>
      <trkpt lat="41.236565" lon="1.448482">
        <ele>276.2</ele>
        <time>2014-12-07T10:39:32Z</time>
      </trkpt>
      <trkpt lat="41.236599" lon="1.448496">
        <ele>275.8</ele>
        <time>2014-12-07T10:39:33Z</time>
      </trkpt>
      <trkpt lat="41.236698" lon="1.448519">
        <ele>275.8</ele>
        <time>2014-12-07T10:39:36Z</time>
      </trkpt>
      <trkpt lat="41.236816" lon="1.448546">
        <ele>275.8</ele>
        <time>2014-12-07T10:39:41Z</time>
      </trkpt>
      <trkpt lat="41.236908" lon="1.448690">
        <ele>275.8</ele>
        <time>2014-12-07T10:39:47Z</time>
      </trkpt>
      <trkpt lat="41.236908" lon="1.448759">
        <ele>276.2</ele>
        <time>2014-12-07T10:39:49Z</time>
      </trkpt>
      <trkpt lat="41.236912" lon="1.448791">
        <ele>276.8</ele>
        <time>2014-12-07T10:39:50Z</time>
      </trkpt>
      <trkpt lat="41.236912" lon="1.448819">
        <ele>277.2</ele>
        <time>2014-12-07T10:39:51Z</time>
      </trkpt>
      <trkpt lat="41.236908" lon="1.448856">
        <ele>277.8</ele>
        <time>2014-12-07T10:39:52Z</time>
      </trkpt>
      <trkpt lat="41.236904" lon="1.448897">
        <ele>278.2</ele>
        <time>2014-12-07T10:39:53Z</time>
      </trkpt>
      <trkpt lat="41.236908" lon="1.449100">
        <ele>278.6</ele>
        <time>2014-12-07T10:39:58Z</time>
      </trkpt>
      <trkpt lat="41.236904" lon="1.449140">
        <ele>279.2</ele>
        <time>2014-12-07T10:39:59Z</time>
      </trkpt>
      <trkpt lat="41.236900" lon="1.449183">
        <ele>279.6</ele>
        <time>2014-12-07T10:40:00Z</time>
      </trkpt>
      <trkpt lat="41.236897" lon="1.449218">
        <ele>280.6</ele>
        <time>2014-12-07T10:40:01Z</time>
      </trkpt>
      <trkpt lat="41.236889" lon="1.449257">
        <ele>281.0</ele>
        <time>2014-12-07T10:40:02Z</time>
      </trkpt>
      <trkpt lat="41.236881" lon="1.449294">
        <ele>281.6</ele>
        <time>2014-12-07T10:40:03Z</time>
      </trkpt>
      <trkpt lat="41.236881" lon="1.449333">
        <ele>282.2</ele>
        <time>2014-12-07T10:40:04Z</time>
      </trkpt>
      <trkpt lat="41.236881" lon="1.449373">
        <ele>282.8</ele>
        <time>2014-12-07T10:40:05Z</time>
      </trkpt>
      <trkpt lat="41.236889" lon="1.449414">
        <ele>283.6</ele>
        <time>2014-12-07T10:40:06Z</time>
      </trkpt>
      <trkpt lat="41.236897" lon="1.449448">
        <ele>284.2</ele>
        <time>2014-12-07T10:40:07Z</time>
      </trkpt>
      <trkpt lat="41.236908" lon="1.449482">
        <ele>285.0</ele>
        <time>2014-12-07T10:40:08Z</time>
      </trkpt>
      <trkpt lat="41.236919" lon="1.449521">
        <ele>285.6</ele>
        <time>2014-12-07T10:40:09Z</time>
      </trkpt>
      <trkpt lat="41.236938" lon="1.449561">
        <ele>286.4</ele>
        <time>2014-12-07T10:40:10Z</time>
      </trkpt>
      <trkpt lat="41.236954" lon="1.449605">
        <ele>287.0</ele>
        <time>2014-12-07T10:40:11Z</time>
      </trkpt>
      <trkpt lat="41.237061" lon="1.449841">
        <ele>287.0</ele>
        <time>2014-12-07T10:40:17Z</time>
      </trkpt>
      <trkpt lat="41.237137" lon="1.449965">
        <ele>287.6</ele>
        <time>2014-12-07T10:40:21Z</time>
      </trkpt>
      <trkpt lat="41.237156" lon="1.449989">
        <ele>288.2</ele>
        <time>2014-12-07T10:40:22Z</time>
      </trkpt>
      <trkpt lat="41.237179" lon="1.450012">
        <ele>288.6</ele>
        <time>2014-12-07T10:40:23Z</time>
      </trkpt>
      <trkpt lat="41.237198" lon="1.450037">
        <ele>289.2</ele>
        <time>2014-12-07T10:40:24Z</time>
      </trkpt>
      <trkpt lat="41.237221" lon="1.450066">
        <ele>289.8</ele>
        <time>2014-12-07T10:40:25Z</time>
      </trkpt>
      <trkpt lat="41.237286" lon="1.450136">
        <ele>290.2</ele>
        <time>2014-12-07T10:40:28Z</time>
      </trkpt>
      <trkpt lat="41.237312" lon="1.450156">
        <ele>290.6</ele>
        <time>2014-12-07T10:40:29Z</time>
      </trkpt>
      <trkpt lat="41.237339" lon="1.450176">
        <ele>291.0</ele>
        <time>2014-12-07T10:40:30Z</time>
      </trkpt>
      <trkpt lat="41.237370" lon="1.450194">
        <ele>291.4</ele>
        <time>2014-12-07T10:40:31Z</time>
      </trkpt>
      <trkpt lat="41.237392" lon="1.450214">
        <ele>291.8</ele>
        <time>2014-12-07T10:40:32Z</time>
      </trkpt>
      <trkpt lat="41.237507" lon="1.450263">
        <ele>291.8</ele>
        <time>2014-12-07T10:40:36Z</time>
      </trkpt>
      <trkpt lat="41.237667" lon="1.450302">
        <ele>291.8</ele>
        <time>2014-12-07T10:40:41Z</time>
      </trkpt>
      <trkpt lat="41.237846" lon="1.450362">
        <ele>291.8</ele>
        <time>2014-12-07T10:40:46Z</time>
      </trkpt>
      <trkpt lat="41.238132" lon="1.450487">
        <ele>291.8</ele>
        <time>2014-12-07T10:40:54Z</time>
      </trkpt>
      <trkpt lat="41.238323" lon="1.450701">
        <ele>292.4</ele>
        <time>2014-12-07T10:41:01Z</time>
      </trkpt>
      <trkpt lat="41.238350" lon="1.450734">
        <ele>292.8</ele>
        <time>2014-12-07T10:41:02Z</time>
      </trkpt>
      <trkpt lat="41.238369" lon="1.450773">
        <ele>293.4</ele>
        <time>2014-12-07T10:41:03Z</time>
      </trkpt>
      <trkpt lat="41.238396" lon="1.450804">
        <ele>293.8</ele>
        <time>2014-12-07T10:41:04Z</time>
      </trkpt>
      <trkpt lat="41.238422" lon="1.450835">
        <ele>294.4</ele>
        <time>2014-12-07T10:41:05Z</time>
      </trkpt>
      <trkpt lat="41.238445" lon="1.450869">
        <ele>294.4</ele>
        <time>2014-12-07T10:41:06Z</time>
      </trkpt>
      <trkpt lat="41.238506" lon="1.450991">
        <ele>294.8</ele>
        <time>2014-12-07T10:41:09Z</time>
      </trkpt>
      <trkpt lat="41.238525" lon="1.451028">
        <ele>295.2</ele>
        <time>2014-12-07T10:41:10Z</time>
      </trkpt>
      <trkpt lat="41.238548" lon="1.451066">
        <ele>295.6</ele>
        <time>2014-12-07T10:41:11Z</time>
      </trkpt>
      <trkpt lat="41.238575" lon="1.451105">
        <ele>296.0</ele>
        <time>2014-12-07T10:41:12Z</time>
      </trkpt>
      <trkpt lat="41.238602" lon="1.451143">
        <ele>296.4</ele>
        <time>2014-12-07T10:41:13Z</time>
      </trkpt>
      <trkpt lat="41.238766" lon="1.451289">
        <ele>296.4</ele>
        <time>2014-12-07T10:41:18Z</time>
      </trkpt>
      <trkpt lat="41.238949" lon="1.451406">
        <ele>296.8</ele>
        <time>2014-12-07T10:41:24Z</time>
      </trkpt>
      <trkpt lat="41.238979" lon="1.451409">
        <ele>297.2</ele>
        <time>2014-12-07T10:41:25Z</time>
      </trkpt>
      <trkpt lat="41.239010" lon="1.451415">
        <ele>297.6</ele>
        <time>2014-12-07T10:41:26Z</time>
      </trkpt>
      <trkpt lat="41.239044" lon="1.451408">
        <ele>298.0</ele>
        <time>2014-12-07T10:41:27Z</time>
      </trkpt>
      <trkpt lat="41.239075" lon="1.451400">
        <ele>298.4</ele>
        <time>2014-12-07T10:41:28Z</time>
      </trkpt>
      <trkpt lat="41.239105" lon="1.451395">
        <ele>298.4</ele>
        <time>2014-12-07T10:41:29Z</time>
      </trkpt>
      <trkpt lat="41.239288" lon="1.451335">
        <ele>298.4</ele>
        <time>2014-12-07T10:41:35Z</time>
      </trkpt>
      <trkpt lat="41.239483" lon="1.451265">
        <ele>298.4</ele>
        <time>2014-12-07T10:41:41Z</time>
      </trkpt>
      <trkpt lat="41.239700" lon="1.451230">
        <ele>298.4</ele>
        <time>2014-12-07T10:41:48Z</time>
      </trkpt>
      <trkpt lat="41.239731" lon="1.451275">
        <ele>298.0</ele>
        <time>2014-12-07T10:41:50Z</time>
      </trkpt>
      <trkpt lat="41.239735" lon="1.451304">
        <ele>297.6</ele>
        <time>2014-12-07T10:41:51Z</time>
      </trkpt>
      <trkpt lat="41.239738" lon="1.451323">
        <ele>297.0</ele>
        <time>2014-12-07T10:41:52Z</time>
      </trkpt>
      <trkpt lat="41.239750" lon="1.451348">
        <ele>296.6</ele>
        <time>2014-12-07T10:41:53Z</time>
      </trkpt>
      <trkpt lat="41.239758" lon="1.451383">
        <ele>296.2</ele>
        <time>2014-12-07T10:41:54Z</time>
      </trkpt>
      <trkpt lat="41.239761" lon="1.451483">
        <ele>296.2</ele>
        <time>2014-12-07T10:41:57Z</time>
      </trkpt>
      <trkpt lat="41.239788" lon="1.451600">
        <ele>296.6</ele>
        <time>2014-12-07T10:42:01Z</time>
      </trkpt>
      <trkpt lat="41.239792" lon="1.451628">
        <ele>297.0</ele>
        <time>2014-12-07T10:42:02Z</time>
      </trkpt>
      <trkpt lat="41.239796" lon="1.451658">
        <ele>297.4</ele>
        <time>2014-12-07T10:42:03Z</time>
      </trkpt>
      <trkpt lat="41.239800" lon="1.451690">
        <ele>298.4</ele>
        <time>2014-12-07T10:42:04Z</time>
      </trkpt>
      <trkpt lat="41.239803" lon="1.451810">
        <ele>298.4</ele>
        <time>2014-12-07T10:42:08Z</time>
      </trkpt>
      <trkpt lat="41.239803" lon="1.451892">
        <ele>298.8</ele>
        <time>2014-12-07T10:42:11Z</time>
      </trkpt>
      <trkpt lat="41.239792" lon="1.451916">
        <ele>299.4</ele>
        <time>2014-12-07T10:42:12Z</time>
      </trkpt>
      <trkpt lat="41.239784" lon="1.451946">
        <ele>299.8</ele>
        <time>2014-12-07T10:42:13Z</time>
      </trkpt>
      <trkpt lat="41.239777" lon="1.451977">
        <ele>300.4</ele>
        <time>2014-12-07T10:42:14Z</time>
      </trkpt>
      <trkpt lat="41.239769" lon="1.452006">
        <ele>300.8</ele>
        <time>2014-12-07T10:42:15Z</time>
      </trkpt>
      <trkpt lat="41.239735" lon="1.452112">
        <ele>300.8</ele>
        <time>2014-12-07T10:42:19Z</time>
      </trkpt>
      <trkpt lat="41.239738" lon="1.452142">
        <ele>300.8</ele>
        <time>2014-12-07T10:42:20Z</time>
      </trkpt>
      <trkpt lat="41.239723" lon="1.452201">
        <ele>301.2</ele>
        <time>2014-12-07T10:42:22Z</time>
      </trkpt>
      <trkpt lat="41.239716" lon="1.452226">
        <ele>301.8</ele>
        <time>2014-12-07T10:42:23Z</time>
      </trkpt>
      <trkpt lat="41.239712" lon="1.452248">
        <ele>302.2</ele>
        <time>2014-12-07T10:42:24Z</time>
      </trkpt>
      <trkpt lat="41.239708" lon="1.452274">
        <ele>302.6</ele>
        <time>2014-12-07T10:42:25Z</time>
      </trkpt>
      <trkpt lat="41.239708" lon="1.452296">
        <ele>303.2</ele>
        <time>2014-12-07T10:42:26Z</time>
      </trkpt>
      <trkpt lat="41.239704" lon="1.452323">
        <ele>303.2</ele>
        <time>2014-12-07T10:42:27Z</time>
      </trkpt>
      <trkpt lat="41.239700" lon="1.452353">
        <ele>303.2</ele>
        <time>2014-12-07T10:42:28Z</time>
      </trkpt>
      <trkpt lat="41.239693" lon="1.452537">
        <ele>303.2</ele>
        <time>2014-12-07T10:42:34Z</time>
      </trkpt>
      <trkpt lat="41.239677" lon="1.452603">
        <ele>303.6</ele>
        <time>2014-12-07T10:42:36Z</time>
      </trkpt>
      <trkpt lat="41.239670" lon="1.452635">
        <ele>304.0</ele>
        <time>2014-12-07T10:42:37Z</time>
      </trkpt>
      <trkpt lat="41.239662" lon="1.452662">
        <ele>304.4</ele>
        <time>2014-12-07T10:42:38Z</time>
      </trkpt>
      <trkpt lat="41.239655" lon="1.452694">
        <ele>304.8</ele>
        <time>2014-12-07T10:42:39Z</time>
      </trkpt>
      <trkpt lat="41.239643" lon="1.452722">
        <ele>305.2</ele>
        <time>2014-12-07T10:42:40Z</time>
      </trkpt>
      <trkpt lat="41.239643" lon="1.452751">
        <ele>305.2</ele>
        <time>2014-12-07T10:42:41Z</time>
      </trkpt>
      <trkpt lat="41.239609" lon="1.452830">
        <ele>305.2</ele>
        <time>2014-12-07T10:42:44Z</time>
      </trkpt>
      <trkpt lat="41.239590" lon="1.452883">
        <ele>305.6</ele>
        <time>2014-12-07T10:42:46Z</time>
      </trkpt>
      <trkpt lat="41.239582" lon="1.452900">
        <ele>306.0</ele>
        <time>2014-12-07T10:42:47Z</time>
      </trkpt>
      <trkpt lat="41.239571" lon="1.452926">
        <ele>306.4</ele>
        <time>2014-12-07T10:42:48Z</time>
      </trkpt>
      <trkpt lat="41.239567" lon="1.452958">
        <ele>306.8</ele>
        <time>2014-12-07T10:42:49Z</time>
      </trkpt>
      <trkpt lat="41.239559" lon="1.452990">
        <ele>307.2</ele>
        <time>2014-12-07T10:42:50Z</time>
      </trkpt>
      <trkpt lat="41.239536" lon="1.453154">
        <ele>307.2</ele>
        <time>2014-12-07T10:42:55Z</time>
      </trkpt>
      <trkpt lat="41.239563" lon="1.453324">
        <ele>307.6</ele>
        <time>2014-12-07T10:43:00Z</time>
      </trkpt>
      <trkpt lat="41.239571" lon="1.453358">
        <ele>308.0</ele>
        <time>2014-12-07T10:43:01Z</time>
      </trkpt>
      <trkpt lat="41.239578" lon="1.453394">
        <ele>308.4</ele>
        <time>2014-12-07T10:43:02Z</time>
      </trkpt>
      <trkpt lat="41.239586" lon="1.453430">
        <ele>308.8</ele>
        <time>2014-12-07T10:43:03Z</time>
      </trkpt>
      <trkpt lat="41.239594" lon="1.453466">
        <ele>309.4</ele>
        <time>2014-12-07T10:43:04Z</time>
      </trkpt>
      <trkpt lat="41.239651" lon="1.453716">
        <ele>309.4</ele>
        <time>2014-12-07T10:43:10Z</time>
      </trkpt>
      <trkpt lat="41.239689" lon="1.453949">
        <ele>309.4</ele>
        <time>2014-12-07T10:43:15Z</time>
      </trkpt>
      <trkpt lat="41.239742" lon="1.454244">
        <ele>309.4</ele>
        <time>2014-12-07T10:43:21Z</time>
      </trkpt>
      <trkpt lat="41.239796" lon="1.454512">
        <ele>309.4</ele>
        <time>2014-12-07T10:43:27Z</time>
      </trkpt>
      <trkpt lat="41.239800" lon="1.454547">
        <ele>309.8</ele>
        <time>2014-12-07T10:43:28Z</time>
      </trkpt>
      <trkpt lat="41.239807" lon="1.454585">
        <ele>310.2</ele>
        <time>2014-12-07T10:43:29Z</time>
      </trkpt>
      <trkpt lat="41.239822" lon="1.454623">
        <ele>310.8</ele>
        <time>2014-12-07T10:43:30Z</time>
      </trkpt>
      <trkpt lat="41.239834" lon="1.454661">
        <ele>311.2</ele>
        <time>2014-12-07T10:43:31Z</time>
      </trkpt>
      <trkpt lat="41.239845" lon="1.454703">
        <ele>311.6</ele>
        <time>2014-12-07T10:43:32Z</time>
      </trkpt>
      <trkpt lat="41.239853" lon="1.454745">
        <ele>311.6</ele>
        <time>2014-12-07T10:43:33Z</time>
      </trkpt>
      <trkpt lat="41.239880" lon="1.454891">
        <ele>311.6</ele>
        <time>2014-12-07T10:43:37Z</time>
      </trkpt>
      <trkpt lat="41.239937" lon="1.455089">
        <ele>312.6</ele>
        <time>2014-12-07T10:43:43Z</time>
      </trkpt>
      <trkpt lat="41.239944" lon="1.455124">
        <ele>313.0</ele>
        <time>2014-12-07T10:43:44Z</time>
      </trkpt>
      <trkpt lat="41.239952" lon="1.455158">
        <ele>313.4</ele>
        <time>2014-12-07T10:43:45Z</time>
      </trkpt>
      <trkpt lat="41.239956" lon="1.455191">
        <ele>313.8</ele>
        <time>2014-12-07T10:43:46Z</time>
      </trkpt>
      <trkpt lat="41.239960" lon="1.455306">
        <ele>314.2</ele>
        <time>2014-12-07T10:43:49Z</time>
      </trkpt>
      <trkpt lat="41.239964" lon="1.455339">
        <ele>314.8</ele>
        <time>2014-12-07T10:43:50Z</time>
      </trkpt>
      <trkpt lat="41.239971" lon="1.455370">
        <ele>315.2</ele>
        <time>2014-12-07T10:43:51Z</time>
      </trkpt>
      <trkpt lat="41.239975" lon="1.455403">
        <ele>315.6</ele>
        <time>2014-12-07T10:43:52Z</time>
      </trkpt>
      <trkpt lat="41.239986" lon="1.455437">
        <ele>316.0</ele>
        <time>2014-12-07T10:43:53Z</time>
      </trkpt>
      <trkpt lat="41.239998" lon="1.455468">
        <ele>316.6</ele>
        <time>2014-12-07T10:43:54Z</time>
      </trkpt>
      <trkpt lat="41.240013" lon="1.455500">
        <ele>317.0</ele>
        <time>2014-12-07T10:43:55Z</time>
      </trkpt>
      <trkpt lat="41.240025" lon="1.455531">
        <ele>317.4</ele>
        <time>2014-12-07T10:43:56Z</time>
      </trkpt>
      <trkpt lat="41.240032" lon="1.455562">
        <ele>318.0</ele>
        <time>2014-12-07T10:43:57Z</time>
      </trkpt>
      <trkpt lat="41.240055" lon="1.455670">
        <ele>318.0</ele>
        <time>2014-12-07T10:44:00Z</time>
      </trkpt>
      <trkpt lat="41.240070" lon="1.455740">
        <ele>318.0</ele>
        <time>2014-12-07T10:44:02Z</time>
      </trkpt>
      <trkpt lat="41.240070" lon="1.455776">
        <ele>318.4</ele>
        <time>2014-12-07T10:44:03Z</time>
      </trkpt>
      <trkpt lat="41.240074" lon="1.455815">
        <ele>318.8</ele>
        <time>2014-12-07T10:44:04Z</time>
      </trkpt>
      <trkpt lat="41.240078" lon="1.455850">
        <ele>319.2</ele>
        <time>2014-12-07T10:44:05Z</time>
      </trkpt>
      <trkpt lat="41.240078" lon="1.455888">
        <ele>319.8</ele>
        <time>2014-12-07T10:44:06Z</time>
      </trkpt>
      <trkpt lat="41.240078" lon="1.455920">
        <ele>320.2</ele>
        <time>2014-12-07T10:44:07Z</time>
      </trkpt>
      <trkpt lat="41.240105" lon="1.456025">
        <ele>320.2</ele>
        <time>2014-12-07T10:44:10Z</time>
      </trkpt>
      <trkpt lat="41.240116" lon="1.456061">
        <ele>320.6</ele>
        <time>2014-12-07T10:44:11Z</time>
      </trkpt>
      <trkpt lat="41.240128" lon="1.456096">
        <ele>321.2</ele>
        <time>2014-12-07T10:44:12Z</time>
      </trkpt>
      <trkpt lat="41.240143" lon="1.456126">
        <ele>321.6</ele>
        <time>2014-12-07T10:44:13Z</time>
      </trkpt>
      <trkpt lat="41.240150" lon="1.456164">
        <ele>322.0</ele>
        <time>2014-12-07T10:44:14Z</time>
      </trkpt>
      <trkpt lat="41.240162" lon="1.456199">
        <ele>322.6</ele>
        <time>2014-12-07T10:44:15Z</time>
      </trkpt>
      <trkpt lat="41.240170" lon="1.456229">
        <ele>323.0</ele>
        <time>2014-12-07T10:44:16Z</time>
      </trkpt>
      <trkpt lat="41.240181" lon="1.456265">
        <ele>323.6</ele>
        <time>2014-12-07T10:44:17Z</time>
      </trkpt>
      <trkpt lat="41.240189" lon="1.456307">
        <ele>324.2</ele>
        <time>2014-12-07T10:44:18Z</time>
      </trkpt>
      <trkpt lat="41.240185" lon="1.456342">
        <ele>324.6</ele>
        <time>2014-12-07T10:44:19Z</time>
      </trkpt>
      <trkpt lat="41.240189" lon="1.456415">
        <ele>324.6</ele>
        <time>2014-12-07T10:44:21Z</time>
      </trkpt>
      <trkpt lat="41.240196" lon="1.456448">
        <ele>325.2</ele>
        <time>2014-12-07T10:44:22Z</time>
      </trkpt>
      <trkpt lat="41.240196" lon="1.456486">
        <ele>325.6</ele>
        <time>2014-12-07T10:44:23Z</time>
      </trkpt>
      <trkpt lat="41.240204" lon="1.456524">
        <ele>326.2</ele>
        <time>2014-12-07T10:44:24Z</time>
      </trkpt>
      <trkpt lat="41.240208" lon="1.456556">
        <ele>326.8</ele>
        <time>2014-12-07T10:44:25Z</time>
      </trkpt>
      <trkpt lat="41.240215" lon="1.456591">
        <ele>327.4</ele>
        <time>2014-12-07T10:44:26Z</time>
      </trkpt>
      <trkpt lat="41.240223" lon="1.456626">
        <ele>328.2</ele>
        <time>2014-12-07T10:44:27Z</time>
      </trkpt>
      <trkpt lat="41.240234" lon="1.456658">
        <ele>328.8</ele>
        <time>2014-12-07T10:44:28Z</time>
      </trkpt>
      <trkpt lat="41.240242" lon="1.456696">
        <ele>329.6</ele>
        <time>2014-12-07T10:44:29Z</time>
      </trkpt>
      <trkpt lat="41.240273" lon="1.456877">
        <ele>330.0</ele>
        <time>2014-12-07T10:44:34Z</time>
      </trkpt>
      <trkpt lat="41.240276" lon="1.456911">
        <ele>330.4</ele>
        <time>2014-12-07T10:44:35Z</time>
      </trkpt>
      <trkpt lat="41.240280" lon="1.456946">
        <ele>331.0</ele>
        <time>2014-12-07T10:44:36Z</time>
      </trkpt>
      <trkpt lat="41.240288" lon="1.456977">
        <ele>331.4</ele>
        <time>2014-12-07T10:44:37Z</time>
      </trkpt>
      <trkpt lat="41.240292" lon="1.457009">
        <ele>331.8</ele>
        <time>2014-12-07T10:44:38Z</time>
      </trkpt>
      <trkpt lat="41.240295" lon="1.457076">
        <ele>331.8</ele>
        <time>2014-12-07T10:44:40Z</time>
      </trkpt>
      <trkpt lat="41.240276" lon="1.457220">
        <ele>331.8</ele>
        <time>2014-12-07T10:44:45Z</time>
      </trkpt>
      <trkpt lat="41.240269" lon="1.457415">
        <ele>331.8</ele>
        <time>2014-12-07T10:44:51Z</time>
      </trkpt>
      <trkpt lat="41.240280" lon="1.457462">
        <ele>331.8</ele>
        <time>2014-12-07T10:44:55Z</time>
      </trkpt>
      <trkpt lat="41.240292" lon="1.457514">
        <ele>331.8</ele>
        <time>2014-12-07T10:47:08Z</time>
      </trkpt>
      <trkpt lat="41.240311" lon="1.457574">
        <ele>331.8</ele>
        <time>2014-12-07T10:47:10Z</time>
      </trkpt>
      <trkpt lat="41.240406" lon="1.457795">
        <ele>331.8</ele>
        <time>2014-12-07T10:47:15Z</time>
      </trkpt>
      <trkpt lat="41.240471" lon="1.457910">
        <ele>331.8</ele>
        <time>2014-12-07T10:47:17Z</time>
      </trkpt>
      <trkpt lat="41.240547" lon="1.458029">
        <ele>331.4</ele>
        <time>2014-12-07T10:47:19Z</time>
      </trkpt>
      <trkpt lat="41.240593" lon="1.458065">
        <ele>331.0</ele>
        <time>2014-12-07T10:47:20Z</time>
      </trkpt>
      <trkpt lat="41.240639" lon="1.458086">
        <ele>330.6</ele>
        <time>2014-12-07T10:47:21Z</time>
      </trkpt>
      <trkpt lat="41.240677" lon="1.458120">
        <ele>330.2</ele>
        <time>2014-12-07T10:47:22Z</time>
      </trkpt>
      <trkpt lat="41.240719" lon="1.458147">
        <ele>329.8</ele>
        <time>2014-12-07T10:47:23Z</time>
      </trkpt>
      <trkpt lat="41.240765" lon="1.458175">
        <ele>329.8</ele>
        <time>2014-12-07T10:47:24Z</time>
      </trkpt>
      <trkpt lat="41.240814" lon="1.458187">
        <ele>329.8</ele>
        <time>2014-12-07T10:47:25Z</time>
      </trkpt>
      <trkpt lat="41.240856" lon="1.458220">
        <ele>329.4</ele>
        <time>2014-12-07T10:47:26Z</time>
      </trkpt>
      <trkpt lat="41.240883" lon="1.458261">
        <ele>328.8</ele>
        <time>2014-12-07T10:47:27Z</time>
      </trkpt>
      <trkpt lat="41.240917" lon="1.458308">
        <ele>328.4</ele>
        <time>2014-12-07T10:47:28Z</time>
      </trkpt>
      <trkpt lat="41.240959" lon="1.458359">
        <ele>328.0</ele>
        <time>2014-12-07T10:47:29Z</time>
      </trkpt>
      <trkpt lat="41.241005" lon="1.458427">
        <ele>327.4</ele>
        <time>2014-12-07T10:47:30Z</time>
      </trkpt>
      <trkpt lat="41.241062" lon="1.458490">
        <ele>327.4</ele>
        <time>2014-12-07T10:47:31Z</time>
      </trkpt>
      <trkpt lat="41.241207" lon="1.458605">
        <ele>326.8</ele>
        <time>2014-12-07T10:47:33Z</time>
      </trkpt>
      <trkpt lat="41.241280" lon="1.458652">
        <ele>326.4</ele>
        <time>2014-12-07T10:47:34Z</time>
      </trkpt>
      <trkpt lat="41.241341" lon="1.458692">
        <ele>325.8</ele>
        <time>2014-12-07T10:47:35Z</time>
      </trkpt>
      <trkpt lat="41.241405" lon="1.458728">
        <ele>325.2</ele>
        <time>2014-12-07T10:47:36Z</time>
      </trkpt>
      <trkpt lat="41.241486" lon="1.458755">
        <ele>324.6</ele>
        <time>2014-12-07T10:47:37Z</time>
      </trkpt>
      <trkpt lat="41.241558" lon="1.458785">
        <ele>323.8</ele>
        <time>2014-12-07T10:47:38Z</time>
      </trkpt>
      <trkpt lat="41.241623" lon="1.458822">
        <ele>323.0</ele>
        <time>2014-12-07T10:47:39Z</time>
      </trkpt>
      <trkpt lat="41.241688" lon="1.458839">
        <ele>322.0</ele>
        <time>2014-12-07T10:47:40Z</time>
      </trkpt>
      <trkpt lat="41.241741" lon="1.458854">
        <ele>321.0</ele>
        <time>2014-12-07T10:47:41Z</time>
      </trkpt>
      <trkpt lat="41.241798" lon="1.458874">
        <ele>320.2</ele>
        <time>2014-12-07T10:47:42Z</time>
      </trkpt>
      <trkpt lat="41.241837" lon="1.458892">
        <ele>319.2</ele>
        <time>2014-12-07T10:47:43Z</time>
      </trkpt>
      <trkpt lat="41.241863" lon="1.458939">
        <ele>318.2</ele>
        <time>2014-12-07T10:47:44Z</time>
      </trkpt>
      <trkpt lat="41.241859" lon="1.458986">
        <ele>317.6</ele>
        <time>2014-12-07T10:47:45Z</time>
      </trkpt>
      <trkpt lat="41.241852" lon="1.459013">
        <ele>316.8</ele>
        <time>2014-12-07T10:47:46Z</time>
      </trkpt>
      <trkpt lat="41.241833" lon="1.459041">
        <ele>316.2</ele>
        <time>2014-12-07T10:47:47Z</time>
      </trkpt>
      <trkpt lat="41.241817" lon="1.459081">
        <ele>314.8</ele>
        <time>2014-12-07T10:47:48Z</time>
      </trkpt>
      <trkpt lat="41.241795" lon="1.459122">
        <ele>314.0</ele>
        <time>2014-12-07T10:47:49Z</time>
      </trkpt>
      <trkpt lat="41.241776" lon="1.459170">
        <ele>313.2</ele>
        <time>2014-12-07T10:47:50Z</time>
      </trkpt>
      <trkpt lat="41.241760" lon="1.459221">
        <ele>312.6</ele>
        <time>2014-12-07T10:47:51Z</time>
      </trkpt>
      <trkpt lat="41.241730" lon="1.459267">
        <ele>312.6</ele>
        <time>2014-12-07T10:47:52Z</time>
      </trkpt>
      <trkpt lat="41.241688" lon="1.459400">
        <ele>312.6</ele>
        <time>2014-12-07T10:47:54Z</time>
      </trkpt>
      <trkpt lat="41.241669" lon="1.459564">
        <ele>312.6</ele>
        <time>2014-12-07T10:47:56Z</time>
      </trkpt>
      <trkpt lat="41.241650" lon="1.459728">
        <ele>312.6</ele>
        <time>2014-12-07T10:47:58Z</time>
      </trkpt>
      <trkpt lat="41.241653" lon="1.459822">
        <ele>312.6</ele>
        <time>2014-12-07T10:47:59Z</time>
      </trkpt>
      <trkpt lat="41.241650" lon="1.460115">
        <ele>312.2</ele>
        <time>2014-12-07T10:48:02Z</time>
      </trkpt>
      <trkpt lat="41.241642" lon="1.460210">
        <ele>311.8</ele>
        <time>2014-12-07T10:48:03Z</time>
      </trkpt>
      <trkpt lat="41.241634" lon="1.460299">
        <ele>311.4</ele>
        <time>2014-12-07T10:48:04Z</time>
      </trkpt>
      <trkpt lat="41.241631" lon="1.460388">
        <ele>311.0</ele>
        <time>2014-12-07T10:48:05Z</time>
      </trkpt>
      <trkpt lat="41.241619" lon="1.460470">
        <ele>310.6</ele>
        <time>2014-12-07T10:48:06Z</time>
      </trkpt>
      <trkpt lat="41.241604" lon="1.460547">
        <ele>310.6</ele>
        <time>2014-12-07T10:48:07Z</time>
      </trkpt>
      <trkpt lat="41.241596" lon="1.460619">
        <ele>310.0</ele>
        <time>2014-12-07T10:48:08Z</time>
      </trkpt>
      <trkpt lat="41.241592" lon="1.460689">
        <ele>309.6</ele>
        <time>2014-12-07T10:48:09Z</time>
      </trkpt>
      <trkpt lat="41.241581" lon="1.460755">
        <ele>309.2</ele>
        <time>2014-12-07T10:48:10Z</time>
      </trkpt>
      <trkpt lat="41.241566" lon="1.460821">
        <ele>308.8</ele>
        <time>2014-12-07T10:48:11Z</time>
      </trkpt>
      <trkpt lat="41.241562" lon="1.460887">
        <ele>308.4</ele>
        <time>2014-12-07T10:48:12Z</time>
      </trkpt>
      <trkpt lat="41.241573" lon="1.461000">
        <ele>308.4</ele>
        <time>2014-12-07T10:48:14Z</time>
      </trkpt>
      <trkpt lat="41.241585" lon="1.461054">
        <ele>308.4</ele>
        <time>2014-12-07T10:48:15Z</time>
      </trkpt>
      <trkpt lat="41.241604" lon="1.461107">
        <ele>308.4</ele>
        <time>2014-12-07T10:48:16Z</time>
      </trkpt>
      <trkpt lat="41.241638" lon="1.461204">
        <ele>308.8</ele>
        <time>2014-12-07T10:48:18Z</time>
      </trkpt>
      <trkpt lat="41.241661" lon="1.461259">
        <ele>309.2</ele>
        <time>2014-12-07T10:48:19Z</time>
      </trkpt>
      <trkpt lat="41.241676" lon="1.461311">
        <ele>309.8</ele>
        <time>2014-12-07T10:48:20Z</time>
      </trkpt>
      <trkpt lat="41.241680" lon="1.461366">
        <ele>310.2</ele>
        <time>2014-12-07T10:48:21Z</time>
      </trkpt>
      <trkpt lat="41.241673" lon="1.461420">
        <ele>310.6</ele>
        <time>2014-12-07T10:48:22Z</time>
      </trkpt>
      <trkpt lat="41.241661" lon="1.461474">
        <ele>310.6</ele>
        <time>2014-12-07T10:48:23Z</time>
      </trkpt>
      <trkpt lat="41.241638" lon="1.461798">
        <ele>310.6</ele>
        <time>2014-12-07T10:48:28Z</time>
      </trkpt>
      <trkpt lat="41.241642" lon="1.461863">
        <ele>310.6</ele>
        <time>2014-12-07T10:48:29Z</time>
      </trkpt>
      <trkpt lat="41.241661" lon="1.461982">
        <ele>310.2</ele>
        <time>2014-12-07T10:48:32Z</time>
      </trkpt>
      <trkpt lat="41.241661" lon="1.461998">
        <ele>309.6</ele>
        <time>2014-12-07T10:48:33Z</time>
      </trkpt>
      <trkpt lat="41.241661" lon="1.462013">
        <ele>309.2</ele>
        <time>2014-12-07T10:48:34Z</time>
      </trkpt>
      <trkpt lat="41.241661" lon="1.462025">
        <ele>308.8</ele>
        <time>2014-12-07T10:48:35Z</time>
      </trkpt>
      <trkpt lat="41.241661" lon="1.462022">
        <ele>308.2</ele>
        <time>2014-12-07T10:48:36Z</time>
      </trkpt>
      <trkpt lat="41.241650" lon="1.462071">
        <ele>306.2</ele>
        <time>2014-12-07T10:52:57Z</time>
      </trkpt>
      <trkpt lat="41.241634" lon="1.462101">
        <ele>306.2</ele>
        <time>2014-12-07T10:52:58Z</time>
      </trkpt>
      <trkpt lat="41.241562" lon="1.462224">
        <ele>306.2</ele>
        <time>2014-12-07T10:53:02Z</time>
      </trkpt>
      <trkpt lat="41.241459" lon="1.462415">
        <ele>306.2</ele>
        <time>2014-12-07T10:53:08Z</time>
      </trkpt>
      <trkpt lat="41.241367" lon="1.462484">
        <ele>306.8</ele>
        <time>2014-12-07T10:53:12Z</time>
      </trkpt>
      <trkpt lat="41.241333" lon="1.462499">
        <ele>307.2</ele>
        <time>2014-12-07T10:53:13Z</time>
      </trkpt>
      <trkpt lat="41.241306" lon="1.462514">
        <ele>307.8</ele>
        <time>2014-12-07T10:53:14Z</time>
      </trkpt>
      <trkpt lat="41.241276" lon="1.462531">
        <ele>308.4</ele>
        <time>2014-12-07T10:53:15Z</time>
      </trkpt>
      <trkpt lat="41.241245" lon="1.462550">
        <ele>309.0</ele>
        <time>2014-12-07T10:53:16Z</time>
      </trkpt>
      <trkpt lat="41.241222" lon="1.462576">
        <ele>309.6</ele>
        <time>2014-12-07T10:53:17Z</time>
      </trkpt>
      <trkpt lat="41.241199" lon="1.462601">
        <ele>310.2</ele>
        <time>2014-12-07T10:53:18Z</time>
      </trkpt>
      <trkpt lat="41.241177" lon="1.462630">
        <ele>310.8</ele>
        <time>2014-12-07T10:53:19Z</time>
      </trkpt>
      <trkpt lat="41.241154" lon="1.462656">
        <ele>310.8</ele>
        <time>2014-12-07T10:53:20Z</time>
      </trkpt>
      <trkpt lat="41.241123" lon="1.462721">
        <ele>311.4</ele>
        <time>2014-12-07T10:53:22Z</time>
      </trkpt>
      <trkpt lat="41.241112" lon="1.462750">
        <ele>311.8</ele>
        <time>2014-12-07T10:53:23Z</time>
      </trkpt>
      <trkpt lat="41.241100" lon="1.462785">
        <ele>312.4</ele>
        <time>2014-12-07T10:53:24Z</time>
      </trkpt>
      <trkpt lat="41.241085" lon="1.462813">
        <ele>312.8</ele>
        <time>2014-12-07T10:53:25Z</time>
      </trkpt>
      <trkpt lat="41.241070" lon="1.462848">
        <ele>313.2</ele>
        <time>2014-12-07T10:53:26Z</time>
      </trkpt>
      <trkpt lat="41.241062" lon="1.462875">
        <ele>313.8</ele>
        <time>2014-12-07T10:53:27Z</time>
      </trkpt>
      <trkpt lat="41.241058" lon="1.462907">
        <ele>314.2</ele>
        <time>2014-12-07T10:53:28Z</time>
      </trkpt>
      <trkpt lat="41.241062" lon="1.462950">
        <ele>314.6</ele>
        <time>2014-12-07T10:53:29Z</time>
      </trkpt>
      <trkpt lat="41.241062" lon="1.462985">
        <ele>315.0</ele>
        <time>2014-12-07T10:53:30Z</time>
      </trkpt>
      <trkpt lat="41.241062" lon="1.463024">
        <ele>315.6</ele>
        <time>2014-12-07T10:53:31Z</time>
      </trkpt>
      <trkpt lat="41.241058" lon="1.463147">
        <ele>315.6</ele>
        <time>2014-12-07T10:53:34Z</time>
      </trkpt>
      <trkpt lat="41.241062" lon="1.463187">
        <ele>316.0</ele>
        <time>2014-12-07T10:53:35Z</time>
      </trkpt>
      <trkpt lat="41.241070" lon="1.463227">
        <ele>316.4</ele>
        <time>2014-12-07T10:53:36Z</time>
      </trkpt>
      <trkpt lat="41.241074" lon="1.463269">
        <ele>316.8</ele>
        <time>2014-12-07T10:53:37Z</time>
      </trkpt>
      <trkpt lat="41.241070" lon="1.463307">
        <ele>317.2</ele>
        <time>2014-12-07T10:53:38Z</time>
      </trkpt>
      <trkpt lat="41.241066" lon="1.463344">
        <ele>317.6</ele>
        <time>2014-12-07T10:53:39Z</time>
      </trkpt>
      <trkpt lat="41.241074" lon="1.463396">
        <ele>317.6</ele>
        <time>2014-12-07T10:53:40Z</time>
      </trkpt>
      <trkpt lat="41.241074" lon="1.463607">
        <ele>317.6</ele>
        <time>2014-12-07T10:53:44Z</time>
      </trkpt>
      <trkpt lat="41.241062" lon="1.463835">
        <ele>317.6</ele>
        <time>2014-12-07T10:53:48Z</time>
      </trkpt>
      <trkpt lat="41.241055" lon="1.463957">
        <ele>317.6</ele>
        <time>2014-12-07T10:53:50Z</time>
      </trkpt>
      <trkpt lat="41.241028" lon="1.464392">
        <ele>317.6</ele>
        <time>2014-12-07T10:53:56Z</time>
      </trkpt>
      <trkpt lat="41.241024" lon="1.464472">
        <ele>317.2</ele>
        <time>2014-12-07T10:53:57Z</time>
      </trkpt>
      <trkpt lat="41.241005" lon="1.464547">
        <ele>316.2</ele>
        <time>2014-12-07T10:53:58Z</time>
      </trkpt>
      <trkpt lat="41.240982" lon="1.464621">
        <ele>315.8</ele>
        <time>2014-12-07T10:53:59Z</time>
      </trkpt>
      <trkpt lat="41.240959" lon="1.464696">
        <ele>315.4</ele>
        <time>2014-12-07T10:54:00Z</time>
      </trkpt>
      <trkpt lat="41.240936" lon="1.464777">
        <ele>315.4</ele>
        <time>2014-12-07T10:54:01Z</time>
      </trkpt>
      <trkpt lat="41.240868" lon="1.465111">
        <ele>315.0</ele>
        <time>2014-12-07T10:54:06Z</time>
      </trkpt>
      <trkpt lat="41.240856" lon="1.465168">
        <ele>314.4</ele>
        <time>2014-12-07T10:54:07Z</time>
      </trkpt>
      <trkpt lat="41.240826" lon="1.465210">
        <ele>314.0</ele>
        <time>2014-12-07T10:54:08Z</time>
      </trkpt>
      <trkpt lat="41.240776" lon="1.465239">
        <ele>313.4</ele>
        <time>2014-12-07T10:54:09Z</time>
      </trkpt>
      <trkpt lat="41.240723" lon="1.465243">
        <ele>313.0</ele>
        <time>2014-12-07T10:54:10Z</time>
      </trkpt>
      <trkpt lat="41.240612" lon="1.465246">
        <ele>312.4</ele>
        <time>2014-12-07T10:54:12Z</time>
      </trkpt>
      <trkpt lat="41.240559" lon="1.465235">
        <ele>312.0</ele>
        <time>2014-12-07T10:54:13Z</time>
      </trkpt>
      <trkpt lat="41.240509" lon="1.465227">
        <ele>311.6</ele>
        <time>2014-12-07T10:54:14Z</time>
      </trkpt>
      <trkpt lat="41.240467" lon="1.465234">
        <ele>311.2</ele>
        <time>2014-12-07T10:54:15Z</time>
      </trkpt>
      <trkpt lat="41.240437" lon="1.465250">
        <ele>310.6</ele>
        <time>2014-12-07T10:54:16Z</time>
      </trkpt>
      <trkpt lat="41.240395" lon="1.465266">
        <ele>310.6</ele>
        <time>2014-12-07T10:54:17Z</time>
      </trkpt>
      <trkpt lat="41.240368" lon="1.465302">
        <ele>310.2</ele>
        <time>2014-12-07T10:54:18Z</time>
      </trkpt>
      <trkpt lat="41.240345" lon="1.465349">
        <ele>309.8</ele>
        <time>2014-12-07T10:54:19Z</time>
      </trkpt>
      <trkpt lat="41.240341" lon="1.465415">
        <ele>309.2</ele>
        <time>2014-12-07T10:54:20Z</time>
      </trkpt>
      <trkpt lat="41.240337" lon="1.465466">
        <ele>308.4</ele>
        <time>2014-12-07T10:54:21Z</time>
      </trkpt>
      <trkpt lat="41.240368" lon="1.465515">
        <ele>306.8</ele>
        <time>2014-12-07T10:54:22Z</time>
      </trkpt>
      <trkpt lat="41.240402" lon="1.465542">
        <ele>306.0</ele>
        <time>2014-12-07T10:54:23Z</time>
      </trkpt>
      <trkpt lat="41.240448" lon="1.465549">
        <ele>305.2</ele>
        <time>2014-12-07T10:54:24Z</time>
      </trkpt>
      <trkpt lat="41.240494" lon="1.465573">
        <ele>304.6</ele>
        <time>2014-12-07T10:54:25Z</time>
      </trkpt>
      <trkpt lat="41.240540" lon="1.465617">
        <ele>304.0</ele>
        <time>2014-12-07T10:54:26Z</time>
      </trkpt>
      <trkpt lat="41.240589" lon="1.465657">
        <ele>303.2</ele>
        <time>2014-12-07T10:54:27Z</time>
      </trkpt>
      <trkpt lat="41.240635" lon="1.465689">
        <ele>302.6</ele>
        <time>2014-12-07T10:54:28Z</time>
      </trkpt>
      <trkpt lat="41.240688" lon="1.465690">
        <ele>302.0</ele>
        <time>2014-12-07T10:54:29Z</time>
      </trkpt>
      <trkpt lat="41.240742" lon="1.465689">
        <ele>301.6</ele>
        <time>2014-12-07T10:54:30Z</time>
      </trkpt>
      <trkpt lat="41.240795" lon="1.465688">
        <ele>301.2</ele>
        <time>2014-12-07T10:54:31Z</time>
      </trkpt>
      <trkpt lat="41.240822" lon="1.465708">
        <ele>300.8</ele>
        <time>2014-12-07T10:54:32Z</time>
      </trkpt>
      <trkpt lat="41.240864" lon="1.465718">
        <ele>300.4</ele>
        <time>2014-12-07T10:54:33Z</time>
      </trkpt>
      <trkpt lat="41.240921" lon="1.465736">
        <ele>299.8</ele>
        <time>2014-12-07T10:54:34Z</time>
      </trkpt>
      <trkpt lat="41.240963" lon="1.465752">
        <ele>299.2</ele>
        <time>2014-12-07T10:54:35Z</time>
      </trkpt>
      <trkpt lat="41.241009" lon="1.465771">
        <ele>298.6</ele>
        <time>2014-12-07T10:54:36Z</time>
      </trkpt>
      <trkpt lat="41.241062" lon="1.465797">
        <ele>298.0</ele>
        <time>2014-12-07T10:54:37Z</time>
      </trkpt>
      <trkpt lat="41.241116" lon="1.465825">
        <ele>297.4</ele>
        <time>2014-12-07T10:54:38Z</time>
      </trkpt>
      <trkpt lat="41.241161" lon="1.465865">
        <ele>296.8</ele>
        <time>2014-12-07T10:54:39Z</time>
      </trkpt>
      <trkpt lat="41.241215" lon="1.465903">
        <ele>296.2</ele>
        <time>2014-12-07T10:54:40Z</time>
      </trkpt>
      <trkpt lat="41.241264" lon="1.465953">
        <ele>295.4</ele>
        <time>2014-12-07T10:54:41Z</time>
      </trkpt>
      <trkpt lat="41.241283" lon="1.466015">
        <ele>294.8</ele>
        <time>2014-12-07T10:54:42Z</time>
      </trkpt>
      <trkpt lat="41.241295" lon="1.466082">
        <ele>294.0</ele>
        <time>2014-12-07T10:54:43Z</time>
      </trkpt>
      <trkpt lat="41.241287" lon="1.466122">
        <ele>293.4</ele>
        <time>2014-12-07T10:54:44Z</time>
      </trkpt>
      <trkpt lat="41.241253" lon="1.466164">
        <ele>293.4</ele>
        <time>2014-12-07T10:54:45Z</time>
      </trkpt>
      <trkpt lat="41.241096" lon="1.466228">
        <ele>293.4</ele>
        <time>2014-12-07T10:54:48Z</time>
      </trkpt>
      <trkpt lat="41.241009" lon="1.466318">
        <ele>293.4</ele>
        <time>2014-12-07T10:54:50Z</time>
      </trkpt>
      <trkpt lat="41.240929" lon="1.466408">
        <ele>293.4</ele>
        <time>2014-12-07T10:54:52Z</time>
      </trkpt>
      <trkpt lat="41.240883" lon="1.466439">
        <ele>293.4</ele>
        <time>2014-12-07T10:54:53Z</time>
      </trkpt>
      <trkpt lat="41.240845" lon="1.466489">
        <ele>293.0</ele>
        <time>2014-12-07T10:54:54Z</time>
      </trkpt>
      <trkpt lat="41.240810" lon="1.466543">
        <ele>292.4</ele>
        <time>2014-12-07T10:54:55Z</time>
      </trkpt>
      <trkpt lat="41.240784" lon="1.466603">
        <ele>292.0</ele>
        <time>2014-12-07T10:54:56Z</time>
      </trkpt>
      <trkpt lat="41.240757" lon="1.466646">
        <ele>291.4</ele>
        <time>2014-12-07T10:54:57Z</time>
      </trkpt>
      <trkpt lat="41.240738" lon="1.466655">
        <ele>291.0</ele>
        <time>2014-12-07T10:54:58Z</time>
      </trkpt>
      <trkpt lat="41.240719" lon="1.466660">
        <ele>290.4</ele>
        <time>2014-12-07T10:54:59Z</time>
      </trkpt>
      <trkpt lat="41.240711" lon="1.466677">
        <ele>290.0</ele>
        <time>2014-12-07T10:55:00Z</time>
      </trkpt>
      <trkpt lat="41.240677" lon="1.466691">
        <ele>289.4</ele>
        <time>2014-12-07T10:55:01Z</time>
      </trkpt>
      <trkpt lat="41.240639" lon="1.466714">
        <ele>289.0</ele>
        <time>2014-12-07T10:55:02Z</time>
      </trkpt>
      <trkpt lat="41.240597" lon="1.466733">
        <ele>289.0</ele>
        <time>2014-12-07T10:55:03Z</time>
      </trkpt>
      <trkpt lat="41.240494" lon="1.466905">
        <ele>289.0</ele>
        <time>2014-12-07T10:55:07Z</time>
      </trkpt>
      <trkpt lat="41.240410" lon="1.467188">
        <ele>289.0</ele>
        <time>2014-12-07T10:55:11Z</time>
      </trkpt>
      <trkpt lat="41.240364" lon="1.467329">
        <ele>289.0</ele>
        <time>2014-12-07T10:55:13Z</time>
      </trkpt>
      <trkpt lat="41.240322" lon="1.467380">
        <ele>289.0</ele>
        <time>2014-12-07T10:55:14Z</time>
      </trkpt>
      <trkpt lat="41.240253" lon="1.467499">
        <ele>289.0</ele>
        <time>2014-12-07T10:55:16Z</time>
      </trkpt>
      <trkpt lat="41.240200" lon="1.467729">
        <ele>288.4</ele>
        <time>2014-12-07T10:55:19Z</time>
      </trkpt>
      <trkpt lat="41.240189" lon="1.467812">
        <ele>288.0</ele>
        <time>2014-12-07T10:55:20Z</time>
      </trkpt>
      <trkpt lat="41.240185" lon="1.467896">
        <ele>287.6</ele>
        <time>2014-12-07T10:55:21Z</time>
      </trkpt>
      <trkpt lat="41.240170" lon="1.467980">
        <ele>287.2</ele>
        <time>2014-12-07T10:55:22Z</time>
      </trkpt>
      <trkpt lat="41.240158" lon="1.468066">
        <ele>286.8</ele>
        <time>2014-12-07T10:55:23Z</time>
      </trkpt>
      <trkpt lat="41.240158" lon="1.468121">
        <ele>286.4</ele>
        <time>2014-12-07T10:55:24Z</time>
      </trkpt>
      <trkpt lat="41.240181" lon="1.468169">
        <ele>286.0</ele>
        <time>2014-12-07T10:55:25Z</time>
      </trkpt>
      <trkpt lat="41.240204" lon="1.468225">
        <ele>285.6</ele>
        <time>2014-12-07T10:55:26Z</time>
      </trkpt>
      <trkpt lat="41.240196" lon="1.468289">
        <ele>285.2</ele>
        <time>2014-12-07T10:55:27Z</time>
      </trkpt>
      <trkpt lat="41.240215" lon="1.468349">
        <ele>284.6</ele>
        <time>2014-12-07T10:55:28Z</time>
      </trkpt>
      <trkpt lat="41.240223" lon="1.468388">
        <ele>284.0</ele>
        <time>2014-12-07T10:55:29Z</time>
      </trkpt>
      <trkpt lat="41.240242" lon="1.468446">
        <ele>283.6</ele>
        <time>2014-12-07T10:55:30Z</time>
      </trkpt>
      <trkpt lat="41.240257" lon="1.468491">
        <ele>283.0</ele>
        <time>2014-12-07T10:55:31Z</time>
      </trkpt>
      <trkpt lat="41.240276" lon="1.468533">
        <ele>282.6</ele>
        <time>2014-12-07T10:55:32Z</time>
      </trkpt>
      <trkpt lat="41.240341" lon="1.468608">
        <ele>282.6</ele>
        <time>2014-12-07T10:55:34Z</time>
      </trkpt>
      <trkpt lat="41.240383" lon="1.468643">
        <ele>282.0</ele>
        <time>2014-12-07T10:55:35Z</time>
      </trkpt>
      <trkpt lat="41.240421" lon="1.468679">
        <ele>281.0</ele>
        <time>2014-12-07T10:55:36Z</time>
      </trkpt>
      <trkpt lat="41.240479" lon="1.468691">
        <ele>280.2</ele>
        <time>2014-12-07T10:55:37Z</time>
      </trkpt>
      <trkpt lat="41.240528" lon="1.468703">
        <ele>279.4</ele>
        <time>2014-12-07T10:55:38Z</time>
      </trkpt>
      <trkpt lat="41.240578" lon="1.468721">
        <ele>278.8</ele>
        <time>2014-12-07T10:55:39Z</time>
      </trkpt>
      <trkpt lat="41.240635" lon="1.468750">
        <ele>278.0</ele>
        <time>2014-12-07T10:55:40Z</time>
      </trkpt>
      <trkpt lat="41.240692" lon="1.468778">
        <ele>277.2</ele>
        <time>2014-12-07T10:55:41Z</time>
      </trkpt>
      <trkpt lat="41.240749" lon="1.468815">
        <ele>277.2</ele>
        <time>2014-12-07T10:55:42Z</time>
      </trkpt>
      <trkpt lat="41.240791" lon="1.468866">
        <ele>277.2</ele>
        <time>2014-12-07T10:55:43Z</time>
      </trkpt>
      <trkpt lat="41.240856" lon="1.469035">
        <ele>276.8</ele>
        <time>2014-12-07T10:55:46Z</time>
      </trkpt>
      <trkpt lat="41.240849" lon="1.469095">
        <ele>276.4</ele>
        <time>2014-12-07T10:55:47Z</time>
      </trkpt>
      <trkpt lat="41.240829" lon="1.469146">
        <ele>276.0</ele>
        <time>2014-12-07T10:55:48Z</time>
      </trkpt>
      <trkpt lat="41.240791" lon="1.469200">
        <ele>275.6</ele>
        <time>2014-12-07T10:55:49Z</time>
      </trkpt>
      <trkpt lat="41.240761" lon="1.469260">
        <ele>275.2</ele>
        <time>2014-12-07T10:55:50Z</time>
      </trkpt>
      <trkpt lat="41.240719" lon="1.469313">
        <ele>275.2</ele>
        <time>2014-12-07T10:55:51Z</time>
      </trkpt>
      <trkpt lat="41.240585" lon="1.469402">
        <ele>275.2</ele>
        <time>2014-12-07T10:55:54Z</time>
      </trkpt>
      <trkpt lat="41.240536" lon="1.469499">
        <ele>275.2</ele>
        <time>2014-12-07T10:55:56Z</time>
      </trkpt>
      <trkpt lat="41.240520" lon="1.469545">
        <ele>274.6</ele>
        <time>2014-12-07T10:55:57Z</time>
      </trkpt>
      <trkpt lat="41.240509" lon="1.469559">
        <ele>274.2</ele>
        <time>2014-12-07T10:55:58Z</time>
      </trkpt>
      <trkpt lat="41.240498" lon="1.469560">
        <ele>273.8</ele>
        <time>2014-12-07T10:55:59Z</time>
      </trkpt>
      <trkpt lat="41.240486" lon="1.469556">
        <ele>273.4</ele>
        <time>2014-12-07T10:56:00Z</time>
      </trkpt>
      <trkpt lat="41.240479" lon="1.469555">
        <ele>272.8</ele>
        <time>2014-12-07T10:56:01Z</time>
      </trkpt>
      <trkpt lat="41.240475" lon="1.469556">
        <ele>272.8</ele>
        <time>2014-12-07T10:56:02Z</time>
      </trkpt>
      <trkpt lat="41.240410" lon="1.469584">
        <ele>272.8</ele>
        <time>2014-12-07T10:56:09Z</time>
      </trkpt>
      <trkpt lat="41.240303" lon="1.469635">
        <ele>272.8</ele>
        <time>2014-12-07T10:56:13Z</time>
      </trkpt>
      <trkpt lat="41.240269" lon="1.469742">
        <ele>272.8</ele>
        <time>2014-12-07T10:56:15Z</time>
      </trkpt>
      <trkpt lat="41.240253" lon="1.469804">
        <ele>272.4</ele>
        <time>2014-12-07T10:56:16Z</time>
      </trkpt>
      <trkpt lat="41.240238" lon="1.469870">
        <ele>271.8</ele>
        <time>2014-12-07T10:56:17Z</time>
      </trkpt>
      <trkpt lat="41.240215" lon="1.469935">
        <ele>271.4</ele>
        <time>2014-12-07T10:56:18Z</time>
      </trkpt>
      <trkpt lat="41.240192" lon="1.469999">
        <ele>271.0</ele>
        <time>2014-12-07T10:56:19Z</time>
      </trkpt>
      <trkpt lat="41.240154" lon="1.470054">
        <ele>270.4</ele>
        <time>2014-12-07T10:56:20Z</time>
      </trkpt>
      <trkpt lat="41.240112" lon="1.470095">
        <ele>270.4</ele>
        <time>2014-12-07T10:56:21Z</time>
      </trkpt>
      <trkpt lat="41.240005" lon="1.470203">
        <ele>270.4</ele>
        <time>2014-12-07T10:56:24Z</time>
      </trkpt>
      <trkpt lat="41.239952" lon="1.470302">
        <ele>269.8</ele>
        <time>2014-12-07T10:56:26Z</time>
      </trkpt>
      <trkpt lat="41.239925" lon="1.470364">
        <ele>269.4</ele>
        <time>2014-12-07T10:56:27Z</time>
      </trkpt>
      <trkpt lat="41.239902" lon="1.470444">
        <ele>268.8</ele>
        <time>2014-12-07T10:56:28Z</time>
      </trkpt>
      <trkpt lat="41.239887" lon="1.470524">
        <ele>268.2</ele>
        <time>2014-12-07T10:56:29Z</time>
      </trkpt>
      <trkpt lat="41.239876" lon="1.470621">
        <ele>267.6</ele>
        <time>2014-12-07T10:56:30Z</time>
      </trkpt>
      <trkpt lat="41.239864" lon="1.470707">
        <ele>267.0</ele>
        <time>2014-12-07T10:56:31Z</time>
      </trkpt>
      <trkpt lat="41.239861" lon="1.470790">
        <ele>266.2</ele>
        <time>2014-12-07T10:56:32Z</time>
      </trkpt>
      <trkpt lat="41.239861" lon="1.470867">
        <ele>265.6</ele>
        <time>2014-12-07T10:56:33Z</time>
      </trkpt>
      <trkpt lat="41.239861" lon="1.470937">
        <ele>265.0</ele>
        <time>2014-12-07T10:56:34Z</time>
      </trkpt>
      <trkpt lat="41.239864" lon="1.471004">
        <ele>264.6</ele>
        <time>2014-12-07T10:56:35Z</time>
      </trkpt>
      <trkpt lat="41.239880" lon="1.471037">
        <ele>264.0</ele>
        <time>2014-12-07T10:56:36Z</time>
      </trkpt>
      <trkpt lat="41.239914" lon="1.471076">
        <ele>263.6</ele>
        <time>2014-12-07T10:56:37Z</time>
      </trkpt>
      <trkpt lat="41.239944" lon="1.471109">
        <ele>263.2</ele>
        <time>2014-12-07T10:56:38Z</time>
      </trkpt>
      <trkpt lat="41.239983" lon="1.471133">
        <ele>262.6</ele>
        <time>2014-12-07T10:56:39Z</time>
      </trkpt>
      <trkpt lat="41.240025" lon="1.471149">
        <ele>262.0</ele>
        <time>2014-12-07T10:56:40Z</time>
      </trkpt>
      <trkpt lat="41.240070" lon="1.471162">
        <ele>261.4</ele>
        <time>2014-12-07T10:56:41Z</time>
      </trkpt>
      <trkpt lat="41.240124" lon="1.471175">
        <ele>260.8</ele>
        <time>2014-12-07T10:56:42Z</time>
      </trkpt>
      <trkpt lat="41.240173" lon="1.471194">
        <ele>260.2</ele>
        <time>2014-12-07T10:56:43Z</time>
      </trkpt>
      <trkpt lat="41.240223" lon="1.471221">
        <ele>260.2</ele>
        <time>2014-12-07T10:56:44Z</time>
      </trkpt>
      <trkpt lat="41.240250" lon="1.471265">
        <ele>260.2</ele>
        <time>2014-12-07T10:56:45Z</time>
      </trkpt>
      <trkpt lat="41.240269" lon="1.471310">
        <ele>259.6</ele>
        <time>2014-12-07T10:56:46Z</time>
      </trkpt>
      <trkpt lat="41.240273" lon="1.471360">
        <ele>259.2</ele>
        <time>2014-12-07T10:56:47Z</time>
      </trkpt>
      <trkpt lat="41.240269" lon="1.471418">
        <ele>258.8</ele>
        <time>2014-12-07T10:56:48Z</time>
      </trkpt>
      <trkpt lat="41.240261" lon="1.471480">
        <ele>258.2</ele>
        <time>2014-12-07T10:56:49Z</time>
      </trkpt>
      <trkpt lat="41.240265" lon="1.471540">
        <ele>257.4</ele>
        <time>2014-12-07T10:56:50Z</time>
      </trkpt>
      <trkpt lat="41.240280" lon="1.471600">
        <ele>257.0</ele>
        <time>2014-12-07T10:56:51Z</time>
      </trkpt>
      <trkpt lat="41.240299" lon="1.471661">
        <ele>256.6</ele>
        <time>2014-12-07T10:56:52Z</time>
      </trkpt>
      <trkpt lat="41.240326" lon="1.471726">
        <ele>256.0</ele>
        <time>2014-12-07T10:56:53Z</time>
      </trkpt>
      <trkpt lat="41.240345" lon="1.471797">
        <ele>255.2</ele>
        <time>2014-12-07T10:56:54Z</time>
      </trkpt>
      <trkpt lat="41.240349" lon="1.471870">
        <ele>254.6</ele>
        <time>2014-12-07T10:56:55Z</time>
      </trkpt>
      <trkpt lat="41.240337" lon="1.471946">
        <ele>254.0</ele>
        <time>2014-12-07T10:56:56Z</time>
      </trkpt>
      <trkpt lat="41.240311" lon="1.472017">
        <ele>253.4</ele>
        <time>2014-12-07T10:56:57Z</time>
      </trkpt>
      <trkpt lat="41.240276" lon="1.472083">
        <ele>253.4</ele>
        <time>2014-12-07T10:56:58Z</time>
      </trkpt>
      <trkpt lat="41.240215" lon="1.472225">
        <ele>252.8</ele>
        <time>2014-12-07T10:57:00Z</time>
      </trkpt>
      <trkpt lat="41.240185" lon="1.472293">
        <ele>252.4</ele>
        <time>2014-12-07T10:57:01Z</time>
      </trkpt>
      <trkpt lat="41.240150" lon="1.472362">
        <ele>251.8</ele>
        <time>2014-12-07T10:57:02Z</time>
      </trkpt>
      <trkpt lat="41.240116" lon="1.472427">
        <ele>251.4</ele>
        <time>2014-12-07T10:57:03Z</time>
      </trkpt>
      <trkpt lat="41.240093" lon="1.472489">
        <ele>250.6</ele>
        <time>2014-12-07T10:57:04Z</time>
      </trkpt>
      <trkpt lat="41.240082" lon="1.472552">
        <ele>250.0</ele>
        <time>2014-12-07T10:57:05Z</time>
      </trkpt>
      <trkpt lat="41.240089" lon="1.472618">
        <ele>249.2</ele>
        <time>2014-12-07T10:57:06Z</time>
      </trkpt>
      <trkpt lat="41.240105" lon="1.472696">
        <ele>248.4</ele>
        <time>2014-12-07T10:57:07Z</time>
      </trkpt>
      <trkpt lat="41.240131" lon="1.472786">
        <ele>247.8</ele>
        <time>2014-12-07T10:57:08Z</time>
      </trkpt>
      <trkpt lat="41.240150" lon="1.472878">
        <ele>247.0</ele>
        <time>2014-12-07T10:57:09Z</time>
      </trkpt>
      <trkpt lat="41.240162" lon="1.472974">
        <ele>246.2</ele>
        <time>2014-12-07T10:57:10Z</time>
      </trkpt>
      <trkpt lat="41.240170" lon="1.473070">
        <ele>245.4</ele>
        <time>2014-12-07T10:57:11Z</time>
      </trkpt>
      <trkpt lat="41.240173" lon="1.473427">
        <ele>244.6</ele>
        <time>2014-12-07T10:57:15Z</time>
      </trkpt>
      <trkpt lat="41.240158" lon="1.473498">
        <ele>244.0</ele>
        <time>2014-12-07T10:57:16Z</time>
      </trkpt>
      <trkpt lat="41.240139" lon="1.473556">
        <ele>243.6</ele>
        <time>2014-12-07T10:57:17Z</time>
      </trkpt>
      <trkpt lat="41.240120" lon="1.473608">
        <ele>243.2</ele>
        <time>2014-12-07T10:57:18Z</time>
      </trkpt>
      <trkpt lat="41.240086" lon="1.473724">
        <ele>243.2</ele>
        <time>2014-12-07T10:57:21Z</time>
      </trkpt>
      <trkpt lat="41.240070" lon="1.473789">
        <ele>243.2</ele>
        <time>2014-12-07T10:57:23Z</time>
      </trkpt>
      <trkpt lat="41.240025" lon="1.473913">
        <ele>243.2</ele>
        <time>2014-12-07T10:57:26Z</time>
      </trkpt>
      <trkpt lat="41.239983" lon="1.474007">
        <ele>243.2</ele>
        <time>2014-12-07T10:57:28Z</time>
      </trkpt>
      <trkpt lat="41.239922" lon="1.474115">
        <ele>243.2</ele>
        <time>2014-12-07T10:57:30Z</time>
      </trkpt>
      <trkpt lat="41.239853" lon="1.474295">
        <ele>243.2</ele>
        <time>2014-12-07T10:57:33Z</time>
      </trkpt>
      <trkpt lat="41.239815" lon="1.474422">
        <ele>243.2</ele>
        <time>2014-12-07T10:57:35Z</time>
      </trkpt>
      <trkpt lat="41.239796" lon="1.474705">
        <ele>243.2</ele>
        <time>2014-12-07T10:57:39Z</time>
      </trkpt>
      <trkpt lat="41.239807" lon="1.474854">
        <ele>243.2</ele>
        <time>2014-12-07T10:57:41Z</time>
      </trkpt>
      <trkpt lat="41.239853" lon="1.474991">
        <ele>243.2</ele>
        <time>2014-12-07T10:57:43Z</time>
      </trkpt>
      <trkpt lat="41.239941" lon="1.475174">
        <ele>243.2</ele>
        <time>2014-12-07T10:57:46Z</time>
      </trkpt>
      <trkpt lat="41.239964" lon="1.475296">
        <ele>243.2</ele>
        <time>2014-12-07T10:57:48Z</time>
      </trkpt>
      <trkpt lat="41.239952" lon="1.475407">
        <ele>243.2</ele>
        <time>2014-12-07T10:57:50Z</time>
      </trkpt>
      <trkpt lat="41.239941" lon="1.475460">
        <ele>243.6</ele>
        <time>2014-12-07T10:57:51Z</time>
      </trkpt>
      <trkpt lat="41.239925" lon="1.475505">
        <ele>244.0</ele>
        <time>2014-12-07T10:57:52Z</time>
      </trkpt>
      <trkpt lat="41.239914" lon="1.475555">
        <ele>244.4</ele>
        <time>2014-12-07T10:57:53Z</time>
      </trkpt>
      <trkpt lat="41.239899" lon="1.475606">
        <ele>244.8</ele>
        <time>2014-12-07T10:57:54Z</time>
      </trkpt>
      <trkpt lat="41.239883" lon="1.475657">
        <ele>245.2</ele>
        <time>2014-12-07T10:57:55Z</time>
      </trkpt>
      <trkpt lat="41.239853" lon="1.475754">
        <ele>245.2</ele>
        <time>2014-12-07T10:57:57Z</time>
      </trkpt>
      <trkpt lat="41.239845" lon="1.475798">
        <ele>245.2</ele>
        <time>2014-12-07T10:57:58Z</time>
      </trkpt>
      <trkpt lat="41.239838" lon="1.475841">
        <ele>245.6</ele>
        <time>2014-12-07T10:57:59Z</time>
      </trkpt>
      <trkpt lat="41.239838" lon="1.475889">
        <ele>246.0</ele>
        <time>2014-12-07T10:58:00Z</time>
      </trkpt>
      <trkpt lat="41.239841" lon="1.475935">
        <ele>246.6</ele>
        <time>2014-12-07T10:58:01Z</time>
      </trkpt>
      <trkpt lat="41.239845" lon="1.475982">
        <ele>247.0</ele>
        <time>2014-12-07T10:58:02Z</time>
      </trkpt>
      <trkpt lat="41.239845" lon="1.476025">
        <ele>247.4</ele>
        <time>2014-12-07T10:58:03Z</time>
      </trkpt>
      <trkpt lat="41.239853" lon="1.476063">
        <ele>247.8</ele>
        <time>2014-12-07T10:58:04Z</time>
      </trkpt>
      <trkpt lat="41.239861" lon="1.476094">
        <ele>248.2</ele>
        <time>2014-12-07T10:58:05Z</time>
      </trkpt>
      <trkpt lat="41.239872" lon="1.476120">
        <ele>248.6</ele>
        <time>2014-12-07T10:58:06Z</time>
      </trkpt>
      <trkpt lat="41.239887" lon="1.476140">
        <ele>249.0</ele>
        <time>2014-12-07T10:58:07Z</time>
      </trkpt>
      <trkpt lat="41.239899" lon="1.476160">
        <ele>249.6</ele>
        <time>2014-12-07T10:58:08Z</time>
      </trkpt>
      <trkpt lat="41.239910" lon="1.476183">
        <ele>250.0</ele>
        <time>2014-12-07T10:58:09Z</time>
      </trkpt>
      <trkpt lat="41.239929" lon="1.476209">
        <ele>250.6</ele>
        <time>2014-12-07T10:58:10Z</time>
      </trkpt>
      <trkpt lat="41.239952" lon="1.476239">
        <ele>251.0</ele>
        <time>2014-12-07T10:58:11Z</time>
      </trkpt>
      <trkpt lat="41.239971" lon="1.476267">
        <ele>251.4</ele>
        <time>2014-12-07T10:58:12Z</time>
      </trkpt>
      <trkpt lat="41.240101" lon="1.476371">
        <ele>251.4</ele>
        <time>2014-12-07T10:58:18Z</time>
      </trkpt>
      <trkpt lat="41.240231" lon="1.476467">
        <ele>251.4</ele>
        <time>2014-12-07T10:58:24Z</time>
      </trkpt>
      <trkpt lat="41.240368" lon="1.476635">
        <ele>251.4</ele>
        <time>2014-12-07T10:58:30Z</time>
      </trkpt>
      <trkpt lat="41.240601" lon="1.476818">
        <ele>251.4</ele>
        <time>2014-12-07T10:58:38Z</time>
      </trkpt>
      <trkpt lat="41.240646" lon="1.476843">
        <ele>251.4</ele>
        <time>2014-12-07T10:58:39Z</time>
      </trkpt>
      <trkpt lat="41.240784" lon="1.476960">
        <ele>251.0</ele>
        <time>2014-12-07T10:58:42Z</time>
      </trkpt>
      <trkpt lat="41.240814" lon="1.477016">
        <ele>250.6</ele>
        <time>2014-12-07T10:58:43Z</time>
      </trkpt>
      <trkpt lat="41.240837" lon="1.477087">
        <ele>250.0</ele>
        <time>2014-12-07T10:58:44Z</time>
      </trkpt>
      <trkpt lat="41.240852" lon="1.477164">
        <ele>249.6</ele>
        <time>2014-12-07T10:58:45Z</time>
      </trkpt>
      <trkpt lat="41.240856" lon="1.477243">
        <ele>249.2</ele>
        <time>2014-12-07T10:58:46Z</time>
      </trkpt>
      <trkpt lat="41.240913" lon="1.477452">
        <ele>249.2</ele>
        <time>2014-12-07T10:58:49Z</time>
      </trkpt>
      <trkpt lat="41.241005" lon="1.477566">
        <ele>248.8</ele>
        <time>2014-12-07T10:58:51Z</time>
      </trkpt>
      <trkpt lat="41.241055" lon="1.477618">
        <ele>248.2</ele>
        <time>2014-12-07T10:58:52Z</time>
      </trkpt>
      <trkpt lat="41.241104" lon="1.477665">
        <ele>247.8</ele>
        <time>2014-12-07T10:58:53Z</time>
      </trkpt>
      <trkpt lat="41.241161" lon="1.477711">
        <ele>247.0</ele>
        <time>2014-12-07T10:58:54Z</time>
      </trkpt>
      <trkpt lat="41.241383" lon="1.477911">
        <ele>246.4</ele>
        <time>2014-12-07T10:58:58Z</time>
      </trkpt>
      <trkpt lat="41.241447" lon="1.477971">
        <ele>246.0</ele>
        <time>2014-12-07T10:58:59Z</time>
      </trkpt>
      <trkpt lat="41.241512" lon="1.478031">
        <ele>245.6</ele>
        <time>2014-12-07T10:59:00Z</time>
      </trkpt>
      <trkpt lat="41.241573" lon="1.478098">
        <ele>244.8</ele>
        <time>2014-12-07T10:59:01Z</time>
      </trkpt>
      <trkpt lat="41.241642" lon="1.478171">
        <ele>244.0</ele>
        <time>2014-12-07T10:59:02Z</time>
      </trkpt>
      <trkpt lat="41.241711" lon="1.478245">
        <ele>243.4</ele>
        <time>2014-12-07T10:59:03Z</time>
      </trkpt>
      <trkpt lat="41.241779" lon="1.478316">
        <ele>242.6</ele>
        <time>2014-12-07T10:59:04Z</time>
      </trkpt>
      <trkpt lat="41.241848" lon="1.478384">
        <ele>241.8</ele>
        <time>2014-12-07T10:59:05Z</time>
      </trkpt>
      <trkpt lat="41.241920" lon="1.478449">
        <ele>241.2</ele>
        <time>2014-12-07T10:59:06Z</time>
      </trkpt>
      <trkpt lat="41.241989" lon="1.478506">
        <ele>240.4</ele>
        <time>2014-12-07T10:59:07Z</time>
      </trkpt>
      <trkpt lat="41.242058" lon="1.478558">
        <ele>239.8</ele>
        <time>2014-12-07T10:59:08Z</time>
      </trkpt>
      <trkpt lat="41.242111" lon="1.478611">
        <ele>239.2</ele>
        <time>2014-12-07T10:59:09Z</time>
      </trkpt>
      <trkpt lat="41.242146" lon="1.478675">
        <ele>238.6</ele>
        <time>2014-12-07T10:59:10Z</time>
      </trkpt>
      <trkpt lat="41.242153" lon="1.478748">
        <ele>238.0</ele>
        <time>2014-12-07T10:59:11Z</time>
      </trkpt>
      <trkpt lat="41.242142" lon="1.478819">
        <ele>237.2</ele>
        <time>2014-12-07T10:59:12Z</time>
      </trkpt>
      <trkpt lat="41.242119" lon="1.478893">
        <ele>236.6</ele>
        <time>2014-12-07T10:59:13Z</time>
      </trkpt>
      <trkpt lat="41.242104" lon="1.478972">
        <ele>236.0</ele>
        <time>2014-12-07T10:59:14Z</time>
      </trkpt>
      <trkpt lat="41.242107" lon="1.479045">
        <ele>235.2</ele>
        <time>2014-12-07T10:59:15Z</time>
      </trkpt>
      <trkpt lat="41.242180" lon="1.479152">
        <ele>235.2</ele>
        <time>2014-12-07T10:59:17Z</time>
      </trkpt>
      <trkpt lat="41.242237" lon="1.479181">
        <ele>234.2</ele>
        <time>2014-12-07T10:59:18Z</time>
      </trkpt>
      <trkpt lat="41.242310" lon="1.479200">
        <ele>233.4</ele>
        <time>2014-12-07T10:59:19Z</time>
      </trkpt>
      <trkpt lat="41.242382" lon="1.479216">
        <ele>232.8</ele>
        <time>2014-12-07T10:59:20Z</time>
      </trkpt>
      <trkpt lat="41.242447" lon="1.479237">
        <ele>231.8</ele>
        <time>2014-12-07T10:59:21Z</time>
      </trkpt>
      <trkpt lat="41.242500" lon="1.479277">
        <ele>230.8</ele>
        <time>2014-12-07T10:59:22Z</time>
      </trkpt>
      <trkpt lat="41.242535" lon="1.479341">
        <ele>229.8</ele>
        <time>2014-12-07T10:59:23Z</time>
      </trkpt>
      <trkpt lat="41.242558" lon="1.479423">
        <ele>229.0</ele>
        <time>2014-12-07T10:59:24Z</time>
      </trkpt>
      <trkpt lat="41.242561" lon="1.479513">
        <ele>228.2</ele>
        <time>2014-12-07T10:59:25Z</time>
      </trkpt>
      <trkpt lat="41.242561" lon="1.479602">
        <ele>227.4</ele>
        <time>2014-12-07T10:59:26Z</time>
      </trkpt>
      <trkpt lat="41.242561" lon="1.479679">
        <ele>226.6</ele>
        <time>2014-12-07T10:59:27Z</time>
      </trkpt>
      <trkpt lat="41.242577" lon="1.479733">
        <ele>226.0</ele>
        <time>2014-12-07T10:59:28Z</time>
      </trkpt>
      <trkpt lat="41.242607" lon="1.479757">
        <ele>225.2</ele>
        <time>2014-12-07T10:59:29Z</time>
      </trkpt>
      <trkpt lat="41.242645" lon="1.479738">
        <ele>224.4</ele>
        <time>2014-12-07T10:59:30Z</time>
      </trkpt>
      <trkpt lat="41.242683" lon="1.479685">
        <ele>223.4</ele>
        <time>2014-12-07T10:59:31Z</time>
      </trkpt>
      <trkpt lat="41.242706" lon="1.479611">
        <ele>222.4</ele>
        <time>2014-12-07T10:59:32Z</time>
      </trkpt>
      <trkpt lat="41.242725" lon="1.479524">
        <ele>221.6</ele>
        <time>2014-12-07T10:59:33Z</time>
      </trkpt>
      <trkpt lat="41.242741" lon="1.479429">
        <ele>220.6</ele>
        <time>2014-12-07T10:59:34Z</time>
      </trkpt>
      <trkpt lat="41.242756" lon="1.479333">
        <ele>219.6</ele>
        <time>2014-12-07T10:59:35Z</time>
      </trkpt>
      <trkpt lat="41.242779" lon="1.479254">
        <ele>219.0</ele>
        <time>2014-12-07T10:59:36Z</time>
      </trkpt>
      <trkpt lat="41.242825" lon="1.479203">
        <ele>218.4</ele>
        <time>2014-12-07T10:59:37Z</time>
      </trkpt>
      <trkpt lat="41.242889" lon="1.479190">
        <ele>217.6</ele>
        <time>2014-12-07T10:59:38Z</time>
      </trkpt>
      <trkpt lat="41.242962" lon="1.479190">
        <ele>217.0</ele>
        <time>2014-12-07T10:59:39Z</time>
      </trkpt>
      <trkpt lat="41.243038" lon="1.479182">
        <ele>216.4</ele>
        <time>2014-12-07T10:59:40Z</time>
      </trkpt>
      <trkpt lat="41.243118" lon="1.479167">
        <ele>215.8</ele>
        <time>2014-12-07T10:59:41Z</time>
      </trkpt>
      <trkpt lat="41.243206" lon="1.479158">
        <ele>215.2</ele>
        <time>2014-12-07T10:59:42Z</time>
      </trkpt>
      <trkpt lat="41.243290" lon="1.479169">
        <ele>214.2</ele>
        <time>2014-12-07T10:59:43Z</time>
      </trkpt>
      <trkpt lat="41.243370" lon="1.479200">
        <ele>213.6</ele>
        <time>2014-12-07T10:59:44Z</time>
      </trkpt>
      <trkpt lat="41.243443" lon="1.479255">
        <ele>213.0</ele>
        <time>2014-12-07T10:59:45Z</time>
      </trkpt>
      <trkpt lat="41.243496" lon="1.479329">
        <ele>212.4</ele>
        <time>2014-12-07T10:59:46Z</time>
      </trkpt>
      <trkpt lat="41.243530" lon="1.479423">
        <ele>211.8</ele>
        <time>2014-12-07T10:59:47Z</time>
      </trkpt>
      <trkpt lat="41.243557" lon="1.479524">
        <ele>211.2</ele>
        <time>2014-12-07T10:59:48Z</time>
      </trkpt>
      <trkpt lat="41.243587" lon="1.479627">
        <ele>210.6</ele>
        <time>2014-12-07T10:59:49Z</time>
      </trkpt>
      <trkpt lat="41.243629" lon="1.479729">
        <ele>210.0</ele>
        <time>2014-12-07T10:59:50Z</time>
      </trkpt>
      <trkpt lat="41.243683" lon="1.479834">
        <ele>209.2</ele>
        <time>2014-12-07T10:59:51Z</time>
      </trkpt>
      <trkpt lat="41.243744" lon="1.479960">
        <ele>208.6</ele>
        <time>2014-12-07T10:59:52Z</time>
      </trkpt>
      <trkpt lat="41.243801" lon="1.480092">
        <ele>207.4</ele>
        <time>2014-12-07T10:59:53Z</time>
      </trkpt>
      <trkpt lat="41.243855" lon="1.480234">
        <ele>206.4</ele>
        <time>2014-12-07T10:59:54Z</time>
      </trkpt>
      <trkpt lat="41.243904" lon="1.480376">
        <ele>205.4</ele>
        <time>2014-12-07T10:59:55Z</time>
      </trkpt>
      <trkpt lat="41.243946" lon="1.480508">
        <ele>204.2</ele>
        <time>2014-12-07T10:59:56Z</time>
      </trkpt>
      <trkpt lat="41.243992" lon="1.480627">
        <ele>203.0</ele>
        <time>2014-12-07T10:59:57Z</time>
      </trkpt>
      <trkpt lat="41.244038" lon="1.480735">
        <ele>202.0</ele>
        <time>2014-12-07T10:59:58Z</time>
      </trkpt>
      <trkpt lat="41.244087" lon="1.480839">
        <ele>200.6</ele>
        <time>2014-12-07T10:59:59Z</time>
      </trkpt>
      <trkpt lat="41.244125" lon="1.480953">
        <ele>199.4</ele>
        <time>2014-12-07T11:00:00Z</time>
      </trkpt>
      <trkpt lat="41.244164" lon="1.481061">
        <ele>198.0</ele>
        <time>2014-12-07T11:00:01Z</time>
      </trkpt>
      <trkpt lat="41.244213" lon="1.481164">
        <ele>196.6</ele>
        <time>2014-12-07T11:00:02Z</time>
      </trkpt>
      <trkpt lat="41.244270" lon="1.481263">
        <ele>195.4</ele>
        <time>2014-12-07T11:00:03Z</time>
      </trkpt>
      <trkpt lat="41.244335" lon="1.481350">
        <ele>194.0</ele>
        <time>2014-12-07T11:00:04Z</time>
      </trkpt>
      <trkpt lat="41.244396" lon="1.481416">
        <ele>192.8</ele>
        <time>2014-12-07T11:00:05Z</time>
      </trkpt>
      <trkpt lat="41.244473" lon="1.481460">
        <ele>191.6</ele>
        <time>2014-12-07T11:00:06Z</time>
      </trkpt>
      <trkpt lat="41.244556" lon="1.481486">
        <ele>190.6</ele>
        <time>2014-12-07T11:00:07Z</time>
      </trkpt>
      <trkpt lat="41.244640" lon="1.481500">
        <ele>188.2</ele>
        <time>2014-12-07T11:00:08Z</time>
      </trkpt>
      <trkpt lat="41.244713" lon="1.481516">
        <ele>187.0</ele>
        <time>2014-12-07T11:00:09Z</time>
      </trkpt>
      <trkpt lat="41.244781" lon="1.481547">
        <ele>186.0</ele>
        <time>2014-12-07T11:00:10Z</time>
      </trkpt>
      <trkpt lat="41.244843" lon="1.481608">
        <ele>184.8</ele>
        <time>2014-12-07T11:00:11Z</time>
      </trkpt>
      <trkpt lat="41.244900" lon="1.481688">
        <ele>183.6</ele>
        <time>2014-12-07T11:00:12Z</time>
      </trkpt>
      <trkpt lat="41.244949" lon="1.481777">
        <ele>182.6</ele>
        <time>2014-12-07T11:00:13Z</time>
      </trkpt>
      <trkpt lat="41.244984" lon="1.481876">
        <ele>181.4</ele>
        <time>2014-12-07T11:00:14Z</time>
      </trkpt>
      <trkpt lat="41.244995" lon="1.481982">
        <ele>180.8</ele>
        <time>2014-12-07T11:00:15Z</time>
      </trkpt>
      <trkpt lat="41.244995" lon="1.482094">
        <ele>180.0</ele>
        <time>2014-12-07T11:00:16Z</time>
      </trkpt>
      <trkpt lat="41.244991" lon="1.482204">
        <ele>179.2</ele>
        <time>2014-12-07T11:00:17Z</time>
      </trkpt>
      <trkpt lat="41.244991" lon="1.482312">
        <ele>178.6</ele>
        <time>2014-12-07T11:00:18Z</time>
      </trkpt>
      <trkpt lat="41.244984" lon="1.482420">
        <ele>177.8</ele>
        <time>2014-12-07T11:00:19Z</time>
      </trkpt>
      <trkpt lat="41.244976" lon="1.482521">
        <ele>177.4</ele>
        <time>2014-12-07T11:00:20Z</time>
      </trkpt>
      <trkpt lat="41.244968" lon="1.482607">
        <ele>176.8</ele>
        <time>2014-12-07T11:00:21Z</time>
      </trkpt>
      <trkpt lat="41.244965" lon="1.482685">
        <ele>176.4</ele>
        <time>2014-12-07T11:00:22Z</time>
      </trkpt>
      <trkpt lat="41.244976" lon="1.482751">
        <ele>175.8</ele>
        <time>2014-12-07T11:00:23Z</time>
      </trkpt>
      <trkpt lat="41.244999" lon="1.482808">
        <ele>175.2</ele>
        <time>2014-12-07T11:00:24Z</time>
      </trkpt>
      <trkpt lat="41.245037" lon="1.482854">
        <ele>174.6</ele>
        <time>2014-12-07T11:00:25Z</time>
      </trkpt>
      <trkpt lat="41.245079" lon="1.482903">
        <ele>174.0</ele>
        <time>2014-12-07T11:00:26Z</time>
      </trkpt>
      <trkpt lat="41.245110" lon="1.482967">
        <ele>173.4</ele>
        <time>2014-12-07T11:00:27Z</time>
      </trkpt>
      <trkpt lat="41.245121" lon="1.483046">
        <ele>172.8</ele>
        <time>2014-12-07T11:00:28Z</time>
      </trkpt>
      <trkpt lat="41.245132" lon="1.483137">
        <ele>172.2</ele>
        <time>2014-12-07T11:00:29Z</time>
      </trkpt>
      <trkpt lat="41.245148" lon="1.483221">
        <ele>171.6</ele>
        <time>2014-12-07T11:00:30Z</time>
      </trkpt>
      <trkpt lat="41.245163" lon="1.483298">
        <ele>170.8</ele>
        <time>2014-12-07T11:00:31Z</time>
      </trkpt>
      <trkpt lat="41.245190" lon="1.483373">
        <ele>170.2</ele>
        <time>2014-12-07T11:00:32Z</time>
      </trkpt>
      <trkpt lat="41.245232" lon="1.483444">
        <ele>168.8</ele>
        <time>2014-12-07T11:00:33Z</time>
      </trkpt>
      <trkpt lat="41.245281" lon="1.483518">
        <ele>168.2</ele>
        <time>2014-12-07T11:00:34Z</time>
      </trkpt>
      <trkpt lat="41.245327" lon="1.483604">
        <ele>167.8</ele>
        <time>2014-12-07T11:00:35Z</time>
      </trkpt>
      <trkpt lat="41.245361" lon="1.483703">
        <ele>167.2</ele>
        <time>2014-12-07T11:00:36Z</time>
      </trkpt>
      <trkpt lat="41.245392" lon="1.483814">
        <ele>166.6</ele>
        <time>2014-12-07T11:00:37Z</time>
      </trkpt>
      <trkpt lat="41.245422" lon="1.483924">
        <ele>166.2</ele>
        <time>2014-12-07T11:00:38Z</time>
      </trkpt>
      <trkpt lat="41.245449" lon="1.484038">
        <ele>165.6</ele>
        <time>2014-12-07T11:00:39Z</time>
      </trkpt>
      <trkpt lat="41.245480" lon="1.484152">
        <ele>165.0</ele>
        <time>2014-12-07T11:00:40Z</time>
      </trkpt>
      <trkpt lat="41.245506" lon="1.484268">
        <ele>164.6</ele>
        <time>2014-12-07T11:00:41Z</time>
      </trkpt>
      <trkpt lat="41.245537" lon="1.484381">
        <ele>164.0</ele>
        <time>2014-12-07T11:00:42Z</time>
      </trkpt>
      <trkpt lat="41.245598" lon="1.484597">
        <ele>163.4</ele>
        <time>2014-12-07T11:00:44Z</time>
      </trkpt>
      <trkpt lat="41.245632" lon="1.484693">
        <ele>162.8</ele>
        <time>2014-12-07T11:00:45Z</time>
      </trkpt>
      <trkpt lat="41.245670" lon="1.484786">
        <ele>161.8</ele>
        <time>2014-12-07T11:00:46Z</time>
      </trkpt>
      <trkpt lat="41.245712" lon="1.484875">
        <ele>160.8</ele>
        <time>2014-12-07T11:00:47Z</time>
      </trkpt>
      <trkpt lat="41.245754" lon="1.484959">
        <ele>159.6</ele>
        <time>2014-12-07T11:00:48Z</time>
      </trkpt>
      <trkpt lat="41.245804" lon="1.485035">
        <ele>158.6</ele>
        <time>2014-12-07T11:00:49Z</time>
      </trkpt>
      <trkpt lat="41.245846" lon="1.485117">
        <ele>157.2</ele>
        <time>2014-12-07T11:00:50Z</time>
      </trkpt>
      <trkpt lat="41.245872" lon="1.485209">
        <ele>156.0</ele>
        <time>2014-12-07T11:00:51Z</time>
      </trkpt>
      <trkpt lat="41.245895" lon="1.485326">
        <ele>154.8</ele>
        <time>2014-12-07T11:00:52Z</time>
      </trkpt>
      <trkpt lat="41.245911" lon="1.485449">
        <ele>153.6</ele>
        <time>2014-12-07T11:00:53Z</time>
      </trkpt>
      <trkpt lat="41.245934" lon="1.485570">
        <ele>152.6</ele>
        <time>2014-12-07T11:00:54Z</time>
      </trkpt>
      <trkpt lat="41.245968" lon="1.485676">
        <ele>151.4</ele>
        <time>2014-12-07T11:00:55Z</time>
      </trkpt>
      <trkpt lat="41.246006" lon="1.485769">
        <ele>150.4</ele>
        <time>2014-12-07T11:00:56Z</time>
      </trkpt>
      <trkpt lat="41.246052" lon="1.485845">
        <ele>149.2</ele>
        <time>2014-12-07T11:00:57Z</time>
      </trkpt>
      <trkpt lat="41.246086" lon="1.485910">
        <ele>146.8</ele>
        <time>2014-12-07T11:00:58Z</time>
      </trkpt>
      <trkpt lat="41.246113" lon="1.485967">
        <ele>145.6</ele>
        <time>2014-12-07T11:00:59Z</time>
      </trkpt>
      <trkpt lat="41.246151" lon="1.486002">
        <ele>144.4</ele>
        <time>2014-12-07T11:01:00Z</time>
      </trkpt>
      <trkpt lat="41.246193" lon="1.486006">
        <ele>143.2</ele>
        <time>2014-12-07T11:01:01Z</time>
      </trkpt>
      <trkpt lat="41.246243" lon="1.485981">
        <ele>142.0</ele>
        <time>2014-12-07T11:01:02Z</time>
      </trkpt>
      <trkpt lat="41.246288" lon="1.485947">
        <ele>141.0</ele>
        <time>2014-12-07T11:01:03Z</time>
      </trkpt>
      <trkpt lat="41.246349" lon="1.485931">
        <ele>140.0</ele>
        <time>2014-12-07T11:01:04Z</time>
      </trkpt>
      <trkpt lat="41.246426" lon="1.485932">
        <ele>139.0</ele>
        <time>2014-12-07T11:01:05Z</time>
      </trkpt>
      <trkpt lat="41.246510" lon="1.485933">
        <ele>138.0</ele>
        <time>2014-12-07T11:01:06Z</time>
      </trkpt>
      <trkpt lat="41.246613" lon="1.485924">
        <ele>137.2</ele>
        <time>2014-12-07T11:01:07Z</time>
      </trkpt>
      <trkpt lat="41.246716" lon="1.485910">
        <ele>136.2</ele>
        <time>2014-12-07T11:01:08Z</time>
      </trkpt>
      <trkpt lat="41.246819" lon="1.485893">
        <ele>135.2</ele>
        <time>2014-12-07T11:01:09Z</time>
      </trkpt>
      <trkpt lat="41.246910" lon="1.485876">
        <ele>134.2</ele>
        <time>2014-12-07T11:01:10Z</time>
      </trkpt>
      <trkpt lat="41.246998" lon="1.485862">
        <ele>133.0</ele>
        <time>2014-12-07T11:01:11Z</time>
      </trkpt>
      <trkpt lat="41.247063" lon="1.485853">
        <ele>132.0</ele>
        <time>2014-12-07T11:01:12Z</time>
      </trkpt>
      <trkpt lat="41.247120" lon="1.485855">
        <ele>130.8</ele>
        <time>2014-12-07T11:01:13Z</time>
      </trkpt>
      <trkpt lat="41.247162" lon="1.485872">
        <ele>129.8</ele>
        <time>2014-12-07T11:01:14Z</time>
      </trkpt>
      <trkpt lat="41.247181" lon="1.485893">
        <ele>128.8</ele>
        <time>2014-12-07T11:01:15Z</time>
      </trkpt>
      <trkpt lat="41.247185" lon="1.485914">
        <ele>127.8</ele>
        <time>2014-12-07T11:01:16Z</time>
      </trkpt>
      <trkpt lat="41.247189" lon="1.485943">
        <ele>126.8</ele>
        <time>2014-12-07T11:01:17Z</time>
      </trkpt>
      <trkpt lat="41.247196" lon="1.485977">
        <ele>125.8</ele>
        <time>2014-12-07T11:01:18Z</time>
      </trkpt>
      <trkpt lat="41.247196" lon="1.486014">
        <ele>125.8</ele>
        <time>2014-12-07T11:01:19Z</time>
      </trkpt>
      <trkpt lat="41.247219" lon="1.486146">
        <ele>125.0</ele>
        <time>2014-12-07T11:01:22Z</time>
      </trkpt>
      <trkpt lat="41.247231" lon="1.486198">
        <ele>124.6</ele>
        <time>2014-12-07T11:01:23Z</time>
      </trkpt>
      <trkpt lat="41.247234" lon="1.486250">
        <ele>124.2</ele>
        <time>2014-12-07T11:01:24Z</time>
      </trkpt>
      <trkpt lat="41.247234" lon="1.486296">
        <ele>123.8</ele>
        <time>2014-12-07T11:01:25Z</time>
      </trkpt>
      <trkpt lat="41.247242" lon="1.486322">
        <ele>123.8</ele>
        <time>2014-12-07T11:01:26Z</time>
      </trkpt>
      <trkpt lat="41.247253" lon="1.486334">
        <ele>123.8</ele>
        <time>2014-12-07T11:01:27Z</time>
      </trkpt>
      <trkpt lat="41.247387" lon="1.486354">
        <ele>123.8</ele>
        <time>2014-12-07T11:01:31Z</time>
      </trkpt>
      <trkpt lat="41.247478" lon="1.486363">
        <ele>123.8</ele>
        <time>2014-12-07T11:01:33Z</time>
      </trkpt>
      <trkpt lat="41.247566" lon="1.486380">
        <ele>123.8</ele>
        <time>2014-12-07T11:01:35Z</time>
      </trkpt>
      <trkpt lat="41.247608" lon="1.486384">
        <ele>123.8</ele>
        <time>2014-12-07T11:01:36Z</time>
      </trkpt>
      <trkpt lat="41.247776" lon="1.486415">
        <ele>123.8</ele>
        <time>2014-12-07T11:01:40Z</time>
      </trkpt>
      <trkpt lat="41.247826" lon="1.486421">
        <ele>123.8</ele>
        <time>2014-12-07T11:01:41Z</time>
      </trkpt>
      <trkpt lat="41.247875" lon="1.486429">
        <ele>124.2</ele>
        <time>2014-12-07T11:01:42Z</time>
      </trkpt>
      <trkpt lat="41.247925" lon="1.486437">
        <ele>124.8</ele>
        <time>2014-12-07T11:01:43Z</time>
      </trkpt>
      <trkpt lat="41.247978" lon="1.486446">
        <ele>125.2</ele>
        <time>2014-12-07T11:01:44Z</time>
      </trkpt>
      <trkpt lat="41.248028" lon="1.486456">
        <ele>125.6</ele>
        <time>2014-12-07T11:01:45Z</time>
      </trkpt>
      <trkpt lat="41.248077" lon="1.486470">
        <ele>126.0</ele>
        <time>2014-12-07T11:01:46Z</time>
      </trkpt>
      <trkpt lat="41.248127" lon="1.486491">
        <ele>126.0</ele>
        <time>2014-12-07T11:01:47Z</time>
      </trkpt>
      <trkpt lat="41.248310" lon="1.486596">
        <ele>126.0</ele>
        <time>2014-12-07T11:01:51Z</time>
      </trkpt>
      <trkpt lat="41.248409" lon="1.486628">
        <ele>126.0</ele>
        <time>2014-12-07T11:01:53Z</time>
      </trkpt>
      <trkpt lat="41.248512" lon="1.486632">
        <ele>126.0</ele>
        <time>2014-12-07T11:01:55Z</time>
      </trkpt>
      <trkpt lat="41.248562" lon="1.486636">
        <ele>126.0</ele>
        <time>2014-12-07T11:01:56Z</time>
      </trkpt>
      <trkpt lat="41.248718" lon="1.486670">
        <ele>126.0</ele>
        <time>2014-12-07T11:01:59Z</time>
      </trkpt>
      <trkpt lat="41.248768" lon="1.486677">
        <ele>126.0</ele>
        <time>2014-12-07T11:02:00Z</time>
      </trkpt>
      <trkpt lat="41.248905" lon="1.486716">
        <ele>126.0</ele>
        <time>2014-12-07T11:02:03Z</time>
      </trkpt>
      <trkpt lat="41.248955" lon="1.486739">
        <ele>125.6</ele>
        <time>2014-12-07T11:02:04Z</time>
      </trkpt>
      <trkpt lat="41.249004" lon="1.486763">
        <ele>125.2</ele>
        <time>2014-12-07T11:02:05Z</time>
      </trkpt>
      <trkpt lat="41.249058" lon="1.486787">
        <ele>124.8</ele>
        <time>2014-12-07T11:02:06Z</time>
      </trkpt>
      <trkpt lat="41.249107" lon="1.486814">
        <ele>124.4</ele>
        <time>2014-12-07T11:02:07Z</time>
      </trkpt>
      <trkpt lat="41.249157" lon="1.486838">
        <ele>124.0</ele>
        <time>2014-12-07T11:02:08Z</time>
      </trkpt>
      <trkpt lat="41.249207" lon="1.486869">
        <ele>124.0</ele>
        <time>2014-12-07T11:02:09Z</time>
      </trkpt>
      <trkpt lat="41.249294" lon="1.486948">
        <ele>124.0</ele>
        <time>2014-12-07T11:02:11Z</time>
      </trkpt>
      <trkpt lat="41.249344" lon="1.486975">
        <ele>123.6</ele>
        <time>2014-12-07T11:02:12Z</time>
      </trkpt>
      <trkpt lat="41.249393" lon="1.486996">
        <ele>123.0</ele>
        <time>2014-12-07T11:02:13Z</time>
      </trkpt>
      <trkpt lat="41.249439" lon="1.487020">
        <ele>122.6</ele>
        <time>2014-12-07T11:02:14Z</time>
      </trkpt>
      <trkpt lat="41.249485" lon="1.487049">
        <ele>122.2</ele>
        <time>2014-12-07T11:02:15Z</time>
      </trkpt>
      <trkpt lat="41.249531" lon="1.487083">
        <ele>121.8</ele>
        <time>2014-12-07T11:02:16Z</time>
      </trkpt>
      <trkpt lat="41.249649" lon="1.487202">
        <ele>121.8</ele>
        <time>2014-12-07T11:02:19Z</time>
      </trkpt>
      <trkpt lat="41.249710" lon="1.487324">
        <ele>121.8</ele>
        <time>2014-12-07T11:02:22Z</time>
      </trkpt>
      <trkpt lat="41.249725" lon="1.487347">
        <ele>121.8</ele>
        <time>2014-12-07T11:02:23Z</time>
      </trkpt>
      <trkpt lat="41.249729" lon="1.487369">
        <ele>121.8</ele>
        <time>2014-12-07T11:02:24Z</time>
      </trkpt>
      <trkpt lat="41.249714" lon="1.487437">
        <ele>121.8</ele>
        <time>2014-12-07T11:02:26Z</time>
      </trkpt>
      <trkpt lat="41.249722" lon="1.487658">
        <ele>121.8</ele>
        <time>2014-12-07T11:02:30Z</time>
      </trkpt>
      <trkpt lat="41.249748" lon="1.487829">
        <ele>121.8</ele>
        <time>2014-12-07T11:02:34Z</time>
      </trkpt>
      <trkpt lat="41.249660" lon="1.487924">
        <ele>121.8</ele>
        <time>2014-12-07T11:02:37Z</time>
      </trkpt>
      <trkpt lat="41.249569" lon="1.487963">
        <ele>121.8</ele>
        <time>2014-12-07T11:02:39Z</time>
      </trkpt>
      <trkpt lat="41.249470" lon="1.488013">
        <ele>121.8</ele>
        <time>2014-12-07T11:02:41Z</time>
      </trkpt>
      <trkpt lat="41.249298" lon="1.488192">
        <ele>121.8</ele>
        <time>2014-12-07T11:02:45Z</time>
      </trkpt>
      <trkpt lat="41.249207" lon="1.488272">
        <ele>121.8</ele>
        <time>2014-12-07T11:02:47Z</time>
      </trkpt>
      <trkpt lat="41.249073" lon="1.488377">
        <ele>121.8</ele>
        <time>2014-12-07T11:02:50Z</time>
      </trkpt>
      <trkpt lat="41.249031" lon="1.488404">
        <ele>121.8</ele>
        <time>2014-12-07T11:02:51Z</time>
      </trkpt>
      <trkpt lat="41.248920" lon="1.488432">
        <ele>121.8</ele>
        <time>2014-12-07T11:02:54Z</time>
      </trkpt>
      <trkpt lat="41.248878" lon="1.488425">
        <ele>121.8</ele>
        <time>2014-12-07T11:02:55Z</time>
      </trkpt>
      <trkpt lat="41.248833" lon="1.488411">
        <ele>121.8</ele>
        <time>2014-12-07T11:02:56Z</time>
      </trkpt>
      <trkpt lat="41.248665" lon="1.488341">
        <ele>121.8</ele>
        <time>2014-12-07T11:03:00Z</time>
      </trkpt>
      <trkpt lat="41.248535" lon="1.488387">
        <ele>121.8</ele>
        <time>2014-12-07T11:03:03Z</time>
      </trkpt>
      <trkpt lat="41.248493" lon="1.488416">
        <ele>121.8</ele>
        <time>2014-12-07T11:03:04Z</time>
      </trkpt>
      <trkpt lat="41.248444" lon="1.488437">
        <ele>121.8</ele>
        <time>2014-12-07T11:03:05Z</time>
      </trkpt>
      <trkpt lat="41.248344" lon="1.488477">
        <ele>121.8</ele>
        <time>2014-12-07T11:03:07Z</time>
      </trkpt>
      <trkpt lat="41.248280" lon="1.488562">
        <ele>121.2</ele>
        <time>2014-12-07T11:03:09Z</time>
      </trkpt>
      <trkpt lat="41.248264" lon="1.488617">
        <ele>120.8</ele>
        <time>2014-12-07T11:03:10Z</time>
      </trkpt>
      <trkpt lat="41.248245" lon="1.488678">
        <ele>120.4</ele>
        <time>2014-12-07T11:03:11Z</time>
      </trkpt>
      <trkpt lat="41.248222" lon="1.488738">
        <ele>119.8</ele>
        <time>2014-12-07T11:03:12Z</time>
      </trkpt>
      <trkpt lat="41.248203" lon="1.488777">
        <ele>119.4</ele>
        <time>2014-12-07T11:03:13Z</time>
      </trkpt>
      <trkpt lat="41.248180" lon="1.488798">
        <ele>119.4</ele>
        <time>2014-12-07T11:03:14Z</time>
      </trkpt>
      <trkpt lat="41.248150" lon="1.488798">
        <ele>119.0</ele>
        <time>2014-12-07T11:03:15Z</time>
      </trkpt>
      <trkpt lat="41.248127" lon="1.488783">
        <ele>118.4</ele>
        <time>2014-12-07T11:03:16Z</time>
      </trkpt>
      <trkpt lat="41.248100" lon="1.488756">
        <ele>118.0</ele>
        <time>2014-12-07T11:03:17Z</time>
      </trkpt>
      <trkpt lat="41.248066" lon="1.488728">
        <ele>117.6</ele>
        <time>2014-12-07T11:03:18Z</time>
      </trkpt>
      <trkpt lat="41.248016" lon="1.488712">
        <ele>117.2</ele>
        <time>2014-12-07T11:03:19Z</time>
      </trkpt>
      <trkpt lat="41.247959" lon="1.488701">
        <ele>116.8</ele>
        <time>2014-12-07T11:03:20Z</time>
      </trkpt>
      <trkpt lat="41.247902" lon="1.488693">
        <ele>116.2</ele>
        <time>2014-12-07T11:03:21Z</time>
      </trkpt>
      <trkpt lat="41.247833" lon="1.488682">
        <ele>115.8</ele>
        <time>2014-12-07T11:03:22Z</time>
      </trkpt>
      <trkpt lat="41.247768" lon="1.488669">
        <ele>115.4</ele>
        <time>2014-12-07T11:03:23Z</time>
      </trkpt>
      <trkpt lat="41.247700" lon="1.488657">
        <ele>114.8</ele>
        <time>2014-12-07T11:03:24Z</time>
      </trkpt>
      <trkpt lat="41.247631" lon="1.488641">
        <ele>114.2</ele>
        <time>2014-12-07T11:03:25Z</time>
      </trkpt>
      <trkpt lat="41.247562" lon="1.488627">
        <ele>112.8</ele>
        <time>2014-12-07T11:03:26Z</time>
      </trkpt>
      <trkpt lat="41.247494" lon="1.488616">
        <ele>112.2</ele>
        <time>2014-12-07T11:03:27Z</time>
      </trkpt>
      <trkpt lat="41.247356" lon="1.488592">
        <ele>112.2</ele>
        <time>2014-12-07T11:03:29Z</time>
      </trkpt>
      <trkpt lat="41.247223" lon="1.488611">
        <ele>112.2</ele>
        <time>2014-12-07T11:03:31Z</time>
      </trkpt>
      <trkpt lat="41.247105" lon="1.488645">
        <ele>111.8</ele>
        <time>2014-12-07T11:03:33Z</time>
      </trkpt>
      <trkpt lat="41.247044" lon="1.488652">
        <ele>111.4</ele>
        <time>2014-12-07T11:03:34Z</time>
      </trkpt>
      <trkpt lat="41.246986" lon="1.488641">
        <ele>111.0</ele>
        <time>2014-12-07T11:03:35Z</time>
      </trkpt>
      <trkpt lat="41.246933" lon="1.488624">
        <ele>110.4</ele>
        <time>2014-12-07T11:03:36Z</time>
      </trkpt>
      <trkpt lat="41.246880" lon="1.488603">
        <ele>110.0</ele>
        <time>2014-12-07T11:03:37Z</time>
      </trkpt>
      <trkpt lat="41.246773" lon="1.488544">
        <ele>110.0</ele>
        <time>2014-12-07T11:03:39Z</time>
      </trkpt>
      <trkpt lat="41.246716" lon="1.488519">
        <ele>110.0</ele>
        <time>2014-12-07T11:03:40Z</time>
      </trkpt>
      <trkpt lat="41.246548" lon="1.488468">
        <ele>110.0</ele>
        <time>2014-12-07T11:03:44Z</time>
      </trkpt>
      <trkpt lat="41.246525" lon="1.488622">
        <ele>110.0</ele>
        <time>2014-12-07T11:03:47Z</time>
      </trkpt>
      <trkpt lat="41.246506" lon="1.488861">
        <ele>110.0</ele>
        <time>2014-12-07T11:03:50Z</time>
      </trkpt>
      <trkpt lat="41.246498" lon="1.488951">
        <ele>110.0</ele>
        <time>2014-12-07T11:03:51Z</time>
      </trkpt>
      <trkpt lat="41.246449" lon="1.489345">
        <ele>109.6</ele>
        <time>2014-12-07T11:03:55Z</time>
      </trkpt>
      <trkpt lat="41.246429" lon="1.489434">
        <ele>109.2</ele>
        <time>2014-12-07T11:03:56Z</time>
      </trkpt>
      <trkpt lat="41.246418" lon="1.489520">
        <ele>108.6</ele>
        <time>2014-12-07T11:03:57Z</time>
      </trkpt>
      <trkpt lat="41.246414" lon="1.489609">
        <ele>108.2</ele>
        <time>2014-12-07T11:03:58Z</time>
      </trkpt>
      <trkpt lat="41.246414" lon="1.489706">
        <ele>107.8</ele>
        <time>2014-12-07T11:03:59Z</time>
      </trkpt>
      <trkpt lat="41.246414" lon="1.489812">
        <ele>107.2</ele>
        <time>2014-12-07T11:04:00Z</time>
      </trkpt>
      <trkpt lat="41.246414" lon="1.489916">
        <ele>106.8</ele>
        <time>2014-12-07T11:04:01Z</time>
      </trkpt>
      <trkpt lat="41.246410" lon="1.490019">
        <ele>106.4</ele>
        <time>2014-12-07T11:04:02Z</time>
      </trkpt>
      <trkpt lat="41.246422" lon="1.490122">
        <ele>106.0</ele>
        <time>2014-12-07T11:04:03Z</time>
      </trkpt>
      <trkpt lat="41.246449" lon="1.490215">
        <ele>105.6</ele>
        <time>2014-12-07T11:04:04Z</time>
      </trkpt>
      <trkpt lat="41.246498" lon="1.490285">
        <ele>105.0</ele>
        <time>2014-12-07T11:04:05Z</time>
      </trkpt>
      <trkpt lat="41.246555" lon="1.490326">
        <ele>104.6</ele>
        <time>2014-12-07T11:04:06Z</time>
      </trkpt>
      <trkpt lat="41.246620" lon="1.490344">
        <ele>104.2</ele>
        <time>2014-12-07T11:04:07Z</time>
      </trkpt>
      <trkpt lat="41.246681" lon="1.490359">
        <ele>103.4</ele>
        <time>2014-12-07T11:04:08Z</time>
      </trkpt>
      <trkpt lat="41.246738" lon="1.490386">
        <ele>102.8</ele>
        <time>2014-12-07T11:04:09Z</time>
      </trkpt>
      <trkpt lat="41.246780" lon="1.490430">
        <ele>102.2</ele>
        <time>2014-12-07T11:04:10Z</time>
      </trkpt>
      <trkpt lat="41.246799" lon="1.490488">
        <ele>101.6</ele>
        <time>2014-12-07T11:04:11Z</time>
      </trkpt>
      <trkpt lat="41.246811" lon="1.490557">
        <ele>100.8</ele>
        <time>2014-12-07T11:04:12Z</time>
      </trkpt>
      <trkpt lat="41.246819" lon="1.490632">
        <ele>100.4</ele>
        <time>2014-12-07T11:04:13Z</time>
      </trkpt>
      <trkpt lat="41.246830" lon="1.490704">
        <ele>100.0</ele>
        <time>2014-12-07T11:04:14Z</time>
      </trkpt>
      <trkpt lat="41.246841" lon="1.490779">
        <ele>99.4</ele>
        <time>2014-12-07T11:04:15Z</time>
      </trkpt>
      <trkpt lat="41.246864" lon="1.490845">
        <ele>98.6</ele>
        <time>2014-12-07T11:04:16Z</time>
      </trkpt>
      <trkpt lat="41.246914" lon="1.490973">
        <ele>98.2</ele>
        <time>2014-12-07T11:04:18Z</time>
      </trkpt>
      <trkpt lat="41.246937" lon="1.491040">
        <ele>97.8</ele>
        <time>2014-12-07T11:04:19Z</time>
      </trkpt>
      <trkpt lat="41.246956" lon="1.491106">
        <ele>97.2</ele>
        <time>2014-12-07T11:04:20Z</time>
      </trkpt>
      <trkpt lat="41.246983" lon="1.491175">
        <ele>96.8</ele>
        <time>2014-12-07T11:04:21Z</time>
      </trkpt>
      <trkpt lat="41.247005" lon="1.491246">
        <ele>96.4</ele>
        <time>2014-12-07T11:04:22Z</time>
      </trkpt>
      <trkpt lat="41.247070" lon="1.491467">
        <ele>96.4</ele>
        <time>2014-12-07T11:04:25Z</time>
      </trkpt>
      <trkpt lat="41.247078" lon="1.491544">
        <ele>96.4</ele>
        <time>2014-12-07T11:04:26Z</time>
      </trkpt>
      <trkpt lat="41.247051" lon="1.491770">
        <ele>96.4</ele>
        <time>2014-12-07T11:04:29Z</time>
      </trkpt>
      <trkpt lat="41.247055" lon="1.491847">
        <ele>96.4</ele>
        <time>2014-12-07T11:04:30Z</time>
      </trkpt>
      <trkpt lat="41.247120" lon="1.492069">
        <ele>96.4</ele>
        <time>2014-12-07T11:04:33Z</time>
      </trkpt>
      <trkpt lat="41.247139" lon="1.492141">
        <ele>96.4</ele>
        <time>2014-12-07T11:04:34Z</time>
      </trkpt>
      <trkpt lat="41.247162" lon="1.492346">
        <ele>96.4</ele>
        <time>2014-12-07T11:04:37Z</time>
      </trkpt>
      <trkpt lat="41.247154" lon="1.492405">
        <ele>96.4</ele>
        <time>2014-12-07T11:04:38Z</time>
      </trkpt>
      <trkpt lat="41.247200" lon="1.492481">
        <ele>96.4</ele>
        <time>2014-12-07T11:04:40Z</time>
      </trkpt>
      <trkpt lat="41.247322" lon="1.492571">
        <ele>96.0</ele>
        <time>2014-12-07T11:04:43Z</time>
      </trkpt>
      <trkpt lat="41.247345" lon="1.492625">
        <ele>95.6</ele>
        <time>2014-12-07T11:04:44Z</time>
      </trkpt>
      <trkpt lat="41.247360" lon="1.492691">
        <ele>95.2</ele>
        <time>2014-12-07T11:04:45Z</time>
      </trkpt>
      <trkpt lat="41.247368" lon="1.492757">
        <ele>94.8</ele>
        <time>2014-12-07T11:04:46Z</time>
      </trkpt>
      <trkpt lat="41.247379" lon="1.492820">
        <ele>94.4</ele>
        <time>2014-12-07T11:04:47Z</time>
      </trkpt>
      <trkpt lat="41.247402" lon="1.493016">
        <ele>93.8</ele>
        <time>2014-12-07T11:04:51Z</time>
      </trkpt>
      <trkpt lat="41.247406" lon="1.493054">
        <ele>93.4</ele>
        <time>2014-12-07T11:04:52Z</time>
      </trkpt>
      <trkpt lat="41.247406" lon="1.493101">
        <ele>93.0</ele>
        <time>2014-12-07T11:04:53Z</time>
      </trkpt>
      <trkpt lat="41.247410" lon="1.493147">
        <ele>92.4</ele>
        <time>2014-12-07T11:04:54Z</time>
      </trkpt>
      <trkpt lat="41.247414" lon="1.493193">
        <ele>92.0</ele>
        <time>2014-12-07T11:04:55Z</time>
      </trkpt>
      <trkpt lat="41.247417" lon="1.493236">
        <ele>92.0</ele>
        <time>2014-12-07T11:04:56Z</time>
      </trkpt>
      <trkpt lat="41.247414" lon="1.493302">
        <ele>91.6</ele>
        <time>2014-12-07T11:04:58Z</time>
      </trkpt>
      <trkpt lat="41.247414" lon="1.493337">
        <ele>91.2</ele>
        <time>2014-12-07T11:04:59Z</time>
      </trkpt>
      <trkpt lat="41.247414" lon="1.493378">
        <ele>90.6</ele>
        <time>2014-12-07T11:05:00Z</time>
      </trkpt>
      <trkpt lat="41.247410" lon="1.493422">
        <ele>90.2</ele>
        <time>2014-12-07T11:05:01Z</time>
      </trkpt>
      <trkpt lat="41.247410" lon="1.493460">
        <ele>89.8</ele>
        <time>2014-12-07T11:05:02Z</time>
      </trkpt>
      <trkpt lat="41.247421" lon="1.493643">
        <ele>89.8</ele>
        <time>2014-12-07T11:05:06Z</time>
      </trkpt>
      <trkpt lat="41.247425" lon="1.493682">
        <ele>89.4</ele>
        <time>2014-12-07T11:05:07Z</time>
      </trkpt>
      <trkpt lat="41.247433" lon="1.493724">
        <ele>89.0</ele>
        <time>2014-12-07T11:05:08Z</time>
      </trkpt>
      <trkpt lat="41.247444" lon="1.493768">
        <ele>88.4</ele>
        <time>2014-12-07T11:05:09Z</time>
      </trkpt>
      <trkpt lat="41.247456" lon="1.493816">
        <ele>88.0</ele>
        <time>2014-12-07T11:05:10Z</time>
      </trkpt>
      <trkpt lat="41.247467" lon="1.493862">
        <ele>87.6</ele>
        <time>2014-12-07T11:05:11Z</time>
      </trkpt>
      <trkpt lat="41.247475" lon="1.493907">
        <ele>87.6</ele>
        <time>2014-12-07T11:05:12Z</time>
      </trkpt>
      <trkpt lat="41.247486" lon="1.493960">
        <ele>87.2</ele>
        <time>2014-12-07T11:05:14Z</time>
      </trkpt>
      <trkpt lat="41.247494" lon="1.493969">
        <ele>86.8</ele>
        <time>2014-12-07T11:05:15Z</time>
      </trkpt>
      <trkpt lat="41.247498" lon="1.493972">
        <ele>86.4</ele>
        <time>2014-12-07T11:05:16Z</time>
      </trkpt>
      <trkpt lat="41.247498" lon="1.493985">
        <ele>85.6</ele>
        <time>2014-12-07T11:06:04Z</time>
      </trkpt>
      <trkpt lat="41.247505" lon="1.494029">
        <ele>85.6</ele>
        <time>2014-12-07T11:06:06Z</time>
      </trkpt>
      <trkpt lat="41.247551" lon="1.494262">
        <ele>85.6</ele>
        <time>2014-12-07T11:06:11Z</time>
      </trkpt>
      <trkpt lat="41.247581" lon="1.494480">
        <ele>85.6</ele>
        <time>2014-12-07T11:06:16Z</time>
      </trkpt>
      <trkpt lat="41.247597" lon="1.494540">
        <ele>85.6</ele>
        <time>2014-12-07T11:06:19Z</time>
      </trkpt>
      <trkpt lat="41.247604" lon="1.494581">
        <ele>85.6</ele>
        <time>2014-12-07T11:18:19Z</time>
      </trkpt>
      <trkpt lat="41.247604" lon="1.494708">
        <ele>85.6</ele>
        <time>2014-12-07T11:18:23Z</time>
      </trkpt>
      <trkpt lat="41.247616" lon="1.494895">
        <ele>85.6</ele>
        <time>2014-12-07T11:18:27Z</time>
      </trkpt>
      <trkpt lat="41.247631" lon="1.495022">
        <ele>85.6</ele>
        <time>2014-12-07T11:18:29Z</time>
      </trkpt>
      <trkpt lat="41.247643" lon="1.495135">
        <ele>85.6</ele>
        <time>2014-12-07T11:18:31Z</time>
      </trkpt>
      <trkpt lat="41.247646" lon="1.495191">
        <ele>85.6</ele>
        <time>2014-12-07T11:18:32Z</time>
      </trkpt>
      <trkpt lat="41.247677" lon="1.495565">
        <ele>85.6</ele>
        <time>2014-12-07T11:18:38Z</time>
      </trkpt>
      <trkpt lat="41.247677" lon="1.495626">
        <ele>85.2</ele>
        <time>2014-12-07T11:18:39Z</time>
      </trkpt>
      <trkpt lat="41.247681" lon="1.495685">
        <ele>84.8</ele>
        <time>2014-12-07T11:18:40Z</time>
      </trkpt>
      <trkpt lat="41.247684" lon="1.495742">
        <ele>84.2</ele>
        <time>2014-12-07T11:18:41Z</time>
      </trkpt>
      <trkpt lat="41.247692" lon="1.495798">
        <ele>83.4</ele>
        <time>2014-12-07T11:18:42Z</time>
      </trkpt>
      <trkpt lat="41.247700" lon="1.495844">
        <ele>83.4</ele>
        <time>2014-12-07T11:18:43Z</time>
      </trkpt>
      <trkpt lat="41.247704" lon="1.495964">
        <ele>83.0</ele>
        <time>2014-12-07T11:18:47Z</time>
      </trkpt>
      <trkpt lat="41.247707" lon="1.495992">
        <ele>82.6</ele>
        <time>2014-12-07T11:18:48Z</time>
      </trkpt>
      <trkpt lat="41.247711" lon="1.496024">
        <ele>82.2</ele>
        <time>2014-12-07T11:18:49Z</time>
      </trkpt>
      <trkpt lat="41.247719" lon="1.496052">
        <ele>81.6</ele>
        <time>2014-12-07T11:18:50Z</time>
      </trkpt>
      <trkpt lat="41.247726" lon="1.496089">
        <ele>81.2</ele>
        <time>2014-12-07T11:18:51Z</time>
      </trkpt>
      <trkpt lat="41.247730" lon="1.496174">
        <ele>81.2</ele>
        <time>2014-12-07T11:18:53Z</time>
      </trkpt>
      <trkpt lat="41.247784" lon="1.496477">
        <ele>81.2</ele>
        <time>2014-12-07T11:19:00Z</time>
      </trkpt>
      <trkpt lat="41.247833" lon="1.496627">
        <ele>80.8</ele>
        <time>2014-12-07T11:19:03Z</time>
      </trkpt>
      <trkpt lat="41.247849" lon="1.496674">
        <ele>80.4</ele>
        <time>2014-12-07T11:19:04Z</time>
      </trkpt>
      <trkpt lat="41.247856" lon="1.496721">
        <ele>80.0</ele>
        <time>2014-12-07T11:19:05Z</time>
      </trkpt>
      <trkpt lat="41.247871" lon="1.496771">
        <ele>79.6</ele>
        <time>2014-12-07T11:19:06Z</time>
      </trkpt>
      <trkpt lat="41.247879" lon="1.496829">
        <ele>79.2</ele>
        <time>2014-12-07T11:19:07Z</time>
      </trkpt>
      <trkpt lat="41.247898" lon="1.496958">
        <ele>79.2</ele>
        <time>2014-12-07T11:19:09Z</time>
      </trkpt>
      <trkpt lat="41.247910" lon="1.497018">
        <ele>79.2</ele>
        <time>2014-12-07T11:19:10Z</time>
      </trkpt>
      <trkpt lat="41.247955" lon="1.497291">
        <ele>79.2</ele>
        <time>2014-12-07T11:19:14Z</time>
      </trkpt>
      <trkpt lat="41.247955" lon="1.497358">
        <ele>78.8</ele>
        <time>2014-12-07T11:19:15Z</time>
      </trkpt>
      <trkpt lat="41.247971" lon="1.497421">
        <ele>78.4</ele>
        <time>2014-12-07T11:19:16Z</time>
      </trkpt>
      <trkpt lat="41.247978" lon="1.497477">
        <ele>77.8</ele>
        <time>2014-12-07T11:19:17Z</time>
      </trkpt>
      <trkpt lat="41.247993" lon="1.497532">
        <ele>77.4</ele>
        <time>2014-12-07T11:19:18Z</time>
      </trkpt>
      <trkpt lat="41.248005" lon="1.497586">
        <ele>77.0</ele>
        <time>2014-12-07T11:19:19Z</time>
      </trkpt>
      <trkpt lat="41.248055" lon="1.497737">
        <ele>77.0</ele>
        <time>2014-12-07T11:19:22Z</time>
      </trkpt>
      <trkpt lat="41.248085" lon="1.497852">
        <ele>77.0</ele>
        <time>2014-12-07T11:19:24Z</time>
      </trkpt>
      <trkpt lat="41.248104" lon="1.497910">
        <ele>77.0</ele>
        <time>2014-12-07T11:19:25Z</time>
      </trkpt>
      <trkpt lat="41.248192" lon="1.498178">
        <ele>76.6</ele>
        <time>2014-12-07T11:19:29Z</time>
      </trkpt>
      <trkpt lat="41.248211" lon="1.498245">
        <ele>76.2</ele>
        <time>2014-12-07T11:19:30Z</time>
      </trkpt>
      <trkpt lat="41.248230" lon="1.498315">
        <ele>75.2</ele>
        <time>2014-12-07T11:19:31Z</time>
      </trkpt>
      <trkpt lat="41.248253" lon="1.498385">
        <ele>74.8</ele>
        <time>2014-12-07T11:19:32Z</time>
      </trkpt>
      <trkpt lat="41.248337" lon="1.498642">
        <ele>74.8</ele>
        <time>2014-12-07T11:19:36Z</time>
      </trkpt>
      <trkpt lat="41.248394" lon="1.498950">
        <ele>74.8</ele>
        <time>2014-12-07T11:19:41Z</time>
      </trkpt>
      <trkpt lat="41.248409" lon="1.499013">
        <ele>74.8</ele>
        <time>2014-12-07T11:19:42Z</time>
      </trkpt>
      <trkpt lat="41.248436" lon="1.499147">
        <ele>74.8</ele>
        <time>2014-12-07T11:19:44Z</time>
      </trkpt>
      <trkpt lat="41.248455" lon="1.499286">
        <ele>74.2</ele>
        <time>2014-12-07T11:19:46Z</time>
      </trkpt>
      <trkpt lat="41.248463" lon="1.499354">
        <ele>73.8</ele>
        <time>2014-12-07T11:19:47Z</time>
      </trkpt>
      <trkpt lat="41.248478" lon="1.499424">
        <ele>73.4</ele>
        <time>2014-12-07T11:19:48Z</time>
      </trkpt>
      <trkpt lat="41.248489" lon="1.499492">
        <ele>73.0</ele>
        <time>2014-12-07T11:19:49Z</time>
      </trkpt>
      <trkpt lat="41.248497" lon="1.499569">
        <ele>72.6</ele>
        <time>2014-12-07T11:19:50Z</time>
      </trkpt>
      <trkpt lat="41.248550" lon="1.499765">
        <ele>72.6</ele>
        <time>2014-12-07T11:19:53Z</time>
      </trkpt>
      <trkpt lat="41.248581" lon="1.499887">
        <ele>72.6</ele>
        <time>2014-12-07T11:19:55Z</time>
      </trkpt>
      <trkpt lat="41.248589" lon="1.499949">
        <ele>72.0</ele>
        <time>2014-12-07T11:19:56Z</time>
      </trkpt>
      <trkpt lat="41.248604" lon="1.500020">
        <ele>71.6</ele>
        <time>2014-12-07T11:19:57Z</time>
      </trkpt>
      <trkpt lat="41.248615" lon="1.500088">
        <ele>71.0</ele>
        <time>2014-12-07T11:19:58Z</time>
      </trkpt>
      <trkpt lat="41.248634" lon="1.500157">
        <ele>70.6</ele>
        <time>2014-12-07T11:19:59Z</time>
      </trkpt>
      <trkpt lat="41.248661" lon="1.500229">
        <ele>70.2</ele>
        <time>2014-12-07T11:20:00Z</time>
      </trkpt>
      <trkpt lat="41.248718" lon="1.500409">
        <ele>70.2</ele>
        <time>2014-12-07T11:20:03Z</time>
      </trkpt>
      <trkpt lat="41.248734" lon="1.500549">
        <ele>70.2</ele>
        <time>2014-12-07T11:20:05Z</time>
      </trkpt>
      <trkpt lat="41.248734" lon="1.500618">
        <ele>69.6</ele>
        <time>2014-12-07T11:20:06Z</time>
      </trkpt>
      <trkpt lat="41.248734" lon="1.500688">
        <ele>69.2</ele>
        <time>2014-12-07T11:20:07Z</time>
      </trkpt>
      <trkpt lat="41.248734" lon="1.500760">
        <ele>68.8</ele>
        <time>2014-12-07T11:20:08Z</time>
      </trkpt>
      <trkpt lat="41.248726" lon="1.500836">
        <ele>68.4</ele>
        <time>2014-12-07T11:20:09Z</time>
      </trkpt>
      <trkpt lat="41.248711" lon="1.500909">
        <ele>68.0</ele>
        <time>2014-12-07T11:20:10Z</time>
      </trkpt>
      <trkpt lat="41.248699" lon="1.501071">
        <ele>67.6</ele>
        <time>2014-12-07T11:20:12Z</time>
      </trkpt>
      <trkpt lat="41.248699" lon="1.501154">
        <ele>67.2</ele>
        <time>2014-12-07T11:20:13Z</time>
      </trkpt>
      <trkpt lat="41.248707" lon="1.501234">
        <ele>66.8</ele>
        <time>2014-12-07T11:20:14Z</time>
      </trkpt>
      <trkpt lat="41.248714" lon="1.501315">
        <ele>66.4</ele>
        <time>2014-12-07T11:20:15Z</time>
      </trkpt>
      <trkpt lat="41.248726" lon="1.501395">
        <ele>66.0</ele>
        <time>2014-12-07T11:20:16Z</time>
      </trkpt>
      <trkpt lat="41.248730" lon="1.501475">
        <ele>66.0</ele>
        <time>2014-12-07T11:20:17Z</time>
      </trkpt>
      <trkpt lat="41.248741" lon="1.501629">
        <ele>66.0</ele>
        <time>2014-12-07T11:20:19Z</time>
      </trkpt>
      <trkpt lat="41.248791" lon="1.501774">
        <ele>66.0</ele>
        <time>2014-12-07T11:20:21Z</time>
      </trkpt>
      <trkpt lat="41.248852" lon="1.501904">
        <ele>66.0</ele>
        <time>2014-12-07T11:20:23Z</time>
      </trkpt>
      <trkpt lat="41.248863" lon="1.501953">
        <ele>66.0</ele>
        <time>2014-12-07T11:20:24Z</time>
      </trkpt>
      <trkpt lat="41.248859" lon="1.501999">
        <ele>65.4</ele>
        <time>2014-12-07T11:20:25Z</time>
      </trkpt>
      <trkpt lat="41.248844" lon="1.502040">
        <ele>65.0</ele>
        <time>2014-12-07T11:20:26Z</time>
      </trkpt>
      <trkpt lat="41.248814" lon="1.502065">
        <ele>64.4</ele>
        <time>2014-12-07T11:20:27Z</time>
      </trkpt>
      <trkpt lat="41.248779" lon="1.502069">
        <ele>64.0</ele>
        <time>2014-12-07T11:20:28Z</time>
      </trkpt>
      <trkpt lat="41.248737" lon="1.502065">
        <ele>63.4</ele>
        <time>2014-12-07T11:20:29Z</time>
      </trkpt>
      <trkpt lat="41.248608" lon="1.502072">
        <ele>63.4</ele>
        <time>2014-12-07T11:20:32Z</time>
      </trkpt>
      <trkpt lat="41.248562" lon="1.502072">
        <ele>63.4</ele>
        <time>2014-12-07T11:20:33Z</time>
      </trkpt>
      <trkpt lat="41.248516" lon="1.502062">
        <ele>63.4</ele>
        <time>2014-12-07T11:20:34Z</time>
      </trkpt>
      <trkpt lat="41.248363" lon="1.502041">
        <ele>63.4</ele>
        <time>2014-12-07T11:20:37Z</time>
      </trkpt>
      <trkpt lat="41.248161" lon="1.502054">
        <ele>63.4</ele>
        <time>2014-12-07T11:20:41Z</time>
      </trkpt>
      <trkpt lat="41.248116" lon="1.502092">
        <ele>63.4</ele>
        <time>2014-12-07T11:20:42Z</time>
      </trkpt>
      <trkpt lat="41.247990" lon="1.502313">
        <ele>63.4</ele>
        <time>2014-12-07T11:20:46Z</time>
      </trkpt>
      <trkpt lat="41.247936" lon="1.502433">
        <ele>63.4</ele>
        <time>2014-12-07T11:20:48Z</time>
      </trkpt>
      <trkpt lat="41.247875" lon="1.502532">
        <ele>63.4</ele>
        <time>2014-12-07T11:20:50Z</time>
      </trkpt>
      <trkpt lat="41.247833" lon="1.502549">
        <ele>63.4</ele>
        <time>2014-12-07T11:20:51Z</time>
      </trkpt>
      <trkpt lat="41.247707" lon="1.502537">
        <ele>63.4</ele>
        <time>2014-12-07T11:20:54Z</time>
      </trkpt>
      <trkpt lat="41.247669" lon="1.502526">
        <ele>63.4</ele>
        <time>2014-12-07T11:20:55Z</time>
      </trkpt>
      <trkpt lat="41.247578" lon="1.502489">
        <ele>63.4</ele>
        <time>2014-12-07T11:20:57Z</time>
      </trkpt>
      <trkpt lat="41.247398" lon="1.502429">
        <ele>63.4</ele>
        <time>2014-12-07T11:21:01Z</time>
      </trkpt>
      <trkpt lat="41.247269" lon="1.502414">
        <ele>63.4</ele>
        <time>2014-12-07T11:21:04Z</time>
      </trkpt>
      <trkpt lat="41.247223" lon="1.502396">
        <ele>63.4</ele>
        <time>2014-12-07T11:21:05Z</time>
      </trkpt>
      <trkpt lat="41.247143" lon="1.502378">
        <ele>63.4</ele>
        <time>2014-12-07T11:21:07Z</time>
      </trkpt>
      <trkpt lat="41.247086" lon="1.502444">
        <ele>63.4</ele>
        <time>2014-12-07T11:21:09Z</time>
      </trkpt>
      <trkpt lat="41.247009" lon="1.502510">
        <ele>63.4</ele>
        <time>2014-12-07T11:21:12Z</time>
      </trkpt>
      <trkpt lat="41.246986" lon="1.502532">
        <ele>63.4</ele>
        <time>2014-12-07T11:21:13Z</time>
      </trkpt>
      <trkpt lat="41.246964" lon="1.502609">
        <ele>63.4</ele>
        <time>2014-12-07T11:21:15Z</time>
      </trkpt>
      <trkpt lat="41.246967" lon="1.502658">
        <ele>63.4</ele>
        <time>2014-12-07T11:21:16Z</time>
      </trkpt>
      <trkpt lat="41.246986" lon="1.502977">
        <ele>63.4</ele>
        <time>2014-12-07T11:21:21Z</time>
      </trkpt>
      <trkpt lat="41.246983" lon="1.503179">
        <ele>63.4</ele>
        <time>2014-12-07T11:21:24Z</time>
      </trkpt>
      <trkpt lat="41.246944" lon="1.503317">
        <ele>63.4</ele>
        <time>2014-12-07T11:21:26Z</time>
      </trkpt>
      <trkpt lat="41.246925" lon="1.503384">
        <ele>63.4</ele>
        <time>2014-12-07T11:21:27Z</time>
      </trkpt>
      <trkpt lat="41.246910" lon="1.503458">
        <ele>63.0</ele>
        <time>2014-12-07T11:21:28Z</time>
      </trkpt>
      <trkpt lat="41.246891" lon="1.503527">
        <ele>62.6</ele>
        <time>2014-12-07T11:21:29Z</time>
      </trkpt>
      <trkpt lat="41.246876" lon="1.503595">
        <ele>62.2</ele>
        <time>2014-12-07T11:21:30Z</time>
      </trkpt>
      <trkpt lat="41.246861" lon="1.503664">
        <ele>61.8</ele>
        <time>2014-12-07T11:21:31Z</time>
      </trkpt>
      <trkpt lat="41.246841" lon="1.503734">
        <ele>61.4</ele>
        <time>2014-12-07T11:21:32Z</time>
      </trkpt>
      <trkpt lat="41.246819" lon="1.503882">
        <ele>61.4</ele>
        <time>2014-12-07T11:21:34Z</time>
      </trkpt>
      <trkpt lat="41.246834" lon="1.504165">
        <ele>61.4</ele>
        <time>2014-12-07T11:21:38Z</time>
      </trkpt>
      <trkpt lat="41.246880" lon="1.504182">
        <ele>61.4</ele>
        <time>2014-12-07T11:21:41Z</time>
      </trkpt>
      <trkpt lat="41.246853" lon="1.504125">
        <ele>61.4</ele>
        <time>2014-12-07T11:21:44Z</time>
      </trkpt>
      <trkpt lat="41.246769" lon="1.504049">
        <ele>61.4</ele>
        <time>2014-12-07T11:21:48Z</time>
      </trkpt>
      <trkpt lat="41.246727" lon="1.503993">
        <ele>61.4</ele>
        <time>2014-12-07T11:21:49Z</time>
      </trkpt>
      <trkpt lat="41.246651" lon="1.503869">
        <ele>61.0</ele>
        <time>2014-12-07T11:21:51Z</time>
      </trkpt>
      <trkpt lat="41.246609" lon="1.503793">
        <ele>60.6</ele>
        <time>2014-12-07T11:21:52Z</time>
      </trkpt>
      <trkpt lat="41.246559" lon="1.503720">
        <ele>60.2</ele>
        <time>2014-12-07T11:21:53Z</time>
      </trkpt>
      <trkpt lat="41.246510" lon="1.503660">
        <ele>59.8</ele>
        <time>2014-12-07T11:21:54Z</time>
      </trkpt>
      <trkpt lat="41.246452" lon="1.503592">
        <ele>59.2</ele>
        <time>2014-12-07T11:21:55Z</time>
      </trkpt>
      <trkpt lat="41.246384" lon="1.503531">
        <ele>58.6</ele>
        <time>2014-12-07T11:21:56Z</time>
      </trkpt>
      <trkpt lat="41.246311" lon="1.503466">
        <ele>58.2</ele>
        <time>2014-12-07T11:21:57Z</time>
      </trkpt>
      <trkpt lat="41.246239" lon="1.503407">
        <ele>57.4</ele>
        <time>2014-12-07T11:21:58Z</time>
      </trkpt>
      <trkpt lat="41.246174" lon="1.503355">
        <ele>55.8</ele>
        <time>2014-12-07T11:21:59Z</time>
      </trkpt>
      <trkpt lat="41.246124" lon="1.503329">
        <ele>55.0</ele>
        <time>2014-12-07T11:22:00Z</time>
      </trkpt>
      <trkpt lat="41.246082" lon="1.503308">
        <ele>54.2</ele>
        <time>2014-12-07T11:22:01Z</time>
      </trkpt>
      <trkpt lat="41.245934" lon="1.503289">
        <ele>54.2</ele>
        <time>2014-12-07T11:22:05Z</time>
      </trkpt>
      <trkpt lat="41.245899" lon="1.503291">
        <ele>54.6</ele>
        <time>2014-12-07T11:22:06Z</time>
      </trkpt>
      <trkpt lat="41.245869" lon="1.503300">
        <ele>55.0</ele>
        <time>2014-12-07T11:22:07Z</time>
      </trkpt>
      <trkpt lat="41.245838" lon="1.503304">
        <ele>55.6</ele>
        <time>2014-12-07T11:22:08Z</time>
      </trkpt>
      <trkpt lat="41.245823" lon="1.503313">
        <ele>56.0</ele>
        <time>2014-12-07T11:22:09Z</time>
      </trkpt>
      <trkpt lat="41.245808" lon="1.503324">
        <ele>56.4</ele>
        <time>2014-12-07T11:22:10Z</time>
      </trkpt>
      <trkpt lat="41.245781" lon="1.503328">
        <ele>57.0</ele>
        <time>2014-12-07T11:22:11Z</time>
      </trkpt>
      <trkpt lat="41.245754" lon="1.503334">
        <ele>57.4</ele>
        <time>2014-12-07T11:22:12Z</time>
      </trkpt>
      <trkpt lat="41.245724" lon="1.503342">
        <ele>58.0</ele>
        <time>2014-12-07T11:22:13Z</time>
      </trkpt>
      <trkpt lat="41.245693" lon="1.503347">
        <ele>58.6</ele>
        <time>2014-12-07T11:22:14Z</time>
      </trkpt>
      <trkpt lat="41.245667" lon="1.503356">
        <ele>59.0</ele>
        <time>2014-12-07T11:22:15Z</time>
      </trkpt>
      <trkpt lat="41.245636" lon="1.503362">
        <ele>59.6</ele>
        <time>2014-12-07T11:22:16Z</time>
      </trkpt>
      <trkpt lat="41.245609" lon="1.503367">
        <ele>60.2</ele>
        <time>2014-12-07T11:22:17Z</time>
      </trkpt>
      <trkpt lat="41.245583" lon="1.503372">
        <ele>60.8</ele>
        <time>2014-12-07T11:22:18Z</time>
      </trkpt>
      <trkpt lat="41.245533" lon="1.503377">
        <ele>60.8</ele>
        <time>2014-12-07T11:22:20Z</time>
      </trkpt>
      <trkpt lat="41.245480" lon="1.503388">
        <ele>61.4</ele>
        <time>2014-12-07T11:22:22Z</time>
      </trkpt>
      <trkpt lat="41.245453" lon="1.503389">
        <ele>61.8</ele>
        <time>2014-12-07T11:22:23Z</time>
      </trkpt>
      <trkpt lat="41.245430" lon="1.503394">
        <ele>62.8</ele>
        <time>2014-12-07T11:22:24Z</time>
      </trkpt>
      <trkpt lat="41.245407" lon="1.503392">
        <ele>63.4</ele>
        <time>2014-12-07T11:22:25Z</time>
      </trkpt>
      <trkpt lat="41.245361" lon="1.503402">
        <ele>63.4</ele>
        <time>2014-12-07T11:22:27Z</time>
      </trkpt>
      <trkpt lat="41.245338" lon="1.503402">
        <ele>63.8</ele>
        <time>2014-12-07T11:22:28Z</time>
      </trkpt>
      <trkpt lat="41.245312" lon="1.503404">
        <ele>64.2</ele>
        <time>2014-12-07T11:22:29Z</time>
      </trkpt>
      <trkpt lat="41.245289" lon="1.503397">
        <ele>64.6</ele>
        <time>2014-12-07T11:22:30Z</time>
      </trkpt>
      <trkpt lat="41.245262" lon="1.503401">
        <ele>65.0</ele>
        <time>2014-12-07T11:22:31Z</time>
      </trkpt>
      <trkpt lat="41.245235" lon="1.503402">
        <ele>65.4</ele>
        <time>2014-12-07T11:22:32Z</time>
      </trkpt>
      <trkpt lat="41.245209" lon="1.503402">
        <ele>65.8</ele>
        <time>2014-12-07T11:22:33Z</time>
      </trkpt>
      <trkpt lat="41.245186" lon="1.503400">
        <ele>66.4</ele>
        <time>2014-12-07T11:22:34Z</time>
      </trkpt>
      <trkpt lat="41.245163" lon="1.503400">
        <ele>66.8</ele>
        <time>2014-12-07T11:22:35Z</time>
      </trkpt>
      <trkpt lat="41.245136" lon="1.503399">
        <ele>67.2</ele>
        <time>2014-12-07T11:22:36Z</time>
      </trkpt>
      <trkpt lat="41.245102" lon="1.503398">
        <ele>67.6</ele>
        <time>2014-12-07T11:22:37Z</time>
      </trkpt>
      <trkpt lat="41.245075" lon="1.503393">
        <ele>68.2</ele>
        <time>2014-12-07T11:22:38Z</time>
      </trkpt>
      <trkpt lat="41.245049" lon="1.503383">
        <ele>68.6</ele>
        <time>2014-12-07T11:22:39Z</time>
      </trkpt>
      <trkpt lat="41.245022" lon="1.503375">
        <ele>69.2</ele>
        <time>2014-12-07T11:22:40Z</time>
      </trkpt>
      <trkpt lat="41.244995" lon="1.503366">
        <ele>69.8</ele>
        <time>2014-12-07T11:22:41Z</time>
      </trkpt>
      <trkpt lat="41.244896" lon="1.503323">
        <ele>69.8</ele>
        <time>2014-12-07T11:22:45Z</time>
      </trkpt>
      <trkpt lat="41.244827" lon="1.503290">
        <ele>70.6</ele>
        <time>2014-12-07T11:22:48Z</time>
      </trkpt>
      <trkpt lat="41.244804" lon="1.503277">
        <ele>71.0</ele>
        <time>2014-12-07T11:22:49Z</time>
      </trkpt>
      <trkpt lat="41.244781" lon="1.503262">
        <ele>71.4</ele>
        <time>2014-12-07T11:22:50Z</time>
      </trkpt>
      <trkpt lat="41.244759" lon="1.503247">
        <ele>71.8</ele>
        <time>2014-12-07T11:22:51Z</time>
      </trkpt>
      <trkpt lat="41.244667" lon="1.503194">
        <ele>71.8</ele>
        <time>2014-12-07T11:22:55Z</time>
      </trkpt>
      <trkpt lat="41.244606" lon="1.503182">
        <ele>72.2</ele>
        <time>2014-12-07T11:22:57Z</time>
      </trkpt>
      <trkpt lat="41.244572" lon="1.503178">
        <ele>72.6</ele>
        <time>2014-12-07T11:22:58Z</time>
      </trkpt>
      <trkpt lat="41.244534" lon="1.503179">
        <ele>73.0</ele>
        <time>2014-12-07T11:22:59Z</time>
      </trkpt>
      <trkpt lat="41.244492" lon="1.503179">
        <ele>73.4</ele>
        <time>2014-12-07T11:23:00Z</time>
      </trkpt>
      <trkpt lat="41.244450" lon="1.503183">
        <ele>73.8</ele>
        <time>2014-12-07T11:23:01Z</time>
      </trkpt>
      <trkpt lat="41.244366" lon="1.503210">
        <ele>73.8</ele>
        <time>2014-12-07T11:23:03Z</time>
      </trkpt>
      <trkpt lat="41.244198" lon="1.503334">
        <ele>73.8</ele>
        <time>2014-12-07T11:23:08Z</time>
      </trkpt>
      <trkpt lat="41.244129" lon="1.503540">
        <ele>73.8</ele>
        <time>2014-12-07T11:23:13Z</time>
      </trkpt>
      <trkpt lat="41.244118" lon="1.503714">
        <ele>74.2</ele>
        <time>2014-12-07T11:23:17Z</time>
      </trkpt>
      <trkpt lat="41.244118" lon="1.503757">
        <ele>74.8</ele>
        <time>2014-12-07T11:23:18Z</time>
      </trkpt>
      <trkpt lat="41.244122" lon="1.503806">
        <ele>75.2</ele>
        <time>2014-12-07T11:23:19Z</time>
      </trkpt>
      <trkpt lat="41.244129" lon="1.503850">
        <ele>75.6</ele>
        <time>2014-12-07T11:23:20Z</time>
      </trkpt>
      <trkpt lat="41.244133" lon="1.503899">
        <ele>76.0</ele>
        <time>2014-12-07T11:23:21Z</time>
      </trkpt>
      <trkpt lat="41.244137" lon="1.503971">
        <ele>76.0</ele>
        <time>2014-12-07T11:23:23Z</time>
      </trkpt>
      <trkpt lat="41.244129" lon="1.504031">
        <ele>76.6</ele>
        <time>2014-12-07T11:23:25Z</time>
      </trkpt>
      <trkpt lat="41.244125" lon="1.504055">
        <ele>77.0</ele>
        <time>2014-12-07T11:23:26Z</time>
      </trkpt>
      <trkpt lat="41.244118" lon="1.504075">
        <ele>77.4</ele>
        <time>2014-12-07T11:23:27Z</time>
      </trkpt>
      <trkpt lat="41.244114" lon="1.504104">
        <ele>77.8</ele>
        <time>2014-12-07T11:23:28Z</time>
      </trkpt>
      <trkpt lat="41.244106" lon="1.504134">
        <ele>78.2</ele>
        <time>2014-12-07T11:23:29Z</time>
      </trkpt>
      <trkpt lat="41.244053" lon="1.504207">
        <ele>78.2</ele>
        <time>2014-12-07T11:23:33Z</time>
      </trkpt>
      <trkpt lat="41.243908" lon="1.504241">
        <ele>78.2</ele>
        <time>2014-12-07T11:23:39Z</time>
      </trkpt>
      <trkpt lat="41.243774" lon="1.504200">
        <ele>78.2</ele>
        <time>2014-12-07T11:23:46Z</time>
      </trkpt>
      <trkpt lat="41.243721" lon="1.504192">
        <ele>78.6</ele>
        <time>2014-12-07T11:23:48Z</time>
      </trkpt>
      <trkpt lat="41.243690" lon="1.504186">
        <ele>79.0</ele>
        <time>2014-12-07T11:23:49Z</time>
      </trkpt>
      <trkpt lat="41.243664" lon="1.504180">
        <ele>79.4</ele>
        <time>2014-12-07T11:23:50Z</time>
      </trkpt>
      <trkpt lat="41.243645" lon="1.504175">
        <ele>79.8</ele>
        <time>2014-12-07T11:23:51Z</time>
      </trkpt>
      <trkpt lat="41.243622" lon="1.504167">
        <ele>80.2</ele>
        <time>2014-12-07T11:23:52Z</time>
      </trkpt>
      <trkpt lat="41.243591" lon="1.504167">
        <ele>80.2</ele>
        <time>2014-12-07T11:23:53Z</time>
      </trkpt>
      <trkpt lat="41.243420" lon="1.504111">
        <ele>80.2</ele>
        <time>2014-12-07T11:23:59Z</time>
      </trkpt>
      <trkpt lat="41.243393" lon="1.504108">
        <ele>80.6</ele>
        <time>2014-12-07T11:24:00Z</time>
      </trkpt>
      <trkpt lat="41.243362" lon="1.504106">
        <ele>81.0</ele>
        <time>2014-12-07T11:24:01Z</time>
      </trkpt>
      <trkpt lat="41.243332" lon="1.504095">
        <ele>82.0</ele>
        <time>2014-12-07T11:24:02Z</time>
      </trkpt>
      <trkpt lat="41.243298" lon="1.504092">
        <ele>82.4</ele>
        <time>2014-12-07T11:24:03Z</time>
      </trkpt>
      <trkpt lat="41.243267" lon="1.504078">
        <ele>82.4</ele>
        <time>2014-12-07T11:24:04Z</time>
      </trkpt>
      <trkpt lat="41.243141" lon="1.504021">
        <ele>82.4</ele>
        <time>2014-12-07T11:24:08Z</time>
      </trkpt>
      <trkpt lat="41.243050" lon="1.503973">
        <ele>82.4</ele>
        <time>2014-12-07T11:24:11Z</time>
      </trkpt>
      <trkpt lat="41.242836" lon="1.503868">
        <ele>82.4</ele>
        <time>2014-12-07T11:24:18Z</time>
      </trkpt>
      <trkpt lat="41.242691" lon="1.503759">
        <ele>82.4</ele>
        <time>2014-12-07T11:24:23Z</time>
      </trkpt>
      <trkpt lat="41.242546" lon="1.503630">
        <ele>82.4</ele>
        <time>2014-12-07T11:24:27Z</time>
      </trkpt>
      <trkpt lat="41.242500" lon="1.503618">
        <ele>82.4</ele>
        <time>2014-12-07T11:24:28Z</time>
      </trkpt>
      <trkpt lat="41.242359" lon="1.503541">
        <ele>82.4</ele>
        <time>2014-12-07T11:24:31Z</time>
      </trkpt>
      <trkpt lat="41.242287" lon="1.503468">
        <ele>82.4</ele>
        <time>2014-12-07T11:24:33Z</time>
      </trkpt>
      <trkpt lat="41.242214" lon="1.503395">
        <ele>82.4</ele>
        <time>2014-12-07T11:24:35Z</time>
      </trkpt>
      <trkpt lat="41.242184" lon="1.503351">
        <ele>82.4</ele>
        <time>2014-12-07T11:24:36Z</time>
      </trkpt>
      <trkpt lat="41.242180" lon="1.503254">
        <ele>82.4</ele>
        <time>2014-12-07T11:24:38Z</time>
      </trkpt>
      <trkpt lat="41.242237" lon="1.503018">
        <ele>82.4</ele>
        <time>2014-12-07T11:24:42Z</time>
      </trkpt>
      <trkpt lat="41.242290" lon="1.502782">
        <ele>82.4</ele>
        <time>2014-12-07T11:24:45Z</time>
      </trkpt>
      <trkpt lat="41.242310" lon="1.502704">
        <ele>82.4</ele>
        <time>2014-12-07T11:24:46Z</time>
      </trkpt>
      <trkpt lat="41.242359" lon="1.502541">
        <ele>81.8</ele>
        <time>2014-12-07T11:24:48Z</time>
      </trkpt>
      <trkpt lat="41.242386" lon="1.502460">
        <ele>81.4</ele>
        <time>2014-12-07T11:24:49Z</time>
      </trkpt>
      <trkpt lat="41.242416" lon="1.502381">
        <ele>81.0</ele>
        <time>2014-12-07T11:24:50Z</time>
      </trkpt>
      <trkpt lat="41.242447" lon="1.502296">
        <ele>80.4</ele>
        <time>2014-12-07T11:24:51Z</time>
      </trkpt>
      <trkpt lat="41.242477" lon="1.502225">
        <ele>80.0</ele>
        <time>2014-12-07T11:24:52Z</time>
      </trkpt>
      <trkpt lat="41.242619" lon="1.501938">
        <ele>79.6</ele>
        <time>2014-12-07T11:24:56Z</time>
      </trkpt>
      <trkpt lat="41.242649" lon="1.501869">
        <ele>79.0</ele>
        <time>2014-12-07T11:24:57Z</time>
      </trkpt>
      <trkpt lat="41.242680" lon="1.501802">
        <ele>78.6</ele>
        <time>2014-12-07T11:24:58Z</time>
      </trkpt>
      <trkpt lat="41.242710" lon="1.501731">
        <ele>78.2</ele>
        <time>2014-12-07T11:24:59Z</time>
      </trkpt>
      <trkpt lat="41.242733" lon="1.501670">
        <ele>77.8</ele>
        <time>2014-12-07T11:25:00Z</time>
      </trkpt>
      <trkpt lat="41.242748" lon="1.501614">
        <ele>77.8</ele>
        <time>2014-12-07T11:25:01Z</time>
      </trkpt>
      <trkpt lat="41.242756" lon="1.501564">
        <ele>77.8</ele>
        <time>2014-12-07T11:25:02Z</time>
      </trkpt>
      <trkpt lat="41.242752" lon="1.501414">
        <ele>77.8</ele>
        <time>2014-12-07T11:25:05Z</time>
      </trkpt>
      <trkpt lat="41.242752" lon="1.501353">
        <ele>77.8</ele>
        <time>2014-12-07T11:25:06Z</time>
      </trkpt>
      <trkpt lat="41.242752" lon="1.500962">
        <ele>77.8</ele>
        <time>2014-12-07T11:25:12Z</time>
      </trkpt>
      <trkpt lat="41.242760" lon="1.500613">
        <ele>77.8</ele>
        <time>2014-12-07T11:25:18Z</time>
      </trkpt>
      <trkpt lat="41.242840" lon="1.500448">
        <ele>77.8</ele>
        <time>2014-12-07T11:25:21Z</time>
      </trkpt>
      <trkpt lat="41.243000" lon="1.500077">
        <ele>77.8</ele>
        <time>2014-12-07T11:25:27Z</time>
      </trkpt>
      <trkpt lat="41.243034" lon="1.499812">
        <ele>77.8</ele>
        <time>2014-12-07T11:25:31Z</time>
      </trkpt>
      <trkpt lat="41.243050" lon="1.499743">
        <ele>77.8</ele>
        <time>2014-12-07T11:25:32Z</time>
      </trkpt>
      <trkpt lat="41.243111" lon="1.499454">
        <ele>77.8</ele>
        <time>2014-12-07T11:25:36Z</time>
      </trkpt>
      <trkpt lat="41.243111" lon="1.499385">
        <ele>77.8</ele>
        <time>2014-12-07T11:25:37Z</time>
      </trkpt>
      <trkpt lat="41.243084" lon="1.499200">
        <ele>77.8</ele>
        <time>2014-12-07T11:25:40Z</time>
      </trkpt>
      <trkpt lat="41.243076" lon="1.498986">
        <ele>77.8</ele>
        <time>2014-12-07T11:25:44Z</time>
      </trkpt>
      <trkpt lat="41.243061" lon="1.498837">
        <ele>77.2</ele>
        <time>2014-12-07T11:25:46Z</time>
      </trkpt>
      <trkpt lat="41.243061" lon="1.498761">
        <ele>76.8</ele>
        <time>2014-12-07T11:25:47Z</time>
      </trkpt>
      <trkpt lat="41.243061" lon="1.498696">
        <ele>76.4</ele>
        <time>2014-12-07T11:25:48Z</time>
      </trkpt>
      <trkpt lat="41.243050" lon="1.498651">
        <ele>76.0</ele>
        <time>2014-12-07T11:25:49Z</time>
      </trkpt>
      <trkpt lat="41.243023" lon="1.498618">
        <ele>75.6</ele>
        <time>2014-12-07T11:25:50Z</time>
      </trkpt>
      <trkpt lat="41.242962" lon="1.498598">
        <ele>75.6</ele>
        <time>2014-12-07T11:25:52Z</time>
      </trkpt>
      <trkpt lat="41.242889" lon="1.498590">
        <ele>75.6</ele>
        <time>2014-12-07T11:25:54Z</time>
      </trkpt>
      <trkpt lat="41.242764" lon="1.498574">
        <ele>75.6</ele>
        <time>2014-12-07T11:25:57Z</time>
      </trkpt>
      <trkpt lat="41.242592" lon="1.498653">
        <ele>75.6</ele>
        <time>2014-12-07T11:26:02Z</time>
      </trkpt>
      <trkpt lat="41.242558" lon="1.498655">
        <ele>76.0</ele>
        <time>2014-12-07T11:26:03Z</time>
      </trkpt>
      <trkpt lat="41.242527" lon="1.498659">
        <ele>76.4</ele>
        <time>2014-12-07T11:26:04Z</time>
      </trkpt>
      <trkpt lat="41.242493" lon="1.498652">
        <ele>76.8</ele>
        <time>2014-12-07T11:26:05Z</time>
      </trkpt>
      <trkpt lat="41.242458" lon="1.498645">
        <ele>77.8</ele>
        <time>2014-12-07T11:26:06Z</time>
      </trkpt>
      <trkpt lat="41.242294" lon="1.498661">
        <ele>77.8</ele>
        <time>2014-12-07T11:26:11Z</time>
      </trkpt>
      <trkpt lat="41.242260" lon="1.498659">
        <ele>78.2</ele>
        <time>2014-12-07T11:26:12Z</time>
      </trkpt>
      <trkpt lat="41.242222" lon="1.498666">
        <ele>78.6</ele>
        <time>2014-12-07T11:26:13Z</time>
      </trkpt>
      <trkpt lat="41.242184" lon="1.498673">
        <ele>79.0</ele>
        <time>2014-12-07T11:26:14Z</time>
      </trkpt>
      <trkpt lat="41.242153" lon="1.498671">
        <ele>79.4</ele>
        <time>2014-12-07T11:26:15Z</time>
      </trkpt>
      <trkpt lat="41.242111" lon="1.498657">
        <ele>80.0</ele>
        <time>2014-12-07T11:26:16Z</time>
      </trkpt>
      <trkpt lat="41.242073" lon="1.498645">
        <ele>80.0</ele>
        <time>2014-12-07T11:26:17Z</time>
      </trkpt>
      <trkpt lat="41.241859" lon="1.498536">
        <ele>80.0</ele>
        <time>2014-12-07T11:26:23Z</time>
      </trkpt>
      <trkpt lat="41.241734" lon="1.498473">
        <ele>80.0</ele>
        <time>2014-12-07T11:26:26Z</time>
      </trkpt>
      <trkpt lat="41.241680" lon="1.498478">
        <ele>80.0</ele>
        <time>2014-12-07T11:26:28Z</time>
      </trkpt>
      <trkpt lat="41.241585" lon="1.498464">
        <ele>80.0</ele>
        <time>2014-12-07T11:26:32Z</time>
      </trkpt>
      <trkpt lat="41.241554" lon="1.498469">
        <ele>80.0</ele>
        <time>2014-12-07T11:26:33Z</time>
      </trkpt>
      <trkpt lat="41.241428" lon="1.498473">
        <ele>80.0</ele>
        <time>2014-12-07T11:26:38Z</time>
      </trkpt>
      <trkpt lat="41.241314" lon="1.498477">
        <ele>80.4</ele>
        <time>2014-12-07T11:26:43Z</time>
      </trkpt>
      <trkpt lat="41.241287" lon="1.498463">
        <ele>80.8</ele>
        <time>2014-12-07T11:26:44Z</time>
      </trkpt>
      <trkpt lat="41.241268" lon="1.498460">
        <ele>81.2</ele>
        <time>2014-12-07T11:26:45Z</time>
      </trkpt>
      <trkpt lat="41.241249" lon="1.498460">
        <ele>81.6</ele>
        <time>2014-12-07T11:26:46Z</time>
      </trkpt>
      <trkpt lat="41.241234" lon="1.498473">
        <ele>82.0</ele>
        <time>2014-12-07T11:26:47Z</time>
      </trkpt>
      <trkpt lat="41.241173" lon="1.498519">
        <ele>82.4</ele>
        <time>2014-12-07T11:26:50Z</time>
      </trkpt>
      <trkpt lat="41.241154" lon="1.498529">
        <ele>82.8</ele>
        <time>2014-12-07T11:26:51Z</time>
      </trkpt>
      <trkpt lat="41.241138" lon="1.498530">
        <ele>83.2</ele>
        <time>2014-12-07T11:26:52Z</time>
      </trkpt>
      <trkpt lat="41.241123" lon="1.498531">
        <ele>83.6</ele>
        <time>2014-12-07T11:26:53Z</time>
      </trkpt>
      <trkpt lat="41.241108" lon="1.498529">
        <ele>84.0</ele>
        <time>2014-12-07T11:26:54Z</time>
      </trkpt>
      <trkpt lat="41.241074" lon="1.498506">
        <ele>84.4</ele>
        <time>2014-12-07T11:26:56Z</time>
      </trkpt>
      <trkpt lat="41.241055" lon="1.498490">
        <ele>85.0</ele>
        <time>2014-12-07T11:26:57Z</time>
      </trkpt>
      <trkpt lat="41.241032" lon="1.498480">
        <ele>85.4</ele>
        <time>2014-12-07T11:26:58Z</time>
      </trkpt>
      <trkpt lat="41.241009" lon="1.498466">
        <ele>85.8</ele>
        <time>2014-12-07T11:26:59Z</time>
      </trkpt>
      <trkpt lat="41.240990" lon="1.498456">
        <ele>86.2</ele>
        <time>2014-12-07T11:27:00Z</time>
      </trkpt>
      <trkpt lat="41.240891" lon="1.498400">
        <ele>86.2</ele>
        <time>2014-12-07T11:27:05Z</time>
      </trkpt>
      <trkpt lat="41.240818" lon="1.498384">
        <ele>86.6</ele>
        <time>2014-12-07T11:27:09Z</time>
      </trkpt>
      <trkpt lat="41.240799" lon="1.498383">
        <ele>87.2</ele>
        <time>2014-12-07T11:27:10Z</time>
      </trkpt>
      <trkpt lat="41.240788" lon="1.498384">
        <ele>87.6</ele>
        <time>2014-12-07T11:27:11Z</time>
      </trkpt>
      <trkpt lat="41.240776" lon="1.498368">
        <ele>88.0</ele>
        <time>2014-12-07T11:27:12Z</time>
      </trkpt>
      <trkpt lat="41.240761" lon="1.498338">
        <ele>88.4</ele>
        <time>2014-12-07T11:27:13Z</time>
      </trkpt>
      <trkpt lat="41.240746" lon="1.498306">
        <ele>88.4</ele>
        <time>2014-12-07T11:27:14Z</time>
      </trkpt>
      <trkpt lat="41.240593" lon="1.498157">
        <ele>88.4</ele>
        <time>2014-12-07T11:27:19Z</time>
      </trkpt>
      <trkpt lat="41.240479" lon="1.498076">
        <ele>88.4</ele>
        <time>2014-12-07T11:27:22Z</time>
      </trkpt>
      <trkpt lat="41.240452" lon="1.498038">
        <ele>88.4</ele>
        <time>2014-12-07T11:27:23Z</time>
      </trkpt>
      <trkpt lat="41.240459" lon="1.497902">
        <ele>88.4</ele>
        <time>2014-12-07T11:27:26Z</time>
      </trkpt>
      <trkpt lat="41.240467" lon="1.497854">
        <ele>88.4</ele>
        <time>2014-12-07T11:27:27Z</time>
      </trkpt>
      <trkpt lat="41.240536" lon="1.497503">
        <ele>88.4</ele>
        <time>2014-12-07T11:27:34Z</time>
      </trkpt>
      <trkpt lat="41.240623" lon="1.497359">
        <ele>88.4</ele>
        <time>2014-12-07T11:27:38Z</time>
      </trkpt>
      <trkpt lat="41.240704" lon="1.497249">
        <ele>88.8</ele>
        <time>2014-12-07T11:27:42Z</time>
      </trkpt>
      <trkpt lat="41.240723" lon="1.497230">
        <ele>89.2</ele>
        <time>2014-12-07T11:27:43Z</time>
      </trkpt>
      <trkpt lat="41.240742" lon="1.497204">
        <ele>90.2</ele>
        <time>2014-12-07T11:27:44Z</time>
      </trkpt>
      <trkpt lat="41.240757" lon="1.497181">
        <ele>90.6</ele>
        <time>2014-12-07T11:27:45Z</time>
      </trkpt>
      <trkpt lat="41.240891" lon="1.497004">
        <ele>91.0</ele>
        <time>2014-12-07T11:27:52Z</time>
      </trkpt>
      <trkpt lat="41.240906" lon="1.496971">
        <ele>91.4</ele>
        <time>2014-12-07T11:27:53Z</time>
      </trkpt>
      <trkpt lat="41.240929" lon="1.496947">
        <ele>91.8</ele>
        <time>2014-12-07T11:27:54Z</time>
      </trkpt>
      <trkpt lat="41.240944" lon="1.496919">
        <ele>92.2</ele>
        <time>2014-12-07T11:27:55Z</time>
      </trkpt>
      <trkpt lat="41.240963" lon="1.496886">
        <ele>92.6</ele>
        <time>2014-12-07T11:27:56Z</time>
      </trkpt>
      <trkpt lat="41.241005" lon="1.496827">
        <ele>92.6</ele>
        <time>2014-12-07T11:27:58Z</time>
      </trkpt>
      <trkpt lat="41.241150" lon="1.496659">
        <ele>92.6</ele>
        <time>2014-12-07T11:28:05Z</time>
      </trkpt>
      <trkpt lat="41.241173" lon="1.496621">
        <ele>93.0</ele>
        <time>2014-12-07T11:28:07Z</time>
      </trkpt>
      <trkpt lat="41.241173" lon="1.496607">
        <ele>93.4</ele>
        <time>2014-12-07T11:28:08Z</time>
      </trkpt>
      <trkpt lat="41.241169" lon="1.496586">
        <ele>94.2</ele>
        <time>2014-12-07T11:28:09Z</time>
      </trkpt>
      <trkpt lat="41.241173" lon="1.496559">
        <ele>94.6</ele>
        <time>2014-12-07T11:28:10Z</time>
      </trkpt>
      <trkpt lat="41.241154" lon="1.496435">
        <ele>94.6</ele>
        <time>2014-12-07T11:28:15Z</time>
      </trkpt>
      <trkpt lat="41.241142" lon="1.496386">
        <ele>94.6</ele>
        <time>2014-12-07T11:28:17Z</time>
      </trkpt>
      <trkpt lat="41.241112" lon="1.496359">
        <ele>95.2</ele>
        <time>2014-12-07T11:28:19Z</time>
      </trkpt>
      <trkpt lat="41.241096" lon="1.496343">
        <ele>95.6</ele>
        <time>2014-12-07T11:28:20Z</time>
      </trkpt>
      <trkpt lat="41.241077" lon="1.496331">
        <ele>96.2</ele>
        <time>2014-12-07T11:28:21Z</time>
      </trkpt>
      <trkpt lat="41.241055" lon="1.496314">
        <ele>96.6</ele>
        <time>2014-12-07T11:28:22Z</time>
      </trkpt>
      <trkpt lat="41.241028" lon="1.496297">
        <ele>97.0</ele>
        <time>2014-12-07T11:28:23Z</time>
      </trkpt>
      <trkpt lat="41.240982" lon="1.496288">
        <ele>97.6</ele>
        <time>2014-12-07T11:28:25Z</time>
      </trkpt>
      <trkpt lat="41.240963" lon="1.496273">
        <ele>98.0</ele>
        <time>2014-12-07T11:28:26Z</time>
      </trkpt>
      <trkpt lat="41.240936" lon="1.496259">
        <ele>98.4</ele>
        <time>2014-12-07T11:28:27Z</time>
      </trkpt>
      <trkpt lat="41.240917" lon="1.496240">
        <ele>98.8</ele>
        <time>2014-12-07T11:28:28Z</time>
      </trkpt>
      <trkpt lat="41.240894" lon="1.496232">
        <ele>99.2</ele>
        <time>2014-12-07T11:28:29Z</time>
      </trkpt>
      <trkpt lat="41.240829" lon="1.496202">
        <ele>99.2</ele>
        <time>2014-12-07T11:28:32Z</time>
      </trkpt>
      <trkpt lat="41.240761" lon="1.496176">
        <ele>99.6</ele>
        <time>2014-12-07T11:28:35Z</time>
      </trkpt>
      <trkpt lat="41.240742" lon="1.496162">
        <ele>100.0</ele>
        <time>2014-12-07T11:28:36Z</time>
      </trkpt>
      <trkpt lat="41.240723" lon="1.496153">
        <ele>100.4</ele>
        <time>2014-12-07T11:28:37Z</time>
      </trkpt>
      <trkpt lat="41.240711" lon="1.496139">
        <ele>100.8</ele>
        <time>2014-12-07T11:28:38Z</time>
      </trkpt>
      <trkpt lat="41.240685" lon="1.496134">
        <ele>101.4</ele>
        <time>2014-12-07T11:28:39Z</time>
      </trkpt>
      <trkpt lat="41.240627" lon="1.496139">
        <ele>101.8</ele>
        <time>2014-12-07T11:28:42Z</time>
      </trkpt>
      <trkpt lat="41.240612" lon="1.496149">
        <ele>102.2</ele>
        <time>2014-12-07T11:28:43Z</time>
      </trkpt>
      <trkpt lat="41.240593" lon="1.496173">
        <ele>102.6</ele>
        <time>2014-12-07T11:28:44Z</time>
      </trkpt>
      <trkpt lat="41.240574" lon="1.496199">
        <ele>103.0</ele>
        <time>2014-12-07T11:28:45Z</time>
      </trkpt>
      <trkpt lat="41.240551" lon="1.496225">
        <ele>103.4</ele>
        <time>2014-12-07T11:28:46Z</time>
      </trkpt>
      <trkpt lat="41.240501" lon="1.496283">
        <ele>103.4</ele>
        <time>2014-12-07T11:28:48Z</time>
      </trkpt>
      <trkpt lat="41.240379" lon="1.496354">
        <ele>103.4</ele>
        <time>2014-12-07T11:28:53Z</time>
      </trkpt>
      <trkpt lat="41.240276" lon="1.496432">
        <ele>103.4</ele>
        <time>2014-12-07T11:28:58Z</time>
      </trkpt>
      <trkpt lat="41.240192" lon="1.496470">
        <ele>103.8</ele>
        <time>2014-12-07T11:29:01Z</time>
      </trkpt>
      <trkpt lat="41.240166" lon="1.496480">
        <ele>104.2</ele>
        <time>2014-12-07T11:29:02Z</time>
      </trkpt>
      <trkpt lat="41.240135" lon="1.496492">
        <ele>104.6</ele>
        <time>2014-12-07T11:29:03Z</time>
      </trkpt>
      <trkpt lat="41.240101" lon="1.496511">
        <ele>105.0</ele>
        <time>2014-12-07T11:29:04Z</time>
      </trkpt>
      <trkpt lat="41.240070" lon="1.496526">
        <ele>105.6</ele>
        <time>2014-12-07T11:29:05Z</time>
      </trkpt>
      <trkpt lat="41.239914" lon="1.496529">
        <ele>105.6</ele>
        <time>2014-12-07T11:29:10Z</time>
      </trkpt>
      <trkpt lat="41.239727" lon="1.496454">
        <ele>105.6</ele>
        <time>2014-12-07T11:29:17Z</time>
      </trkpt>
      <trkpt lat="41.239639" lon="1.496392">
        <ele>106.0</ele>
        <time>2014-12-07T11:29:21Z</time>
      </trkpt>
      <trkpt lat="41.239616" lon="1.496370">
        <ele>106.4</ele>
        <time>2014-12-07T11:29:22Z</time>
      </trkpt>
      <trkpt lat="41.239590" lon="1.496348">
        <ele>107.2</ele>
        <time>2014-12-07T11:29:23Z</time>
      </trkpt>
      <trkpt lat="41.239571" lon="1.496335">
        <ele>107.6</ele>
        <time>2014-12-07T11:29:24Z</time>
      </trkpt>
      <trkpt lat="41.239502" lon="1.496274">
        <ele>108.0</ele>
        <time>2014-12-07T11:29:27Z</time>
      </trkpt>
      <trkpt lat="41.239483" lon="1.496255">
        <ele>108.4</ele>
        <time>2014-12-07T11:29:28Z</time>
      </trkpt>
      <trkpt lat="41.239464" lon="1.496237">
        <ele>108.8</ele>
        <time>2014-12-07T11:29:29Z</time>
      </trkpt>
      <trkpt lat="41.239441" lon="1.496211">
        <ele>109.2</ele>
        <time>2014-12-07T11:29:30Z</time>
      </trkpt>
      <trkpt lat="41.239414" lon="1.496189">
        <ele>109.6</ele>
        <time>2014-12-07T11:29:31Z</time>
      </trkpt>
      <trkpt lat="41.239326" lon="1.496125">
        <ele>109.6</ele>
        <time>2014-12-07T11:29:34Z</time>
      </trkpt>
      <trkpt lat="41.239166" lon="1.495984">
        <ele>109.6</ele>
        <time>2014-12-07T11:29:40Z</time>
      </trkpt>
      <trkpt lat="41.239075" lon="1.495828">
        <ele>109.6</ele>
        <time>2014-12-07T11:29:45Z</time>
      </trkpt>
      <trkpt lat="41.239059" lon="1.495798">
        <ele>110.0</ele>
        <time>2014-12-07T11:29:46Z</time>
      </trkpt>
      <trkpt lat="41.239052" lon="1.495771">
        <ele>110.4</ele>
        <time>2014-12-07T11:29:47Z</time>
      </trkpt>
      <trkpt lat="41.239033" lon="1.495735">
        <ele>111.2</ele>
        <time>2014-12-07T11:29:48Z</time>
      </trkpt>
      <trkpt lat="41.239021" lon="1.495693">
        <ele>111.6</ele>
        <time>2014-12-07T11:29:49Z</time>
      </trkpt>
      <trkpt lat="41.238995" lon="1.495615">
        <ele>111.6</ele>
        <time>2014-12-07T11:29:51Z</time>
      </trkpt>
      <trkpt lat="41.238964" lon="1.495583">
        <ele>112.0</ele>
        <time>2014-12-07T11:29:52Z</time>
      </trkpt>
      <trkpt lat="41.238934" lon="1.495569">
        <ele>112.4</ele>
        <time>2014-12-07T11:29:53Z</time>
      </trkpt>
      <trkpt lat="41.238903" lon="1.495555">
        <ele>113.0</ele>
        <time>2014-12-07T11:29:54Z</time>
      </trkpt>
      <trkpt lat="41.238869" lon="1.495547">
        <ele>113.4</ele>
        <time>2014-12-07T11:29:55Z</time>
      </trkpt>
      <trkpt lat="41.238838" lon="1.495534">
        <ele>113.8</ele>
        <time>2014-12-07T11:29:56Z</time>
      </trkpt>
      <trkpt lat="41.238731" lon="1.495445">
        <ele>113.8</ele>
        <time>2014-12-07T11:30:00Z</time>
      </trkpt>
      <trkpt lat="41.238571" lon="1.495342">
        <ele>113.8</ele>
        <time>2014-12-07T11:30:05Z</time>
      </trkpt>
      <trkpt lat="41.238407" lon="1.495263">
        <ele>114.2</ele>
        <time>2014-12-07T11:30:10Z</time>
      </trkpt>
      <trkpt lat="41.238369" lon="1.495248">
        <ele>114.6</ele>
        <time>2014-12-07T11:30:11Z</time>
      </trkpt>
      <trkpt lat="41.238331" lon="1.495220">
        <ele>115.0</ele>
        <time>2014-12-07T11:30:12Z</time>
      </trkpt>
      <trkpt lat="41.238293" lon="1.495198">
        <ele>115.8</ele>
        <time>2014-12-07T11:30:13Z</time>
      </trkpt>
      <trkpt lat="41.238167" lon="1.495172">
        <ele>115.8</ele>
        <time>2014-12-07T11:30:16Z</time>
      </trkpt>
      <trkpt lat="41.237984" lon="1.495220">
        <ele>115.8</ele>
        <time>2014-12-07T11:30:21Z</time>
      </trkpt>
      <trkpt lat="41.237946" lon="1.495225">
        <ele>115.8</ele>
        <time>2014-12-07T11:30:22Z</time>
      </trkpt>
      <trkpt lat="41.237839" lon="1.495230">
        <ele>116.2</ele>
        <time>2014-12-07T11:30:25Z</time>
      </trkpt>
      <trkpt lat="41.237797" lon="1.495238">
        <ele>116.8</ele>
        <time>2014-12-07T11:30:26Z</time>
      </trkpt>
      <trkpt lat="41.237755" lon="1.495247">
        <ele>117.2</ele>
        <time>2014-12-07T11:30:27Z</time>
      </trkpt>
      <trkpt lat="41.237713" lon="1.495245">
        <ele>117.6</ele>
        <time>2014-12-07T11:30:28Z</time>
      </trkpt>
      <trkpt lat="41.237675" lon="1.495257">
        <ele>118.0</ele>
        <time>2014-12-07T11:30:29Z</time>
      </trkpt>
      <trkpt lat="41.237419" lon="1.495327">
        <ele>118.0</ele>
        <time>2014-12-07T11:30:35Z</time>
      </trkpt>
      <trkpt lat="41.237053" lon="1.495433">
        <ele>118.0</ele>
        <time>2014-12-07T11:30:43Z</time>
      </trkpt>
      <trkpt lat="41.236877" lon="1.495474">
        <ele>118.0</ele>
        <time>2014-12-07T11:30:48Z</time>
      </trkpt>
      <trkpt lat="41.236816" lon="1.495415">
        <ele>118.0</ele>
        <time>2014-12-07T11:30:50Z</time>
      </trkpt>
      <trkpt lat="41.236755" lon="1.495362">
        <ele>118.0</ele>
        <time>2014-12-07T11:30:52Z</time>
      </trkpt>
      <trkpt lat="41.236717" lon="1.495340">
        <ele>118.0</ele>
        <time>2014-12-07T11:30:53Z</time>
      </trkpt>
      <trkpt lat="41.236553" lon="1.495274">
        <ele>118.0</ele>
        <time>2014-12-07T11:30:57Z</time>
      </trkpt>
      <trkpt lat="41.236366" lon="1.495234">
        <ele>118.0</ele>
        <time>2014-12-07T11:31:03Z</time>
      </trkpt>
      <trkpt lat="41.236244" lon="1.495373">
        <ele>118.0</ele>
        <time>2014-12-07T11:31:07Z</time>
      </trkpt>
      <trkpt lat="41.236168" lon="1.495447">
        <ele>118.0</ele>
        <time>2014-12-07T11:31:09Z</time>
      </trkpt>
      <trkpt lat="41.236099" lon="1.495587">
        <ele>117.6</ele>
        <time>2014-12-07T11:31:12Z</time>
      </trkpt>
      <trkpt lat="41.236088" lon="1.495634">
        <ele>117.2</ele>
        <time>2014-12-07T11:31:13Z</time>
      </trkpt>
      <trkpt lat="41.236084" lon="1.495676">
        <ele>116.8</ele>
        <time>2014-12-07T11:31:14Z</time>
      </trkpt>
      <trkpt lat="41.236073" lon="1.495711">
        <ele>116.4</ele>
        <time>2014-12-07T11:31:15Z</time>
      </trkpt>
      <trkpt lat="41.236069" lon="1.495745">
        <ele>116.0</ele>
        <time>2014-12-07T11:31:16Z</time>
      </trkpt>
      <trkpt lat="41.236046" lon="1.495777">
        <ele>116.0</ele>
        <time>2014-12-07T11:31:17Z</time>
      </trkpt>
      <trkpt lat="41.236012" lon="1.495842">
        <ele>116.4</ele>
        <time>2014-12-07T11:31:19Z</time>
      </trkpt>
      <trkpt lat="41.235989" lon="1.495868">
        <ele>116.8</ele>
        <time>2014-12-07T11:31:20Z</time>
      </trkpt>
      <trkpt lat="41.235962" lon="1.495882">
        <ele>117.2</ele>
        <time>2014-12-07T11:31:21Z</time>
      </trkpt>
      <trkpt lat="41.235939" lon="1.495892">
        <ele>117.8</ele>
        <time>2014-12-07T11:31:22Z</time>
      </trkpt>
      <trkpt lat="41.235920" lon="1.495895">
        <ele>118.2</ele>
        <time>2014-12-07T11:31:23Z</time>
      </trkpt>
      <trkpt lat="41.235886" lon="1.495917">
        <ele>118.6</ele>
        <time>2014-12-07T11:31:25Z</time>
      </trkpt>
      <trkpt lat="41.235874" lon="1.495932">
        <ele>119.6</ele>
        <time>2014-12-07T11:31:26Z</time>
      </trkpt>
      <trkpt lat="41.235859" lon="1.495930">
        <ele>120.0</ele>
        <time>2014-12-07T11:31:27Z</time>
      </trkpt>
      <trkpt lat="41.235836" lon="1.495926">
        <ele>120.6</ele>
        <time>2014-12-07T11:31:28Z</time>
      </trkpt>
      <trkpt lat="41.235737" lon="1.495850">
        <ele>120.6</ele>
        <time>2014-12-07T11:31:33Z</time>
      </trkpt>
      <trkpt lat="41.235699" lon="1.495810">
        <ele>120.6</ele>
        <time>2014-12-07T11:31:37Z</time>
      </trkpt>
      <trkpt lat="41.235691" lon="1.495803">
        <ele>120.6</ele>
        <time>2014-12-07T11:31:39Z</time>
      </trkpt>
      <trkpt lat="41.235668" lon="1.495777">
        <ele>120.6</ele>
        <time>2014-12-07T11:32:18Z</time>
      </trkpt>
      <trkpt lat="41.235600" lon="1.495720">
        <ele>120.6</ele>
        <time>2014-12-07T11:32:21Z</time>
      </trkpt>
      <trkpt lat="41.235481" lon="1.495587">
        <ele>120.6</ele>
        <time>2014-12-07T11:32:27Z</time>
      </trkpt>
      <trkpt lat="41.235401" lon="1.495418">
        <ele>120.6</ele>
        <time>2014-12-07T11:32:32Z</time>
      </trkpt>
      <trkpt lat="41.235317" lon="1.495256">
        <ele>120.6</ele>
        <time>2014-12-07T11:32:37Z</time>
      </trkpt>
      <trkpt lat="41.235226" lon="1.495085">
        <ele>121.0</ele>
        <time>2014-12-07T11:32:42Z</time>
      </trkpt>
      <trkpt lat="41.235210" lon="1.495069">
        <ele>121.4</ele>
        <time>2014-12-07T11:32:43Z</time>
      </trkpt>
      <trkpt lat="41.235203" lon="1.495063">
        <ele>121.8</ele>
        <time>2014-12-07T11:32:44Z</time>
      </trkpt>
      <trkpt lat="41.235207" lon="1.495064">
        <ele>122.2</ele>
        <time>2014-12-07T11:32:45Z</time>
      </trkpt>
      <trkpt lat="41.235199" lon="1.495048">
        <ele>122.6</ele>
        <time>2014-12-07T11:32:46Z</time>
      </trkpt>
      <trkpt lat="41.235172" lon="1.494994">
        <ele>122.6</ele>
        <time>2014-12-07T11:32:49Z</time>
      </trkpt>
      <trkpt lat="41.235168" lon="1.494955">
        <ele>122.6</ele>
        <time>2014-12-07T11:32:50Z</time>
      </trkpt>
      <trkpt lat="41.235126" lon="1.494850">
        <ele>123.0</ele>
        <time>2014-12-07T11:32:53Z</time>
      </trkpt>
      <trkpt lat="41.235119" lon="1.494809">
        <ele>123.6</ele>
        <time>2014-12-07T11:32:54Z</time>
      </trkpt>
      <trkpt lat="41.235115" lon="1.494769">
        <ele>124.0</ele>
        <time>2014-12-07T11:32:55Z</time>
      </trkpt>
      <trkpt lat="41.235111" lon="1.494727">
        <ele>124.4</ele>
        <time>2014-12-07T11:32:56Z</time>
      </trkpt>
      <trkpt lat="41.235107" lon="1.494682">
        <ele>124.8</ele>
        <time>2014-12-07T11:32:57Z</time>
      </trkpt>
      <trkpt lat="41.235065" lon="1.494553">
        <ele>124.8</ele>
        <time>2014-12-07T11:33:00Z</time>
      </trkpt>
      <trkpt lat="41.235023" lon="1.494402">
        <ele>125.6</ele>
        <time>2014-12-07T11:33:04Z</time>
      </trkpt>
      <trkpt lat="41.235020" lon="1.494362">
        <ele>126.0</ele>
        <time>2014-12-07T11:33:05Z</time>
      </trkpt>
      <trkpt lat="41.235008" lon="1.494324">
        <ele>126.6</ele>
        <time>2014-12-07T11:33:06Z</time>
      </trkpt>
      <trkpt lat="41.235001" lon="1.494278">
        <ele>127.0</ele>
        <time>2014-12-07T11:33:07Z</time>
      </trkpt>
      <trkpt lat="41.234962" lon="1.494064">
        <ele>127.0</ele>
        <time>2014-12-07T11:33:13Z</time>
      </trkpt>
      <trkpt lat="41.234890" lon="1.493863">
        <ele>127.4</ele>
        <time>2014-12-07T11:33:19Z</time>
      </trkpt>
      <trkpt lat="41.234875" lon="1.493829">
        <ele>127.8</ele>
        <time>2014-12-07T11:33:20Z</time>
      </trkpt>
      <trkpt lat="41.234863" lon="1.493793">
        <ele>128.2</ele>
        <time>2014-12-07T11:33:21Z</time>
      </trkpt>
      <trkpt lat="41.234848" lon="1.493756">
        <ele>128.6</ele>
        <time>2014-12-07T11:33:22Z</time>
      </trkpt>
      <trkpt lat="41.234833" lon="1.493724">
        <ele>129.0</ele>
        <time>2014-12-07T11:33:23Z</time>
      </trkpt>
      <trkpt lat="41.234798" lon="1.493665">
        <ele>129.0</ele>
        <time>2014-12-07T11:33:25Z</time>
      </trkpt>
      <trkpt lat="41.234756" lon="1.493626">
        <ele>129.0</ele>
        <time>2014-12-07T11:33:27Z</time>
      </trkpt>
      <trkpt lat="41.234688" lon="1.493595">
        <ele>129.6</ele>
        <time>2014-12-07T11:33:30Z</time>
      </trkpt>
      <trkpt lat="41.234665" lon="1.493589">
        <ele>130.0</ele>
        <time>2014-12-07T11:33:31Z</time>
      </trkpt>
      <trkpt lat="41.234638" lon="1.493586">
        <ele>130.4</ele>
        <time>2014-12-07T11:33:32Z</time>
      </trkpt>
      <trkpt lat="41.234615" lon="1.493584">
        <ele>131.0</ele>
        <time>2014-12-07T11:33:33Z</time>
      </trkpt>
      <trkpt lat="41.234592" lon="1.493583">
        <ele>131.4</ele>
        <time>2014-12-07T11:33:34Z</time>
      </trkpt>
      <trkpt lat="41.234566" lon="1.493600">
        <ele>131.4</ele>
        <time>2014-12-07T11:33:35Z</time>
      </trkpt>
      <trkpt lat="41.234478" lon="1.493610">
        <ele>131.4</ele>
        <time>2014-12-07T11:33:38Z</time>
      </trkpt>
      <trkpt lat="41.234352" lon="1.493555">
        <ele>131.4</ele>
        <time>2014-12-07T11:33:42Z</time>
      </trkpt>
      <trkpt lat="41.234325" lon="1.493545">
        <ele>131.8</ele>
        <time>2014-12-07T11:33:43Z</time>
      </trkpt>
      <trkpt lat="41.234299" lon="1.493518">
        <ele>132.2</ele>
        <time>2014-12-07T11:33:44Z</time>
      </trkpt>
      <trkpt lat="41.234272" lon="1.493475">
        <ele>132.6</ele>
        <time>2014-12-07T11:33:45Z</time>
      </trkpt>
      <trkpt lat="41.234257" lon="1.493432">
        <ele>133.0</ele>
        <time>2014-12-07T11:33:46Z</time>
      </trkpt>
      <trkpt lat="41.234249" lon="1.493388">
        <ele>133.4</ele>
        <time>2014-12-07T11:33:47Z</time>
      </trkpt>
      <trkpt lat="41.234261" lon="1.493312">
        <ele>133.4</ele>
        <time>2014-12-07T11:33:49Z</time>
      </trkpt>
      <trkpt lat="41.234261" lon="1.493275">
        <ele>133.4</ele>
        <time>2014-12-07T11:33:50Z</time>
      </trkpt>
      <trkpt lat="41.234241" lon="1.493057">
        <ele>133.4</ele>
        <time>2014-12-07T11:33:55Z</time>
      </trkpt>
      <trkpt lat="41.234177" lon="1.492821">
        <ele>133.4</ele>
        <time>2014-12-07T11:34:01Z</time>
      </trkpt>
      <trkpt lat="41.234119" lon="1.492728">
        <ele>133.8</ele>
        <time>2014-12-07T11:34:05Z</time>
      </trkpt>
      <trkpt lat="41.234100" lon="1.492705">
        <ele>134.4</ele>
        <time>2014-12-07T11:34:06Z</time>
      </trkpt>
      <trkpt lat="41.234089" lon="1.492680">
        <ele>134.8</ele>
        <time>2014-12-07T11:34:07Z</time>
      </trkpt>
      <trkpt lat="41.234070" lon="1.492658">
        <ele>135.2</ele>
        <time>2014-12-07T11:34:08Z</time>
      </trkpt>
      <trkpt lat="41.234043" lon="1.492637">
        <ele>135.8</ele>
        <time>2014-12-07T11:34:09Z</time>
      </trkpt>
      <trkpt lat="41.233978" lon="1.492605">
        <ele>135.8</ele>
        <time>2014-12-07T11:34:12Z</time>
      </trkpt>
      <trkpt lat="41.233929" lon="1.492595">
        <ele>135.8</ele>
        <time>2014-12-07T11:34:15Z</time>
      </trkpt>
      <trkpt lat="41.233894" lon="1.492590">
        <ele>135.8</ele>
        <time>2014-12-07T11:34:17Z</time>
      </trkpt>
      <trkpt lat="41.233856" lon="1.492565">
        <ele>136.2</ele>
        <time>2014-12-07T11:34:19Z</time>
      </trkpt>
      <trkpt lat="41.233833" lon="1.492552">
        <ele>136.6</ele>
        <time>2014-12-07T11:34:20Z</time>
      </trkpt>
      <trkpt lat="41.233818" lon="1.492534">
        <ele>137.0</ele>
        <time>2014-12-07T11:34:21Z</time>
      </trkpt>
      <trkpt lat="41.233791" lon="1.492514">
        <ele>137.4</ele>
        <time>2014-12-07T11:34:22Z</time>
      </trkpt>
      <trkpt lat="41.233768" lon="1.492496">
        <ele>137.8</ele>
        <time>2014-12-07T11:34:23Z</time>
      </trkpt>
      <trkpt lat="41.233696" lon="1.492447">
        <ele>137.8</ele>
        <time>2014-12-07T11:34:26Z</time>
      </trkpt>
      <trkpt lat="41.233673" lon="1.492431">
        <ele>138.2</ele>
        <time>2014-12-07T11:34:27Z</time>
      </trkpt>
      <trkpt lat="41.233658" lon="1.492419">
        <ele>138.6</ele>
        <time>2014-12-07T11:34:28Z</time>
      </trkpt>
      <trkpt lat="41.233639" lon="1.492409">
        <ele>139.0</ele>
        <time>2014-12-07T11:34:29Z</time>
      </trkpt>
      <trkpt lat="41.233620" lon="1.492394">
        <ele>139.6</ele>
        <time>2014-12-07T11:34:30Z</time>
      </trkpt>
      <trkpt lat="41.233601" lon="1.492376">
        <ele>140.0</ele>
        <time>2014-12-07T11:34:31Z</time>
      </trkpt>
      <trkpt lat="41.233490" lon="1.492315">
        <ele>140.0</ele>
        <time>2014-12-07T11:34:36Z</time>
      </trkpt>
      <trkpt lat="41.233379" lon="1.492221">
        <ele>140.0</ele>
        <time>2014-12-07T11:34:41Z</time>
      </trkpt>
      <trkpt lat="41.233360" lon="1.492053">
        <ele>140.0</ele>
        <time>2014-12-07T11:34:45Z</time>
      </trkpt>
      <trkpt lat="41.233376" lon="1.492023">
        <ele>140.0</ele>
        <time>2014-12-07T11:34:46Z</time>
      </trkpt>
      <trkpt lat="41.233406" lon="1.491944">
        <ele>140.4</ele>
        <time>2014-12-07T11:34:49Z</time>
      </trkpt>
      <trkpt lat="41.233421" lon="1.491921">
        <ele>140.8</ele>
        <time>2014-12-07T11:34:50Z</time>
      </trkpt>
      <trkpt lat="41.233437" lon="1.491904">
        <ele>141.2</ele>
        <time>2014-12-07T11:34:51Z</time>
      </trkpt>
      <trkpt lat="41.233456" lon="1.491891">
        <ele>141.6</ele>
        <time>2014-12-07T11:34:52Z</time>
      </trkpt>
      <trkpt lat="41.233475" lon="1.491876">
        <ele>142.2</ele>
        <time>2014-12-07T11:34:53Z</time>
      </trkpt>
      <trkpt lat="41.233498" lon="1.491859">
        <ele>142.2</ele>
        <time>2014-12-07T11:34:54Z</time>
      </trkpt>
      <trkpt lat="41.233593" lon="1.491794">
        <ele>142.6</ele>
        <time>2014-12-07T11:34:59Z</time>
      </trkpt>
      <trkpt lat="41.233612" lon="1.491785">
        <ele>143.0</ele>
        <time>2014-12-07T11:35:00Z</time>
      </trkpt>
      <trkpt lat="41.233631" lon="1.491779">
        <ele>143.4</ele>
        <time>2014-12-07T11:35:01Z</time>
      </trkpt>
      <trkpt lat="41.233646" lon="1.491776">
        <ele>143.8</ele>
        <time>2014-12-07T11:35:02Z</time>
      </trkpt>
      <trkpt lat="41.233662" lon="1.491772">
        <ele>144.2</ele>
        <time>2014-12-07T11:35:03Z</time>
      </trkpt>
      <trkpt lat="41.233757" lon="1.491744">
        <ele>144.2</ele>
        <time>2014-12-07T11:35:09Z</time>
      </trkpt>
      <trkpt lat="41.233841" lon="1.491659">
        <ele>144.2</ele>
        <time>2014-12-07T11:35:15Z</time>
      </trkpt>
      <trkpt lat="41.233871" lon="1.491587">
        <ele>144.6</ele>
        <time>2014-12-07T11:35:19Z</time>
      </trkpt>
      <trkpt lat="41.233879" lon="1.491564">
        <ele>145.0</ele>
        <time>2014-12-07T11:35:20Z</time>
      </trkpt>
      <trkpt lat="41.233891" lon="1.491542">
        <ele>145.4</ele>
        <time>2014-12-07T11:35:21Z</time>
      </trkpt>
      <trkpt lat="41.233894" lon="1.491516">
        <ele>145.8</ele>
        <time>2014-12-07T11:35:22Z</time>
      </trkpt>
      <trkpt lat="41.233891" lon="1.491493">
        <ele>146.2</ele>
        <time>2014-12-07T11:35:23Z</time>
      </trkpt>
      <trkpt lat="41.233879" lon="1.491452">
        <ele>146.8</ele>
        <time>2014-12-07T11:35:26Z</time>
      </trkpt>
      <trkpt lat="41.233868" lon="1.491441">
        <ele>147.2</ele>
        <time>2014-12-07T11:35:27Z</time>
      </trkpt>
      <trkpt lat="41.233852" lon="1.491430">
        <ele>147.6</ele>
        <time>2014-12-07T11:35:28Z</time>
      </trkpt>
      <trkpt lat="41.233845" lon="1.491418">
        <ele>148.2</ele>
        <time>2014-12-07T11:35:29Z</time>
      </trkpt>
      <trkpt lat="41.233833" lon="1.491402">
        <ele>148.6</ele>
        <time>2014-12-07T11:35:30Z</time>
      </trkpt>
      <trkpt lat="41.233829" lon="1.491378">
        <ele>149.0</ele>
        <time>2014-12-07T11:35:32Z</time>
      </trkpt>
      <trkpt lat="41.233826" lon="1.491366">
        <ele>149.4</ele>
        <time>2014-12-07T11:35:33Z</time>
      </trkpt>
      <trkpt lat="41.233822" lon="1.491354">
        <ele>149.8</ele>
        <time>2014-12-07T11:35:34Z</time>
      </trkpt>
      <trkpt lat="41.233818" lon="1.491337">
        <ele>150.2</ele>
        <time>2014-12-07T11:35:35Z</time>
      </trkpt>
      <trkpt lat="41.233807" lon="1.491321">
        <ele>150.6</ele>
        <time>2014-12-07T11:35:36Z</time>
      </trkpt>
      <trkpt lat="41.233799" lon="1.491316">
        <ele>150.6</ele>
        <time>2014-12-07T11:35:37Z</time>
      </trkpt>
      <trkpt lat="41.233784" lon="1.491315">
        <ele>150.6</ele>
        <time>2014-12-07T11:35:39Z</time>
      </trkpt>
      <trkpt lat="41.233765" lon="1.491310">
        <ele>151.0</ele>
        <time>2014-12-07T11:35:42Z</time>
      </trkpt>
      <trkpt lat="41.233753" lon="1.491310">
        <ele>151.4</ele>
        <time>2014-12-07T11:35:43Z</time>
      </trkpt>
      <trkpt lat="41.233742" lon="1.491302">
        <ele>151.8</ele>
        <time>2014-12-07T11:35:44Z</time>
      </trkpt>
      <trkpt lat="41.233730" lon="1.491294">
        <ele>152.2</ele>
        <time>2014-12-07T11:35:45Z</time>
      </trkpt>
      <trkpt lat="41.233723" lon="1.491290">
        <ele>152.6</ele>
        <time>2014-12-07T11:35:46Z</time>
      </trkpt>
      <trkpt lat="41.233665" lon="1.491283">
        <ele>152.6</ele>
        <time>2014-12-07T11:35:50Z</time>
      </trkpt>
      <trkpt lat="41.233574" lon="1.491276">
        <ele>153.6</ele>
        <time>2014-12-07T11:35:56Z</time>
      </trkpt>
      <trkpt lat="41.233566" lon="1.491262">
        <ele>154.0</ele>
        <time>2014-12-07T11:35:57Z</time>
      </trkpt>
      <trkpt lat="41.233555" lon="1.491250">
        <ele>154.4</ele>
        <time>2014-12-07T11:35:58Z</time>
      </trkpt>
      <trkpt lat="41.233547" lon="1.491235">
        <ele>154.8</ele>
        <time>2014-12-07T11:35:59Z</time>
      </trkpt>
      <trkpt lat="41.233532" lon="1.491205">
        <ele>155.2</ele>
        <time>2014-12-07T11:36:01Z</time>
      </trkpt>
      <trkpt lat="41.233521" lon="1.491189">
        <ele>155.6</ele>
        <time>2014-12-07T11:36:02Z</time>
      </trkpt>
      <trkpt lat="41.233517" lon="1.491170">
        <ele>156.0</ele>
        <time>2014-12-07T11:36:03Z</time>
      </trkpt>
      <trkpt lat="41.233509" lon="1.491151">
        <ele>156.6</ele>
        <time>2014-12-07T11:36:04Z</time>
      </trkpt>
      <trkpt lat="41.233498" lon="1.491134">
        <ele>157.0</ele>
        <time>2014-12-07T11:36:05Z</time>
      </trkpt>
      <trkpt lat="41.233467" lon="1.491105">
        <ele>157.4</ele>
        <time>2014-12-07T11:36:07Z</time>
      </trkpt>
      <trkpt lat="41.233459" lon="1.491093">
        <ele>157.8</ele>
        <time>2014-12-07T11:36:08Z</time>
      </trkpt>
      <trkpt lat="41.233456" lon="1.491075">
        <ele>158.2</ele>
        <time>2014-12-07T11:36:09Z</time>
      </trkpt>
      <trkpt lat="41.233456" lon="1.491054">
        <ele>158.6</ele>
        <time>2014-12-07T11:36:10Z</time>
      </trkpt>
      <trkpt lat="41.233463" lon="1.491035">
        <ele>159.2</ele>
        <time>2014-12-07T11:36:11Z</time>
      </trkpt>
      <trkpt lat="41.233471" lon="1.491014">
        <ele>159.2</ele>
        <time>2014-12-07T11:36:12Z</time>
      </trkpt>
      <trkpt lat="41.233509" lon="1.490904">
        <ele>159.6</ele>
        <time>2014-12-07T11:36:17Z</time>
      </trkpt>
      <trkpt lat="41.233513" lon="1.490886">
        <ele>160.0</ele>
        <time>2014-12-07T11:36:18Z</time>
      </trkpt>
      <trkpt lat="41.233513" lon="1.490861">
        <ele>160.6</ele>
        <time>2014-12-07T11:36:19Z</time>
      </trkpt>
      <trkpt lat="41.233509" lon="1.490834">
        <ele>161.0</ele>
        <time>2014-12-07T11:36:20Z</time>
      </trkpt>
      <trkpt lat="41.233501" lon="1.490808">
        <ele>161.6</ele>
        <time>2014-12-07T11:36:21Z</time>
      </trkpt>
      <trkpt lat="41.233482" lon="1.490691">
        <ele>161.6</ele>
        <time>2014-12-07T11:36:25Z</time>
      </trkpt>
      <trkpt lat="41.233418" lon="1.490693">
        <ele>161.6</ele>
        <time>2014-12-07T11:36:29Z</time>
      </trkpt>
      <trkpt lat="41.233311" lon="1.490739">
        <ele>162.0</ele>
        <time>2014-12-07T11:36:35Z</time>
      </trkpt>
      <trkpt lat="41.233292" lon="1.490749">
        <ele>162.4</ele>
        <time>2014-12-07T11:36:36Z</time>
      </trkpt>
      <trkpt lat="41.233273" lon="1.490758">
        <ele>162.8</ele>
        <time>2014-12-07T11:36:37Z</time>
      </trkpt>
      <trkpt lat="41.233253" lon="1.490771">
        <ele>163.2</ele>
        <time>2014-12-07T11:36:38Z</time>
      </trkpt>
      <trkpt lat="41.233234" lon="1.490784">
        <ele>163.8</ele>
        <time>2014-12-07T11:36:39Z</time>
      </trkpt>
      <trkpt lat="41.233139" lon="1.490823">
        <ele>163.8</ele>
        <time>2014-12-07T11:36:44Z</time>
      </trkpt>
      <trkpt lat="41.233028" lon="1.490868">
        <ele>163.8</ele>
        <time>2014-12-07T11:36:50Z</time>
      </trkpt>
      <trkpt lat="41.233009" lon="1.490876">
        <ele>164.2</ele>
        <time>2014-12-07T11:36:51Z</time>
      </trkpt>
      <trkpt lat="41.232990" lon="1.490880">
        <ele>164.6</ele>
        <time>2014-12-07T11:36:52Z</time>
      </trkpt>
      <trkpt lat="41.232975" lon="1.490883">
        <ele>165.0</ele>
        <time>2014-12-07T11:36:53Z</time>
      </trkpt>
      <trkpt lat="41.232960" lon="1.490888">
        <ele>165.4</ele>
        <time>2014-12-07T11:36:54Z</time>
      </trkpt>
      <trkpt lat="41.232944" lon="1.490896">
        <ele>165.8</ele>
        <time>2014-12-07T11:36:55Z</time>
      </trkpt>
      <trkpt lat="41.232929" lon="1.490908">
        <ele>165.8</ele>
        <time>2014-12-07T11:36:56Z</time>
      </trkpt>
      <trkpt lat="41.232845" lon="1.490998">
        <ele>165.8</ele>
        <time>2014-12-07T11:37:02Z</time>
      </trkpt>
      <trkpt lat="41.232738" lon="1.491013">
        <ele>166.2</ele>
        <time>2014-12-07T11:37:08Z</time>
      </trkpt>
      <trkpt lat="41.232723" lon="1.491012">
        <ele>166.6</ele>
        <time>2014-12-07T11:37:09Z</time>
      </trkpt>
      <trkpt lat="41.232708" lon="1.491009">
        <ele>167.2</ele>
        <time>2014-12-07T11:37:10Z</time>
      </trkpt>
      <trkpt lat="41.232689" lon="1.491015">
        <ele>168.0</ele>
        <time>2014-12-07T11:37:11Z</time>
      </trkpt>
      <trkpt lat="41.232670" lon="1.491019">
        <ele>168.0</ele>
        <time>2014-12-07T11:37:12Z</time>
      </trkpt>
      <trkpt lat="41.232651" lon="1.491017">
        <ele>168.0</ele>
        <time>2014-12-07T11:37:13Z</time>
      </trkpt>
      <trkpt lat="41.232574" lon="1.491013">
        <ele>168.0</ele>
        <time>2014-12-07T11:37:17Z</time>
      </trkpt>
      <trkpt lat="41.232559" lon="1.491005">
        <ele>168.0</ele>
        <time>2014-12-07T11:37:18Z</time>
      </trkpt>
      <trkpt lat="41.232517" lon="1.490974">
        <ele>168.0</ele>
        <time>2014-12-07T11:37:21Z</time>
      </trkpt>
      <trkpt lat="41.232506" lon="1.490966">
        <ele>168.0</ele>
        <time>2014-12-07T11:37:22Z</time>
      </trkpt>
      <trkpt lat="41.232491" lon="1.490961">
        <ele>168.0</ele>
        <time>2014-12-07T11:37:23Z</time>
      </trkpt>
      <trkpt lat="41.232456" lon="1.490959">
        <ele>168.4</ele>
        <time>2014-12-07T11:37:25Z</time>
      </trkpt>
      <trkpt lat="41.232445" lon="1.490966">
        <ele>168.8</ele>
        <time>2014-12-07T11:37:26Z</time>
      </trkpt>
      <trkpt lat="41.232426" lon="1.490966">
        <ele>169.2</ele>
        <time>2014-12-07T11:37:27Z</time>
      </trkpt>
      <trkpt lat="41.232407" lon="1.490963">
        <ele>169.6</ele>
        <time>2014-12-07T11:37:28Z</time>
      </trkpt>
      <trkpt lat="41.232391" lon="1.490954">
        <ele>170.2</ele>
        <time>2014-12-07T11:37:29Z</time>
      </trkpt>
      <trkpt lat="41.232353" lon="1.490942">
        <ele>170.2</ele>
        <time>2014-12-07T11:37:31Z</time>
      </trkpt>
      <trkpt lat="41.232273" lon="1.491030">
        <ele>170.2</ele>
        <time>2014-12-07T11:37:36Z</time>
      </trkpt>
      <trkpt lat="41.232246" lon="1.491071">
        <ele>170.2</ele>
        <time>2014-12-07T11:37:38Z</time>
      </trkpt>
      <trkpt lat="41.232224" lon="1.491090">
        <ele>170.2</ele>
        <time>2014-12-07T11:37:40Z</time>
      </trkpt>
      <trkpt lat="41.232182" lon="1.491179">
        <ele>170.6</ele>
        <time>2014-12-07T11:37:44Z</time>
      </trkpt>
      <trkpt lat="41.232182" lon="1.491201">
        <ele>171.0</ele>
        <time>2014-12-07T11:37:45Z</time>
      </trkpt>
      <trkpt lat="41.232182" lon="1.491218">
        <ele>171.4</ele>
        <time>2014-12-07T11:37:46Z</time>
      </trkpt>
      <trkpt lat="41.232182" lon="1.491241">
        <ele>171.8</ele>
        <time>2014-12-07T11:37:47Z</time>
      </trkpt>
      <trkpt lat="41.232185" lon="1.491265">
        <ele>172.2</ele>
        <time>2014-12-07T11:37:48Z</time>
      </trkpt>
      <trkpt lat="41.232174" lon="1.491374">
        <ele>172.2</ele>
        <time>2014-12-07T11:37:53Z</time>
      </trkpt>
      <trkpt lat="41.232162" lon="1.491391">
        <ele>172.6</ele>
        <time>2014-12-07T11:37:54Z</time>
      </trkpt>
      <trkpt lat="41.232147" lon="1.491402">
        <ele>173.0</ele>
        <time>2014-12-07T11:37:55Z</time>
      </trkpt>
      <trkpt lat="41.232128" lon="1.491414">
        <ele>173.6</ele>
        <time>2014-12-07T11:37:56Z</time>
      </trkpt>
      <trkpt lat="41.232113" lon="1.491429">
        <ele>174.0</ele>
        <time>2014-12-07T11:37:57Z</time>
      </trkpt>
      <trkpt lat="41.232101" lon="1.491447">
        <ele>174.6</ele>
        <time>2014-12-07T11:37:58Z</time>
      </trkpt>
      <trkpt lat="41.232090" lon="1.491467">
        <ele>175.2</ele>
        <time>2014-12-07T11:37:59Z</time>
      </trkpt>
      <trkpt lat="41.232082" lon="1.491490">
        <ele>176.4</ele>
        <time>2014-12-07T11:38:00Z</time>
      </trkpt>
      <trkpt lat="41.232082" lon="1.491511">
        <ele>177.0</ele>
        <time>2014-12-07T11:38:01Z</time>
      </trkpt>
      <trkpt lat="41.232075" lon="1.491551">
        <ele>177.0</ele>
        <time>2014-12-07T11:38:03Z</time>
      </trkpt>
      <trkpt lat="41.232056" lon="1.491582">
        <ele>177.4</ele>
        <time>2014-12-07T11:38:05Z</time>
      </trkpt>
      <trkpt lat="41.232044" lon="1.491598">
        <ele>177.8</ele>
        <time>2014-12-07T11:38:06Z</time>
      </trkpt>
      <trkpt lat="41.232037" lon="1.491616">
        <ele>178.2</ele>
        <time>2014-12-07T11:38:07Z</time>
      </trkpt>
      <trkpt lat="41.232025" lon="1.491633">
        <ele>178.6</ele>
        <time>2014-12-07T11:38:08Z</time>
      </trkpt>
      <trkpt lat="41.232014" lon="1.491649">
        <ele>179.0</ele>
        <time>2014-12-07T11:38:09Z</time>
      </trkpt>
      <trkpt lat="41.232006" lon="1.491666">
        <ele>179.6</ele>
        <time>2014-12-07T11:38:10Z</time>
      </trkpt>
      <trkpt lat="41.231995" lon="1.491674">
        <ele>180.0</ele>
        <time>2014-12-07T11:38:11Z</time>
      </trkpt>
      <trkpt lat="41.231983" lon="1.491682">
        <ele>180.6</ele>
        <time>2014-12-07T11:38:12Z</time>
      </trkpt>
      <trkpt lat="41.231968" lon="1.491692">
        <ele>181.0</ele>
        <time>2014-12-07T11:38:13Z</time>
      </trkpt>
      <trkpt lat="41.231941" lon="1.491729">
        <ele>181.0</ele>
        <time>2014-12-07T11:38:16Z</time>
      </trkpt>
      <trkpt lat="41.231911" lon="1.491752">
        <ele>181.0</ele>
        <time>2014-12-07T11:38:18Z</time>
      </trkpt>
      <trkpt lat="41.231895" lon="1.491763">
        <ele>181.6</ele>
        <time>2014-12-07T11:38:19Z</time>
      </trkpt>
      <trkpt lat="41.231884" lon="1.491774">
        <ele>182.0</ele>
        <time>2014-12-07T11:38:20Z</time>
      </trkpt>
      <trkpt lat="41.231869" lon="1.491786">
        <ele>182.4</ele>
        <time>2014-12-07T11:38:21Z</time>
      </trkpt>
      <trkpt lat="41.231857" lon="1.491802">
        <ele>182.8</ele>
        <time>2014-12-07T11:38:22Z</time>
      </trkpt>
      <trkpt lat="41.231846" lon="1.491819">
        <ele>183.2</ele>
        <time>2014-12-07T11:38:23Z</time>
      </trkpt>
      <trkpt lat="41.231831" lon="1.491863">
        <ele>183.2</ele>
        <time>2014-12-07T11:38:25Z</time>
      </trkpt>
      <trkpt lat="41.231785" lon="1.491980">
        <ele>183.2</ele>
        <time>2014-12-07T11:38:30Z</time>
      </trkpt>
      <trkpt lat="41.231758" lon="1.491996">
        <ele>183.6</ele>
        <time>2014-12-07T11:38:32Z</time>
      </trkpt>
      <trkpt lat="41.231739" lon="1.492004">
        <ele>184.0</ele>
        <time>2014-12-07T11:38:33Z</time>
      </trkpt>
      <trkpt lat="41.231731" lon="1.492016">
        <ele>184.4</ele>
        <time>2014-12-07T11:38:34Z</time>
      </trkpt>
      <trkpt lat="41.231716" lon="1.492034">
        <ele>184.8</ele>
        <time>2014-12-07T11:38:35Z</time>
      </trkpt>
      <trkpt lat="41.231701" lon="1.492051">
        <ele>185.2</ele>
        <time>2014-12-07T11:38:36Z</time>
      </trkpt>
      <trkpt lat="41.231686" lon="1.492066">
        <ele>185.2</ele>
        <time>2014-12-07T11:38:37Z</time>
      </trkpt>
      <trkpt lat="41.231670" lon="1.492072">
        <ele>185.6</ele>
        <time>2014-12-07T11:38:38Z</time>
      </trkpt>
      <trkpt lat="41.231659" lon="1.492081">
        <ele>186.0</ele>
        <time>2014-12-07T11:38:39Z</time>
      </trkpt>
      <trkpt lat="41.231644" lon="1.492093">
        <ele>186.6</ele>
        <time>2014-12-07T11:38:40Z</time>
      </trkpt>
      <trkpt lat="41.231632" lon="1.492107">
        <ele>187.0</ele>
        <time>2014-12-07T11:38:41Z</time>
      </trkpt>
      <trkpt lat="41.231613" lon="1.492122">
        <ele>187.4</ele>
        <time>2014-12-07T11:38:42Z</time>
      </trkpt>
      <trkpt lat="41.231541" lon="1.492223">
        <ele>187.8</ele>
        <time>2014-12-07T11:38:48Z</time>
      </trkpt>
      <trkpt lat="41.231533" lon="1.492239">
        <ele>188.2</ele>
        <time>2014-12-07T11:38:49Z</time>
      </trkpt>
      <trkpt lat="41.231518" lon="1.492255">
        <ele>189.0</ele>
        <time>2014-12-07T11:38:50Z</time>
      </trkpt>
      <trkpt lat="41.231503" lon="1.492270">
        <ele>189.4</ele>
        <time>2014-12-07T11:38:51Z</time>
      </trkpt>
      <trkpt lat="41.231453" lon="1.492337">
        <ele>189.8</ele>
        <time>2014-12-07T11:38:55Z</time>
      </trkpt>
      <trkpt lat="41.231438" lon="1.492347">
        <ele>190.2</ele>
        <time>2014-12-07T11:38:56Z</time>
      </trkpt>
      <trkpt lat="41.231422" lon="1.492363">
        <ele>190.6</ele>
        <time>2014-12-07T11:38:57Z</time>
      </trkpt>
      <trkpt lat="41.231415" lon="1.492369">
        <ele>191.0</ele>
        <time>2014-12-07T11:38:58Z</time>
      </trkpt>
      <trkpt lat="41.231403" lon="1.492372">
        <ele>191.6</ele>
        <time>2014-12-07T11:38:59Z</time>
      </trkpt>
      <trkpt lat="41.231384" lon="1.492387">
        <ele>191.6</ele>
        <time>2014-12-07T11:39:01Z</time>
      </trkpt>
      <trkpt lat="41.231346" lon="1.492428">
        <ele>192.0</ele>
        <time>2014-12-07T11:39:03Z</time>
      </trkpt>
      <trkpt lat="41.231331" lon="1.492454">
        <ele>192.4</ele>
        <time>2014-12-07T11:39:04Z</time>
      </trkpt>
      <trkpt lat="41.231323" lon="1.492484">
        <ele>192.8</ele>
        <time>2014-12-07T11:39:05Z</time>
      </trkpt>
      <trkpt lat="41.231308" lon="1.492517">
        <ele>193.2</ele>
        <time>2014-12-07T11:39:06Z</time>
      </trkpt>
      <trkpt lat="41.231297" lon="1.492547">
        <ele>193.6</ele>
        <time>2014-12-07T11:39:07Z</time>
      </trkpt>
      <trkpt lat="41.231216" lon="1.492647">
        <ele>193.6</ele>
        <time>2014-12-07T11:39:11Z</time>
      </trkpt>
      <trkpt lat="41.231087" lon="1.492857">
        <ele>193.6</ele>
        <time>2014-12-07T11:39:18Z</time>
      </trkpt>
      <trkpt lat="41.231075" lon="1.492884">
        <ele>193.6</ele>
        <time>2014-12-07T11:39:19Z</time>
      </trkpt>
      <trkpt lat="41.231060" lon="1.492984">
        <ele>193.6</ele>
        <time>2014-12-07T11:39:22Z</time>
      </trkpt>
      <trkpt lat="41.231052" lon="1.493187">
        <ele>193.6</ele>
        <time>2014-12-07T11:39:28Z</time>
      </trkpt>
      <trkpt lat="41.231045" lon="1.493228">
        <ele>193.6</ele>
        <time>2014-12-07T11:39:30Z</time>
      </trkpt>
      <trkpt lat="41.231026" lon="1.493254">
        <ele>193.6</ele>
        <time>2014-12-07T11:39:32Z</time>
      </trkpt>
      <trkpt lat="41.231022" lon="1.493260">
        <ele>194.0</ele>
        <time>2014-12-07T11:39:33Z</time>
      </trkpt>
      <trkpt lat="41.230927" lon="1.493305">
        <ele>195.8</ele>
        <time>2014-12-07T11:39:44Z</time>
      </trkpt>
      <trkpt lat="41.230888" lon="1.493296">
        <ele>195.8</ele>
        <time>2014-12-07T11:39:46Z</time>
      </trkpt>
      <trkpt lat="41.230827" lon="1.493290">
        <ele>195.8</ele>
        <time>2014-12-07T11:39:49Z</time>
      </trkpt>
      <trkpt lat="41.230785" lon="1.493268">
        <ele>195.8</ele>
        <time>2014-12-07T11:39:51Z</time>
      </trkpt>
      <trkpt lat="41.230766" lon="1.493263">
        <ele>196.2</ele>
        <time>2014-12-07T11:39:52Z</time>
      </trkpt>
      <trkpt lat="41.230740" lon="1.493260">
        <ele>196.6</ele>
        <time>2014-12-07T11:39:53Z</time>
      </trkpt>
      <trkpt lat="41.230717" lon="1.493254">
        <ele>197.0</ele>
        <time>2014-12-07T11:39:54Z</time>
      </trkpt>
      <trkpt lat="41.230698" lon="1.493244">
        <ele>197.4</ele>
        <time>2014-12-07T11:39:55Z</time>
      </trkpt>
      <trkpt lat="41.230675" lon="1.493234">
        <ele>198.0</ele>
        <time>2014-12-07T11:39:56Z</time>
      </trkpt>
      <trkpt lat="41.230579" lon="1.493193">
        <ele>198.0</ele>
        <time>2014-12-07T11:40:00Z</time>
      </trkpt>
      <trkpt lat="41.230484" lon="1.493170">
        <ele>198.0</ele>
        <time>2014-12-07T11:40:03Z</time>
      </trkpt>
      <trkpt lat="41.230461" lon="1.493157">
        <ele>198.0</ele>
        <time>2014-12-07T11:40:04Z</time>
      </trkpt>
      <trkpt lat="41.230423" lon="1.493116">
        <ele>198.0</ele>
        <time>2014-12-07T11:40:06Z</time>
      </trkpt>
      <trkpt lat="41.230400" lon="1.493035">
        <ele>198.0</ele>
        <time>2014-12-07T11:40:09Z</time>
      </trkpt>
      <trkpt lat="41.230366" lon="1.492958">
        <ele>198.0</ele>
        <time>2014-12-07T11:40:13Z</time>
      </trkpt>
      <trkpt lat="41.230358" lon="1.492941">
        <ele>198.4</ele>
        <time>2014-12-07T11:40:14Z</time>
      </trkpt>
      <trkpt lat="41.230350" lon="1.492920">
        <ele>198.8</ele>
        <time>2014-12-07T11:40:15Z</time>
      </trkpt>
      <trkpt lat="41.230339" lon="1.492899">
        <ele>199.2</ele>
        <time>2014-12-07T11:40:16Z</time>
      </trkpt>
      <trkpt lat="41.230331" lon="1.492877">
        <ele>199.6</ele>
        <time>2014-12-07T11:40:17Z</time>
      </trkpt>
      <trkpt lat="41.230320" lon="1.492854">
        <ele>200.0</ele>
        <time>2014-12-07T11:40:18Z</time>
      </trkpt>
      <trkpt lat="41.230305" lon="1.492836">
        <ele>200.4</ele>
        <time>2014-12-07T11:40:19Z</time>
      </trkpt>
      <trkpt lat="41.230293" lon="1.492823">
        <ele>200.8</ele>
        <time>2014-12-07T11:40:20Z</time>
      </trkpt>
      <trkpt lat="41.230278" lon="1.492808">
        <ele>201.2</ele>
        <time>2014-12-07T11:40:21Z</time>
      </trkpt>
      <trkpt lat="41.230267" lon="1.492788">
        <ele>201.8</ele>
        <time>2014-12-07T11:40:22Z</time>
      </trkpt>
      <trkpt lat="41.230259" lon="1.492766">
        <ele>202.2</ele>
        <time>2014-12-07T11:40:23Z</time>
      </trkpt>
      <trkpt lat="41.230247" lon="1.492746">
        <ele>202.8</ele>
        <time>2014-12-07T11:40:24Z</time>
      </trkpt>
      <trkpt lat="41.230236" lon="1.492730">
        <ele>203.4</ele>
        <time>2014-12-07T11:40:25Z</time>
      </trkpt>
      <trkpt lat="41.230225" lon="1.492714">
        <ele>203.8</ele>
        <time>2014-12-07T11:40:26Z</time>
      </trkpt>
      <trkpt lat="41.230213" lon="1.492701">
        <ele>204.4</ele>
        <time>2014-12-07T11:40:27Z</time>
      </trkpt>
      <trkpt lat="41.230194" lon="1.492692">
        <ele>204.8</ele>
        <time>2014-12-07T11:40:28Z</time>
      </trkpt>
      <trkpt lat="41.230179" lon="1.492681">
        <ele>205.6</ele>
        <time>2014-12-07T11:40:29Z</time>
      </trkpt>
      <trkpt lat="41.230167" lon="1.492663">
        <ele>206.0</ele>
        <time>2014-12-07T11:40:30Z</time>
      </trkpt>
      <trkpt lat="41.230152" lon="1.492645">
        <ele>206.4</ele>
        <time>2014-12-07T11:40:31Z</time>
      </trkpt>
      <trkpt lat="41.230125" lon="1.492612">
        <ele>206.8</ele>
        <time>2014-12-07T11:40:33Z</time>
      </trkpt>
      <trkpt lat="41.230114" lon="1.492595">
        <ele>207.2</ele>
        <time>2014-12-07T11:40:34Z</time>
      </trkpt>
      <trkpt lat="41.230103" lon="1.492579">
        <ele>207.6</ele>
        <time>2014-12-07T11:40:35Z</time>
      </trkpt>
      <trkpt lat="41.230091" lon="1.492561">
        <ele>208.0</ele>
        <time>2014-12-07T11:40:36Z</time>
      </trkpt>
      <trkpt lat="41.230076" lon="1.492548">
        <ele>208.4</ele>
        <time>2014-12-07T11:40:37Z</time>
      </trkpt>
      <trkpt lat="41.230064" lon="1.492532">
        <ele>208.4</ele>
        <time>2014-12-07T11:40:38Z</time>
      </trkpt>
      <trkpt lat="41.230022" lon="1.492505">
        <ele>208.8</ele>
        <time>2014-12-07T11:40:41Z</time>
      </trkpt>
      <trkpt lat="41.230015" lon="1.492494">
        <ele>209.2</ele>
        <time>2014-12-07T11:40:42Z</time>
      </trkpt>
      <trkpt lat="41.230000" lon="1.492487">
        <ele>209.8</ele>
        <time>2014-12-07T11:40:43Z</time>
      </trkpt>
      <trkpt lat="41.229984" lon="1.492478">
        <ele>210.2</ele>
        <time>2014-12-07T11:40:44Z</time>
      </trkpt>
      <trkpt lat="41.229969" lon="1.492464">
        <ele>210.6</ele>
        <time>2014-12-07T11:40:45Z</time>
      </trkpt>
      <trkpt lat="41.229927" lon="1.492437">
        <ele>210.6</ele>
        <time>2014-12-07T11:40:48Z</time>
      </trkpt>
      <trkpt lat="41.229912" lon="1.492429">
        <ele>210.6</ele>
        <time>2014-12-07T11:40:49Z</time>
      </trkpt>
      <trkpt lat="41.229877" lon="1.492418">
        <ele>211.0</ele>
        <time>2014-12-07T11:40:51Z</time>
      </trkpt>
      <trkpt lat="41.229858" lon="1.492415">
        <ele>211.4</ele>
        <time>2014-12-07T11:40:52Z</time>
      </trkpt>
      <trkpt lat="41.229843" lon="1.492411">
        <ele>211.8</ele>
        <time>2014-12-07T11:40:53Z</time>
      </trkpt>
      <trkpt lat="41.229828" lon="1.492408">
        <ele>212.8</ele>
        <time>2014-12-07T11:40:54Z</time>
      </trkpt>
      <trkpt lat="41.229816" lon="1.492402">
        <ele>212.8</ele>
        <time>2014-12-07T11:40:55Z</time>
      </trkpt>
      <trkpt lat="41.229786" lon="1.492391">
        <ele>213.2</ele>
        <time>2014-12-07T11:40:57Z</time>
      </trkpt>
      <trkpt lat="41.229771" lon="1.492383">
        <ele>213.6</ele>
        <time>2014-12-07T11:40:58Z</time>
      </trkpt>
      <trkpt lat="41.229755" lon="1.492371">
        <ele>214.0</ele>
        <time>2014-12-07T11:40:59Z</time>
      </trkpt>
      <trkpt lat="41.229744" lon="1.492353">
        <ele>214.6</ele>
        <time>2014-12-07T11:41:00Z</time>
      </trkpt>
      <trkpt lat="41.229733" lon="1.492335">
        <ele>215.0</ele>
        <time>2014-12-07T11:41:01Z</time>
      </trkpt>
      <trkpt lat="41.229687" lon="1.492279">
        <ele>215.0</ele>
        <time>2014-12-07T11:41:05Z</time>
      </trkpt>
      <trkpt lat="41.229675" lon="1.492270">
        <ele>215.4</ele>
        <time>2014-12-07T11:41:06Z</time>
      </trkpt>
      <trkpt lat="41.229656" lon="1.492258">
        <ele>215.8</ele>
        <time>2014-12-07T11:41:07Z</time>
      </trkpt>
      <trkpt lat="41.229641" lon="1.492250">
        <ele>216.2</ele>
        <time>2014-12-07T11:41:08Z</time>
      </trkpt>
      <trkpt lat="41.229626" lon="1.492249">
        <ele>216.6</ele>
        <time>2014-12-07T11:41:09Z</time>
      </trkpt>
      <trkpt lat="41.229607" lon="1.492251">
        <ele>217.0</ele>
        <time>2014-12-07T11:41:10Z</time>
      </trkpt>
      <trkpt lat="41.229591" lon="1.492259">
        <ele>217.0</ele>
        <time>2014-12-07T11:41:11Z</time>
      </trkpt>
      <trkpt lat="41.229576" lon="1.492270">
        <ele>217.4</ele>
        <time>2014-12-07T11:41:12Z</time>
      </trkpt>
      <trkpt lat="41.229561" lon="1.492280">
        <ele>217.8</ele>
        <time>2014-12-07T11:41:13Z</time>
      </trkpt>
      <trkpt lat="41.229546" lon="1.492298">
        <ele>218.2</ele>
        <time>2014-12-07T11:41:14Z</time>
      </trkpt>
      <trkpt lat="41.229530" lon="1.492309">
        <ele>218.8</ele>
        <time>2014-12-07T11:41:15Z</time>
      </trkpt>
      <trkpt lat="41.229515" lon="1.492320">
        <ele>219.2</ele>
        <time>2014-12-07T11:41:16Z</time>
      </trkpt>
      <trkpt lat="41.229500" lon="1.492328">
        <ele>219.2</ele>
        <time>2014-12-07T11:41:17Z</time>
      </trkpt>
      <trkpt lat="41.229416" lon="1.492349">
        <ele>219.2</ele>
        <time>2014-12-07T11:41:22Z</time>
      </trkpt>
      <trkpt lat="41.229378" lon="1.492347">
        <ele>219.6</ele>
        <time>2014-12-07T11:41:25Z</time>
      </trkpt>
      <trkpt lat="41.229362" lon="1.492342">
        <ele>220.0</ele>
        <time>2014-12-07T11:41:26Z</time>
      </trkpt>
      <trkpt lat="41.229343" lon="1.492341">
        <ele>220.4</ele>
        <time>2014-12-07T11:41:27Z</time>
      </trkpt>
      <trkpt lat="41.229324" lon="1.492339">
        <ele>220.8</ele>
        <time>2014-12-07T11:41:28Z</time>
      </trkpt>
      <trkpt lat="41.229305" lon="1.492337">
        <ele>221.4</ele>
        <time>2014-12-07T11:41:29Z</time>
      </trkpt>
      <trkpt lat="41.229290" lon="1.492327">
        <ele>221.4</ele>
        <time>2014-12-07T11:41:30Z</time>
      </trkpt>
      <trkpt lat="41.229244" lon="1.492292">
        <ele>221.4</ele>
        <time>2014-12-07T11:41:33Z</time>
      </trkpt>
      <trkpt lat="41.229202" lon="1.492280">
        <ele>221.4</ele>
        <time>2014-12-07T11:41:35Z</time>
      </trkpt>
      <trkpt lat="41.229134" lon="1.492247">
        <ele>221.4</ele>
        <time>2014-12-07T11:41:38Z</time>
      </trkpt>
      <trkpt lat="41.229095" lon="1.492232">
        <ele>221.4</ele>
        <time>2014-12-07T11:41:40Z</time>
      </trkpt>
      <trkpt lat="41.229050" lon="1.492247">
        <ele>221.4</ele>
        <time>2014-12-07T11:41:42Z</time>
      </trkpt>
      <trkpt lat="41.229019" lon="1.492255">
        <ele>221.0</ele>
        <time>2014-12-07T11:41:43Z</time>
      </trkpt>
      <trkpt lat="41.228989" lon="1.492260">
        <ele>220.6</ele>
        <time>2014-12-07T11:41:44Z</time>
      </trkpt>
      <trkpt lat="41.228958" lon="1.492271">
        <ele>220.2</ele>
        <time>2014-12-07T11:41:45Z</time>
      </trkpt>
      <trkpt lat="41.228928" lon="1.492272">
        <ele>219.6</ele>
        <time>2014-12-07T11:41:46Z</time>
      </trkpt>
      <trkpt lat="41.228901" lon="1.492272">
        <ele>219.2</ele>
        <time>2014-12-07T11:41:47Z</time>
      </trkpt>
      <trkpt lat="41.228867" lon="1.492277">
        <ele>218.6</ele>
        <time>2014-12-07T11:41:48Z</time>
      </trkpt>
      <trkpt lat="41.228828" lon="1.492286">
        <ele>218.0</ele>
        <time>2014-12-07T11:41:49Z</time>
      </trkpt>
      <trkpt lat="41.228790" lon="1.492295">
        <ele>217.4</ele>
        <time>2014-12-07T11:41:50Z</time>
      </trkpt>
      <trkpt lat="41.228752" lon="1.492304">
        <ele>216.8</ele>
        <time>2014-12-07T11:41:51Z</time>
      </trkpt>
      <trkpt lat="41.228683" lon="1.492328">
        <ele>216.4</ele>
        <time>2014-12-07T11:41:53Z</time>
      </trkpt>
      <trkpt lat="41.228653" lon="1.492345">
        <ele>216.0</ele>
        <time>2014-12-07T11:41:54Z</time>
      </trkpt>
      <trkpt lat="41.228626" lon="1.492356">
        <ele>215.6</ele>
        <time>2014-12-07T11:41:55Z</time>
      </trkpt>
      <trkpt lat="41.228596" lon="1.492359">
        <ele>215.2</ele>
        <time>2014-12-07T11:41:56Z</time>
      </trkpt>
      <trkpt lat="41.228561" lon="1.492363">
        <ele>214.8</ele>
        <time>2014-12-07T11:41:57Z</time>
      </trkpt>
      <trkpt lat="41.228485" lon="1.492382">
        <ele>214.4</ele>
        <time>2014-12-07T11:41:59Z</time>
      </trkpt>
      <trkpt lat="41.228451" lon="1.492390">
        <ele>214.0</ele>
        <time>2014-12-07T11:42:00Z</time>
      </trkpt>
      <trkpt lat="41.228428" lon="1.492392">
        <ele>213.6</ele>
        <time>2014-12-07T11:42:01Z</time>
      </trkpt>
      <trkpt lat="41.228413" lon="1.492383">
        <ele>213.2</ele>
        <time>2014-12-07T11:42:02Z</time>
      </trkpt>
      <trkpt lat="41.228401" lon="1.492361">
        <ele>212.6</ele>
        <time>2014-12-07T11:42:03Z</time>
      </trkpt>
      <trkpt lat="41.228390" lon="1.492334">
        <ele>212.6</ele>
        <time>2014-12-07T11:42:04Z</time>
      </trkpt>
      <trkpt lat="41.228378" lon="1.492252">
        <ele>212.2</ele>
        <time>2014-12-07T11:42:06Z</time>
      </trkpt>
      <trkpt lat="41.228374" lon="1.492203">
        <ele>211.8</ele>
        <time>2014-12-07T11:42:07Z</time>
      </trkpt>
      <trkpt lat="41.228359" lon="1.492166">
        <ele>210.8</ele>
        <time>2014-12-07T11:42:08Z</time>
      </trkpt>
      <trkpt lat="41.228344" lon="1.492134">
        <ele>210.0</ele>
        <time>2014-12-07T11:42:09Z</time>
      </trkpt>
      <trkpt lat="41.228325" lon="1.492101">
        <ele>209.4</ele>
        <time>2014-12-07T11:42:10Z</time>
      </trkpt>
      <trkpt lat="41.228302" lon="1.492076">
        <ele>208.8</ele>
        <time>2014-12-07T11:42:11Z</time>
      </trkpt>
      <trkpt lat="41.228279" lon="1.492054">
        <ele>208.2</ele>
        <time>2014-12-07T11:42:12Z</time>
      </trkpt>
      <trkpt lat="41.228252" lon="1.492027">
        <ele>207.6</ele>
        <time>2014-12-07T11:42:13Z</time>
      </trkpt>
      <trkpt lat="41.228222" lon="1.491990">
        <ele>207.0</ele>
        <time>2014-12-07T11:42:14Z</time>
      </trkpt>
      <trkpt lat="41.228188" lon="1.491956">
        <ele>206.4</ele>
        <time>2014-12-07T11:42:15Z</time>
      </trkpt>
      <trkpt lat="41.228153" lon="1.491921">
        <ele>205.8</ele>
        <time>2014-12-07T11:42:16Z</time>
      </trkpt>
      <trkpt lat="41.228123" lon="1.491885">
        <ele>205.4</ele>
        <time>2014-12-07T11:42:17Z</time>
      </trkpt>
      <trkpt lat="41.228092" lon="1.491834">
        <ele>205.0</ele>
        <time>2014-12-07T11:42:18Z</time>
      </trkpt>
      <trkpt lat="41.228069" lon="1.491783">
        <ele>204.6</ele>
        <time>2014-12-07T11:42:19Z</time>
      </trkpt>
      <trkpt lat="41.228043" lon="1.491748">
        <ele>204.2</ele>
        <time>2014-12-07T11:42:20Z</time>
      </trkpt>
      <trkpt lat="41.228012" lon="1.491715">
        <ele>203.8</ele>
        <time>2014-12-07T11:42:21Z</time>
      </trkpt>
      <trkpt lat="41.227989" lon="1.491675">
        <ele>203.8</ele>
        <time>2014-12-07T11:42:22Z</time>
      </trkpt>
      <trkpt lat="41.227928" lon="1.491565">
        <ele>203.8</ele>
        <time>2014-12-07T11:42:26Z</time>
      </trkpt>
      <trkpt lat="41.227909" lon="1.491559">
        <ele>203.8</ele>
        <time>2014-12-07T11:42:27Z</time>
      </trkpt>
      <trkpt lat="41.227802" lon="1.491585">
        <ele>203.8</ele>
        <time>2014-12-07T11:42:31Z</time>
      </trkpt>
      <trkpt lat="41.227737" lon="1.491546">
        <ele>203.8</ele>
        <time>2014-12-07T11:42:33Z</time>
      </trkpt>
      <trkpt lat="41.227585" lon="1.491472">
        <ele>203.8</ele>
        <time>2014-12-07T11:42:37Z</time>
      </trkpt>
      <trkpt lat="41.227547" lon="1.491441">
        <ele>203.8</ele>
        <time>2014-12-07T11:42:38Z</time>
      </trkpt>
      <trkpt lat="41.227448" lon="1.491328">
        <ele>203.8</ele>
        <time>2014-12-07T11:42:41Z</time>
      </trkpt>
      <trkpt lat="41.227413" lon="1.491294">
        <ele>203.4</ele>
        <time>2014-12-07T11:42:42Z</time>
      </trkpt>
      <trkpt lat="41.227386" lon="1.491260">
        <ele>202.8</ele>
        <time>2014-12-07T11:42:43Z</time>
      </trkpt>
      <trkpt lat="41.227360" lon="1.491239">
        <ele>202.4</ele>
        <time>2014-12-07T11:42:44Z</time>
      </trkpt>
      <trkpt lat="41.227329" lon="1.491234">
        <ele>202.0</ele>
        <time>2014-12-07T11:42:45Z</time>
      </trkpt>
      <trkpt lat="41.227303" lon="1.491229">
        <ele>201.4</ele>
        <time>2014-12-07T11:42:46Z</time>
      </trkpt>
      <trkpt lat="41.227253" lon="1.491261">
        <ele>201.4</ele>
        <time>2014-12-07T11:42:49Z</time>
      </trkpt>
      <trkpt lat="41.227242" lon="1.491290">
        <ele>201.0</ele>
        <time>2014-12-07T11:42:50Z</time>
      </trkpt>
      <trkpt lat="41.227234" lon="1.491319">
        <ele>200.6</ele>
        <time>2014-12-07T11:42:51Z</time>
      </trkpt>
      <trkpt lat="41.227226" lon="1.491349">
        <ele>200.0</ele>
        <time>2014-12-07T11:42:52Z</time>
      </trkpt>
      <trkpt lat="41.227219" lon="1.491371">
        <ele>199.6</ele>
        <time>2014-12-07T11:42:53Z</time>
      </trkpt>
      <trkpt lat="41.227203" lon="1.491383">
        <ele>199.2</ele>
        <time>2014-12-07T11:42:54Z</time>
      </trkpt>
      <trkpt lat="41.227177" lon="1.491416">
        <ele>199.2</ele>
        <time>2014-12-07T11:42:57Z</time>
      </trkpt>
      <trkpt lat="41.227119" lon="1.491540">
        <ele>194.8</ele>
        <time>2014-12-07T11:43:19Z</time>
      </trkpt>
      <trkpt lat="41.227108" lon="1.491556">
        <ele>194.8</ele>
        <time>2014-12-07T11:43:20Z</time>
      </trkpt>
      <trkpt lat="41.227077" lon="1.491590">
        <ele>194.8</ele>
        <time>2014-12-07T11:43:22Z</time>
      </trkpt>
      <trkpt lat="41.226994" lon="1.491644">
        <ele>194.8</ele>
        <time>2014-12-07T11:43:25Z</time>
      </trkpt>
      <trkpt lat="41.226868" lon="1.491668">
        <ele>194.8</ele>
        <time>2014-12-07T11:43:29Z</time>
      </trkpt>
      <trkpt lat="41.226768" lon="1.491633">
        <ele>194.4</ele>
        <time>2014-12-07T11:43:32Z</time>
      </trkpt>
      <trkpt lat="41.226734" lon="1.491630">
        <ele>194.0</ele>
        <time>2014-12-07T11:43:33Z</time>
      </trkpt>
      <trkpt lat="41.226692" lon="1.491617">
        <ele>193.6</ele>
        <time>2014-12-07T11:43:34Z</time>
      </trkpt>
      <trkpt lat="41.226662" lon="1.491606">
        <ele>193.2</ele>
        <time>2014-12-07T11:43:35Z</time>
      </trkpt>
      <trkpt lat="41.226635" lon="1.491603">
        <ele>192.6</ele>
        <time>2014-12-07T11:43:36Z</time>
      </trkpt>
      <trkpt lat="41.226620" lon="1.491610">
        <ele>192.6</ele>
        <time>2014-12-07T11:43:37Z</time>
      </trkpt>
      <trkpt lat="41.226597" lon="1.491663">
        <ele>192.2</ele>
        <time>2014-12-07T11:43:40Z</time>
      </trkpt>
      <trkpt lat="41.226597" lon="1.491685">
        <ele>191.6</ele>
        <time>2014-12-07T11:43:41Z</time>
      </trkpt>
      <trkpt lat="41.226597" lon="1.491718">
        <ele>191.2</ele>
        <time>2014-12-07T11:43:42Z</time>
      </trkpt>
      <trkpt lat="41.226601" lon="1.491749">
        <ele>190.6</ele>
        <time>2014-12-07T11:43:43Z</time>
      </trkpt>
      <trkpt lat="41.226608" lon="1.491780">
        <ele>190.0</ele>
        <time>2014-12-07T11:43:44Z</time>
      </trkpt>
      <trkpt lat="41.226616" lon="1.491808">
        <ele>189.6</ele>
        <time>2014-12-07T11:43:45Z</time>
      </trkpt>
      <trkpt lat="41.226624" lon="1.491836">
        <ele>189.0</ele>
        <time>2014-12-07T11:43:46Z</time>
      </trkpt>
      <trkpt lat="41.226627" lon="1.491858">
        <ele>188.0</ele>
        <time>2014-12-07T11:43:47Z</time>
      </trkpt>
      <trkpt lat="41.226624" lon="1.491871">
        <ele>187.4</ele>
        <time>2014-12-07T11:43:48Z</time>
      </trkpt>
      <trkpt lat="41.226608" lon="1.491879">
        <ele>186.8</ele>
        <time>2014-12-07T11:43:49Z</time>
      </trkpt>
      <trkpt lat="41.226593" lon="1.491895">
        <ele>186.2</ele>
        <time>2014-12-07T11:43:50Z</time>
      </trkpt>
      <trkpt lat="41.226578" lon="1.491906">
        <ele>185.6</ele>
        <time>2014-12-07T11:43:51Z</time>
      </trkpt>
      <trkpt lat="41.226555" lon="1.491951">
        <ele>185.0</ele>
        <time>2014-12-07T11:43:53Z</time>
      </trkpt>
      <trkpt lat="41.226536" lon="1.491972">
        <ele>184.6</ele>
        <time>2014-12-07T11:43:54Z</time>
      </trkpt>
      <trkpt lat="41.226517" lon="1.491986">
        <ele>184.0</ele>
        <time>2014-12-07T11:43:55Z</time>
      </trkpt>
      <trkpt lat="41.226498" lon="1.491995">
        <ele>183.4</ele>
        <time>2014-12-07T11:43:56Z</time>
      </trkpt>
      <trkpt lat="41.226486" lon="1.492011">
        <ele>182.8</ele>
        <time>2014-12-07T11:43:57Z</time>
      </trkpt>
      <trkpt lat="41.226482" lon="1.492029">
        <ele>182.2</ele>
        <time>2014-12-07T11:43:58Z</time>
      </trkpt>
      <trkpt lat="41.226490" lon="1.492048">
        <ele>181.6</ele>
        <time>2014-12-07T11:43:59Z</time>
      </trkpt>
      <trkpt lat="41.226498" lon="1.492070">
        <ele>181.0</ele>
        <time>2014-12-07T11:44:00Z</time>
      </trkpt>
      <trkpt lat="41.226509" lon="1.492100">
        <ele>180.4</ele>
        <time>2014-12-07T11:44:01Z</time>
      </trkpt>
      <trkpt lat="41.226517" lon="1.492127">
        <ele>180.0</ele>
        <time>2014-12-07T11:44:02Z</time>
      </trkpt>
      <trkpt lat="41.226524" lon="1.492153">
        <ele>179.6</ele>
        <time>2014-12-07T11:44:03Z</time>
      </trkpt>
      <trkpt lat="41.226543" lon="1.492199">
        <ele>179.0</ele>
        <time>2014-12-07T11:44:04Z</time>
      </trkpt>
      <trkpt lat="41.226555" lon="1.492259">
        <ele>178.2</ele>
        <time>2014-12-07T11:44:05Z</time>
      </trkpt>
      <trkpt lat="41.226563" lon="1.492326">
        <ele>177.6</ele>
        <time>2014-12-07T11:44:06Z</time>
      </trkpt>
      <trkpt lat="41.226559" lon="1.492390">
        <ele>177.0</ele>
        <time>2014-12-07T11:44:07Z</time>
      </trkpt>
      <trkpt lat="41.226547" lon="1.492455">
        <ele>176.4</ele>
        <time>2014-12-07T11:44:08Z</time>
      </trkpt>
      <trkpt lat="41.226543" lon="1.492554">
        <ele>176.4</ele>
        <time>2014-12-07T11:44:10Z</time>
      </trkpt>
      <trkpt lat="41.226532" lon="1.492579">
        <ele>176.0</ele>
        <time>2014-12-07T11:44:11Z</time>
      </trkpt>
      <trkpt lat="41.226521" lon="1.492597">
        <ele>175.4</ele>
        <time>2014-12-07T11:44:12Z</time>
      </trkpt>
      <trkpt lat="41.226501" lon="1.492620">
        <ele>175.0</ele>
        <time>2014-12-07T11:44:13Z</time>
      </trkpt>
      <trkpt lat="41.226482" lon="1.492646">
        <ele>174.6</ele>
        <time>2014-12-07T11:44:14Z</time>
      </trkpt>
      <trkpt lat="41.226460" lon="1.492679">
        <ele>174.2</ele>
        <time>2014-12-07T11:44:15Z</time>
      </trkpt>
      <trkpt lat="41.226433" lon="1.492739">
        <ele>173.8</ele>
        <time>2014-12-07T11:44:17Z</time>
      </trkpt>
      <trkpt lat="41.226414" lon="1.492770">
        <ele>173.4</ele>
        <time>2014-12-07T11:44:18Z</time>
      </trkpt>
      <trkpt lat="41.226387" lon="1.492805">
        <ele>172.8</ele>
        <time>2014-12-07T11:44:19Z</time>
      </trkpt>
      <trkpt lat="41.226357" lon="1.492845">
        <ele>172.4</ele>
        <time>2014-12-07T11:44:20Z</time>
      </trkpt>
      <trkpt lat="41.226322" lon="1.492894">
        <ele>172.0</ele>
        <time>2014-12-07T11:44:21Z</time>
      </trkpt>
      <trkpt lat="41.226292" lon="1.492947">
        <ele>171.6</ele>
        <time>2014-12-07T11:44:22Z</time>
      </trkpt>
      <trkpt lat="41.226261" lon="1.493003">
        <ele>171.2</ele>
        <time>2014-12-07T11:44:23Z</time>
      </trkpt>
      <trkpt lat="41.226238" lon="1.493065">
        <ele>170.6</ele>
        <time>2014-12-07T11:44:24Z</time>
      </trkpt>
      <trkpt lat="41.226219" lon="1.493135">
        <ele>170.2</ele>
        <time>2014-12-07T11:44:25Z</time>
      </trkpt>
      <trkpt lat="41.226200" lon="1.493210">
        <ele>169.8</ele>
        <time>2014-12-07T11:44:26Z</time>
      </trkpt>
      <trkpt lat="41.226185" lon="1.493282">
        <ele>169.4</ele>
        <time>2014-12-07T11:44:27Z</time>
      </trkpt>
      <trkpt lat="41.226158" lon="1.493351">
        <ele>168.8</ele>
        <time>2014-12-07T11:44:28Z</time>
      </trkpt>
      <trkpt lat="41.226124" lon="1.493416">
        <ele>168.4</ele>
        <time>2014-12-07T11:44:29Z</time>
      </trkpt>
      <trkpt lat="41.226074" lon="1.493490">
        <ele>167.8</ele>
        <time>2014-12-07T11:44:30Z</time>
      </trkpt>
      <trkpt lat="41.226040" lon="1.493550">
        <ele>167.4</ele>
        <time>2014-12-07T11:44:31Z</time>
      </trkpt>
      <trkpt lat="41.225979" lon="1.493641">
        <ele>167.0</ele>
        <time>2014-12-07T11:44:33Z</time>
      </trkpt>
      <trkpt lat="41.225952" lon="1.493676">
        <ele>166.4</ele>
        <time>2014-12-07T11:44:34Z</time>
      </trkpt>
      <trkpt lat="41.225929" lon="1.493711">
        <ele>166.0</ele>
        <time>2014-12-07T11:44:35Z</time>
      </trkpt>
      <trkpt lat="41.225910" lon="1.493754">
        <ele>165.2</ele>
        <time>2014-12-07T11:44:36Z</time>
      </trkpt>
      <trkpt lat="41.225895" lon="1.493806">
        <ele>163.8</ele>
        <time>2014-12-07T11:44:37Z</time>
      </trkpt>
      <trkpt lat="41.225868" lon="1.493854">
        <ele>163.0</ele>
        <time>2014-12-07T11:44:38Z</time>
      </trkpt>
      <trkpt lat="41.225838" lon="1.493899">
        <ele>162.2</ele>
        <time>2014-12-07T11:44:39Z</time>
      </trkpt>
      <trkpt lat="41.225803" lon="1.493938">
        <ele>161.2</ele>
        <time>2014-12-07T11:44:40Z</time>
      </trkpt>
      <trkpt lat="41.225758" lon="1.493966">
        <ele>160.6</ele>
        <time>2014-12-07T11:44:41Z</time>
      </trkpt>
      <trkpt lat="41.225712" lon="1.494001">
        <ele>159.8</ele>
        <time>2014-12-07T11:44:42Z</time>
      </trkpt>
      <trkpt lat="41.225662" lon="1.494044">
        <ele>159.0</ele>
        <time>2014-12-07T11:44:43Z</time>
      </trkpt>
      <trkpt lat="41.225620" lon="1.494095">
        <ele>158.2</ele>
        <time>2014-12-07T11:44:44Z</time>
      </trkpt>
      <trkpt lat="41.225582" lon="1.494148">
        <ele>157.6</ele>
        <time>2014-12-07T11:44:45Z</time>
      </trkpt>
      <trkpt lat="41.225552" lon="1.494186">
        <ele>157.0</ele>
        <time>2014-12-07T11:44:46Z</time>
      </trkpt>
      <trkpt lat="41.225513" lon="1.494225">
        <ele>156.2</ele>
        <time>2014-12-07T11:44:47Z</time>
      </trkpt>
      <trkpt lat="41.225479" lon="1.494267">
        <ele>155.6</ele>
        <time>2014-12-07T11:44:48Z</time>
      </trkpt>
      <trkpt lat="41.225441" lon="1.494312">
        <ele>155.0</ele>
        <time>2014-12-07T11:44:49Z</time>
      </trkpt>
      <trkpt lat="41.225315" lon="1.494435">
        <ele>154.4</ele>
        <time>2014-12-07T11:44:52Z</time>
      </trkpt>
      <trkpt lat="41.225277" lon="1.494476">
        <ele>154.0</ele>
        <time>2014-12-07T11:44:53Z</time>
      </trkpt>
      <trkpt lat="41.225239" lon="1.494511">
        <ele>153.4</ele>
        <time>2014-12-07T11:44:54Z</time>
      </trkpt>
      <trkpt lat="41.225197" lon="1.494525">
        <ele>153.0</ele>
        <time>2014-12-07T11:44:55Z</time>
      </trkpt>
      <trkpt lat="41.225163" lon="1.494525">
        <ele>152.4</ele>
        <time>2014-12-07T11:44:56Z</time>
      </trkpt>
      <trkpt lat="41.225117" lon="1.494519">
        <ele>151.8</ele>
        <time>2014-12-07T11:44:57Z</time>
      </trkpt>
      <trkpt lat="41.225071" lon="1.494514">
        <ele>151.2</ele>
        <time>2014-12-07T11:44:58Z</time>
      </trkpt>
      <trkpt lat="41.225021" lon="1.494504">
        <ele>150.6</ele>
        <time>2014-12-07T11:44:59Z</time>
      </trkpt>
      <trkpt lat="41.224979" lon="1.494493">
        <ele>150.0</ele>
        <time>2014-12-07T11:45:00Z</time>
      </trkpt>
      <trkpt lat="41.224941" lon="1.494492">
        <ele>150.0</ele>
        <time>2014-12-07T11:45:01Z</time>
      </trkpt>
      <trkpt lat="41.224899" lon="1.494499">
        <ele>149.4</ele>
        <time>2014-12-07T11:45:02Z</time>
      </trkpt>
      <trkpt lat="41.224854" lon="1.494513">
        <ele>149.0</ele>
        <time>2014-12-07T11:45:03Z</time>
      </trkpt>
      <trkpt lat="41.224812" lon="1.494535">
        <ele>148.6</ele>
        <time>2014-12-07T11:45:04Z</time>
      </trkpt>
      <trkpt lat="41.224770" lon="1.494559">
        <ele>148.2</ele>
        <time>2014-12-07T11:45:05Z</time>
      </trkpt>
      <trkpt lat="41.224731" lon="1.494586">
        <ele>147.8</ele>
        <time>2014-12-07T11:45:06Z</time>
      </trkpt>
      <trkpt lat="41.224693" lon="1.494612">
        <ele>147.2</ele>
        <time>2014-12-07T11:45:07Z</time>
      </trkpt>
      <trkpt lat="41.224648" lon="1.494639">
        <ele>146.6</ele>
        <time>2014-12-07T11:45:08Z</time>
      </trkpt>
      <trkpt lat="41.224609" lon="1.494666">
        <ele>146.2</ele>
        <time>2014-12-07T11:45:09Z</time>
      </trkpt>
      <trkpt lat="41.224567" lon="1.494694">
        <ele>145.6</ele>
        <time>2014-12-07T11:45:10Z</time>
      </trkpt>
      <trkpt lat="41.224529" lon="1.494718">
        <ele>145.6</ele>
        <time>2014-12-07T11:45:11Z</time>
      </trkpt>
      <trkpt lat="41.224445" lon="1.494721">
        <ele>145.2</ele>
        <time>2014-12-07T11:45:13Z</time>
      </trkpt>
      <trkpt lat="41.224403" lon="1.494700">
        <ele>144.8</ele>
        <time>2014-12-07T11:45:14Z</time>
      </trkpt>
      <trkpt lat="41.224361" lon="1.494676">
        <ele>144.4</ele>
        <time>2014-12-07T11:45:15Z</time>
      </trkpt>
      <trkpt lat="41.224323" lon="1.494657">
        <ele>143.8</ele>
        <time>2014-12-07T11:45:16Z</time>
      </trkpt>
      <trkpt lat="41.224277" lon="1.494637">
        <ele>143.4</ele>
        <time>2014-12-07T11:45:17Z</time>
      </trkpt>
      <trkpt lat="41.224236" lon="1.494625">
        <ele>143.4</ele>
        <time>2014-12-07T11:45:18Z</time>
      </trkpt>
      <trkpt lat="41.224194" lon="1.494628">
        <ele>143.0</ele>
        <time>2014-12-07T11:45:19Z</time>
      </trkpt>
      <trkpt lat="41.224152" lon="1.494641">
        <ele>142.6</ele>
        <time>2014-12-07T11:45:20Z</time>
      </trkpt>
      <trkpt lat="41.224121" lon="1.494661">
        <ele>142.2</ele>
        <time>2014-12-07T11:45:21Z</time>
      </trkpt>
      <trkpt lat="41.224098" lon="1.494684">
        <ele>141.6</ele>
        <time>2014-12-07T11:45:22Z</time>
      </trkpt>
      <trkpt lat="41.224079" lon="1.494717">
        <ele>141.2</ele>
        <time>2014-12-07T11:45:23Z</time>
      </trkpt>
      <trkpt lat="41.224068" lon="1.494768">
        <ele>140.6</ele>
        <time>2014-12-07T11:45:24Z</time>
      </trkpt>
      <trkpt lat="41.224060" lon="1.494826">
        <ele>140.0</ele>
        <time>2014-12-07T11:45:25Z</time>
      </trkpt>
      <trkpt lat="41.224060" lon="1.494890">
        <ele>139.0</ele>
        <time>2014-12-07T11:45:26Z</time>
      </trkpt>
      <trkpt lat="41.224068" lon="1.494952">
        <ele>138.6</ele>
        <time>2014-12-07T11:45:27Z</time>
      </trkpt>
      <trkpt lat="41.224072" lon="1.495017">
        <ele>138.2</ele>
        <time>2014-12-07T11:45:28Z</time>
      </trkpt>
      <trkpt lat="41.224079" lon="1.495077">
        <ele>137.8</ele>
        <time>2014-12-07T11:45:29Z</time>
      </trkpt>
      <trkpt lat="41.224075" lon="1.495133">
        <ele>137.4</ele>
        <time>2014-12-07T11:45:30Z</time>
      </trkpt>
      <trkpt lat="41.224018" lon="1.495336">
        <ele>136.8</ele>
        <time>2014-12-07T11:45:34Z</time>
      </trkpt>
      <trkpt lat="41.223988" lon="1.495376">
        <ele>136.4</ele>
        <time>2014-12-07T11:45:35Z</time>
      </trkpt>
      <trkpt lat="41.223961" lon="1.495423">
        <ele>136.0</ele>
        <time>2014-12-07T11:45:36Z</time>
      </trkpt>
      <trkpt lat="41.223934" lon="1.495469">
        <ele>135.4</ele>
        <time>2014-12-07T11:45:37Z</time>
      </trkpt>
      <trkpt lat="41.223904" lon="1.495514">
        <ele>135.0</ele>
        <time>2014-12-07T11:45:38Z</time>
      </trkpt>
      <trkpt lat="41.223869" lon="1.495561">
        <ele>134.6</ele>
        <time>2014-12-07T11:45:39Z</time>
      </trkpt>
      <trkpt lat="41.223835" lon="1.495607">
        <ele>134.2</ele>
        <time>2014-12-07T11:45:40Z</time>
      </trkpt>
      <trkpt lat="41.223804" lon="1.495654">
        <ele>133.8</ele>
        <time>2014-12-07T11:45:41Z</time>
      </trkpt>
      <trkpt lat="41.223774" lon="1.495705">
        <ele>133.4</ele>
        <time>2014-12-07T11:45:42Z</time>
      </trkpt>
      <trkpt lat="41.223743" lon="1.495753">
        <ele>133.0</ele>
        <time>2014-12-07T11:45:43Z</time>
      </trkpt>
      <trkpt lat="41.223713" lon="1.495795">
        <ele>133.0</ele>
        <time>2014-12-07T11:45:44Z</time>
      </trkpt>
      <trkpt lat="41.223679" lon="1.495818">
        <ele>133.0</ele>
        <time>2014-12-07T11:45:45Z</time>
      </trkpt>
      <trkpt lat="41.223572" lon="1.495834">
        <ele>132.6</ele>
        <time>2014-12-07T11:45:48Z</time>
      </trkpt>
      <trkpt lat="41.223549" lon="1.495826">
        <ele>132.0</ele>
        <time>2014-12-07T11:45:49Z</time>
      </trkpt>
      <trkpt lat="41.223522" lon="1.495806">
        <ele>131.6</ele>
        <time>2014-12-07T11:45:50Z</time>
      </trkpt>
      <trkpt lat="41.223495" lon="1.495779">
        <ele>130.6</ele>
        <time>2014-12-07T11:45:51Z</time>
      </trkpt>
      <trkpt lat="41.223480" lon="1.495740">
        <ele>130.2</ele>
        <time>2014-12-07T11:45:52Z</time>
      </trkpt>
      <trkpt lat="41.223465" lon="1.495692">
        <ele>129.8</ele>
        <time>2014-12-07T11:45:53Z</time>
      </trkpt>
      <trkpt lat="41.223450" lon="1.495639">
        <ele>129.4</ele>
        <time>2014-12-07T11:45:54Z</time>
      </trkpt>
      <trkpt lat="41.223427" lon="1.495594">
        <ele>129.0</ele>
        <time>2014-12-07T11:45:55Z</time>
      </trkpt>
      <trkpt lat="41.223404" lon="1.495557">
        <ele>128.6</ele>
        <time>2014-12-07T11:45:56Z</time>
      </trkpt>
      <trkpt lat="41.223373" lon="1.495532">
        <ele>128.6</ele>
        <time>2014-12-07T11:45:57Z</time>
      </trkpt>
      <trkpt lat="41.223217" lon="1.495475">
        <ele>128.6</ele>
        <time>2014-12-07T11:46:01Z</time>
      </trkpt>
      <trkpt lat="41.223064" lon="1.495532">
        <ele>128.6</ele>
        <time>2014-12-07T11:46:05Z</time>
      </trkpt>
      <trkpt lat="41.223030" lon="1.495565">
        <ele>128.2</ele>
        <time>2014-12-07T11:46:06Z</time>
      </trkpt>
      <trkpt lat="41.222992" lon="1.495598">
        <ele>127.8</ele>
        <time>2014-12-07T11:46:07Z</time>
      </trkpt>
      <trkpt lat="41.222961" lon="1.495635">
        <ele>127.4</ele>
        <time>2014-12-07T11:46:08Z</time>
      </trkpt>
      <trkpt lat="41.222927" lon="1.495674">
        <ele>127.0</ele>
        <time>2014-12-07T11:46:09Z</time>
      </trkpt>
      <trkpt lat="41.222904" lon="1.495718">
        <ele>126.6</ele>
        <time>2014-12-07T11:46:10Z</time>
      </trkpt>
      <trkpt lat="41.222878" lon="1.495764">
        <ele>126.6</ele>
        <time>2014-12-07T11:46:11Z</time>
      </trkpt>
      <trkpt lat="41.222858" lon="1.495810">
        <ele>126.2</ele>
        <time>2014-12-07T11:46:12Z</time>
      </trkpt>
      <trkpt lat="41.222832" lon="1.495848">
        <ele>125.6</ele>
        <time>2014-12-07T11:46:13Z</time>
      </trkpt>
      <trkpt lat="41.222805" lon="1.495878">
        <ele>125.2</ele>
        <time>2014-12-07T11:46:14Z</time>
      </trkpt>
      <trkpt lat="41.222771" lon="1.495907">
        <ele>124.4</ele>
        <time>2014-12-07T11:46:15Z</time>
      </trkpt>
      <trkpt lat="41.222736" lon="1.495942">
        <ele>124.4</ele>
        <time>2014-12-07T11:46:16Z</time>
      </trkpt>
      <trkpt lat="41.222637" lon="1.496140">
        <ele>124.4</ele>
        <time>2014-12-07T11:46:20Z</time>
      </trkpt>
      <trkpt lat="41.222679" lon="1.496310">
        <ele>123.8</ele>
        <time>2014-12-07T11:46:23Z</time>
      </trkpt>
      <trkpt lat="41.222706" lon="1.496375">
        <ele>123.4</ele>
        <time>2014-12-07T11:46:24Z</time>
      </trkpt>
      <trkpt lat="41.222729" lon="1.496431">
        <ele>122.8</ele>
        <time>2014-12-07T11:46:25Z</time>
      </trkpt>
      <trkpt lat="41.222759" lon="1.496475">
        <ele>122.4</ele>
        <time>2014-12-07T11:46:26Z</time>
      </trkpt>
      <trkpt lat="41.222786" lon="1.496505">
        <ele>121.8</ele>
        <time>2014-12-07T11:46:27Z</time>
      </trkpt>
      <trkpt lat="41.222858" lon="1.496523">
        <ele>121.4</ele>
        <time>2014-12-07T11:46:29Z</time>
      </trkpt>
      <trkpt lat="41.222897" lon="1.496527">
        <ele>120.8</ele>
        <time>2014-12-07T11:46:30Z</time>
      </trkpt>
      <trkpt lat="41.222950" lon="1.496531">
        <ele>120.2</ele>
        <time>2014-12-07T11:46:31Z</time>
      </trkpt>
      <trkpt lat="41.223003" lon="1.496553">
        <ele>119.8</ele>
        <time>2014-12-07T11:46:32Z</time>
      </trkpt>
      <trkpt lat="41.223053" lon="1.496592">
        <ele>119.2</ele>
        <time>2014-12-07T11:46:33Z</time>
      </trkpt>
      <trkpt lat="41.223118" lon="1.496750">
        <ele>119.2</ele>
        <time>2014-12-07T11:46:36Z</time>
      </trkpt>
      <trkpt lat="41.223129" lon="1.496800">
        <ele>119.2</ele>
        <time>2014-12-07T11:46:37Z</time>
      </trkpt>
      <trkpt lat="41.223160" lon="1.496902">
        <ele>119.2</ele>
        <time>2014-12-07T11:46:39Z</time>
      </trkpt>
      <trkpt lat="41.223164" lon="1.496939">
        <ele>119.2</ele>
        <time>2014-12-07T11:46:40Z</time>
      </trkpt>
      <trkpt lat="41.223183" lon="1.497049">
        <ele>118.8</ele>
        <time>2014-12-07T11:46:42Z</time>
      </trkpt>
      <trkpt lat="41.223190" lon="1.497114">
        <ele>118.4</ele>
        <time>2014-12-07T11:46:43Z</time>
      </trkpt>
      <trkpt lat="41.223202" lon="1.497188">
        <ele>118.0</ele>
        <time>2014-12-07T11:46:44Z</time>
      </trkpt>
      <trkpt lat="41.223213" lon="1.497263">
        <ele>117.6</ele>
        <time>2014-12-07T11:46:45Z</time>
      </trkpt>
      <trkpt lat="41.223225" lon="1.497337">
        <ele>117.2</ele>
        <time>2014-12-07T11:46:46Z</time>
      </trkpt>
      <trkpt lat="41.223228" lon="1.497408">
        <ele>117.2</ele>
        <time>2014-12-07T11:46:47Z</time>
      </trkpt>
      <trkpt lat="41.223221" lon="1.497466">
        <ele>117.2</ele>
        <time>2014-12-07T11:46:48Z</time>
      </trkpt>
      <trkpt lat="41.223194" lon="1.497566">
        <ele>116.6</ele>
        <time>2014-12-07T11:46:50Z</time>
      </trkpt>
      <trkpt lat="41.223171" lon="1.497614">
        <ele>116.2</ele>
        <time>2014-12-07T11:46:51Z</time>
      </trkpt>
      <trkpt lat="41.223152" lon="1.497668">
        <ele>115.6</ele>
        <time>2014-12-07T11:46:52Z</time>
      </trkpt>
      <trkpt lat="41.223133" lon="1.497737">
        <ele>115.0</ele>
        <time>2014-12-07T11:46:53Z</time>
      </trkpt>
      <trkpt lat="41.223118" lon="1.497815">
        <ele>114.2</ele>
        <time>2014-12-07T11:46:54Z</time>
      </trkpt>
      <trkpt lat="41.223103" lon="1.497894">
        <ele>113.4</ele>
        <time>2014-12-07T11:46:55Z</time>
      </trkpt>
      <trkpt lat="41.223083" lon="1.497975">
        <ele>112.6</ele>
        <time>2014-12-07T11:46:56Z</time>
      </trkpt>
      <trkpt lat="41.223068" lon="1.498050">
        <ele>111.8</ele>
        <time>2014-12-07T11:46:57Z</time>
      </trkpt>
      <trkpt lat="41.223057" lon="1.498119">
        <ele>111.2</ele>
        <time>2014-12-07T11:46:58Z</time>
      </trkpt>
      <trkpt lat="41.223049" lon="1.498188">
        <ele>110.4</ele>
        <time>2014-12-07T11:46:59Z</time>
      </trkpt>
      <trkpt lat="41.223049" lon="1.498258">
        <ele>109.6</ele>
        <time>2014-12-07T11:47:00Z</time>
      </trkpt>
      <trkpt lat="41.223061" lon="1.498317">
        <ele>109.2</ele>
        <time>2014-12-07T11:47:01Z</time>
      </trkpt>
      <trkpt lat="41.223083" lon="1.498374">
        <ele>108.6</ele>
        <time>2014-12-07T11:47:02Z</time>
      </trkpt>
      <trkpt lat="41.223118" lon="1.498425">
        <ele>108.2</ele>
        <time>2014-12-07T11:47:03Z</time>
      </trkpt>
      <trkpt lat="41.223156" lon="1.498475">
        <ele>107.6</ele>
        <time>2014-12-07T11:47:04Z</time>
      </trkpt>
      <trkpt lat="41.223190" lon="1.498521">
        <ele>107.0</ele>
        <time>2014-12-07T11:47:05Z</time>
      </trkpt>
      <trkpt lat="41.223232" lon="1.498566">
        <ele>106.0</ele>
        <time>2014-12-07T11:47:06Z</time>
      </trkpt>
      <trkpt lat="41.223278" lon="1.498622">
        <ele>105.4</ele>
        <time>2014-12-07T11:47:07Z</time>
      </trkpt>
      <trkpt lat="41.223328" lon="1.498671">
        <ele>105.0</ele>
        <time>2014-12-07T11:47:08Z</time>
      </trkpt>
      <trkpt lat="41.223465" lon="1.498816">
        <ele>105.0</ele>
        <time>2014-12-07T11:47:11Z</time>
      </trkpt>
      <trkpt lat="41.223511" lon="1.498861">
        <ele>104.6</ele>
        <time>2014-12-07T11:47:12Z</time>
      </trkpt>
      <trkpt lat="41.223541" lon="1.498916">
        <ele>104.2</ele>
        <time>2014-12-07T11:47:13Z</time>
      </trkpt>
      <trkpt lat="41.223564" lon="1.498976">
        <ele>103.8</ele>
        <time>2014-12-07T11:47:14Z</time>
      </trkpt>
      <trkpt lat="41.223576" lon="1.499039">
        <ele>103.4</ele>
        <time>2014-12-07T11:47:15Z</time>
      </trkpt>
      <trkpt lat="41.223576" lon="1.499100">
        <ele>102.8</ele>
        <time>2014-12-07T11:47:16Z</time>
      </trkpt>
      <trkpt lat="41.223564" lon="1.499157">
        <ele>102.4</ele>
        <time>2014-12-07T11:47:17Z</time>
      </trkpt>
      <trkpt lat="41.223541" lon="1.499205">
        <ele>102.0</ele>
        <time>2014-12-07T11:47:18Z</time>
      </trkpt>
      <trkpt lat="41.223515" lon="1.499256">
        <ele>101.6</ele>
        <time>2014-12-07T11:47:19Z</time>
      </trkpt>
      <trkpt lat="41.223492" lon="1.499310">
        <ele>101.2</ele>
        <time>2014-12-07T11:47:20Z</time>
      </trkpt>
      <trkpt lat="41.223465" lon="1.499369">
        <ele>100.6</ele>
        <time>2014-12-07T11:47:21Z</time>
      </trkpt>
      <trkpt lat="41.223438" lon="1.499431">
        <ele>100.6</ele>
        <time>2014-12-07T11:47:22Z</time>
      </trkpt>
      <trkpt lat="41.223354" lon="1.499616">
        <ele>100.6</ele>
        <time>2014-12-07T11:47:25Z</time>
      </trkpt>
      <trkpt lat="41.223282" lon="1.499723">
        <ele>100.2</ele>
        <time>2014-12-07T11:47:27Z</time>
      </trkpt>
      <trkpt lat="41.223251" lon="1.499776">
        <ele>99.8</ele>
        <time>2014-12-07T11:47:28Z</time>
      </trkpt>
      <trkpt lat="41.223228" lon="1.499834">
        <ele>99.4</ele>
        <time>2014-12-07T11:47:29Z</time>
      </trkpt>
      <trkpt lat="41.223221" lon="1.499898">
        <ele>98.6</ele>
        <time>2014-12-07T11:47:30Z</time>
      </trkpt>
      <trkpt lat="41.223221" lon="1.499961">
        <ele>98.0</ele>
        <time>2014-12-07T11:47:31Z</time>
      </trkpt>
      <trkpt lat="41.223228" lon="1.500024">
        <ele>97.6</ele>
        <time>2014-12-07T11:47:32Z</time>
      </trkpt>
      <trkpt lat="41.223244" lon="1.500093">
        <ele>97.2</ele>
        <time>2014-12-07T11:47:33Z</time>
      </trkpt>
      <trkpt lat="41.223263" lon="1.500160">
        <ele>96.6</ele>
        <time>2014-12-07T11:47:34Z</time>
      </trkpt>
      <trkpt lat="41.223282" lon="1.500225">
        <ele>96.2</ele>
        <time>2014-12-07T11:47:35Z</time>
      </trkpt>
      <trkpt lat="41.223373" lon="1.500474">
        <ele>95.8</ele>
        <time>2014-12-07T11:47:39Z</time>
      </trkpt>
      <trkpt lat="41.223404" lon="1.500530">
        <ele>95.2</ele>
        <time>2014-12-07T11:47:40Z</time>
      </trkpt>
      <trkpt lat="41.223438" lon="1.500582">
        <ele>94.8</ele>
        <time>2014-12-07T11:47:41Z</time>
      </trkpt>
      <trkpt lat="41.223473" lon="1.500636">
        <ele>94.4</ele>
        <time>2014-12-07T11:47:42Z</time>
      </trkpt>
      <trkpt lat="41.223499" lon="1.500700">
        <ele>94.0</ele>
        <time>2014-12-07T11:47:43Z</time>
      </trkpt>
      <trkpt lat="41.223534" lon="1.500841">
        <ele>94.0</ele>
        <time>2014-12-07T11:47:45Z</time>
      </trkpt>
      <trkpt lat="41.223545" lon="1.500908">
        <ele>94.0</ele>
        <time>2014-12-07T11:47:46Z</time>
      </trkpt>
      <trkpt lat="41.223553" lon="1.501047">
        <ele>94.0</ele>
        <time>2014-12-07T11:47:48Z</time>
      </trkpt>
      <trkpt lat="41.223537" lon="1.501107">
        <ele>93.4</ele>
        <time>2014-12-07T11:47:49Z</time>
      </trkpt>
      <trkpt lat="41.223518" lon="1.501158">
        <ele>93.0</ele>
        <time>2014-12-07T11:47:50Z</time>
      </trkpt>
      <trkpt lat="41.223492" lon="1.501213">
        <ele>92.4</ele>
        <time>2014-12-07T11:47:51Z</time>
      </trkpt>
      <trkpt lat="41.223457" lon="1.501264">
        <ele>92.0</ele>
        <time>2014-12-07T11:47:52Z</time>
      </trkpt>
      <trkpt lat="41.223419" lon="1.501317">
        <ele>91.4</ele>
        <time>2014-12-07T11:47:53Z</time>
      </trkpt>
      <trkpt lat="41.223347" lon="1.501431">
        <ele>91.0</ele>
        <time>2014-12-07T11:47:55Z</time>
      </trkpt>
      <trkpt lat="41.223309" lon="1.501493">
        <ele>90.6</ele>
        <time>2014-12-07T11:47:56Z</time>
      </trkpt>
      <trkpt lat="41.223274" lon="1.501556">
        <ele>90.0</ele>
        <time>2014-12-07T11:47:57Z</time>
      </trkpt>
      <trkpt lat="41.223236" lon="1.501619">
        <ele>89.6</ele>
        <time>2014-12-07T11:47:58Z</time>
      </trkpt>
      <trkpt lat="41.223202" lon="1.501687">
        <ele>89.2</ele>
        <time>2014-12-07T11:47:59Z</time>
      </trkpt>
      <trkpt lat="41.223133" lon="1.501812">
        <ele>88.8</ele>
        <time>2014-12-07T11:48:01Z</time>
      </trkpt>
      <trkpt lat="41.223091" lon="1.501870">
        <ele>88.4</ele>
        <time>2014-12-07T11:48:02Z</time>
      </trkpt>
      <trkpt lat="41.223057" lon="1.501923">
        <ele>87.8</ele>
        <time>2014-12-07T11:48:03Z</time>
      </trkpt>
      <trkpt lat="41.223022" lon="1.501989">
        <ele>87.4</ele>
        <time>2014-12-07T11:48:04Z</time>
      </trkpt>
      <trkpt lat="41.222988" lon="1.502049">
        <ele>87.0</ele>
        <time>2014-12-07T11:48:05Z</time>
      </trkpt>
      <trkpt lat="41.222874" lon="1.502224">
        <ele>87.0</ele>
        <time>2014-12-07T11:48:08Z</time>
      </trkpt>
      <trkpt lat="41.222824" lon="1.502265">
        <ele>86.6</ele>
        <time>2014-12-07T11:48:09Z</time>
      </trkpt>
      <trkpt lat="41.222778" lon="1.502298">
        <ele>86.2</ele>
        <time>2014-12-07T11:48:10Z</time>
      </trkpt>
      <trkpt lat="41.222736" lon="1.502318">
        <ele>85.8</ele>
        <time>2014-12-07T11:48:11Z</time>
      </trkpt>
      <trkpt lat="41.222706" lon="1.502324">
        <ele>85.4</ele>
        <time>2014-12-07T11:48:12Z</time>
      </trkpt>
      <trkpt lat="41.222672" lon="1.502338">
        <ele>84.8</ele>
        <time>2014-12-07T11:48:13Z</time>
      </trkpt>
      <trkpt lat="41.222641" lon="1.502356">
        <ele>84.8</ele>
        <time>2014-12-07T11:48:14Z</time>
      </trkpt>
      <trkpt lat="41.222454" lon="1.502426">
        <ele>84.8</ele>
        <time>2014-12-07T11:48:19Z</time>
      </trkpt>
      <trkpt lat="41.222389" lon="1.502441">
        <ele>85.4</ele>
        <time>2014-12-07T11:48:21Z</time>
      </trkpt>
      <trkpt lat="41.222359" lon="1.502438">
        <ele>85.8</ele>
        <time>2014-12-07T11:48:22Z</time>
      </trkpt>
      <trkpt lat="41.222328" lon="1.502433">
        <ele>86.2</ele>
        <time>2014-12-07T11:48:23Z</time>
      </trkpt>
      <trkpt lat="41.222301" lon="1.502429">
        <ele>86.6</ele>
        <time>2014-12-07T11:48:24Z</time>
      </trkpt>
      <trkpt lat="41.222275" lon="1.502430">
        <ele>87.0</ele>
        <time>2014-12-07T11:48:25Z</time>
      </trkpt>
      <trkpt lat="41.222179" lon="1.502431">
        <ele>87.4</ele>
        <time>2014-12-07T11:48:28Z</time>
      </trkpt>
      <trkpt lat="41.222145" lon="1.502430">
        <ele>87.8</ele>
        <time>2014-12-07T11:48:29Z</time>
      </trkpt>
      <trkpt lat="41.222111" lon="1.502430">
        <ele>88.2</ele>
        <time>2014-12-07T11:48:30Z</time>
      </trkpt>
      <trkpt lat="41.222080" lon="1.502424">
        <ele>88.8</ele>
        <time>2014-12-07T11:48:31Z</time>
      </trkpt>
      <trkpt lat="41.222038" lon="1.502417">
        <ele>89.2</ele>
        <time>2014-12-07T11:48:32Z</time>
      </trkpt>
      <trkpt lat="41.222000" lon="1.502402">
        <ele>89.2</ele>
        <time>2014-12-07T11:48:33Z</time>
      </trkpt>
      <trkpt lat="41.221962" lon="1.502391">
        <ele>89.2</ele>
        <time>2014-12-07T11:48:34Z</time>
      </trkpt>
      <trkpt lat="41.221790" lon="1.502378">
        <ele>89.6</ele>
        <time>2014-12-07T11:48:39Z</time>
      </trkpt>
      <trkpt lat="41.221745" lon="1.502384">
        <ele>90.0</ele>
        <time>2014-12-07T11:48:40Z</time>
      </trkpt>
      <trkpt lat="41.221699" lon="1.502397">
        <ele>90.6</ele>
        <time>2014-12-07T11:48:41Z</time>
      </trkpt>
      <trkpt lat="41.221653" lon="1.502412">
        <ele>91.0</ele>
        <time>2014-12-07T11:48:42Z</time>
      </trkpt>
      <trkpt lat="41.221611" lon="1.502423">
        <ele>91.4</ele>
        <time>2014-12-07T11:48:43Z</time>
      </trkpt>
      <trkpt lat="41.221500" lon="1.502448">
        <ele>91.4</ele>
        <time>2014-12-07T11:48:46Z</time>
      </trkpt>
      <trkpt lat="41.221188" lon="1.502540">
        <ele>91.4</ele>
        <time>2014-12-07T11:48:54Z</time>
      </trkpt>
      <trkpt lat="41.220970" lon="1.502609">
        <ele>91.4</ele>
        <time>2014-12-07T11:48:59Z</time>
      </trkpt>
      <trkpt lat="41.220879" lon="1.502629">
        <ele>91.4</ele>
        <time>2014-12-07T11:49:01Z</time>
      </trkpt>
      <trkpt lat="41.220680" lon="1.502696">
        <ele>91.4</ele>
        <time>2014-12-07T11:49:05Z</time>
      </trkpt>
      <trkpt lat="41.220543" lon="1.502767">
        <ele>91.4</ele>
        <time>2014-12-07T11:49:08Z</time>
      </trkpt>
      <trkpt lat="41.220276" lon="1.502934">
        <ele>91.4</ele>
        <time>2014-12-07T11:49:13Z</time>
      </trkpt>
      <trkpt lat="41.220150" lon="1.502996">
        <ele>91.4</ele>
        <time>2014-12-07T11:49:15Z</time>
      </trkpt>
      <trkpt lat="41.219986" lon="1.503110">
        <ele>91.0</ele>
        <time>2014-12-07T11:49:18Z</time>
      </trkpt>
      <trkpt lat="41.219936" lon="1.503133">
        <ele>90.4</ele>
        <time>2014-12-07T11:49:19Z</time>
      </trkpt>
      <trkpt lat="41.219887" lon="1.503152">
        <ele>90.0</ele>
        <time>2014-12-07T11:49:20Z</time>
      </trkpt>
      <trkpt lat="41.219830" lon="1.503151">
        <ele>89.6</ele>
        <time>2014-12-07T11:49:21Z</time>
      </trkpt>
      <trkpt lat="41.219776" lon="1.503150">
        <ele>89.0</ele>
        <time>2014-12-07T11:49:22Z</time>
      </trkpt>
      <trkpt lat="41.219601" lon="1.503149">
        <ele>88.6</ele>
        <time>2014-12-07T11:49:25Z</time>
      </trkpt>
      <trkpt lat="41.219543" lon="1.503159">
        <ele>88.2</ele>
        <time>2014-12-07T11:49:26Z</time>
      </trkpt>
      <trkpt lat="41.219479" lon="1.503169">
        <ele>87.8</ele>
        <time>2014-12-07T11:49:27Z</time>
      </trkpt>
      <trkpt lat="41.219414" lon="1.503176">
        <ele>87.4</ele>
        <time>2014-12-07T11:49:28Z</time>
      </trkpt>
      <trkpt lat="41.219357" lon="1.503183">
        <ele>87.0</ele>
        <time>2014-12-07T11:49:29Z</time>
      </trkpt>
      <trkpt lat="41.219128" lon="1.503235">
        <ele>87.0</ele>
        <time>2014-12-07T11:49:33Z</time>
      </trkpt>
      <trkpt lat="41.218903" lon="1.503267">
        <ele>87.0</ele>
        <time>2014-12-07T11:49:37Z</time>
      </trkpt>
      <trkpt lat="41.218796" lon="1.503285">
        <ele>87.0</ele>
        <time>2014-12-07T11:49:39Z</time>
      </trkpt>
      <trkpt lat="41.218460" lon="1.503372">
        <ele>87.0</ele>
        <time>2014-12-07T11:49:45Z</time>
      </trkpt>
      <trkpt lat="41.218296" lon="1.503429">
        <ele>87.0</ele>
        <time>2014-12-07T11:49:48Z</time>
      </trkpt>
      <trkpt lat="41.218185" lon="1.503481">
        <ele>87.0</ele>
        <time>2014-12-07T11:49:50Z</time>
      </trkpt>
      <trkpt lat="41.217987" lon="1.503698">
        <ele>86.6</ele>
        <time>2014-12-07T11:49:54Z</time>
      </trkpt>
      <trkpt lat="41.217930" lon="1.503749">
        <ele>86.0</ele>
        <time>2014-12-07T11:49:55Z</time>
      </trkpt>
      <trkpt lat="41.217869" lon="1.503789">
        <ele>85.6</ele>
        <time>2014-12-07T11:49:56Z</time>
      </trkpt>
      <trkpt lat="41.217808" lon="1.503829">
        <ele>85.0</ele>
        <time>2014-12-07T11:49:57Z</time>
      </trkpt>
      <trkpt lat="41.217747" lon="1.503868">
        <ele>83.8</ele>
        <time>2014-12-07T11:49:58Z</time>
      </trkpt>
      <trkpt lat="41.217690" lon="1.503910">
        <ele>83.4</ele>
        <time>2014-12-07T11:49:59Z</time>
      </trkpt>
      <trkpt lat="41.217640" lon="1.503943">
        <ele>82.6</ele>
        <time>2014-12-07T11:50:00Z</time>
      </trkpt>
      <trkpt lat="41.217590" lon="1.503981">
        <ele>81.8</ele>
        <time>2014-12-07T11:50:01Z</time>
      </trkpt>
      <trkpt lat="41.217545" lon="1.504020">
        <ele>81.2</ele>
        <time>2014-12-07T11:50:02Z</time>
      </trkpt>
      <trkpt lat="41.217499" lon="1.504062">
        <ele>80.4</ele>
        <time>2014-12-07T11:50:03Z</time>
      </trkpt>
      <trkpt lat="41.217457" lon="1.504114">
        <ele>79.8</ele>
        <time>2014-12-07T11:50:04Z</time>
      </trkpt>
      <trkpt lat="41.217415" lon="1.504173">
        <ele>79.0</ele>
        <time>2014-12-07T11:50:05Z</time>
      </trkpt>
      <trkpt lat="41.217392" lon="1.504238">
        <ele>78.4</ele>
        <time>2014-12-07T11:50:06Z</time>
      </trkpt>
      <trkpt lat="41.217377" lon="1.504307">
        <ele>77.6</ele>
        <time>2014-12-07T11:50:07Z</time>
      </trkpt>
      <trkpt lat="41.217381" lon="1.504367">
        <ele>77.0</ele>
        <time>2014-12-07T11:50:08Z</time>
      </trkpt>
      <trkpt lat="41.217388" lon="1.504423">
        <ele>76.2</ele>
        <time>2014-12-07T11:50:09Z</time>
      </trkpt>
      <trkpt lat="41.217388" lon="1.504470">
        <ele>75.6</ele>
        <time>2014-12-07T11:50:10Z</time>
      </trkpt>
      <trkpt lat="41.217381" lon="1.504524">
        <ele>74.8</ele>
        <time>2014-12-07T11:50:11Z</time>
      </trkpt>
      <trkpt lat="41.217354" lon="1.504571">
        <ele>74.0</ele>
        <time>2014-12-07T11:50:12Z</time>
      </trkpt>
      <trkpt lat="41.217327" lon="1.504612">
        <ele>73.4</ele>
        <time>2014-12-07T11:50:13Z</time>
      </trkpt>
      <trkpt lat="41.217297" lon="1.504655">
        <ele>72.6</ele>
        <time>2014-12-07T11:50:14Z</time>
      </trkpt>
      <trkpt lat="41.217274" lon="1.504705">
        <ele>72.0</ele>
        <time>2014-12-07T11:50:15Z</time>
      </trkpt>
      <trkpt lat="41.217239" lon="1.504756">
        <ele>71.4</ele>
        <time>2014-12-07T11:50:16Z</time>
      </trkpt>
      <trkpt lat="41.217201" lon="1.504794">
        <ele>70.8</ele>
        <time>2014-12-07T11:50:17Z</time>
      </trkpt>
      <trkpt lat="41.217167" lon="1.504844">
        <ele>70.2</ele>
        <time>2014-12-07T11:50:18Z</time>
      </trkpt>
      <trkpt lat="41.217133" lon="1.504890">
        <ele>69.6</ele>
        <time>2014-12-07T11:50:19Z</time>
      </trkpt>
      <trkpt lat="41.217106" lon="1.504936">
        <ele>69.0</ele>
        <time>2014-12-07T11:50:20Z</time>
      </trkpt>
      <trkpt lat="41.217091" lon="1.504992">
        <ele>68.4</ele>
        <time>2014-12-07T11:50:21Z</time>
      </trkpt>
      <trkpt lat="41.217075" lon="1.505054">
        <ele>67.6</ele>
        <time>2014-12-07T11:50:22Z</time>
      </trkpt>
      <trkpt lat="41.217060" lon="1.505123">
        <ele>66.4</ele>
        <time>2014-12-07T11:50:23Z</time>
      </trkpt>
      <trkpt lat="41.217041" lon="1.505200">
        <ele>65.6</ele>
        <time>2014-12-07T11:50:24Z</time>
      </trkpt>
      <trkpt lat="41.217014" lon="1.505266">
        <ele>65.0</ele>
        <time>2014-12-07T11:50:25Z</time>
      </trkpt>
      <trkpt lat="41.216995" lon="1.505332">
        <ele>64.4</ele>
        <time>2014-12-07T11:50:26Z</time>
      </trkpt>
      <trkpt lat="41.216972" lon="1.505405">
        <ele>63.8</ele>
        <time>2014-12-07T11:50:27Z</time>
      </trkpt>
      <trkpt lat="41.216942" lon="1.505475">
        <ele>63.2</ele>
        <time>2014-12-07T11:50:28Z</time>
      </trkpt>
      <trkpt lat="41.216904" lon="1.505539">
        <ele>62.8</ele>
        <time>2014-12-07T11:50:29Z</time>
      </trkpt>
      <trkpt lat="41.216862" lon="1.505589">
        <ele>62.2</ele>
        <time>2014-12-07T11:50:30Z</time>
      </trkpt>
      <trkpt lat="41.216812" lon="1.505625">
        <ele>61.6</ele>
        <time>2014-12-07T11:50:31Z</time>
      </trkpt>
      <trkpt lat="41.216755" lon="1.505640">
        <ele>61.2</ele>
        <time>2014-12-07T11:50:32Z</time>
      </trkpt>
      <trkpt lat="41.216705" lon="1.505648">
        <ele>60.6</ele>
        <time>2014-12-07T11:50:33Z</time>
      </trkpt>
      <trkpt lat="41.216610" lon="1.505756">
        <ele>60.2</ele>
        <time>2014-12-07T11:50:36Z</time>
      </trkpt>
      <trkpt lat="41.216606" lon="1.505812">
        <ele>59.8</ele>
        <time>2014-12-07T11:50:37Z</time>
      </trkpt>
      <trkpt lat="41.216618" lon="1.505878">
        <ele>59.4</ele>
        <time>2014-12-07T11:50:38Z</time>
      </trkpt>
      <trkpt lat="41.216621" lon="1.505951">
        <ele>58.8</ele>
        <time>2014-12-07T11:50:39Z</time>
      </trkpt>
      <trkpt lat="41.216625" lon="1.506033">
        <ele>58.4</ele>
        <time>2014-12-07T11:50:40Z</time>
      </trkpt>
      <trkpt lat="41.216652" lon="1.506267">
        <ele>58.4</ele>
        <time>2014-12-07T11:50:43Z</time>
      </trkpt>
      <trkpt lat="41.216652" lon="1.506353">
        <ele>58.4</ele>
        <time>2014-12-07T11:50:44Z</time>
      </trkpt>
      <trkpt lat="41.216652" lon="1.506429">
        <ele>58.0</ele>
        <time>2014-12-07T11:50:45Z</time>
      </trkpt>
      <trkpt lat="41.216660" lon="1.506480">
        <ele>57.6</ele>
        <time>2014-12-07T11:50:46Z</time>
      </trkpt>
      <trkpt lat="41.216675" lon="1.506520">
        <ele>56.8</ele>
        <time>2014-12-07T11:50:47Z</time>
      </trkpt>
      <trkpt lat="41.216686" lon="1.506564">
        <ele>56.4</ele>
        <time>2014-12-07T11:50:48Z</time>
      </trkpt>
      <trkpt lat="41.216736" lon="1.506780">
        <ele>56.4</ele>
        <time>2014-12-07T11:50:53Z</time>
      </trkpt>
      <trkpt lat="41.216785" lon="1.506964">
        <ele>56.4</ele>
        <time>2014-12-07T11:50:59Z</time>
      </trkpt>
      <trkpt lat="41.216831" lon="1.507086">
        <ele>56.4</ele>
        <time>2014-12-07T11:51:04Z</time>
      </trkpt>
      <trkpt lat="41.216850" lon="1.507141">
        <ele>56.8</ele>
        <time>2014-12-07T11:51:06Z</time>
      </trkpt>
      <trkpt lat="41.216854" lon="1.507164">
        <ele>57.2</ele>
        <time>2014-12-07T11:51:07Z</time>
      </trkpt>
      <trkpt lat="41.216858" lon="1.507194">
        <ele>57.6</ele>
        <time>2014-12-07T11:51:08Z</time>
      </trkpt>
      <trkpt lat="41.216869" lon="1.507221">
        <ele>58.0</ele>
        <time>2014-12-07T11:51:10Z</time>
      </trkpt>
      <trkpt lat="41.216877" lon="1.507247">
        <ele>58.4</ele>
        <time>2014-12-07T11:51:11Z</time>
      </trkpt>
      <trkpt lat="41.216877" lon="1.507367">
        <ele>58.4</ele>
        <time>2014-12-07T11:51:15Z</time>
      </trkpt>
      <trkpt lat="41.216885" lon="1.507412">
        <ele>58.4</ele>
        <time>2014-12-07T11:51:17Z</time>
      </trkpt>
      <trkpt lat="41.216911" lon="1.507442">
        <ele>58.4</ele>
        <time>2014-12-07T11:51:19Z</time>
      </trkpt>
      <trkpt lat="41.216984" lon="1.507452">
        <ele>58.4</ele>
        <time>2014-12-07T11:51:22Z</time>
      </trkpt>
      <trkpt lat="41.217022" lon="1.507449">
        <ele>58.4</ele>
        <time>2014-12-07T11:51:24Z</time>
      </trkpt>
      <trkpt lat="41.217094" lon="1.507470">
        <ele>59.0</ele>
        <time>2014-12-07T11:51:28Z</time>
      </trkpt>
      <trkpt lat="41.217106" lon="1.507476">
        <ele>59.4</ele>
        <time>2014-12-07T11:51:29Z</time>
      </trkpt>
      <trkpt lat="41.217121" lon="1.507482">
        <ele>59.8</ele>
        <time>2014-12-07T11:51:30Z</time>
      </trkpt>
      <trkpt lat="41.217136" lon="1.507489">
        <ele>60.2</ele>
        <time>2014-12-07T11:51:31Z</time>
      </trkpt>
      <trkpt lat="41.217152" lon="1.507496">
        <ele>60.6</ele>
        <time>2014-12-07T11:51:32Z</time>
      </trkpt>
      <trkpt lat="41.217236" lon="1.507528">
        <ele>60.6</ele>
        <time>2014-12-07T11:51:37Z</time>
      </trkpt>
      <trkpt lat="41.217266" lon="1.507538">
        <ele>61.0</ele>
        <time>2014-12-07T11:51:39Z</time>
      </trkpt>
      <trkpt lat="41.217285" lon="1.507544">
        <ele>61.4</ele>
        <time>2014-12-07T11:51:40Z</time>
      </trkpt>
      <trkpt lat="41.217300" lon="1.507551">
        <ele>62.0</ele>
        <time>2014-12-07T11:51:41Z</time>
      </trkpt>
      <trkpt lat="41.217316" lon="1.507557">
        <ele>62.4</ele>
        <time>2014-12-07T11:51:42Z</time>
      </trkpt>
      <trkpt lat="41.217339" lon="1.507564">
        <ele>63.0</ele>
        <time>2014-12-07T11:51:43Z</time>
      </trkpt>
      <trkpt lat="41.217354" lon="1.507566">
        <ele>63.4</ele>
        <time>2014-12-07T11:51:44Z</time>
      </trkpt>
      <trkpt lat="41.217369" lon="1.507574">
        <ele>64.0</ele>
        <time>2014-12-07T11:51:45Z</time>
      </trkpt>
      <trkpt lat="41.217384" lon="1.507576">
        <ele>64.4</ele>
        <time>2014-12-07T11:51:46Z</time>
      </trkpt>
      <trkpt lat="41.217407" lon="1.507577">
        <ele>65.0</ele>
        <time>2014-12-07T11:51:47Z</time>
      </trkpt>
      <trkpt lat="41.217442" lon="1.507574">
        <ele>65.4</ele>
        <time>2014-12-07T11:51:49Z</time>
      </trkpt>
      <trkpt lat="41.217457" lon="1.507575">
        <ele>65.8</ele>
        <time>2014-12-07T11:51:50Z</time>
      </trkpt>
      <trkpt lat="41.217476" lon="1.507579">
        <ele>66.2</ele>
        <time>2014-12-07T11:51:51Z</time>
      </trkpt>
      <trkpt lat="41.217495" lon="1.507582">
        <ele>66.6</ele>
        <time>2014-12-07T11:51:52Z</time>
      </trkpt>
      <trkpt lat="41.217514" lon="1.507579">
        <ele>67.0</ele>
        <time>2014-12-07T11:51:53Z</time>
      </trkpt>
      <trkpt lat="41.217571" lon="1.507580">
        <ele>67.0</ele>
        <time>2014-12-07T11:51:56Z</time>
      </trkpt>
      <trkpt lat="41.217590" lon="1.507579">
        <ele>67.4</ele>
        <time>2014-12-07T11:51:57Z</time>
      </trkpt>
      <trkpt lat="41.217609" lon="1.507581">
        <ele>68.0</ele>
        <time>2014-12-07T11:51:58Z</time>
      </trkpt>
      <trkpt lat="41.217628" lon="1.507578">
        <ele>68.4</ele>
        <time>2014-12-07T11:51:59Z</time>
      </trkpt>
      <trkpt lat="41.217644" lon="1.507575">
        <ele>68.8</ele>
        <time>2014-12-07T11:52:00Z</time>
      </trkpt>
      <trkpt lat="41.217659" lon="1.507566">
        <ele>69.2</ele>
        <time>2014-12-07T11:52:01Z</time>
      </trkpt>
      <trkpt lat="41.217667" lon="1.507554">
        <ele>69.2</ele>
        <time>2014-12-07T11:52:02Z</time>
      </trkpt>
      <trkpt lat="41.217670" lon="1.507539">
        <ele>69.2</ele>
        <time>2014-12-07T11:52:03Z</time>
      </trkpt>
      <trkpt lat="41.217617" lon="1.507537">
        <ele>69.2</ele>
        <time>2014-12-07T11:52:06Z</time>
      </trkpt>
      <trkpt lat="41.217587" lon="1.507568">
        <ele>69.2</ele>
        <time>2014-12-07T11:52:08Z</time>
      </trkpt>
      <trkpt lat="41.217564" lon="1.507581">
        <ele>69.2</ele>
        <time>2014-12-07T11:52:09Z</time>
      </trkpt>
      <trkpt lat="41.217487" lon="1.507579">
        <ele>69.2</ele>
        <time>2014-12-07T11:52:11Z</time>
      </trkpt>
      <trkpt lat="41.217224" lon="1.507518">
        <ele>68.8</ele>
        <time>2014-12-07T11:52:16Z</time>
      </trkpt>
      <trkpt lat="41.217163" lon="1.507502">
        <ele>68.2</ele>
        <time>2014-12-07T11:52:17Z</time>
      </trkpt>
      <trkpt lat="41.217106" lon="1.507486">
        <ele>67.4</ele>
        <time>2014-12-07T11:52:18Z</time>
      </trkpt>
      <trkpt lat="41.217052" lon="1.507474">
        <ele>66.6</ele>
        <time>2014-12-07T11:52:19Z</time>
      </trkpt>
      <trkpt lat="41.217007" lon="1.507468">
        <ele>65.6</ele>
        <time>2014-12-07T11:52:20Z</time>
      </trkpt>
      <trkpt lat="41.216969" lon="1.507462">
        <ele>64.8</ele>
        <time>2014-12-07T11:52:21Z</time>
      </trkpt>
      <trkpt lat="41.216930" lon="1.507461">
        <ele>63.8</ele>
        <time>2014-12-07T11:52:22Z</time>
      </trkpt>
      <trkpt lat="41.216908" lon="1.507474">
        <ele>63.0</ele>
        <time>2014-12-07T11:52:23Z</time>
      </trkpt>
      <trkpt lat="41.216885" lon="1.507492">
        <ele>62.2</ele>
        <time>2014-12-07T11:52:24Z</time>
      </trkpt>
      <trkpt lat="41.216869" lon="1.507503">
        <ele>61.2</ele>
        <time>2014-12-07T11:52:25Z</time>
      </trkpt>
      <trkpt lat="41.216869" lon="1.507510">
        <ele>61.2</ele>
        <time>2014-12-07T11:52:27Z</time>
      </trkpt>
      <trkpt lat="41.216850" lon="1.507526">
        <ele>61.2</ele>
        <time>2014-12-07T11:52:53Z</time>
      </trkpt>
      <trkpt lat="41.216755" lon="1.507635">
        <ele>61.2</ele>
        <time>2014-12-07T11:53:00Z</time>
      </trkpt>
      <trkpt lat="41.216679" lon="1.507732">
        <ele>61.2</ele>
        <time>2014-12-07T11:53:05Z</time>
      </trkpt>
      <trkpt lat="41.216526" lon="1.507893">
        <ele>61.2</ele>
        <time>2014-12-07T11:53:13Z</time>
      </trkpt>
      <trkpt lat="41.216484" lon="1.507934">
        <ele>61.2</ele>
        <time>2014-12-07T11:53:15Z</time>
      </trkpt>
      <trkpt lat="41.216454" lon="1.507978">
        <ele>61.2</ele>
        <time>2014-12-07T11:53:17Z</time>
      </trkpt>
      <trkpt lat="41.216396" lon="1.508118">
        <ele>61.2</ele>
        <time>2014-12-07T11:53:22Z</time>
      </trkpt>
      <trkpt lat="41.216434" lon="1.508270">
        <ele>60.8</ele>
        <time>2014-12-07T11:53:26Z</time>
      </trkpt>
      <trkpt lat="41.216457" lon="1.508301">
        <ele>60.4</ele>
        <time>2014-12-07T11:53:27Z</time>
      </trkpt>
      <trkpt lat="41.216484" lon="1.508330">
        <ele>59.8</ele>
        <time>2014-12-07T11:53:28Z</time>
      </trkpt>
      <trkpt lat="41.216507" lon="1.508365">
        <ele>59.4</ele>
        <time>2014-12-07T11:53:29Z</time>
      </trkpt>
      <trkpt lat="41.216526" lon="1.508403">
        <ele>59.0</ele>
        <time>2014-12-07T11:53:30Z</time>
      </trkpt>
      <trkpt lat="41.216579" lon="1.508490">
        <ele>59.0</ele>
        <time>2014-12-07T11:53:32Z</time>
      </trkpt>
      <trkpt lat="41.216759" lon="1.508786">
        <ele>59.0</ele>
        <time>2014-12-07T11:53:38Z</time>
      </trkpt>
      <trkpt lat="41.216778" lon="1.508839">
        <ele>59.0</ele>
        <time>2014-12-07T11:53:39Z</time>
      </trkpt>
      <trkpt lat="41.216805" lon="1.508892">
        <ele>59.0</ele>
        <time>2014-12-07T11:53:40Z</time>
      </trkpt>
      <trkpt lat="41.216881" lon="1.509095">
        <ele>59.0</ele>
        <time>2014-12-07T11:53:44Z</time>
      </trkpt>
      <trkpt lat="41.216900" lon="1.509144">
        <ele>59.0</ele>
        <time>2014-12-07T11:53:45Z</time>
      </trkpt>
      <trkpt lat="41.217022" lon="1.509401">
        <ele>59.0</ele>
        <time>2014-12-07T11:53:51Z</time>
      </trkpt>
      <trkpt lat="41.217079" lon="1.509505">
        <ele>59.0</ele>
        <time>2014-12-07T11:53:54Z</time>
      </trkpt>
      <trkpt lat="41.217102" lon="1.509522">
        <ele>59.0</ele>
        <time>2014-12-07T11:53:55Z</time>
      </trkpt>
      <trkpt lat="41.217159" lon="1.509481">
        <ele>59.0</ele>
        <time>2014-12-07T11:53:58Z</time>
      </trkpt>
      <trkpt lat="41.217239" lon="1.509515">
        <ele>59.0</ele>
        <time>2014-12-07T11:54:02Z</time>
      </trkpt>
      <trkpt lat="41.217285" lon="1.509554">
        <ele>59.0</ele>
        <time>2014-12-07T11:54:04Z</time>
      </trkpt>
      <trkpt lat="41.217377" lon="1.509629">
        <ele>59.0</ele>
        <time>2014-12-07T11:54:08Z</time>
      </trkpt>
      <trkpt lat="41.217545" lon="1.509800">
        <ele>59.0</ele>
        <time>2014-12-07T11:54:15Z</time>
      </trkpt>
      <trkpt lat="41.217728" lon="1.510016">
        <ele>59.0</ele>
        <time>2014-12-07T11:54:22Z</time>
      </trkpt>
      <trkpt lat="41.217953" lon="1.510295">
        <ele>59.0</ele>
        <time>2014-12-07T11:54:29Z</time>
      </trkpt>
      <trkpt lat="41.218143" lon="1.510571">
        <ele>59.0</ele>
        <time>2014-12-07T11:54:35Z</time>
      </trkpt>
      <trkpt lat="41.218288" lon="1.510774">
        <ele>59.0</ele>
        <time>2014-12-07T11:54:39Z</time>
      </trkpt>
      <trkpt lat="41.218323" lon="1.510825">
        <ele>58.6</ele>
        <time>2014-12-07T11:54:40Z</time>
      </trkpt>
      <trkpt lat="41.218361" lon="1.510877">
        <ele>58.0</ele>
        <time>2014-12-07T11:54:41Z</time>
      </trkpt>
      <trkpt lat="41.218395" lon="1.510929">
        <ele>57.6</ele>
        <time>2014-12-07T11:54:42Z</time>
      </trkpt>
      <trkpt lat="41.218430" lon="1.510979">
        <ele>57.2</ele>
        <time>2014-12-07T11:54:43Z</time>
      </trkpt>
      <trkpt lat="41.218468" lon="1.511027">
        <ele>56.8</ele>
        <time>2014-12-07T11:54:44Z</time>
      </trkpt>
      <trkpt lat="41.218609" lon="1.511186">
        <ele>56.8</ele>
        <time>2014-12-07T11:54:47Z</time>
      </trkpt>
      <trkpt lat="41.218796" lon="1.511420">
        <ele>56.8</ele>
        <time>2014-12-07T11:54:51Z</time>
      </trkpt>
      <trkpt lat="41.218884" lon="1.511540">
        <ele>56.8</ele>
        <time>2014-12-07T11:54:53Z</time>
      </trkpt>
      <trkpt lat="41.218967" lon="1.511651">
        <ele>55.8</ele>
        <time>2014-12-07T11:54:55Z</time>
      </trkpt>
      <trkpt lat="41.219009" lon="1.511707">
        <ele>55.2</ele>
        <time>2014-12-07T11:54:56Z</time>
      </trkpt>
      <trkpt lat="41.219051" lon="1.511759">
        <ele>54.8</ele>
        <time>2014-12-07T11:54:57Z</time>
      </trkpt>
      <trkpt lat="41.219093" lon="1.511813">
        <ele>54.2</ele>
        <time>2014-12-07T11:54:58Z</time>
      </trkpt>
      <trkpt lat="41.219128" lon="1.511856">
        <ele>54.2</ele>
        <time>2014-12-07T11:54:59Z</time>
      </trkpt>
      <trkpt lat="41.219158" lon="1.511892">
        <ele>53.8</ele>
        <time>2014-12-07T11:55:00Z</time>
      </trkpt>
      <trkpt lat="41.219189" lon="1.511933">
        <ele>53.2</ele>
        <time>2014-12-07T11:55:01Z</time>
      </trkpt>
      <trkpt lat="41.219208" lon="1.511968">
        <ele>52.8</ele>
        <time>2014-12-07T11:55:02Z</time>
      </trkpt>
      <trkpt lat="41.219234" lon="1.511998">
        <ele>52.2</ele>
        <time>2014-12-07T11:55:03Z</time>
      </trkpt>
      <trkpt lat="41.219269" lon="1.512026">
        <ele>51.6</ele>
        <time>2014-12-07T11:55:04Z</time>
      </trkpt>
      <trkpt lat="41.219299" lon="1.512069">
        <ele>51.0</ele>
        <time>2014-12-07T11:55:05Z</time>
      </trkpt>
      <trkpt lat="41.219334" lon="1.512115">
        <ele>50.4</ele>
        <time>2014-12-07T11:55:06Z</time>
      </trkpt>
      <trkpt lat="41.219379" lon="1.512157">
        <ele>49.8</ele>
        <time>2014-12-07T11:55:07Z</time>
      </trkpt>
      <trkpt lat="41.219425" lon="1.512212">
        <ele>49.4</ele>
        <time>2014-12-07T11:55:08Z</time>
      </trkpt>
      <trkpt lat="41.219471" lon="1.512264">
        <ele>48.8</ele>
        <time>2014-12-07T11:55:09Z</time>
      </trkpt>
      <trkpt lat="41.219524" lon="1.512315">
        <ele>48.4</ele>
        <time>2014-12-07T11:55:10Z</time>
      </trkpt>
      <trkpt lat="41.219555" lon="1.512334">
        <ele>48.0</ele>
        <time>2014-12-07T11:55:11Z</time>
      </trkpt>
      <trkpt lat="41.219570" lon="1.512337">
        <ele>47.6</ele>
        <time>2014-12-07T11:55:12Z</time>
      </trkpt>
      <trkpt lat="41.219593" lon="1.512323">
        <ele>47.2</ele>
        <time>2014-12-07T11:55:13Z</time>
      </trkpt>
      <trkpt lat="41.219612" lon="1.512309">
        <ele>47.2</ele>
        <time>2014-12-07T11:55:14Z</time>
      </trkpt>
      <trkpt lat="41.219707" lon="1.512185">
        <ele>47.2</ele>
        <time>2014-12-07T11:55:19Z</time>
      </trkpt>
      <trkpt lat="41.219753" lon="1.512139">
        <ele>47.2</ele>
        <time>2014-12-07T11:55:21Z</time>
      </trkpt>
      <trkpt lat="41.219810" lon="1.512057">
        <ele>47.2</ele>
        <time>2014-12-07T11:55:24Z</time>
      </trkpt>
      <trkpt lat="41.219967" lon="1.511855">
        <ele>47.8</ele>
        <time>2014-12-07T11:55:31Z</time>
      </trkpt>
      <trkpt lat="41.219994" lon="1.511832">
        <ele>48.2</ele>
        <time>2014-12-07T11:55:32Z</time>
      </trkpt>
      <trkpt lat="41.220016" lon="1.511807">
        <ele>48.6</ele>
        <time>2014-12-07T11:55:33Z</time>
      </trkpt>
      <trkpt lat="41.220039" lon="1.511785">
        <ele>49.2</ele>
        <time>2014-12-07T11:55:34Z</time>
      </trkpt>
      <trkpt lat="41.220066" lon="1.511767">
        <ele>49.6</ele>
        <time>2014-12-07T11:55:35Z</time>
      </trkpt>
      <trkpt lat="41.220131" lon="1.511741">
        <ele>49.6</ele>
        <time>2014-12-07T11:55:37Z</time>
      </trkpt>
      <trkpt lat="41.220295" lon="1.511746">
        <ele>50.2</ele>
        <time>2014-12-07T11:55:42Z</time>
      </trkpt>
      <trkpt lat="41.220329" lon="1.511759">
        <ele>50.8</ele>
        <time>2014-12-07T11:55:43Z</time>
      </trkpt>
      <trkpt lat="41.220356" lon="1.511773">
        <ele>52.0</ele>
        <time>2014-12-07T11:55:44Z</time>
      </trkpt>
      <trkpt lat="41.220387" lon="1.511789">
        <ele>52.6</ele>
        <time>2014-12-07T11:55:45Z</time>
      </trkpt>
      <trkpt lat="41.220516" lon="1.511919">
        <ele>52.6</ele>
        <time>2014-12-07T11:55:50Z</time>
      </trkpt>
      <trkpt lat="41.220688" lon="1.512163">
        <ele>52.6</ele>
        <time>2014-12-07T11:55:57Z</time>
      </trkpt>
      <trkpt lat="41.220928" lon="1.512517">
        <ele>52.6</ele>
        <time>2014-12-07T11:56:05Z</time>
      </trkpt>
      <trkpt lat="41.221191" lon="1.512866">
        <ele>52.6</ele>
        <time>2014-12-07T11:56:12Z</time>
      </trkpt>
      <trkpt lat="41.221294" lon="1.513041">
        <ele>53.0</ele>
        <time>2014-12-07T11:56:15Z</time>
      </trkpt>
      <trkpt lat="41.221325" lon="1.513106">
        <ele>53.4</ele>
        <time>2014-12-07T11:56:16Z</time>
      </trkpt>
      <trkpt lat="41.221352" lon="1.513178">
        <ele>53.8</ele>
        <time>2014-12-07T11:56:17Z</time>
      </trkpt>
      <trkpt lat="41.221382" lon="1.513258">
        <ele>54.2</ele>
        <time>2014-12-07T11:56:18Z</time>
      </trkpt>
      <trkpt lat="41.221409" lon="1.513333">
        <ele>53.8</ele>
        <time>2014-12-07T11:56:19Z</time>
      </trkpt>
      <trkpt lat="41.221443" lon="1.513414">
        <ele>53.6</ele>
        <time>2014-12-07T11:56:20Z</time>
      </trkpt>
      <trkpt lat="41.221481" lon="1.513498">
        <ele>53.2</ele>
        <time>2014-12-07T11:56:21Z</time>
      </trkpt>
      <trkpt lat="41.221523" lon="1.513582">
        <ele>52.8</ele>
        <time>2014-12-07T11:56:22Z</time>
      </trkpt>
      <trkpt lat="41.221573" lon="1.513664">
        <ele>52.6</ele>
        <time>2014-12-07T11:56:23Z</time>
      </trkpt>
      <trkpt lat="41.221630" lon="1.513742">
        <ele>52.2</ele>
        <time>2014-12-07T11:56:24Z</time>
      </trkpt>
      <trkpt lat="41.221699" lon="1.513816">
        <ele>51.8</ele>
        <time>2014-12-07T11:56:25Z</time>
      </trkpt>
      <trkpt lat="41.221767" lon="1.513885">
        <ele>51.4</ele>
        <time>2014-12-07T11:56:26Z</time>
      </trkpt>
      <trkpt lat="41.221840" lon="1.513955">
        <ele>50.6</ele>
        <time>2014-12-07T11:56:27Z</time>
      </trkpt>
      <trkpt lat="41.221912" lon="1.514037">
        <ele>50.0</ele>
        <time>2014-12-07T11:56:28Z</time>
      </trkpt>
      <trkpt lat="41.221985" lon="1.514140">
        <ele>49.4</ele>
        <time>2014-12-07T11:56:29Z</time>
      </trkpt>
      <trkpt lat="41.222046" lon="1.514249">
        <ele>48.6</ele>
        <time>2014-12-07T11:56:30Z</time>
      </trkpt>
      <trkpt lat="41.222099" lon="1.514363">
        <ele>47.8</ele>
        <time>2014-12-07T11:56:31Z</time>
      </trkpt>
      <trkpt lat="41.222145" lon="1.514471">
        <ele>46.8</ele>
        <time>2014-12-07T11:56:32Z</time>
      </trkpt>
      <trkpt lat="41.222187" lon="1.514580">
        <ele>45.8</ele>
        <time>2014-12-07T11:56:33Z</time>
      </trkpt>
      <trkpt lat="41.222218" lon="1.514667">
        <ele>43.8</ele>
        <time>2014-12-07T11:56:34Z</time>
      </trkpt>
      <trkpt lat="41.222237" lon="1.514746">
        <ele>43.0</ele>
        <time>2014-12-07T11:56:35Z</time>
      </trkpt>
      <trkpt lat="41.222279" lon="1.514884">
        <ele>43.0</ele>
        <time>2014-12-07T11:56:37Z</time>
      </trkpt>
      <trkpt lat="41.222301" lon="1.514942">
        <ele>43.0</ele>
        <time>2014-12-07T11:56:38Z</time>
      </trkpt>
      <trkpt lat="41.222351" lon="1.515030">
        <ele>43.0</ele>
        <time>2014-12-07T11:56:41Z</time>
      </trkpt>
      <trkpt lat="41.222397" lon="1.515101">
        <ele>43.4</ele>
        <time>2014-12-07T11:56:44Z</time>
      </trkpt>
      <trkpt lat="41.222412" lon="1.515127">
        <ele>43.8</ele>
        <time>2014-12-07T11:56:45Z</time>
      </trkpt>
      <trkpt lat="41.222427" lon="1.515149">
        <ele>44.2</ele>
        <time>2014-12-07T11:56:46Z</time>
      </trkpt>
      <trkpt lat="41.222443" lon="1.515172">
        <ele>44.6</ele>
        <time>2014-12-07T11:56:47Z</time>
      </trkpt>
      <trkpt lat="41.222458" lon="1.515196">
        <ele>45.2</ele>
        <time>2014-12-07T11:56:48Z</time>
      </trkpt>
      <trkpt lat="41.222469" lon="1.515215">
        <ele>45.8</ele>
        <time>2014-12-07T11:56:49Z</time>
      </trkpt>
      <trkpt lat="41.222477" lon="1.515229">
        <ele>46.2</ele>
        <time>2014-12-07T11:56:50Z</time>
      </trkpt>
      <trkpt lat="41.222496" lon="1.515241">
        <ele>46.8</ele>
        <time>2014-12-07T11:56:51Z</time>
      </trkpt>
      <trkpt lat="41.222511" lon="1.515257">
        <ele>47.4</ele>
        <time>2014-12-07T11:56:52Z</time>
      </trkpt>
      <trkpt lat="41.222534" lon="1.515291">
        <ele>47.8</ele>
        <time>2014-12-07T11:56:54Z</time>
      </trkpt>
      <trkpt lat="41.222549" lon="1.515308">
        <ele>48.2</ele>
        <time>2014-12-07T11:56:55Z</time>
      </trkpt>
      <trkpt lat="41.222561" lon="1.515326">
        <ele>48.8</ele>
        <time>2014-12-07T11:56:56Z</time>
      </trkpt>
      <trkpt lat="41.222576" lon="1.515342">
        <ele>49.2</ele>
        <time>2014-12-07T11:56:57Z</time>
      </trkpt>
      <trkpt lat="41.222588" lon="1.515358">
        <ele>50.0</ele>
        <time>2014-12-07T11:56:58Z</time>
      </trkpt>
      <trkpt lat="41.222595" lon="1.515378">
        <ele>50.4</ele>
        <time>2014-12-07T11:56:59Z</time>
      </trkpt>
      <trkpt lat="41.222610" lon="1.515394">
        <ele>50.8</ele>
        <time>2014-12-07T11:57:00Z</time>
      </trkpt>
      <trkpt lat="41.222622" lon="1.515414">
        <ele>51.2</ele>
        <time>2014-12-07T11:57:01Z</time>
      </trkpt>
      <trkpt lat="41.222633" lon="1.515430">
        <ele>51.8</ele>
        <time>2014-12-07T11:57:02Z</time>
      </trkpt>
      <trkpt lat="41.222668" lon="1.515465">
        <ele>52.2</ele>
        <time>2014-12-07T11:57:05Z</time>
      </trkpt>
      <trkpt lat="41.222679" lon="1.515469">
        <ele>52.6</ele>
        <time>2014-12-07T11:57:06Z</time>
      </trkpt>
      <trkpt lat="41.222687" lon="1.515474">
        <ele>53.2</ele>
        <time>2014-12-07T11:57:07Z</time>
      </trkpt>
      <trkpt lat="41.222698" lon="1.515486">
        <ele>53.6</ele>
        <time>2014-12-07T11:57:08Z</time>
      </trkpt>
      <trkpt lat="41.222713" lon="1.515498">
        <ele>54.0</ele>
        <time>2014-12-07T11:57:09Z</time>
      </trkpt>
      <trkpt lat="41.222740" lon="1.515522">
        <ele>54.4</ele>
        <time>2014-12-07T11:57:11Z</time>
      </trkpt>
      <trkpt lat="41.222755" lon="1.515531">
        <ele>54.8</ele>
        <time>2014-12-07T11:57:12Z</time>
      </trkpt>
      <trkpt lat="41.222767" lon="1.515542">
        <ele>55.2</ele>
        <time>2014-12-07T11:57:13Z</time>
      </trkpt>
      <trkpt lat="41.222775" lon="1.515553">
        <ele>55.6</ele>
        <time>2014-12-07T11:57:14Z</time>
      </trkpt>
      <trkpt lat="41.222786" lon="1.515566">
        <ele>56.0</ele>
        <time>2014-12-07T11:57:15Z</time>
      </trkpt>
      <trkpt lat="41.222794" lon="1.515574">
        <ele>56.6</ele>
        <time>2014-12-07T11:57:16Z</time>
      </trkpt>
      <trkpt lat="41.222805" lon="1.515582">
        <ele>57.0</ele>
        <time>2014-12-07T11:57:17Z</time>
      </trkpt>
      <trkpt lat="41.222820" lon="1.515593">
        <ele>57.6</ele>
        <time>2014-12-07T11:57:18Z</time>
      </trkpt>
      <trkpt lat="41.222832" lon="1.515606">
        <ele>58.0</ele>
        <time>2014-12-07T11:57:19Z</time>
      </trkpt>
      <trkpt lat="41.222839" lon="1.515617">
        <ele>58.6</ele>
        <time>2014-12-07T11:57:20Z</time>
      </trkpt>
      <trkpt lat="41.222900" lon="1.515682">
        <ele>59.0</ele>
        <time>2014-12-07T11:57:25Z</time>
      </trkpt>
      <trkpt lat="41.222912" lon="1.515698">
        <ele>59.4</ele>
        <time>2014-12-07T11:57:26Z</time>
      </trkpt>
      <trkpt lat="41.222927" lon="1.515711">
        <ele>59.8</ele>
        <time>2014-12-07T11:57:27Z</time>
      </trkpt>
      <trkpt lat="41.222939" lon="1.515719">
        <ele>60.2</ele>
        <time>2014-12-07T11:57:28Z</time>
      </trkpt>
      <trkpt lat="41.222954" lon="1.515728">
        <ele>60.8</ele>
        <time>2014-12-07T11:57:29Z</time>
      </trkpt>
      <trkpt lat="41.222992" lon="1.515763">
        <ele>60.8</ele>
        <time>2014-12-07T11:57:32Z</time>
      </trkpt>
      <trkpt lat="41.223019" lon="1.515792">
        <ele>61.2</ele>
        <time>2014-12-07T11:57:34Z</time>
      </trkpt>
      <trkpt lat="41.223030" lon="1.515804">
        <ele>61.6</ele>
        <time>2014-12-07T11:57:35Z</time>
      </trkpt>
      <trkpt lat="41.223045" lon="1.515811">
        <ele>62.0</ele>
        <time>2014-12-07T11:57:36Z</time>
      </trkpt>
      <trkpt lat="41.223057" lon="1.515825">
        <ele>62.4</ele>
        <time>2014-12-07T11:57:37Z</time>
      </trkpt>
      <trkpt lat="41.223072" lon="1.515836">
        <ele>62.8</ele>
        <time>2014-12-07T11:57:38Z</time>
      </trkpt>
      <trkpt lat="41.223083" lon="1.515849">
        <ele>62.8</ele>
        <time>2014-12-07T11:57:39Z</time>
      </trkpt>
      <trkpt lat="41.223091" lon="1.515861">
        <ele>63.2</ele>
        <time>2014-12-07T11:57:40Z</time>
      </trkpt>
      <trkpt lat="41.223103" lon="1.515878">
        <ele>63.8</ele>
        <time>2014-12-07T11:57:41Z</time>
      </trkpt>
      <trkpt lat="41.223114" lon="1.515893">
        <ele>64.2</ele>
        <time>2014-12-07T11:57:42Z</time>
      </trkpt>
      <trkpt lat="41.223125" lon="1.515908">
        <ele>64.6</ele>
        <time>2014-12-07T11:57:43Z</time>
      </trkpt>
      <trkpt lat="41.223133" lon="1.515922">
        <ele>65.0</ele>
        <time>2014-12-07T11:57:44Z</time>
      </trkpt>
      <trkpt lat="41.223148" lon="1.515937">
        <ele>65.0</ele>
        <time>2014-12-07T11:57:45Z</time>
      </trkpt>
      <trkpt lat="41.223175" lon="1.515973">
        <ele>66.0</ele>
        <time>2014-12-07T11:57:48Z</time>
      </trkpt>
      <trkpt lat="41.223186" lon="1.515987">
        <ele>66.4</ele>
        <time>2014-12-07T11:57:49Z</time>
      </trkpt>
      <trkpt lat="41.223190" lon="1.516002">
        <ele>66.8</ele>
        <time>2014-12-07T11:57:50Z</time>
      </trkpt>
      <trkpt lat="41.223209" lon="1.516015">
        <ele>67.2</ele>
        <time>2014-12-07T11:57:51Z</time>
      </trkpt>
      <trkpt lat="41.223255" lon="1.516072">
        <ele>67.6</ele>
        <time>2014-12-07T11:57:55Z</time>
      </trkpt>
      <trkpt lat="41.223263" lon="1.516084">
        <ele>68.0</ele>
        <time>2014-12-07T11:57:56Z</time>
      </trkpt>
      <trkpt lat="41.223278" lon="1.516098">
        <ele>68.4</ele>
        <time>2014-12-07T11:57:57Z</time>
      </trkpt>
      <trkpt lat="41.223289" lon="1.516113">
        <ele>68.8</ele>
        <time>2014-12-07T11:57:58Z</time>
      </trkpt>
      <trkpt lat="41.223297" lon="1.516125">
        <ele>69.4</ele>
        <time>2014-12-07T11:57:59Z</time>
      </trkpt>
      <trkpt lat="41.223347" lon="1.516163">
        <ele>69.4</ele>
        <time>2014-12-07T11:58:04Z</time>
      </trkpt>
      <trkpt lat="41.223358" lon="1.516145">
        <ele>69.4</ele>
        <time>2014-12-07T11:58:06Z</time>
      </trkpt>
      <trkpt lat="41.223354" lon="1.516141">
        <ele>69.4</ele>
        <time>2014-12-07T11:58:08Z</time>
      </trkpt>
      <trkpt lat="41.223354" lon="1.516143">
        <ele>69.4</ele>
        <time>2014-12-07T11:58:09Z</time>
      </trkpt>
      <trkpt lat="41.223373" lon="1.516209">
        <ele>71.8</ele>
        <time>2014-12-07T11:59:00Z</time>
      </trkpt>
      <trkpt lat="41.223396" lon="1.516237">
        <ele>71.0</ele>
        <time>2014-12-07T11:59:02Z</time>
      </trkpt>
      <trkpt lat="41.223400" lon="1.516253">
        <ele>70.6</ele>
        <time>2014-12-07T11:59:03Z</time>
      </trkpt>
      <trkpt lat="41.223415" lon="1.516270">
        <ele>70.2</ele>
        <time>2014-12-07T11:59:04Z</time>
      </trkpt>
      <trkpt lat="41.223427" lon="1.516292">
        <ele>69.6</ele>
        <time>2014-12-07T11:59:05Z</time>
      </trkpt>
      <trkpt lat="41.223473" lon="1.516346">
        <ele>69.6</ele>
        <time>2014-12-07T11:59:08Z</time>
      </trkpt>
      <trkpt lat="41.223560" lon="1.516542">
        <ele>69.6</ele>
        <time>2014-12-07T11:59:15Z</time>
      </trkpt>
      <trkpt lat="41.223648" lon="1.516719">
        <ele>69.6</ele>
        <time>2014-12-07T11:59:20Z</time>
      </trkpt>
      <trkpt lat="41.223663" lon="1.516763">
        <ele>69.2</ele>
        <time>2014-12-07T11:59:21Z</time>
      </trkpt>
      <trkpt lat="41.223675" lon="1.516809">
        <ele>68.8</ele>
        <time>2014-12-07T11:59:22Z</time>
      </trkpt>
      <trkpt lat="41.223690" lon="1.516857">
        <ele>68.4</ele>
        <time>2014-12-07T11:59:23Z</time>
      </trkpt>
      <trkpt lat="41.223709" lon="1.516904">
        <ele>67.8</ele>
        <time>2014-12-07T11:59:24Z</time>
      </trkpt>
      <trkpt lat="41.223724" lon="1.516932">
        <ele>67.2</ele>
        <time>2014-12-07T11:59:25Z</time>
      </trkpt>
      <trkpt lat="41.223736" lon="1.516973">
        <ele>66.6</ele>
        <time>2014-12-07T11:59:26Z</time>
      </trkpt>
      <trkpt lat="41.223751" lon="1.517029">
        <ele>65.4</ele>
        <time>2014-12-07T11:59:27Z</time>
      </trkpt>
      <trkpt lat="41.223770" lon="1.517095">
        <ele>64.8</ele>
        <time>2014-12-07T11:59:28Z</time>
      </trkpt>
      <trkpt lat="41.223789" lon="1.517162">
        <ele>64.2</ele>
        <time>2014-12-07T11:59:29Z</time>
      </trkpt>
      <trkpt lat="41.223816" lon="1.517236">
        <ele>63.4</ele>
        <time>2014-12-07T11:59:30Z</time>
      </trkpt>
      <trkpt lat="41.223835" lon="1.517309">
        <ele>62.6</ele>
        <time>2014-12-07T11:59:31Z</time>
      </trkpt>
      <trkpt lat="41.223854" lon="1.517376">
        <ele>61.8</ele>
        <time>2014-12-07T11:59:32Z</time>
      </trkpt>
      <trkpt lat="41.223877" lon="1.517442">
        <ele>61.0</ele>
        <time>2014-12-07T11:59:33Z</time>
      </trkpt>
      <trkpt lat="41.223896" lon="1.517502">
        <ele>60.2</ele>
        <time>2014-12-07T11:59:34Z</time>
      </trkpt>
      <trkpt lat="41.223911" lon="1.517559">
        <ele>59.6</ele>
        <time>2014-12-07T11:59:35Z</time>
      </trkpt>
      <trkpt lat="41.223934" lon="1.517624">
        <ele>58.6</ele>
        <time>2014-12-07T11:59:36Z</time>
      </trkpt>
      <trkpt lat="41.223953" lon="1.517685">
        <ele>57.8</ele>
        <time>2014-12-07T11:59:37Z</time>
      </trkpt>
      <trkpt lat="41.223976" lon="1.517744">
        <ele>57.0</ele>
        <time>2014-12-07T11:59:38Z</time>
      </trkpt>
      <trkpt lat="41.223995" lon="1.517806">
        <ele>56.0</ele>
        <time>2014-12-07T11:59:39Z</time>
      </trkpt>
      <trkpt lat="41.224014" lon="1.517870">
        <ele>55.0</ele>
        <time>2014-12-07T11:59:40Z</time>
      </trkpt>
      <trkpt lat="41.224041" lon="1.517929">
        <ele>54.0</ele>
        <time>2014-12-07T11:59:41Z</time>
      </trkpt>
      <trkpt lat="41.224068" lon="1.517987">
        <ele>52.8</ele>
        <time>2014-12-07T11:59:42Z</time>
      </trkpt>
      <trkpt lat="41.224091" lon="1.518038">
        <ele>52.0</ele>
        <time>2014-12-07T11:59:43Z</time>
      </trkpt>
      <trkpt lat="41.224106" lon="1.518090">
        <ele>51.2</ele>
        <time>2014-12-07T11:59:44Z</time>
      </trkpt>
      <trkpt lat="41.224121" lon="1.518135">
        <ele>50.2</ele>
        <time>2014-12-07T11:59:45Z</time>
      </trkpt>
      <trkpt lat="41.224140" lon="1.518179">
        <ele>49.2</ele>
        <time>2014-12-07T11:59:46Z</time>
      </trkpt>
      <trkpt lat="41.224155" lon="1.518237">
        <ele>48.2</ele>
        <time>2014-12-07T11:59:47Z</time>
      </trkpt>
      <trkpt lat="41.224167" lon="1.518308">
        <ele>47.2</ele>
        <time>2014-12-07T11:59:48Z</time>
      </trkpt>
      <trkpt lat="41.224201" lon="1.518387">
        <ele>46.4</ele>
        <time>2014-12-07T11:59:49Z</time>
      </trkpt>
      <trkpt lat="41.224239" lon="1.518480">
        <ele>45.8</ele>
        <time>2014-12-07T11:59:50Z</time>
      </trkpt>
      <trkpt lat="41.224277" lon="1.518595">
        <ele>44.2</ele>
        <time>2014-12-07T11:59:51Z</time>
      </trkpt>
      <trkpt lat="41.224300" lon="1.518724">
        <ele>43.4</ele>
        <time>2014-12-07T11:59:52Z</time>
      </trkpt>
      <trkpt lat="41.224304" lon="1.518852">
        <ele>42.4</ele>
        <time>2014-12-07T11:59:53Z</time>
      </trkpt>
      <trkpt lat="41.224277" lon="1.518965">
        <ele>41.2</ele>
        <time>2014-12-07T11:59:54Z</time>
      </trkpt>
      <trkpt lat="41.224216" lon="1.519049">
        <ele>40.0</ele>
        <time>2014-12-07T11:59:55Z</time>
      </trkpt>
      <trkpt lat="41.224159" lon="1.519133">
        <ele>38.8</ele>
        <time>2014-12-07T11:59:56Z</time>
      </trkpt>
      <trkpt lat="41.224094" lon="1.519212">
        <ele>37.4</ele>
        <time>2014-12-07T11:59:57Z</time>
      </trkpt>
      <trkpt lat="41.224030" lon="1.519287">
        <ele>36.2</ele>
        <time>2014-12-07T11:59:58Z</time>
      </trkpt>
      <trkpt lat="41.223957" lon="1.519363">
        <ele>35.0</ele>
        <time>2014-12-07T11:59:59Z</time>
      </trkpt>
      <trkpt lat="41.223892" lon="1.519431">
        <ele>33.6</ele>
        <time>2014-12-07T12:00:00Z</time>
      </trkpt>
      <trkpt lat="41.223839" lon="1.519493">
        <ele>33.0</ele>
        <time>2014-12-07T12:00:01Z</time>
      </trkpt>
      <trkpt lat="41.223789" lon="1.519550">
        <ele>32.4</ele>
        <time>2014-12-07T12:00:02Z</time>
      </trkpt>
      <trkpt lat="41.223743" lon="1.519595">
        <ele>31.6</ele>
        <time>2014-12-07T12:00:03Z</time>
      </trkpt>
      <trkpt lat="41.223717" lon="1.519641">
        <ele>31.0</ele>
        <time>2014-12-07T12:00:04Z</time>
      </trkpt>
      <trkpt lat="41.223701" lon="1.519679">
        <ele>30.2</ele>
        <time>2014-12-07T12:00:05Z</time>
      </trkpt>
      <trkpt lat="41.223701" lon="1.519705">
        <ele>29.4</ele>
        <time>2014-12-07T12:00:06Z</time>
      </trkpt>
      <trkpt lat="41.223709" lon="1.519725">
        <ele>28.6</ele>
        <time>2014-12-07T12:00:07Z</time>
      </trkpt>
      <trkpt lat="41.223724" lon="1.519751">
        <ele>27.8</ele>
        <time>2014-12-07T12:00:08Z</time>
      </trkpt>
      <trkpt lat="41.223751" lon="1.519771">
        <ele>27.0</ele>
        <time>2014-12-07T12:00:09Z</time>
      </trkpt>
      <trkpt lat="41.223789" lon="1.519786">
        <ele>26.2</ele>
        <time>2014-12-07T12:00:10Z</time>
      </trkpt>
      <trkpt lat="41.223835" lon="1.519795">
        <ele>25.4</ele>
        <time>2014-12-07T12:00:11Z</time>
      </trkpt>
      <trkpt lat="41.223995" lon="1.519801">
        <ele>25.4</ele>
        <time>2014-12-07T12:00:14Z</time>
      </trkpt>
      <trkpt lat="41.224121" lon="1.519801">
        <ele>24.4</ele>
        <time>2014-12-07T12:00:16Z</time>
      </trkpt>
      <trkpt lat="41.224186" lon="1.519809">
        <ele>24.0</ele>
        <time>2014-12-07T12:00:17Z</time>
      </trkpt>
      <trkpt lat="41.224220" lon="1.519856">
        <ele>23.6</ele>
        <time>2014-12-07T12:00:18Z</time>
      </trkpt>
      <trkpt lat="41.224228" lon="1.519928">
        <ele>23.0</ele>
        <time>2014-12-07T12:00:19Z</time>
      </trkpt>
      <trkpt lat="41.224213" lon="1.519991">
        <ele>22.6</ele>
        <time>2014-12-07T12:00:20Z</time>
      </trkpt>
      <trkpt lat="41.224194" lon="1.520045">
        <ele>22.0</ele>
        <time>2014-12-07T12:00:21Z</time>
      </trkpt>
      <trkpt lat="41.224178" lon="1.520099">
        <ele>21.6</ele>
        <time>2014-12-07T12:00:22Z</time>
      </trkpt>
      <trkpt lat="41.224167" lon="1.520150">
        <ele>21.0</ele>
        <time>2014-12-07T12:00:23Z</time>
      </trkpt>
      <trkpt lat="41.224094" lon="1.520458">
        <ele>21.0</ele>
        <time>2014-12-07T12:00:29Z</time>
      </trkpt>
      <trkpt lat="41.224091" lon="1.520524">
        <ele>21.0</ele>
        <time>2014-12-07T12:00:30Z</time>
      </trkpt>
      <trkpt lat="41.224113" lon="1.520762">
        <ele>21.0</ele>
        <time>2014-12-07T12:00:33Z</time>
      </trkpt>
      <trkpt lat="41.224121" lon="1.520853">
        <ele>21.0</ele>
        <time>2014-12-07T12:00:34Z</time>
      </trkpt>
      <trkpt lat="41.224140" lon="1.521035">
        <ele>20.6</ele>
        <time>2014-12-07T12:00:36Z</time>
      </trkpt>
      <trkpt lat="41.224144" lon="1.521122">
        <ele>20.0</ele>
        <time>2014-12-07T12:00:37Z</time>
      </trkpt>
      <trkpt lat="41.224152" lon="1.521209">
        <ele>19.6</ele>
        <time>2014-12-07T12:00:38Z</time>
      </trkpt>
      <trkpt lat="41.224144" lon="1.521312">
        <ele>19.0</ele>
        <time>2014-12-07T12:00:39Z</time>
      </trkpt>
      <trkpt lat="41.224121" lon="1.521419">
        <ele>18.4</ele>
        <time>2014-12-07T12:00:40Z</time>
      </trkpt>
      <trkpt lat="41.224079" lon="1.521523">
        <ele>16.6</ele>
        <time>2014-12-07T12:00:41Z</time>
      </trkpt>
      <trkpt lat="41.224033" lon="1.521636">
        <ele>15.6</ele>
        <time>2014-12-07T12:00:42Z</time>
      </trkpt>
      <trkpt lat="41.223995" lon="1.521742">
        <ele>14.8</ele>
        <time>2014-12-07T12:00:43Z</time>
      </trkpt>
      <trkpt lat="41.223949" lon="1.521848">
        <ele>14.0</ele>
        <time>2014-12-07T12:00:44Z</time>
      </trkpt>
      <trkpt lat="41.223579" lon="1.522343">
        <ele>11.6</ele>
        <time>2014-12-07T12:00:51Z</time>
      </trkpt>
      <trkpt lat="41.223545" lon="1.522343">
        <ele>11.6</ele>
        <time>2014-12-07T12:00:52Z</time>
      </trkpt>
      <trkpt lat="41.223499" lon="1.522329">
        <ele>11.6</ele>
        <time>2014-12-07T12:00:53Z</time>
      </trkpt>
      <trkpt lat="41.223354" lon="1.522383">
        <ele>11.6</ele>
        <time>2014-12-07T12:00:56Z</time>
      </trkpt>
      <trkpt lat="41.223328" lon="1.522431">
        <ele>11.6</ele>
        <time>2014-12-07T12:00:57Z</time>
      </trkpt>
      <trkpt lat="41.223263" lon="1.522513">
        <ele>11.6</ele>
        <time>2014-12-07T12:00:59Z</time>
      </trkpt>
      <trkpt lat="41.223213" lon="1.522565">
        <ele>12.0</ele>
        <time>2014-12-07T12:01:01Z</time>
      </trkpt>
      <trkpt lat="41.223190" lon="1.522585">
        <ele>12.4</ele>
        <time>2014-12-07T12:01:02Z</time>
      </trkpt>
      <trkpt lat="41.223164" lon="1.522611">
        <ele>12.8</ele>
        <time>2014-12-07T12:01:03Z</time>
      </trkpt>
      <trkpt lat="41.223141" lon="1.522646">
        <ele>13.4</ele>
        <time>2014-12-07T12:01:04Z</time>
      </trkpt>
      <trkpt lat="41.223122" lon="1.522678">
        <ele>14.0</ele>
        <time>2014-12-07T12:01:05Z</time>
      </trkpt>
      <trkpt lat="41.223091" lon="1.522687">
        <ele>15.2</ele>
        <time>2014-12-07T12:01:06Z</time>
      </trkpt>
      <trkpt lat="41.223076" lon="1.522659">
        <ele>15.8</ele>
        <time>2014-12-07T12:01:07Z</time>
      </trkpt>
      <trkpt lat="41.223137" lon="1.522552">
        <ele>15.8</ele>
        <time>2014-12-07T12:01:10Z</time>
      </trkpt>
      <trkpt lat="41.223228" lon="1.522408">
        <ele>15.8</ele>
        <time>2014-12-07T12:01:13Z</time>
      </trkpt>
      <trkpt lat="41.223251" lon="1.522358">
        <ele>15.8</ele>
        <time>2014-12-07T12:01:14Z</time>
      </trkpt>
      <trkpt lat="41.223278" lon="1.522309">
        <ele>15.8</ele>
        <time>2014-12-07T12:01:15Z</time>
      </trkpt>
      <trkpt lat="41.223442" lon="1.522066">
        <ele>15.8</ele>
        <time>2014-12-07T12:01:21Z</time>
      </trkpt>
      <trkpt lat="41.223507" lon="1.521889">
        <ele>16.2</ele>
        <time>2014-12-07T12:01:25Z</time>
      </trkpt>
      <trkpt lat="41.223507" lon="1.521842">
        <ele>16.6</ele>
        <time>2014-12-07T12:01:26Z</time>
      </trkpt>
      <trkpt lat="41.223495" lon="1.521793">
        <ele>17.2</ele>
        <time>2014-12-07T12:01:27Z</time>
      </trkpt>
      <trkpt lat="41.223480" lon="1.521740">
        <ele>17.6</ele>
        <time>2014-12-07T12:01:28Z</time>
      </trkpt>
      <trkpt lat="41.223454" lon="1.521689">
        <ele>18.0</ele>
        <time>2014-12-07T12:01:29Z</time>
      </trkpt>
      <trkpt lat="41.223312" lon="1.521519">
        <ele>18.4</ele>
        <time>2014-12-07T12:01:33Z</time>
      </trkpt>
      <trkpt lat="41.223274" lon="1.521473">
        <ele>18.8</ele>
        <time>2014-12-07T12:01:34Z</time>
      </trkpt>
      <trkpt lat="41.223240" lon="1.521428">
        <ele>19.2</ele>
        <time>2014-12-07T12:01:35Z</time>
      </trkpt>
      <trkpt lat="41.223202" lon="1.521385">
        <ele>19.6</ele>
        <time>2014-12-07T12:01:36Z</time>
      </trkpt>
      <trkpt lat="41.223164" lon="1.521338">
        <ele>20.0</ele>
        <time>2014-12-07T12:01:37Z</time>
      </trkpt>
      <trkpt lat="41.223015" lon="1.521146">
        <ele>20.0</ele>
        <time>2014-12-07T12:01:41Z</time>
      </trkpt>
      <trkpt lat="41.222805" lon="1.520861">
        <ele>20.0</ele>
        <time>2014-12-07T12:01:47Z</time>
      </trkpt>
      <trkpt lat="41.222553" lon="1.520511">
        <ele>20.0</ele>
        <time>2014-12-07T12:01:54Z</time>
      </trkpt>
      <trkpt lat="41.222351" lon="1.520161">
        <ele>20.0</ele>
        <time>2014-12-07T12:02:01Z</time>
      </trkpt>
      <trkpt lat="41.222298" lon="1.520063">
        <ele>20.0</ele>
        <time>2014-12-07T12:02:03Z</time>
      </trkpt>
      <trkpt lat="41.222187" lon="1.519859">
        <ele>20.0</ele>
        <time>2014-12-07T12:02:07Z</time>
      </trkpt>
      <trkpt lat="41.222054" lon="1.519606">
        <ele>20.4</ele>
        <time>2014-12-07T12:02:12Z</time>
      </trkpt>
      <trkpt lat="41.222023" lon="1.519563">
        <ele>20.8</ele>
        <time>2014-12-07T12:02:13Z</time>
      </trkpt>
      <trkpt lat="41.221996" lon="1.519518">
        <ele>21.2</ele>
        <time>2014-12-07T12:02:14Z</time>
      </trkpt>
      <trkpt lat="41.221962" lon="1.519474">
        <ele>21.6</ele>
        <time>2014-12-07T12:02:15Z</time>
      </trkpt>
      <trkpt lat="41.221931" lon="1.519428">
        <ele>22.0</ele>
        <time>2014-12-07T12:02:16Z</time>
      </trkpt>
      <trkpt lat="41.221813" lon="1.519239">
        <ele>22.0</ele>
        <time>2014-12-07T12:02:20Z</time>
      </trkpt>
      <trkpt lat="41.221539" lon="1.518842">
        <ele>22.0</ele>
        <time>2014-12-07T12:02:28Z</time>
      </trkpt>
      <trkpt lat="41.221306" lon="1.518499">
        <ele>22.0</ele>
        <time>2014-12-07T12:02:35Z</time>
      </trkpt>
      <trkpt lat="41.221100" lon="1.518195">
        <ele>22.0</ele>
        <time>2014-12-07T12:02:41Z</time>
      </trkpt>
      <trkpt lat="41.221073" lon="1.518134">
        <ele>22.0</ele>
        <time>2014-12-07T12:02:42Z</time>
      </trkpt>
      <trkpt lat="41.220951" lon="1.518004">
        <ele>22.0</ele>
        <time>2014-12-07T12:02:45Z</time>
      </trkpt>
      <trkpt lat="41.220913" lon="1.517956">
        <ele>22.0</ele>
        <time>2014-12-07T12:02:46Z</time>
      </trkpt>
      <trkpt lat="41.220776" lon="1.517826">
        <ele>22.0</ele>
        <time>2014-12-07T12:02:49Z</time>
      </trkpt>
      <trkpt lat="41.220718" lon="1.517787">
        <ele>22.0</ele>
        <time>2014-12-07T12:02:50Z</time>
      </trkpt>
      <trkpt lat="41.220516" lon="1.517694">
        <ele>22.0</ele>
        <time>2014-12-07T12:02:53Z</time>
      </trkpt>
      <trkpt lat="41.220463" lon="1.517669">
        <ele>22.0</ele>
        <time>2014-12-07T12:02:54Z</time>
      </trkpt>
      <trkpt lat="41.220173" lon="1.517520">
        <ele>22.0</ele>
        <time>2014-12-07T12:03:00Z</time>
      </trkpt>
      <trkpt lat="41.219994" lon="1.517451">
        <ele>22.0</ele>
        <time>2014-12-07T12:03:04Z</time>
      </trkpt>
      <trkpt lat="41.219902" lon="1.517449">
        <ele>22.0</ele>
        <time>2014-12-07T12:03:06Z</time>
      </trkpt>
      <trkpt lat="41.219860" lon="1.517429">
        <ele>22.0</ele>
        <time>2014-12-07T12:03:07Z</time>
      </trkpt>
      <trkpt lat="41.219753" lon="1.517416">
        <ele>23.0</ele>
        <time>2014-12-07T12:03:10Z</time>
      </trkpt>
      <trkpt lat="41.219715" lon="1.517408">
        <ele>23.4</ele>
        <time>2014-12-07T12:03:11Z</time>
      </trkpt>
      <trkpt lat="41.219677" lon="1.517394">
        <ele>23.8</ele>
        <time>2014-12-07T12:03:12Z</time>
      </trkpt>
      <trkpt lat="41.219643" lon="1.517390">
        <ele>24.4</ele>
        <time>2014-12-07T12:03:13Z</time>
      </trkpt>
      <trkpt lat="41.219578" lon="1.517371">
        <ele>24.4</ele>
        <time>2014-12-07T12:03:15Z</time>
      </trkpt>
      <trkpt lat="41.219460" lon="1.517359">
        <ele>24.8</ele>
        <time>2014-12-07T12:03:19Z</time>
      </trkpt>
      <trkpt lat="41.219429" lon="1.517349">
        <ele>25.2</ele>
        <time>2014-12-07T12:03:20Z</time>
      </trkpt>
      <trkpt lat="41.219402" lon="1.517334">
        <ele>25.6</ele>
        <time>2014-12-07T12:03:21Z</time>
      </trkpt>
      <trkpt lat="41.219376" lon="1.517324">
        <ele>26.0</ele>
        <time>2014-12-07T12:03:22Z</time>
      </trkpt>
      <trkpt lat="41.219353" lon="1.517321">
        <ele>26.4</ele>
        <time>2014-12-07T12:03:23Z</time>
      </trkpt>
      <trkpt lat="41.219299" lon="1.517347">
        <ele>26.4</ele>
        <time>2014-12-07T12:03:26Z</time>
      </trkpt>
      <trkpt lat="41.219273" lon="1.517472">
        <ele>26.4</ele>
        <time>2014-12-07T12:03:30Z</time>
      </trkpt>
      <trkpt lat="41.219250" lon="1.517635">
        <ele>26.4</ele>
        <time>2014-12-07T12:03:33Z</time>
      </trkpt>
      <trkpt lat="41.219242" lon="1.517688">
        <ele>26.4</ele>
        <time>2014-12-07T12:03:34Z</time>
      </trkpt>
      <trkpt lat="41.219215" lon="1.517812">
        <ele>26.0</ele>
        <time>2014-12-07T12:03:36Z</time>
      </trkpt>
      <trkpt lat="41.219204" lon="1.517896">
        <ele>25.6</ele>
        <time>2014-12-07T12:03:37Z</time>
      </trkpt>
      <trkpt lat="41.219181" lon="1.517976">
        <ele>25.0</ele>
        <time>2014-12-07T12:03:38Z</time>
      </trkpt>
      <trkpt lat="41.219154" lon="1.518054">
        <ele>24.6</ele>
        <time>2014-12-07T12:03:39Z</time>
      </trkpt>
      <trkpt lat="41.219128" lon="1.518137">
        <ele>24.2</ele>
        <time>2014-12-07T12:03:40Z</time>
      </trkpt>
      <trkpt lat="41.219055" lon="1.518411">
        <ele>24.2</ele>
        <time>2014-12-07T12:03:43Z</time>
      </trkpt>
      <trkpt lat="41.219028" lon="1.518508">
        <ele>23.8</ele>
        <time>2014-12-07T12:03:44Z</time>
      </trkpt>
      <trkpt lat="41.219006" lon="1.518602">
        <ele>23.4</ele>
        <time>2014-12-07T12:03:45Z</time>
      </trkpt>
      <trkpt lat="41.218971" lon="1.518705">
        <ele>23.0</ele>
        <time>2014-12-07T12:03:46Z</time>
      </trkpt>
      <trkpt lat="41.218948" lon="1.518797">
        <ele>22.6</ele>
        <time>2014-12-07T12:03:47Z</time>
      </trkpt>
      <trkpt lat="41.218922" lon="1.518889">
        <ele>22.0</ele>
        <time>2014-12-07T12:03:48Z</time>
      </trkpt>
      <trkpt lat="41.218891" lon="1.518978">
        <ele>21.4</ele>
        <time>2014-12-07T12:03:49Z</time>
      </trkpt>
      <trkpt lat="41.218872" lon="1.519072">
        <ele>20.8</ele>
        <time>2014-12-07T12:03:50Z</time>
      </trkpt>
      <trkpt lat="41.218842" lon="1.519161">
        <ele>20.2</ele>
        <time>2014-12-07T12:03:51Z</time>
      </trkpt>
      <trkpt lat="41.218819" lon="1.519253">
        <ele>19.6</ele>
        <time>2014-12-07T12:03:52Z</time>
      </trkpt>
      <trkpt lat="41.218712" lon="1.519643">
        <ele>19.6</ele>
        <time>2014-12-07T12:03:56Z</time>
      </trkpt>
      <trkpt lat="41.218685" lon="1.519741">
        <ele>19.2</ele>
        <time>2014-12-07T12:03:57Z</time>
      </trkpt>
      <trkpt lat="41.218658" lon="1.519832">
        <ele>18.8</ele>
        <time>2014-12-07T12:03:58Z</time>
      </trkpt>
      <trkpt lat="41.218632" lon="1.519906">
        <ele>17.8</ele>
        <time>2014-12-07T12:03:59Z</time>
      </trkpt>
      <trkpt lat="41.218616" lon="1.519955">
        <ele>17.4</ele>
        <time>2014-12-07T12:04:00Z</time>
      </trkpt>
      <trkpt lat="41.218609" lon="1.519978">
        <ele>17.0</ele>
        <time>2014-12-07T12:04:01Z</time>
      </trkpt>
      <trkpt lat="41.218605" lon="1.519993">
        <ele>16.4</ele>
        <time>2014-12-07T12:04:02Z</time>
      </trkpt>
      <trkpt lat="41.218601" lon="1.520010">
        <ele>16.0</ele>
        <time>2014-12-07T12:04:03Z</time>
      </trkpt>
      <trkpt lat="41.218594" lon="1.520014">
        <ele>15.4</ele>
        <time>2014-12-07T12:04:04Z</time>
      </trkpt>
      <trkpt lat="41.218586" lon="1.520027">
        <ele>15.0</ele>
        <time>2014-12-07T12:04:05Z</time>
      </trkpt>
      <trkpt lat="41.218540" lon="1.520176">
        <ele>15.0</ele>
        <time>2014-12-07T12:04:10Z</time>
      </trkpt>
      <trkpt lat="41.218449" lon="1.520386">
        <ele>15.0</ele>
        <time>2014-12-07T12:04:15Z</time>
      </trkpt>
      <trkpt lat="41.218422" lon="1.520444">
        <ele>15.0</ele>
        <time>2014-12-07T12:04:16Z</time>
      </trkpt>
      <trkpt lat="41.218395" lon="1.520507">
        <ele>14.6</ele>
        <time>2014-12-07T12:04:17Z</time>
      </trkpt>
      <trkpt lat="41.218376" lon="1.520581">
        <ele>14.2</ele>
        <time>2014-12-07T12:04:18Z</time>
      </trkpt>
      <trkpt lat="41.218349" lon="1.520666">
        <ele>13.6</ele>
        <time>2014-12-07T12:04:19Z</time>
      </trkpt>
      <trkpt lat="41.218323" lon="1.520755">
        <ele>13.2</ele>
        <time>2014-12-07T12:04:20Z</time>
      </trkpt>
      <trkpt lat="41.218292" lon="1.520850">
        <ele>12.8</ele>
        <time>2014-12-07T12:04:21Z</time>
      </trkpt>
      <trkpt lat="41.218212" lon="1.521054">
        <ele>12.4</ele>
        <time>2014-12-07T12:04:23Z</time>
      </trkpt>
      <trkpt lat="41.218170" lon="1.521162">
        <ele>11.6</ele>
        <time>2014-12-07T12:04:24Z</time>
      </trkpt>
      <trkpt lat="41.218124" lon="1.521273">
        <ele>11.2</ele>
        <time>2014-12-07T12:04:25Z</time>
      </trkpt>
      <trkpt lat="41.218079" lon="1.521385">
        <ele>10.6</ele>
        <time>2014-12-07T12:04:26Z</time>
      </trkpt>
      <trkpt lat="41.218037" lon="1.521496">
        <ele>10.0</ele>
        <time>2014-12-07T12:04:27Z</time>
      </trkpt>
      <trkpt lat="41.217991" lon="1.521609">
        <ele>9.4</ele>
        <time>2014-12-07T12:04:28Z</time>
      </trkpt>
      <trkpt lat="41.217949" lon="1.521731">
        <ele>8.8</ele>
        <time>2014-12-07T12:04:29Z</time>
      </trkpt>
      <trkpt lat="41.217903" lon="1.521858">
        <ele>8.4</ele>
        <time>2014-12-07T12:04:30Z</time>
      </trkpt>
      <trkpt lat="41.217854" lon="1.521970">
        <ele>7.8</ele>
        <time>2014-12-07T12:04:31Z</time>
      </trkpt>
      <trkpt lat="41.217800" lon="1.522075">
        <ele>7.4</ele>
        <time>2014-12-07T12:04:32Z</time>
      </trkpt>
      <trkpt lat="41.217754" lon="1.522176">
        <ele>7.0</ele>
        <time>2014-12-07T12:04:33Z</time>
      </trkpt>
      <trkpt lat="41.217716" lon="1.522288">
        <ele>6.2</ele>
        <time>2014-12-07T12:04:34Z</time>
      </trkpt>
      <trkpt lat="41.217655" lon="1.522385">
        <ele>5.6</ele>
        <time>2014-12-07T12:04:35Z</time>
      </trkpt>
      <trkpt lat="41.217575" lon="1.522459">
        <ele>5.0</ele>
        <time>2014-12-07T12:04:36Z</time>
      </trkpt>
      <trkpt lat="41.217472" lon="1.522495">
        <ele>4.2</ele>
        <time>2014-12-07T12:04:37Z</time>
      </trkpt>
      <trkpt lat="41.217369" lon="1.522515">
        <ele>3.6</ele>
        <time>2014-12-07T12:04:38Z</time>
      </trkpt>
      <trkpt lat="41.217274" lon="1.522537">
        <ele>2.8</ele>
        <time>2014-12-07T12:04:39Z</time>
      </trkpt>
      <trkpt lat="41.217175" lon="1.522570">
        <ele>2.2</ele>
        <time>2014-12-07T12:04:40Z</time>
      </trkpt>
      <trkpt lat="41.217075" lon="1.522602">
        <ele>1.6</ele>
        <time>2014-12-07T12:04:41Z</time>
      </trkpt>
      <trkpt lat="41.216976" lon="1.522635">
        <ele>1.2</ele>
        <time>2014-12-07T12:04:42Z</time>
      </trkpt>
      <trkpt lat="41.216888" lon="1.522667">
        <ele>0.6</ele>
        <time>2014-12-07T12:04:43Z</time>
      </trkpt>
      <trkpt lat="41.216808" lon="1.522696">
        <ele>0.2</ele>
        <time>2014-12-07T12:04:44Z</time>
      </trkpt>
      <trkpt lat="41.216732" lon="1.522723">
        <ele>-0.2</ele>
        <time>2014-12-07T12:04:45Z</time>
      </trkpt>
      <trkpt lat="41.216660" lon="1.522752">
        <ele>-0.6</ele>
        <time>2014-12-07T12:04:46Z</time>
      </trkpt>
      <trkpt lat="41.216595" lon="1.522796">
        <ele>-1.0</ele>
        <time>2014-12-07T12:04:47Z</time>
      </trkpt>
      <trkpt lat="41.216534" lon="1.522845">
        <ele>-1.4</ele>
        <time>2014-12-07T12:04:48Z</time>
      </trkpt>
      <trkpt lat="41.216499" lon="1.522931">
        <ele>-2.2</ele>
        <time>2014-12-07T12:04:49Z</time>
      </trkpt>
      <trkpt lat="41.216507" lon="1.523020">
        <ele>-2.6</ele>
        <time>2014-12-07T12:04:50Z</time>
      </trkpt>
      <trkpt lat="41.216530" lon="1.523101">
        <ele>-2.6</ele>
        <time>2014-12-07T12:04:51Z</time>
      </trkpt>
      <trkpt lat="41.216549" lon="1.523177">
        <ele>-2.6</ele>
        <time>2014-12-07T12:04:52Z</time>
      </trkpt>
      <trkpt lat="41.216637" lon="1.523545">
        <ele>-2.6</ele>
        <time>2014-12-07T12:04:57Z</time>
      </trkpt>
      <trkpt lat="41.216805" lon="1.524280">
        <ele>-2.6</ele>
        <time>2014-12-07T12:05:07Z</time>
      </trkpt>
      <trkpt lat="41.216881" lon="1.524635">
        <ele>-2.6</ele>
        <time>2014-12-07T12:05:13Z</time>
      </trkpt>
      <trkpt lat="41.216984" lon="1.524709">
        <ele>-2.6</ele>
        <time>2014-12-07T12:05:17Z</time>
      </trkpt>
      <trkpt lat="41.217133" lon="1.524637">
        <ele>-2.6</ele>
        <time>2014-12-07T12:05:21Z</time>
      </trkpt>
      <trkpt lat="41.217327" lon="1.524574">
        <ele>-2.6</ele>
        <time>2014-12-07T12:05:26Z</time>
      </trkpt>
      <trkpt lat="41.217403" lon="1.524709">
        <ele>-2.6</ele>
        <time>2014-12-07T12:05:29Z</time>
      </trkpt>
      <trkpt lat="41.217438" lon="1.524815">
        <ele>-2.6</ele>
        <time>2014-12-07T12:05:31Z</time>
      </trkpt>
      <trkpt lat="41.217484" lon="1.524973">
        <ele>-2.2</ele>
        <time>2014-12-07T12:05:34Z</time>
      </trkpt>
      <trkpt lat="41.217491" lon="1.525026">
        <ele>-1.8</ele>
        <time>2014-12-07T12:05:35Z</time>
      </trkpt>
      <trkpt lat="41.217510" lon="1.525076">
        <ele>-1.4</ele>
        <time>2014-12-07T12:05:36Z</time>
      </trkpt>
      <trkpt lat="41.217518" lon="1.525126">
        <ele>-1.0</ele>
        <time>2014-12-07T12:05:37Z</time>
      </trkpt>
      <trkpt lat="41.217537" lon="1.525177">
        <ele>-0.6</ele>
        <time>2014-12-07T12:05:38Z</time>
      </trkpt>
      <trkpt lat="41.217594" lon="1.525381">
        <ele>-0.6</ele>
        <time>2014-12-07T12:05:42Z</time>
      </trkpt>
      <trkpt lat="41.217636" lon="1.525516">
        <ele>0.0</ele>
        <time>2014-12-07T12:05:45Z</time>
      </trkpt>
      <trkpt lat="41.217648" lon="1.525559">
        <ele>0.6</ele>
        <time>2014-12-07T12:05:46Z</time>
      </trkpt>
      <trkpt lat="41.217663" lon="1.525604">
        <ele>1.0</ele>
        <time>2014-12-07T12:05:47Z</time>
      </trkpt>
      <trkpt lat="41.217678" lon="1.525651">
        <ele>1.6</ele>
        <time>2014-12-07T12:05:48Z</time>
      </trkpt>
      <trkpt lat="41.217693" lon="1.525700">
        <ele>2.2</ele>
        <time>2014-12-07T12:05:49Z</time>
      </trkpt>
      <trkpt lat="41.217709" lon="1.525751">
        <ele>2.2</ele>
        <time>2014-12-07T12:05:50Z</time>
      </trkpt>
      <trkpt lat="41.217854" lon="1.526133">
        <ele>2.2</ele>
        <time>2014-12-07T12:05:57Z</time>
      </trkpt>
      <trkpt lat="41.217896" lon="1.526248">
        <ele>1.6</ele>
        <time>2014-12-07T12:05:59Z</time>
      </trkpt>
      <trkpt lat="41.217918" lon="1.526302">
        <ele>1.2</ele>
        <time>2014-12-07T12:06:00Z</time>
      </trkpt>
      <trkpt lat="41.217941" lon="1.526365">
        <ele>0.8</ele>
        <time>2014-12-07T12:06:01Z</time>
      </trkpt>
      <trkpt lat="41.217960" lon="1.526423">
        <ele>0.4</ele>
        <time>2014-12-07T12:06:02Z</time>
      </trkpt>
      <trkpt lat="41.217979" lon="1.526474">
        <ele>0.0</ele>
        <time>2014-12-07T12:06:03Z</time>
      </trkpt>
      <trkpt lat="41.218002" lon="1.526524">
        <ele>0.0</ele>
        <time>2014-12-07T12:06:04Z</time>
      </trkpt>
      <trkpt lat="41.218040" lon="1.526616">
        <ele>0.0</ele>
        <time>2014-12-07T12:06:06Z</time>
      </trkpt>
      <trkpt lat="41.218102" lon="1.526647">
        <ele>0.0</ele>
        <time>2014-12-07T12:06:08Z</time>
      </trkpt>
      <trkpt lat="41.218178" lon="1.526572">
        <ele>0.0</ele>
        <time>2014-12-07T12:06:11Z</time>
      </trkpt>
      <trkpt lat="41.218288" lon="1.526429">
        <ele>0.0</ele>
        <time>2014-12-07T12:06:16Z</time>
      </trkpt>
      <trkpt lat="41.218376" lon="1.526319">
        <ele>0.0</ele>
        <time>2014-12-07T12:06:19Z</time>
      </trkpt>
      <trkpt lat="41.218464" lon="1.526220">
        <ele>0.0</ele>
        <time>2014-12-07T12:06:22Z</time>
      </trkpt>
      <trkpt lat="41.218674" lon="1.525982">
        <ele>0.0</ele>
        <time>2014-12-07T12:06:29Z</time>
      </trkpt>
      <trkpt lat="41.218853" lon="1.525776">
        <ele>0.0</ele>
        <time>2014-12-07T12:06:35Z</time>
      </trkpt>
      <trkpt lat="41.218933" lon="1.525737">
        <ele>0.0</ele>
        <time>2014-12-07T12:06:38Z</time>
      </trkpt>
      <trkpt lat="41.218964" lon="1.525746">
        <ele>0.0</ele>
        <time>2014-12-07T12:06:39Z</time>
      </trkpt>
      <trkpt lat="41.219017" lon="1.525720">
        <ele>0.0</ele>
        <time>2014-12-07T12:06:42Z</time>
      </trkpt>
      <trkpt lat="41.219028" lon="1.525698">
        <ele>0.0</ele>
        <time>2014-12-07T12:06:43Z</time>
      </trkpt>
      <trkpt lat="41.219025" lon="1.525672">
        <ele>0.0</ele>
        <time>2014-12-07T12:06:44Z</time>
      </trkpt>
      <trkpt lat="41.219013" lon="1.525643">
        <ele>0.0</ele>
        <time>2014-12-07T12:06:47Z</time>
      </trkpt>
      <trkpt lat="41.219013" lon="1.525643">
        <ele>0.0</ele>
        <time>2014-12-07T12:06:48Z</time>
      </trkpt>
    </trkseg>
  </trk></gpx>